<?xml version='1.0' encoding='UTF-8'?><gpx version="1.1" creator="JPX - https://github.com/jenetics/jpx" xmlns="http://www.topografix.com/GPX/1/1"><trk><trkseg><trkpt lat="38.8385361" lon="16.2624587"><ele>35.0</ele><time>2026-04-19T07:23:26.257Z</time></trkpt><trkpt lat="38.838627" lon="16.2624794"><ele>35.0</ele><time>2026-04-19T07:23:28.259Z</time></trkpt><trkpt lat="38.8387036" lon="16.2625146"><ele>35.0</ele><time>2026-04-19T07:23:30.249Z</time></trkpt><trkpt lat="38.838771" lon="16.2625496"><ele>35.0</ele><time>2026-04-19T07:23:32.243Z</time></trkpt><trkpt lat="38.8388463" lon="16.2625947"><ele>35.0</ele><time>2026-04-19T07:23:35.244Z</time></trkpt><trkpt lat="38.8388516" lon="16.2626947"><ele>35.0</ele><time>2026-04-19T07:23:39.237Z</time></trkpt><trkpt lat="38.8388088" lon="16.2627552"><ele>35.0</ele><time>2026-04-19T07:23:41.263Z</time></trkpt><trkpt lat="38.8387661" lon="16.2628149"><ele>35.0</ele><time>2026-04-19T07:23:43.243Z</time></trkpt><trkpt lat="38.8387175" lon="16.2628859"><ele>35.0</ele><time>2026-04-19T07:23:47.249Z</time></trkpt><trkpt lat="38.8386598" lon="16.2629565"><ele>35.0</ele><time>2026-04-19T07:23:51.246Z</time></trkpt><trkpt lat="38.8386132" lon="16.2630133"><ele>35.0</ele><time>2026-04-19T07:23:58.229Z</time></trkpt><trkpt lat="38.8385424" lon="16.2630999"><ele>35.0</ele><time>2026-04-19T07:24:04.244Z</time></trkpt><trkpt lat="38.8384661" lon="16.2632002"><ele>35.4</ele><time>2026-04-19T07:24:06.238Z</time></trkpt><trkpt lat="38.8383913" lon="16.2633023"><ele>35.8</ele><time>2026-04-19T07:24:08.235Z</time></trkpt><trkpt lat="38.8383703" lon="16.2634035"><ele>36.2</ele><time>2026-04-19T07:24:09.253Z</time></trkpt><trkpt lat="38.8383422" lon="16.2635266"><ele>36.6</ele><time>2026-04-19T07:24:10.246Z</time></trkpt><trkpt lat="38.8383114" lon="16.2636429"><ele>37.0</ele><time>2026-04-19T07:24:11.234Z</time></trkpt><trkpt lat="38.8382833" lon="16.2637543"><ele>37.0</ele><time>2026-04-19T07:24:12.238Z</time></trkpt><trkpt lat="38.8382582" lon="16.2638603"><ele>37.0</ele><time>2026-04-19T07:24:13.236Z</time></trkpt><trkpt lat="38.838234" lon="16.2639597"><ele>37.0</ele><time>2026-04-19T07:24:14.24Z</time></trkpt><trkpt lat="38.8382109" lon="16.2640564"><ele>37.0</ele><time>2026-04-19T07:24:15.232Z</time></trkpt><trkpt lat="38.8381895" lon="16.2641517"><ele>37.0</ele><time>2026-04-19T07:24:16.239Z</time></trkpt><trkpt lat="38.8381675" lon="16.2642484"><ele>37.0</ele><time>2026-04-19T07:24:17.24Z</time></trkpt><trkpt lat="38.8381442" lon="16.2643469"><ele>37.333333333333336</ele><time>2026-04-19T07:24:18.243Z</time></trkpt><trkpt lat="38.8381187" lon="16.2644485"><ele>37.66666666666667</ele><time>2026-04-19T07:24:19.237Z</time></trkpt><trkpt lat="38.8380934" lon="16.2645558"><ele>38.0</ele><time>2026-04-19T07:24:20.239Z</time></trkpt><trkpt lat="38.8380678" lon="16.2646685"><ele>38.333333333333336</ele><time>2026-04-19T07:24:21.252Z</time></trkpt><trkpt lat="38.8380396" lon="16.2647831"><ele>38.666666666666664</ele><time>2026-04-19T07:24:22.233Z</time></trkpt><trkpt lat="38.8380117" lon="16.2648961"><ele>39.0</ele><time>2026-04-19T07:24:23.244Z</time></trkpt><trkpt lat="38.8379833" lon="16.2650107"><ele>39.2</ele><time>2026-04-19T07:24:24.244Z</time></trkpt><trkpt lat="38.8379544" lon="16.2651311"><ele>39.4</ele><time>2026-04-19T07:24:25.239Z</time></trkpt><trkpt lat="38.8379243" lon="16.265257"><ele>39.6</ele><time>2026-04-19T07:24:26.243Z</time></trkpt><trkpt lat="38.8378939" lon="16.2653871"><ele>39.8</ele><time>2026-04-19T07:24:27.249Z</time></trkpt><trkpt lat="38.837862" lon="16.2655216"><ele>40.0</ele><time>2026-04-19T07:24:28.241Z</time></trkpt><trkpt lat="38.8378286" lon="16.2656595"><ele>40.75</ele><time>2026-04-19T07:24:29.25Z</time></trkpt><trkpt lat="38.8377932" lon="16.2657997"><ele>41.5</ele><time>2026-04-19T07:24:30.241Z</time></trkpt><trkpt lat="38.8377553" lon="16.2659425"><ele>42.25</ele><time>2026-04-19T07:24:31.232Z</time></trkpt><trkpt lat="38.8377139" lon="16.2660868"><ele>43.0</ele><time>2026-04-19T07:24:32.241Z</time></trkpt><trkpt lat="38.8376704" lon="16.2662314"><ele>43.25</ele><time>2026-04-19T07:24:33.25Z</time></trkpt><trkpt lat="38.8376219" lon="16.2663823"><ele>43.5</ele><time>2026-04-19T07:24:34.241Z</time></trkpt><trkpt lat="38.8375667" lon="16.2665352"><ele>43.75</ele><time>2026-04-19T07:24:35.238Z</time></trkpt><trkpt lat="38.8375042" lon="16.2666913"><ele>44.0</ele><time>2026-04-19T07:24:36.246Z</time></trkpt><trkpt lat="38.8374404" lon="16.266852"><ele>44.25</ele><time>2026-04-19T07:24:37.241Z</time></trkpt><trkpt lat="38.8373756" lon="16.2670142"><ele>44.5</ele><time>2026-04-19T07:24:38.244Z</time></trkpt><trkpt lat="38.83731" lon="16.2671737"><ele>44.75</ele><time>2026-04-19T07:24:39.246Z</time></trkpt><trkpt lat="38.8372438" lon="16.2673314"><ele>45.0</ele><time>2026-04-19T07:24:40.241Z</time></trkpt><trkpt lat="38.8371778" lon="16.2674869"><ele>45.75</ele><time>2026-04-19T07:24:41.25Z</time></trkpt><trkpt lat="38.8371156" lon="16.2676421"><ele>46.5</ele><time>2026-04-19T07:24:42.248Z</time></trkpt><trkpt lat="38.8370573" lon="16.2677958"><ele>47.25</ele><time>2026-04-19T07:24:43.239Z</time></trkpt><trkpt lat="38.8370029" lon="16.2679534"><ele>48.0</ele><time>2026-04-19T07:24:44.232Z</time></trkpt><trkpt lat="38.8369519" lon="16.26811"><ele>48.0</ele><time>2026-04-19T07:24:45.24Z</time></trkpt><trkpt lat="38.8369041" lon="16.2682659"><ele>48.0</ele><time>2026-04-19T07:24:46.238Z</time></trkpt><trkpt lat="38.8368598" lon="16.2684153"><ele>48.0</ele><time>2026-04-19T07:24:47.237Z</time></trkpt><trkpt lat="38.8368217" lon="16.2685483"><ele>48.0</ele><time>2026-04-19T07:24:48.238Z</time></trkpt><trkpt lat="38.8367877" lon="16.2686718"><ele>48.0</ele><time>2026-04-19T07:24:49.251Z</time></trkpt><trkpt lat="38.8367547" lon="16.2687945"><ele>48.0</ele><time>2026-04-19T07:24:50.244Z</time></trkpt><trkpt lat="38.8367195" lon="16.2689158"><ele>48.0</ele><time>2026-04-19T07:24:51.243Z</time></trkpt><trkpt lat="38.8366749" lon="16.2690431"><ele>48.0</ele><time>2026-04-19T07:24:52.232Z</time></trkpt><trkpt lat="38.8366226" lon="16.2691829"><ele>48.0</ele><time>2026-04-19T07:24:53.25Z</time></trkpt><trkpt lat="38.8365641" lon="16.2693276"><ele>48.0</ele><time>2026-04-19T07:24:54.239Z</time></trkpt><trkpt lat="38.8365021" lon="16.2694782"><ele>48.0</ele><time>2026-04-19T07:24:55.238Z</time></trkpt><trkpt lat="38.8364379" lon="16.2696405"><ele>48.0</ele><time>2026-04-19T07:24:56.24Z</time></trkpt><trkpt lat="38.8363716" lon="16.2698122"><ele>48.0</ele><time>2026-04-19T07:24:57.243Z</time></trkpt><trkpt lat="38.8363032" lon="16.2699871"><ele>48.25</ele><time>2026-04-19T07:24:58.233Z</time></trkpt><trkpt lat="38.8362312" lon="16.270157"><ele>48.5</ele><time>2026-04-19T07:24:59.241Z</time></trkpt><trkpt lat="38.8361573" lon="16.2703185"><ele>48.75</ele><time>2026-04-19T07:25:00.24Z</time></trkpt><trkpt lat="38.8360857" lon="16.2704746"><ele>49.0</ele><time>2026-04-19T07:25:01.248Z</time></trkpt><trkpt lat="38.836002" lon="16.2706136"><ele>50.5</ele><time>2026-04-19T07:25:02.236Z</time></trkpt><trkpt lat="38.8359222" lon="16.2707425"><ele>52.0</ele><time>2026-04-19T07:25:03.236Z</time></trkpt><trkpt lat="38.8358308" lon="16.2708564"><ele>53.5</ele><time>2026-04-19T07:25:04.233Z</time></trkpt><trkpt lat="38.835741" lon="16.2709597"><ele>55.0</ele><time>2026-04-19T07:25:05.235Z</time></trkpt><trkpt lat="38.8356505" lon="16.2710599"><ele>55.0</ele><time>2026-04-19T07:25:06.247Z</time></trkpt><trkpt lat="38.8355618" lon="16.2711558"><ele>55.0</ele><time>2026-04-19T07:25:07.238Z</time></trkpt><trkpt lat="38.8354805" lon="16.2712439"><ele>55.0</ele><time>2026-04-19T07:25:08.24Z</time></trkpt><trkpt lat="38.8354173" lon="16.2713147"><ele>55.0</ele><time>2026-04-19T07:25:09.235Z</time></trkpt><trkpt lat="38.8353541" lon="16.2714345"><ele>55.0</ele><time>2026-04-19T07:25:11.241Z</time></trkpt><trkpt lat="38.8354177" lon="16.2715637"><ele>54.99999999999999</ele><time>2026-04-19T07:25:13.238Z</time></trkpt><trkpt lat="38.8354849" lon="16.2716241"><ele>55.0</ele><time>2026-04-19T07:25:14.238Z</time></trkpt><trkpt lat="38.8355613" lon="16.2716569"><ele>55.0</ele><time>2026-04-19T07:25:15.245Z</time></trkpt><trkpt lat="38.8356306" lon="16.2716727"><ele>55.0</ele><time>2026-04-19T07:25:16.242Z</time></trkpt><trkpt lat="38.8356983" lon="16.2716809"><ele>54.99999999999999</ele><time>2026-04-19T07:25:17.239Z</time></trkpt><trkpt lat="38.8357762" lon="16.2716803"><ele>55.0</ele><time>2026-04-19T07:25:18.237Z</time></trkpt><trkpt lat="38.835898" lon="16.2716683"><ele>54.6</ele><time>2026-04-19T07:25:19.236Z</time></trkpt><trkpt lat="38.8360083" lon="16.2716847"><ele>54.2</ele><time>2026-04-19T07:25:20.242Z</time></trkpt><trkpt lat="38.836093" lon="16.2717164"><ele>53.8</ele><time>2026-04-19T07:25:21.245Z</time></trkpt><trkpt lat="38.8361708" lon="16.2717746"><ele>53.4</ele><time>2026-04-19T07:25:22.24Z</time></trkpt><trkpt lat="38.836248" lon="16.2718629"><ele>53.0</ele><time>2026-04-19T07:25:23.241Z</time></trkpt><trkpt lat="38.836331" lon="16.2719696"><ele>53.0</ele><time>2026-04-19T07:25:24.241Z</time></trkpt><trkpt lat="38.8364145" lon="16.2720871"><ele>53.0</ele><time>2026-04-19T07:25:25.236Z</time></trkpt><trkpt lat="38.836495" lon="16.2722158"><ele>53.0</ele><time>2026-04-19T07:25:26.241Z</time></trkpt><trkpt lat="38.8365647" lon="16.272357"><ele>53.0</ele><time>2026-04-19T07:25:27.258Z</time></trkpt><trkpt lat="38.8366247" lon="16.2725057"><ele>53.0</ele><time>2026-04-19T07:25:28.24Z</time></trkpt><trkpt lat="38.8366734" lon="16.2726583"><ele>53.0</ele><time>2026-04-19T07:25:29.234Z</time></trkpt><trkpt lat="38.8367117" lon="16.2728117"><ele>53.0</ele><time>2026-04-19T07:25:30.252Z</time></trkpt><trkpt lat="38.8367394" lon="16.2729656"><ele>53.0</ele><time>2026-04-19T07:25:31.246Z</time></trkpt><trkpt lat="38.8367717" lon="16.2731185"><ele>52.25</ele><time>2026-04-19T07:25:32.234Z</time></trkpt><trkpt lat="38.836806" lon="16.2732794"><ele>51.5</ele><time>2026-04-19T07:25:33.243Z</time></trkpt><trkpt lat="38.8368424" lon="16.273434"><ele>50.75</ele><time>2026-04-19T07:25:34.233Z</time></trkpt><trkpt lat="38.8368801" lon="16.2735896"><ele>50.0</ele><time>2026-04-19T07:25:35.228Z</time></trkpt><trkpt lat="38.8369159" lon="16.27374"><ele>50.0</ele><time>2026-04-19T07:25:36.236Z</time></trkpt><trkpt lat="38.8369571" lon="16.273889"><ele>50.0</ele><time>2026-04-19T07:25:37.247Z</time></trkpt><trkpt lat="38.8370067" lon="16.2740376"><ele>50.0</ele><time>2026-04-19T07:25:38.237Z</time></trkpt><trkpt lat="38.8370653" lon="16.2741811"><ele>50.0</ele><time>2026-04-19T07:25:39.257Z</time></trkpt><trkpt lat="38.8371288" lon="16.2743224"><ele>50.25</ele><time>2026-04-19T07:25:40.255Z</time></trkpt><trkpt lat="38.8371968" lon="16.2744617"><ele>50.5</ele><time>2026-04-19T07:25:41.239Z</time></trkpt><trkpt lat="38.8372681" lon="16.2745957"><ele>50.75</ele><time>2026-04-19T07:25:42.241Z</time></trkpt><trkpt lat="38.8373323" lon="16.2747174"><ele>51.0</ele><time>2026-04-19T07:25:43.235Z</time></trkpt><trkpt lat="38.8373818" lon="16.2748127"><ele>51.0</ele><time>2026-04-19T07:25:44.247Z</time></trkpt><trkpt lat="38.8374246" lon="16.2748922"><ele>51.0</ele><time>2026-04-19T07:25:45.238Z</time></trkpt><trkpt lat="38.8374653" lon="16.2749685"><ele>51.0</ele><time>2026-04-19T07:25:46.236Z</time></trkpt><trkpt lat="38.8375069" lon="16.2750475"><ele>51.0</ele><time>2026-04-19T07:25:47.242Z</time></trkpt><trkpt lat="38.8375551" lon="16.2751383"><ele>51.0</ele><time>2026-04-19T07:25:48.252Z</time></trkpt><trkpt lat="38.8376007" lon="16.2752223"><ele>51.0</ele><time>2026-04-19T07:25:49.248Z</time></trkpt><trkpt lat="38.8376406" lon="16.2752947"><ele>51.0</ele><time>2026-04-19T07:25:51.252Z</time></trkpt><trkpt lat="38.8376934" lon="16.275401"><ele>51.0</ele><time>2026-04-19T07:25:54.243Z</time></trkpt><trkpt lat="38.8377448" lon="16.2754988"><ele>51.0</ele><time>2026-04-19T07:25:56.247Z</time></trkpt><trkpt lat="38.837813" lon="16.2756198"><ele>51.0</ele><time>2026-04-19T07:25:58.232Z</time></trkpt><trkpt lat="38.8378537" lon="16.2756904"><ele>51.0</ele><time>2026-04-19T07:25:59.255Z</time></trkpt><trkpt lat="38.8378924" lon="16.2757634"><ele>51.0</ele><time>2026-04-19T07:26:00.257Z</time></trkpt><trkpt lat="38.8379245" lon="16.2758424"><ele>51.5</ele><time>2026-04-19T07:26:01.251Z</time></trkpt><trkpt lat="38.8379597" lon="16.2759265"><ele>52.0</ele><time>2026-04-19T07:26:02.227Z</time></trkpt><trkpt lat="38.8380041" lon="16.2760199"><ele>52.5</ele><time>2026-04-19T07:26:03.246Z</time></trkpt><trkpt lat="38.8380485" lon="16.2761156"><ele>53.0</ele><time>2026-04-19T07:26:04.242Z</time></trkpt><trkpt lat="38.8380929" lon="16.2762176"><ele>53.5</ele><time>2026-04-19T07:26:05.232Z</time></trkpt><trkpt lat="38.8381422" lon="16.2763249"><ele>54.0</ele><time>2026-04-19T07:26:06.24Z</time></trkpt><trkpt lat="38.8381936" lon="16.2764337"><ele>54.400000000000006</ele><time>2026-04-19T07:26:07.249Z</time></trkpt><trkpt lat="38.8382466" lon="16.2765397"><ele>54.800000000000004</ele><time>2026-04-19T07:26:08.244Z</time></trkpt><trkpt lat="38.8382873" lon="16.2766274"><ele>55.199999999999996</ele><time>2026-04-19T07:26:09.25Z</time></trkpt><trkpt lat="38.8383509" lon="16.276758"><ele>55.599999999999994</ele><time>2026-04-19T07:26:11.253Z</time></trkpt><trkpt lat="38.838412" lon="16.2768938"><ele>56.0</ele><time>2026-04-19T07:26:13.246Z</time></trkpt><trkpt lat="38.8384469" lon="16.2769805"><ele>55.8</ele><time>2026-04-19T07:26:14.237Z</time></trkpt><trkpt lat="38.8384864" lon="16.277092"><ele>55.599999999999994</ele><time>2026-04-19T07:26:15.256Z</time></trkpt><trkpt lat="38.8385241" lon="16.2772175"><ele>55.4</ele><time>2026-04-19T07:26:16.253Z</time></trkpt><trkpt lat="38.8385586" lon="16.2773422"><ele>55.2</ele><time>2026-04-19T07:26:17.234Z</time></trkpt><trkpt lat="38.8385913" lon="16.2774607"><ele>55.0</ele><time>2026-04-19T07:26:18.238Z</time></trkpt><trkpt lat="38.838619" lon="16.2775808"><ele>54.99999999999999</ele><time>2026-04-19T07:26:19.248Z</time></trkpt><trkpt lat="38.8386492" lon="16.2776903"><ele>55.0</ele><time>2026-04-19T07:26:20.25Z</time></trkpt><trkpt lat="38.8386798" lon="16.2777916"><ele>55.0</ele><time>2026-04-19T07:26:21.24Z</time></trkpt><trkpt lat="38.8387131" lon="16.2778893"><ele>55.0</ele><time>2026-04-19T07:26:22.232Z</time></trkpt><trkpt lat="38.8387478" lon="16.2779839"><ele>54.99999999999999</ele><time>2026-04-19T07:26:23.264Z</time></trkpt><trkpt lat="38.8387927" lon="16.278063"><ele>55.0</ele><time>2026-04-19T07:26:24.243Z</time></trkpt><trkpt lat="38.8388364" lon="16.2781439"><ele>54.857142857142854</ele><time>2026-04-19T07:26:25.235Z</time></trkpt><trkpt lat="38.8388701" lon="16.2782123"><ele>54.714285714285715</ele><time>2026-04-19T07:26:26.248Z</time></trkpt><trkpt lat="38.8389133" lon="16.2782897"><ele>54.57142857142857</ele><time>2026-04-19T07:26:29.255Z</time></trkpt><trkpt lat="38.8389499" lon="16.278358"><ele>54.42857142857143</ele><time>2026-04-19T07:26:34.243Z</time></trkpt><trkpt lat="38.8389394" lon="16.2784529"><ele>54.285714285714285</ele><time>2026-04-19T07:26:38.24Z</time></trkpt><trkpt lat="38.8388729" lon="16.2785154"><ele>54.14285714285714</ele><time>2026-04-19T07:26:41.241Z</time></trkpt><trkpt lat="38.8388203" lon="16.2785728"><ele>54.0</ele><time>2026-04-19T07:26:43.229Z</time></trkpt><trkpt lat="38.8387428" lon="16.2786658"><ele>54.0</ele><time>2026-04-19T07:26:45.249Z</time></trkpt><trkpt lat="38.838656" lon="16.2787631"><ele>54.0</ele><time>2026-04-19T07:26:47.244Z</time></trkpt><trkpt lat="38.8385738" lon="16.2788534"><ele>54.0</ele><time>2026-04-19T07:26:49.242Z</time></trkpt><trkpt lat="38.838491" lon="16.2789441"><ele>54.0</ele><time>2026-04-19T07:26:51.244Z</time></trkpt><trkpt lat="38.8383997" lon="16.279043"><ele>54.333333333333336</ele><time>2026-04-19T07:26:53.248Z</time></trkpt><trkpt lat="38.8383044" lon="16.2791541"><ele>54.66666666666667</ele><time>2026-04-19T07:26:55.248Z</time></trkpt><trkpt lat="38.8382579" lon="16.2792158"><ele>55.0</ele><time>2026-04-19T07:26:56.249Z</time></trkpt><trkpt lat="38.838216" lon="16.2792845"><ele>55.333333333333336</ele><time>2026-04-19T07:26:57.258Z</time></trkpt><trkpt lat="38.8381783" lon="16.2793571"><ele>55.66666666666667</ele><time>2026-04-19T07:26:58.246Z</time></trkpt><trkpt lat="38.8381501" lon="16.2794341"><ele>56.0</ele><time>2026-04-19T07:26:59.237Z</time></trkpt><trkpt lat="38.838121" lon="16.2795681"><ele>56.00000000000001</ele><time>2026-04-19T07:27:01.238Z</time></trkpt><trkpt lat="38.8380854" lon="16.2796457"><ele>56.0</ele><time>2026-04-19T07:27:03.241Z</time></trkpt><trkpt lat="38.8380072" lon="16.2796513"><ele>56.0</ele><time>2026-04-19T07:27:05.245Z</time></trkpt><trkpt lat="38.8378961" lon="16.279634"><ele>56.0</ele><time>2026-04-19T07:27:07.252Z</time></trkpt><trkpt lat="38.8378287" lon="16.2796269"><ele>56.00000000000001</ele><time>2026-04-19T07:27:08.236Z</time></trkpt><trkpt lat="38.8377642" lon="16.2796184"><ele>56.0</ele><time>2026-04-19T07:27:09.243Z</time></trkpt><trkpt lat="38.8376969" lon="16.2795844"><ele>56.00000000000001</ele><time>2026-04-19T07:27:10.246Z</time></trkpt><trkpt lat="38.8376268" lon="16.2795575"><ele>56.0</ele><time>2026-04-19T07:27:11.231Z</time></trkpt><trkpt lat="38.8375457" lon="16.2795381"><ele>56.0</ele><time>2026-04-19T07:27:12.232Z</time></trkpt><trkpt lat="38.8374661" lon="16.2795163"><ele>56.0</ele><time>2026-04-19T07:27:13.249Z</time></trkpt><trkpt lat="38.8373892" lon="16.279502"><ele>56.00000000000001</ele><time>2026-04-19T07:27:14.237Z</time></trkpt><trkpt lat="38.837315" lon="16.2794901"><ele>56.0</ele><time>2026-04-19T07:27:15.24Z</time></trkpt><trkpt lat="38.8372426" lon="16.2794753"><ele>56.00000000000001</ele><time>2026-04-19T07:27:16.248Z</time></trkpt><trkpt lat="38.837171" lon="16.2794623"><ele>56.0</ele><time>2026-04-19T07:27:17.233Z</time></trkpt><trkpt lat="38.8370955" lon="16.2794481"><ele>56.0</ele><time>2026-04-19T07:27:18.25Z</time></trkpt><trkpt lat="38.8370194" lon="16.2794445"><ele>56.0</ele><time>2026-04-19T07:27:19.253Z</time></trkpt><trkpt lat="38.8369469" lon="16.2794478"><ele>56.00000000000001</ele><time>2026-04-19T07:27:20.234Z</time></trkpt><trkpt lat="38.8368263" lon="16.2794591"><ele>56.0</ele><time>2026-04-19T07:27:22.243Z</time></trkpt><trkpt lat="38.8367225" lon="16.2794755"><ele>56.50000000000001</ele><time>2026-04-19T07:27:24.237Z</time></trkpt><trkpt lat="38.8366571" lon="16.2794875"><ele>57.0</ele><time>2026-04-19T07:27:26.244Z</time></trkpt><trkpt lat="38.8365644" lon="16.2794977"><ele>57.5</ele><time>2026-04-19T07:27:29.244Z</time></trkpt><trkpt lat="38.8364897" lon="16.2795073"><ele>58.0</ele><time>2026-04-19T07:27:31.245Z</time></trkpt><trkpt lat="38.8364055" lon="16.2795205"><ele>58.50000000000001</ele><time>2026-04-19T07:27:33.243Z</time></trkpt><trkpt lat="38.8363305" lon="16.2795292"><ele>59.0</ele><time>2026-04-19T07:27:35.239Z</time></trkpt><trkpt lat="38.8362509" lon="16.2795408"><ele>59.00000000000001</ele><time>2026-04-19T07:27:37.23Z</time></trkpt><trkpt lat="38.8361659" lon="16.2795562"><ele>59.0</ele><time>2026-04-19T07:27:39.249Z</time></trkpt><trkpt lat="38.8360783" lon="16.2795764"><ele>59.0</ele><time>2026-04-19T07:27:41.242Z</time></trkpt><trkpt lat="38.8359977" lon="16.279601"><ele>59.0</ele><time>2026-04-19T07:27:43.256Z</time></trkpt><trkpt lat="38.8359198" lon="16.2796423"><ele>59.00000000000001</ele><time>2026-04-19T07:27:45.246Z</time></trkpt><trkpt lat="38.835821" lon="16.2796769"><ele>59.0</ele><time>2026-04-19T07:27:47.252Z</time></trkpt><trkpt lat="38.8357021" lon="16.2796851"><ele>59.800000000000004</ele><time>2026-04-19T07:27:49.238Z</time></trkpt><trkpt lat="38.8356091" lon="16.2796712"><ele>60.60000000000001</ele><time>2026-04-19T07:27:51.243Z</time></trkpt><trkpt lat="38.8355038" lon="16.279641"><ele>61.4</ele><time>2026-04-19T07:27:53.228Z</time></trkpt><trkpt lat="38.8354042" lon="16.2796082"><ele>62.2</ele><time>2026-04-19T07:27:55.25Z</time></trkpt><trkpt lat="38.8353315" lon="16.2795867"><ele>63.0</ele><time>2026-04-19T07:27:57.245Z</time></trkpt><trkpt lat="38.8352297" lon="16.2795555"><ele>63.0</ele><time>2026-04-19T07:28:00.246Z</time></trkpt><trkpt lat="38.835149" lon="16.2795351"><ele>63.0</ele><time>2026-04-19T07:28:02.25Z</time></trkpt><trkpt lat="38.8350781" lon="16.2795111"><ele>63.0</ele><time>2026-04-19T07:28:04.25Z</time></trkpt><trkpt lat="38.8349939" lon="16.2794724"><ele>63.0</ele><time>2026-04-19T07:28:06.237Z</time></trkpt><trkpt lat="38.8349125" lon="16.2794383"><ele>63.0</ele><time>2026-04-19T07:28:08.246Z</time></trkpt><trkpt lat="38.8348286" lon="16.2794051"><ele>63.0</ele><time>2026-04-19T07:28:10.233Z</time></trkpt><trkpt lat="38.8347328" lon="16.2793662"><ele>63.8</ele><time>2026-04-19T07:28:12.236Z</time></trkpt><trkpt lat="38.8346139" lon="16.2793193"><ele>64.6</ele><time>2026-04-19T07:28:14.234Z</time></trkpt><trkpt lat="38.8345143" lon="16.2792804"><ele>65.4</ele><time>2026-04-19T07:28:16.242Z</time></trkpt><trkpt lat="38.834417" lon="16.2792418"><ele>66.2</ele><time>2026-04-19T07:28:18.235Z</time></trkpt><trkpt lat="38.834319" lon="16.279223"><ele>67.0</ele><time>2026-04-19T07:28:20.245Z</time></trkpt><trkpt lat="38.8342544" lon="16.2792777"><ele>67.0</ele><time>2026-04-19T07:28:22.244Z</time></trkpt><trkpt lat="38.8342138" lon="16.279353"><ele>67.0</ele><time>2026-04-19T07:28:24.257Z</time></trkpt><trkpt lat="38.834173" lon="16.2794443"><ele>67.0</ele><time>2026-04-19T07:28:26.237Z</time></trkpt><trkpt lat="38.8341342" lon="16.2795318"><ele>67.0</ele><time>2026-04-19T07:28:28.238Z</time></trkpt><trkpt lat="38.8341042" lon="16.2796327"><ele>67.0</ele><time>2026-04-19T07:28:30.253Z</time></trkpt><trkpt lat="38.8340739" lon="16.2797642"><ele>67.0</ele><time>2026-04-19T07:28:32.24Z</time></trkpt><trkpt lat="38.8340336" lon="16.2799217"><ele>67.5</ele><time>2026-04-19T07:28:34.24Z</time></trkpt><trkpt lat="38.834015" lon="16.2800032"><ele>68.0</ele><time>2026-04-19T07:28:35.241Z</time></trkpt><trkpt lat="38.8339866" lon="16.2801098"><ele>68.5</ele><time>2026-04-19T07:28:37.24Z</time></trkpt><trkpt lat="38.833921" lon="16.2801891"><ele>69.0</ele><time>2026-04-19T07:28:39.242Z</time></trkpt><trkpt lat="38.833829" lon="16.2801921"><ele>69.5</ele><time>2026-04-19T07:28:41.237Z</time></trkpt><trkpt lat="38.8337337" lon="16.28018"><ele>70.0</ele><time>2026-04-19T07:28:43.242Z</time></trkpt><trkpt lat="38.8336318" lon="16.2801683"><ele>70.0</ele><time>2026-04-19T07:28:45.24Z</time></trkpt><trkpt lat="38.8335417" lon="16.2801576"><ele>70.0</ele><time>2026-04-19T07:28:47.248Z</time></trkpt><trkpt lat="38.8334606" lon="16.2801525"><ele>70.0</ele><time>2026-04-19T07:28:49.241Z</time></trkpt><trkpt lat="38.8333771" lon="16.2801484"><ele>70.0</ele><time>2026-04-19T07:28:51.247Z</time></trkpt><trkpt lat="38.833296" lon="16.2801452"><ele>70.0</ele><time>2026-04-19T07:28:53.251Z</time></trkpt><trkpt lat="38.833214" lon="16.2801436"><ele>70.0</ele><time>2026-04-19T07:28:55.243Z</time></trkpt><trkpt lat="38.8331239" lon="16.2801447"><ele>70.5</ele><time>2026-04-19T07:28:57.248Z</time></trkpt><trkpt lat="38.8330283" lon="16.2801566"><ele>71.0</ele><time>2026-04-19T07:28:59.239Z</time></trkpt><trkpt lat="38.8329599" lon="16.280165"><ele>71.5</ele><time>2026-04-19T07:29:01.248Z</time></trkpt><trkpt lat="38.8328955" lon="16.280172"><ele>72.0</ele><time>2026-04-19T07:29:03.248Z</time></trkpt><trkpt lat="38.8328244" lon="16.2801788"><ele>72.5</ele><time>2026-04-19T07:29:05.245Z</time></trkpt><trkpt lat="38.8327485" lon="16.2801984"><ele>73.0</ele><time>2026-04-19T07:29:07.253Z</time></trkpt><trkpt lat="38.8326684" lon="16.2802267"><ele>73.6</ele><time>2026-04-19T07:29:09.236Z</time></trkpt><trkpt lat="38.8325898" lon="16.2802529"><ele>74.19999999999999</ele><time>2026-04-19T07:29:11.251Z</time></trkpt><trkpt lat="38.8325004" lon="16.2802878"><ele>74.8</ele><time>2026-04-19T07:29:13.241Z</time></trkpt><trkpt lat="38.8324044" lon="16.2803228"><ele>75.39999999999999</ele><time>2026-04-19T07:29:15.242Z</time></trkpt><trkpt lat="38.8323082" lon="16.2803736"><ele>76.0</ele><time>2026-04-19T07:29:17.245Z</time></trkpt><trkpt lat="38.832217" lon="16.2804456"><ele>76.0</ele><time>2026-04-19T07:29:19.254Z</time></trkpt><trkpt lat="38.8321502" lon="16.2805093"><ele>76.0</ele><time>2026-04-19T07:29:22.243Z</time></trkpt><trkpt lat="38.8320927" lon="16.2805691"><ele>76.0</ele><time>2026-04-19T07:29:24.238Z</time></trkpt><trkpt lat="38.8320306" lon="16.2806383"><ele>76.0</ele><time>2026-04-19T07:29:26.259Z</time></trkpt><trkpt lat="38.8319403" lon="16.2807403"><ele>76.0</ele><time>2026-04-19T07:29:28.251Z</time></trkpt><trkpt lat="38.8318828" lon="16.2808014"><ele>76.0</ele><time>2026-04-19T07:29:29.242Z</time></trkpt><trkpt lat="38.8318179" lon="16.2808711"><ele>76.83333333333333</ele><time>2026-04-19T07:29:30.251Z</time></trkpt><trkpt lat="38.831745" lon="16.2809593"><ele>77.66666666666666</ele><time>2026-04-19T07:29:31.278Z</time></trkpt><trkpt lat="38.8316719" lon="16.2810444"><ele>78.5</ele><time>2026-04-19T07:29:32.241Z</time></trkpt><trkpt lat="38.8316073" lon="16.2811143"><ele>79.33333333333333</ele><time>2026-04-19T07:29:33.239Z</time></trkpt><trkpt lat="38.8315592" lon="16.2811872"><ele>80.16666666666667</ele><time>2026-04-19T07:29:34.242Z</time></trkpt><trkpt lat="38.8315094" lon="16.2812755"><ele>81.0</ele><time>2026-04-19T07:29:35.238Z</time></trkpt><trkpt lat="38.831442" lon="16.2813695"><ele>81.0</ele><time>2026-04-19T07:29:36.245Z</time></trkpt><trkpt lat="38.8313715" lon="16.2814606"><ele>81.0</ele><time>2026-04-19T07:29:37.232Z</time></trkpt><trkpt lat="38.8312944" lon="16.2815296"><ele>81.0</ele><time>2026-04-19T07:29:38.248Z</time></trkpt><trkpt lat="38.8312197" lon="16.2815771"><ele>81.0</ele><time>2026-04-19T07:29:39.248Z</time></trkpt><trkpt lat="38.8311415" lon="16.2816296"><ele>81.0</ele><time>2026-04-19T07:29:40.231Z</time></trkpt><trkpt lat="38.8310492" lon="16.2817029"><ele>81.8</ele><time>2026-04-19T07:29:41.244Z</time></trkpt><trkpt lat="38.8309448" lon="16.2817897"><ele>82.6</ele><time>2026-04-19T07:29:42.251Z</time></trkpt><trkpt lat="38.8308601" lon="16.281858"><ele>83.4</ele><time>2026-04-19T07:29:43.242Z</time></trkpt><trkpt lat="38.8307839" lon="16.281896"><ele>84.2</ele><time>2026-04-19T07:29:44.238Z</time></trkpt><trkpt lat="38.830695" lon="16.2819422"><ele>85.0</ele><time>2026-04-19T07:29:45.237Z</time></trkpt><trkpt lat="38.8305903" lon="16.2819989"><ele>85.0</ele><time>2026-04-19T07:29:46.256Z</time></trkpt><trkpt lat="38.8304755" lon="16.28207"><ele>85.0</ele><time>2026-04-19T07:29:47.254Z</time></trkpt><trkpt lat="38.8303627" lon="16.2821544"><ele>85.0</ele><time>2026-04-19T07:29:48.25Z</time></trkpt><trkpt lat="38.8302686" lon="16.2822381"><ele>85.0</ele><time>2026-04-19T07:29:49.244Z</time></trkpt><trkpt lat="38.83019" lon="16.2823221"><ele>85.5</ele><time>2026-04-19T07:29:50.244Z</time></trkpt><trkpt lat="38.8301303" lon="16.2824024"><ele>86.0</ele><time>2026-04-19T07:29:51.242Z</time></trkpt><trkpt lat="38.8300886" lon="16.2824681"><ele>86.5</ele><time>2026-04-19T07:29:52.235Z</time></trkpt><trkpt lat="38.8300773" lon="16.2826194"><ele>87.0</ele><time>2026-04-19T07:29:54.252Z</time></trkpt><trkpt lat="38.8300818" lon="16.282723"><ele>87.5</ele><time>2026-04-19T07:29:55.24Z</time></trkpt><trkpt lat="38.8300783" lon="16.2828328"><ele>88.0</ele><time>2026-04-19T07:29:56.234Z</time></trkpt><trkpt lat="38.8300971" lon="16.2829338"><ele>88.0</ele><time>2026-04-19T07:29:58.246Z</time></trkpt><trkpt lat="38.83014" lon="16.2830162"><ele>88.0</ele><time>2026-04-19T07:29:59.24Z</time></trkpt><trkpt lat="38.8301788" lon="16.2830909"><ele>88.0</ele><time>2026-04-19T07:30:00.251Z</time></trkpt><trkpt lat="38.8302145" lon="16.2831818"><ele>88.0</ele><time>2026-04-19T07:30:03.237Z</time></trkpt><trkpt lat="38.830245" lon="16.2832711"><ele>88.0</ele><time>2026-04-19T07:30:06.248Z</time></trkpt><trkpt lat="38.8302926" lon="16.2833689"><ele>88.0</ele><time>2026-04-19T07:30:09.242Z</time></trkpt><trkpt lat="38.8303847" lon="16.2833676"><ele>87.80000000000001</ele><time>2026-04-19T07:30:12.258Z</time></trkpt><trkpt lat="38.8304776" lon="16.2833357"><ele>87.6</ele><time>2026-04-19T07:30:14.231Z</time></trkpt><trkpt lat="38.830576" lon="16.2833554"><ele>87.4</ele><time>2026-04-19T07:30:16.252Z</time></trkpt><trkpt lat="38.8306511" lon="16.283481"><ele>87.19999999999999</ele><time>2026-04-19T07:30:18.234Z</time></trkpt><trkpt lat="38.830686" lon="16.2835761"><ele>87.0</ele><time>2026-04-19T07:30:19.236Z</time></trkpt><trkpt lat="38.8307141" lon="16.2836525"><ele>87.0</ele><time>2026-04-19T07:30:20.249Z</time></trkpt><trkpt lat="38.8307386" lon="16.283737"><ele>87.0</ele><time>2026-04-19T07:30:23.245Z</time></trkpt><trkpt lat="38.8307695" lon="16.2838282"><ele>87.0</ele><time>2026-04-19T07:30:27.238Z</time></trkpt><trkpt lat="38.8308173" lon="16.2839063"><ele>87.0</ele><time>2026-04-19T07:30:44.236Z</time></trkpt><trkpt lat="38.8308688" lon="16.2840343"><ele>87.0</ele><time>2026-04-19T07:30:46.229Z</time></trkpt><trkpt lat="38.8309018" lon="16.2841147"><ele>87.0</ele><time>2026-04-19T07:30:47.231Z</time></trkpt><trkpt lat="38.8309529" lon="16.2842182"><ele>89.25</ele><time>2026-04-19T07:30:48.242Z</time></trkpt><trkpt lat="38.8310071" lon="16.2843256"><ele>91.5</ele><time>2026-04-19T07:30:49.239Z</time></trkpt><trkpt lat="38.8310809" lon="16.2844278"><ele>93.75</ele><time>2026-04-19T07:30:50.23Z</time></trkpt><trkpt lat="38.8311458" lon="16.2845595"><ele>96.0</ele><time>2026-04-19T07:30:51.236Z</time></trkpt><trkpt lat="38.8312144" lon="16.2847169"><ele>97.8</ele><time>2026-04-19T07:30:52.239Z</time></trkpt><trkpt lat="38.8312846" lon="16.2848663"><ele>99.6</ele><time>2026-04-19T07:30:53.232Z</time></trkpt><trkpt lat="38.831345" lon="16.2849892"><ele>101.4</ele><time>2026-04-19T07:30:54.229Z</time></trkpt><trkpt lat="38.8313928" lon="16.2850895"><ele>103.2</ele><time>2026-04-19T07:30:55.235Z</time></trkpt><trkpt lat="38.8314254" lon="16.2851704"><ele>105.0</ele><time>2026-04-19T07:30:56.227Z</time></trkpt><trkpt lat="38.8314611" lon="16.2852507"><ele>105.0</ele><time>2026-04-19T07:30:58.231Z</time></trkpt><trkpt lat="38.8315587" lon="16.2852958"><ele>105.0</ele><time>2026-04-19T07:31:12.248Z</time></trkpt><trkpt lat="38.8316287" lon="16.2852981"><ele>105.0</ele><time>2026-04-19T07:31:13.239Z</time></trkpt><trkpt lat="38.8317219" lon="16.2852727"><ele>105.0</ele><time>2026-04-19T07:31:14.244Z</time></trkpt><trkpt lat="38.8318245" lon="16.2852617"><ele>105.0</ele><time>2026-04-19T07:31:15.23Z</time></trkpt><trkpt lat="38.8319377" lon="16.2852606"><ele>104.75</ele><time>2026-04-19T07:31:16.239Z</time></trkpt><trkpt lat="38.8320522" lon="16.285264"><ele>104.5</ele><time>2026-04-19T07:31:17.242Z</time></trkpt><trkpt lat="38.8321679" lon="16.2852636"><ele>104.25</ele><time>2026-04-19T07:31:18.235Z</time></trkpt><trkpt lat="38.8322853" lon="16.2852575"><ele>104.0</ele><time>2026-04-19T07:31:19.24Z</time></trkpt><trkpt lat="38.8324052" lon="16.2852519"><ele>104.0</ele><time>2026-04-19T07:31:20.247Z</time></trkpt><trkpt lat="38.832524" lon="16.2852446"><ele>104.0</ele><time>2026-04-19T07:31:21.24Z</time></trkpt><trkpt lat="38.8326367" lon="16.2852418"><ele>104.0</ele><time>2026-04-19T07:31:22.228Z</time></trkpt><trkpt lat="38.8327287" lon="16.2852374"><ele>104.0</ele><time>2026-04-19T07:31:23.237Z</time></trkpt><trkpt lat="38.8328149" lon="16.2852355"><ele>104.0</ele><time>2026-04-19T07:31:24.24Z</time></trkpt><trkpt lat="38.8328965" lon="16.2852287"><ele>104.0</ele><time>2026-04-19T07:31:25.233Z</time></trkpt><trkpt lat="38.8329975" lon="16.2852233"><ele>104.0</ele><time>2026-04-19T07:31:26.23Z</time></trkpt><trkpt lat="38.8331116" lon="16.2852175"><ele>104.0</ele><time>2026-04-19T07:31:27.238Z</time></trkpt><trkpt lat="38.8332221" lon="16.2852116"><ele>104.0</ele><time>2026-04-19T07:31:28.23Z</time></trkpt><trkpt lat="38.8333081" lon="16.2852046"><ele>104.0</ele><time>2026-04-19T07:31:29.232Z</time></trkpt><trkpt lat="38.8333812" lon="16.2851998"><ele>103.66666666666666</ele><time>2026-04-19T07:31:30.243Z</time></trkpt><trkpt lat="38.8334748" lon="16.2851968"><ele>103.33333333333333</ele><time>2026-04-19T07:31:32.228Z</time></trkpt><trkpt lat="38.8335181" lon="16.2852625"><ele>103.0</ele><time>2026-04-19T07:31:36.242Z</time></trkpt><trkpt lat="38.8335524" lon="16.2853576"><ele>102.66666666666666</ele><time>2026-04-19T07:31:38.241Z</time></trkpt><trkpt lat="38.833567" lon="16.285438"><ele>102.33333333333333</ele><time>2026-04-19T07:31:39.242Z</time></trkpt><trkpt lat="38.8335683" lon="16.2855207"><ele>102.0</ele><time>2026-04-19T07:31:40.231Z</time></trkpt><trkpt lat="38.8335555" lon="16.2856205"><ele>103.33333333333333</ele><time>2026-04-19T07:31:41.233Z</time></trkpt><trkpt lat="38.8335418" lon="16.2857184"><ele>104.66666666666666</ele><time>2026-04-19T07:31:42.246Z</time></trkpt><trkpt lat="38.8335846" lon="16.2858192"><ele>106.0</ele><time>2026-04-19T07:31:43.243Z</time></trkpt><trkpt lat="38.8336313" lon="16.2859074"><ele>107.33333333333333</ele><time>2026-04-19T07:31:44.236Z</time></trkpt><trkpt lat="38.8337079" lon="16.2859621"><ele>108.66666666666666</ele><time>2026-04-19T07:31:45.239Z</time></trkpt><trkpt lat="38.8337932" lon="16.285981"><ele>110.0</ele><time>2026-04-19T07:31:46.234Z</time></trkpt><trkpt lat="38.8339016" lon="16.28603"><ele>110.0</ele><time>2026-04-19T07:31:47.242Z</time></trkpt><trkpt lat="38.834006" lon="16.2860901"><ele>110.0</ele><time>2026-04-19T07:31:48.226Z</time></trkpt><trkpt lat="38.8341097" lon="16.2861458"><ele>110.0</ele><time>2026-04-19T07:31:49.247Z</time></trkpt><trkpt lat="38.8342216" lon="16.2861917"><ele>110.0</ele><time>2026-04-19T07:31:50.243Z</time></trkpt><trkpt lat="38.8343319" lon="16.2862276"><ele>109.8</ele><time>2026-04-19T07:31:51.231Z</time></trkpt><trkpt lat="38.8344498" lon="16.2862289"><ele>109.6</ele><time>2026-04-19T07:31:52.239Z</time></trkpt><trkpt lat="38.8345576" lon="16.2862162"><ele>109.4</ele><time>2026-04-19T07:31:53.234Z</time></trkpt><trkpt lat="38.8346631" lon="16.286237"><ele>109.2</ele><time>2026-04-19T07:31:54.23Z</time></trkpt><trkpt lat="38.8347634" lon="16.28626"><ele>109.0</ele><time>2026-04-19T07:31:55.245Z</time></trkpt><trkpt lat="38.8348453" lon="16.2863249"><ele>109.00000000000001</ele><time>2026-04-19T07:31:56.243Z</time></trkpt><trkpt lat="38.8349199" lon="16.2863832"><ele>109.0</ele><time>2026-04-19T07:31:57.232Z</time></trkpt><trkpt lat="38.8349921" lon="16.2864506"><ele>109.0</ele><time>2026-04-19T07:31:58.247Z</time></trkpt><trkpt lat="38.8350634" lon="16.2865187"><ele>109.0</ele><time>2026-04-19T07:31:59.234Z</time></trkpt><trkpt lat="38.8351234" lon="16.2865959"><ele>109.00000000000001</ele><time>2026-04-19T07:32:00.232Z</time></trkpt><trkpt lat="38.8351664" lon="16.2866685"><ele>109.0</ele><time>2026-04-19T07:32:01.234Z</time></trkpt><trkpt lat="38.8352064" lon="16.2867403"><ele>110.50000000000001</ele><time>2026-04-19T07:32:02.238Z</time></trkpt><trkpt lat="38.8352368" lon="16.2868201"><ele>112.0</ele><time>2026-04-19T07:32:03.233Z</time></trkpt><trkpt lat="38.8352682" lon="16.2869072"><ele>113.5</ele><time>2026-04-19T07:32:04.226Z</time></trkpt><trkpt lat="38.8352933" lon="16.287004"><ele>115.0</ele><time>2026-04-19T07:32:05.234Z</time></trkpt><trkpt lat="38.8353105" lon="16.2871073"><ele>116.50000000000001</ele><time>2026-04-19T07:32:06.247Z</time></trkpt><trkpt lat="38.835334" lon="16.2872082"><ele>118.0</ele><time>2026-04-19T07:32:07.236Z</time></trkpt><trkpt lat="38.8353594" lon="16.2873112"><ele>119.83333333333334</ele><time>2026-04-19T07:32:08.235Z</time></trkpt><trkpt lat="38.8353851" lon="16.2874141"><ele>121.66666666666667</ele><time>2026-04-19T07:32:09.233Z</time></trkpt><trkpt lat="38.8354243" lon="16.2875112"><ele>123.5</ele><time>2026-04-19T07:32:10.24Z</time></trkpt><trkpt lat="38.8354644" lon="16.2876081"><ele>125.33333333333334</ele><time>2026-04-19T07:32:11.239Z</time></trkpt><trkpt lat="38.8355074" lon="16.2876976"><ele>127.16666666666667</ele><time>2026-04-19T07:32:12.238Z</time></trkpt><trkpt lat="38.8355672" lon="16.2877557"><ele>129.0</ele><time>2026-04-19T07:32:13.24Z</time></trkpt><trkpt lat="38.8356355" lon="16.2877991"><ele>129.0</ele><time>2026-04-19T07:32:14.243Z</time></trkpt><trkpt lat="38.8357068" lon="16.2878499"><ele>129.0</ele><time>2026-04-19T07:32:15.242Z</time></trkpt><trkpt lat="38.8357772" lon="16.2878962"><ele>129.0</ele><time>2026-04-19T07:32:16.241Z</time></trkpt><trkpt lat="38.8358352" lon="16.2879337"><ele>129.0</ele><time>2026-04-19T07:32:17.246Z</time></trkpt><trkpt lat="38.8359543" lon="16.2879679"><ele>129.0</ele><time>2026-04-19T07:32:19.238Z</time></trkpt><trkpt lat="38.8360388" lon="16.2879773"><ele>129.0</ele><time>2026-04-19T07:32:20.232Z</time></trkpt><trkpt lat="38.8361191" lon="16.2879885"><ele>128.83333333333334</ele><time>2026-04-19T07:32:21.242Z</time></trkpt><trkpt lat="38.8361905" lon="16.2879895"><ele>128.66666666666666</ele><time>2026-04-19T07:32:22.235Z</time></trkpt><trkpt lat="38.8362635" lon="16.288001"><ele>128.5</ele><time>2026-04-19T07:32:23.246Z</time></trkpt><trkpt lat="38.8363346" lon="16.2880129"><ele>128.33333333333331</ele><time>2026-04-19T07:32:24.234Z</time></trkpt><trkpt lat="38.8364078" lon="16.2880311"><ele>128.16666666666666</ele><time>2026-04-19T07:32:25.247Z</time></trkpt><trkpt lat="38.8364863" lon="16.2880485"><ele>128.0</ele><time>2026-04-19T07:32:26.247Z</time></trkpt><trkpt lat="38.8365743" lon="16.2880618"><ele>127.99999999999999</ele><time>2026-04-19T07:32:27.231Z</time></trkpt><trkpt lat="38.8366641" lon="16.2880721"><ele>128.0</ele><time>2026-04-19T07:32:28.238Z</time></trkpt><trkpt lat="38.8367465" lon="16.2880893"><ele>128.0</ele><time>2026-04-19T07:32:29.247Z</time></trkpt><trkpt lat="38.8368232" lon="16.2881058"><ele>128.0</ele><time>2026-04-19T07:32:30.236Z</time></trkpt><trkpt lat="38.8368998" lon="16.2881208"><ele>127.99999999999999</ele><time>2026-04-19T07:32:31.244Z</time></trkpt><trkpt lat="38.8369947" lon="16.2881283"><ele>128.0</ele><time>2026-04-19T07:32:32.237Z</time></trkpt><trkpt lat="38.8370935" lon="16.288132"><ele>133.0</ele><time>2026-04-19T07:32:33.236Z</time></trkpt><trkpt lat="38.8371907" lon="16.2881414"><ele>138.0</ele><time>2026-04-19T07:32:34.244Z</time></trkpt><trkpt lat="38.8372866" lon="16.2881658"><ele>143.0</ele><time>2026-04-19T07:32:35.244Z</time></trkpt><trkpt lat="38.8373805" lon="16.2882049"><ele>148.0</ele><time>2026-04-19T07:32:36.235Z</time></trkpt><trkpt lat="38.8374801" lon="16.2882496"><ele>153.0</ele><time>2026-04-19T07:32:37.237Z</time></trkpt><trkpt lat="38.8375872" lon="16.288325"><ele>150.20000000000002</ele><time>2026-04-19T07:32:38.245Z</time></trkpt><trkpt lat="38.8376812" lon="16.2884098"><ele>147.4</ele><time>2026-04-19T07:32:39.239Z</time></trkpt><trkpt lat="38.8377684" lon="16.2884911"><ele>144.60000000000002</ele><time>2026-04-19T07:32:40.232Z</time></trkpt><trkpt lat="38.8378536" lon="16.2885685"><ele>141.8</ele><time>2026-04-19T07:32:41.236Z</time></trkpt><trkpt lat="38.8379372" lon="16.2886207"><ele>139.0</ele><time>2026-04-19T07:32:42.24Z</time></trkpt><trkpt lat="38.8380246" lon="16.2886569"><ele>139.0</ele><time>2026-04-19T07:32:43.241Z</time></trkpt><trkpt lat="38.8381073" lon="16.2887"><ele>139.0</ele><time>2026-04-19T07:32:44.229Z</time></trkpt><trkpt lat="38.8381756" lon="16.2887405"><ele>139.0</ele><time>2026-04-19T07:32:45.238Z</time></trkpt><trkpt lat="38.8382618" lon="16.2888316"><ele>139.0</ele><time>2026-04-19T07:32:47.232Z</time></trkpt><trkpt lat="38.8383796" lon="16.2889185"><ele>139.0</ele><time>2026-04-19T07:32:49.246Z</time></trkpt><trkpt lat="38.8384439" lon="16.2889779"><ele>140.5</ele><time>2026-04-19T07:32:50.246Z</time></trkpt><trkpt lat="38.8385058" lon="16.2890415"><ele>142.0</ele><time>2026-04-19T07:32:51.247Z</time></trkpt><trkpt lat="38.8385729" lon="16.2891028"><ele>143.5</ele><time>2026-04-19T07:32:52.23Z</time></trkpt><trkpt lat="38.8386364" lon="16.2891809"><ele>145.0</ele><time>2026-04-19T07:32:53.237Z</time></trkpt><trkpt lat="38.8387024" lon="16.2892461"><ele>146.5</ele><time>2026-04-19T07:32:54.249Z</time></trkpt><trkpt lat="38.8387545" lon="16.2892941"><ele>148.0</ele><time>2026-04-19T07:32:55.244Z</time></trkpt><trkpt lat="38.8388653" lon="16.2893855"><ele>148.0</ele><time>2026-04-19T07:32:57.245Z</time></trkpt><trkpt lat="38.8389383" lon="16.2894324"><ele>148.0</ele><time>2026-04-19T07:32:58.235Z</time></trkpt><trkpt lat="38.8390151" lon="16.2894905"><ele>148.0</ele><time>2026-04-19T07:32:59.239Z</time></trkpt><trkpt lat="38.8390898" lon="16.2895414"><ele>148.0</ele><time>2026-04-19T07:33:00.235Z</time></trkpt><trkpt lat="38.839161" lon="16.2896008"><ele>148.0</ele><time>2026-04-19T07:33:01.234Z</time></trkpt><trkpt lat="38.8392337" lon="16.289662"><ele>148.0</ele><time>2026-04-19T07:33:02.234Z</time></trkpt><trkpt lat="38.8393035" lon="16.2897215"><ele>148.5</ele><time>2026-04-19T07:33:03.238Z</time></trkpt><trkpt lat="38.8393674" lon="16.2897908"><ele>149.0</ele><time>2026-04-19T07:33:04.235Z</time></trkpt><trkpt lat="38.839422" lon="16.2898684"><ele>149.5</ele><time>2026-04-19T07:33:05.237Z</time></trkpt><trkpt lat="38.8394758" lon="16.2899565"><ele>150.0</ele><time>2026-04-19T07:33:06.244Z</time></trkpt><trkpt lat="38.8395267" lon="16.2900409"><ele>150.5</ele><time>2026-04-19T07:33:07.25Z</time></trkpt><trkpt lat="38.8395638" lon="16.2901317"><ele>151.0</ele><time>2026-04-19T07:33:08.233Z</time></trkpt><trkpt lat="38.8395865" lon="16.2902349"><ele>151.0</ele><time>2026-04-19T07:33:09.244Z</time></trkpt><trkpt lat="38.8396138" lon="16.2903609"><ele>151.0</ele><time>2026-04-19T07:33:10.239Z</time></trkpt><trkpt lat="38.8396452" lon="16.2904892"><ele>151.0</ele><time>2026-04-19T07:33:11.25Z</time></trkpt><trkpt lat="38.8396685" lon="16.2905966"><ele>151.0</ele><time>2026-04-19T07:33:12.237Z</time></trkpt><trkpt lat="38.8396796" lon="16.2906968"><ele>151.0</ele><time>2026-04-19T07:33:13.251Z</time></trkpt><trkpt lat="38.8396881" lon="16.2907861"><ele>151.0</ele><time>2026-04-19T07:33:14.242Z</time></trkpt><trkpt lat="38.8396982" lon="16.2908726"><ele>152.83333333333334</ele><time>2026-04-19T07:33:15.269Z</time></trkpt><trkpt lat="38.8397098" lon="16.2910211"><ele>154.66666666666669</ele><time>2026-04-19T07:33:17.238Z</time></trkpt><trkpt lat="38.8397286" lon="16.2911695"><ele>156.5</ele><time>2026-04-19T07:33:19.256Z</time></trkpt><trkpt lat="38.839736" lon="16.291251"><ele>158.33333333333334</ele><time>2026-04-19T07:33:20.249Z</time></trkpt><trkpt lat="38.8397376" lon="16.2913341"><ele>160.16666666666666</ele><time>2026-04-19T07:33:21.233Z</time></trkpt><trkpt lat="38.8397423" lon="16.2914229"><ele>162.0</ele><time>2026-04-19T07:33:22.241Z</time></trkpt><trkpt lat="38.8397498" lon="16.2915195"><ele>165.0</ele><time>2026-04-19T07:33:23.245Z</time></trkpt><trkpt lat="38.83976" lon="16.2916316"><ele>168.0</ele><time>2026-04-19T07:33:24.229Z</time></trkpt><trkpt lat="38.8397762" lon="16.2917913"><ele>171.0</ele><time>2026-04-19T07:33:25.267Z</time></trkpt><trkpt lat="38.8397875" lon="16.2919501"><ele>174.0</ele><time>2026-04-19T07:33:26.239Z</time></trkpt><trkpt lat="38.8398092" lon="16.2921279"><ele>177.0</ele><time>2026-04-19T07:33:27.233Z</time></trkpt><trkpt lat="38.8398309" lon="16.2923047"><ele>180.0</ele><time>2026-04-19T07:33:28.241Z</time></trkpt><trkpt lat="38.8398502" lon="16.2924605"><ele>183.0</ele><time>2026-04-19T07:33:29.244Z</time></trkpt><trkpt lat="38.8398646" lon="16.2925977"><ele>186.0</ele><time>2026-04-19T07:33:30.233Z</time></trkpt><trkpt lat="38.8398801" lon="16.2927438"><ele>186.0</ele><time>2026-04-19T07:33:31.23Z</time></trkpt><trkpt lat="38.8398915" lon="16.2929011"><ele>186.0</ele><time>2026-04-19T07:33:32.25Z</time></trkpt><trkpt lat="38.839882" lon="16.2930474"><ele>186.0</ele><time>2026-04-19T07:33:33.233Z</time></trkpt><trkpt lat="38.8398678" lon="16.2931654"><ele>186.0</ele><time>2026-04-19T07:33:34.226Z</time></trkpt><trkpt lat="38.8398454" lon="16.2932732"><ele>186.0</ele><time>2026-04-19T07:33:35.236Z</time></trkpt><trkpt lat="38.8398392" lon="16.2933902"><ele>186.60000000000002</ele><time>2026-04-19T07:33:36.234Z</time></trkpt><trkpt lat="38.8398349" lon="16.2934932"><ele>187.2</ele><time>2026-04-19T07:33:37.239Z</time></trkpt><trkpt lat="38.8398513" lon="16.2935968"><ele>187.8</ele><time>2026-04-19T07:33:38.238Z</time></trkpt><trkpt lat="38.839869" lon="16.2937091"><ele>188.39999999999998</ele><time>2026-04-19T07:33:39.245Z</time></trkpt><trkpt lat="38.8398845" lon="16.2938584"><ele>189.0</ele><time>2026-04-19T07:33:40.24Z</time></trkpt><trkpt lat="38.839899" lon="16.294005"><ele>191.0</ele><time>2026-04-19T07:33:41.236Z</time></trkpt><trkpt lat="38.8399155" lon="16.2941502"><ele>193.0</ele><time>2026-04-19T07:33:42.239Z</time></trkpt><trkpt lat="38.8399334" lon="16.2943029"><ele>195.0</ele><time>2026-04-19T07:33:43.245Z</time></trkpt><trkpt lat="38.8399448" lon="16.2944867"><ele>197.0</ele><time>2026-04-19T07:33:44.239Z</time></trkpt><trkpt lat="38.8399654" lon="16.2946638"><ele>201.0</ele><time>2026-04-19T07:33:45.244Z</time></trkpt><trkpt lat="38.8399898" lon="16.2948405"><ele>205.0</ele><time>2026-04-19T07:33:46.246Z</time></trkpt><trkpt lat="38.8400306" lon="16.2950275"><ele>209.0</ele><time>2026-04-19T07:33:47.232Z</time></trkpt><trkpt lat="38.8400674" lon="16.2952161"><ele>213.0</ele><time>2026-04-19T07:33:48.232Z</time></trkpt><trkpt lat="38.8400977" lon="16.29539"><ele>213.0</ele><time>2026-04-19T07:33:49.236Z</time></trkpt><trkpt lat="38.8401317" lon="16.2955552"><ele>213.0</ele><time>2026-04-19T07:33:50.237Z</time></trkpt><trkpt lat="38.8401569" lon="16.2957083"><ele>213.0</ele><time>2026-04-19T07:33:51.231Z</time></trkpt><trkpt lat="38.8401843" lon="16.295859"><ele>213.0</ele><time>2026-04-19T07:33:52.23Z</time></trkpt><trkpt lat="38.8402053" lon="16.2960198"><ele>209.60000000000002</ele><time>2026-04-19T07:33:53.23Z</time></trkpt><trkpt lat="38.8402175" lon="16.2961678"><ele>206.20000000000002</ele><time>2026-04-19T07:33:54.234Z</time></trkpt><trkpt lat="38.8402282" lon="16.2963067"><ele>202.8</ele><time>2026-04-19T07:33:55.231Z</time></trkpt><trkpt lat="38.8402388" lon="16.2964444"><ele>199.4</ele><time>2026-04-19T07:33:56.255Z</time></trkpt><trkpt lat="38.8402565" lon="16.2965829"><ele>196.0</ele><time>2026-04-19T07:33:57.239Z</time></trkpt><trkpt lat="38.8402672" lon="16.2967163"><ele>196.0</ele><time>2026-04-19T07:33:58.231Z</time></trkpt><trkpt lat="38.8402721" lon="16.2968522"><ele>196.0</ele><time>2026-04-19T07:33:59.244Z</time></trkpt><trkpt lat="38.8402701" lon="16.2969893"><ele>196.0</ele><time>2026-04-19T07:34:00.238Z</time></trkpt><trkpt lat="38.8402578" lon="16.2971113"><ele>196.0</ele><time>2026-04-19T07:34:01.228Z</time></trkpt><trkpt lat="38.8402374" lon="16.2971951"><ele>196.0</ele><time>2026-04-19T07:34:02.244Z</time></trkpt><trkpt lat="38.8401576" lon="16.2972718"><ele>202.4</ele><time>2026-04-19T07:34:04.23Z</time></trkpt><trkpt lat="38.8400345" lon="16.2972235"><ele>208.8</ele><time>2026-04-19T07:34:06.248Z</time></trkpt><trkpt lat="38.8399671" lon="16.2970819"><ele>215.20000000000002</ele><time>2026-04-19T07:34:08.24Z</time></trkpt><trkpt lat="38.8399361" lon="16.2969897"><ele>221.60000000000002</ele><time>2026-04-19T07:34:09.237Z</time></trkpt><trkpt lat="38.8399351" lon="16.2968858"><ele>228.0</ele><time>2026-04-19T07:34:10.229Z</time></trkpt><trkpt lat="38.8399496" lon="16.2967863"><ele>228.0</ele><time>2026-04-19T07:34:12.253Z</time></trkpt><trkpt lat="38.8399442" lon="16.2966928"><ele>228.0</ele><time>2026-04-19T07:34:15.246Z</time></trkpt><trkpt lat="38.8399367" lon="16.2965942"><ele>228.0</ele><time>2026-04-19T07:34:17.245Z</time></trkpt><trkpt lat="38.8399199" lon="16.2964378"><ele>228.0</ele><time>2026-04-19T07:34:19.243Z</time></trkpt><trkpt lat="38.8399141" lon="16.2963489"><ele>228.0</ele><time>2026-04-19T07:34:20.234Z</time></trkpt><trkpt lat="38.8399069" lon="16.2962385"><ele>228.0</ele><time>2026-04-19T07:34:21.241Z</time></trkpt><trkpt lat="38.8399005" lon="16.2961363"><ele>228.0</ele><time>2026-04-19T07:34:22.244Z</time></trkpt><trkpt lat="38.8398893" lon="16.2960537"><ele>228.0</ele><time>2026-04-19T07:34:23.229Z</time></trkpt><trkpt lat="38.8398878" lon="16.2959668"><ele>228.0</ele><time>2026-04-19T07:34:24.241Z</time></trkpt><trkpt lat="38.8398747" lon="16.29586"><ele>228.0</ele><time>2026-04-19T07:34:25.246Z</time></trkpt><trkpt lat="38.839852" lon="16.2957449"><ele>228.0</ele><time>2026-04-19T07:34:26.237Z</time></trkpt><trkpt lat="38.8398162" lon="16.295643"><ele>228.0</ele><time>2026-04-19T07:34:27.229Z</time></trkpt><trkpt lat="38.8397725" lon="16.2955521"><ele>225.5</ele><time>2026-04-19T07:34:28.236Z</time></trkpt><trkpt lat="38.8397429" lon="16.2954705"><ele>223.0</ele><time>2026-04-19T07:34:29.226Z</time></trkpt><trkpt lat="38.8396842" lon="16.2953477"><ele>220.5</ele><time>2026-04-19T07:34:31.232Z</time></trkpt><trkpt lat="38.8396467" lon="16.2952824"><ele>218.0</ele><time>2026-04-19T07:34:32.232Z</time></trkpt><trkpt lat="38.8395688" lon="16.2951622"><ele>215.5</ele><time>2026-04-19T07:34:34.241Z</time></trkpt><trkpt lat="38.8395216" lon="16.2951008"><ele>213.0</ele><time>2026-04-19T07:34:35.237Z</time></trkpt><trkpt lat="38.8394719" lon="16.2949575"><ele>213.0</ele><time>2026-04-19T07:34:37.237Z</time></trkpt><trkpt lat="38.839446" lon="16.2948716"><ele>213.0</ele><time>2026-04-19T07:34:39.229Z</time></trkpt><trkpt lat="38.8394086" lon="16.2947484"><ele>213.0</ele><time>2026-04-19T07:34:42.236Z</time></trkpt><trkpt lat="38.8393902" lon="16.2946456"><ele>213.0</ele><time>2026-04-19T07:34:44.235Z</time></trkpt><trkpt lat="38.8393412" lon="16.2945774"><ele>213.0</ele><time>2026-04-19T07:34:46.259Z</time></trkpt><trkpt lat="38.8392703" lon="16.2944987"><ele>213.0</ele><time>2026-04-19T07:34:48.236Z</time></trkpt><trkpt lat="38.8391891" lon="16.2944334"><ele>217.8</ele><time>2026-04-19T07:34:50.233Z</time></trkpt><trkpt lat="38.839092" lon="16.2943774"><ele>222.60000000000002</ele><time>2026-04-19T07:34:52.238Z</time></trkpt><trkpt lat="38.8390224" lon="16.2943377"><ele>227.39999999999998</ele><time>2026-04-19T07:34:54.231Z</time></trkpt><trkpt lat="38.8389506" lon="16.2943077"><ele>232.2</ele><time>2026-04-19T07:34:56.261Z</time></trkpt><trkpt lat="38.8388464" lon="16.2942559"><ele>237.0</ele><time>2026-04-19T07:34:58.226Z</time></trkpt><trkpt lat="38.838752" lon="16.2942217"><ele>237.0</ele><time>2026-04-19T07:35:00.231Z</time></trkpt><trkpt lat="38.8386673" lon="16.2941722"><ele>237.0</ele><time>2026-04-19T07:35:02.225Z</time></trkpt><trkpt lat="38.8386046" lon="16.2941125"><ele>237.0</ele><time>2026-04-19T07:35:04.236Z</time></trkpt><trkpt lat="38.8385486" lon="16.2940268"><ele>237.0</ele><time>2026-04-19T07:35:06.234Z</time></trkpt><trkpt lat="38.8385227" lon="16.2939245"><ele>237.0</ele><time>2026-04-19T07:35:08.237Z</time></trkpt><trkpt lat="38.8384863" lon="16.2938006"><ele>237.0</ele><time>2026-04-19T07:35:11.249Z</time></trkpt><trkpt lat="38.8384946" lon="16.2937008"><ele>236.33333333333334</ele><time>2026-04-19T07:35:13.233Z</time></trkpt><trkpt lat="38.8385077" lon="16.2936072"><ele>235.66666666666669</ele><time>2026-04-19T07:35:15.247Z</time></trkpt><trkpt lat="38.8385244" lon="16.2935104"><ele>235.0</ele><time>2026-04-19T07:35:19.246Z</time></trkpt><trkpt lat="38.8385565" lon="16.2934345"><ele>234.33333333333334</ele><time>2026-04-19T07:35:29.248Z</time></trkpt><trkpt lat="38.8385663" lon="16.2933349"><ele>233.66666666666669</ele><time>2026-04-19T07:35:32.235Z</time></trkpt><trkpt lat="38.8385849" lon="16.2932071"><ele>233.0</ele><time>2026-04-19T07:35:35.244Z</time></trkpt><trkpt lat="38.8385882" lon="16.2930564"><ele>232.2</ele><time>2026-04-19T07:35:37.241Z</time></trkpt><trkpt lat="38.8385312" lon="16.292945"><ele>231.4</ele><time>2026-04-19T07:35:39.235Z</time></trkpt><trkpt lat="38.8384549" lon="16.2929034"><ele>230.59999999999997</ele><time>2026-04-19T07:35:41.232Z</time></trkpt><trkpt lat="38.8383788" lon="16.2928867"><ele>229.79999999999998</ele><time>2026-04-19T07:35:43.243Z</time></trkpt><trkpt lat="38.8382896" lon="16.2928715"><ele>229.0</ele><time>2026-04-19T07:35:45.232Z</time></trkpt><trkpt lat="38.8381826" lon="16.2928634"><ele>232.99999999999997</ele><time>2026-04-19T07:35:47.238Z</time></trkpt><trkpt lat="38.8380973" lon="16.2928601"><ele>237.0</ele><time>2026-04-19T07:35:49.229Z</time></trkpt><trkpt lat="38.8380258" lon="16.2928389"><ele>241.0</ele><time>2026-04-19T07:35:51.234Z</time></trkpt><trkpt lat="38.8379397" lon="16.2928304"><ele>245.0</ele><time>2026-04-19T07:35:53.243Z</time></trkpt><trkpt lat="38.8378453" lon="16.2928324"><ele>248.99999999999997</ele><time>2026-04-19T07:35:55.241Z</time></trkpt><trkpt lat="38.8377718" lon="16.2928197"><ele>253.0</ele><time>2026-04-19T07:35:56.258Z</time></trkpt><trkpt lat="38.8376663" lon="16.2927974"><ele>256.6</ele><time>2026-04-19T07:35:58.23Z</time></trkpt><trkpt lat="38.8375961" lon="16.2927917"><ele>260.20000000000005</ele><time>2026-04-19T07:36:00.245Z</time></trkpt><trkpt lat="38.8375167" lon="16.292759"><ele>263.8</ele><time>2026-04-19T07:36:03.253Z</time></trkpt><trkpt lat="38.8374061" lon="16.2927197"><ele>267.40000000000003</ele><time>2026-04-19T07:36:05.233Z</time></trkpt><trkpt lat="38.8373152" lon="16.2926914"><ele>271.0</ele><time>2026-04-19T07:36:07.235Z</time></trkpt><trkpt lat="38.8372185" lon="16.2927945"><ele>271.0</ele><time>2026-04-19T07:36:22.25Z</time></trkpt><trkpt lat="38.83716" lon="16.2928366"><ele>271.0</ele><time>2026-04-19T07:36:23.239Z</time></trkpt><trkpt lat="38.8371022" lon="16.292878"><ele>271.0</ele><time>2026-04-19T07:36:24.233Z</time></trkpt><trkpt lat="38.837042" lon="16.2929074"><ele>271.0</ele><time>2026-04-19T07:36:25.238Z</time></trkpt><trkpt lat="38.8369796" lon="16.292962"><ele>271.0</ele><time>2026-04-19T07:36:26.24Z</time></trkpt><trkpt lat="38.836921" lon="16.2930158"><ele>271.0</ele><time>2026-04-19T07:36:27.238Z</time></trkpt><trkpt lat="38.8368569" lon="16.2930778"><ele>271.0</ele><time>2026-04-19T07:36:33.233Z</time></trkpt><trkpt lat="38.8368141" lon="16.2931511"><ele>273.0</ele><time>2026-04-19T07:36:35.234Z</time></trkpt><trkpt lat="38.8367816" lon="16.2932377"><ele>275.0</ele><time>2026-04-19T07:36:38.24Z</time></trkpt><trkpt lat="38.8367994" lon="16.2933464"><ele>277.0</ele><time>2026-04-19T07:36:55.251Z</time></trkpt><trkpt lat="38.8369084" lon="16.2933911"><ele>279.0</ele><time>2026-04-19T07:36:57.242Z</time></trkpt><trkpt lat="38.8369888" lon="16.2933798"><ele>281.0</ele><time>2026-04-19T07:36:58.249Z</time></trkpt><trkpt lat="38.8370693" lon="16.2933603"><ele>283.0</ele><time>2026-04-19T07:36:59.248Z</time></trkpt><trkpt lat="38.8371385" lon="16.2933386"><ele>284.0</ele><time>2026-04-19T07:37:00.232Z</time></trkpt><trkpt lat="38.8372019" lon="16.293318"><ele>285.0</ele><time>2026-04-19T07:37:01.24Z</time></trkpt><trkpt lat="38.8373112" lon="16.2933241"><ele>286.0</ele><time>2026-04-19T07:37:03.24Z</time></trkpt><trkpt lat="38.8373843" lon="16.2933417"><ele>287.0</ele><time>2026-04-19T07:37:05.242Z</time></trkpt><trkpt lat="38.8374572" lon="16.2933457"><ele>288.0</ele><time>2026-04-19T07:37:07.255Z</time></trkpt><trkpt lat="38.8375479" lon="16.2934257"><ele>289.0</ele><time>2026-04-19T07:37:09.243Z</time></trkpt><trkpt lat="38.8376079" lon="16.2934732"><ele>287.5</ele><time>2026-04-19T07:37:11.246Z</time></trkpt><trkpt lat="38.8376645" lon="16.2935443"><ele>286.0</ele><time>2026-04-19T07:37:15.245Z</time></trkpt><trkpt lat="38.8377031" lon="16.2936353"><ele>284.5</ele><time>2026-04-19T07:37:18.243Z</time></trkpt><trkpt lat="38.8377296" lon="16.2937153"><ele>283.0</ele><time>2026-04-19T07:37:20.239Z</time></trkpt><trkpt lat="38.837756" lon="16.2938042"><ele>281.5</ele><time>2026-04-19T07:37:22.25Z</time></trkpt><trkpt lat="38.8377766" lon="16.2938974"><ele>280.0</ele><time>2026-04-19T07:37:25.243Z</time></trkpt><trkpt lat="38.8377875" lon="16.2939927"><ele>280.0</ele><time>2026-04-19T07:37:28.256Z</time></trkpt><trkpt lat="38.8377887" lon="16.2940962"><ele>280.0</ele><time>2026-04-19T07:37:31.25Z</time></trkpt><trkpt lat="38.8377724" lon="16.2941799"><ele>280.0</ele><time>2026-04-19T07:37:35.249Z</time></trkpt><trkpt lat="38.8377457" lon="16.2942665"><ele>280.0</ele><time>2026-04-19T07:37:38.248Z</time></trkpt><trkpt lat="38.8377031" lon="16.2943721"><ele>280.0</ele><time>2026-04-19T07:37:41.235Z</time></trkpt><trkpt lat="38.8376636" lon="16.2944558"><ele>280.0</ele><time>2026-04-19T07:37:55.241Z</time></trkpt><trkpt lat="38.8376236" lon="16.2945303"><ele>284.66666666666663</ele><time>2026-04-19T07:38:00.245Z</time></trkpt><trkpt lat="38.8375762" lon="16.2946251"><ele>289.3333333333333</ele><time>2026-04-19T07:38:03.236Z</time></trkpt><trkpt lat="38.8375407" lon="16.2946969"><ele>294.0</ele><time>2026-04-19T07:38:05.241Z</time></trkpt><trkpt lat="38.8374944" lon="16.294784"><ele>298.6666666666667</ele><time>2026-04-19T07:38:07.233Z</time></trkpt><trkpt lat="38.8374599" lon="16.2948559"><ele>303.33333333333337</ele><time>2026-04-19T07:38:09.233Z</time></trkpt><trkpt lat="38.8374256" lon="16.2949344"><ele>308.0</ele><time>2026-04-19T07:38:11.246Z</time></trkpt><trkpt lat="38.8373886" lon="16.2950469"><ele>309.6</ele><time>2026-04-19T07:38:13.244Z</time></trkpt><trkpt lat="38.8373709" lon="16.2951746"><ele>311.20000000000005</ele><time>2026-04-19T07:38:15.232Z</time></trkpt><trkpt lat="38.8373735" lon="16.2953058"><ele>312.8</ele><time>2026-04-19T07:38:17.244Z</time></trkpt><trkpt lat="38.8373821" lon="16.2954301"><ele>314.40000000000003</ele><time>2026-04-19T07:38:19.237Z</time></trkpt><trkpt lat="38.8373936" lon="16.2955267"><ele>316.0</ele><time>2026-04-19T07:38:21.242Z</time></trkpt><trkpt lat="38.8373962" lon="16.2956339"><ele>317.0</ele><time>2026-04-19T07:38:23.237Z</time></trkpt><trkpt lat="38.8373983" lon="16.2957314"><ele>318.0</ele><time>2026-04-19T07:38:25.23Z</time></trkpt><trkpt lat="38.837403" lon="16.2958323"><ele>319.0</ele><time>2026-04-19T07:38:28.251Z</time></trkpt><trkpt lat="38.8374057" lon="16.2959153"><ele>320.0</ele><time>2026-04-19T07:38:30.248Z</time></trkpt><trkpt lat="38.8374082" lon="16.2959991"><ele>321.0</ele><time>2026-04-19T07:38:32.249Z</time></trkpt><trkpt lat="38.8374087" lon="16.2961065"><ele>322.0</ele><time>2026-04-19T07:38:34.264Z</time></trkpt><trkpt lat="38.8374063" lon="16.2962341"><ele>322.0</ele><time>2026-04-19T07:38:36.245Z</time></trkpt><trkpt lat="38.8373933" lon="16.2963517"><ele>322.0</ele><time>2026-04-19T07:38:38.23Z</time></trkpt><trkpt lat="38.837374" lon="16.2964361"><ele>322.0</ele><time>2026-04-19T07:38:43.232Z</time></trkpt><trkpt lat="38.8373441" lon="16.2965442"><ele>322.0</ele><time>2026-04-19T07:38:46.244Z</time></trkpt><trkpt lat="38.8373167" lon="16.2966316"><ele>322.0</ele><time>2026-04-19T07:38:47.245Z</time></trkpt><trkpt lat="38.8372901" lon="16.2967161"><ele>322.0</ele><time>2026-04-19T07:38:48.235Z</time></trkpt><trkpt lat="38.8372619" lon="16.2968047"><ele>322.16666666666663</ele><time>2026-04-19T07:38:49.227Z</time></trkpt><trkpt lat="38.8372274" lon="16.2968767"><ele>322.3333333333333</ele><time>2026-04-19T07:38:50.245Z</time></trkpt><trkpt lat="38.8371837" lon="16.2970053"><ele>322.5</ele><time>2026-04-19T07:38:52.245Z</time></trkpt><trkpt lat="38.8371566" lon="16.2970921"><ele>322.6666666666667</ele><time>2026-04-19T07:38:54.238Z</time></trkpt><trkpt lat="38.8371282" lon="16.2971918"><ele>322.83333333333337</ele><time>2026-04-19T07:38:57.252Z</time></trkpt><trkpt lat="38.8371034" lon="16.2972735"><ele>323.0</ele><time>2026-04-19T07:38:59.237Z</time></trkpt><trkpt lat="38.8370782" lon="16.2973493"><ele>323.0</ele><time>2026-04-19T07:39:01.229Z</time></trkpt><trkpt lat="38.8370438" lon="16.297429"><ele>323.0</ele><time>2026-04-19T07:39:07.25Z</time></trkpt><trkpt lat="38.8369953" lon="16.2975214"><ele>323.0</ele><time>2026-04-19T07:39:10.239Z</time></trkpt><trkpt lat="38.836945" lon="16.2976132"><ele>323.0</ele><time>2026-04-19T07:39:12.232Z</time></trkpt><trkpt lat="38.8368957" lon="16.2977026"><ele>323.0</ele><time>2026-04-19T07:39:14.244Z</time></trkpt><trkpt lat="38.8368326" lon="16.2978106"><ele>323.0</ele><time>2026-04-19T07:39:16.229Z</time></trkpt><trkpt lat="38.8367563" lon="16.2979262"><ele>324.0</ele><time>2026-04-19T07:39:18.235Z</time></trkpt><trkpt lat="38.8367123" lon="16.2979909"><ele>325.0</ele><time>2026-04-19T07:39:19.242Z</time></trkpt><trkpt lat="38.8366657" lon="16.2980579"><ele>326.0</ele><time>2026-04-19T07:39:20.241Z</time></trkpt><trkpt lat="38.8366177" lon="16.2981412"><ele>327.0</ele><time>2026-04-19T07:39:21.237Z</time></trkpt><trkpt lat="38.8365694" lon="16.2982283"><ele>328.0</ele><time>2026-04-19T07:39:22.241Z</time></trkpt><trkpt lat="38.8365202" lon="16.2983159"><ele>329.0</ele><time>2026-04-19T07:39:23.248Z</time></trkpt><trkpt lat="38.8364706" lon="16.2984037"><ele>329.5</ele><time>2026-04-19T07:39:24.232Z</time></trkpt><trkpt lat="38.8364202" lon="16.2984946"><ele>330.0</ele><time>2026-04-19T07:39:25.244Z</time></trkpt><trkpt lat="38.8363718" lon="16.2985863"><ele>330.5</ele><time>2026-04-19T07:39:26.233Z</time></trkpt><trkpt lat="38.8363226" lon="16.2986783"><ele>331.0</ele><time>2026-04-19T07:39:27.231Z</time></trkpt><trkpt lat="38.8362709" lon="16.2987671"><ele>331.5</ele><time>2026-04-19T07:39:28.248Z</time></trkpt><trkpt lat="38.8362163" lon="16.2988525"><ele>332.0</ele><time>2026-04-19T07:39:29.233Z</time></trkpt><trkpt lat="38.8361605" lon="16.2989335"><ele>332.20000000000005</ele><time>2026-04-19T07:39:30.227Z</time></trkpt><trkpt lat="38.836104" lon="16.2990181"><ele>332.4</ele><time>2026-04-19T07:39:31.235Z</time></trkpt><trkpt lat="38.8360488" lon="16.2991067"><ele>332.6</ele><time>2026-04-19T07:39:32.238Z</time></trkpt><trkpt lat="38.835993" lon="16.2992074"><ele>332.79999999999995</ele><time>2026-04-19T07:39:33.251Z</time></trkpt><trkpt lat="38.8359362" lon="16.2993135"><ele>333.0</ele><time>2026-04-19T07:39:34.239Z</time></trkpt><trkpt lat="38.8358812" lon="16.299421"><ele>333.4</ele><time>2026-04-19T07:39:35.231Z</time></trkpt><trkpt lat="38.8358245" lon="16.2995301"><ele>333.79999999999995</ele><time>2026-04-19T07:39:36.233Z</time></trkpt><trkpt lat="38.835763" lon="16.29964"><ele>334.2</ele><time>2026-04-19T07:39:37.243Z</time></trkpt><trkpt lat="38.8357018" lon="16.2997481"><ele>334.6</ele><time>2026-04-19T07:39:38.233Z</time></trkpt><trkpt lat="38.835635" lon="16.2998525"><ele>335.0</ele><time>2026-04-19T07:39:39.234Z</time></trkpt><trkpt lat="38.8355607" lon="16.2999587"><ele>336.0</ele><time>2026-04-19T07:39:40.232Z</time></trkpt><trkpt lat="38.8354729" lon="16.3000636"><ele>337.0</ele><time>2026-04-19T07:39:41.239Z</time></trkpt><trkpt lat="38.8353789" lon="16.3001747"><ele>338.0</ele><time>2026-04-19T07:39:42.247Z</time></trkpt><trkpt lat="38.835252" lon="16.3002655"><ele>339.0</ele><time>2026-04-19T07:39:43.248Z</time></trkpt><trkpt lat="38.8351062" lon="16.3003643"><ele>339.6666666666667</ele><time>2026-04-19T07:39:44.241Z</time></trkpt><trkpt lat="38.8349619" lon="16.3004642"><ele>340.33333333333337</ele><time>2026-04-19T07:39:45.251Z</time></trkpt><trkpt lat="38.8348195" lon="16.3005631"><ele>341.0</ele><time>2026-04-19T07:39:46.249Z</time></trkpt><trkpt lat="38.8346778" lon="16.3006635"><ele>341.33333333333337</ele><time>2026-04-19T07:39:47.238Z</time></trkpt><trkpt lat="38.8345373" lon="16.300759"><ele>341.6666666666667</ele><time>2026-04-19T07:39:48.231Z</time></trkpt><trkpt lat="38.8344011" lon="16.3008516"><ele>342.0</ele><time>2026-04-19T07:39:49.246Z</time></trkpt><trkpt lat="38.8342712" lon="16.3009459"><ele>343.25</ele><time>2026-04-19T07:39:50.243Z</time></trkpt><trkpt lat="38.834152" lon="16.3010298"><ele>344.5</ele><time>2026-04-19T07:39:51.233Z</time></trkpt><trkpt lat="38.8340365" lon="16.3010927"><ele>345.75</ele><time>2026-04-19T07:39:52.239Z</time></trkpt><trkpt lat="38.8339235" lon="16.3011305"><ele>347.0</ele><time>2026-04-19T07:39:53.252Z</time></trkpt><trkpt lat="38.8338188" lon="16.3011483"><ele>347.0</ele><time>2026-04-19T07:39:54.251Z</time></trkpt><trkpt lat="38.8337259" lon="16.3011587"><ele>347.0</ele><time>2026-04-19T07:39:55.245Z</time></trkpt><trkpt lat="38.8336402" lon="16.3011691"><ele>347.0</ele><time>2026-04-19T07:39:56.234Z</time></trkpt><trkpt lat="38.8335582" lon="16.3011806"><ele>347.0</ele><time>2026-04-19T07:39:57.231Z</time></trkpt><trkpt lat="38.8334794" lon="16.3011931"><ele>347.0</ele><time>2026-04-19T07:39:58.246Z</time></trkpt><trkpt lat="38.8333943" lon="16.301205"><ele>347.0</ele><time>2026-04-19T07:39:59.243Z</time></trkpt><trkpt lat="38.8332993" lon="16.3012201"><ele>347.6</ele><time>2026-04-19T07:40:00.243Z</time></trkpt><trkpt lat="38.8331989" lon="16.3012389"><ele>348.20000000000005</ele><time>2026-04-19T07:40:01.244Z</time></trkpt><trkpt lat="38.8330908" lon="16.3012589"><ele>348.8</ele><time>2026-04-19T07:40:02.243Z</time></trkpt><trkpt lat="38.8329769" lon="16.3012754"><ele>349.4</ele><time>2026-04-19T07:40:03.23Z</time></trkpt><trkpt lat="38.8328743" lon="16.3012849"><ele>350.0</ele><time>2026-04-19T07:40:04.241Z</time></trkpt><trkpt lat="38.8327812" lon="16.3012917"><ele>350.0</ele><time>2026-04-19T07:40:05.24Z</time></trkpt><trkpt lat="38.8326883" lon="16.3013038"><ele>350.0</ele><time>2026-04-19T07:40:06.234Z</time></trkpt><trkpt lat="38.8325903" lon="16.3013174"><ele>350.0</ele><time>2026-04-19T07:40:07.243Z</time></trkpt><trkpt lat="38.8324871" lon="16.3013327"><ele>350.0</ele><time>2026-04-19T07:40:08.243Z</time></trkpt><trkpt lat="38.8323777" lon="16.3013526"><ele>350.0</ele><time>2026-04-19T07:40:09.236Z</time></trkpt><trkpt lat="38.8322632" lon="16.3013832"><ele>351.6</ele><time>2026-04-19T07:40:10.23Z</time></trkpt><trkpt lat="38.8321555" lon="16.3014436"><ele>353.2</ele><time>2026-04-19T07:40:11.238Z</time></trkpt><trkpt lat="38.8320713" lon="16.3015313"><ele>354.79999999999995</ele><time>2026-04-19T07:40:12.247Z</time></trkpt><trkpt lat="38.8319968" lon="16.3016371"><ele>356.4</ele><time>2026-04-19T07:40:13.23Z</time></trkpt><trkpt lat="38.8319307" lon="16.3017429"><ele>358.0</ele><time>2026-04-19T07:40:14.237Z</time></trkpt><trkpt lat="38.8318718" lon="16.3018473"><ele>358.0</ele><time>2026-04-19T07:40:15.235Z</time></trkpt><trkpt lat="38.831815" lon="16.3019495"><ele>358.0</ele><time>2026-04-19T07:40:16.235Z</time></trkpt><trkpt lat="38.831763" lon="16.3020507"><ele>358.0</ele><time>2026-04-19T07:40:17.25Z</time></trkpt><trkpt lat="38.8317155" lon="16.3021467"><ele>358.0</ele><time>2026-04-19T07:40:18.241Z</time></trkpt><trkpt lat="38.8316711" lon="16.3022416"><ele>358.0</ele><time>2026-04-19T07:40:19.231Z</time></trkpt><trkpt lat="38.8316319" lon="16.3023302"><ele>358.0</ele><time>2026-04-19T07:40:20.233Z</time></trkpt><trkpt lat="38.8315967" lon="16.3024122"><ele>359.0</ele><time>2026-04-19T07:40:21.239Z</time></trkpt><trkpt lat="38.8315664" lon="16.3024894"><ele>360.0</ele><time>2026-04-19T07:40:22.245Z</time></trkpt><trkpt lat="38.8315177" lon="16.3026299"><ele>361.0</ele><time>2026-04-19T07:40:24.236Z</time></trkpt><trkpt lat="38.8314916" lon="16.3027691"><ele>362.0</ele><time>2026-04-19T07:40:26.244Z</time></trkpt><trkpt lat="38.8314725" lon="16.3029091"><ele>363.0</ele><time>2026-04-19T07:40:28.254Z</time></trkpt><trkpt lat="38.8314588" lon="16.3029958"><ele>363.3333333333333</ele><time>2026-04-19T07:40:29.237Z</time></trkpt><trkpt lat="38.8314462" lon="16.3030893"><ele>363.6666666666667</ele><time>2026-04-19T07:40:30.231Z</time></trkpt><trkpt lat="38.8314332" lon="16.3031914"><ele>364.0</ele><time>2026-04-19T07:40:31.245Z</time></trkpt><trkpt lat="38.8314172" lon="16.3032963"><ele>364.33333333333337</ele><time>2026-04-19T07:40:32.251Z</time></trkpt><trkpt lat="38.8313997" lon="16.3034022"><ele>364.6666666666667</ele><time>2026-04-19T07:40:33.248Z</time></trkpt><trkpt lat="38.8313779" lon="16.3035091"><ele>365.0</ele><time>2026-04-19T07:40:34.233Z</time></trkpt><trkpt lat="38.8313535" lon="16.3036139"><ele>365.0</ele><time>2026-04-19T07:40:35.238Z</time></trkpt><trkpt lat="38.8313289" lon="16.3037171"><ele>365.0</ele><time>2026-04-19T07:40:36.239Z</time></trkpt><trkpt lat="38.8313006" lon="16.3038127"><ele>365.0</ele><time>2026-04-19T07:40:37.233Z</time></trkpt><trkpt lat="38.8312596" lon="16.3038888"><ele>365.0</ele><time>2026-04-19T07:40:38.241Z</time></trkpt><trkpt lat="38.8311699" lon="16.3039592"><ele>365.0</ele><time>2026-04-19T07:40:40.245Z</time></trkpt><trkpt lat="38.8311298" lon="16.3040415"><ele>365.0</ele><time>2026-04-19T07:40:43.237Z</time></trkpt><trkpt lat="38.8311726" lon="16.3041424"><ele>366.2</ele><time>2026-04-19T07:40:45.245Z</time></trkpt><trkpt lat="38.8312236" lon="16.3043066"><ele>367.4</ele><time>2026-04-19T07:40:47.23Z</time></trkpt><trkpt lat="38.8312391" lon="16.304414"><ele>368.6</ele><time>2026-04-19T07:40:48.237Z</time></trkpt><trkpt lat="38.8312477" lon="16.3045278"><ele>369.8</ele><time>2026-04-19T07:40:49.245Z</time></trkpt><trkpt lat="38.8312538" lon="16.3046519"><ele>371.0</ele><time>2026-04-19T07:40:50.249Z</time></trkpt><trkpt lat="38.8312627" lon="16.3047791"><ele>372.6</ele><time>2026-04-19T07:40:51.242Z</time></trkpt><trkpt lat="38.8312786" lon="16.3049061"><ele>374.20000000000005</ele><time>2026-04-19T07:40:52.23Z</time></trkpt><trkpt lat="38.8312963" lon="16.3050407"><ele>375.79999999999995</ele><time>2026-04-19T07:40:53.248Z</time></trkpt><trkpt lat="38.8313131" lon="16.3051841"><ele>377.4</ele><time>2026-04-19T07:40:54.242Z</time></trkpt><trkpt lat="38.8313314" lon="16.3053272"><ele>379.0</ele><time>2026-04-19T07:40:55.231Z</time></trkpt><trkpt lat="38.831352" lon="16.3054704"><ele>381.75</ele><time>2026-04-19T07:40:56.238Z</time></trkpt><trkpt lat="38.8313762" lon="16.3056159"><ele>384.5</ele><time>2026-04-19T07:40:57.253Z</time></trkpt><trkpt lat="38.8314054" lon="16.305764"><ele>387.25</ele><time>2026-04-19T07:40:58.232Z</time></trkpt><trkpt lat="38.8314393" lon="16.3059141"><ele>390.0</ele><time>2026-04-19T07:40:59.234Z</time></trkpt><trkpt lat="38.8314745" lon="16.3060579"><ele>390.0</ele><time>2026-04-19T07:41:00.244Z</time></trkpt><trkpt lat="38.8314992" lon="16.3061909"><ele>390.0</ele><time>2026-04-19T07:41:01.242Z</time></trkpt><trkpt lat="38.8315068" lon="16.3063158"><ele>390.0</ele><time>2026-04-19T07:41:02.232Z</time></trkpt><trkpt lat="38.8314934" lon="16.3064343"><ele>390.0</ele><time>2026-04-19T07:41:03.248Z</time></trkpt><trkpt lat="38.8314543" lon="16.3065356"><ele>390.0</ele><time>2026-04-19T07:41:04.242Z</time></trkpt><trkpt lat="38.8313963" lon="16.3066191"><ele>391.8</ele><time>2026-04-19T07:41:05.246Z</time></trkpt><trkpt lat="38.8313257" lon="16.3066927"><ele>393.6</ele><time>2026-04-19T07:41:06.228Z</time></trkpt><trkpt lat="38.8312492" lon="16.3067729"><ele>395.4</ele><time>2026-04-19T07:41:07.242Z</time></trkpt><trkpt lat="38.8311751" lon="16.3068594"><ele>397.2</ele><time>2026-04-19T07:41:08.24Z</time></trkpt><trkpt lat="38.8311096" lon="16.3069361"><ele>399.0</ele><time>2026-04-19T07:41:09.254Z</time></trkpt><trkpt lat="38.8310469" lon="16.3070078"><ele>399.0</ele><time>2026-04-19T07:41:10.229Z</time></trkpt><trkpt lat="38.8309851" lon="16.3070788"><ele>399.0</ele><time>2026-04-19T07:41:11.245Z</time></trkpt><trkpt lat="38.8309265" lon="16.3071481"><ele>399.0</ele><time>2026-04-19T07:41:12.251Z</time></trkpt><trkpt lat="38.8308686" lon="16.3072186"><ele>399.0</ele><time>2026-04-19T07:41:13.253Z</time></trkpt><trkpt lat="38.8308108" lon="16.3072902"><ele>399.0</ele><time>2026-04-19T07:41:14.241Z</time></trkpt><trkpt lat="38.8307563" lon="16.307364"><ele>399.0</ele><time>2026-04-19T07:41:15.248Z</time></trkpt><trkpt lat="38.8307051" lon="16.3074489"><ele>401.4</ele><time>2026-04-19T07:41:16.243Z</time></trkpt><trkpt lat="38.8306671" lon="16.3075484"><ele>403.79999999999995</ele><time>2026-04-19T07:41:17.247Z</time></trkpt><trkpt lat="38.8306462" lon="16.3076609"><ele>406.20000000000005</ele><time>2026-04-19T07:41:18.24Z</time></trkpt><trkpt lat="38.8306228" lon="16.3077875"><ele>408.6</ele><time>2026-04-19T07:41:19.236Z</time></trkpt><trkpt lat="38.8305917" lon="16.3079174"><ele>411.0</ele><time>2026-04-19T07:41:20.245Z</time></trkpt><trkpt lat="38.8305535" lon="16.3080439"><ele>410.6</ele><time>2026-04-19T07:41:21.265Z</time></trkpt><trkpt lat="38.8305007" lon="16.3081606"><ele>410.20000000000005</ele><time>2026-04-19T07:41:22.245Z</time></trkpt><trkpt lat="38.8304363" lon="16.3082732"><ele>409.79999999999995</ele><time>2026-04-19T07:41:23.23Z</time></trkpt><trkpt lat="38.8303685" lon="16.3083875"><ele>409.4</ele><time>2026-04-19T07:41:24.239Z</time></trkpt><trkpt lat="38.8303003" lon="16.3085012"><ele>409.0</ele><time>2026-04-19T07:41:25.241Z</time></trkpt><trkpt lat="38.8302324" lon="16.3086142"><ele>409.00000000000006</ele><time>2026-04-19T07:41:26.237Z</time></trkpt><trkpt lat="38.830166" lon="16.3087253"><ele>409.0</ele><time>2026-04-19T07:41:27.23Z</time></trkpt><trkpt lat="38.8301087" lon="16.3088215"><ele>409.0</ele><time>2026-04-19T07:41:28.239Z</time></trkpt><trkpt lat="38.8300613" lon="16.3088992"><ele>409.0</ele><time>2026-04-19T07:41:29.239Z</time></trkpt><trkpt lat="38.830017" lon="16.3089712"><ele>409.00000000000006</ele><time>2026-04-19T07:41:30.238Z</time></trkpt><trkpt lat="38.829963" lon="16.3090617"><ele>409.0</ele><time>2026-04-19T07:41:32.237Z</time></trkpt><trkpt lat="38.8298866" lon="16.3091432"><ele>410.83333333333337</ele><time>2026-04-19T07:41:35.244Z</time></trkpt><trkpt lat="38.8298328" lon="16.309189"><ele>412.6666666666667</ele><time>2026-04-19T07:41:38.244Z</time></trkpt><trkpt lat="38.8298281" lon="16.3092814"><ele>414.5</ele><time>2026-04-19T07:41:42.243Z</time></trkpt><trkpt lat="38.829918" lon="16.3093065"><ele>416.33333333333337</ele><time>2026-04-19T07:41:44.229Z</time></trkpt><trkpt lat="38.829996" lon="16.3094434"><ele>418.1666666666667</ele><time>2026-04-19T07:41:46.239Z</time></trkpt><trkpt lat="38.8300304" lon="16.3095276"><ele>420.0</ele><time>2026-04-19T07:41:47.235Z</time></trkpt><trkpt lat="38.8300596" lon="16.3096388"><ele>420.4</ele><time>2026-04-19T07:41:48.243Z</time></trkpt><trkpt lat="38.8300626" lon="16.3097687"><ele>420.8</ele><time>2026-04-19T07:41:49.233Z</time></trkpt><trkpt lat="38.8300611" lon="16.3099053"><ele>421.20000000000005</ele><time>2026-04-19T07:41:50.232Z</time></trkpt><trkpt lat="38.8300551" lon="16.3100523"><ele>421.6</ele><time>2026-04-19T07:41:51.25Z</time></trkpt><trkpt lat="38.8300377" lon="16.3102076"><ele>422.0</ele><time>2026-04-19T07:41:52.233Z</time></trkpt><trkpt lat="38.8300066" lon="16.3103754"><ele>422.0</ele><time>2026-04-19T07:41:53.239Z</time></trkpt><trkpt lat="38.8299591" lon="16.3105535"><ele>422.0</ele><time>2026-04-19T07:41:54.244Z</time></trkpt><trkpt lat="38.8298974" lon="16.3107361"><ele>422.0</ele><time>2026-04-19T07:41:55.235Z</time></trkpt><trkpt lat="38.8298271" lon="16.3109115"><ele>422.25</ele><time>2026-04-19T07:41:56.237Z</time></trkpt><trkpt lat="38.8297516" lon="16.311075"><ele>422.5</ele><time>2026-04-19T07:41:57.245Z</time></trkpt><trkpt lat="38.8296706" lon="16.3112314"><ele>422.75</ele><time>2026-04-19T07:41:58.24Z</time></trkpt><trkpt lat="38.8295915" lon="16.3113767"><ele>423.0</ele><time>2026-04-19T07:41:59.233Z</time></trkpt><trkpt lat="38.829516" lon="16.3115103"><ele>423.2</ele><time>2026-04-19T07:42:00.239Z</time></trkpt><trkpt lat="38.829451" lon="16.3116234"><ele>423.4</ele><time>2026-04-19T07:42:01.239Z</time></trkpt><trkpt lat="38.8293962" lon="16.3117267"><ele>423.59999999999997</ele><time>2026-04-19T07:42:02.229Z</time></trkpt><trkpt lat="38.8293455" lon="16.3118178"><ele>423.79999999999995</ele><time>2026-04-19T07:42:03.233Z</time></trkpt><trkpt lat="38.8292944" lon="16.3119101"><ele>424.0</ele><time>2026-04-19T07:42:04.244Z</time></trkpt><trkpt lat="38.829232" lon="16.3120073"><ele>424.79999999999995</ele><time>2026-04-19T07:42:05.24Z</time></trkpt><trkpt lat="38.8291594" lon="16.3120971"><ele>425.59999999999997</ele><time>2026-04-19T07:42:06.226Z</time></trkpt><trkpt lat="38.8290692" lon="16.3121612"><ele>426.4</ele><time>2026-04-19T07:42:07.251Z</time></trkpt><trkpt lat="38.8289693" lon="16.3121948"><ele>427.2</ele><time>2026-04-19T07:42:08.236Z</time></trkpt><trkpt lat="38.82886" lon="16.312198"><ele>428.0</ele><time>2026-04-19T07:42:09.227Z</time></trkpt><trkpt lat="38.8287518" lon="16.31218"><ele>428.0</ele><time>2026-04-19T07:42:10.244Z</time></trkpt><trkpt lat="38.8286459" lon="16.3121545"><ele>427.99999999999994</ele><time>2026-04-19T07:42:11.236Z</time></trkpt><trkpt lat="38.8285408" lon="16.3121334"><ele>427.99999999999994</ele><time>2026-04-19T07:42:12.234Z</time></trkpt><trkpt lat="38.8284384" lon="16.3121102"><ele>428.0</ele><time>2026-04-19T07:42:13.235Z</time></trkpt><trkpt lat="38.828344" lon="16.312093"><ele>428.0</ele><time>2026-04-19T07:42:14.244Z</time></trkpt><trkpt lat="38.8282697" lon="16.3120884"><ele>428.4</ele><time>2026-04-19T07:42:15.235Z</time></trkpt><trkpt lat="38.8281669" lon="16.312134"><ele>428.79999999999995</ele><time>2026-04-19T07:42:17.24Z</time></trkpt><trkpt lat="38.8281366" lon="16.3123055"><ele>429.2</ele><time>2026-04-19T07:42:19.224Z</time></trkpt><trkpt lat="38.8281254" lon="16.3124143"><ele>429.6</ele><time>2026-04-19T07:42:20.237Z</time></trkpt><trkpt lat="38.8281133" lon="16.3125303"><ele>430.0</ele><time>2026-04-19T07:42:21.238Z</time></trkpt><trkpt lat="38.8281008" lon="16.3126565"><ele>430.1666666666667</ele><time>2026-04-19T07:42:22.231Z</time></trkpt><trkpt lat="38.828086" lon="16.3127872"><ele>430.33333333333337</ele><time>2026-04-19T07:42:23.233Z</time></trkpt><trkpt lat="38.8280699" lon="16.3129054"><ele>430.5</ele><time>2026-04-19T07:42:24.238Z</time></trkpt><trkpt lat="38.8280502" lon="16.3129966"><ele>430.66666666666663</ele><time>2026-04-19T07:42:25.242Z</time></trkpt><trkpt lat="38.8279994" lon="16.3130864"><ele>430.8333333333333</ele><time>2026-04-19T07:42:27.233Z</time></trkpt><trkpt lat="38.8279611" lon="16.3131678"><ele>431.0</ele><time>2026-04-19T07:42:29.24Z</time></trkpt><trkpt lat="38.827978" lon="16.3132514"><ele>431.4</ele><time>2026-04-19T07:42:30.232Z</time></trkpt><trkpt lat="38.828007" lon="16.3133622"><ele>431.8</ele><time>2026-04-19T07:42:31.231Z</time></trkpt><trkpt lat="38.8280368" lon="16.3134703"><ele>432.19999999999993</ele><time>2026-04-19T07:42:32.231Z</time></trkpt><trkpt lat="38.8280605" lon="16.313598"><ele>432.59999999999997</ele><time>2026-04-19T07:42:33.248Z</time></trkpt><trkpt lat="38.8280841" lon="16.3137312"><ele>433.0</ele><time>2026-04-19T07:42:34.254Z</time></trkpt><trkpt lat="38.8281063" lon="16.3138678"><ele>432.25</ele><time>2026-04-19T07:42:35.236Z</time></trkpt><trkpt lat="38.8281276" lon="16.3140112"><ele>431.5</ele><time>2026-04-19T07:42:36.232Z</time></trkpt><trkpt lat="38.8281484" lon="16.3141592"><ele>430.75</ele><time>2026-04-19T07:42:37.239Z</time></trkpt><trkpt lat="38.828166" lon="16.3143145"><ele>430.0</ele><time>2026-04-19T07:42:38.241Z</time></trkpt><trkpt lat="38.8281724" lon="16.3144718"><ele>430.0</ele><time>2026-04-19T07:42:39.242Z</time></trkpt><trkpt lat="38.8281636" lon="16.3146319"><ele>430.0</ele><time>2026-04-19T07:42:40.235Z</time></trkpt><trkpt lat="38.8281476" lon="16.3147801"><ele>430.0</ele><time>2026-04-19T07:42:41.242Z</time></trkpt><trkpt lat="38.8281311" lon="16.3149259"><ele>430.0</ele><time>2026-04-19T07:42:42.235Z</time></trkpt><trkpt lat="38.8281201" lon="16.3150728"><ele>429.5</ele><time>2026-04-19T07:42:43.238Z</time></trkpt><trkpt lat="38.8281044" lon="16.315229"><ele>429.0</ele><time>2026-04-19T07:42:44.247Z</time></trkpt><trkpt lat="38.8280808" lon="16.3153822"><ele>428.5</ele><time>2026-04-19T07:42:45.234Z</time></trkpt><trkpt lat="38.8280587" lon="16.3155227"><ele>428.0</ele><time>2026-04-19T07:42:46.23Z</time></trkpt><trkpt lat="38.8280389" lon="16.3156593"><ele>427.25</ele><time>2026-04-19T07:42:47.242Z</time></trkpt><trkpt lat="38.8280226" lon="16.3157993"><ele>426.5</ele><time>2026-04-19T07:42:48.242Z</time></trkpt><trkpt lat="38.8280088" lon="16.3159462"><ele>425.75</ele><time>2026-04-19T07:42:49.243Z</time></trkpt><trkpt lat="38.8279972" lon="16.3161156"><ele>425.0</ele><time>2026-04-19T07:42:50.234Z</time></trkpt><trkpt lat="38.8279834" lon="16.3163249"><ele>424.3333333333333</ele><time>2026-04-19T07:42:51.244Z</time></trkpt><trkpt lat="38.8279557" lon="16.3165509"><ele>423.66666666666663</ele><time>2026-04-19T07:42:52.248Z</time></trkpt><trkpt lat="38.827923" lon="16.3167648"><ele>423.0</ele><time>2026-04-19T07:42:53.245Z</time></trkpt><trkpt lat="38.8278977" lon="16.3169632"><ele>423.0</ele><time>2026-04-19T07:42:54.233Z</time></trkpt><trkpt lat="38.8278742" lon="16.3171528"><ele>423.0</ele><time>2026-04-19T07:42:55.236Z</time></trkpt><trkpt lat="38.8278547" lon="16.3173381"><ele>423.0</ele><time>2026-04-19T07:42:56.233Z</time></trkpt><trkpt lat="38.8278355" lon="16.3175176"><ele>423.0</ele><time>2026-04-19T07:42:57.239Z</time></trkpt><trkpt lat="38.8278154" lon="16.3176904"><ele>422.25</ele><time>2026-04-19T07:42:58.233Z</time></trkpt><trkpt lat="38.8277965" lon="16.3178536"><ele>421.5</ele><time>2026-04-19T07:42:59.235Z</time></trkpt><trkpt lat="38.8277759" lon="16.3180112"><ele>420.75</ele><time>2026-04-19T07:43:00.243Z</time></trkpt><trkpt lat="38.8277569" lon="16.3181631"><ele>420.0</ele><time>2026-04-19T07:43:01.235Z</time></trkpt><trkpt lat="38.8277405" lon="16.3183094"><ele>419.8333333333333</ele><time>2026-04-19T07:43:02.238Z</time></trkpt><trkpt lat="38.8277264" lon="16.3184422"><ele>419.66666666666663</ele><time>2026-04-19T07:43:03.235Z</time></trkpt><trkpt lat="38.8277145" lon="16.3185614"><ele>419.5</ele><time>2026-04-19T07:43:04.241Z</time></trkpt><trkpt lat="38.8276931" lon="16.3186715"><ele>419.3333333333333</ele><time>2026-04-19T07:43:05.23Z</time></trkpt><trkpt lat="38.8276631" lon="16.3187499"><ele>419.16666666666663</ele><time>2026-04-19T07:43:06.244Z</time></trkpt><trkpt lat="38.8276257" lon="16.3188492"><ele>419.0</ele><time>2026-04-19T07:43:08.245Z</time></trkpt><trkpt lat="38.8276723" lon="16.3189351"><ele>419.0</ele><time>2026-04-19T07:43:10.247Z</time></trkpt><trkpt lat="38.8276931" lon="16.3188396"><ele>419.0</ele><time>2026-04-19T07:43:13.242Z</time></trkpt><trkpt lat="38.8276128" lon="16.3188436"><ele>419.0</ele><time>2026-04-19T07:43:16.228Z</time></trkpt><trkpt lat="38.8276388" lon="16.3189948"><ele>419.0</ele><time>2026-04-19T07:43:18.242Z</time></trkpt><trkpt lat="38.8276678" lon="16.3190979"><ele>419.0</ele><time>2026-04-19T07:43:19.236Z</time></trkpt><trkpt lat="38.827705" lon="16.3192274"><ele>419.0</ele><time>2026-04-19T07:43:20.227Z</time></trkpt><trkpt lat="38.8277439" lon="16.3193814"><ele>419.0</ele><time>2026-04-19T07:43:21.238Z</time></trkpt><trkpt lat="38.8277811" lon="16.3195461"><ele>419.0</ele><time>2026-04-19T07:43:22.238Z</time></trkpt><trkpt lat="38.8278207" lon="16.3197154"><ele>419.0</ele><time>2026-04-19T07:43:23.238Z</time></trkpt><trkpt lat="38.8278574" lon="16.3198886"><ele>420.5</ele><time>2026-04-19T07:43:24.23Z</time></trkpt><trkpt lat="38.8278992" lon="16.3200578"><ele>422.0</ele><time>2026-04-19T07:43:25.236Z</time></trkpt><trkpt lat="38.8279398" lon="16.3202197"><ele>423.5</ele><time>2026-04-19T07:43:26.239Z</time></trkpt><trkpt lat="38.8279829" lon="16.3203591"><ele>425.0</ele><time>2026-04-19T07:43:27.232Z</time></trkpt><trkpt lat="38.8279952" lon="16.3204731"><ele>426.4</ele><time>2026-04-19T07:43:28.234Z</time></trkpt><trkpt lat="38.8279689" lon="16.3205919"><ele>427.8</ele><time>2026-04-19T07:43:30.226Z</time></trkpt><trkpt lat="38.8279051" lon="16.3206358"><ele>429.20000000000005</ele><time>2026-04-19T07:43:31.237Z</time></trkpt><trkpt lat="38.8278565" lon="16.3207287"><ele>430.6</ele><time>2026-04-19T07:43:32.238Z</time></trkpt><trkpt lat="38.827814" lon="16.3208367"><ele>432.0</ele><time>2026-04-19T07:43:33.238Z</time></trkpt><trkpt lat="38.8277662" lon="16.3209587"><ele>432.0</ele><time>2026-04-19T07:43:34.231Z</time></trkpt><trkpt lat="38.8277128" lon="16.3210962"><ele>432.0</ele><time>2026-04-19T07:43:35.238Z</time></trkpt><trkpt lat="38.8276552" lon="16.3212405"><ele>432.0</ele><time>2026-04-19T07:43:36.23Z</time></trkpt><trkpt lat="38.8275931" lon="16.3213954"><ele>432.0</ele><time>2026-04-19T07:43:37.229Z</time></trkpt><trkpt lat="38.8275222" lon="16.321551"><ele>432.25</ele><time>2026-04-19T07:43:38.241Z</time></trkpt><trkpt lat="38.8274403" lon="16.3217016"><ele>432.5</ele><time>2026-04-19T07:43:39.245Z</time></trkpt><trkpt lat="38.8273486" lon="16.3218521"><ele>432.75</ele><time>2026-04-19T07:43:40.241Z</time></trkpt><trkpt lat="38.8272536" lon="16.3220085"><ele>433.0</ele><time>2026-04-19T07:43:41.233Z</time></trkpt><trkpt lat="38.8271565" lon="16.322168"><ele>434.0</ele><time>2026-04-19T07:43:42.235Z</time></trkpt><trkpt lat="38.8270671" lon="16.3223312"><ele>435.0</ele><time>2026-04-19T07:43:43.236Z</time></trkpt><trkpt lat="38.8269918" lon="16.322497"><ele>436.0</ele><time>2026-04-19T07:43:44.237Z</time></trkpt><trkpt lat="38.8269311" lon="16.3226695"><ele>436.0</ele><time>2026-04-19T07:43:45.234Z</time></trkpt><trkpt lat="38.8268754" lon="16.3228445"><ele>436.0</ele><time>2026-04-19T07:43:46.233Z</time></trkpt><trkpt lat="38.8268232" lon="16.3230241"><ele>436.0</ele><time>2026-04-19T07:43:47.234Z</time></trkpt><trkpt lat="38.8267746" lon="16.3232082"><ele>436.0</ele><time>2026-04-19T07:43:48.231Z</time></trkpt><trkpt lat="38.826728" lon="16.3233957"><ele>436.6666666666667</ele><time>2026-04-19T07:43:49.232Z</time></trkpt><trkpt lat="38.8266813" lon="16.3235853"><ele>437.33333333333337</ele><time>2026-04-19T07:43:50.234Z</time></trkpt><trkpt lat="38.8266358" lon="16.3237749"><ele>438.0</ele><time>2026-04-19T07:43:51.235Z</time></trkpt><trkpt lat="38.8265923" lon="16.3239598"><ele>439.0</ele><time>2026-04-19T07:43:52.234Z</time></trkpt><trkpt lat="38.8265527" lon="16.3241339"><ele>439.99999999999994</ele><time>2026-04-19T07:43:53.233Z</time></trkpt><trkpt lat="38.8265182" lon="16.324289"><ele>440.99999999999994</ele><time>2026-04-19T07:43:54.232Z</time></trkpt><trkpt lat="38.8264913" lon="16.3244231"><ele>442.0</ele><time>2026-04-19T07:43:55.233Z</time></trkpt><trkpt lat="38.8264792" lon="16.3245046"><ele>443.0</ele><time>2026-04-19T07:43:56.231Z</time></trkpt><trkpt lat="38.8264074" lon="16.3245212"><ele>443.0</ele><time>2026-04-19T07:43:58.234Z</time></trkpt><trkpt lat="38.8262977" lon="16.3244852"><ele>442.99999999999994</ele><time>2026-04-19T07:44:00.238Z</time></trkpt><trkpt lat="38.8262049" lon="16.324481"><ele>442.99999999999994</ele><time>2026-04-19T07:44:02.239Z</time></trkpt><trkpt lat="38.8261339" lon="16.3244848"><ele>443.0</ele><time>2026-04-19T07:44:03.235Z</time></trkpt><trkpt lat="38.8260432" lon="16.3244995"><ele>443.0</ele><time>2026-04-19T07:44:04.236Z</time></trkpt><trkpt lat="38.825944" lon="16.3245354"><ele>443.59999999999997</ele><time>2026-04-19T07:44:05.237Z</time></trkpt><trkpt lat="38.8258404" lon="16.3245879"><ele>444.19999999999993</ele><time>2026-04-19T07:44:06.236Z</time></trkpt><trkpt lat="38.8257469" lon="16.3246691"><ele>444.8</ele><time>2026-04-19T07:44:07.242Z</time></trkpt><trkpt lat="38.8256652" lon="16.3247371"><ele>445.4</ele><time>2026-04-19T07:44:08.238Z</time></trkpt><trkpt lat="38.8255843" lon="16.3247744"><ele>446.0</ele><time>2026-04-19T07:44:09.24Z</time></trkpt><trkpt lat="38.8255016" lon="16.3247805"><ele>446.0</ele><time>2026-04-19T07:44:10.244Z</time></trkpt><trkpt lat="38.8254193" lon="16.3247535"><ele>446.0</ele><time>2026-04-19T07:44:11.241Z</time></trkpt><trkpt lat="38.8253369" lon="16.3247148"><ele>446.0</ele><time>2026-04-19T07:44:12.233Z</time></trkpt><trkpt lat="38.8252487" lon="16.3246721"><ele>446.0</ele><time>2026-04-19T07:44:13.241Z</time></trkpt><trkpt lat="38.825158" lon="16.3246411"><ele>446.0</ele><time>2026-04-19T07:44:14.239Z</time></trkpt><trkpt lat="38.8250582" lon="16.3246193"><ele>446.0</ele><time>2026-04-19T07:44:15.229Z</time></trkpt><trkpt lat="38.8249618" lon="16.3246184"><ele>446.0</ele><time>2026-04-19T07:44:16.232Z</time></trkpt><trkpt lat="38.8248685" lon="16.3246476"><ele>446.0</ele><time>2026-04-19T07:44:17.236Z</time></trkpt><trkpt lat="38.8247707" lon="16.3246886"><ele>446.0</ele><time>2026-04-19T07:44:18.234Z</time></trkpt><trkpt lat="38.8246729" lon="16.3247221"><ele>446.0</ele><time>2026-04-19T07:44:19.244Z</time></trkpt><trkpt lat="38.8245763" lon="16.3247513"><ele>445.99999999999994</ele><time>2026-04-19T07:44:20.248Z</time></trkpt><trkpt lat="38.8244856" lon="16.3247637"><ele>446.0</ele><time>2026-04-19T07:44:21.24Z</time></trkpt><trkpt lat="38.8244037" lon="16.3247584"><ele>446.0</ele><time>2026-04-19T07:44:22.22Z</time></trkpt><trkpt lat="38.824323" lon="16.3247405"><ele>446.0</ele><time>2026-04-19T07:44:23.243Z</time></trkpt><trkpt lat="38.824246" lon="16.3247192"><ele>445.99999999999994</ele><time>2026-04-19T07:44:24.247Z</time></trkpt><trkpt lat="38.824169" lon="16.3247105"><ele>446.0</ele><time>2026-04-19T07:44:25.244Z</time></trkpt><trkpt lat="38.8240883" lon="16.324727"><ele>444.8</ele><time>2026-04-19T07:44:26.23Z</time></trkpt><trkpt lat="38.8240014" lon="16.3247637"><ele>443.6</ele><time>2026-04-19T07:44:27.241Z</time></trkpt><trkpt lat="38.8239091" lon="16.3248129"><ele>442.4</ele><time>2026-04-19T07:44:28.234Z</time></trkpt><trkpt lat="38.8238056" lon="16.3248673"><ele>441.2</ele><time>2026-04-19T07:44:29.23Z</time></trkpt><trkpt lat="38.8236924" lon="16.3249255"><ele>440.0</ele><time>2026-04-19T07:44:30.233Z</time></trkpt><trkpt lat="38.8235703" lon="16.3249869"><ele>436.0</ele><time>2026-04-19T07:44:31.237Z</time></trkpt><trkpt lat="38.8234408" lon="16.3250474"><ele>432.0</ele><time>2026-04-19T07:44:32.227Z</time></trkpt><trkpt lat="38.8233123" lon="16.3251064"><ele>428.0</ele><time>2026-04-19T07:44:33.256Z</time></trkpt><trkpt lat="38.8231852" lon="16.3251619"><ele>424.0</ele><time>2026-04-19T07:44:34.23Z</time></trkpt><trkpt lat="38.8230568" lon="16.3252087"><ele>424.0</ele><time>2026-04-19T07:44:35.236Z</time></trkpt><trkpt lat="38.8229385" lon="16.3252491"><ele>424.0</ele><time>2026-04-19T07:44:36.247Z</time></trkpt><trkpt lat="38.8228408" lon="16.3252816"><ele>424.0</ele><time>2026-04-19T07:44:37.239Z</time></trkpt><trkpt lat="38.8227607" lon="16.3253172"><ele>424.0</ele><time>2026-04-19T07:44:38.225Z</time></trkpt><trkpt lat="38.8226938" lon="16.3253651"><ele>424.0</ele><time>2026-04-19T07:44:39.234Z</time></trkpt><trkpt lat="38.8226311" lon="16.3254268"><ele>423.50000000000006</ele><time>2026-04-19T07:44:40.237Z</time></trkpt><trkpt lat="38.8225735" lon="16.3254937"><ele>423.0</ele><time>2026-04-19T07:44:41.242Z</time></trkpt><trkpt lat="38.8225159" lon="16.3255576"><ele>422.5</ele><time>2026-04-19T07:44:42.23Z</time></trkpt><trkpt lat="38.8224529" lon="16.3256271"><ele>422.0</ele><time>2026-04-19T07:44:43.239Z</time></trkpt><trkpt lat="38.8223811" lon="16.3257002"><ele>421.50000000000006</ele><time>2026-04-19T07:44:44.239Z</time></trkpt><trkpt lat="38.8223084" lon="16.3257811"><ele>421.0</ele><time>2026-04-19T07:44:45.225Z</time></trkpt><trkpt lat="38.8222332" lon="16.3258771"><ele>421.0</ele><time>2026-04-19T07:44:46.239Z</time></trkpt><trkpt lat="38.8221689" lon="16.3259867"><ele>421.0</ele><time>2026-04-19T07:44:47.239Z</time></trkpt><trkpt lat="38.8221324" lon="16.326103"><ele>421.0</ele><time>2026-04-19T07:44:48.228Z</time></trkpt><trkpt lat="38.8221208" lon="16.326217"><ele>421.0</ele><time>2026-04-19T07:44:49.251Z</time></trkpt><trkpt lat="38.8221185" lon="16.3263363"><ele>421.0</ele><time>2026-04-19T07:44:50.23Z</time></trkpt><trkpt lat="38.8221035" lon="16.3264565"><ele>421.50000000000006</ele><time>2026-04-19T07:44:51.238Z</time></trkpt><trkpt lat="38.8220728" lon="16.3265608"><ele>422.0</ele><time>2026-04-19T07:44:52.236Z</time></trkpt><trkpt lat="38.8220474" lon="16.3266564"><ele>422.5</ele><time>2026-04-19T07:44:53.235Z</time></trkpt><trkpt lat="38.8220498" lon="16.3267531"><ele>423.0</ele><time>2026-04-19T07:44:54.227Z</time></trkpt><trkpt lat="38.8220892" lon="16.3268449"><ele>423.50000000000006</ele><time>2026-04-19T07:44:55.235Z</time></trkpt><trkpt lat="38.8221349" lon="16.3269244"><ele>424.0</ele><time>2026-04-19T07:44:56.241Z</time></trkpt><trkpt lat="38.8222114" lon="16.3269963"><ele>424.00000000000006</ele><time>2026-04-19T07:44:57.241Z</time></trkpt><trkpt lat="38.822283" lon="16.3270615"><ele>424.0</ele><time>2026-04-19T07:44:58.231Z</time></trkpt><trkpt lat="38.8223364" lon="16.3271206"><ele>424.0</ele><time>2026-04-19T07:44:59.229Z</time></trkpt><trkpt lat="38.8223895" lon="16.3272308"><ele>424.0</ele><time>2026-04-19T07:45:01.237Z</time></trkpt><trkpt lat="38.822351" lon="16.3273088"><ele>424.00000000000006</ele><time>2026-04-19T07:45:02.239Z</time></trkpt><trkpt lat="38.8222686" lon="16.3273813"><ele>424.0</ele><time>2026-04-19T07:45:03.248Z</time></trkpt><trkpt lat="38.8221678" lon="16.3274742"><ele>419.75</ele><time>2026-04-19T07:45:04.249Z</time></trkpt><trkpt lat="38.8220761" lon="16.3275997"><ele>415.5</ele><time>2026-04-19T07:45:05.232Z</time></trkpt><trkpt lat="38.8219969" lon="16.3277422"><ele>411.25</ele><time>2026-04-19T07:45:06.239Z</time></trkpt><trkpt lat="38.821937" lon="16.3278912"><ele>407.0</ele><time>2026-04-19T07:45:07.244Z</time></trkpt><trkpt lat="38.8218865" lon="16.3280289"><ele>406.8</ele><time>2026-04-19T07:45:08.237Z</time></trkpt><trkpt lat="38.8218296" lon="16.3281492"><ele>406.6</ele><time>2026-04-19T07:45:09.248Z</time></trkpt><trkpt lat="38.8217757" lon="16.3282626"><ele>406.40000000000003</ele><time>2026-04-19T07:45:10.235Z</time></trkpt><trkpt lat="38.8217301" lon="16.3283821"><ele>406.20000000000005</ele><time>2026-04-19T07:45:11.235Z</time></trkpt><trkpt lat="38.8216968" lon="16.3285121"><ele>406.0</ele><time>2026-04-19T07:45:12.233Z</time></trkpt><trkpt lat="38.8216726" lon="16.3286486"><ele>403.75</ele><time>2026-04-19T07:45:13.241Z</time></trkpt><trkpt lat="38.8216479" lon="16.3287939"><ele>401.5</ele><time>2026-04-19T07:45:14.235Z</time></trkpt><trkpt lat="38.8216183" lon="16.3289453"><ele>399.25</ele><time>2026-04-19T07:45:15.235Z</time></trkpt><trkpt lat="38.8215837" lon="16.3290905"><ele>397.0</ele><time>2026-04-19T07:45:16.25Z</time></trkpt><trkpt lat="38.8215432" lon="16.3292251"><ele>397.0</ele><time>2026-04-19T07:45:17.261Z</time></trkpt><trkpt lat="38.8214893" lon="16.3293436"><ele>397.0</ele><time>2026-04-19T07:45:18.24Z</time></trkpt><trkpt lat="38.8214256" lon="16.3294468"><ele>397.0</ele><time>2026-04-19T07:45:19.243Z</time></trkpt><trkpt lat="38.8213673" lon="16.3295398"><ele>397.0</ele><time>2026-04-19T07:45:20.238Z</time></trkpt><trkpt lat="38.8213207" lon="16.3296378"><ele>397.0</ele><time>2026-04-19T07:45:21.249Z</time></trkpt><trkpt lat="38.8212881" lon="16.3297489"><ele>399.40000000000003</ele><time>2026-04-19T07:45:22.231Z</time></trkpt><trkpt lat="38.8212618" lon="16.3298768"><ele>401.8</ele><time>2026-04-19T07:45:23.241Z</time></trkpt><trkpt lat="38.8212344" lon="16.330006"><ele>404.2</ele><time>2026-04-19T07:45:24.242Z</time></trkpt><trkpt lat="38.8212077" lon="16.3301266"><ele>406.6</ele><time>2026-04-19T07:45:25.228Z</time></trkpt><trkpt lat="38.8211889" lon="16.3302232"><ele>409.0</ele><time>2026-04-19T07:45:26.235Z</time></trkpt><trkpt lat="38.8211757" lon="16.3303763"><ele>409.00000000000006</ele><time>2026-04-19T07:45:28.238Z</time></trkpt><trkpt lat="38.8211811" lon="16.3304605"><ele>409.0</ele><time>2026-04-19T07:45:29.236Z</time></trkpt><trkpt lat="38.8211929" lon="16.3305554"><ele>409.0</ele><time>2026-04-19T07:45:30.239Z</time></trkpt><trkpt lat="38.8212027" lon="16.3306636"><ele>409.0</ele><time>2026-04-19T07:45:31.233Z</time></trkpt><trkpt lat="38.8212139" lon="16.3307776"><ele>409.00000000000006</ele><time>2026-04-19T07:45:32.224Z</time></trkpt><trkpt lat="38.8212352" lon="16.3308951"><ele>409.0</ele><time>2026-04-19T07:45:33.263Z</time></trkpt><trkpt lat="38.8212635" lon="16.3310065"><ele>408.79999999999995</ele><time>2026-04-19T07:45:34.237Z</time></trkpt><trkpt lat="38.821286" lon="16.3311162"><ele>408.59999999999997</ele><time>2026-04-19T07:45:35.24Z</time></trkpt><trkpt lat="38.8212783" lon="16.3312274"><ele>408.4</ele><time>2026-04-19T07:45:36.243Z</time></trkpt><trkpt lat="38.821249" lon="16.3313445"><ele>408.2</ele><time>2026-04-19T07:45:37.246Z</time></trkpt><trkpt lat="38.821209" lon="16.331469"><ele>408.0</ele><time>2026-04-19T07:45:38.252Z</time></trkpt><trkpt lat="38.8211687" lon="16.3315938"><ele>407.0</ele><time>2026-04-19T07:45:39.246Z</time></trkpt><trkpt lat="38.8211262" lon="16.3317029"><ele>406.0</ele><time>2026-04-19T07:45:40.232Z</time></trkpt><trkpt lat="38.8210716" lon="16.3317832"><ele>405.0</ele><time>2026-04-19T07:45:41.227Z</time></trkpt><trkpt lat="38.8209961" lon="16.3318185"><ele>404.0</ele><time>2026-04-19T07:45:42.227Z</time></trkpt><trkpt lat="38.8209047" lon="16.331819"><ele>403.0</ele><time>2026-04-19T07:45:43.226Z</time></trkpt><trkpt lat="38.8208036" lon="16.3317885"><ele>399.5</ele><time>2026-04-19T07:45:44.247Z</time></trkpt><trkpt lat="38.8206942" lon="16.3317452"><ele>396.0</ele><time>2026-04-19T07:45:45.242Z</time></trkpt><trkpt lat="38.8205585" lon="16.3316772"><ele>392.5</ele><time>2026-04-19T07:45:46.223Z</time></trkpt><trkpt lat="38.8204193" lon="16.3315965"><ele>389.0</ele><time>2026-04-19T07:45:47.228Z</time></trkpt><trkpt lat="38.8203073" lon="16.3315087"><ele>389.0</ele><time>2026-04-19T07:45:48.234Z</time></trkpt><trkpt lat="38.8202195" lon="16.331419"><ele>389.0</ele><time>2026-04-19T07:45:49.223Z</time></trkpt><trkpt lat="38.8201391" lon="16.3313067"><ele>389.0</ele><time>2026-04-19T07:45:50.239Z</time></trkpt><trkpt lat="38.820059" lon="16.3311658"><ele>389.0</ele><time>2026-04-19T07:45:51.232Z</time></trkpt><trkpt lat="38.8199697" lon="16.3309931"><ele>386.3333333333333</ele><time>2026-04-19T07:45:52.233Z</time></trkpt><trkpt lat="38.8198803" lon="16.3307974"><ele>383.66666666666663</ele><time>2026-04-19T07:45:53.232Z</time></trkpt><trkpt lat="38.819793" lon="16.3306137"><ele>381.0</ele><time>2026-04-19T07:45:54.229Z</time></trkpt><trkpt lat="38.8197057" lon="16.3304434"><ele>381.0</ele><time>2026-04-19T07:45:55.238Z</time></trkpt><trkpt lat="38.8196175" lon="16.330298"><ele>381.0</ele><time>2026-04-19T07:45:56.223Z</time></trkpt><trkpt lat="38.8195516" lon="16.3301617"><ele>381.0</ele><time>2026-04-19T07:45:57.237Z</time></trkpt><trkpt lat="38.8195172" lon="16.3300203"><ele>381.0</ele><time>2026-04-19T07:45:58.236Z</time></trkpt><trkpt lat="38.8194949" lon="16.3298939"><ele>381.0</ele><time>2026-04-19T07:45:59.244Z</time></trkpt><trkpt lat="38.8194624" lon="16.3297816"><ele>381.0</ele><time>2026-04-19T07:46:00.237Z</time></trkpt><trkpt lat="38.8194132" lon="16.3296991"><ele>381.0</ele><time>2026-04-19T07:46:01.235Z</time></trkpt><trkpt lat="38.8193521" lon="16.3296396"><ele>381.0</ele><time>2026-04-19T07:46:02.234Z</time></trkpt><trkpt lat="38.8192709" lon="16.3296009"><ele>381.0</ele><time>2026-04-19T07:46:03.222Z</time></trkpt><trkpt lat="38.8191904" lon="16.3295725"><ele>381.0</ele><time>2026-04-19T07:46:04.235Z</time></trkpt><trkpt lat="38.8190863" lon="16.3295759"><ele>385.0</ele><time>2026-04-19T07:46:05.243Z</time></trkpt><trkpt lat="38.8189897" lon="16.3295818"><ele>389.0</ele><time>2026-04-19T07:46:06.247Z</time></trkpt><trkpt lat="38.8189007" lon="16.3295637"><ele>393.0</ele><time>2026-04-19T07:46:07.247Z</time></trkpt><trkpt lat="38.8188167" lon="16.3295173"><ele>397.0</ele><time>2026-04-19T07:46:08.23Z</time></trkpt><trkpt lat="38.818722" lon="16.3294574"><ele>401.0</ele><time>2026-04-19T07:46:09.235Z</time></trkpt><trkpt lat="38.8186157" lon="16.3293982"><ele>401.0</ele><time>2026-04-19T07:46:10.24Z</time></trkpt><trkpt lat="38.818505" lon="16.3293397"><ele>401.0</ele><time>2026-04-19T07:46:11.239Z</time></trkpt><trkpt lat="38.8183955" lon="16.3292936"><ele>401.0</ele><time>2026-04-19T07:46:12.235Z</time></trkpt><trkpt lat="38.8182979" lon="16.3292625"><ele>401.0</ele><time>2026-04-19T07:46:13.236Z</time></trkpt><trkpt lat="38.8182041" lon="16.3292392"><ele>401.0</ele><time>2026-04-19T07:46:14.228Z</time></trkpt><trkpt lat="38.81811" lon="16.3292324"><ele>403.8</ele><time>2026-04-19T07:46:15.231Z</time></trkpt><trkpt lat="38.8180108" lon="16.329243"><ele>406.6</ele><time>2026-04-19T07:46:16.237Z</time></trkpt><trkpt lat="38.8179039" lon="16.3292593"><ele>409.4</ele><time>2026-04-19T07:46:17.243Z</time></trkpt><trkpt lat="38.8177891" lon="16.3292676"><ele>412.2</ele><time>2026-04-19T07:46:18.235Z</time></trkpt><trkpt lat="38.8176807" lon="16.3292693"><ele>415.0</ele><time>2026-04-19T07:46:19.227Z</time></trkpt><trkpt lat="38.8175663" lon="16.3292629"><ele>416.4</ele><time>2026-04-19T07:46:20.24Z</time></trkpt><trkpt lat="38.817455" lon="16.3292458"><ele>417.8</ele><time>2026-04-19T07:46:21.228Z</time></trkpt><trkpt lat="38.8173491" lon="16.3292274"><ele>419.20000000000005</ele><time>2026-04-19T07:46:22.22Z</time></trkpt><trkpt lat="38.8172379" lon="16.3292027"><ele>420.6</ele><time>2026-04-19T07:46:23.236Z</time></trkpt><trkpt lat="38.8171305" lon="16.3291754"><ele>422.0</ele><time>2026-04-19T07:46:24.23Z</time></trkpt><trkpt lat="38.8170299" lon="16.3291468"><ele>421.99999999999994</ele><time>2026-04-19T07:46:25.23Z</time></trkpt><trkpt lat="38.8169343" lon="16.3291226"><ele>422.0</ele><time>2026-04-19T07:46:26.226Z</time></trkpt><trkpt lat="38.8168483" lon="16.3291046"><ele>422.0</ele><time>2026-04-19T07:46:27.235Z</time></trkpt><trkpt lat="38.8167811" lon="16.3290897"><ele>422.0</ele><time>2026-04-19T07:46:28.242Z</time></trkpt><trkpt lat="38.8167176" lon="16.3290235"><ele>421.99999999999994</ele><time>2026-04-19T07:46:30.227Z</time></trkpt><trkpt lat="38.816784" lon="16.3289165"><ele>422.0</ele><time>2026-04-19T07:46:32.25Z</time></trkpt><trkpt lat="38.8168407" lon="16.3288626"><ele>420.8333333333333</ele><time>2026-04-19T07:46:33.236Z</time></trkpt><trkpt lat="38.8168871" lon="16.3287839"><ele>419.66666666666663</ele><time>2026-04-19T07:46:34.227Z</time></trkpt><trkpt lat="38.8169375" lon="16.3287102"><ele>418.5</ele><time>2026-04-19T07:46:35.239Z</time></trkpt><trkpt lat="38.8170023" lon="16.3285978"><ele>417.33333333333337</ele><time>2026-04-19T07:46:37.233Z</time></trkpt><trkpt lat="38.8170151" lon="16.3285019"><ele>416.1666666666667</ele><time>2026-04-19T07:46:39.247Z</time></trkpt><trkpt lat="38.8170135" lon="16.3284021"><ele>415.0</ele><time>2026-04-19T07:46:41.243Z</time></trkpt><trkpt lat="38.817023" lon="16.3282678"><ele>415.0</ele><time>2026-04-19T07:46:43.234Z</time></trkpt><trkpt lat="38.8170223" lon="16.3281334"><ele>415.0</ele><time>2026-04-19T07:46:45.239Z</time></trkpt><trkpt lat="38.8169996" lon="16.3280193"><ele>415.0</ele><time>2026-04-19T07:46:47.23Z</time></trkpt><trkpt lat="38.8169864" lon="16.3278996"><ele>415.0</ele><time>2026-04-19T07:46:49.286Z</time></trkpt><trkpt lat="38.8169907" lon="16.3277854"><ele>415.0</ele><time>2026-04-19T07:46:51.316Z</time></trkpt><trkpt lat="38.8170026" lon="16.3276682"><ele>411.4</ele><time>2026-04-19T07:46:53.255Z</time></trkpt><trkpt lat="38.8170042" lon="16.3275543"><ele>407.8</ele><time>2026-04-19T07:46:55.258Z</time></trkpt><trkpt lat="38.8169898" lon="16.3274641"><ele>404.20000000000005</ele><time>2026-04-19T07:46:57.246Z</time></trkpt><trkpt lat="38.8169786" lon="16.3273479"><ele>400.6</ele><time>2026-04-19T07:47:00.257Z</time></trkpt><trkpt lat="38.8169827" lon="16.3272288"><ele>397.0</ele><time>2026-04-19T07:47:02.249Z</time></trkpt><trkpt lat="38.8170028" lon="16.3270626"><ele>393.8</ele><time>2026-04-19T07:47:08.237Z</time></trkpt><trkpt lat="38.8170458" lon="16.3269776"><ele>390.6</ele><time>2026-04-19T07:47:10.245Z</time></trkpt><trkpt lat="38.8171251" lon="16.3269134"><ele>387.40000000000003</ele><time>2026-04-19T07:47:12.245Z</time></trkpt><trkpt lat="38.8172003" lon="16.3268545"><ele>384.20000000000005</ele><time>2026-04-19T07:47:15.232Z</time></trkpt><trkpt lat="38.817297" lon="16.3268412"><ele>381.0</ele><time>2026-04-19T07:47:17.245Z</time></trkpt><trkpt lat="38.8173892" lon="16.3268763"><ele>381.0</ele><time>2026-04-19T07:47:19.231Z</time></trkpt><trkpt lat="38.8174603" lon="16.3269084"><ele>381.0</ele><time>2026-04-19T07:47:21.243Z</time></trkpt><trkpt lat="38.8175353" lon="16.326919"><ele>381.0</ele><time>2026-04-19T07:47:23.246Z</time></trkpt><trkpt lat="38.8176088" lon="16.326897"><ele>381.0</ele><time>2026-04-19T07:47:25.226Z</time></trkpt><trkpt lat="38.8176732" lon="16.3268316"><ele>381.0</ele><time>2026-04-19T07:47:28.239Z</time></trkpt><trkpt lat="38.8176522" lon="16.3267217"><ele>381.0</ele><time>2026-04-19T07:47:30.236Z</time></trkpt><trkpt lat="38.8176299" lon="16.3266232"><ele>381.0</ele><time>2026-04-19T07:47:32.232Z</time></trkpt><trkpt lat="38.8176249" lon="16.3265204"><ele>381.0</ele><time>2026-04-19T07:47:34.245Z</time></trkpt><trkpt lat="38.8176205" lon="16.326429"><ele>381.0</ele><time>2026-04-19T07:47:36.242Z</time></trkpt><trkpt lat="38.8176284" lon="16.3263212"><ele>381.0</ele><time>2026-04-19T07:47:39.243Z</time></trkpt><trkpt lat="38.8176011" lon="16.3261521"><ele>381.0</ele><time>2026-04-19T07:47:45.248Z</time></trkpt><trkpt lat="38.8175695" lon="16.3260432"><ele>376.0</ele><time>2026-04-19T07:47:47.237Z</time></trkpt><trkpt lat="38.8175677" lon="16.3259538"><ele>371.0</ele><time>2026-04-19T07:47:49.236Z</time></trkpt><trkpt lat="38.8177015" lon="16.3259484"><ele>366.0</ele><time>2026-04-19T07:47:54.241Z</time></trkpt><trkpt lat="38.8177734" lon="16.3259495"><ele>361.0</ele><time>2026-04-19T07:47:56.247Z</time></trkpt><trkpt lat="38.817861" lon="16.3259134"><ele>356.0</ele><time>2026-04-19T07:47:58.256Z</time></trkpt><trkpt lat="38.8179399" lon="16.3258707"><ele>356.0</ele><time>2026-04-19T07:48:00.249Z</time></trkpt><trkpt lat="38.8180012" lon="16.3258261"><ele>356.0</ele><time>2026-04-19T07:48:03.242Z</time></trkpt><trkpt lat="38.8180689" lon="16.3258004"><ele>356.0</ele><time>2026-04-19T07:48:06.237Z</time></trkpt><trkpt lat="38.8181651" lon="16.3257973"><ele>356.0</ele><time>2026-04-19T07:48:10.227Z</time></trkpt><trkpt lat="38.8182265" lon="16.3257617"><ele>356.0</ele><time>2026-04-19T07:48:12.237Z</time></trkpt><trkpt lat="38.818266" lon="16.3256901"><ele>356.0</ele><time>2026-04-19T07:48:14.231Z</time></trkpt><trkpt lat="38.8182775" lon="16.3255874"><ele>352.0</ele><time>2026-04-19T07:48:16.232Z</time></trkpt><trkpt lat="38.8182826" lon="16.325473"><ele>348.0</ele><time>2026-04-19T07:48:19.239Z</time></trkpt><trkpt lat="38.8182841" lon="16.3253922"><ele>344.0</ele><time>2026-04-19T07:48:22.237Z</time></trkpt><trkpt lat="38.8182737" lon="16.3253086"><ele>340.0</ele><time>2026-04-19T07:48:26.237Z</time></trkpt><trkpt lat="38.8182748" lon="16.3251976"><ele>336.0</ele><time>2026-04-19T07:48:29.23Z</time></trkpt><trkpt lat="38.8182904" lon="16.3250859"><ele>332.0</ele><time>2026-04-19T07:48:31.239Z</time></trkpt><trkpt lat="38.8182791" lon="16.3249882"><ele>332.0</ele><time>2026-04-19T07:48:33.24Z</time></trkpt><trkpt lat="38.8182512" lon="16.3248857"><ele>332.0</ele><time>2026-04-19T07:48:36.226Z</time></trkpt><trkpt lat="38.8182207" lon="16.3248019"><ele>332.0</ele><time>2026-04-19T07:48:39.235Z</time></trkpt><trkpt lat="38.8181987" lon="16.3246849"><ele>332.0</ele><time>2026-04-19T07:48:42.233Z</time></trkpt><trkpt lat="38.8182011" lon="16.3245832"><ele>332.0</ele><time>2026-04-19T07:48:45.236Z</time></trkpt><trkpt lat="38.8181955" lon="16.3244878"><ele>332.0</ele><time>2026-04-19T07:48:48.243Z</time></trkpt><trkpt lat="38.818184" lon="16.3243994"><ele>328.5</ele><time>2026-04-19T07:48:52.242Z</time></trkpt><trkpt lat="38.818151" lon="16.3243146"><ele>325.0</ele><time>2026-04-19T07:48:55.246Z</time></trkpt><trkpt lat="38.8180952" lon="16.3242276"><ele>321.5</ele><time>2026-04-19T07:48:59.243Z</time></trkpt><trkpt lat="38.8180268" lon="16.3241628"><ele>318.0</ele><time>2026-04-19T07:49:02.242Z</time></trkpt><trkpt lat="38.8179726" lon="16.3241035"><ele>314.5</ele><time>2026-04-19T07:49:05.238Z</time></trkpt><trkpt lat="38.8179356" lon="16.3240223"><ele>311.0</ele><time>2026-04-19T07:49:10.235Z</time></trkpt><trkpt lat="38.8178632" lon="16.3239607"><ele>311.0</ele><time>2026-04-19T07:49:14.246Z</time></trkpt><trkpt lat="38.8177976" lon="16.3239979"><ele>311.0</ele><time>2026-04-19T07:49:18.236Z</time></trkpt><trkpt lat="38.8177531" lon="16.3240914"><ele>311.0</ele><time>2026-04-19T07:49:22.244Z</time></trkpt><trkpt lat="38.8177111" lon="16.3241759"><ele>311.0</ele><time>2026-04-19T07:49:25.242Z</time></trkpt><trkpt lat="38.8176739" lon="16.3242463"><ele>311.0</ele><time>2026-04-19T07:49:28.231Z</time></trkpt><trkpt lat="38.8176195" lon="16.3243209"><ele>311.0</ele><time>2026-04-19T07:49:32.235Z</time></trkpt><trkpt lat="38.8175647" lon="16.3243648"><ele>311.0</ele><time>2026-04-19T07:49:35.234Z</time></trkpt><trkpt lat="38.8175045" lon="16.3244144"><ele>308.1666666666667</ele><time>2026-04-19T07:49:40.238Z</time></trkpt><trkpt lat="38.8174572" lon="16.3244686"><ele>305.33333333333337</ele><time>2026-04-19T07:49:44.239Z</time></trkpt><trkpt lat="38.8173725" lon="16.324531"><ele>302.5</ele><time>2026-04-19T07:49:47.224Z</time></trkpt><trkpt lat="38.8173043" lon="16.3245171"><ele>299.6666666666667</ele><time>2026-04-19T07:49:50.231Z</time></trkpt><trkpt lat="38.817232" lon="16.3244724"><ele>296.8333333333333</ele><time>2026-04-19T07:49:53.237Z</time></trkpt><trkpt lat="38.8171457" lon="16.3245224"><ele>294.0</ele><time>2026-04-19T07:49:55.235Z</time></trkpt><trkpt lat="38.8170959" lon="16.3245721"><ele>294.0</ele><time>2026-04-19T07:49:56.235Z</time></trkpt><trkpt lat="38.8170226" lon="16.3246656"><ele>294.0</ele><time>2026-04-19T07:49:58.238Z</time></trkpt><trkpt lat="38.816943" lon="16.3247196"><ele>294.0</ele><time>2026-04-19T07:50:00.234Z</time></trkpt><trkpt lat="38.8168876" lon="16.3247599"><ele>294.0</ele><time>2026-04-19T07:50:03.239Z</time></trkpt><trkpt lat="38.8168088" lon="16.3248092"><ele>294.0</ele><time>2026-04-19T07:51:22.23Z</time></trkpt><trkpt lat="38.8167368" lon="16.3248258"><ele>294.0</ele><time>2026-04-19T07:51:34.236Z</time></trkpt><trkpt lat="38.8167654" lon="16.3247233"><ele>294.0</ele><time>2026-04-19T07:51:42.231Z</time></trkpt><trkpt lat="38.8168224" lon="16.3246076"><ele>294.0</ele><time>2026-04-19T07:51:44.232Z</time></trkpt><trkpt lat="38.8168778" lon="16.3245272"><ele>294.0</ele><time>2026-04-19T07:51:46.223Z</time></trkpt><trkpt lat="38.8169229" lon="16.3244384"><ele>294.0</ele><time>2026-04-19T07:51:49.232Z</time></trkpt><trkpt lat="38.8169765" lon="16.3243734"><ele>294.0</ele><time>2026-04-19T07:51:51.236Z</time></trkpt><trkpt lat="38.8170046" lon="16.3242732"><ele>294.0</ele><time>2026-04-19T07:51:54.228Z</time></trkpt><trkpt lat="38.8170107" lon="16.3241752"><ele>294.0</ele><time>2026-04-19T07:51:57.231Z</time></trkpt><trkpt lat="38.8170247" lon="16.3240631"><ele>294.0</ele><time>2026-04-19T07:52:05.248Z</time></trkpt><trkpt lat="38.8170459" lon="16.32398"><ele>294.0</ele><time>2026-04-19T07:52:08.235Z</time></trkpt><trkpt lat="38.8170668" lon="16.3239023"><ele>294.0</ele><time>2026-04-19T07:52:13.247Z</time></trkpt><trkpt lat="38.8170883" lon="16.3238039"><ele>294.0</ele><time>2026-04-19T07:52:18.242Z</time></trkpt><trkpt lat="38.8171159" lon="16.3237202"><ele>294.0</ele><time>2026-04-19T07:52:22.233Z</time></trkpt><trkpt lat="38.8171193" lon="16.3236313"><ele>294.0</ele><time>2026-04-19T07:52:26.231Z</time></trkpt><trkpt lat="38.8171164" lon="16.3235329"><ele>292.8333333333333</ele><time>2026-04-19T07:52:29.233Z</time></trkpt><trkpt lat="38.8170824" lon="16.3234286"><ele>291.6666666666667</ele><time>2026-04-19T07:52:32.233Z</time></trkpt><trkpt lat="38.8170343" lon="16.3233642"><ele>290.5</ele><time>2026-04-19T07:52:34.23Z</time></trkpt><trkpt lat="38.8169926" lon="16.3232993"><ele>289.33333333333337</ele><time>2026-04-19T07:52:38.237Z</time></trkpt><trkpt lat="38.816966" lon="16.3231599"><ele>288.1666666666667</ele><time>2026-04-19T07:52:41.231Z</time></trkpt><trkpt lat="38.816967" lon="16.3230662"><ele>287.0</ele><time>2026-04-19T07:52:47.239Z</time></trkpt><trkpt lat="38.8169651" lon="16.3229824"><ele>286.2</ele><time>2026-04-19T07:52:55.239Z</time></trkpt><trkpt lat="38.8169773" lon="16.3228764"><ele>285.4</ele><time>2026-04-19T07:53:03.235Z</time></trkpt><trkpt lat="38.8169924" lon="16.3227559"><ele>284.6</ele><time>2026-04-19T07:53:05.226Z</time></trkpt><trkpt lat="38.8170445" lon="16.3226325"><ele>283.8</ele><time>2026-04-19T07:53:07.226Z</time></trkpt><trkpt lat="38.8171082" lon="16.3225244"><ele>283.0</ele><time>2026-04-19T07:53:09.234Z</time></trkpt><trkpt lat="38.8171367" lon="16.3223867"><ele>283.0</ele><time>2026-04-19T07:53:11.223Z</time></trkpt><trkpt lat="38.8171582" lon="16.3223016"><ele>283.0</ele><time>2026-04-19T07:53:12.226Z</time></trkpt><trkpt lat="38.8171785" lon="16.3222239"><ele>283.0</ele><time>2026-04-19T07:53:13.226Z</time></trkpt><trkpt lat="38.817227" lon="16.3221248"><ele>283.0</ele><time>2026-04-19T07:53:15.23Z</time></trkpt><trkpt lat="38.8172971" lon="16.3220525"><ele>283.0</ele><time>2026-04-19T07:53:17.239Z</time></trkpt><trkpt lat="38.8173691" lon="16.3219887"><ele>283.0</ele><time>2026-04-19T07:53:19.235Z</time></trkpt><trkpt lat="38.817423" lon="16.3219382"><ele>282.16666666666663</ele><time>2026-04-19T07:53:21.228Z</time></trkpt><trkpt lat="38.8174843" lon="16.3219122"><ele>281.3333333333333</ele><time>2026-04-19T07:53:36.248Z</time></trkpt><trkpt lat="38.8175694" lon="16.3219416"><ele>280.5</ele><time>2026-04-19T07:53:38.231Z</time></trkpt><trkpt lat="38.8176411" lon="16.3219402"><ele>279.6666666666667</ele><time>2026-04-19T07:53:45.234Z</time></trkpt><trkpt lat="38.8177293" lon="16.3219062"><ele>278.83333333333337</ele><time>2026-04-19T07:53:48.24Z</time></trkpt><trkpt lat="38.8178123" lon="16.3218678"><ele>278.0</ele><time>2026-04-19T07:53:50.227Z</time></trkpt><trkpt lat="38.8179047" lon="16.3217974"><ele>278.0</ele><time>2026-04-19T07:53:52.238Z</time></trkpt><trkpt lat="38.8179936" lon="16.321715"><ele>278.0</ele><time>2026-04-19T07:53:54.235Z</time></trkpt><trkpt lat="38.818059" lon="16.3216283"><ele>278.0</ele><time>2026-04-19T07:53:56.242Z</time></trkpt><trkpt lat="38.8181232" lon="16.3214995"><ele>278.0</ele><time>2026-04-19T07:53:58.236Z</time></trkpt><trkpt lat="38.8181642" lon="16.3214368"><ele>278.0</ele><time>2026-04-19T07:53:59.242Z</time></trkpt><trkpt lat="38.818254" lon="16.321336"><ele>276.6666666666667</ele><time>2026-04-19T07:54:01.235Z</time></trkpt><trkpt lat="38.8183163" lon="16.3212038"><ele>275.33333333333337</ele><time>2026-04-19T07:54:03.245Z</time></trkpt><trkpt lat="38.8183531" lon="16.3211299"><ele>274.0</ele><time>2026-04-19T07:54:04.238Z</time></trkpt><trkpt lat="38.8183871" lon="16.3210605"><ele>272.6666666666667</ele><time>2026-04-19T07:54:05.235Z</time></trkpt><trkpt lat="38.8184356" lon="16.3209583"><ele>271.3333333333333</ele><time>2026-04-19T07:54:07.233Z</time></trkpt><trkpt lat="38.8184741" lon="16.3208873"><ele>270.0</ele><time>2026-04-19T07:54:09.238Z</time></trkpt><trkpt lat="38.8185341" lon="16.3207928"><ele>270.0</ele><time>2026-04-19T07:54:11.235Z</time></trkpt><trkpt lat="38.818592" lon="16.3207075"><ele>270.0</ele><time>2026-04-19T07:54:13.238Z</time></trkpt><trkpt lat="38.8186738" lon="16.3206016"><ele>270.0</ele><time>2026-04-19T07:54:15.24Z</time></trkpt><trkpt lat="38.8187238" lon="16.3205515"><ele>270.0</ele><time>2026-04-19T07:54:16.224Z</time></trkpt><trkpt lat="38.8187982" lon="16.3204734"><ele>270.0</ele><time>2026-04-19T07:54:18.226Z</time></trkpt><trkpt lat="38.8188535" lon="16.320412"><ele>270.0</ele><time>2026-04-19T07:54:20.236Z</time></trkpt><trkpt lat="38.8189135" lon="16.3203603"><ele>271.1666666666667</ele><time>2026-04-19T07:54:27.243Z</time></trkpt><trkpt lat="38.8190013" lon="16.3202873"><ele>272.3333333333333</ele><time>2026-04-19T07:54:29.236Z</time></trkpt><trkpt lat="38.8190559" lon="16.3202389"><ele>273.5</ele><time>2026-04-19T07:54:30.242Z</time></trkpt><trkpt lat="38.8191141" lon="16.3201859"><ele>274.66666666666663</ele><time>2026-04-19T07:54:31.235Z</time></trkpt><trkpt lat="38.81918" lon="16.320135"><ele>275.8333333333333</ele><time>2026-04-19T07:54:32.239Z</time></trkpt><trkpt lat="38.8192481" lon="16.3200861"><ele>277.0</ele><time>2026-04-19T07:54:33.237Z</time></trkpt><trkpt lat="38.8193191" lon="16.3200416"><ele>273.8</ele><time>2026-04-19T07:54:34.233Z</time></trkpt><trkpt lat="38.8193979" lon="16.320009"><ele>270.6</ele><time>2026-04-19T07:54:35.231Z</time></trkpt><trkpt lat="38.8194747" lon="16.3199627"><ele>267.40000000000003</ele><time>2026-04-19T07:54:36.235Z</time></trkpt><trkpt lat="38.8195498" lon="16.3199335"><ele>264.2</ele><time>2026-04-19T07:54:37.24Z</time></trkpt><trkpt lat="38.8196624" lon="16.3198997"><ele>261.0</ele><time>2026-04-19T07:54:39.234Z</time></trkpt><trkpt lat="38.8197702" lon="16.3199129"><ele>261.0</ele><time>2026-04-19T07:54:41.227Z</time></trkpt><trkpt lat="38.8198831" lon="16.3199299"><ele>261.0</ele><time>2026-04-19T07:54:43.238Z</time></trkpt><trkpt lat="38.8199867" lon="16.3199694"><ele>261.0</ele><time>2026-04-19T07:54:45.227Z</time></trkpt><trkpt lat="38.820092" lon="16.3200002"><ele>261.0</ele><time>2026-04-19T07:54:47.237Z</time></trkpt><trkpt lat="38.8201511" lon="16.3199579"><ele>261.0</ele><time>2026-04-19T07:54:48.236Z</time></trkpt><trkpt lat="38.8202064" lon="16.3198944"><ele>260.1666666666667</ele><time>2026-04-19T07:54:49.228Z</time></trkpt><trkpt lat="38.8202538" lon="16.3198077"><ele>259.3333333333333</ele><time>2026-04-19T07:54:50.23Z</time></trkpt><trkpt lat="38.8202983" lon="16.3197223"><ele>258.5</ele><time>2026-04-19T07:54:51.237Z</time></trkpt><trkpt lat="38.8203215" lon="16.319625"><ele>257.66666666666663</ele><time>2026-04-19T07:54:52.235Z</time></trkpt><trkpt lat="38.8203484" lon="16.3195341"><ele>256.8333333333333</ele><time>2026-04-19T07:54:53.247Z</time></trkpt><trkpt lat="38.8203701" lon="16.3194304"><ele>256.0</ele><time>2026-04-19T07:54:54.232Z</time></trkpt><trkpt lat="38.8203975" lon="16.3193257"><ele>255.99999999999997</ele><time>2026-04-19T07:54:55.248Z</time></trkpt><trkpt lat="38.8204241" lon="16.3192243"><ele>256.0</ele><time>2026-04-19T07:54:56.236Z</time></trkpt><trkpt lat="38.8204458" lon="16.319125"><ele>256.0</ele><time>2026-04-19T07:54:57.23Z</time></trkpt><trkpt lat="38.8204638" lon="16.3190327"><ele>256.0</ele><time>2026-04-19T07:54:58.253Z</time></trkpt><trkpt lat="38.8204796" lon="16.3189464"><ele>255.99999999999997</ele><time>2026-04-19T07:54:59.236Z</time></trkpt><trkpt lat="38.8205046" lon="16.3188523"><ele>256.0</ele><time>2026-04-19T07:55:00.228Z</time></trkpt><trkpt lat="38.820532" lon="16.3187527"><ele>254.20000000000002</ele><time>2026-04-19T07:55:01.244Z</time></trkpt><trkpt lat="38.8205736" lon="16.3186516"><ele>252.40000000000003</ele><time>2026-04-19T07:55:02.24Z</time></trkpt><trkpt lat="38.820625" lon="16.3185459"><ele>250.6</ele><time>2026-04-19T07:55:03.235Z</time></trkpt><trkpt lat="38.8206803" lon="16.3184301"><ele>248.8</ele><time>2026-04-19T07:55:04.222Z</time></trkpt><trkpt lat="38.8206996" lon="16.3182921"><ele>247.0</ele><time>2026-04-19T07:55:05.234Z</time></trkpt><trkpt lat="38.8207099" lon="16.3181412"><ele>247.8</ele><time>2026-04-19T07:55:06.242Z</time></trkpt><trkpt lat="38.8207053" lon="16.3179805"><ele>248.6</ele><time>2026-04-19T07:55:07.242Z</time></trkpt><trkpt lat="38.82072" lon="16.3178283"><ele>249.40000000000003</ele><time>2026-04-19T07:55:08.241Z</time></trkpt><trkpt lat="38.8207411" lon="16.3176981"><ele>250.20000000000002</ele><time>2026-04-19T07:55:09.23Z</time></trkpt><trkpt lat="38.8207593" lon="16.317584"><ele>251.0</ele><time>2026-04-19T07:55:10.223Z</time></trkpt><trkpt lat="38.8208009" lon="16.3174763"><ele>251.0</ele><time>2026-04-19T07:55:11.234Z</time></trkpt><trkpt lat="38.8208505" lon="16.3173807"><ele>251.00000000000003</ele><time>2026-04-19T07:55:12.231Z</time></trkpt><trkpt lat="38.8209043" lon="16.3173017"><ele>251.00000000000003</ele><time>2026-04-19T07:55:13.229Z</time></trkpt><trkpt lat="38.8209513" lon="16.3172464"><ele>251.0</ele><time>2026-04-19T07:55:14.239Z</time></trkpt><trkpt lat="38.8210229" lon="16.3171402"><ele>251.0</ele><time>2026-04-19T07:55:16.24Z</time></trkpt><trkpt lat="38.8210597" lon="16.3170015"><ele>251.66666666666669</ele><time>2026-04-19T07:55:18.239Z</time></trkpt><trkpt lat="38.8210741" lon="16.3169044"><ele>252.33333333333334</ele><time>2026-04-19T07:55:19.229Z</time></trkpt><trkpt lat="38.82109" lon="16.3168056"><ele>253.0</ele><time>2026-04-19T07:55:20.23Z</time></trkpt><trkpt lat="38.821106" lon="16.3166875"><ele>253.66666666666669</ele><time>2026-04-19T07:55:21.233Z</time></trkpt><trkpt lat="38.8211102" lon="16.3165611"><ele>254.33333333333334</ele><time>2026-04-19T07:55:22.238Z</time></trkpt><trkpt lat="38.8211122" lon="16.3164349"><ele>255.0</ele><time>2026-04-19T07:55:23.244Z</time></trkpt><trkpt lat="38.8211143" lon="16.3163257"><ele>255.4</ele><time>2026-04-19T07:55:24.234Z</time></trkpt><trkpt lat="38.8211106" lon="16.3161823"><ele>255.8</ele><time>2026-04-19T07:55:26.24Z</time></trkpt><trkpt lat="38.8210835" lon="16.3160236"><ele>256.2</ele><time>2026-04-19T07:55:28.231Z</time></trkpt><trkpt lat="38.8210521" lon="16.3159257"><ele>256.6</ele><time>2026-04-19T07:55:29.23Z</time></trkpt><trkpt lat="38.8210169" lon="16.3158353"><ele>257.0</ele><time>2026-04-19T07:55:30.236Z</time></trkpt><trkpt lat="38.820982" lon="16.3157487"><ele>255.50000000000003</ele><time>2026-04-19T07:55:31.241Z</time></trkpt><trkpt lat="38.8209523" lon="16.3156632"><ele>254.0</ele><time>2026-04-19T07:55:32.227Z</time></trkpt><trkpt lat="38.820915" lon="16.3155878"><ele>252.5</ele><time>2026-04-19T07:55:33.234Z</time></trkpt><trkpt lat="38.8208765" lon="16.3155084"><ele>251.0</ele><time>2026-04-19T07:55:34.245Z</time></trkpt><trkpt lat="38.8208155" lon="16.3154441"><ele>249.50000000000003</ele><time>2026-04-19T07:55:35.241Z</time></trkpt><trkpt lat="38.8207508" lon="16.3153548"><ele>248.0</ele><time>2026-04-19T07:55:37.229Z</time></trkpt><trkpt lat="38.8207347" lon="16.3152557"><ele>246.50000000000003</ele><time>2026-04-19T07:55:39.262Z</time></trkpt><trkpt lat="38.8207746" lon="16.3151261"><ele>245.0</ele><time>2026-04-19T07:55:41.234Z</time></trkpt><trkpt lat="38.8207981" lon="16.3149835"><ele>243.5</ele><time>2026-04-19T07:55:43.241Z</time></trkpt><trkpt lat="38.8207797" lon="16.3148993"><ele>242.0</ele><time>2026-04-19T07:55:44.233Z</time></trkpt><trkpt lat="38.8207561" lon="16.3148097"><ele>240.50000000000003</ele><time>2026-04-19T07:55:45.233Z</time></trkpt><trkpt lat="38.8207346" lon="16.3147292"><ele>239.0</ele><time>2026-04-19T07:55:46.248Z</time></trkpt><trkpt lat="38.8207492" lon="16.3146505"><ele>236.5</ele><time>2026-04-19T07:55:48.245Z</time></trkpt><trkpt lat="38.8208159" lon="16.3145478"><ele>234.0</ele><time>2026-04-19T07:55:50.232Z</time></trkpt><trkpt lat="38.8208545" lon="16.3144117"><ele>231.5</ele><time>2026-04-19T07:55:52.242Z</time></trkpt><trkpt lat="38.8208165" lon="16.3142716"><ele>229.0</ele><time>2026-04-19T07:55:54.23Z</time></trkpt><trkpt lat="38.820741" lon="16.314121"><ele>229.0</ele><time>2026-04-19T07:55:56.231Z</time></trkpt><trkpt lat="38.8207068" lon="16.3140267"><ele>228.99999999999997</ele><time>2026-04-19T07:55:57.232Z</time></trkpt><trkpt lat="38.8206689" lon="16.3139117"><ele>228.99999999999997</ele><time>2026-04-19T07:55:58.23Z</time></trkpt><trkpt lat="38.8206508" lon="16.3137827"><ele>229.0</ele><time>2026-04-19T07:55:59.245Z</time></trkpt><trkpt lat="38.8206448" lon="16.313641"><ele>229.0</ele><time>2026-04-19T07:56:00.229Z</time></trkpt><trkpt lat="38.8206416" lon="16.313499"><ele>229.2</ele><time>2026-04-19T07:56:01.245Z</time></trkpt><trkpt lat="38.8206379" lon="16.3133753"><ele>229.39999999999998</ele><time>2026-04-19T07:56:02.231Z</time></trkpt><trkpt lat="38.8206281" lon="16.3132562"><ele>229.6</ele><time>2026-04-19T07:56:03.231Z</time></trkpt><trkpt lat="38.8206217" lon="16.313121"><ele>229.8</ele><time>2026-04-19T07:56:04.233Z</time></trkpt><trkpt lat="38.8206246" lon="16.31297"><ele>230.0</ele><time>2026-04-19T07:56:05.24Z</time></trkpt><trkpt lat="38.8206377" lon="16.3128314"><ele>230.16666666666669</ele><time>2026-04-19T07:56:06.244Z</time></trkpt><trkpt lat="38.82065" lon="16.3127136"><ele>230.33333333333334</ele><time>2026-04-19T07:56:07.24Z</time></trkpt><trkpt lat="38.8206711" lon="16.3126107"><ele>230.5</ele><time>2026-04-19T07:56:08.226Z</time></trkpt><trkpt lat="38.8206972" lon="16.3125153"><ele>230.66666666666669</ele><time>2026-04-19T07:56:09.227Z</time></trkpt><trkpt lat="38.8207405" lon="16.3124238"><ele>230.83333333333334</ele><time>2026-04-19T07:56:10.239Z</time></trkpt><trkpt lat="38.8207815" lon="16.3123345"><ele>231.0</ele><time>2026-04-19T07:56:11.234Z</time></trkpt><trkpt lat="38.8208215" lon="16.3122518"><ele>231.16666666666666</ele><time>2026-04-19T07:56:12.225Z</time></trkpt><trkpt lat="38.8208658" lon="16.312176"><ele>231.33333333333331</ele><time>2026-04-19T07:56:13.239Z</time></trkpt><trkpt lat="38.8209064" lon="16.3120942"><ele>231.5</ele><time>2026-04-19T07:56:14.247Z</time></trkpt><trkpt lat="38.8209388" lon="16.3120245"><ele>231.66666666666666</ele><time>2026-04-19T07:56:15.253Z</time></trkpt><trkpt lat="38.8209946" lon="16.3118661"><ele>231.83333333333331</ele><time>2026-04-19T07:56:17.245Z</time></trkpt><trkpt lat="38.8210317" lon="16.3117837"><ele>232.0</ele><time>2026-04-19T07:56:18.235Z</time></trkpt><trkpt lat="38.8210531" lon="16.3117006"><ele>231.33333333333331</ele><time>2026-04-19T07:56:19.239Z</time></trkpt><trkpt lat="38.8210527" lon="16.3116194"><ele>230.66666666666666</ele><time>2026-04-19T07:56:20.231Z</time></trkpt><trkpt lat="38.8210371" lon="16.3114503"><ele>230.0</ele><time>2026-04-19T07:56:22.233Z</time></trkpt><trkpt lat="38.8210169" lon="16.3113545"><ele>229.33333333333331</ele><time>2026-04-19T07:56:23.237Z</time></trkpt><trkpt lat="38.8209899" lon="16.31125"><ele>228.66666666666666</ele><time>2026-04-19T07:56:24.227Z</time></trkpt><trkpt lat="38.820963" lon="16.3111465"><ele>228.0</ele><time>2026-04-19T07:56:25.239Z</time></trkpt><trkpt lat="38.8209426" lon="16.3110271"><ele>227.0</ele><time>2026-04-19T07:56:26.237Z</time></trkpt><trkpt lat="38.8209131" lon="16.3109204"><ele>226.0</ele><time>2026-04-19T07:56:27.238Z</time></trkpt><trkpt lat="38.8208611" lon="16.3108381"><ele>225.0</ele><time>2026-04-19T07:56:28.228Z</time></trkpt><trkpt lat="38.820797" lon="16.310761"><ele>224.0</ele><time>2026-04-19T07:56:29.237Z</time></trkpt><trkpt lat="38.8207243" lon="16.3106815"><ele>223.0</ele><time>2026-04-19T07:56:30.229Z</time></trkpt><trkpt lat="38.8206601" lon="16.3105926"><ele>222.0</ele><time>2026-04-19T07:56:31.237Z</time></trkpt><trkpt lat="38.8205952" lon="16.3104976"><ele>220.0</ele><time>2026-04-19T07:56:32.238Z</time></trkpt><trkpt lat="38.8205445" lon="16.3103759"><ele>218.0</ele><time>2026-04-19T07:56:33.228Z</time></trkpt><trkpt lat="38.8204951" lon="16.3102507"><ele>216.0</ele><time>2026-04-19T07:56:34.228Z</time></trkpt><trkpt lat="38.8204861" lon="16.3101176"><ele>214.0</ele><time>2026-04-19T07:56:35.234Z</time></trkpt><trkpt lat="38.8204751" lon="16.3099892"><ele>212.0</ele><time>2026-04-19T07:56:36.237Z</time></trkpt><trkpt lat="38.8205022" lon="16.3098545"><ele>212.16666666666669</ele><time>2026-04-19T07:56:37.24Z</time></trkpt><trkpt lat="38.8205372" lon="16.3097387"><ele>212.33333333333334</ele><time>2026-04-19T07:56:38.244Z</time></trkpt><trkpt lat="38.8205674" lon="16.3096321"><ele>212.5</ele><time>2026-04-19T07:56:39.232Z</time></trkpt><trkpt lat="38.820605" lon="16.3095406"><ele>212.66666666666669</ele><time>2026-04-19T07:56:40.241Z</time></trkpt><trkpt lat="38.8206423" lon="16.3094516"><ele>212.83333333333334</ele><time>2026-04-19T07:56:41.233Z</time></trkpt><trkpt lat="38.8206745" lon="16.3093594"><ele>213.0</ele><time>2026-04-19T07:56:42.242Z</time></trkpt><trkpt lat="38.8206914" lon="16.3092563"><ele>213.0</ele><time>2026-04-19T07:56:43.242Z</time></trkpt><trkpt lat="38.8207072" lon="16.3091469"><ele>213.0</ele><time>2026-04-19T07:56:44.243Z</time></trkpt><trkpt lat="38.8207215" lon="16.3090497"><ele>213.0</ele><time>2026-04-19T07:56:45.236Z</time></trkpt><trkpt lat="38.8207379" lon="16.3089707"><ele>213.0</ele><time>2026-04-19T07:56:46.238Z</time></trkpt><trkpt lat="38.8207492" lon="16.3088411"><ele>213.0</ele><time>2026-04-19T07:56:48.237Z</time></trkpt><trkpt lat="38.8207516" lon="16.3087178"><ele>213.0</ele><time>2026-04-19T07:56:50.241Z</time></trkpt><trkpt lat="38.8207537" lon="16.3085757"><ele>213.16666666666666</ele><time>2026-04-19T07:56:52.231Z</time></trkpt><trkpt lat="38.8207517" lon="16.3084853"><ele>213.33333333333331</ele><time>2026-04-19T07:56:53.239Z</time></trkpt><trkpt lat="38.8207432" lon="16.3083789"><ele>213.5</ele><time>2026-04-19T07:56:54.237Z</time></trkpt><trkpt lat="38.8207349" lon="16.3082721"><ele>213.66666666666666</ele><time>2026-04-19T07:56:55.226Z</time></trkpt><trkpt lat="38.8207328" lon="16.3081645"><ele>213.83333333333331</ele><time>2026-04-19T07:56:56.234Z</time></trkpt><trkpt lat="38.8207371" lon="16.308054"><ele>214.0</ele><time>2026-04-19T07:56:57.234Z</time></trkpt><trkpt lat="38.8207478" lon="16.3079392"><ele>215.2</ele><time>2026-04-19T07:56:58.23Z</time></trkpt><trkpt lat="38.8207586" lon="16.307824"><ele>216.39999999999998</ele><time>2026-04-19T07:56:59.236Z</time></trkpt><trkpt lat="38.8207707" lon="16.3077142"><ele>217.6</ele><time>2026-04-19T07:57:00.242Z</time></trkpt><trkpt lat="38.8208017" lon="16.3076058"><ele>218.8</ele><time>2026-04-19T07:57:01.242Z</time></trkpt><trkpt lat="38.8208337" lon="16.3074997"><ele>220.0</ele><time>2026-04-19T07:57:02.231Z</time></trkpt><trkpt lat="38.8208916" lon="16.3073954"><ele>220.0</ele><time>2026-04-19T07:57:03.249Z</time></trkpt><trkpt lat="38.8209668" lon="16.307291"><ele>220.0</ele><time>2026-04-19T07:57:04.246Z</time></trkpt><trkpt lat="38.8210388" lon="16.307185"><ele>220.0</ele><time>2026-04-19T07:57:05.235Z</time></trkpt><trkpt lat="38.8210997" lon="16.3070912"><ele>220.0</ele><time>2026-04-19T07:57:06.259Z</time></trkpt><trkpt lat="38.8211629" lon="16.3070076"><ele>220.0</ele><time>2026-04-19T07:57:07.246Z</time></trkpt><trkpt lat="38.8212226" lon="16.3069315"><ele>215.4</ele><time>2026-04-19T07:57:08.24Z</time></trkpt><trkpt lat="38.8212779" lon="16.3068652"><ele>210.8</ele><time>2026-04-19T07:57:09.242Z</time></trkpt><trkpt lat="38.8213265" lon="16.3068038"><ele>206.2</ele><time>2026-04-19T07:57:10.236Z</time></trkpt><trkpt lat="38.8213841" lon="16.3066595"><ele>201.6</ele><time>2026-04-19T07:57:12.24Z</time></trkpt><trkpt lat="38.8214124" lon="16.3065522"><ele>197.0</ele><time>2026-04-19T07:57:13.232Z</time></trkpt><trkpt lat="38.8214524" lon="16.3064426"><ele>199.0</ele><time>2026-04-19T07:57:14.233Z</time></trkpt><trkpt lat="38.8215019" lon="16.3063309"><ele>201.0</ele><time>2026-04-19T07:57:15.234Z</time></trkpt><trkpt lat="38.8215606" lon="16.3062201"><ele>203.0</ele><time>2026-04-19T07:57:16.243Z</time></trkpt><trkpt lat="38.8216328" lon="16.3061086"><ele>205.0</ele><time>2026-04-19T07:57:17.226Z</time></trkpt><trkpt lat="38.8217182" lon="16.3060012"><ele>207.0</ele><time>2026-04-19T07:57:18.231Z</time></trkpt><trkpt lat="38.8218073" lon="16.3058934"><ele>203.6</ele><time>2026-04-19T07:57:19.241Z</time></trkpt><trkpt lat="38.8218832" lon="16.3057916"><ele>200.2</ele><time>2026-04-19T07:57:20.235Z</time></trkpt><trkpt lat="38.8219434" lon="16.3056957"><ele>196.8</ele><time>2026-04-19T07:57:21.236Z</time></trkpt><trkpt lat="38.8219955" lon="16.3056097"><ele>193.4</ele><time>2026-04-19T07:57:22.248Z</time></trkpt><trkpt lat="38.8220187" lon="16.305491"><ele>190.0</ele><time>2026-04-19T07:57:23.243Z</time></trkpt><trkpt lat="38.8220278" lon="16.3053845"><ele>189.2</ele><time>2026-04-19T07:57:24.245Z</time></trkpt><trkpt lat="38.8220238" lon="16.3052585"><ele>188.4</ele><time>2026-04-19T07:57:26.236Z</time></trkpt><trkpt lat="38.8220032" lon="16.3051658"><ele>187.60000000000002</ele><time>2026-04-19T07:57:29.242Z</time></trkpt><trkpt lat="38.8219717" lon="16.3050868"><ele>186.8</ele><time>2026-04-19T07:57:31.242Z</time></trkpt><trkpt lat="38.8219284" lon="16.3050002"><ele>186.0</ele><time>2026-04-19T07:57:33.242Z</time></trkpt><trkpt lat="38.8218996" lon="16.3048344"><ele>185.0</ele><time>2026-04-19T07:57:35.239Z</time></trkpt><trkpt lat="38.8218956" lon="16.3046806"><ele>184.0</ele><time>2026-04-19T07:57:37.237Z</time></trkpt><trkpt lat="38.8218931" lon="16.3045987"><ele>183.0</ele><time>2026-04-19T07:57:38.241Z</time></trkpt><trkpt lat="38.8218838" lon="16.3045154"><ele>182.0</ele><time>2026-04-19T07:57:39.229Z</time></trkpt><trkpt lat="38.821851" lon="16.3043817"><ele>181.0</ele><time>2026-04-19T07:57:41.238Z</time></trkpt><trkpt lat="38.8218077" lon="16.304256"><ele>181.0</ele><time>2026-04-19T07:57:43.235Z</time></trkpt><trkpt lat="38.8217682" lon="16.3041196"><ele>181.0</ele><time>2026-04-19T07:57:45.235Z</time></trkpt><trkpt lat="38.821764" lon="16.3039592"><ele>181.0</ele><time>2026-04-19T07:57:47.237Z</time></trkpt><trkpt lat="38.8217864" lon="16.3038095"><ele>181.0</ele><time>2026-04-19T07:57:49.246Z</time></trkpt><trkpt lat="38.8218003" lon="16.3037087"><ele>181.0</ele><time>2026-04-19T07:57:50.243Z</time></trkpt><trkpt lat="38.8218156" lon="16.303597"><ele>181.0</ele><time>2026-04-19T07:57:51.236Z</time></trkpt><trkpt lat="38.8218437" lon="16.303456"><ele>181.0</ele><time>2026-04-19T07:57:52.242Z</time></trkpt><trkpt lat="38.8218675" lon="16.3033138"><ele>181.0</ele><time>2026-04-19T07:57:53.233Z</time></trkpt><trkpt lat="38.8218725" lon="16.3031654"><ele>181.0</ele><time>2026-04-19T07:57:54.243Z</time></trkpt><trkpt lat="38.8218415" lon="16.3030456"><ele>181.0</ele><time>2026-04-19T07:57:55.238Z</time></trkpt><trkpt lat="38.821812" lon="16.3029326"><ele>186.0</ele><time>2026-04-19T07:57:56.228Z</time></trkpt><trkpt lat="38.8217849" lon="16.3028208"><ele>191.0</ele><time>2026-04-19T07:57:57.245Z</time></trkpt><trkpt lat="38.8217537" lon="16.3027086"><ele>196.0</ele><time>2026-04-19T07:57:58.242Z</time></trkpt><trkpt lat="38.8217136" lon="16.3026235"><ele>201.0</ele><time>2026-04-19T07:57:59.251Z</time></trkpt><trkpt lat="38.8216738" lon="16.3025435"><ele>205.99999999999997</ele><time>2026-04-19T07:58:00.232Z</time></trkpt><trkpt lat="38.8216108" lon="16.3024886"><ele>211.0</ele><time>2026-04-19T07:58:01.235Z</time></trkpt><trkpt lat="38.8215362" lon="16.3023961"><ele>210.99999999999997</ele><time>2026-04-19T07:58:02.249Z</time></trkpt><trkpt lat="38.8214616" lon="16.3022983"><ele>211.0</ele><time>2026-04-19T07:58:03.246Z</time></trkpt><trkpt lat="38.8213984" lon="16.3022166"><ele>211.0</ele><time>2026-04-19T07:58:04.231Z</time></trkpt><trkpt lat="38.821348" lon="16.3021544"><ele>211.0</ele><time>2026-04-19T07:58:05.242Z</time></trkpt><trkpt lat="38.8213034" lon="16.3020776"><ele>210.99999999999997</ele><time>2026-04-19T07:58:06.276Z</time></trkpt><trkpt lat="38.8212733" lon="16.3019858"><ele>211.0</ele><time>2026-04-19T07:58:07.248Z</time></trkpt><trkpt lat="38.8212326" lon="16.3019019"><ele>211.33333333333331</ele><time>2026-04-19T07:58:08.241Z</time></trkpt><trkpt lat="38.8211991" lon="16.3018055"><ele>211.66666666666666</ele><time>2026-04-19T07:58:09.249Z</time></trkpt><trkpt lat="38.8211937" lon="16.3017013"><ele>212.0</ele><time>2026-04-19T07:58:10.249Z</time></trkpt><trkpt lat="38.821205" lon="16.3015896"><ele>212.33333333333331</ele><time>2026-04-19T07:58:11.243Z</time></trkpt><trkpt lat="38.821214" lon="16.3014796"><ele>212.66666666666666</ele><time>2026-04-19T07:58:12.232Z</time></trkpt><trkpt lat="38.8212168" lon="16.3013643"><ele>213.0</ele><time>2026-04-19T07:58:13.243Z</time></trkpt><trkpt lat="38.8212226" lon="16.3012537"><ele>213.0</ele><time>2026-04-19T07:58:14.242Z</time></trkpt><trkpt lat="38.8212309" lon="16.3011422"><ele>213.0</ele><time>2026-04-19T07:58:15.24Z</time></trkpt><trkpt lat="38.8212397" lon="16.3010328"><ele>213.0</ele><time>2026-04-19T07:58:16.232Z</time></trkpt><trkpt lat="38.8212542" lon="16.3009228"><ele>213.0</ele><time>2026-04-19T07:58:17.233Z</time></trkpt><trkpt lat="38.8212746" lon="16.3008131"><ele>213.0</ele><time>2026-04-19T07:58:18.242Z</time></trkpt><trkpt lat="38.8213164" lon="16.3007087"><ele>213.0</ele><time>2026-04-19T07:58:19.229Z</time></trkpt><trkpt lat="38.8213547" lon="16.3005962"><ele>215.16666666666666</ele><time>2026-04-19T07:58:20.238Z</time></trkpt><trkpt lat="38.8213916" lon="16.3004829"><ele>217.33333333333331</ele><time>2026-04-19T07:58:21.243Z</time></trkpt><trkpt lat="38.8214209" lon="16.3003944"><ele>219.5</ele><time>2026-04-19T07:58:22.225Z</time></trkpt><trkpt lat="38.8214406" lon="16.3003051"><ele>221.66666666666666</ele><time>2026-04-19T07:58:23.236Z</time></trkpt><trkpt lat="38.8214628" lon="16.3002066"><ele>223.83333333333331</ele><time>2026-04-19T07:58:24.234Z</time></trkpt><trkpt lat="38.8214739" lon="16.3001142"><ele>226.0</ele><time>2026-04-19T07:58:25.239Z</time></trkpt><trkpt lat="38.8214883" lon="16.3000115"><ele>226.0</ele><time>2026-04-19T07:58:26.23Z</time></trkpt><trkpt lat="38.8215029" lon="16.2999124"><ele>226.00000000000003</ele><time>2026-04-19T07:58:27.236Z</time></trkpt><trkpt lat="38.8215361" lon="16.2998037"><ele>226.00000000000003</ele><time>2026-04-19T07:58:28.24Z</time></trkpt><trkpt lat="38.8215657" lon="16.2996937"><ele>226.0</ele><time>2026-04-19T07:58:29.235Z</time></trkpt><trkpt lat="38.8215971" lon="16.299613"><ele>226.0</ele><time>2026-04-19T07:58:30.23Z</time></trkpt><trkpt lat="38.8216328" lon="16.2994651"><ele>227.66666666666666</ele><time>2026-04-19T07:58:32.23Z</time></trkpt><trkpt lat="38.8216255" lon="16.2993773"><ele>229.33333333333331</ele><time>2026-04-19T07:58:33.241Z</time></trkpt><trkpt lat="38.8215927" lon="16.2992642"><ele>231.0</ele><time>2026-04-19T07:58:35.233Z</time></trkpt><trkpt lat="38.8215151" lon="16.2991763"><ele>232.66666666666669</ele><time>2026-04-19T07:58:37.239Z</time></trkpt><trkpt lat="38.821442" lon="16.2990979"><ele>234.33333333333334</ele><time>2026-04-19T07:58:39.24Z</time></trkpt><trkpt lat="38.8213961" lon="16.2990303"><ele>236.0</ele><time>2026-04-19T07:58:41.234Z</time></trkpt><trkpt lat="38.8213369" lon="16.2989397"><ele>236.00000000000003</ele><time>2026-04-19T07:58:44.239Z</time></trkpt><trkpt lat="38.8212852" lon="16.2988878"><ele>236.0</ele><time>2026-04-19T07:58:46.235Z</time></trkpt><trkpt lat="38.8212363" lon="16.298808"><ele>236.0</ele><time>2026-04-19T07:58:50.319Z</time></trkpt><trkpt lat="38.8211836" lon="16.2988831"><ele>236.0</ele><time>2026-04-19T07:58:58.282Z</time></trkpt><trkpt lat="38.8211078" lon="16.2989185"><ele>236.00000000000003</ele><time>2026-04-19T07:59:01.269Z</time></trkpt><trkpt lat="38.8210445" lon="16.2988697"><ele>236.0</ele><time>2026-04-19T07:59:09.282Z</time></trkpt><trkpt lat="38.8210614" lon="16.2987246"><ele>235.0</ele><time>2026-04-19T07:59:11.236Z</time></trkpt><trkpt lat="38.8210015" lon="16.2986454"><ele>234.00000000000003</ele><time>2026-04-19T07:59:17.249Z</time></trkpt><trkpt lat="38.8209276" lon="16.2985974"><ele>233.00000000000003</ele><time>2026-04-19T07:59:19.245Z</time></trkpt><trkpt lat="38.8208357" lon="16.2985319"><ele>232.0</ele><time>2026-04-19T07:59:21.24Z</time></trkpt><trkpt lat="38.8207449" lon="16.2984472"><ele>231.0</ele><time>2026-04-19T07:59:23.241Z</time></trkpt><trkpt lat="38.8206783" lon="16.298337"><ele>237.16666666666666</ele><time>2026-04-19T07:59:25.24Z</time></trkpt><trkpt lat="38.820614" lon="16.2982709"><ele>243.33333333333331</ele><time>2026-04-19T07:59:27.236Z</time></trkpt><trkpt lat="38.8205422" lon="16.2982551"><ele>249.5</ele><time>2026-04-19T07:59:29.251Z</time></trkpt><trkpt lat="38.8204706" lon="16.2982583"><ele>255.66666666666666</ele><time>2026-04-19T07:59:31.235Z</time></trkpt><trkpt lat="38.8204054" lon="16.298266"><ele>261.8333333333333</ele><time>2026-04-19T07:59:36.298Z</time></trkpt><trkpt lat="38.8203285" lon="16.2982829"><ele>268.0</ele><time>2026-04-19T07:59:37.234Z</time></trkpt><trkpt lat="38.8202467" lon="16.2982859"><ele>268.0</ele><time>2026-04-19T07:59:38.232Z</time></trkpt><trkpt lat="38.8201828" lon="16.2982833"><ele>268.0</ele><time>2026-04-19T07:59:39.234Z</time></trkpt><trkpt lat="38.82012" lon="16.2982947"><ele>268.0</ele><time>2026-04-19T07:59:40.236Z</time></trkpt><trkpt lat="38.8200505" lon="16.2983001"><ele>268.0</ele><time>2026-04-19T07:59:41.241Z</time></trkpt><trkpt lat="38.8199801" lon="16.2982911"><ele>268.0</ele><time>2026-04-19T07:59:42.229Z</time></trkpt><trkpt lat="38.8199135" lon="16.2982844"><ele>268.0</ele><time>2026-04-19T07:59:43.233Z</time></trkpt><trkpt lat="38.8198086" lon="16.298277"><ele>268.0</ele><time>2026-04-19T07:59:45.237Z</time></trkpt><trkpt lat="38.819723" lon="16.2982704"><ele>271.66666666666663</ele><time>2026-04-19T07:59:47.24Z</time></trkpt><trkpt lat="38.8196186" lon="16.2983133"><ele>275.3333333333333</ele><time>2026-04-19T07:59:49.231Z</time></trkpt><trkpt lat="38.8195538" lon="16.2983421"><ele>279.0</ele><time>2026-04-19T07:59:50.229Z</time></trkpt><trkpt lat="38.8194831" lon="16.2983665"><ele>282.6666666666667</ele><time>2026-04-19T07:59:51.233Z</time></trkpt><trkpt lat="38.8194141" lon="16.2983876"><ele>286.33333333333337</ele><time>2026-04-19T07:59:52.236Z</time></trkpt><trkpt lat="38.8193531" lon="16.2984092"><ele>290.0</ele><time>2026-04-19T07:59:53.23Z</time></trkpt><trkpt lat="38.8192605" lon="16.298444"><ele>292.5</ele><time>2026-04-19T07:59:55.239Z</time></trkpt><trkpt lat="38.819184" lon="16.2984779"><ele>295.0</ele><time>2026-04-19T07:59:57.235Z</time></trkpt><trkpt lat="38.8190989" lon="16.2984962"><ele>297.5</ele><time>2026-04-19T07:59:59.234Z</time></trkpt><trkpt lat="38.81902" lon="16.2984644"><ele>300.0</ele><time>2026-04-19T08:00:01.241Z</time></trkpt><trkpt lat="38.8189568" lon="16.2984611"><ele>302.5</ele><time>2026-04-19T08:00:03.236Z</time></trkpt><trkpt lat="38.8188692" lon="16.2984843"><ele>305.0</ele><time>2026-04-19T08:00:05.241Z</time></trkpt><trkpt lat="38.818769" lon="16.2985279"><ele>305.0</ele><time>2026-04-19T08:00:07.239Z</time></trkpt><trkpt lat="38.8186791" lon="16.2985921"><ele>305.0</ele><time>2026-04-19T08:00:09.238Z</time></trkpt><trkpt lat="38.8185936" lon="16.2986929"><ele>305.0</ele><time>2026-04-19T08:00:11.24Z</time></trkpt><trkpt lat="38.8185271" lon="16.2987693"><ele>305.0</ele><time>2026-04-19T08:00:13.249Z</time></trkpt><trkpt lat="38.8184539" lon="16.2988311"><ele>305.0</ele><time>2026-04-19T08:00:15.234Z</time></trkpt><trkpt lat="38.8183904" lon="16.2989037"><ele>310.6</ele><time>2026-04-19T08:00:17.244Z</time></trkpt><trkpt lat="38.818326" lon="16.2989624"><ele>316.2</ele><time>2026-04-19T08:00:19.24Z</time></trkpt><trkpt lat="38.8182562" lon="16.2990601"><ele>321.79999999999995</ele><time>2026-04-19T08:00:21.257Z</time></trkpt><trkpt lat="38.8182071" lon="16.2992017"><ele>327.4</ele><time>2026-04-19T08:00:23.24Z</time></trkpt><trkpt lat="38.8181822" lon="16.2992837"><ele>333.0</ele><time>2026-04-19T08:00:24.237Z</time></trkpt><trkpt lat="38.8181319" lon="16.2994067"><ele>333.0</ele><time>2026-04-19T08:00:26.227Z</time></trkpt><trkpt lat="38.8180735" lon="16.2995439"><ele>333.0</ele><time>2026-04-19T08:00:28.249Z</time></trkpt><trkpt lat="38.8180227" lon="16.2995994"><ele>333.0</ele><time>2026-04-19T08:00:29.227Z</time></trkpt><trkpt lat="38.8179424" lon="16.2996391"><ele>333.0</ele><time>2026-04-19T08:00:30.244Z</time></trkpt><trkpt lat="38.8178622" lon="16.2996787"><ele>333.0</ele><time>2026-04-19T08:00:31.243Z</time></trkpt><trkpt lat="38.8178001" lon="16.2997544"><ele>333.0</ele><time>2026-04-19T08:00:32.233Z</time></trkpt><trkpt lat="38.817748" lon="16.2998423"><ele>335.8333333333333</ele><time>2026-04-19T08:00:33.229Z</time></trkpt><trkpt lat="38.8177209" lon="16.2999369"><ele>338.6666666666667</ele><time>2026-04-19T08:00:34.236Z</time></trkpt><trkpt lat="38.8176846" lon="16.3000748"><ele>341.5</ele><time>2026-04-19T08:00:36.228Z</time></trkpt><trkpt lat="38.8176488" lon="16.3001792"><ele>344.33333333333337</ele><time>2026-04-19T08:00:38.239Z</time></trkpt><trkpt lat="38.8175808" lon="16.3002751"><ele>347.1666666666667</ele><time>2026-04-19T08:00:40.237Z</time></trkpt><trkpt lat="38.8175269" lon="16.3003215"><ele>350.0</ele><time>2026-04-19T08:00:41.237Z</time></trkpt><trkpt lat="38.8174607" lon="16.300363"><ele>352.6</ele><time>2026-04-19T08:00:42.242Z</time></trkpt><trkpt lat="38.8174408" lon="16.3004881"><ele>355.2</ele><time>2026-04-19T08:00:44.242Z</time></trkpt><trkpt lat="38.81748" lon="16.3006325"><ele>357.79999999999995</ele><time>2026-04-19T08:00:46.232Z</time></trkpt><trkpt lat="38.8175188" lon="16.3007555"><ele>360.4</ele><time>2026-04-19T08:00:48.237Z</time></trkpt><trkpt lat="38.8175428" lon="16.3008649"><ele>363.0</ele><time>2026-04-19T08:00:50.242Z</time></trkpt><trkpt lat="38.8175559" lon="16.3009507"><ele>363.79999999999995</ele><time>2026-04-19T08:00:51.246Z</time></trkpt><trkpt lat="38.81759" lon="16.301034"><ele>364.6</ele><time>2026-04-19T08:00:52.232Z</time></trkpt><trkpt lat="38.8176465" lon="16.3010971"><ele>365.4</ele><time>2026-04-19T08:00:53.24Z</time></trkpt><trkpt lat="38.8177173" lon="16.3012067"><ele>366.20000000000005</ele><time>2026-04-19T08:00:55.233Z</time></trkpt><trkpt lat="38.8177232" lon="16.3013292"><ele>367.0</ele><time>2026-04-19T08:00:57.238Z</time></trkpt><trkpt lat="38.8177197" lon="16.3014813"><ele>367.0</ele><time>2026-04-19T08:00:59.235Z</time></trkpt><trkpt lat="38.817744" lon="16.3016297"><ele>367.0</ele><time>2026-04-19T08:01:01.23Z</time></trkpt><trkpt lat="38.8177635" lon="16.3017148"><ele>367.0</ele><time>2026-04-19T08:01:02.248Z</time></trkpt><trkpt lat="38.8177827" lon="16.3018023"><ele>367.0</ele><time>2026-04-19T08:01:03.24Z</time></trkpt><trkpt lat="38.8177991" lon="16.3018924"><ele>367.0</ele><time>2026-04-19T08:01:04.237Z</time></trkpt><trkpt lat="38.8178131" lon="16.3019728"><ele>367.0</ele><time>2026-04-19T08:01:05.253Z</time></trkpt><trkpt lat="38.8178312" lon="16.3020539"><ele>367.0</ele><time>2026-04-19T08:01:06.231Z</time></trkpt><trkpt lat="38.8178475" lon="16.302154"><ele>367.0</ele><time>2026-04-19T08:01:07.247Z</time></trkpt><trkpt lat="38.8178598" lon="16.3022567"><ele>367.0</ele><time>2026-04-19T08:01:08.236Z</time></trkpt><trkpt lat="38.8178565" lon="16.3023646"><ele>367.0</ele><time>2026-04-19T08:01:09.236Z</time></trkpt><trkpt lat="38.8178526" lon="16.3024722"><ele>367.0</ele><time>2026-04-19T08:01:10.244Z</time></trkpt><trkpt lat="38.8178481" lon="16.3025734"><ele>367.0</ele><time>2026-04-19T08:01:11.238Z</time></trkpt><trkpt lat="38.8178346" lon="16.302739"><ele>367.8333333333333</ele><time>2026-04-19T08:01:13.25Z</time></trkpt><trkpt lat="38.8178044" lon="16.3028369"><ele>368.66666666666663</ele><time>2026-04-19T08:01:14.243Z</time></trkpt><trkpt lat="38.8177595" lon="16.3029395"><ele>369.5</ele><time>2026-04-19T08:01:15.246Z</time></trkpt><trkpt lat="38.8177166" lon="16.3030126"><ele>370.3333333333333</ele><time>2026-04-19T08:01:16.248Z</time></trkpt><trkpt lat="38.8176713" lon="16.3030782"><ele>371.1666666666667</ele><time>2026-04-19T08:01:17.244Z</time></trkpt><trkpt lat="38.8176155" lon="16.3031506"><ele>372.0</ele><time>2026-04-19T08:01:18.234Z</time></trkpt><trkpt lat="38.8175577" lon="16.3032212"><ele>379.6666666666667</ele><time>2026-04-19T08:01:19.245Z</time></trkpt><trkpt lat="38.8175147" lon="16.3032812"><ele>387.33333333333337</ele><time>2026-04-19T08:01:20.246Z</time></trkpt><trkpt lat="38.8174527" lon="16.3034114"><ele>395.0</ele><time>2026-04-19T08:01:22.25Z</time></trkpt><trkpt lat="38.8174537" lon="16.303509"><ele>402.6666666666667</ele><time>2026-04-19T08:01:23.237Z</time></trkpt><trkpt lat="38.8174524" lon="16.3035975"><ele>410.33333333333337</ele><time>2026-04-19T08:01:24.235Z</time></trkpt><trkpt lat="38.8174437" lon="16.3037238"><ele>418.0</ele><time>2026-04-19T08:01:26.252Z</time></trkpt><trkpt lat="38.8173953" lon="16.3037818"><ele>418.00000000000006</ele><time>2026-04-19T08:01:29.24Z</time></trkpt><trkpt lat="38.8173443" lon="16.303714"><ele>418.0</ele><time>2026-04-19T08:01:31.247Z</time></trkpt><trkpt lat="38.817325" lon="16.3036058"><ele>418.0</ele><time>2026-04-19T08:01:32.231Z</time></trkpt><trkpt lat="38.8173082" lon="16.3034697"><ele>418.0</ele><time>2026-04-19T08:01:33.251Z</time></trkpt><trkpt lat="38.8172753" lon="16.3033707"><ele>418.00000000000006</ele><time>2026-04-19T08:01:34.243Z</time></trkpt><trkpt lat="38.8172696" lon="16.3032493"><ele>418.0</ele><time>2026-04-19T08:01:36.237Z</time></trkpt><trkpt lat="38.8173179" lon="16.3031661"><ele>417.59999999999997</ele><time>2026-04-19T08:01:38.245Z</time></trkpt><trkpt lat="38.8173675" lon="16.3030535"><ele>417.2</ele><time>2026-04-19T08:01:40.268Z</time></trkpt><trkpt lat="38.8174239" lon="16.3029251"><ele>416.8</ele><time>2026-04-19T08:01:42.245Z</time></trkpt><trkpt lat="38.8174432" lon="16.3028044"><ele>416.4</ele><time>2026-04-19T08:01:44.25Z</time></trkpt><trkpt lat="38.8173869" lon="16.3027336"><ele>416.0</ele><time>2026-04-19T08:01:46.253Z</time></trkpt><trkpt lat="38.8172883" lon="16.3027625"><ele>416.0</ele><time>2026-04-19T08:01:48.245Z</time></trkpt><trkpt lat="38.81717" lon="16.3027157"><ele>416.0</ele><time>2026-04-19T08:01:50.243Z</time></trkpt><trkpt lat="38.817051" lon="16.3026749"><ele>416.0</ele><time>2026-04-19T08:01:52.237Z</time></trkpt><trkpt lat="38.8169911" lon="16.3026092"><ele>416.0</ele><time>2026-04-19T08:01:53.256Z</time></trkpt><trkpt lat="38.8169481" lon="16.302545"><ele>416.0</ele><time>2026-04-19T08:01:54.235Z</time></trkpt><trkpt lat="38.8168881" lon="16.302486"><ele>420.4</ele><time>2026-04-19T08:01:55.237Z</time></trkpt><trkpt lat="38.8167996" lon="16.3024449"><ele>424.8</ele><time>2026-04-19T08:01:56.293Z</time></trkpt><trkpt lat="38.8166927" lon="16.3024327"><ele>429.19999999999993</ele><time>2026-04-19T08:01:58.231Z</time></trkpt><trkpt lat="38.8166077" lon="16.3025015"><ele>433.59999999999997</ele><time>2026-04-19T08:02:00.263Z</time></trkpt><trkpt lat="38.8165878" lon="16.302623"><ele>438.0</ele><time>2026-04-19T08:02:02.235Z</time></trkpt><trkpt lat="38.8165546" lon="16.3027491"><ele>438.0</ele><time>2026-04-19T08:02:04.255Z</time></trkpt><trkpt lat="38.8165583" lon="16.3029016"><ele>438.0</ele><time>2026-04-19T08:02:06.249Z</time></trkpt><trkpt lat="38.8165469" lon="16.3030026"><ele>438.0</ele><time>2026-04-19T08:02:07.25Z</time></trkpt><trkpt lat="38.8165338" lon="16.3030967"><ele>438.0</ele><time>2026-04-19T08:02:08.234Z</time></trkpt><trkpt lat="38.8165074" lon="16.3031751"><ele>438.0</ele><time>2026-04-19T08:02:09.238Z</time></trkpt><trkpt lat="38.8164384" lon="16.3032434"><ele>438.0</ele><time>2026-04-19T08:02:10.237Z</time></trkpt><trkpt lat="38.8163448" lon="16.3032897"><ele>440.5</ele><time>2026-04-19T08:02:11.234Z</time></trkpt><trkpt lat="38.816277" lon="16.3033405"><ele>443.0</ele><time>2026-04-19T08:02:12.237Z</time></trkpt><trkpt lat="38.8162247" lon="16.3034091"><ele>445.5</ele><time>2026-04-19T08:02:13.245Z</time></trkpt><trkpt lat="38.8161762" lon="16.3035082"><ele>448.0</ele><time>2026-04-19T08:02:14.235Z</time></trkpt><trkpt lat="38.8161362" lon="16.3035973"><ele>450.5</ele><time>2026-04-19T08:02:15.237Z</time></trkpt><trkpt lat="38.8160624" lon="16.3037102"><ele>453.0</ele><time>2026-04-19T08:02:17.235Z</time></trkpt><trkpt lat="38.8160124" lon="16.303772"><ele>452.8333333333333</ele><time>2026-04-19T08:02:18.233Z</time></trkpt><trkpt lat="38.8159689" lon="16.3038464"><ele>452.66666666666663</ele><time>2026-04-19T08:02:19.234Z</time></trkpt><trkpt lat="38.8159248" lon="16.3039288"><ele>452.5</ele><time>2026-04-19T08:02:20.239Z</time></trkpt><trkpt lat="38.8158727" lon="16.303994"><ele>452.3333333333333</ele><time>2026-04-19T08:02:21.236Z</time></trkpt><trkpt lat="38.8158237" lon="16.3040493"><ele>452.16666666666663</ele><time>2026-04-19T08:02:22.238Z</time></trkpt><trkpt lat="38.8157789" lon="16.3041124"><ele>452.0</ele><time>2026-04-19T08:02:23.23Z</time></trkpt><trkpt lat="38.8157333" lon="16.3042203"><ele>455.40000000000003</ele><time>2026-04-19T08:02:25.242Z</time></trkpt><trkpt lat="38.8156892" lon="16.3042876"><ele>458.80000000000007</ele><time>2026-04-19T08:04:24.279Z</time></trkpt><trkpt lat="38.81562" lon="16.3043366"><ele>462.2</ele><time>2026-04-19T08:04:26.233Z</time></trkpt><trkpt lat="38.8155431" lon="16.3044445"><ele>465.6</ele><time>2026-04-19T08:04:28.235Z</time></trkpt><trkpt lat="38.8154533" lon="16.3045785"><ele>469.0</ele><time>2026-04-19T08:04:30.247Z</time></trkpt><trkpt lat="38.8153963" lon="16.3046564"><ele>469.00000000000006</ele><time>2026-04-19T08:04:31.234Z</time></trkpt><trkpt lat="38.8153293" lon="16.3047437"><ele>469.0</ele><time>2026-04-19T08:04:32.24Z</time></trkpt><trkpt lat="38.8152698" lon="16.304831"><ele>469.0</ele><time>2026-04-19T08:04:33.239Z</time></trkpt><trkpt lat="38.815219" lon="16.3049287"><ele>469.0</ele><time>2026-04-19T08:04:34.23Z</time></trkpt><trkpt lat="38.815176" lon="16.3050379"><ele>469.00000000000006</ele><time>2026-04-19T08:04:35.237Z</time></trkpt><trkpt lat="38.8151484" lon="16.3051291"><ele>469.0</ele><time>2026-04-19T08:04:36.24Z</time></trkpt><trkpt lat="38.815141" lon="16.3052097"><ele>471.2</ele><time>2026-04-19T08:04:37.226Z</time></trkpt><trkpt lat="38.8151404" lon="16.3053105"><ele>473.4</ele><time>2026-04-19T08:04:38.232Z</time></trkpt><trkpt lat="38.8151412" lon="16.3054348"><ele>475.6</ele><time>2026-04-19T08:04:39.24Z</time></trkpt><trkpt lat="38.815132" lon="16.3055537"><ele>477.8</ele><time>2026-04-19T08:04:40.228Z</time></trkpt><trkpt lat="38.8151172" lon="16.3056424"><ele>480.0</ele><time>2026-04-19T08:04:41.239Z</time></trkpt><trkpt lat="38.8151063" lon="16.3057917"><ele>481.8</ele><time>2026-04-19T08:04:43.241Z</time></trkpt><trkpt lat="38.8151122" lon="16.3059383"><ele>483.6</ele><time>2026-04-19T08:04:45.239Z</time></trkpt><trkpt lat="38.8151332" lon="16.3060932"><ele>485.4</ele><time>2026-04-19T08:04:47.238Z</time></trkpt><trkpt lat="38.815144" lon="16.3061738"><ele>487.2</ele><time>2026-04-19T08:04:48.244Z</time></trkpt><trkpt lat="38.8151224" lon="16.3062734"><ele>489.0</ele><time>2026-04-19T08:04:49.247Z</time></trkpt><trkpt lat="38.8150835" lon="16.3063521"><ele>489.1666666666667</ele><time>2026-04-19T08:04:50.243Z</time></trkpt><trkpt lat="38.8150454" lon="16.3064211"><ele>489.33333333333337</ele><time>2026-04-19T08:04:51.245Z</time></trkpt><trkpt lat="38.8149915" lon="16.306509"><ele>489.5</ele><time>2026-04-19T08:04:53.238Z</time></trkpt><trkpt lat="38.8149425" lon="16.3065749"><ele>489.6666666666667</ele><time>2026-04-19T08:04:55.251Z</time></trkpt><trkpt lat="38.8148786" lon="16.3066589"><ele>489.83333333333337</ele><time>2026-04-19T08:04:57.248Z</time></trkpt><trkpt lat="38.8148009" lon="16.3067856"><ele>490.0</ele><time>2026-04-19T08:04:59.244Z</time></trkpt><trkpt lat="38.8147581" lon="16.3068521"><ele>490.00000000000006</ele><time>2026-04-19T08:05:00.237Z</time></trkpt><trkpt lat="38.8147116" lon="16.306921"><ele>490.0</ele><time>2026-04-19T08:05:01.243Z</time></trkpt><trkpt lat="38.8146646" lon="16.3069876"><ele>490.0</ele><time>2026-04-19T08:05:02.237Z</time></trkpt><trkpt lat="38.8146112" lon="16.3070448"><ele>490.0</ele><time>2026-04-19T08:05:03.243Z</time></trkpt><trkpt lat="38.8145568" lon="16.307117"><ele>490.00000000000006</ele><time>2026-04-19T08:05:04.238Z</time></trkpt><trkpt lat="38.8144992" lon="16.3071876"><ele>490.0</ele><time>2026-04-19T08:05:05.25Z</time></trkpt><trkpt lat="38.8144364" lon="16.3072612"><ele>490.7142857142857</ele><time>2026-04-19T08:05:06.243Z</time></trkpt><trkpt lat="38.8143827" lon="16.3073283"><ele>491.42857142857144</ele><time>2026-04-19T08:05:07.231Z</time></trkpt><trkpt lat="38.814332" lon="16.3073835"><ele>492.1428571428571</ele><time>2026-04-19T08:05:08.25Z</time></trkpt><trkpt lat="38.8142845" lon="16.3074394"><ele>492.85714285714283</ele><time>2026-04-19T08:05:09.245Z</time></trkpt><trkpt lat="38.8142331" lon="16.3075071"><ele>493.57142857142856</ele><time>2026-04-19T08:05:10.243Z</time></trkpt><trkpt lat="38.8141874" lon="16.3075799"><ele>494.2857142857142</ele><time>2026-04-19T08:05:11.235Z</time></trkpt><trkpt lat="38.8141424" lon="16.3076724"><ele>494.99999999999994</ele><time>2026-04-19T08:05:12.237Z</time></trkpt><trkpt lat="38.8140959" lon="16.3077767"><ele>497.0</ele><time>2026-04-19T08:05:13.237Z</time></trkpt><trkpt lat="38.8140481" lon="16.3078826"><ele>499.0</ele><time>2026-04-19T08:05:14.249Z</time></trkpt><trkpt lat="38.8139847" lon="16.3079772"><ele>501.0</ele><time>2026-04-19T08:05:15.231Z</time></trkpt><trkpt lat="38.8139099" lon="16.308059"><ele>503.0</ele><time>2026-04-19T08:05:16.24Z</time></trkpt><trkpt lat="38.8138319" lon="16.308138"><ele>505.0</ele><time>2026-04-19T08:05:17.246Z</time></trkpt><trkpt lat="38.8137529" lon="16.3082144"><ele>505.0</ele><time>2026-04-19T08:05:18.231Z</time></trkpt><trkpt lat="38.8136825" lon="16.3082936"><ele>505.0</ele><time>2026-04-19T08:05:19.244Z</time></trkpt><trkpt lat="38.8136148" lon="16.3083693"><ele>505.0</ele><time>2026-04-19T08:05:20.24Z</time></trkpt><trkpt lat="38.8135383" lon="16.3084521"><ele>505.0</ele><time>2026-04-19T08:05:21.244Z</time></trkpt><trkpt lat="38.8134593" lon="16.3085367"><ele>505.0</ele><time>2026-04-19T08:05:22.242Z</time></trkpt><trkpt lat="38.8133426" lon="16.3086473"><ele>506.75</ele><time>2026-04-19T08:05:23.244Z</time></trkpt><trkpt lat="38.8132267" lon="16.3087471"><ele>508.5</ele><time>2026-04-19T08:05:24.241Z</time></trkpt><trkpt lat="38.8131166" lon="16.3088338"><ele>510.25</ele><time>2026-04-19T08:05:25.24Z</time></trkpt><trkpt lat="38.8130116" lon="16.3089195"><ele>512.0</ele><time>2026-04-19T08:05:26.246Z</time></trkpt><trkpt lat="38.8129137" lon="16.309004"><ele>512.0</ele><time>2026-04-19T08:05:27.241Z</time></trkpt><trkpt lat="38.8128211" lon="16.3090849"><ele>512.0</ele><time>2026-04-19T08:05:28.246Z</time></trkpt><trkpt lat="38.8127357" lon="16.3091625"><ele>512.0</ele><time>2026-04-19T08:05:29.246Z</time></trkpt><trkpt lat="38.8126566" lon="16.3092372"><ele>512.0</ele><time>2026-04-19T08:05:30.241Z</time></trkpt><trkpt lat="38.8125808" lon="16.3093059"><ele>512.0</ele><time>2026-04-19T08:05:31.237Z</time></trkpt><trkpt lat="38.8125043" lon="16.309377"><ele>513.8000000000001</ele><time>2026-04-19T08:05:32.236Z</time></trkpt><trkpt lat="38.8124226" lon="16.3094521"><ele>515.6</ele><time>2026-04-19T08:05:33.248Z</time></trkpt><trkpt lat="38.812332" lon="16.309523"><ele>517.4000000000001</ele><time>2026-04-19T08:05:34.238Z</time></trkpt><trkpt lat="38.8122359" lon="16.3095853"><ele>519.2</ele><time>2026-04-19T08:05:35.234Z</time></trkpt><trkpt lat="38.812144" lon="16.3096449"><ele>521.0</ele><time>2026-04-19T08:05:36.239Z</time></trkpt><trkpt lat="38.8120639" lon="16.3096766"><ele>521.0</ele><time>2026-04-19T08:05:37.244Z</time></trkpt><trkpt lat="38.8119926" lon="16.3096916"><ele>521.0</ele><time>2026-04-19T08:05:38.229Z</time></trkpt><trkpt lat="38.8119154" lon="16.3096915"><ele>521.0</ele><time>2026-04-19T08:05:40.236Z</time></trkpt><trkpt lat="38.8118491" lon="16.3096983"><ele>521.0</ele><time>2026-04-19T08:05:42.238Z</time></trkpt><trkpt lat="38.8117666" lon="16.3097665"><ele>521.0</ele><time>2026-04-19T08:05:44.236Z</time></trkpt><trkpt lat="38.8116929" lon="16.3098086"><ele>521.0</ele><time>2026-04-19T08:05:45.234Z</time></trkpt><trkpt lat="38.8116029" lon="16.3098544"><ele>522.6</ele><time>2026-04-19T08:05:46.243Z</time></trkpt><trkpt lat="38.8115036" lon="16.3099072"><ele>524.2</ele><time>2026-04-19T08:05:47.25Z</time></trkpt><trkpt lat="38.8114021" lon="16.3099606"><ele>525.8</ele><time>2026-04-19T08:05:48.236Z</time></trkpt><trkpt lat="38.8113034" lon="16.3100184"><ele>527.4</ele><time>2026-04-19T08:05:49.245Z</time></trkpt><trkpt lat="38.8112164" lon="16.3100791"><ele>529.0</ele><time>2026-04-19T08:05:50.243Z</time></trkpt><trkpt lat="38.8111538" lon="16.3101659"><ele>529.0</ele><time>2026-04-19T08:05:51.233Z</time></trkpt><trkpt lat="38.811099" lon="16.3102576"><ele>529.0</ele><time>2026-04-19T08:05:52.232Z</time></trkpt><trkpt lat="38.8110366" lon="16.3103657"><ele>529.0</ele><time>2026-04-19T08:05:53.238Z</time></trkpt><trkpt lat="38.8109643" lon="16.310498"><ele>529.0</ele><time>2026-04-19T08:05:54.238Z</time></trkpt><trkpt lat="38.8108773" lon="16.3106346"><ele>531.0</ele><time>2026-04-19T08:05:55.245Z</time></trkpt><trkpt lat="38.8107794" lon="16.3108178"><ele>533.0</ele><time>2026-04-19T08:05:56.233Z</time></trkpt><trkpt lat="38.8106806" lon="16.3110247"><ele>535.0</ele><time>2026-04-19T08:05:57.242Z</time></trkpt><trkpt lat="38.8105789" lon="16.3112341"><ele>537.0</ele><time>2026-04-19T08:05:58.247Z</time></trkpt><trkpt lat="38.8104885" lon="16.311414"><ele>539.0</ele><time>2026-04-19T08:05:59.235Z</time></trkpt><trkpt lat="38.8103979" lon="16.3115633"><ele>541.0</ele><time>2026-04-19T08:06:00.252Z</time></trkpt><trkpt lat="38.8103107" lon="16.3116819"><ele>543.0</ele><time>2026-04-19T08:06:01.24Z</time></trkpt><trkpt lat="38.8102486" lon="16.3117922"><ele>543.0</ele><time>2026-04-19T08:06:02.233Z</time></trkpt><trkpt lat="38.8102074" lon="16.311912"><ele>543.0</ele><time>2026-04-19T08:06:03.242Z</time></trkpt><trkpt lat="38.810184" lon="16.3120566"><ele>543.0</ele><time>2026-04-19T08:06:04.24Z</time></trkpt><trkpt lat="38.8101646" lon="16.3122183"><ele>543.0</ele><time>2026-04-19T08:06:05.247Z</time></trkpt><trkpt lat="38.8101378" lon="16.312383"><ele>545.5</ele><time>2026-04-19T08:06:06.245Z</time></trkpt><trkpt lat="38.8101021" lon="16.3125462"><ele>548.0</ele><time>2026-04-19T08:06:07.234Z</time></trkpt><trkpt lat="38.8100598" lon="16.3127002"><ele>550.5</ele><time>2026-04-19T08:06:08.24Z</time></trkpt><trkpt lat="38.8100251" lon="16.3128376"><ele>553.0</ele><time>2026-04-19T08:06:09.226Z</time></trkpt><trkpt lat="38.8099815" lon="16.3129509"><ele>553.0</ele><time>2026-04-19T08:06:10.244Z</time></trkpt><trkpt lat="38.8099276" lon="16.3130697"><ele>553.0</ele><time>2026-04-19T08:06:11.235Z</time></trkpt><trkpt lat="38.8098688" lon="16.313194"><ele>553.0</ele><time>2026-04-19T08:06:12.236Z</time></trkpt><trkpt lat="38.8097991" lon="16.3133312"><ele>553.0</ele><time>2026-04-19T08:06:13.244Z</time></trkpt><trkpt lat="38.8097229" lon="16.3134751"><ele>554.75</ele><time>2026-04-19T08:06:14.233Z</time></trkpt><trkpt lat="38.8096481" lon="16.3136165"><ele>556.5</ele><time>2026-04-19T08:06:15.233Z</time></trkpt><trkpt lat="38.809571" lon="16.3137605"><ele>558.25</ele><time>2026-04-19T08:06:16.248Z</time></trkpt><trkpt lat="38.8095003" lon="16.3138958"><ele>560.0</ele><time>2026-04-19T08:06:17.253Z</time></trkpt><trkpt lat="38.8094357" lon="16.3140214"><ele>562.25</ele><time>2026-04-19T08:06:18.227Z</time></trkpt><trkpt lat="38.8093704" lon="16.3141413"><ele>564.5</ele><time>2026-04-19T08:06:19.243Z</time></trkpt><trkpt lat="38.8093004" lon="16.3142693"><ele>566.75</ele><time>2026-04-19T08:06:20.237Z</time></trkpt><trkpt lat="38.8092236" lon="16.3144088"><ele>569.0</ele><time>2026-04-19T08:06:21.246Z</time></trkpt><trkpt lat="38.8091358" lon="16.3145581"><ele>569.3333333333333</ele><time>2026-04-19T08:06:22.248Z</time></trkpt><trkpt lat="38.8090353" lon="16.3147222"><ele>569.6666666666666</ele><time>2026-04-19T08:06:23.24Z</time></trkpt><trkpt lat="38.8089217" lon="16.3149039"><ele>570.0</ele><time>2026-04-19T08:06:24.234Z</time></trkpt><trkpt lat="38.8087966" lon="16.3151045"><ele>570.6666666666666</ele><time>2026-04-19T08:06:25.238Z</time></trkpt><trkpt lat="38.8086596" lon="16.3153159"><ele>571.3333333333333</ele><time>2026-04-19T08:06:26.252Z</time></trkpt><trkpt lat="38.8085126" lon="16.3155376"><ele>572.0</ele><time>2026-04-19T08:06:27.236Z</time></trkpt><trkpt lat="38.808362" lon="16.3157661"><ele>574.0</ele><time>2026-04-19T08:06:28.231Z</time></trkpt><trkpt lat="38.8082274" lon="16.3159828"><ele>576.0</ele><time>2026-04-19T08:06:29.237Z</time></trkpt><trkpt lat="38.8081136" lon="16.3161706"><ele>578.0</ele><time>2026-04-19T08:06:30.234Z</time></trkpt><trkpt lat="38.808018" lon="16.3163285"><ele>579.25</ele><time>2026-04-19T08:06:31.239Z</time></trkpt><trkpt lat="38.80793" lon="16.3164713"><ele>580.5</ele><time>2026-04-19T08:06:32.234Z</time></trkpt><trkpt lat="38.8078499" lon="16.3166045"><ele>581.75</ele><time>2026-04-19T08:06:33.242Z</time></trkpt><trkpt lat="38.8077787" lon="16.3167292"><ele>583.0</ele><time>2026-04-19T08:06:34.239Z</time></trkpt><trkpt lat="38.8077099" lon="16.3168504"><ele>584.75</ele><time>2026-04-19T08:06:35.243Z</time></trkpt><trkpt lat="38.8076307" lon="16.3169767"><ele>586.5</ele><time>2026-04-19T08:06:36.238Z</time></trkpt><trkpt lat="38.8075498" lon="16.3171032"><ele>588.25</ele><time>2026-04-19T08:06:37.247Z</time></trkpt><trkpt lat="38.8074824" lon="16.3172132"><ele>590.0</ele><time>2026-04-19T08:06:38.236Z</time></trkpt><trkpt lat="38.8074201" lon="16.317312"><ele>590.75</ele><time>2026-04-19T08:06:39.235Z</time></trkpt><trkpt lat="38.8073495" lon="16.3174217"><ele>591.5</ele><time>2026-04-19T08:06:40.255Z</time></trkpt><trkpt lat="38.807264" lon="16.3175441"><ele>592.25</ele><time>2026-04-19T08:06:41.258Z</time></trkpt><trkpt lat="38.807172" lon="16.317663"><ele>593.0</ele><time>2026-04-19T08:06:42.235Z</time></trkpt><trkpt lat="38.8070895" lon="16.3177615"><ele>593.0</ele><time>2026-04-19T08:06:43.253Z</time></trkpt><trkpt lat="38.8070155" lon="16.3178433"><ele>593.0</ele><time>2026-04-19T08:06:44.247Z</time></trkpt><trkpt lat="38.8069451" lon="16.3179198"><ele>593.0</ele><time>2026-04-19T08:06:45.243Z</time></trkpt><trkpt lat="38.8068686" lon="16.3179999"><ele>593.0</ele><time>2026-04-19T08:06:46.237Z</time></trkpt><trkpt lat="38.8067918" lon="16.3180818"><ele>593.0</ele><time>2026-04-19T08:06:47.252Z</time></trkpt><trkpt lat="38.8067207" lon="16.3181661"><ele>594.3333333333333</ele><time>2026-04-19T08:06:48.249Z</time></trkpt><trkpt lat="38.8066565" lon="16.3182487"><ele>595.6666666666666</ele><time>2026-04-19T08:06:49.238Z</time></trkpt><trkpt lat="38.806602" lon="16.318319"><ele>597.0</ele><time>2026-04-19T08:06:50.257Z</time></trkpt><trkpt lat="38.8065407" lon="16.3183803"><ele>598.3333333333334</ele><time>2026-04-19T08:06:51.243Z</time></trkpt><trkpt lat="38.8064706" lon="16.318435"><ele>599.6666666666667</ele><time>2026-04-19T08:06:52.23Z</time></trkpt><trkpt lat="38.8063931" lon="16.3184836"><ele>601.0</ele><time>2026-04-19T08:06:53.247Z</time></trkpt><trkpt lat="38.8063083" lon="16.3185267"><ele>601.0</ele><time>2026-04-19T08:06:54.251Z</time></trkpt><trkpt lat="38.8062176" lon="16.3185675"><ele>601.0</ele><time>2026-04-19T08:06:55.232Z</time></trkpt><trkpt lat="38.8061202" lon="16.3186081"><ele>601.0</ele><time>2026-04-19T08:06:56.233Z</time></trkpt><trkpt lat="38.8060223" lon="16.3186493"><ele>601.0</ele><time>2026-04-19T08:06:57.25Z</time></trkpt><trkpt lat="38.8059323" lon="16.3186852"><ele>601.0</ele><time>2026-04-19T08:06:58.238Z</time></trkpt><trkpt lat="38.8058516" lon="16.3187118"><ele>601.1666666666667</ele><time>2026-04-19T08:06:59.24Z</time></trkpt><trkpt lat="38.8057817" lon="16.318736"><ele>601.3333333333334</ele><time>2026-04-19T08:07:00.247Z</time></trkpt><trkpt lat="38.8056694" lon="16.3187838"><ele>601.5</ele><time>2026-04-19T08:07:02.236Z</time></trkpt><trkpt lat="38.8055872" lon="16.3188272"><ele>601.6666666666666</ele><time>2026-04-19T08:07:04.235Z</time></trkpt><trkpt lat="38.8055216" lon="16.318851"><ele>601.8333333333333</ele><time>2026-04-19T08:07:06.257Z</time></trkpt><trkpt lat="38.8054582" lon="16.3188634"><ele>602.0</ele><time>2026-04-19T08:07:10.238Z</time></trkpt><trkpt lat="38.8053876" lon="16.3188788"><ele>602.0</ele><time>2026-04-19T08:07:14.251Z</time></trkpt><trkpt lat="38.8052895" lon="16.3188728"><ele>602.0</ele><time>2026-04-19T08:07:19.244Z</time></trkpt><trkpt lat="38.8052058" lon="16.3188656"><ele>602.0</ele><time>2026-04-19T08:07:21.226Z</time></trkpt><trkpt lat="38.8051169" lon="16.3188866"><ele>602.0</ele><time>2026-04-19T08:07:24.231Z</time></trkpt><trkpt lat="38.8050434" lon="16.3188967"><ele>602.0</ele><time>2026-04-19T08:07:27.235Z</time></trkpt><trkpt lat="38.8049525" lon="16.3188982"><ele>602.0</ele><time>2026-04-19T08:07:30.245Z</time></trkpt><trkpt lat="38.8048537" lon="16.3188819"><ele>600.1666666666666</ele><time>2026-04-19T08:07:32.242Z</time></trkpt><trkpt lat="38.8047764" lon="16.3188438"><ele>598.3333333333333</ele><time>2026-04-19T08:07:34.233Z</time></trkpt><trkpt lat="38.8046883" lon="16.3188385"><ele>596.5</ele><time>2026-04-19T08:07:37.237Z</time></trkpt><trkpt lat="38.8046207" lon="16.3188643"><ele>594.6666666666666</ele><time>2026-04-19T08:07:39.246Z</time></trkpt><trkpt lat="38.8045121" lon="16.3189186"><ele>592.8333333333334</ele><time>2026-04-19T08:07:41.243Z</time></trkpt><trkpt lat="38.8044278" lon="16.3189443"><ele>591.0</ele><time>2026-04-19T08:07:43.238Z</time></trkpt><trkpt lat="38.8043637" lon="16.3189761"><ele>586.6666666666666</ele><time>2026-04-19T08:07:45.243Z</time></trkpt><trkpt lat="38.804289" lon="16.3190326"><ele>582.3333333333334</ele><time>2026-04-19T08:07:47.246Z</time></trkpt><trkpt lat="38.804206" lon="16.319088"><ele>578.0</ele><time>2026-04-19T08:07:49.247Z</time></trkpt><trkpt lat="38.8041057" lon="16.3191378"><ele>573.6666666666667</ele><time>2026-04-19T08:07:51.238Z</time></trkpt><trkpt lat="38.8040317" lon="16.3191718"><ele>569.3333333333334</ele><time>2026-04-19T08:07:54.281Z</time></trkpt><trkpt lat="38.8039566" lon="16.3191296"><ele>565.0</ele><time>2026-04-19T08:07:56.243Z</time></trkpt><trkpt lat="38.8038907" lon="16.3191079"><ele>565.0</ele><time>2026-04-19T08:07:59.307Z</time></trkpt><trkpt lat="38.8038204" lon="16.3191407"><ele>565.0</ele><time>2026-04-19T08:08:01.256Z</time></trkpt><trkpt lat="38.8037596" lon="16.3191685"><ele>565.0</ele><time>2026-04-19T08:08:02.238Z</time></trkpt><trkpt lat="38.8036823" lon="16.3192686"><ele>565.0</ele><time>2026-04-19T08:08:06.232Z</time></trkpt><trkpt lat="38.8036768" lon="16.3193634"><ele>565.0</ele><time>2026-04-19T08:08:08.295Z</time></trkpt><trkpt lat="38.8036974" lon="16.3194614"><ele>565.0</ele><time>2026-04-19T08:08:10.316Z</time></trkpt><trkpt lat="38.8037118" lon="16.3195479"><ele>565.0</ele><time>2026-04-19T08:08:14.321Z</time></trkpt><trkpt lat="38.8036372" lon="16.3196381"><ele>565.0</ele><time>2026-04-19T08:08:24.255Z</time></trkpt><trkpt lat="38.8036144" lon="16.319729"><ele>565.0</ele><time>2026-04-19T08:08:27.238Z</time></trkpt><trkpt lat="38.8035906" lon="16.3198522"><ele>565.0</ele><time>2026-04-19T08:08:29.239Z</time></trkpt><trkpt lat="38.803561" lon="16.3199436"><ele>565.0</ele><time>2026-04-19T08:08:31.238Z</time></trkpt><trkpt lat="38.8035336" lon="16.3200319"><ele>565.0</ele><time>2026-04-19T08:08:33.245Z</time></trkpt><trkpt lat="38.8035017" lon="16.3201199"><ele>563.4285714285713</ele><time>2026-04-19T08:08:37.246Z</time></trkpt><trkpt lat="38.8034523" lon="16.3201759"><ele>561.8571428571429</ele><time>2026-04-19T08:08:42.253Z</time></trkpt><trkpt lat="38.8034023" lon="16.3202274"><ele>560.2857142857142</ele><time>2026-04-19T08:08:44.235Z</time></trkpt><trkpt lat="38.8033324" lon="16.3202926"><ele>558.7142857142857</ele><time>2026-04-19T08:08:47.246Z</time></trkpt><trkpt lat="38.8032661" lon="16.3203354"><ele>557.1428571428571</ele><time>2026-04-19T08:08:49.241Z</time></trkpt><trkpt lat="38.8031932" lon="16.3203653"><ele>555.5714285714286</ele><time>2026-04-19T08:08:51.241Z</time></trkpt><trkpt lat="38.8031473" lon="16.3204257"><ele>554.0</ele><time>2026-04-19T08:08:53.248Z</time></trkpt><trkpt lat="38.8031507" lon="16.3205176"><ele>552.5</ele><time>2026-04-19T08:08:55.229Z</time></trkpt><trkpt lat="38.8031826" lon="16.320622"><ele>551.0</ele><time>2026-04-19T08:08:57.248Z</time></trkpt><trkpt lat="38.8032048" lon="16.3207351"><ele>549.5</ele><time>2026-04-19T08:08:59.242Z</time></trkpt><trkpt lat="38.8032258" lon="16.3208246"><ele>548.0</ele><time>2026-04-19T08:09:01.234Z</time></trkpt><trkpt lat="38.8032825" lon="16.3208671"><ele>546.5</ele><time>2026-04-19T08:09:03.236Z</time></trkpt><trkpt lat="38.8033452" lon="16.3208774"><ele>545.0</ele><time>2026-04-19T08:09:05.241Z</time></trkpt><trkpt lat="38.8034259" lon="16.3209029"><ele>543.8333333333333</ele><time>2026-04-19T08:09:07.238Z</time></trkpt><trkpt lat="38.8035185" lon="16.3210066"><ele>542.6666666666666</ele><time>2026-04-19T08:09:09.251Z</time></trkpt><trkpt lat="38.8035878" lon="16.3211022"><ele>541.5</ele><time>2026-04-19T08:09:11.241Z</time></trkpt><trkpt lat="38.8036311" lon="16.3211708"><ele>540.3333333333334</ele><time>2026-04-19T08:09:13.238Z</time></trkpt><trkpt lat="38.8036993" lon="16.3211938"><ele>539.1666666666667</ele><time>2026-04-19T08:09:15.235Z</time></trkpt><trkpt lat="38.8037778" lon="16.3211912"><ele>538.0</ele><time>2026-04-19T08:09:17.239Z</time></trkpt><trkpt lat="38.803819" lon="16.321283"><ele>537.8</ele><time>2026-04-19T08:09:20.261Z</time></trkpt><trkpt lat="38.8038388" lon="16.3214076"><ele>537.5999999999999</ele><time>2026-04-19T08:09:23.244Z</time></trkpt><trkpt lat="38.8039038" lon="16.3214894"><ele>537.4000000000001</ele><time>2026-04-19T08:09:25.248Z</time></trkpt><trkpt lat="38.8039964" lon="16.3215784"><ele>537.2</ele><time>2026-04-19T08:09:27.248Z</time></trkpt><trkpt lat="38.8040361" lon="16.3216414"><ele>537.0</ele><time>2026-04-19T08:09:28.237Z</time></trkpt><trkpt lat="38.8040848" lon="16.3217473"><ele>537.0</ele><time>2026-04-19T08:09:30.241Z</time></trkpt><trkpt lat="38.8040229" lon="16.3218191"><ele>537.0</ele><time>2026-04-19T08:09:33.25Z</time></trkpt><trkpt lat="38.8039533" lon="16.3218639"><ele>537.0</ele><time>2026-04-19T08:09:35.25Z</time></trkpt><trkpt lat="38.8039112" lon="16.3219608"><ele>537.0</ele><time>2026-04-19T08:09:37.233Z</time></trkpt><trkpt lat="38.8038622" lon="16.3220637"><ele>537.0</ele><time>2026-04-19T08:09:39.245Z</time></trkpt><trkpt lat="38.8037978" lon="16.3221953"><ele>538.4</ele><time>2026-04-19T08:09:41.249Z</time></trkpt><trkpt lat="38.8037508" lon="16.322267"><ele>539.8000000000001</ele><time>2026-04-19T08:09:42.249Z</time></trkpt><trkpt lat="38.8037016" lon="16.3223313"><ele>541.2</ele><time>2026-04-19T08:09:43.234Z</time></trkpt><trkpt lat="38.8036152" lon="16.3224404"><ele>542.6</ele><time>2026-04-19T08:09:45.245Z</time></trkpt><trkpt lat="38.8035205" lon="16.3225513"><ele>544.0</ele><time>2026-04-19T08:09:47.238Z</time></trkpt><trkpt lat="38.8034284" lon="16.3226556"><ele>545.3333333333334</ele><time>2026-04-19T08:09:49.244Z</time></trkpt><trkpt lat="38.8033449" lon="16.3227631"><ele>546.6666666666667</ele><time>2026-04-19T08:09:51.244Z</time></trkpt><trkpt lat="38.8032783" lon="16.3228264"><ele>548.0</ele><time>2026-04-19T08:09:53.234Z</time></trkpt><trkpt lat="38.8032039" lon="16.3228284"><ele>549.3333333333334</ele><time>2026-04-19T08:09:56.249Z</time></trkpt><trkpt lat="38.8031385" lon="16.3228077"><ele>550.6666666666666</ele><time>2026-04-19T08:10:17.287Z</time></trkpt><trkpt lat="38.8030362" lon="16.3227886"><ele>552.0</ele><time>2026-04-19T08:10:20.244Z</time></trkpt><trkpt lat="38.8029283" lon="16.3227954"><ele>552.0</ele><time>2026-04-19T08:10:22.254Z</time></trkpt><trkpt lat="38.8028222" lon="16.3227922"><ele>552.0</ele><time>2026-04-19T08:10:24.248Z</time></trkpt><trkpt lat="38.8027262" lon="16.3227829"><ele>552.0</ele><time>2026-04-19T08:10:26.229Z</time></trkpt><trkpt lat="38.8026412" lon="16.3227963"><ele>552.0</ele><time>2026-04-19T08:10:28.243Z</time></trkpt><trkpt lat="38.802561" lon="16.3228262"><ele>552.0</ele><time>2026-04-19T08:10:30.247Z</time></trkpt><trkpt lat="38.8024779" lon="16.3228639"><ele>552.4</ele><time>2026-04-19T08:10:32.234Z</time></trkpt><trkpt lat="38.8024019" lon="16.3228825"><ele>552.8000000000001</ele><time>2026-04-19T08:10:34.24Z</time></trkpt><trkpt lat="38.8023138" lon="16.3228675"><ele>553.2</ele><time>2026-04-19T08:10:36.235Z</time></trkpt><trkpt lat="38.8022028" lon="16.3228461"><ele>553.6</ele><time>2026-04-19T08:10:38.231Z</time></trkpt><trkpt lat="38.8020966" lon="16.322832"><ele>554.0</ele><time>2026-04-19T08:10:40.235Z</time></trkpt><trkpt lat="38.801984" lon="16.3228396"><ele>554.0</ele><time>2026-04-19T08:10:42.235Z</time></trkpt><trkpt lat="38.8018709" lon="16.3228627"><ele>554.0</ele><time>2026-04-19T08:10:44.233Z</time></trkpt><trkpt lat="38.8018048" lon="16.322871"><ele>554.0</ele><time>2026-04-19T08:10:45.236Z</time></trkpt><trkpt lat="38.8016892" lon="16.3228845"><ele>554.0</ele><time>2026-04-19T08:10:47.239Z</time></trkpt><trkpt lat="38.8016072" lon="16.3228933"><ele>554.0</ele><time>2026-04-19T08:10:49.236Z</time></trkpt><trkpt lat="38.8015433" lon="16.3229018"><ele>554.0</ele><time>2026-04-19T08:10:52.248Z</time></trkpt><trkpt lat="38.8014822" lon="16.3229534"><ele>550.75</ele><time>2026-04-19T08:10:54.232Z</time></trkpt><trkpt lat="38.8013838" lon="16.3230845"><ele>547.5</ele><time>2026-04-19T08:10:56.238Z</time></trkpt><trkpt lat="38.8013517" lon="16.3231697"><ele>544.25</ele><time>2026-04-19T08:10:57.236Z</time></trkpt><trkpt lat="38.801297" lon="16.3233155"><ele>541.0</ele><time>2026-04-19T08:10:59.233Z</time></trkpt><trkpt lat="38.8012442" lon="16.3234473"><ele>541.0</ele><time>2026-04-19T08:11:01.237Z</time></trkpt><trkpt lat="38.8011751" lon="16.323549"><ele>541.0</ele><time>2026-04-19T08:11:03.234Z</time></trkpt><trkpt lat="38.8011274" lon="16.3236838"><ele>541.0</ele><time>2026-04-19T08:11:05.244Z</time></trkpt><trkpt lat="38.8011083" lon="16.323761"><ele>541.0</ele><time>2026-04-19T08:11:06.236Z</time></trkpt><trkpt lat="38.8010802" lon="16.323904"><ele>541.0</ele><time>2026-04-19T08:11:08.241Z</time></trkpt><trkpt lat="38.8010807" lon="16.3240491"><ele>541.6</ele><time>2026-04-19T08:11:10.251Z</time></trkpt><trkpt lat="38.8010861" lon="16.3241736"><ele>542.2</ele><time>2026-04-19T08:11:12.238Z</time></trkpt><trkpt lat="38.8010779" lon="16.3243083"><ele>542.8</ele><time>2026-04-19T08:11:14.246Z</time></trkpt><trkpt lat="38.8010229" lon="16.3244589"><ele>543.4</ele><time>2026-04-19T08:11:16.25Z</time></trkpt><trkpt lat="38.8009911" lon="16.3245374"><ele>544.0</ele><time>2026-04-19T08:11:17.241Z</time></trkpt><trkpt lat="38.8009575" lon="16.3246084"><ele>541.8</ele><time>2026-04-19T08:11:18.233Z</time></trkpt><trkpt lat="38.8008864" lon="16.3247408"><ele>539.5999999999999</ele><time>2026-04-19T08:11:20.258Z</time></trkpt><trkpt lat="38.8008361" lon="16.3247908"><ele>537.4</ele><time>2026-04-19T08:11:21.243Z</time></trkpt><trkpt lat="38.800732" lon="16.3248761"><ele>535.1999999999999</ele><time>2026-04-19T08:11:23.242Z</time></trkpt><trkpt lat="38.8006452" lon="16.3249441"><ele>533.0</ele><time>2026-04-19T08:11:25.236Z</time></trkpt><trkpt lat="38.8005855" lon="16.3250361"><ele>533.0</ele><time>2026-04-19T08:11:28.251Z</time></trkpt><trkpt lat="38.8005446" lon="16.3251024"><ele>533.0</ele><time>2026-04-19T08:11:30.249Z</time></trkpt><trkpt lat="38.8005245" lon="16.325209"><ele>533.0</ele><time>2026-04-19T08:11:33.25Z</time></trkpt><trkpt lat="38.8005598" lon="16.3253097"><ele>533.0</ele><time>2026-04-19T08:11:36.236Z</time></trkpt><trkpt lat="38.8006106" lon="16.3253648"><ele>533.0</ele><time>2026-04-19T08:11:39.24Z</time></trkpt><trkpt lat="38.8006997" lon="16.3254312"><ele>533.0</ele><time>2026-04-19T08:11:42.241Z</time></trkpt><trkpt lat="38.8007718" lon="16.3255052"><ele>533.0</ele><time>2026-04-19T08:11:44.242Z</time></trkpt><trkpt lat="38.8008044" lon="16.3255883"><ele>533.0</ele><time>2026-04-19T08:11:46.245Z</time></trkpt><trkpt lat="38.8008248" lon="16.3256656"><ele>533.0</ele><time>2026-04-19T08:11:48.268Z</time></trkpt><trkpt lat="38.8008435" lon="16.3257455"><ele>533.0</ele><time>2026-04-19T08:11:50.335Z</time></trkpt><trkpt lat="38.8008858" lon="16.3258435"><ele>533.0</ele><time>2026-04-19T08:11:53.256Z</time></trkpt><trkpt lat="38.8009061" lon="16.3259747"><ele>533.0</ele><time>2026-04-19T08:11:55.249Z</time></trkpt><trkpt lat="38.8009248" lon="16.3260836"><ele>533.0</ele><time>2026-04-19T08:11:57.239Z</time></trkpt><trkpt lat="38.8009427" lon="16.326183"><ele>533.0</ele><time>2026-04-19T08:11:59.247Z</time></trkpt><trkpt lat="38.8009574" lon="16.3262715"><ele>533.0</ele><time>2026-04-19T08:12:01.238Z</time></trkpt><trkpt lat="38.8009748" lon="16.3263791"><ele>533.0</ele><time>2026-04-19T08:12:03.237Z</time></trkpt><trkpt lat="38.8009887" lon="16.3264772"><ele>533.0</ele><time>2026-04-19T08:12:05.241Z</time></trkpt><trkpt lat="38.8010172" lon="16.3265723"><ele>533.0</ele><time>2026-04-19T08:12:07.25Z</time></trkpt><trkpt lat="38.8010583" lon="16.3266651"><ele>532.1666666666666</ele><time>2026-04-19T08:12:09.344Z</time></trkpt><trkpt lat="38.8010893" lon="16.3267659"><ele>531.3333333333333</ele><time>2026-04-19T08:12:11.285Z</time></trkpt><trkpt lat="38.8011115" lon="16.3268739"><ele>530.5</ele><time>2026-04-19T08:12:13.238Z</time></trkpt><trkpt lat="38.8011317" lon="16.3269832"><ele>529.6666666666666</ele><time>2026-04-19T08:12:15.253Z</time></trkpt><trkpt lat="38.8011513" lon="16.3270839"><ele>528.8333333333334</ele><time>2026-04-19T08:12:17.239Z</time></trkpt><trkpt lat="38.8011666" lon="16.3271958"><ele>528.0</ele><time>2026-04-19T08:12:19.25Z</time></trkpt><trkpt lat="38.8011836" lon="16.3273042"><ele>526.3333333333334</ele><time>2026-04-19T08:12:21.239Z</time></trkpt><trkpt lat="38.8011968" lon="16.3274192"><ele>524.6666666666666</ele><time>2026-04-19T08:12:24.235Z</time></trkpt><trkpt lat="38.8012048" lon="16.3275022"><ele>523.0</ele><time>2026-04-19T08:12:27.247Z</time></trkpt><trkpt lat="38.801219" lon="16.327601"><ele>521.3333333333333</ele><time>2026-04-19T08:12:31.234Z</time></trkpt><trkpt lat="38.8012356" lon="16.3277106"><ele>519.6666666666666</ele><time>2026-04-19T08:19:51.239Z</time></trkpt><trkpt lat="38.8012546" lon="16.3277912"><ele>518.0</ele><time>2026-04-19T08:19:53.25Z</time></trkpt><trkpt lat="38.8012723" lon="16.3278891"><ele>518.0</ele><time>2026-04-19T08:19:55.25Z</time></trkpt><trkpt lat="38.8012925" lon="16.3279977"><ele>518.0</ele><time>2026-04-19T08:19:58.238Z</time></trkpt><trkpt lat="38.8013101" lon="16.3280768"><ele>518.0</ele><time>2026-04-19T08:20:01.236Z</time></trkpt><trkpt lat="38.801338" lon="16.3281678"><ele>518.0</ele><time>2026-04-19T08:53:39.249Z</time></trkpt><trkpt lat="38.8013474" lon="16.3282551"><ele>518.0</ele><time>2026-04-19T08:53:44.253Z</time></trkpt><trkpt lat="38.8013636" lon="16.3283351"><ele>518.0</ele><time>2026-04-19T08:53:48.251Z</time></trkpt><trkpt lat="38.8013699" lon="16.3284391"><ele>518.0</ele><time>2026-04-19T09:01:12.25Z</time></trkpt><trkpt lat="38.8013932" lon="16.3285366"><ele>517.2857142857143</ele><time>2026-04-19T09:01:15.25Z</time></trkpt><trkpt lat="38.8014171" lon="16.3286232"><ele>516.5714285714286</ele><time>2026-04-19T09:01:18.262Z</time></trkpt><trkpt lat="38.8014452" lon="16.328719"><ele>515.8571428571429</ele><time>2026-04-19T09:01:22.253Z</time></trkpt><trkpt lat="38.8014684" lon="16.3287965"><ele>515.1428571428571</ele><time>2026-04-19T09:01:28.243Z</time></trkpt><trkpt lat="38.8015095" lon="16.3288593"><ele>514.4285714285714</ele><time>2026-04-19T09:02:32.252Z</time></trkpt><trkpt lat="38.8015351" lon="16.3289474"><ele>513.7142857142858</ele><time>2026-04-19T09:02:36.242Z</time></trkpt><trkpt lat="38.8015648" lon="16.3290406"><ele>513.0</ele><time>2026-04-19T09:05:02.249Z</time></trkpt><trkpt lat="38.8015815" lon="16.3291265"><ele>512.2857142857143</ele><time>2026-04-19T09:05:04.24Z</time></trkpt><trkpt lat="38.8016224" lon="16.3292339"><ele>511.57142857142856</ele><time>2026-04-19T09:05:30.245Z</time></trkpt><trkpt lat="38.8016223" lon="16.3293169"><ele>510.8571428571429</ele><time>2026-04-19T09:05:35.243Z</time></trkpt><trkpt lat="38.8016259" lon="16.3294032"><ele>510.14285714285717</ele><time>2026-04-19T09:07:07.247Z</time></trkpt><trkpt lat="38.8016389" lon="16.3294931"><ele>509.42857142857144</ele><time>2026-04-19T09:11:01.232Z</time></trkpt><trkpt lat="38.8016622" lon="16.3295705"><ele>508.7142857142857</ele><time>2026-04-19T09:11:09.236Z</time></trkpt><trkpt lat="38.8016889" lon="16.3296437"><ele>508.0</ele><time>2026-04-19T09:11:16.238Z</time></trkpt><trkpt lat="38.8017102" lon="16.3297276"><ele>507.8571428571429</ele><time>2026-04-19T09:11:26.244Z</time></trkpt><trkpt lat="38.8017207" lon="16.3298121"><ele>507.71428571428567</ele><time>2026-04-19T09:13:29.241Z</time></trkpt><trkpt lat="38.8017464" lon="16.3298924"><ele>507.57142857142856</ele><time>2026-04-19T09:13:37.24Z</time></trkpt><trkpt lat="38.8017951" lon="16.3299496"><ele>507.42857142857144</ele><time>2026-04-19T09:13:46.237Z</time></trkpt><trkpt lat="38.8018457" lon="16.3300332"><ele>507.28571428571433</ele><time>2026-04-19T09:15:17.218Z</time></trkpt><trkpt lat="38.8018216" lon="16.3301173"><ele>507.1428571428571</ele><time>2026-04-19T09:15:22.235Z</time></trkpt><trkpt lat="38.8018084" lon="16.330205"><ele>507.0</ele><time>2026-04-19T09:15:28.237Z</time></trkpt><trkpt lat="38.8018458" lon="16.3303442"><ele>507.0</ele><time>2026-04-19T09:17:08.221Z</time></trkpt><trkpt lat="38.8018982" lon="16.3302964"><ele>507.0</ele><time>2026-04-19T09:17:13.243Z</time></trkpt><trkpt lat="38.8019646" lon="16.3302124"><ele>507.0</ele><time>2026-04-19T09:17:17.242Z</time></trkpt><trkpt lat="38.8020137" lon="16.3301566"><ele>507.0</ele><time>2026-04-19T09:17:26.258Z</time></trkpt><trkpt lat="38.802068" lon="16.330094"><ele>507.0</ele><time>2026-04-19T09:17:32.26Z</time></trkpt><trkpt lat="38.8021223" lon="16.3300143"><ele>507.0</ele><time>2026-04-19T09:17:35.252Z</time></trkpt><trkpt lat="38.802182" lon="16.329962"><ele>507.0</ele><time>2026-04-19T09:17:37.253Z</time></trkpt><trkpt lat="38.8022354" lon="16.3298959"><ele>507.00000000000006</ele><time>2026-04-19T09:17:40.257Z</time></trkpt><trkpt lat="38.8023084" lon="16.32986"><ele>507.00000000000006</ele><time>2026-04-19T09:18:26.251Z</time></trkpt><trkpt lat="38.80241" lon="16.3298358"><ele>507.0</ele><time>2026-04-19T09:18:29.25Z</time></trkpt><trkpt lat="38.8025274" lon="16.3297813"><ele>507.0</ele><time>2026-04-19T09:18:31.24Z</time></trkpt><trkpt lat="38.8026265" lon="16.329757"><ele>508.6666666666667</ele><time>2026-04-19T09:18:33.249Z</time></trkpt><trkpt lat="38.8027284" lon="16.3297388"><ele>510.33333333333337</ele><time>2026-04-19T09:18:35.239Z</time></trkpt><trkpt lat="38.8027915" lon="16.3297214"><ele>512.0</ele><time>2026-04-19T09:18:36.24Z</time></trkpt><trkpt lat="38.8028821" lon="16.3296984"><ele>513.6666666666667</ele><time>2026-04-19T09:18:37.245Z</time></trkpt><trkpt lat="38.8029658" lon="16.3296622"><ele>515.3333333333334</ele><time>2026-04-19T09:18:38.248Z</time></trkpt><trkpt lat="38.803053" lon="16.3296278"><ele>517.0</ele><time>2026-04-19T09:18:39.247Z</time></trkpt><trkpt lat="38.803138" lon="16.3296027"><ele>517.0</ele><time>2026-04-19T09:18:40.244Z</time></trkpt><trkpt lat="38.8032189" lon="16.3295762"><ele>517.0</ele><time>2026-04-19T09:18:41.242Z</time></trkpt><trkpt lat="38.8032908" lon="16.3295527"><ele>517.0</ele><time>2026-04-19T09:18:42.244Z</time></trkpt><trkpt lat="38.8033588" lon="16.3295306"><ele>517.0</ele><time>2026-04-19T09:18:43.252Z</time></trkpt><trkpt lat="38.8034242" lon="16.3295225"><ele>517.0</ele><time>2026-04-19T09:18:44.25Z</time></trkpt><trkpt lat="38.8034903" lon="16.3295187"><ele>517.0</ele><time>2026-04-19T09:18:45.271Z</time></trkpt><trkpt lat="38.8036036" lon="16.3295186"><ele>518.5</ele><time>2026-04-19T09:18:47.243Z</time></trkpt><trkpt lat="38.8036922" lon="16.3295231"><ele>520.0</ele><time>2026-04-19T09:18:49.251Z</time></trkpt><trkpt lat="38.8037571" lon="16.3295235"><ele>521.5</ele><time>2026-04-19T09:18:51.246Z</time></trkpt><trkpt lat="38.8038395" lon="16.3295133"><ele>523.0</ele><time>2026-04-19T09:19:02.246Z</time></trkpt><trkpt lat="38.803913" lon="16.3295371"><ele>524.5</ele><time>2026-04-19T09:19:06.233Z</time></trkpt><trkpt lat="38.803987" lon="16.3295317"><ele>526.0</ele><time>2026-04-19T09:19:10.263Z</time></trkpt><trkpt lat="38.804061" lon="16.3295565"><ele>526.0</ele><time>2026-04-19T09:20:00.269Z</time></trkpt><trkpt lat="38.8041311" lon="16.3295564"><ele>526.0</ele><time>2026-04-19T09:20:04.254Z</time></trkpt><trkpt lat="38.8042058" lon="16.3295929"><ele>526.0</ele><time>2026-04-19T09:20:07.251Z</time></trkpt><trkpt lat="38.8042514" lon="16.3296574"><ele>526.0</ele><time>2026-04-19T09:20:11.275Z</time></trkpt><trkpt lat="38.8043143" lon="16.3297393"><ele>526.0</ele><time>2026-04-19T09:20:14.255Z</time></trkpt><trkpt lat="38.8043677" lon="16.329844"><ele>526.0</ele><time>2026-04-19T09:20:16.264Z</time></trkpt><trkpt lat="38.8044148" lon="16.3299587"><ele>524.0</ele><time>2026-04-19T09:20:18.238Z</time></trkpt><trkpt lat="38.8044739" lon="16.3300653"><ele>522.0</ele><time>2026-04-19T09:20:20.251Z</time></trkpt><trkpt lat="38.8045312" lon="16.3301711"><ele>520.0</ele><time>2026-04-19T09:20:22.26Z</time></trkpt><trkpt lat="38.804573" lon="16.3302488"><ele>518.0</ele><time>2026-04-19T09:20:24.25Z</time></trkpt><trkpt lat="38.8045973" lon="16.3303282"><ele>516.0</ele><time>2026-04-19T09:20:26.254Z</time></trkpt><trkpt lat="38.8046062" lon="16.3304204"><ele>514.0</ele><time>2026-04-19T09:20:28.256Z</time></trkpt><trkpt lat="38.8045995" lon="16.3305045"><ele>513.0</ele><time>2026-04-19T09:20:30.25Z</time></trkpt><trkpt lat="38.8045827" lon="16.3306082"><ele>512.0</ele><time>2026-04-19T09:20:33.253Z</time></trkpt><trkpt lat="38.8045636" lon="16.3306974"><ele>511.0</ele><time>2026-04-19T09:20:37.244Z</time></trkpt><trkpt lat="38.8045487" lon="16.3307836"><ele>510.0</ele><time>2026-04-19T09:20:40.241Z</time></trkpt><trkpt lat="38.8045405" lon="16.3308832"><ele>509.00000000000006</ele><time>2026-04-19T09:20:45.26Z</time></trkpt><trkpt lat="38.8045532" lon="16.3309922"><ele>508.0</ele><time>2026-04-19T09:20:48.25Z</time></trkpt><trkpt lat="38.804573" lon="16.331094"><ele>508.00000000000006</ele><time>2026-04-19T09:20:50.244Z</time></trkpt><trkpt lat="38.8045692" lon="16.3311896"><ele>508.0</ele><time>2026-04-19T09:20:53.253Z</time></trkpt><trkpt lat="38.8045408" lon="16.3312883"><ele>508.0</ele><time>2026-04-19T09:20:56.247Z</time></trkpt><trkpt lat="38.8045261" lon="16.3313709"><ele>508.0</ele><time>2026-04-19T09:21:00.257Z</time></trkpt><trkpt lat="38.8045039" lon="16.3314663"><ele>508.00000000000006</ele><time>2026-04-19T09:21:03.251Z</time></trkpt><trkpt lat="38.8044897" lon="16.3315856"><ele>508.0</ele><time>2026-04-19T09:21:06.255Z</time></trkpt><trkpt lat="38.8044551" lon="16.3316805"><ele>506.83333333333337</ele><time>2026-04-19T09:21:09.258Z</time></trkpt><trkpt lat="38.8044272" lon="16.3317546"><ele>505.6666666666667</ele><time>2026-04-19T09:21:15.301Z</time></trkpt><trkpt lat="38.8043946" lon="16.3318588"><ele>504.5</ele><time>2026-04-19T09:21:18.332Z</time></trkpt><trkpt lat="38.8043837" lon="16.3319471"><ele>503.33333333333337</ele><time>2026-04-19T09:21:20.225Z</time></trkpt><trkpt lat="38.8043713" lon="16.3320279"><ele>502.1666666666667</ele><time>2026-04-19T09:21:23.286Z</time></trkpt><trkpt lat="38.8043701" lon="16.3321431"><ele>501.0</ele><time>2026-04-19T09:21:28.252Z</time></trkpt><trkpt lat="38.8043678" lon="16.3322788"><ele>501.0</ele><time>2026-04-19T09:21:32.252Z</time></trkpt><trkpt lat="38.8043537" lon="16.3323667"><ele>501.0</ele><time>2026-04-19T09:21:35.36Z</time></trkpt><trkpt lat="38.8043521" lon="16.3324528"><ele>501.0</ele><time>2026-04-19T09:21:37.564Z</time></trkpt><trkpt lat="38.8043621" lon="16.3325688"><ele>501.0</ele><time>2026-04-19T09:21:40.842Z</time></trkpt><trkpt lat="38.8043757" lon="16.3326628"><ele>501.0</ele><time>2026-04-19T09:21:43.04Z</time></trkpt><trkpt lat="38.8044031" lon="16.332738"><ele>501.0</ele><time>2026-04-19T09:21:47.292Z</time></trkpt><trkpt lat="38.8044326" lon="16.3328137"><ele>501.0</ele><time>2026-04-19T09:21:49.246Z</time></trkpt><trkpt lat="38.8044516" lon="16.3328975"><ele>501.0</ele><time>2026-04-19T09:21:52.286Z</time></trkpt><trkpt lat="38.8044488" lon="16.3330361"><ele>501.0</ele><time>2026-04-19T09:21:56.249Z</time></trkpt><trkpt lat="38.8044361" lon="16.3331197"><ele>501.0</ele><time>2026-04-19T09:21:59.241Z</time></trkpt><trkpt lat="38.8044289" lon="16.3332105"><ele>501.0</ele><time>2026-04-19T09:22:02.262Z</time></trkpt><trkpt lat="38.8044678" lon="16.3333015"><ele>501.0</ele><time>2026-04-19T09:22:05.266Z</time></trkpt><trkpt lat="38.8045256" lon="16.3333899"><ele>501.0</ele><time>2026-04-19T09:22:08.255Z</time></trkpt><trkpt lat="38.8045587" lon="16.3334605"><ele>501.57142857142856</ele><time>2026-04-19T09:22:10.247Z</time></trkpt><trkpt lat="38.8045803" lon="16.3335541"><ele>502.1428571428571</ele><time>2026-04-19T09:22:14.265Z</time></trkpt><trkpt lat="38.8045762" lon="16.3336493"><ele>502.71428571428567</ele><time>2026-04-19T09:22:18.238Z</time></trkpt><trkpt lat="38.8045757" lon="16.3337374"><ele>503.2857142857143</ele><time>2026-04-19T09:22:21.259Z</time></trkpt><trkpt lat="38.8045926" lon="16.3338208"><ele>503.8571428571428</ele><time>2026-04-19T09:22:24.251Z</time></trkpt><trkpt lat="38.8046111" lon="16.3339139"><ele>504.4285714285714</ele><time>2026-04-19T09:22:27.265Z</time></trkpt><trkpt lat="38.8046317" lon="16.3340068"><ele>505.0</ele><time>2026-04-19T09:22:29.236Z</time></trkpt><trkpt lat="38.8046476" lon="16.3341"><ele>505.6666666666667</ele><time>2026-04-19T09:22:32.241Z</time></trkpt><trkpt lat="38.8046776" lon="16.3342111"><ele>506.33333333333337</ele><time>2026-04-19T09:22:35.248Z</time></trkpt><trkpt lat="38.8047149" lon="16.3343075"><ele>507.0</ele><time>2026-04-19T09:22:38.259Z</time></trkpt><trkpt lat="38.8047165" lon="16.3344248"><ele>507.66666666666663</ele><time>2026-04-19T09:22:41.244Z</time></trkpt><trkpt lat="38.8046657" lon="16.3344867"><ele>508.3333333333333</ele><time>2026-04-19T09:22:43.25Z</time></trkpt><trkpt lat="38.804611" lon="16.3345804"><ele>509.0</ele><time>2026-04-19T09:22:46.241Z</time></trkpt><trkpt lat="38.8045649" lon="16.334664"><ele>507.5714285714285</ele><time>2026-04-19T09:22:48.256Z</time></trkpt><trkpt lat="38.8045223" lon="16.3347316"><ele>506.1428571428571</ele><time>2026-04-19T09:22:50.24Z</time></trkpt><trkpt lat="38.8044856" lon="16.3348004"><ele>504.7142857142857</ele><time>2026-04-19T09:22:52.257Z</time></trkpt><trkpt lat="38.804436" lon="16.3348638"><ele>503.2857142857143</ele><time>2026-04-19T09:22:54.241Z</time></trkpt><trkpt lat="38.8043796" lon="16.3349311"><ele>501.8571428571429</ele><time>2026-04-19T09:22:56.258Z</time></trkpt><trkpt lat="38.8043204" lon="16.3349949"><ele>500.4285714285715</ele><time>2026-04-19T09:22:58.258Z</time></trkpt><trkpt lat="38.8042555" lon="16.3350627"><ele>499.00000000000006</ele><time>2026-04-19T09:23:00.268Z</time></trkpt><trkpt lat="38.8042031" lon="16.3351251"><ele>503.00000000000006</ele><time>2026-04-19T09:23:02.242Z</time></trkpt><trkpt lat="38.804153" lon="16.3351863"><ele>507.0</ele><time>2026-04-19T09:23:04.253Z</time></trkpt><trkpt lat="38.8040782" lon="16.3352427"><ele>511.00000000000006</ele><time>2026-04-19T09:23:06.253Z</time></trkpt><trkpt lat="38.8040136" lon="16.3352815"><ele>515.0</ele><time>2026-04-19T09:23:08.242Z</time></trkpt><trkpt lat="38.8039551" lon="16.3353239"><ele>519.0</ele><time>2026-04-19T09:23:10.25Z</time></trkpt><trkpt lat="38.8038876" lon="16.3353737"><ele>523.0000000000001</ele><time>2026-04-19T09:23:12.25Z</time></trkpt><trkpt lat="38.803822" lon="16.3354117"><ele>527.0</ele><time>2026-04-19T09:23:14.234Z</time></trkpt><trkpt lat="38.8037541" lon="16.3354483"><ele>527.0</ele><time>2026-04-19T09:23:17.248Z</time></trkpt><trkpt lat="38.8036858" lon="16.3355305"><ele>527.0</ele><time>2026-04-19T09:23:20.254Z</time></trkpt><trkpt lat="38.8036223" lon="16.3356407"><ele>527.0</ele><time>2026-04-19T09:23:23.253Z</time></trkpt><trkpt lat="38.8035453" lon="16.3357285"><ele>527.0</ele><time>2026-04-19T09:23:25.253Z</time></trkpt><trkpt lat="38.8034746" lon="16.3358228"><ele>527.0</ele><time>2026-04-19T09:23:27.243Z</time></trkpt><trkpt lat="38.8034222" lon="16.3358803"><ele>531.1666666666666</ele><time>2026-04-19T09:23:28.252Z</time></trkpt><trkpt lat="38.8033803" lon="16.3359515"><ele>535.3333333333333</ele><time>2026-04-19T09:23:29.241Z</time></trkpt><trkpt lat="38.8033249" lon="16.3359926"><ele>539.5</ele><time>2026-04-19T09:23:30.24Z</time></trkpt><trkpt lat="38.8032564" lon="16.336092"><ele>543.6666666666666</ele><time>2026-04-19T09:23:32.245Z</time></trkpt><trkpt lat="38.8032083" lon="16.3362123"><ele>547.8333333333334</ele><time>2026-04-19T09:23:34.248Z</time></trkpt><trkpt lat="38.8031739" lon="16.3363148"><ele>552.0</ele><time>2026-04-19T09:23:36.254Z</time></trkpt><trkpt lat="38.8031731" lon="16.336405"><ele>552.2</ele><time>2026-04-19T09:23:38.236Z</time></trkpt><trkpt lat="38.8032318" lon="16.3365273"><ele>552.4000000000001</ele><time>2026-04-19T09:23:40.246Z</time></trkpt><trkpt lat="38.8032657" lon="16.3366301"><ele>552.5999999999999</ele><time>2026-04-19T09:23:42.247Z</time></trkpt><trkpt lat="38.8032643" lon="16.3367725"><ele>552.8</ele><time>2026-04-19T09:23:44.238Z</time></trkpt><trkpt lat="38.8032503" lon="16.336867"><ele>553.0</ele><time>2026-04-19T09:23:46.255Z</time></trkpt><trkpt lat="38.8032377" lon="16.3369605"><ele>553.0</ele><time>2026-04-19T09:23:48.234Z</time></trkpt><trkpt lat="38.8031939" lon="16.3371132"><ele>553.0</ele><time>2026-04-19T09:23:50.248Z</time></trkpt><trkpt lat="38.8031575" lon="16.3371813"><ele>553.0</ele><time>2026-04-19T09:23:51.244Z</time></trkpt><trkpt lat="38.8031121" lon="16.3372473"><ele>553.0</ele><time>2026-04-19T09:23:52.241Z</time></trkpt><trkpt lat="38.8030501" lon="16.3373516"><ele>553.0</ele><time>2026-04-19T09:23:54.254Z</time></trkpt><trkpt lat="38.8030261" lon="16.337462"><ele>553.0</ele><time>2026-04-19T09:23:56.262Z</time></trkpt><trkpt lat="38.8029931" lon="16.33754"><ele>553.0</ele><time>2026-04-19T09:23:57.245Z</time></trkpt><trkpt lat="38.8029558" lon="16.3376106"><ele>553.0</ele><time>2026-04-19T09:23:58.256Z</time></trkpt><trkpt lat="38.8028912" lon="16.3377341"><ele>553.0</ele><time>2026-04-19T09:24:00.25Z</time></trkpt><trkpt lat="38.8028784" lon="16.3378476"><ele>553.0</ele><time>2026-04-19T09:24:02.242Z</time></trkpt><trkpt lat="38.802875" lon="16.3379576"><ele>553.0</ele><time>2026-04-19T09:24:05.25Z</time></trkpt><trkpt lat="38.8028578" lon="16.3380403"><ele>552.8333333333334</ele><time>2026-04-19T09:24:07.244Z</time></trkpt><trkpt lat="38.8028632" lon="16.3381525"><ele>552.6666666666667</ele><time>2026-04-19T09:24:09.237Z</time></trkpt><trkpt lat="38.8028736" lon="16.3382381"><ele>552.5</ele><time>2026-04-19T09:24:10.239Z</time></trkpt><trkpt lat="38.8028834" lon="16.3383587"><ele>552.3333333333334</ele><time>2026-04-19T09:24:12.249Z</time></trkpt><trkpt lat="38.8028978" lon="16.3384755"><ele>552.1666666666666</ele><time>2026-04-19T09:24:14.249Z</time></trkpt><trkpt lat="38.8029281" lon="16.338607"><ele>552.0</ele><time>2026-04-19T09:24:16.241Z</time></trkpt><trkpt lat="38.8029786" lon="16.3387122"><ele>552.0</ele><time>2026-04-19T09:24:18.258Z</time></trkpt><trkpt lat="38.8030381" lon="16.3388098"><ele>552.0</ele><time>2026-04-19T09:24:20.242Z</time></trkpt><trkpt lat="38.803094" lon="16.3389164"><ele>552.0</ele><time>2026-04-19T09:24:22.249Z</time></trkpt><trkpt lat="38.8031404" lon="16.3390242"><ele>552.0</ele><time>2026-04-19T09:24:24.24Z</time></trkpt><trkpt lat="38.803193" lon="16.3391297"><ele>552.0</ele><time>2026-04-19T09:24:26.249Z</time></trkpt><trkpt lat="38.8032439" lon="16.3392471"><ele>552.4</ele><time>2026-04-19T09:24:28.247Z</time></trkpt><trkpt lat="38.8033114" lon="16.3393972"><ele>552.8000000000001</ele><time>2026-04-19T09:24:30.249Z</time></trkpt><trkpt lat="38.8033545" lon="16.339473"><ele>553.2</ele><time>2026-04-19T09:24:31.253Z</time></trkpt><trkpt lat="38.8034281" lon="16.3395436"><ele>553.6</ele><time>2026-04-19T09:24:33.245Z</time></trkpt><trkpt lat="38.8035169" lon="16.3396625"><ele>554.0</ele><time>2026-04-19T09:24:35.252Z</time></trkpt><trkpt lat="38.8035652" lon="16.3397816"><ele>554.0</ele><time>2026-04-19T09:24:37.259Z</time></trkpt><trkpt lat="38.8036004" lon="16.3398619"><ele>554.0</ele><time>2026-04-19T09:24:39.25Z</time></trkpt><trkpt lat="38.8036383" lon="16.3399473"><ele>554.0</ele><time>2026-04-19T09:24:41.25Z</time></trkpt><trkpt lat="38.8036827" lon="16.340049"><ele>554.0</ele><time>2026-04-19T09:24:43.259Z</time></trkpt><trkpt lat="38.8037184" lon="16.340128"><ele>554.0</ele><time>2026-04-19T09:24:45.263Z</time></trkpt><trkpt lat="38.8037387" lon="16.3402229"><ele>554.0</ele><time>2026-04-19T09:24:48.246Z</time></trkpt><trkpt lat="38.8037137" lon="16.3403204"><ele>554.0</ele><time>2026-04-19T09:24:51.263Z</time></trkpt><trkpt lat="38.8036581" lon="16.3404341"><ele>554.0</ele><time>2026-04-19T09:24:54.26Z</time></trkpt><trkpt lat="38.803645" lon="16.3405337"><ele>554.0</ele><time>2026-04-19T09:24:57.261Z</time></trkpt><trkpt lat="38.8037117" lon="16.340588"><ele>554.0</ele><time>2026-04-19T09:25:00.271Z</time></trkpt><trkpt lat="38.8037745" lon="16.3406116"><ele>554.0</ele><time>2026-04-19T09:25:02.255Z</time></trkpt><trkpt lat="38.8038392" lon="16.3406019"><ele>554.0</ele><time>2026-04-19T09:25:04.26Z</time></trkpt><trkpt lat="38.8039262" lon="16.3405517"><ele>554.0</ele><time>2026-04-19T09:25:07.265Z</time></trkpt><trkpt lat="38.8040098" lon="16.3405486"><ele>554.0</ele><time>2026-04-19T09:25:09.247Z</time></trkpt><trkpt lat="38.8041204" lon="16.3405571"><ele>554.0</ele><time>2026-04-19T09:25:11.255Z</time></trkpt><trkpt lat="38.8042489" lon="16.3405468"><ele>554.0</ele><time>2026-04-19T09:25:13.237Z</time></trkpt><trkpt lat="38.8043113" lon="16.3405347"><ele>554.0</ele><time>2026-04-19T09:25:14.24Z</time></trkpt><trkpt lat="38.8044224" lon="16.3405019"><ele>555.2</ele><time>2026-04-19T09:25:16.237Z</time></trkpt><trkpt lat="38.8045173" lon="16.3404886"><ele>556.4</ele><time>2026-04-19T09:25:18.239Z</time></trkpt><trkpt lat="38.8046246" lon="16.3404805"><ele>557.6</ele><time>2026-04-19T09:25:20.241Z</time></trkpt><trkpt lat="38.8047139" lon="16.3405058"><ele>558.8</ele><time>2026-04-19T09:25:23.24Z</time></trkpt><trkpt lat="38.8048057" lon="16.340536"><ele>560.0</ele><time>2026-04-19T09:25:25.24Z</time></trkpt><trkpt lat="38.8048917" lon="16.3405908"><ele>560.0</ele><time>2026-04-19T09:25:27.244Z</time></trkpt><trkpt lat="38.8049672" lon="16.3407182"><ele>560.0</ele><time>2026-04-19T09:25:29.245Z</time></trkpt><trkpt lat="38.8050024" lon="16.3407887"><ele>560.0</ele><time>2026-04-19T09:25:31.252Z</time></trkpt><trkpt lat="38.8049889" lon="16.3408795"><ele>560.0</ele><time>2026-04-19T09:25:36.268Z</time></trkpt><trkpt lat="38.8049167" lon="16.3408943"><ele>560.0</ele><time>2026-04-19T09:25:37.251Z</time></trkpt><trkpt lat="38.8048079" lon="16.3408991"><ele>560.0</ele><time>2026-04-19T09:25:38.254Z</time></trkpt><trkpt lat="38.804726" lon="16.340903"><ele>560.0</ele><time>2026-04-19T09:25:39.255Z</time></trkpt><trkpt lat="38.8046608" lon="16.3409134"><ele>560.0</ele><time>2026-04-19T09:25:40.242Z</time></trkpt><trkpt lat="38.8045788" lon="16.3409922"><ele>560.0</ele><time>2026-04-19T09:25:42.238Z</time></trkpt><trkpt lat="38.8045297" lon="16.3411402"><ele>560.0</ele><time>2026-04-19T09:25:44.241Z</time></trkpt><trkpt lat="38.8045074" lon="16.3412182"><ele>560.0</ele><time>2026-04-19T09:25:45.239Z</time></trkpt><trkpt lat="38.8044642" lon="16.3413589"><ele>562.6</ele><time>2026-04-19T09:25:47.235Z</time></trkpt><trkpt lat="38.8044273" lon="16.341469"><ele>565.2</ele><time>2026-04-19T09:25:49.263Z</time></trkpt><trkpt lat="38.8043746" lon="16.3415961"><ele>567.8</ele><time>2026-04-19T09:25:51.241Z</time></trkpt><trkpt lat="38.8043038" lon="16.3416926"><ele>570.4</ele><time>2026-04-19T09:25:53.242Z</time></trkpt><trkpt lat="38.8042157" lon="16.3417623"><ele>573.0</ele><time>2026-04-19T09:25:55.246Z</time></trkpt><trkpt lat="38.8041582" lon="16.3418074"><ele>575.4</ele><time>2026-04-19T09:25:56.245Z</time></trkpt><trkpt lat="38.8041048" lon="16.341855"><ele>577.8</ele><time>2026-04-19T09:25:57.239Z</time></trkpt><trkpt lat="38.8040363" lon="16.3419477"><ele>580.2</ele><time>2026-04-19T09:25:59.243Z</time></trkpt><trkpt lat="38.803972" lon="16.3420645"><ele>582.6</ele><time>2026-04-19T09:26:01.247Z</time></trkpt><trkpt lat="38.8039228" lon="16.3422088"><ele>585.0</ele><time>2026-04-19T09:26:03.24Z</time></trkpt><trkpt lat="38.8038904" lon="16.3423524"><ele>587.8333333333334</ele><time>2026-04-19T09:26:05.244Z</time></trkpt><trkpt lat="38.8038616" lon="16.3424647"><ele>590.6666666666666</ele><time>2026-04-19T09:26:07.24Z</time></trkpt><trkpt lat="38.803829" lon="16.3425509"><ele>593.5</ele><time>2026-04-19T09:26:09.254Z</time></trkpt><trkpt lat="38.8037856" lon="16.3426328"><ele>596.3333333333333</ele><time>2026-04-19T09:26:12.245Z</time></trkpt><trkpt lat="38.8037467" lon="16.3427054"><ele>599.1666666666666</ele><time>2026-04-19T09:26:19.234Z</time></trkpt><trkpt lat="38.8037801" lon="16.3428055"><ele>602.0</ele><time>2026-04-19T09:29:23.245Z</time></trkpt><trkpt lat="38.803765" lon="16.3428935"><ele>603.8000000000001</ele><time>2026-04-19T09:29:25.238Z</time></trkpt><trkpt lat="38.8037302" lon="16.3430539"><ele>605.6</ele><time>2026-04-19T09:29:27.245Z</time></trkpt><trkpt lat="38.8037" lon="16.3431598"><ele>607.4000000000001</ele><time>2026-04-19T09:29:28.24Z</time></trkpt><trkpt lat="38.8036555" lon="16.3432296"><ele>609.2</ele><time>2026-04-19T09:29:29.268Z</time></trkpt><trkpt lat="38.8036087" lon="16.3432899"><ele>611.0</ele><time>2026-04-19T09:29:30.253Z</time></trkpt><trkpt lat="38.8035318" lon="16.3434102"><ele>612.0000000000001</ele><time>2026-04-19T09:29:32.241Z</time></trkpt><trkpt lat="38.8034827" lon="16.3434731"><ele>613.0</ele><time>2026-04-19T09:29:33.247Z</time></trkpt><trkpt lat="38.8034272" lon="16.3435408"><ele>614.0</ele><time>2026-04-19T09:29:34.253Z</time></trkpt><trkpt lat="38.8033696" lon="16.3435989"><ele>615.0</ele><time>2026-04-19T09:29:35.243Z</time></trkpt><trkpt lat="38.8033206" lon="16.3436571"><ele>616.0</ele><time>2026-04-19T09:29:36.248Z</time></trkpt><trkpt lat="38.8032715" lon="16.3437216"><ele>617.0000000000001</ele><time>2026-04-19T09:29:37.24Z</time></trkpt><trkpt lat="38.8032148" lon="16.3437936"><ele>618.0</ele><time>2026-04-19T09:29:38.239Z</time></trkpt><trkpt lat="38.8031606" lon="16.3438667"><ele>621.4</ele><time>2026-04-19T09:29:39.247Z</time></trkpt><trkpt lat="38.8031168" lon="16.34394"><ele>624.8</ele><time>2026-04-19T09:29:40.245Z</time></trkpt><trkpt lat="38.8030409" lon="16.3440522"><ele>628.2</ele><time>2026-04-19T09:29:42.238Z</time></trkpt><trkpt lat="38.8029724" lon="16.3441509"><ele>631.6</ele><time>2026-04-19T09:29:44.248Z</time></trkpt><trkpt lat="38.8029144" lon="16.3442398"><ele>635.0</ele><time>2026-04-19T09:29:46.236Z</time></trkpt><trkpt lat="38.8028321" lon="16.3443629"><ele>635.0</ele><time>2026-04-19T09:29:48.239Z</time></trkpt><trkpt lat="38.802785" lon="16.3444398"><ele>635.0</ele><time>2026-04-19T09:29:49.243Z</time></trkpt><trkpt lat="38.8027357" lon="16.3445153"><ele>635.0</ele><time>2026-04-19T09:29:50.25Z</time></trkpt><trkpt lat="38.8026902" lon="16.3445909"><ele>635.0</ele><time>2026-04-19T09:29:51.241Z</time></trkpt><trkpt lat="38.8026581" lon="16.344683"><ele>635.0</ele><time>2026-04-19T09:29:52.242Z</time></trkpt><trkpt lat="38.8026575" lon="16.3448009"><ele>635.0</ele><time>2026-04-19T09:29:53.245Z</time></trkpt><trkpt lat="38.8026629" lon="16.3449095"><ele>636.3333333333333</ele><time>2026-04-19T09:29:54.248Z</time></trkpt><trkpt lat="38.8026724" lon="16.3450181"><ele>637.6666666666666</ele><time>2026-04-19T09:29:55.253Z</time></trkpt><trkpt lat="38.8027081" lon="16.345113"><ele>639.0</ele><time>2026-04-19T09:29:56.237Z</time></trkpt><trkpt lat="38.8027468" lon="16.3451888"><ele>640.3333333333334</ele><time>2026-04-19T09:29:57.245Z</time></trkpt><trkpt lat="38.8027887" lon="16.3452656"><ele>641.6666666666667</ele><time>2026-04-19T09:29:58.247Z</time></trkpt><trkpt lat="38.8028299" lon="16.3453294"><ele>643.0</ele><time>2026-04-19T09:29:59.236Z</time></trkpt><trkpt lat="38.8028942" lon="16.345447"><ele>645.0</ele><time>2026-04-19T09:30:01.24Z</time></trkpt><trkpt lat="38.8028997" lon="16.3455628"><ele>647.0</ele><time>2026-04-19T09:30:03.251Z</time></trkpt><trkpt lat="38.8027932" lon="16.3456391"><ele>649.0</ele><time>2026-04-19T09:30:05.25Z</time></trkpt><trkpt lat="38.8027334" lon="16.3456824"><ele>651.0</ele><time>2026-04-19T09:30:06.254Z</time></trkpt><trkpt lat="38.8026914" lon="16.3457628"><ele>653.0</ele><time>2026-04-19T09:30:07.24Z</time></trkpt><trkpt lat="38.8026587" lon="16.3458648"><ele>655.0</ele><time>2026-04-19T09:30:08.243Z</time></trkpt><trkpt lat="38.8026236" lon="16.3459664"><ele>657.3333333333334</ele><time>2026-04-19T09:30:09.25Z</time></trkpt><trkpt lat="38.802584" lon="16.3460733"><ele>659.6666666666667</ele><time>2026-04-19T09:30:10.249Z</time></trkpt><trkpt lat="38.8025415" lon="16.3461759"><ele>662.0</ele><time>2026-04-19T09:30:11.239Z</time></trkpt><trkpt lat="38.8024996" lon="16.3462694"><ele>664.3333333333334</ele><time>2026-04-19T09:30:12.25Z</time></trkpt><trkpt lat="38.8024562" lon="16.3463583"><ele>666.6666666666666</ele><time>2026-04-19T09:30:13.251Z</time></trkpt><trkpt lat="38.8024142" lon="16.3464451"><ele>669.0</ele><time>2026-04-19T09:30:14.238Z</time></trkpt><trkpt lat="38.8023723" lon="16.3465294"><ele>670.8333333333334</ele><time>2026-04-19T09:30:15.248Z</time></trkpt><trkpt lat="38.8023336" lon="16.3466128"><ele>672.6666666666666</ele><time>2026-04-19T09:30:16.238Z</time></trkpt><trkpt lat="38.8022869" lon="16.346673"><ele>674.5</ele><time>2026-04-19T09:30:17.247Z</time></trkpt><trkpt lat="38.802249" lon="16.3467679"><ele>676.3333333333333</ele><time>2026-04-19T09:30:18.251Z</time></trkpt><trkpt lat="38.8022037" lon="16.3468683"><ele>678.1666666666666</ele><time>2026-04-19T09:30:19.253Z</time></trkpt><trkpt lat="38.802157" lon="16.3469762"><ele>680.0</ele><time>2026-04-19T09:30:20.238Z</time></trkpt><trkpt lat="38.8021071" lon="16.3470837"><ele>680.0</ele><time>2026-04-19T09:30:21.255Z</time></trkpt><trkpt lat="38.8020584" lon="16.3471884"><ele>680.0</ele><time>2026-04-19T09:30:22.242Z</time></trkpt><trkpt lat="38.8020086" lon="16.347296"><ele>680.0</ele><time>2026-04-19T09:30:23.238Z</time></trkpt><trkpt lat="38.8019569" lon="16.3473976"><ele>680.0</ele><time>2026-04-19T09:30:24.245Z</time></trkpt><trkpt lat="38.8019058" lon="16.3474986"><ele>680.0</ele><time>2026-04-19T09:30:25.253Z</time></trkpt><trkpt lat="38.8018547" lon="16.3475934"><ele>682.2</ele><time>2026-04-19T09:30:26.236Z</time></trkpt><trkpt lat="38.8018034" lon="16.3476866"><ele>684.4</ele><time>2026-04-19T09:30:27.247Z</time></trkpt><trkpt lat="38.8017532" lon="16.3477788"><ele>686.5999999999999</ele><time>2026-04-19T09:30:28.263Z</time></trkpt><trkpt lat="38.8017136" lon="16.3478783"><ele>688.8</ele><time>2026-04-19T09:30:29.249Z</time></trkpt><trkpt lat="38.8016691" lon="16.3479836"><ele>691.0</ele><time>2026-04-19T09:30:30.241Z</time></trkpt><trkpt lat="38.8016245" lon="16.3480889"><ele>691.8333333333334</ele><time>2026-04-19T09:30:31.243Z</time></trkpt><trkpt lat="38.8015817" lon="16.3481859"><ele>692.6666666666667</ele><time>2026-04-19T09:30:32.238Z</time></trkpt><trkpt lat="38.8015456" lon="16.3482925"><ele>693.5</ele><time>2026-04-19T09:30:33.249Z</time></trkpt><trkpt lat="38.8015054" lon="16.3483919"><ele>694.3333333333334</ele><time>2026-04-19T09:30:34.243Z</time></trkpt><trkpt lat="38.8014649" lon="16.348471"><ele>695.1666666666666</ele><time>2026-04-19T09:30:35.243Z</time></trkpt><trkpt lat="38.801395" lon="16.3485501"><ele>696.0</ele><time>2026-04-19T09:30:37.247Z</time></trkpt><trkpt lat="38.8013775" lon="16.3486436"><ele>696.0</ele><time>2026-04-19T09:30:40.244Z</time></trkpt><trkpt lat="38.801409" lon="16.3488028"><ele>696.0</ele><time>2026-04-19T09:30:42.245Z</time></trkpt><trkpt lat="38.8014218" lon="16.3489179"><ele>696.0</ele><time>2026-04-19T09:30:43.241Z</time></trkpt><trkpt lat="38.8014329" lon="16.3490568"><ele>696.0</ele><time>2026-04-19T09:30:44.247Z</time></trkpt><trkpt lat="38.8014464" lon="16.3492147"><ele>697.5999999999999</ele><time>2026-04-19T09:30:45.244Z</time></trkpt><trkpt lat="38.8014599" lon="16.3493825"><ele>699.2</ele><time>2026-04-19T09:30:46.235Z</time></trkpt><trkpt lat="38.8014768" lon="16.3495333"><ele>700.8</ele><time>2026-04-19T09:30:47.239Z</time></trkpt><trkpt lat="38.8015122" lon="16.3496559"><ele>702.4000000000001</ele><time>2026-04-19T09:30:48.251Z</time></trkpt><trkpt lat="38.8015737" lon="16.3497453"><ele>704.0</ele><time>2026-04-19T09:30:49.241Z</time></trkpt><trkpt lat="38.8016563" lon="16.349811"><ele>704.8000000000001</ele><time>2026-04-19T09:30:50.239Z</time></trkpt><trkpt lat="38.8017599" lon="16.3498602"><ele>705.6</ele><time>2026-04-19T09:30:51.238Z</time></trkpt><trkpt lat="38.8018632" lon="16.3499036"><ele>706.4</ele><time>2026-04-19T09:30:52.24Z</time></trkpt><trkpt lat="38.8019547" lon="16.349936"><ele>707.2</ele><time>2026-04-19T09:30:53.245Z</time></trkpt><trkpt lat="38.802028" lon="16.3499563"><ele>708.0</ele><time>2026-04-19T09:30:54.242Z</time></trkpt><trkpt lat="38.8021007" lon="16.3499893"><ele>708.0</ele><time>2026-04-19T09:30:56.256Z</time></trkpt><trkpt lat="38.802086" lon="16.3501542"><ele>708.0</ele><time>2026-04-19T09:30:58.246Z</time></trkpt><trkpt lat="38.8020692" lon="16.3502738"><ele>708.0</ele><time>2026-04-19T09:30:59.255Z</time></trkpt><trkpt lat="38.8020523" lon="16.3504073"><ele>708.0</ele><time>2026-04-19T09:31:00.241Z</time></trkpt><trkpt lat="38.8020291" lon="16.3505272"><ele>708.0</ele><time>2026-04-19T09:31:01.242Z</time></trkpt><trkpt lat="38.8019969" lon="16.3506345"><ele>708.8333333333334</ele><time>2026-04-19T09:31:02.242Z</time></trkpt><trkpt lat="38.8019695" lon="16.3507355"><ele>709.6666666666666</ele><time>2026-04-19T09:31:03.25Z</time></trkpt><trkpt lat="38.8019406" lon="16.3508101"><ele>710.5</ele><time>2026-04-19T09:31:04.242Z</time></trkpt><trkpt lat="38.8018925" lon="16.3509066"><ele>711.3333333333333</ele><time>2026-04-19T09:31:06.241Z</time></trkpt><trkpt lat="38.801871" lon="16.3510146"><ele>712.1666666666666</ele><time>2026-04-19T09:31:09.242Z</time></trkpt><trkpt lat="38.8018461" lon="16.3511178"><ele>713.0</ele><time>2026-04-19T09:31:11.242Z</time></trkpt><trkpt lat="38.8018259" lon="16.3512219"><ele>714.1666666666666</ele><time>2026-04-19T09:31:13.262Z</time></trkpt><trkpt lat="38.8018101" lon="16.3513043"><ele>715.3333333333333</ele><time>2026-04-19T09:31:15.243Z</time></trkpt><trkpt lat="38.8017724" lon="16.3514038"><ele>716.5</ele><time>2026-04-19T09:31:18.266Z</time></trkpt><trkpt lat="38.8017484" lon="16.3515021"><ele>717.6666666666666</ele><time>2026-04-19T09:31:21.248Z</time></trkpt><trkpt lat="38.8017054" lon="16.3516033"><ele>718.8333333333334</ele><time>2026-04-19T09:31:24.288Z</time></trkpt><trkpt lat="38.8016787" lon="16.3516981"><ele>720.0</ele><time>2026-04-19T09:31:26.271Z</time></trkpt><trkpt lat="38.8016421" lon="16.3517915"><ele>721.5</ele><time>2026-04-19T09:31:28.322Z</time></trkpt><trkpt lat="38.8016255" lon="16.3518919"><ele>723.0</ele><time>2026-04-19T09:31:30.252Z</time></trkpt><trkpt lat="38.8016098" lon="16.3519881"><ele>724.5</ele><time>2026-04-19T09:31:32.225Z</time></trkpt><trkpt lat="38.8015829" lon="16.352093"><ele>726.0</ele><time>2026-04-19T09:31:34.294Z</time></trkpt><trkpt lat="38.8015603" lon="16.3521953"><ele>727.5</ele><time>2026-04-19T09:31:36.255Z</time></trkpt><trkpt lat="38.8015307" lon="16.3523069"><ele>729.0</ele><time>2026-04-19T09:31:38.244Z</time></trkpt><trkpt lat="38.801505" lon="16.3524091"><ele>730.0</ele><time>2026-04-19T09:31:41.239Z</time></trkpt><trkpt lat="38.801478" lon="16.3524932"><ele>731.0</ele><time>2026-04-19T09:31:53.243Z</time></trkpt><trkpt lat="38.8014316" lon="16.352557"><ele>732.0</ele><time>2026-04-19T09:31:58.244Z</time></trkpt><trkpt lat="38.801376" lon="16.3526231"><ele>733.0</ele><time>2026-04-19T09:33:26.248Z</time></trkpt><trkpt lat="38.8013255" lon="16.3526949"><ele>734.0</ele><time>2026-04-19T09:33:39.238Z</time></trkpt><trkpt lat="38.8012875" lon="16.3527605"><ele>735.0</ele><time>2026-04-19T09:33:57.243Z</time></trkpt><trkpt lat="38.8012458" lon="16.3528268"><ele>736.0</ele><time>2026-04-19T09:33:59.234Z</time></trkpt><trkpt lat="38.801197" lon="16.3528946"><ele>736.0</ele><time>2026-04-19T09:34:01.251Z</time></trkpt><trkpt lat="38.8011564" lon="16.3529778"><ele>736.0</ele><time>2026-04-19T09:34:03.255Z</time></trkpt><trkpt lat="38.8011118" lon="16.353069"><ele>736.0</ele><time>2026-04-19T09:34:05.25Z</time></trkpt><trkpt lat="38.8010484" lon="16.3531761"><ele>736.0</ele><time>2026-04-19T09:34:07.242Z</time></trkpt><trkpt lat="38.8009771" lon="16.3532983"><ele>736.0</ele><time>2026-04-19T09:34:09.251Z</time></trkpt><trkpt lat="38.8009011" lon="16.3534102"><ele>738.8571428571429</ele><time>2026-04-19T09:34:11.24Z</time></trkpt><trkpt lat="38.8008485" lon="16.3534677"><ele>741.7142857142857</ele><time>2026-04-19T09:34:12.243Z</time></trkpt><trkpt lat="38.8008028" lon="16.3535271"><ele>744.5714285714286</ele><time>2026-04-19T09:34:13.247Z</time></trkpt><trkpt lat="38.8007572" lon="16.3535836"><ele>747.4285714285714</ele><time>2026-04-19T09:34:14.241Z</time></trkpt><trkpt lat="38.8006939" lon="16.3536826"><ele>750.2857142857142</ele><time>2026-04-19T09:34:16.256Z</time></trkpt><trkpt lat="38.8006457" lon="16.3537618"><ele>753.1428571428571</ele><time>2026-04-19T09:34:18.248Z</time></trkpt><trkpt lat="38.8005931" lon="16.3538227"><ele>756.0</ele><time>2026-04-19T09:34:20.249Z</time></trkpt><trkpt lat="38.8005379" lon="16.3538908"><ele>757.6666666666666</ele><time>2026-04-19T09:34:23.245Z</time></trkpt><trkpt lat="38.8004875" lon="16.353971"><ele>759.3333333333334</ele><time>2026-04-19T09:34:25.257Z</time></trkpt><trkpt lat="38.8004467" lon="16.3540654"><ele>761.0</ele><time>2026-04-19T09:34:27.239Z</time></trkpt><trkpt lat="38.8004044" lon="16.3541359"><ele>762.6666666666667</ele><time>2026-04-19T09:34:29.255Z</time></trkpt><trkpt lat="38.8003662" lon="16.3542269"><ele>764.3333333333334</ele><time>2026-04-19T09:34:32.268Z</time></trkpt><trkpt lat="38.8003337" lon="16.3543035"><ele>766.0</ele><time>2026-04-19T09:34:34.24Z</time></trkpt><trkpt lat="38.8002867" lon="16.3543831"><ele>766.0</ele><time>2026-04-19T09:34:36.255Z</time></trkpt><trkpt lat="38.8002336" lon="16.3544386"><ele>766.0</ele><time>2026-04-19T09:34:39.255Z</time></trkpt><trkpt lat="38.8001577" lon="16.3545215"><ele>766.0</ele><time>2026-04-19T09:34:41.251Z</time></trkpt><trkpt lat="38.8000866" lon="16.3546078"><ele>766.0</ele><time>2026-04-19T09:34:43.24Z</time></trkpt><trkpt lat="38.8000214" lon="16.3546974"><ele>766.0</ele><time>2026-04-19T09:34:45.265Z</time></trkpt><trkpt lat="38.799967" lon="16.3547953"><ele>768.6666666666667</ele><time>2026-04-19T09:34:47.253Z</time></trkpt><trkpt lat="38.7999259" lon="16.3548634"><ele>771.3333333333334</ele><time>2026-04-19T09:34:49.236Z</time></trkpt><trkpt lat="38.7998871" lon="16.3549568"><ele>774.0</ele><time>2026-04-19T09:34:57.248Z</time></trkpt><trkpt lat="38.7998301" lon="16.3550278"><ele>776.6666666666667</ele><time>2026-04-19T09:35:12.253Z</time></trkpt><trkpt lat="38.7997473" lon="16.35509"><ele>779.3333333333334</ele><time>2026-04-19T09:35:15.256Z</time></trkpt><trkpt lat="38.7996901" lon="16.3551511"><ele>782.0</ele><time>2026-04-19T09:35:16.242Z</time></trkpt><trkpt lat="38.7996423" lon="16.3552239"><ele>781.9999999999999</ele><time>2026-04-19T09:35:18.247Z</time></trkpt><trkpt lat="38.7995931" lon="16.3552857"><ele>782.0</ele><time>2026-04-19T09:35:21.245Z</time></trkpt><trkpt lat="38.799533" lon="16.3553171"><ele>782.0</ele><time>2026-04-19T09:35:24.245Z</time></trkpt><trkpt lat="38.799473" lon="16.3553693"><ele>782.0</ele><time>2026-04-19T09:35:28.247Z</time></trkpt><trkpt lat="38.7994237" lon="16.3554213"><ele>782.0</ele><time>2026-04-19T09:35:32.243Z</time></trkpt><trkpt lat="38.7993689" lon="16.3554799"><ele>781.9999999999999</ele><time>2026-04-19T09:35:38.247Z</time></trkpt><trkpt lat="38.7993087" lon="16.3555305"><ele>782.0</ele><time>2026-04-19T09:35:43.243Z</time></trkpt><trkpt lat="38.7992568" lon="16.3555821"><ele>783.6666666666667</ele><time>2026-04-19T09:35:48.253Z</time></trkpt><trkpt lat="38.7991549" lon="16.3556492"><ele>785.3333333333334</ele><time>2026-04-19T09:36:06.266Z</time></trkpt><trkpt lat="38.7991032" lon="16.3557184"><ele>787.0</ele><time>2026-04-19T09:36:10.245Z</time></trkpt><trkpt lat="38.7990444" lon="16.3557889"><ele>788.6666666666667</ele><time>2026-04-19T09:36:14.239Z</time></trkpt><trkpt lat="38.7989948" lon="16.3558515"><ele>790.3333333333334</ele><time>2026-04-19T09:36:16.246Z</time></trkpt><trkpt lat="38.7989428" lon="16.355926"><ele>792.0</ele><time>2026-04-19T09:36:19.248Z</time></trkpt><trkpt lat="38.7988833" lon="16.355998"><ele>792.0</ele><time>2026-04-19T09:36:22.246Z</time></trkpt><trkpt lat="38.7988357" lon="16.3559243"><ele>792.0</ele><time>2026-04-19T09:36:29.239Z</time></trkpt><trkpt lat="38.798804" lon="16.3558294"><ele>792.0</ele><time>2026-04-19T09:36:32.232Z</time></trkpt><trkpt lat="38.7987551" lon="16.3557621"><ele>792.0</ele><time>2026-04-19T09:36:34.249Z</time></trkpt><trkpt lat="38.7986886" lon="16.3557265"><ele>792.0</ele><time>2026-04-19T09:36:35.233Z</time></trkpt><trkpt lat="38.7985868" lon="16.3557565"><ele>792.0</ele><time>2026-04-19T09:36:37.235Z</time></trkpt><trkpt lat="38.7985236" lon="16.3557936"><ele>792.5714285714286</ele><time>2026-04-19T09:36:39.243Z</time></trkpt><trkpt lat="38.7984566" lon="16.355842"><ele>793.1428571428571</ele><time>2026-04-19T09:36:41.238Z</time></trkpt><trkpt lat="38.7983854" lon="16.3558692"><ele>793.7142857142857</ele><time>2026-04-19T09:36:44.253Z</time></trkpt><trkpt lat="38.7983135" lon="16.3559021"><ele>794.2857142857142</ele><time>2026-04-19T09:36:47.239Z</time></trkpt><trkpt lat="38.7982436" lon="16.3559143"><ele>794.8571428571429</ele><time>2026-04-19T09:36:52.248Z</time></trkpt><trkpt lat="38.7981802" lon="16.3559476"><ele>795.4285714285713</ele><time>2026-04-19T09:36:56.258Z</time></trkpt><trkpt lat="38.7981233" lon="16.3559878"><ele>796.0</ele><time>2026-04-19T09:37:00.247Z</time></trkpt><trkpt lat="38.7980552" lon="16.3560426"><ele>795.9999999999999</ele><time>2026-04-19T09:37:04.236Z</time></trkpt><trkpt lat="38.7979997" lon="16.3560981"><ele>796.0</ele><time>2026-04-19T09:37:07.244Z</time></trkpt><trkpt lat="38.7979219" lon="16.3561831"><ele>796.0</ele><time>2026-04-19T09:37:09.241Z</time></trkpt><trkpt lat="38.7978479" lon="16.3562566"><ele>796.0</ele><time>2026-04-19T09:37:12.233Z</time></trkpt><trkpt lat="38.7977838" lon="16.3563346"><ele>795.9999999999999</ele><time>2026-04-19T09:37:15.248Z</time></trkpt><trkpt lat="38.7977305" lon="16.3564246"><ele>796.0</ele><time>2026-04-19T09:37:23.239Z</time></trkpt><trkpt lat="38.7976605" lon="16.3565067"><ele>796.9999999999999</ele><time>2026-04-19T09:37:25.278Z</time></trkpt><trkpt lat="38.7976007" lon="16.3565461"><ele>798.0</ele><time>2026-04-19T09:37:28.241Z</time></trkpt><trkpt lat="38.7975421" lon="16.3564937"><ele>799.0</ele><time>2026-04-19T09:37:33.243Z</time></trkpt><trkpt lat="38.7974579" lon="16.3564397"><ele>800.0</ele><time>2026-04-19T09:37:37.247Z</time></trkpt><trkpt lat="38.7973786" lon="16.3564006"><ele>800.9999999999999</ele><time>2026-04-19T09:37:39.25Z</time></trkpt><trkpt lat="38.7973104" lon="16.3563848"><ele>802.0</ele><time>2026-04-19T09:37:41.233Z</time></trkpt><trkpt lat="38.7972275" lon="16.3564088"><ele>801.9999999999999</ele><time>2026-04-19T09:37:43.252Z</time></trkpt><trkpt lat="38.7971815" lon="16.356497"><ele>802.0</ele><time>2026-04-19T09:37:45.252Z</time></trkpt><trkpt lat="38.7971676" lon="16.3566209"><ele>802.0</ele><time>2026-04-19T09:37:47.242Z</time></trkpt><trkpt lat="38.797163" lon="16.3567155"><ele>802.0</ele><time>2026-04-19T09:37:49.25Z</time></trkpt><trkpt lat="38.797167" lon="16.3568198"><ele>801.9999999999999</ele><time>2026-04-19T09:37:52.235Z</time></trkpt><trkpt lat="38.7971765" lon="16.3569092"><ele>802.0</ele><time>2026-04-19T09:37:54.231Z</time></trkpt><trkpt lat="38.7971563" lon="16.3570034"><ele>801.9999999999999</ele><time>2026-04-19T09:37:57.238Z</time></trkpt><trkpt lat="38.7970938" lon="16.3570818"><ele>802.0</ele><time>2026-04-19T09:38:00.234Z</time></trkpt><trkpt lat="38.7970783" lon="16.3571768"><ele>802.0</ele><time>2026-04-19T09:38:03.24Z</time></trkpt><trkpt lat="38.7970628" lon="16.357273"><ele>802.0</ele><time>2026-04-19T09:38:05.245Z</time></trkpt><trkpt lat="38.7970195" lon="16.3573584"><ele>801.9999999999999</ele><time>2026-04-19T09:38:07.236Z</time></trkpt><trkpt lat="38.7970036" lon="16.3574812"><ele>802.0</ele><time>2026-04-19T09:38:09.248Z</time></trkpt><trkpt lat="38.7970008" lon="16.3575629"><ele>804.8333333333333</ele><time>2026-04-19T09:38:12.241Z</time></trkpt><trkpt lat="38.7969229" lon="16.3575701"><ele>807.6666666666666</ele><time>2026-04-19T09:38:15.244Z</time></trkpt><trkpt lat="38.7968358" lon="16.3576014"><ele>810.5</ele><time>2026-04-19T09:38:18.233Z</time></trkpt><trkpt lat="38.7967568" lon="16.3576196"><ele>813.3333333333333</ele><time>2026-04-19T09:38:20.233Z</time></trkpt><trkpt lat="38.7966837" lon="16.3576232"><ele>816.1666666666666</ele><time>2026-04-19T09:38:21.249Z</time></trkpt><trkpt lat="38.7966144" lon="16.3576485"><ele>819.0</ele><time>2026-04-19T09:38:22.253Z</time></trkpt><trkpt lat="38.7965146" lon="16.3576957"><ele>820.5</ele><time>2026-04-19T09:38:23.234Z</time></trkpt><trkpt lat="38.7964363" lon="16.3577168"><ele>822.0</ele><time>2026-04-19T09:38:24.251Z</time></trkpt><trkpt lat="38.7963717" lon="16.3577373"><ele>823.5</ele><time>2026-04-19T09:38:26.238Z</time></trkpt><trkpt lat="38.7962824" lon="16.3577681"><ele>825.0</ele><time>2026-04-19T09:38:28.25Z</time></trkpt><trkpt lat="38.7962171" lon="16.3578"><ele>826.5</ele><time>2026-04-19T09:38:30.257Z</time></trkpt><trkpt lat="38.7961538" lon="16.3578321"><ele>828.0</ele><time>2026-04-19T09:38:37.242Z</time></trkpt><trkpt lat="38.796071" lon="16.3578752"><ele>830.3333333333334</ele><time>2026-04-19T09:38:39.239Z</time></trkpt><trkpt lat="38.7959606" lon="16.3579257"><ele>832.6666666666667</ele><time>2026-04-19T09:38:41.242Z</time></trkpt><trkpt lat="38.7958999" lon="16.3579515"><ele>835.0</ele><time>2026-04-19T09:38:42.234Z</time></trkpt><trkpt lat="38.7958386" lon="16.3579819"><ele>837.3333333333334</ele><time>2026-04-19T09:38:43.249Z</time></trkpt><trkpt lat="38.7957738" lon="16.3580123"><ele>839.6666666666667</ele><time>2026-04-19T09:38:44.233Z</time></trkpt><trkpt lat="38.7957043" lon="16.3580443"><ele>842.0</ele><time>2026-04-19T09:38:45.24Z</time></trkpt><trkpt lat="38.7956415" lon="16.3580746"><ele>843.0000000000001</ele><time>2026-04-19T09:38:46.236Z</time></trkpt><trkpt lat="38.7955786" lon="16.358102"><ele>844.0</ele><time>2026-04-19T09:38:47.245Z</time></trkpt><trkpt lat="38.7955136" lon="16.3581291"><ele>845.0</ele><time>2026-04-19T09:38:48.25Z</time></trkpt><trkpt lat="38.7954408" lon="16.3581561"><ele>846.0</ele><time>2026-04-19T09:38:49.24Z</time></trkpt><trkpt lat="38.7953661" lon="16.3581751"><ele>847.0000000000001</ele><time>2026-04-19T09:38:50.237Z</time></trkpt><trkpt lat="38.7952649" lon="16.358228"><ele>848.0</ele><time>2026-04-19T09:38:52.254Z</time></trkpt><trkpt lat="38.7951621" lon="16.3583402"><ele>850.0000000000001</ele><time>2026-04-19T09:38:54.245Z</time></trkpt><trkpt lat="38.7950906" lon="16.3584026"><ele>852.0</ele><time>2026-04-19T09:38:55.252Z</time></trkpt><trkpt lat="38.7950167" lon="16.3584614"><ele>854.0</ele><time>2026-04-19T09:38:56.238Z</time></trkpt><trkpt lat="38.7949314" lon="16.35852"><ele>856.0</ele><time>2026-04-19T09:38:57.252Z</time></trkpt><trkpt lat="38.7948504" lon="16.3585759"><ele>858.0000000000001</ele><time>2026-04-19T09:38:58.246Z</time></trkpt><trkpt lat="38.794782" lon="16.3586251"><ele>860.0</ele><time>2026-04-19T09:38:59.242Z</time></trkpt><trkpt lat="38.7946983" lon="16.3587185"><ele>860.0</ele><time>2026-04-19T09:39:01.251Z</time></trkpt><trkpt lat="38.794633" lon="16.3588126"><ele>860.0</ele><time>2026-04-19T09:39:03.241Z</time></trkpt><trkpt lat="38.7945646" lon="16.3589248"><ele>860.0</ele><time>2026-04-19T09:39:05.238Z</time></trkpt><trkpt lat="38.7944991" lon="16.3590425"><ele>860.0</ele><time>2026-04-19T09:39:07.253Z</time></trkpt><trkpt lat="38.7944308" lon="16.359183"><ele>862.5000000000001</ele><time>2026-04-19T09:39:09.246Z</time></trkpt><trkpt lat="38.7943672" lon="16.3592899"><ele>865.0</ele><time>2026-04-19T09:39:11.238Z</time></trkpt><trkpt lat="38.7943149" lon="16.3594011"><ele>867.5</ele><time>2026-04-19T09:39:13.242Z</time></trkpt><trkpt lat="38.794286" lon="16.359486"><ele>870.0</ele><time>2026-04-19T09:39:14.24Z</time></trkpt><trkpt lat="38.794279" lon="16.3595873"><ele>872.5000000000001</ele><time>2026-04-19T09:39:15.236Z</time></trkpt><trkpt lat="38.794268" lon="16.3597001"><ele>875.0</ele><time>2026-04-19T09:39:17.234Z</time></trkpt><trkpt lat="38.7941797" lon="16.3597462"><ele>876.5000000000001</ele><time>2026-04-19T09:39:19.268Z</time></trkpt><trkpt lat="38.7940866" lon="16.3597224"><ele>878.0</ele><time>2026-04-19T09:39:20.245Z</time></trkpt><trkpt lat="38.7939915" lon="16.3597035"><ele>879.5</ele><time>2026-04-19T09:39:21.237Z</time></trkpt><trkpt lat="38.7939157" lon="16.3597011"><ele>881.0</ele><time>2026-04-19T09:39:22.242Z</time></trkpt><trkpt lat="38.7938536" lon="16.3597297"><ele>882.5000000000001</ele><time>2026-04-19T09:39:24.238Z</time></trkpt><trkpt lat="38.7938472" lon="16.3598126"><ele>884.0</ele><time>2026-04-19T09:39:27.249Z</time></trkpt><trkpt lat="38.7938589" lon="16.3599125"><ele>884.0</ele><time>2026-04-19T09:39:29.251Z</time></trkpt><trkpt lat="38.79389" lon="16.3600374"><ele>884.0</ele><time>2026-04-19T09:39:31.246Z</time></trkpt><trkpt lat="38.7939071" lon="16.3601807"><ele>884.0</ele><time>2026-04-19T09:39:33.245Z</time></trkpt><trkpt lat="38.7939014" lon="16.360337"><ele>884.0</ele><time>2026-04-19T09:39:35.259Z</time></trkpt><trkpt lat="38.7938444" lon="16.360478"><ele>883.1666666666667</ele><time>2026-04-19T09:39:37.246Z</time></trkpt><trkpt lat="38.7938074" lon="16.3605449"><ele>882.3333333333334</ele><time>2026-04-19T09:39:38.255Z</time></trkpt><trkpt lat="38.7937626" lon="16.3606038"><ele>881.5</ele><time>2026-04-19T09:39:39.253Z</time></trkpt><trkpt lat="38.7937174" lon="16.3606626"><ele>880.6666666666667</ele><time>2026-04-19T09:39:40.256Z</time></trkpt><trkpt lat="38.7936264" lon="16.3607645"><ele>879.8333333333334</ele><time>2026-04-19T09:39:42.248Z</time></trkpt><trkpt lat="38.7935624" lon="16.3608655"><ele>879.0</ele><time>2026-04-19T09:39:44.246Z</time></trkpt><trkpt lat="38.7935506" lon="16.3609762"><ele>879.0</ele><time>2026-04-19T09:39:46.254Z</time></trkpt><trkpt lat="38.7935236" lon="16.3610655"><ele>879.0</ele><time>2026-04-19T09:39:48.25Z</time></trkpt><trkpt lat="38.7934706" lon="16.3611636"><ele>879.0</ele><time>2026-04-19T09:39:51.24Z</time></trkpt><trkpt lat="38.7934531" lon="16.3612472"><ele>879.0</ele><time>2026-04-19T09:39:53.246Z</time></trkpt><trkpt lat="38.7934523" lon="16.3613837"><ele>879.0</ele><time>2026-04-19T09:39:55.248Z</time></trkpt><trkpt lat="38.793455" lon="16.3614654"><ele>879.0</ele><time>2026-04-19T09:39:56.246Z</time></trkpt><trkpt lat="38.7934581" lon="16.3615991"><ele>875.6</ele><time>2026-04-19T09:39:58.243Z</time></trkpt><trkpt lat="38.7934621" lon="16.3617429"><ele>872.2</ele><time>2026-04-19T09:40:00.245Z</time></trkpt><trkpt lat="38.7934653" lon="16.3618236"><ele>868.8000000000001</ele><time>2026-04-19T09:40:01.236Z</time></trkpt><trkpt lat="38.7934673" lon="16.3619756"><ele>865.4000000000001</ele><time>2026-04-19T09:40:03.244Z</time></trkpt><trkpt lat="38.7934667" lon="16.3621278"><ele>862.0</ele><time>2026-04-19T09:40:05.237Z</time></trkpt><trkpt lat="38.7934846" lon="16.3622101"><ele>860.8</ele><time>2026-04-19T09:40:06.251Z</time></trkpt><trkpt lat="38.7935324" lon="16.3622947"><ele>859.6</ele><time>2026-04-19T09:40:08.234Z</time></trkpt><trkpt lat="38.7936254" lon="16.3622929"><ele>858.3999999999999</ele><time>2026-04-19T09:40:10.246Z</time></trkpt><trkpt lat="38.7937004" lon="16.3622953"><ele>857.1999999999999</ele><time>2026-04-19T09:40:11.243Z</time></trkpt><trkpt lat="38.7938174" lon="16.3623171"><ele>856.0</ele><time>2026-04-19T09:40:12.238Z</time></trkpt><trkpt lat="38.7939329" lon="16.3623602"><ele>856.0</ele><time>2026-04-19T09:40:13.247Z</time></trkpt><trkpt lat="38.7940319" lon="16.3624123"><ele>855.9999999999999</ele><time>2026-04-19T09:40:14.245Z</time></trkpt><trkpt lat="38.7940898" lon="16.362507"><ele>855.9999999999999</ele><time>2026-04-19T09:40:15.239Z</time></trkpt><trkpt lat="38.7941115" lon="16.3626481"><ele>856.0</ele><time>2026-04-19T09:40:16.242Z</time></trkpt><trkpt lat="38.7941184" lon="16.3628045"><ele>856.0</ele><time>2026-04-19T09:40:17.238Z</time></trkpt><trkpt lat="38.7941179" lon="16.362951"><ele>853.5999999999999</ele><time>2026-04-19T09:40:18.234Z</time></trkpt><trkpt lat="38.7941192" lon="16.363061"><ele>851.1999999999999</ele><time>2026-04-19T09:40:19.244Z</time></trkpt><trkpt lat="38.7941197" lon="16.3631547"><ele>848.8</ele><time>2026-04-19T09:40:20.248Z</time></trkpt><trkpt lat="38.7941248" lon="16.3632757"><ele>846.4000000000001</ele><time>2026-04-19T09:40:22.234Z</time></trkpt><trkpt lat="38.7941659" lon="16.3633737"><ele>844.0</ele><time>2026-04-19T09:40:24.248Z</time></trkpt><trkpt lat="38.7942532" lon="16.3635012"><ele>843.9999999999999</ele><time>2026-04-19T09:40:26.248Z</time></trkpt><trkpt lat="38.7942864" lon="16.3636013"><ele>844.0</ele><time>2026-04-19T09:40:27.252Z</time></trkpt><trkpt lat="38.7942897" lon="16.3637061"><ele>844.0</ele><time>2026-04-19T09:40:28.239Z</time></trkpt><trkpt lat="38.7942808" lon="16.3638024"><ele>844.0</ele><time>2026-04-19T09:40:29.245Z</time></trkpt><trkpt lat="38.7942558" lon="16.3638892"><ele>843.9999999999999</ele><time>2026-04-19T09:40:30.246Z</time></trkpt><trkpt lat="38.7942245" lon="16.3639743"><ele>844.0</ele><time>2026-04-19T09:40:31.239Z</time></trkpt><trkpt lat="38.7942052" lon="16.3640517"><ele>842.8333333333333</ele><time>2026-04-19T09:40:32.234Z</time></trkpt><trkpt lat="38.7941939" lon="16.3641731"><ele>841.6666666666666</ele><time>2026-04-19T09:40:34.245Z</time></trkpt><trkpt lat="38.7942035" lon="16.3642797"><ele>840.5</ele><time>2026-04-19T09:40:37.253Z</time></trkpt><trkpt lat="38.7942108" lon="16.3643763"><ele>839.3333333333333</ele><time>2026-04-19T09:40:40.25Z</time></trkpt><trkpt lat="38.7942117" lon="16.3644864"><ele>838.1666666666666</ele><time>2026-04-19T09:40:44.243Z</time></trkpt><trkpt lat="38.7942198" lon="16.3645774"><ele>837.0</ele><time>2026-04-19T09:40:47.25Z</time></trkpt><trkpt lat="38.7942384" lon="16.3646648"><ele>834.5</ele><time>2026-04-19T09:40:49.255Z</time></trkpt><trkpt lat="38.7942455" lon="16.3647606"><ele>832.0</ele><time>2026-04-19T09:40:51.237Z</time></trkpt><trkpt lat="38.7942415" lon="16.3648621"><ele>829.5</ele><time>2026-04-19T09:40:53.244Z</time></trkpt><trkpt lat="38.794213" lon="16.364965"><ele>827.0</ele><time>2026-04-19T09:40:56.244Z</time></trkpt><trkpt lat="38.7942052" lon="16.3650523"><ele>824.5</ele><time>2026-04-19T09:40:58.246Z</time></trkpt><trkpt lat="38.7942015" lon="16.3651522"><ele>822.0</ele><time>2026-04-19T09:41:00.237Z</time></trkpt><trkpt lat="38.7941994" lon="16.3652722"><ele>822.0</ele><time>2026-04-19T09:41:02.236Z</time></trkpt><trkpt lat="38.7941812" lon="16.3653666"><ele>822.0</ele><time>2026-04-19T09:41:04.246Z</time></trkpt><trkpt lat="38.7941576" lon="16.3654421"><ele>822.0</ele><time>2026-04-19T09:41:06.243Z</time></trkpt><trkpt lat="38.7941009" lon="16.3655379"><ele>822.0</ele><time>2026-04-19T09:41:09.247Z</time></trkpt><trkpt lat="38.7940639" lon="16.3656099"><ele>822.0</ele><time>2026-04-19T09:41:11.249Z</time></trkpt><trkpt lat="38.7940225" lon="16.3656798"><ele>822.0</ele><time>2026-04-19T09:41:13.235Z</time></trkpt><trkpt lat="38.7939858" lon="16.3657791"><ele>820.3333333333334</ele><time>2026-04-19T09:41:15.238Z</time></trkpt><trkpt lat="38.7939427" lon="16.3658975"><ele>818.6666666666667</ele><time>2026-04-19T09:41:17.243Z</time></trkpt><trkpt lat="38.7939026" lon="16.3660084"><ele>817.0</ele><time>2026-04-19T09:41:19.243Z</time></trkpt><trkpt lat="38.7938594" lon="16.3661074"><ele>815.3333333333334</ele><time>2026-04-19T09:41:21.252Z</time></trkpt><trkpt lat="38.7938089" lon="16.3661776"><ele>813.6666666666667</ele><time>2026-04-19T09:41:23.243Z</time></trkpt><trkpt lat="38.7937505" lon="16.366243"><ele>812.0</ele><time>2026-04-19T09:41:25.257Z</time></trkpt><trkpt lat="38.7937035" lon="16.3663003"><ele>810.3333333333334</ele><time>2026-04-19T09:41:27.242Z</time></trkpt><trkpt lat="38.7936401" lon="16.3663914"><ele>808.6666666666667</ele><time>2026-04-19T09:41:30.251Z</time></trkpt><trkpt lat="38.7935732" lon="16.3664665"><ele>807.0</ele><time>2026-04-19T09:41:32.248Z</time></trkpt><trkpt lat="38.7935177" lon="16.3665261"><ele>805.3333333333333</ele><time>2026-04-19T09:41:34.25Z</time></trkpt><trkpt lat="38.7934758" lon="16.3666073"><ele>803.6666666666666</ele><time>2026-04-19T09:41:37.257Z</time></trkpt><trkpt lat="38.7934861" lon="16.3667044"><ele>802.0</ele><time>2026-04-19T09:41:39.247Z</time></trkpt><trkpt lat="38.7935169" lon="16.3667933"><ele>802.0</ele><time>2026-04-19T09:41:42.248Z</time></trkpt><trkpt lat="38.7935728" lon="16.3668971"><ele>802.0</ele><time>2026-04-19T09:41:45.246Z</time></trkpt><trkpt lat="38.7936281" lon="16.3670082"><ele>802.0</ele><time>2026-04-19T09:41:47.245Z</time></trkpt><trkpt lat="38.7936889" lon="16.3671289"><ele>802.0</ele><time>2026-04-19T09:41:49.239Z</time></trkpt><trkpt lat="38.7937037" lon="16.3672185"><ele>802.0</ele><time>2026-04-19T09:41:51.256Z</time></trkpt><trkpt lat="38.793632" lon="16.3672769"><ele>801.1428571428571</ele><time>2026-04-19T09:41:53.24Z</time></trkpt><trkpt lat="38.7935836" lon="16.3673306"><ele>800.2857142857143</ele><time>2026-04-19T09:41:56.239Z</time></trkpt><trkpt lat="38.7935527" lon="16.3674249"><ele>799.4285714285713</ele><time>2026-04-19T09:42:00.247Z</time></trkpt><trkpt lat="38.7935493" lon="16.36751"><ele>798.5714285714286</ele><time>2026-04-19T09:42:03.238Z</time></trkpt><trkpt lat="38.7935602" lon="16.3676068"><ele>797.7142857142857</ele><time>2026-04-19T09:42:06.244Z</time></trkpt><trkpt lat="38.7935697" lon="16.3677014"><ele>796.8571428571428</ele><time>2026-04-19T09:42:30.246Z</time></trkpt><trkpt lat="38.7935691" lon="16.367784"><ele>796.0</ele><time>2026-04-19T09:42:40.243Z</time></trkpt><trkpt lat="38.7935934" lon="16.367871"><ele>796.0</ele><time>2026-04-19T09:43:00.244Z</time></trkpt><trkpt lat="38.7936379" lon="16.36799"><ele>796.0</ele><time>2026-04-19T09:43:03.244Z</time></trkpt><trkpt lat="38.7936731" lon="16.3681103"><ele>796.0</ele><time>2026-04-19T09:43:05.24Z</time></trkpt><trkpt lat="38.793706" lon="16.368243"><ele>796.0</ele><time>2026-04-19T09:43:07.254Z</time></trkpt><trkpt lat="38.7937232" lon="16.3683487"><ele>796.0</ele><time>2026-04-19T09:43:09.257Z</time></trkpt><trkpt lat="38.7937506" lon="16.3684647"><ele>796.0</ele><time>2026-04-19T09:43:11.232Z</time></trkpt><trkpt lat="38.7938153" lon="16.3685849"><ele>796.0</ele><time>2026-04-19T09:43:13.24Z</time></trkpt><trkpt lat="38.7938679" lon="16.3686657"><ele>796.0</ele><time>2026-04-19T09:43:14.238Z</time></trkpt><trkpt lat="38.7939195" lon="16.368758"><ele>796.0</ele><time>2026-04-19T09:43:15.238Z</time></trkpt><trkpt lat="38.7939745" lon="16.3688619"><ele>796.0</ele><time>2026-04-19T09:43:16.246Z</time></trkpt><trkpt lat="38.7940263" lon="16.3689778"><ele>795.5999999999999</ele><time>2026-04-19T09:43:17.241Z</time></trkpt><trkpt lat="38.7940725" lon="16.3690956"><ele>795.2</ele><time>2026-04-19T09:43:18.236Z</time></trkpt><trkpt lat="38.7941409" lon="16.3692136"><ele>794.8</ele><time>2026-04-19T09:43:19.243Z</time></trkpt><trkpt lat="38.7942206" lon="16.3693053"><ele>794.4000000000001</ele><time>2026-04-19T09:43:20.233Z</time></trkpt><trkpt lat="38.7943079" lon="16.3694179"><ele>794.0</ele><time>2026-04-19T09:43:21.231Z</time></trkpt><trkpt lat="38.7943767" lon="16.3695714"><ele>795.0</ele><time>2026-04-19T09:43:22.239Z</time></trkpt><trkpt lat="38.7944524" lon="16.3697157"><ele>796.0</ele><time>2026-04-19T09:43:23.227Z</time></trkpt><trkpt lat="38.7945153" lon="16.3698576"><ele>797.0</ele><time>2026-04-19T09:43:24.238Z</time></trkpt><trkpt lat="38.7945824" lon="16.3700099"><ele>798.0</ele><time>2026-04-19T09:43:25.23Z</time></trkpt><trkpt lat="38.7946349" lon="16.3701493"><ele>798.0</ele><time>2026-04-19T09:43:26.237Z</time></trkpt><trkpt lat="38.7946755" lon="16.3702804"><ele>798.0</ele><time>2026-04-19T09:43:27.24Z</time></trkpt><trkpt lat="38.7947168" lon="16.3704191"><ele>798.0</ele><time>2026-04-19T09:43:28.244Z</time></trkpt><trkpt lat="38.7947559" lon="16.3705529"><ele>798.0</ele><time>2026-04-19T09:43:29.234Z</time></trkpt><trkpt lat="38.7948131" lon="16.3707099"><ele>799.8</ele><time>2026-04-19T09:43:30.246Z</time></trkpt><trkpt lat="38.7948783" lon="16.3708394"><ele>801.5999999999999</ele><time>2026-04-19T09:43:31.243Z</time></trkpt><trkpt lat="38.7949374" lon="16.3709395"><ele>803.4000000000001</ele><time>2026-04-19T09:43:32.232Z</time></trkpt><trkpt lat="38.7949779" lon="16.3710485"><ele>805.2</ele><time>2026-04-19T09:43:33.241Z</time></trkpt><trkpt lat="38.7950192" lon="16.3711296"><ele>807.0</ele><time>2026-04-19T09:43:34.248Z</time></trkpt><trkpt lat="38.795062" lon="16.3712071"><ele>807.0</ele><time>2026-04-19T09:43:35.231Z</time></trkpt><trkpt lat="38.7951171" lon="16.3713366"><ele>807.0</ele><time>2026-04-19T09:43:36.245Z</time></trkpt><trkpt lat="38.7951747" lon="16.3714422"><ele>807.0</ele><time>2026-04-19T09:43:37.237Z</time></trkpt><trkpt lat="38.7952373" lon="16.3715496"><ele>807.0</ele><time>2026-04-19T09:43:38.235Z</time></trkpt><trkpt lat="38.7953013" lon="16.3716267"><ele>807.0</ele><time>2026-04-19T09:43:39.253Z</time></trkpt><trkpt lat="38.7953702" lon="16.3717051"><ele>807.0</ele><time>2026-04-19T09:43:40.248Z</time></trkpt><trkpt lat="38.7954472" lon="16.3718185"><ele>807.0</ele><time>2026-04-19T09:43:41.232Z</time></trkpt><trkpt lat="38.7955466" lon="16.3719719"><ele>807.0</ele><time>2026-04-19T09:43:42.241Z</time></trkpt><trkpt lat="38.7956249" lon="16.3721182"><ele>807.0</ele><time>2026-04-19T09:43:43.233Z</time></trkpt><trkpt lat="38.7957024" lon="16.3722692"><ele>808.8</ele><time>2026-04-19T09:43:44.235Z</time></trkpt><trkpt lat="38.7957606" lon="16.372402"><ele>810.6</ele><time>2026-04-19T09:43:45.243Z</time></trkpt><trkpt lat="38.7958186" lon="16.3724981"><ele>812.4</ele><time>2026-04-19T09:43:46.24Z</time></trkpt><trkpt lat="38.7958988" lon="16.3725633"><ele>814.1999999999999</ele><time>2026-04-19T09:43:47.246Z</time></trkpt><trkpt lat="38.7959779" lon="16.3726432"><ele>816.0</ele><time>2026-04-19T09:43:48.242Z</time></trkpt><trkpt lat="38.7960541" lon="16.3727273"><ele>816.0</ele><time>2026-04-19T09:43:49.245Z</time></trkpt><trkpt lat="38.7961002" lon="16.3728361"><ele>816.0</ele><time>2026-04-19T09:43:50.259Z</time></trkpt><trkpt lat="38.7961437" lon="16.3729437"><ele>816.0</ele><time>2026-04-19T09:43:51.234Z</time></trkpt><trkpt lat="38.7961932" lon="16.3730511"><ele>816.0</ele><time>2026-04-19T09:43:52.238Z</time></trkpt><trkpt lat="38.7962458" lon="16.3731596"><ele>816.0</ele><time>2026-04-19T09:43:53.245Z</time></trkpt><trkpt lat="38.7963017" lon="16.3732652"><ele>816.8333333333334</ele><time>2026-04-19T09:43:54.248Z</time></trkpt><trkpt lat="38.7963517" lon="16.3733815"><ele>817.6666666666667</ele><time>2026-04-19T09:43:55.242Z</time></trkpt><trkpt lat="38.7963969" lon="16.3734953"><ele>818.5</ele><time>2026-04-19T09:43:56.247Z</time></trkpt><trkpt lat="38.7964309" lon="16.3735849"><ele>819.3333333333334</ele><time>2026-04-19T09:43:57.266Z</time></trkpt><trkpt lat="38.7964716" lon="16.3736542"><ele>820.1666666666667</ele><time>2026-04-19T09:43:58.247Z</time></trkpt><trkpt lat="38.7965404" lon="16.3737078"><ele>821.0</ele><time>2026-04-19T09:43:59.237Z</time></trkpt><trkpt lat="38.7966235" lon="16.3737668"><ele>821.0</ele><time>2026-04-19T09:44:00.24Z</time></trkpt><trkpt lat="38.7967258" lon="16.3737816"><ele>821.0</ele><time>2026-04-19T09:44:01.242Z</time></trkpt><trkpt lat="38.7968244" lon="16.3738057"><ele>821.0</ele><time>2026-04-19T09:44:02.242Z</time></trkpt><trkpt lat="38.7969313" lon="16.3738324"><ele>821.0</ele><time>2026-04-19T09:44:03.234Z</time></trkpt><trkpt lat="38.7970472" lon="16.3738576"><ele>821.0</ele><time>2026-04-19T09:44:04.252Z</time></trkpt><trkpt lat="38.7971627" lon="16.3738678"><ele>822.5999999999999</ele><time>2026-04-19T09:44:05.253Z</time></trkpt><trkpt lat="38.7972655" lon="16.3738486"><ele>824.2</ele><time>2026-04-19T09:44:06.254Z</time></trkpt><trkpt lat="38.7973488" lon="16.3737973"><ele>825.8</ele><time>2026-04-19T09:44:07.238Z</time></trkpt><trkpt lat="38.7974127" lon="16.3737154"><ele>827.4000000000001</ele><time>2026-04-19T09:44:08.229Z</time></trkpt><trkpt lat="38.797477" lon="16.3736292"><ele>829.0</ele><time>2026-04-19T09:44:09.241Z</time></trkpt><trkpt lat="38.7975025" lon="16.3735014"><ele>829.0</ele><time>2026-04-19T09:44:10.243Z</time></trkpt><trkpt lat="38.7975313" lon="16.3733707"><ele>829.0</ele><time>2026-04-19T09:44:11.244Z</time></trkpt><trkpt lat="38.7975532" lon="16.3732394"><ele>829.0</ele><time>2026-04-19T09:44:12.235Z</time></trkpt><trkpt lat="38.7975659" lon="16.3731308"><ele>829.0</ele><time>2026-04-19T09:44:13.242Z</time></trkpt><trkpt lat="38.7975753" lon="16.3730259"><ele>829.0</ele><time>2026-04-19T09:44:15.249Z</time></trkpt><trkpt lat="38.7976422" lon="16.3729884"><ele>829.0</ele><time>2026-04-19T09:44:19.235Z</time></trkpt><trkpt lat="38.7976281" lon="16.373094"><ele>829.0</ele><time>2026-04-19T09:44:21.246Z</time></trkpt><trkpt lat="38.7975983" lon="16.373189"><ele>829.0</ele><time>2026-04-19T09:44:23.236Z</time></trkpt><trkpt lat="38.7975626" lon="16.3732972"><ele>829.0</ele><time>2026-04-19T09:44:27.234Z</time></trkpt><trkpt lat="38.7975294" lon="16.3734314"><ele>829.0</ele><time>2026-04-19T09:44:29.247Z</time></trkpt><trkpt lat="38.7974892" lon="16.373595"><ele>829.0</ele><time>2026-04-19T09:44:31.247Z</time></trkpt><trkpt lat="38.7974233" lon="16.3737241"><ele>829.0</ele><time>2026-04-19T09:44:33.239Z</time></trkpt><trkpt lat="38.7973186" lon="16.373809"><ele>829.0</ele><time>2026-04-19T09:44:35.246Z</time></trkpt><trkpt lat="38.7972588" lon="16.373845"><ele>829.0</ele><time>2026-04-19T09:44:36.241Z</time></trkpt><trkpt lat="38.7971838" lon="16.3738549"><ele>829.0</ele><time>2026-04-19T09:44:37.237Z</time></trkpt><trkpt lat="38.7971043" lon="16.373856"><ele>828.9999999999999</ele><time>2026-04-19T09:44:38.246Z</time></trkpt><trkpt lat="38.797029" lon="16.3738427"><ele>829.0</ele><time>2026-04-19T09:44:39.253Z</time></trkpt><trkpt lat="38.796951" lon="16.3738243"><ele>829.0</ele><time>2026-04-19T09:44:40.242Z</time></trkpt><trkpt lat="38.7968776" lon="16.3738006"><ele>829.0</ele><time>2026-04-19T09:44:41.257Z</time></trkpt><trkpt lat="38.7968129" lon="16.3737759"><ele>828.9999999999999</ele><time>2026-04-19T09:44:42.245Z</time></trkpt><trkpt lat="38.7967398" lon="16.3737958"><ele>829.0</ele><time>2026-04-19T09:44:44.251Z</time></trkpt><trkpt lat="38.7968579" lon="16.3739528"><ele>828.4000000000001</ele><time>2026-04-19T09:44:48.258Z</time></trkpt><trkpt lat="38.7969278" lon="16.3740202"><ele>827.8</ele><time>2026-04-19T09:44:49.239Z</time></trkpt><trkpt lat="38.7970122" lon="16.3741027"><ele>827.2</ele><time>2026-04-19T09:44:50.255Z</time></trkpt><trkpt lat="38.7971095" lon="16.3741937"><ele>826.5999999999999</ele><time>2026-04-19T09:44:51.243Z</time></trkpt><trkpt lat="38.7971991" lon="16.3742776"><ele>826.0</ele><time>2026-04-19T09:44:52.249Z</time></trkpt><trkpt lat="38.7972687" lon="16.374335"><ele>825.9999999999999</ele><time>2026-04-19T09:44:53.245Z</time></trkpt><trkpt lat="38.7973368" lon="16.3743635"><ele>826.0</ele><time>2026-04-19T09:44:54.256Z</time></trkpt><trkpt lat="38.7974072" lon="16.3743818"><ele>826.0</ele><time>2026-04-19T09:44:55.248Z</time></trkpt><trkpt lat="38.7974839" lon="16.3744153"><ele>826.0</ele><time>2026-04-19T09:44:56.247Z</time></trkpt><trkpt lat="38.7975632" lon="16.3744509"><ele>825.9999999999999</ele><time>2026-04-19T09:44:57.244Z</time></trkpt><trkpt lat="38.7976401" lon="16.3744998"><ele>826.0</ele><time>2026-04-19T09:44:58.257Z</time></trkpt><trkpt lat="38.7977097" lon="16.3745645"><ele>826.6666666666666</ele><time>2026-04-19T09:44:59.259Z</time></trkpt><trkpt lat="38.7977807" lon="16.3746306"><ele>827.3333333333333</ele><time>2026-04-19T09:45:00.249Z</time></trkpt><trkpt lat="38.7978534" lon="16.3746928"><ele>828.0</ele><time>2026-04-19T09:45:01.245Z</time></trkpt><trkpt lat="38.797931" lon="16.3747475"><ele>828.6666666666667</ele><time>2026-04-19T09:45:02.262Z</time></trkpt><trkpt lat="38.7980081" lon="16.3747776"><ele>829.3333333333334</ele><time>2026-04-19T09:45:03.248Z</time></trkpt><trkpt lat="38.7980779" lon="16.3748021"><ele>830.0</ele><time>2026-04-19T09:45:04.237Z</time></trkpt><trkpt lat="38.7981451" lon="16.3747738"><ele>827.8333333333334</ele><time>2026-04-19T09:45:05.242Z</time></trkpt><trkpt lat="38.7982217" lon="16.3747581"><ele>825.6666666666667</ele><time>2026-04-19T09:45:06.251Z</time></trkpt><trkpt lat="38.7982947" lon="16.3747922"><ele>823.5</ele><time>2026-04-19T09:45:07.25Z</time></trkpt><trkpt lat="38.7983649" lon="16.3748211"><ele>821.3333333333333</ele><time>2026-04-19T09:45:08.238Z</time></trkpt><trkpt lat="38.7984269" lon="16.3748435"><ele>819.1666666666666</ele><time>2026-04-19T09:45:09.247Z</time></trkpt><trkpt lat="38.7984873" lon="16.3749025"><ele>817.0</ele><time>2026-04-19T09:45:10.253Z</time></trkpt><trkpt lat="38.7985502" lon="16.3749691"><ele>816.6</ele><time>2026-04-19T09:45:11.244Z</time></trkpt><trkpt lat="38.798631" lon="16.375049"><ele>816.2</ele><time>2026-04-19T09:45:12.248Z</time></trkpt><trkpt lat="38.7987178" lon="16.3751213"><ele>815.8</ele><time>2026-04-19T09:45:13.252Z</time></trkpt><trkpt lat="38.7987883" lon="16.3751807"><ele>815.4</ele><time>2026-04-19T09:45:14.25Z</time></trkpt><trkpt lat="38.7988498" lon="16.3752447"><ele>815.0</ele><time>2026-04-19T09:45:15.248Z</time></trkpt><trkpt lat="38.7989222" lon="16.37532"><ele>815.0000000000001</ele><time>2026-04-19T09:45:16.251Z</time></trkpt><trkpt lat="38.7989818" lon="16.3753862"><ele>815.0</ele><time>2026-04-19T09:45:17.25Z</time></trkpt><trkpt lat="38.7990662" lon="16.3754771"><ele>815.0</ele><time>2026-04-19T09:45:19.249Z</time></trkpt><trkpt lat="38.7991296" lon="16.3754909"><ele>815.0</ele><time>2026-04-19T09:45:20.254Z</time></trkpt><trkpt lat="38.7992064" lon="16.3755013"><ele>815.0000000000001</ele><time>2026-04-19T09:45:21.241Z</time></trkpt><trkpt lat="38.7992807" lon="16.3755216"><ele>815.0</ele><time>2026-04-19T09:45:22.255Z</time></trkpt><trkpt lat="38.7992849" lon="16.3756437"><ele>812.8</ele><time>2026-04-19T09:45:25.246Z</time></trkpt><trkpt lat="38.7992333" lon="16.3757106"><ele>810.6</ele><time>2026-04-19T09:45:26.274Z</time></trkpt><trkpt lat="38.7991934" lon="16.3758075"><ele>808.4000000000001</ele><time>2026-04-19T09:45:27.243Z</time></trkpt><trkpt lat="38.7991802" lon="16.3759409"><ele>806.2</ele><time>2026-04-19T09:45:28.243Z</time></trkpt><trkpt lat="38.7991998" lon="16.3760841"><ele>804.0</ele><time>2026-04-19T09:45:29.243Z</time></trkpt><trkpt lat="38.799247" lon="16.376206"><ele>804.0</ele><time>2026-04-19T09:45:30.239Z</time></trkpt><trkpt lat="38.7993223" lon="16.3763031"><ele>804.0</ele><time>2026-04-19T09:45:31.238Z</time></trkpt><trkpt lat="38.7993951" lon="16.376369"><ele>804.0</ele><time>2026-04-19T09:45:32.243Z</time></trkpt><trkpt lat="38.7994525" lon="16.3764148"><ele>804.0</ele><time>2026-04-19T09:45:33.255Z</time></trkpt><trkpt lat="38.7995292" lon="16.376512"><ele>804.0</ele><time>2026-04-19T09:45:35.248Z</time></trkpt><trkpt lat="38.7995928" lon="16.3765837"><ele>800.25</ele><time>2026-04-19T09:45:36.258Z</time></trkpt><trkpt lat="38.7996842" lon="16.3766865"><ele>796.5</ele><time>2026-04-19T09:45:37.253Z</time></trkpt><trkpt lat="38.7997813" lon="16.3768159"><ele>792.75</ele><time>2026-04-19T09:45:38.247Z</time></trkpt><trkpt lat="38.7998707" lon="16.3769592"><ele>789.0</ele><time>2026-04-19T09:45:39.265Z</time></trkpt><trkpt lat="38.7999518" lon="16.3771012"><ele>787.6</ele><time>2026-04-19T09:45:40.251Z</time></trkpt><trkpt lat="38.8000247" lon="16.3772272"><ele>786.2</ele><time>2026-04-19T09:45:41.241Z</time></trkpt><trkpt lat="38.8000786" lon="16.3773232"><ele>784.8000000000001</ele><time>2026-04-19T09:45:42.245Z</time></trkpt><trkpt lat="38.8000748" lon="16.3774297"><ele>783.4000000000001</ele><time>2026-04-19T09:45:44.252Z</time></trkpt><trkpt lat="38.7999634" lon="16.3774382"><ele>782.0</ele><time>2026-04-19T09:45:46.258Z</time></trkpt><trkpt lat="38.7998919" lon="16.3774282"><ele>782.0</ele><time>2026-04-19T09:45:47.249Z</time></trkpt><trkpt lat="38.7998023" lon="16.3774222"><ele>782.0</ele><time>2026-04-19T09:45:48.254Z</time></trkpt><trkpt lat="38.7996926" lon="16.3774226"><ele>782.0</ele><time>2026-04-19T09:45:49.261Z</time></trkpt><trkpt lat="38.799562" lon="16.3774296"><ele>782.0</ele><time>2026-04-19T09:45:50.24Z</time></trkpt><trkpt lat="38.7994174" lon="16.3774388"><ele>782.3333333333334</ele><time>2026-04-19T09:45:51.253Z</time></trkpt><trkpt lat="38.7992719" lon="16.3774176"><ele>782.6666666666667</ele><time>2026-04-19T09:45:52.256Z</time></trkpt><trkpt lat="38.7991184" lon="16.3773508"><ele>783.0</ele><time>2026-04-19T09:45:53.246Z</time></trkpt><trkpt lat="38.7989664" lon="16.3772839"><ele>783.0</ele><time>2026-04-19T09:45:54.236Z</time></trkpt><trkpt lat="38.7988307" lon="16.3772291"><ele>783.0</ele><time>2026-04-19T09:45:55.251Z</time></trkpt><trkpt lat="38.7987177" lon="16.3771822"><ele>783.0</ele><time>2026-04-19T09:45:56.25Z</time></trkpt><trkpt lat="38.7986148" lon="16.3771324"><ele>783.0</ele><time>2026-04-19T09:45:57.257Z</time></trkpt><trkpt lat="38.7985173" lon="16.3770722"><ele>785.25</ele><time>2026-04-19T09:45:58.243Z</time></trkpt><trkpt lat="38.7984244" lon="16.3769987"><ele>787.5</ele><time>2026-04-19T09:45:59.248Z</time></trkpt><trkpt lat="38.7983344" lon="16.3769137"><ele>789.75</ele><time>2026-04-19T09:46:00.248Z</time></trkpt><trkpt lat="38.798236" lon="16.3768358"><ele>792.0</ele><time>2026-04-19T09:46:01.246Z</time></trkpt><trkpt lat="38.7981242" lon="16.3767913"><ele>792.0</ele><time>2026-04-19T09:46:02.245Z</time></trkpt><trkpt lat="38.7979932" lon="16.3767798"><ele>792.0</ele><time>2026-04-19T09:46:03.259Z</time></trkpt><trkpt lat="38.7978497" lon="16.3767923"><ele>792.0</ele><time>2026-04-19T09:46:04.241Z</time></trkpt><trkpt lat="38.7976971" lon="16.3767935"><ele>792.0</ele><time>2026-04-19T09:46:05.247Z</time></trkpt><trkpt lat="38.7975525" lon="16.3767754"><ele>792.6666666666666</ele><time>2026-04-19T09:46:06.246Z</time></trkpt><trkpt lat="38.7974412" lon="16.3767472"><ele>793.3333333333333</ele><time>2026-04-19T09:46:07.241Z</time></trkpt><trkpt lat="38.7973678" lon="16.3767161"><ele>794.0</ele><time>2026-04-19T09:46:08.247Z</time></trkpt><trkpt lat="38.7972891" lon="16.3767278"><ele>794.6666666666666</ele><time>2026-04-19T09:46:10.245Z</time></trkpt><trkpt lat="38.7972663" lon="16.3768304"><ele>795.3333333333333</ele><time>2026-04-19T09:46:18.25Z</time></trkpt><trkpt lat="38.7972621" lon="16.3769341"><ele>796.0</ele><time>2026-04-19T09:46:19.282Z</time></trkpt><trkpt lat="38.7972825" lon="16.3770625"><ele>794.8</ele><time>2026-04-19T09:46:20.252Z</time></trkpt><trkpt lat="38.7972963" lon="16.3772014"><ele>793.5999999999999</ele><time>2026-04-19T09:46:21.235Z</time></trkpt><trkpt lat="38.7973109" lon="16.3773367"><ele>792.4</ele><time>2026-04-19T09:46:22.249Z</time></trkpt><trkpt lat="38.7973338" lon="16.3774535"><ele>791.2</ele><time>2026-04-19T09:46:23.27Z</time></trkpt><trkpt lat="38.797358" lon="16.3775597"><ele>790.0</ele><time>2026-04-19T09:46:24.249Z</time></trkpt><trkpt lat="38.7973826" lon="16.3776726"><ele>790.0</ele><time>2026-04-19T09:46:25.235Z</time></trkpt><trkpt lat="38.7974104" lon="16.3777944"><ele>790.0</ele><time>2026-04-19T09:46:26.243Z</time></trkpt><trkpt lat="38.797439" lon="16.3779283"><ele>790.0</ele><time>2026-04-19T09:46:27.254Z</time></trkpt><trkpt lat="38.7974649" lon="16.3780647"><ele>790.0</ele><time>2026-04-19T09:46:28.232Z</time></trkpt><trkpt lat="38.7974927" lon="16.3782061"><ele>790.0</ele><time>2026-04-19T09:46:29.258Z</time></trkpt><trkpt lat="38.7975242" lon="16.3783562"><ele>790.25</ele><time>2026-04-19T09:46:30.25Z</time></trkpt><trkpt lat="38.7975601" lon="16.3785128"><ele>790.5</ele><time>2026-04-19T09:46:31.239Z</time></trkpt><trkpt lat="38.7976003" lon="16.3786743"><ele>790.75</ele><time>2026-04-19T09:46:32.243Z</time></trkpt><trkpt lat="38.7976435" lon="16.3788332"><ele>791.0</ele><time>2026-04-19T09:46:33.248Z</time></trkpt><trkpt lat="38.7976808" lon="16.3789941"><ele>786.75</ele><time>2026-04-19T09:46:34.235Z</time></trkpt><trkpt lat="38.7977083" lon="16.3791669"><ele>782.5</ele><time>2026-04-19T09:46:35.242Z</time></trkpt><trkpt lat="38.7977328" lon="16.3793436"><ele>778.25</ele><time>2026-04-19T09:46:36.243Z</time></trkpt><trkpt lat="38.7977592" lon="16.3795047"><ele>774.0</ele><time>2026-04-19T09:46:37.246Z</time></trkpt><trkpt lat="38.7977867" lon="16.3796204"><ele>773.4000000000001</ele><time>2026-04-19T09:46:38.231Z</time></trkpt><trkpt lat="38.7978284" lon="16.379729"><ele>772.8</ele><time>2026-04-19T09:46:39.235Z</time></trkpt><trkpt lat="38.7978987" lon="16.3798413"><ele>772.2</ele><time>2026-04-19T09:46:40.24Z</time></trkpt><trkpt lat="38.7979719" lon="16.3799557"><ele>771.5999999999999</ele><time>2026-04-19T09:46:41.237Z</time></trkpt><trkpt lat="38.7980378" lon="16.3800479"><ele>771.0</ele><time>2026-04-19T09:46:42.246Z</time></trkpt><trkpt lat="38.7980778" lon="16.3801356"><ele>771.0</ele><time>2026-04-19T09:46:43.242Z</time></trkpt><trkpt lat="38.7980922" lon="16.3802375"><ele>771.0</ele><time>2026-04-19T09:46:44.237Z</time></trkpt><trkpt lat="38.7981121" lon="16.3803593"><ele>771.0</ele><time>2026-04-19T09:46:45.259Z</time></trkpt><trkpt lat="38.7981122" lon="16.3804648"><ele>771.0</ele><time>2026-04-19T09:46:46.24Z</time></trkpt><trkpt lat="38.7981008" lon="16.3805464"><ele>771.0</ele><time>2026-04-19T09:46:47.234Z</time></trkpt><trkpt lat="38.7981191" lon="16.3806418"><ele>771.0</ele><time>2026-04-19T09:46:48.252Z</time></trkpt><trkpt lat="38.7981792" lon="16.3807604"><ele>770.1666666666666</ele><time>2026-04-19T09:46:49.246Z</time></trkpt><trkpt lat="38.7982368" lon="16.3808683"><ele>769.3333333333334</ele><time>2026-04-19T09:46:50.237Z</time></trkpt><trkpt lat="38.7982704" lon="16.3809695"><ele>768.5</ele><time>2026-04-19T09:46:51.237Z</time></trkpt><trkpt lat="38.798254" lon="16.3810507"><ele>767.6666666666667</ele><time>2026-04-19T09:46:52.242Z</time></trkpt><trkpt lat="38.7982011" lon="16.3811276"><ele>766.8333333333334</ele><time>2026-04-19T09:46:53.233Z</time></trkpt><trkpt lat="38.7981313" lon="16.3811889"><ele>766.0</ele><time>2026-04-19T09:46:54.245Z</time></trkpt><trkpt lat="38.7980414" lon="16.3811999"><ele>766.0</ele><time>2026-04-19T09:46:55.252Z</time></trkpt><trkpt lat="38.7979609" lon="16.3812164"><ele>766.0</ele><time>2026-04-19T09:46:56.233Z</time></trkpt><trkpt lat="38.7978652" lon="16.3812055"><ele>766.0</ele><time>2026-04-19T09:46:57.245Z</time></trkpt><trkpt lat="38.7977539" lon="16.3811932"><ele>766.0</ele><time>2026-04-19T09:46:58.241Z</time></trkpt><trkpt lat="38.7976405" lon="16.3812023"><ele>766.0</ele><time>2026-04-19T09:46:59.241Z</time></trkpt><trkpt lat="38.7975202" lon="16.3811776"><ele>765.5</ele><time>2026-04-19T09:47:00.247Z</time></trkpt><trkpt lat="38.7974209" lon="16.3811748"><ele>765.0</ele><time>2026-04-19T09:47:01.248Z</time></trkpt><trkpt lat="38.7973209" lon="16.3811583"><ele>764.5</ele><time>2026-04-19T09:47:02.235Z</time></trkpt><trkpt lat="38.7972419" lon="16.3811745"><ele>764.0</ele><time>2026-04-19T09:47:03.245Z</time></trkpt><trkpt lat="38.7971653" lon="16.3812007"><ele>763.5</ele><time>2026-04-19T09:47:04.241Z</time></trkpt><trkpt lat="38.7970982" lon="16.3812265"><ele>763.0</ele><time>2026-04-19T09:47:05.243Z</time></trkpt><trkpt lat="38.7970334" lon="16.3812645"><ele>763.0</ele><time>2026-04-19T09:47:06.24Z</time></trkpt><trkpt lat="38.7969512" lon="16.3812927"><ele>763.0</ele><time>2026-04-19T09:47:07.252Z</time></trkpt><trkpt lat="38.7969122" lon="16.3813908"><ele>763.0</ele><time>2026-04-19T09:47:08.262Z</time></trkpt><trkpt lat="38.7968245" lon="16.38148"><ele>763.0</ele><time>2026-04-19T09:47:09.245Z</time></trkpt><trkpt lat="38.796755" lon="16.3815586"><ele>763.0</ele><time>2026-04-19T09:47:10.249Z</time></trkpt><trkpt lat="38.7967249" lon="16.3816651"><ele>759.6666666666667</ele><time>2026-04-19T09:47:11.25Z</time></trkpt><trkpt lat="38.7967083" lon="16.3817648"><ele>756.3333333333334</ele><time>2026-04-19T09:47:12.251Z</time></trkpt><trkpt lat="38.7967098" lon="16.3818703"><ele>753.0</ele><time>2026-04-19T09:47:13.241Z</time></trkpt><trkpt lat="38.7967058" lon="16.3819914"><ele>749.6666666666666</ele><time>2026-04-19T09:47:14.235Z</time></trkpt><trkpt lat="38.7967016" lon="16.3820858"><ele>746.3333333333333</ele><time>2026-04-19T09:47:15.243Z</time></trkpt><trkpt lat="38.7967025" lon="16.3821672"><ele>743.0</ele><time>2026-04-19T09:47:17.246Z</time></trkpt><trkpt lat="38.796706" lon="16.3822637"><ele>740.8</ele><time>2026-04-19T09:47:18.241Z</time></trkpt><trkpt lat="38.7967149" lon="16.3823954"><ele>738.5999999999999</ele><time>2026-04-19T09:47:19.24Z</time></trkpt><trkpt lat="38.7967047" lon="16.3825047"><ele>736.4000000000001</ele><time>2026-04-19T09:47:20.25Z</time></trkpt><trkpt lat="38.7966734" lon="16.3826104"><ele>734.2</ele><time>2026-04-19T09:47:21.252Z</time></trkpt><trkpt lat="38.7965911" lon="16.3826809"><ele>732.0</ele><time>2026-04-19T09:47:22.244Z</time></trkpt><trkpt lat="38.7964702" lon="16.3827332"><ele>732.0</ele><time>2026-04-19T09:47:23.241Z</time></trkpt><trkpt lat="38.796329" lon="16.3827138"><ele>732.0</ele><time>2026-04-19T09:47:24.242Z</time></trkpt><trkpt lat="38.7961724" lon="16.3826681"><ele>732.0</ele><time>2026-04-19T09:47:25.246Z</time></trkpt><trkpt lat="38.79603" lon="16.3826394"><ele>732.0</ele><time>2026-04-19T09:47:26.235Z</time></trkpt><trkpt lat="38.795907" lon="16.3826268"><ele>729.5</ele><time>2026-04-19T09:47:27.244Z</time></trkpt><trkpt lat="38.795777" lon="16.3826081"><ele>727.0</ele><time>2026-04-19T09:47:28.242Z</time></trkpt><trkpt lat="38.7956617" lon="16.3825924"><ele>724.5</ele><time>2026-04-19T09:47:29.237Z</time></trkpt><trkpt lat="38.7955463" lon="16.3825383"><ele>722.0</ele><time>2026-04-19T09:47:30.245Z</time></trkpt><trkpt lat="38.7954366" lon="16.3824537"><ele>722.0</ele><time>2026-04-19T09:47:31.261Z</time></trkpt><trkpt lat="38.7953288" lon="16.3823956"><ele>722.0</ele><time>2026-04-19T09:47:32.236Z</time></trkpt><trkpt lat="38.795231" lon="16.3823347"><ele>722.0</ele><time>2026-04-19T09:47:33.239Z</time></trkpt><trkpt lat="38.7951567" lon="16.3822765"><ele>722.0</ele><time>2026-04-19T09:47:34.249Z</time></trkpt><trkpt lat="38.7951132" lon="16.3822166"><ele>722.0</ele><time>2026-04-19T09:47:35.236Z</time></trkpt><trkpt lat="38.7950803" lon="16.3821264"><ele>722.2</ele><time>2026-04-19T09:47:37.25Z</time></trkpt><trkpt lat="38.7950249" lon="16.3820037"><ele>722.4000000000001</ele><time>2026-04-19T09:48:04.247Z</time></trkpt><trkpt lat="38.7949584" lon="16.3819309"><ele>722.5999999999999</ele><time>2026-04-19T09:48:09.242Z</time></trkpt><trkpt lat="38.7948964" lon="16.3818722"><ele>722.8</ele><time>2026-04-19T09:48:12.232Z</time></trkpt><trkpt lat="38.7948217" lon="16.3818256"><ele>723.0</ele><time>2026-04-19T09:48:15.235Z</time></trkpt><trkpt lat="38.7947108" lon="16.3817896"><ele>723.0</ele><time>2026-04-19T09:48:17.237Z</time></trkpt><trkpt lat="38.7946419" lon="16.3817589"><ele>723.0</ele><time>2026-04-19T09:48:18.252Z</time></trkpt><trkpt lat="38.7945665" lon="16.381732"><ele>723.0</ele><time>2026-04-19T09:48:19.234Z</time></trkpt><trkpt lat="38.7945001" lon="16.3817221"><ele>723.0</ele><time>2026-04-19T09:48:20.242Z</time></trkpt><trkpt lat="38.7943999" lon="16.3817465"><ele>723.0</ele><time>2026-04-19T09:48:22.236Z</time></trkpt><trkpt lat="38.7943446" lon="16.381812"><ele>723.0</ele><time>2026-04-19T09:48:24.245Z</time></trkpt><trkpt lat="38.7943189" lon="16.3818886"><ele>723.0</ele><time>2026-04-19T09:48:27.235Z</time></trkpt><trkpt lat="38.7943195" lon="16.3819713"><ele>723.0</ele><time>2026-04-19T09:48:31.256Z</time></trkpt><trkpt lat="38.7943639" lon="16.3820572"><ele>723.0</ele><time>2026-04-19T09:48:51.262Z</time></trkpt><trkpt lat="38.7944204" lon="16.3821334"><ele>723.0</ele><time>2026-04-19T09:48:56.237Z</time></trkpt><trkpt lat="38.7944514" lon="16.382205"><ele>723.0</ele><time>2026-04-19T09:48:58.251Z</time></trkpt><trkpt lat="38.7944728" lon="16.382309"><ele>723.0</ele><time>2026-04-19T09:49:00.25Z</time></trkpt><trkpt lat="38.7944803" lon="16.3824167"><ele>724.0</ele><time>2026-04-19T09:49:02.256Z</time></trkpt><trkpt lat="38.7944507" lon="16.382604"><ele>725.0</ele><time>2026-04-19T09:49:04.242Z</time></trkpt><trkpt lat="38.7944286" lon="16.3827146"><ele>726.0</ele><time>2026-04-19T09:49:05.238Z</time></trkpt><trkpt lat="38.7943963" lon="16.3828266"><ele>727.0</ele><time>2026-04-19T09:49:06.264Z</time></trkpt><trkpt lat="38.7943418" lon="16.3829341"><ele>728.0</ele><time>2026-04-19T09:49:07.248Z</time></trkpt><trkpt lat="38.794266" lon="16.3830399"><ele>728.0</ele><time>2026-04-19T09:49:08.263Z</time></trkpt><trkpt lat="38.7941756" lon="16.3831538"><ele>728.0</ele><time>2026-04-19T09:49:09.246Z</time></trkpt><trkpt lat="38.7940815" lon="16.3832597"><ele>728.0</ele><time>2026-04-19T09:49:10.248Z</time></trkpt><trkpt lat="38.7939768" lon="16.3833709"><ele>728.0</ele><time>2026-04-19T09:49:11.246Z</time></trkpt><trkpt lat="38.7938837" lon="16.3834643"><ele>728.0</ele><time>2026-04-19T09:49:12.24Z</time></trkpt><trkpt lat="38.7937767" lon="16.3835447"><ele>728.0</ele><time>2026-04-19T09:49:13.234Z</time></trkpt><trkpt lat="38.7936372" lon="16.3836279"><ele>728.0</ele><time>2026-04-19T09:49:14.241Z</time></trkpt><trkpt lat="38.7934585" lon="16.3837334"><ele>731.0</ele><time>2026-04-19T09:49:15.249Z</time></trkpt><trkpt lat="38.7933051" lon="16.3838086"><ele>734.0</ele><time>2026-04-19T09:49:16.239Z</time></trkpt><trkpt lat="38.7931523" lon="16.3838776"><ele>737.0</ele><time>2026-04-19T09:49:17.249Z</time></trkpt><trkpt lat="38.7930116" lon="16.3839273"><ele>737.0</ele><time>2026-04-19T09:49:18.244Z</time></trkpt><trkpt lat="38.7928753" lon="16.3839483"><ele>737.0</ele><time>2026-04-19T09:49:19.239Z</time></trkpt><trkpt lat="38.7927566" lon="16.3839572"><ele>737.0</ele><time>2026-04-19T09:49:20.249Z</time></trkpt><trkpt lat="38.792647" lon="16.3839322"><ele>737.0</ele><time>2026-04-19T09:49:21.247Z</time></trkpt><trkpt lat="38.7925409" lon="16.3838665"><ele>741.25</ele><time>2026-04-19T09:49:22.258Z</time></trkpt><trkpt lat="38.7924282" lon="16.3837747"><ele>745.5</ele><time>2026-04-19T09:49:23.257Z</time></trkpt><trkpt lat="38.7922845" lon="16.3836743"><ele>749.75</ele><time>2026-04-19T09:49:24.241Z</time></trkpt><trkpt lat="38.7921573" lon="16.3835853"><ele>754.0</ele><time>2026-04-19T09:49:25.263Z</time></trkpt><trkpt lat="38.7920429" lon="16.3835023"><ele>754.0</ele><time>2026-04-19T09:49:26.244Z</time></trkpt><trkpt lat="38.791933" lon="16.3833844"><ele>754.0</ele><time>2026-04-19T09:49:27.238Z</time></trkpt><trkpt lat="38.7918259" lon="16.3832477"><ele>754.0</ele><time>2026-04-19T09:49:28.24Z</time></trkpt><trkpt lat="38.7917265" lon="16.3831416"><ele>754.0</ele><time>2026-04-19T09:49:29.251Z</time></trkpt><trkpt lat="38.7916316" lon="16.3830722"><ele>751.75</ele><time>2026-04-19T09:49:30.256Z</time></trkpt><trkpt lat="38.791527" lon="16.3830405"><ele>749.5</ele><time>2026-04-19T09:49:31.243Z</time></trkpt><trkpt lat="38.7914052" lon="16.3830312"><ele>747.25</ele><time>2026-04-19T09:49:32.245Z</time></trkpt><trkpt lat="38.7912802" lon="16.3830318"><ele>745.0</ele><time>2026-04-19T09:49:33.242Z</time></trkpt><trkpt lat="38.7911531" lon="16.3830234"><ele>747.2</ele><time>2026-04-19T09:49:34.241Z</time></trkpt><trkpt lat="38.7910342" lon="16.3830135"><ele>749.4</ele><time>2026-04-19T09:49:35.25Z</time></trkpt><trkpt lat="38.7909478" lon="16.3829575"><ele>751.5999999999999</ele><time>2026-04-19T09:49:36.249Z</time></trkpt><trkpt lat="38.7908937" lon="16.3828756"><ele>753.8</ele><time>2026-04-19T09:49:37.258Z</time></trkpt><trkpt lat="38.7908889" lon="16.3827455"><ele>756.0</ele><time>2026-04-19T09:49:38.238Z</time></trkpt><trkpt lat="38.7908845" lon="16.3825949"><ele>756.0</ele><time>2026-04-19T09:49:39.259Z</time></trkpt><trkpt lat="38.7909021" lon="16.3824099"><ele>756.0</ele><time>2026-04-19T09:49:40.251Z</time></trkpt><trkpt lat="38.7909153" lon="16.3822062"><ele>756.0</ele><time>2026-04-19T09:49:41.235Z</time></trkpt><trkpt lat="38.790913" lon="16.3820028"><ele>759.75</ele><time>2026-04-19T09:49:42.239Z</time></trkpt><trkpt lat="38.7908986" lon="16.3818189"><ele>763.5</ele><time>2026-04-19T09:49:43.249Z</time></trkpt><trkpt lat="38.7908647" lon="16.3816629"><ele>767.25</ele><time>2026-04-19T09:49:44.24Z</time></trkpt><trkpt lat="38.7908087" lon="16.3815049"><ele>771.0</ele><time>2026-04-19T09:49:45.249Z</time></trkpt><trkpt lat="38.7907515" lon="16.3813571"><ele>774.5</ele><time>2026-04-19T09:49:46.255Z</time></trkpt><trkpt lat="38.7906641" lon="16.3812488"><ele>778.0</ele><time>2026-04-19T09:49:47.25Z</time></trkpt><trkpt lat="38.7905385" lon="16.3811783"><ele>781.5</ele><time>2026-04-19T09:49:48.249Z</time></trkpt><trkpt lat="38.7904032" lon="16.3811467"><ele>785.0</ele><time>2026-04-19T09:49:49.244Z</time></trkpt><trkpt lat="38.790266" lon="16.3811409"><ele>785.25</ele><time>2026-04-19T09:49:50.249Z</time></trkpt><trkpt lat="38.7901408" lon="16.3811441"><ele>785.5</ele><time>2026-04-19T09:49:51.251Z</time></trkpt><trkpt lat="38.7900324" lon="16.3811079"><ele>785.75</ele><time>2026-04-19T09:49:52.242Z</time></trkpt><trkpt lat="38.7899298" lon="16.3810237"><ele>786.0</ele><time>2026-04-19T09:49:53.251Z</time></trkpt><trkpt lat="38.7898426" lon="16.3808993"><ele>786.0</ele><time>2026-04-19T09:49:54.245Z</time></trkpt><trkpt lat="38.7897903" lon="16.3807851"><ele>786.0</ele><time>2026-04-19T09:49:55.245Z</time></trkpt><trkpt lat="38.7897498" lon="16.3806907"><ele>786.0</ele><time>2026-04-19T09:49:56.245Z</time></trkpt><trkpt lat="38.7896528" lon="16.380738"><ele>786.0</ele><time>2026-04-19T09:50:41.248Z</time></trkpt><trkpt lat="38.7895687" lon="16.3807877"><ele>786.0</ele><time>2026-04-19T09:50:44.248Z</time></trkpt><trkpt lat="38.7894845" lon="16.3808483"><ele>786.0</ele><time>2026-04-19T09:50:46.253Z</time></trkpt><trkpt lat="38.7894161" lon="16.380874"><ele>786.0</ele><time>2026-04-19T09:50:47.243Z</time></trkpt><trkpt lat="38.7893356" lon="16.3808935"><ele>786.0</ele><time>2026-04-19T09:50:48.244Z</time></trkpt><trkpt lat="38.7892505" lon="16.3809149"><ele>786.0</ele><time>2026-04-19T09:50:49.242Z</time></trkpt><trkpt lat="38.789134" lon="16.3809291"><ele>786.0</ele><time>2026-04-19T09:50:50.263Z</time></trkpt><trkpt lat="38.7890009" lon="16.3809311"><ele>785.5</ele><time>2026-04-19T09:50:51.268Z</time></trkpt><trkpt lat="38.7888593" lon="16.3809239"><ele>785.0</ele><time>2026-04-19T09:50:52.257Z</time></trkpt><trkpt lat="38.7887122" lon="16.3809119"><ele>784.5</ele><time>2026-04-19T09:50:53.243Z</time></trkpt><trkpt lat="38.7885684" lon="16.3809004"><ele>784.0</ele><time>2026-04-19T09:50:54.249Z</time></trkpt><trkpt lat="38.7884415" lon="16.3808829"><ele>784.0</ele><time>2026-04-19T09:50:55.255Z</time></trkpt><trkpt lat="38.7883251" lon="16.3808652"><ele>784.0</ele><time>2026-04-19T09:50:56.257Z</time></trkpt><trkpt lat="38.7882489" lon="16.3808699"><ele>784.0</ele><time>2026-04-19T09:50:57.248Z</time></trkpt><trkpt lat="38.7881715" lon="16.3809038"><ele>784.0</ele><time>2026-04-19T09:50:58.255Z</time></trkpt><trkpt lat="38.788097" lon="16.3809581"><ele>784.0</ele><time>2026-04-19T09:50:59.261Z</time></trkpt><trkpt lat="38.7880204" lon="16.3810216"><ele>783.9999999999999</ele><time>2026-04-19T09:51:00.261Z</time></trkpt><trkpt lat="38.7879363" lon="16.3810812"><ele>784.0</ele><time>2026-04-19T09:51:01.259Z</time></trkpt><trkpt lat="38.7878566" lon="16.381138"><ele>784.0</ele><time>2026-04-19T09:51:02.255Z</time></trkpt><trkpt lat="38.7877877" lon="16.3811901"><ele>784.0</ele><time>2026-04-19T09:51:03.239Z</time></trkpt><trkpt lat="38.7877184" lon="16.3812482"><ele>783.9999999999999</ele><time>2026-04-19T09:51:04.247Z</time></trkpt><trkpt lat="38.7876493" lon="16.3812758"><ele>784.0</ele><time>2026-04-19T09:51:05.251Z</time></trkpt><trkpt lat="38.7875869" lon="16.3812975"><ele>781.6</ele><time>2026-04-19T09:51:06.251Z</time></trkpt><trkpt lat="38.7875199" lon="16.3812779"><ele>779.2</ele><time>2026-04-19T09:51:07.257Z</time></trkpt><trkpt lat="38.7874446" lon="16.3812446"><ele>776.8000000000001</ele><time>2026-04-19T09:51:08.238Z</time></trkpt><trkpt lat="38.7873463" lon="16.3812146"><ele>774.4000000000001</ele><time>2026-04-19T09:51:09.248Z</time></trkpt><trkpt lat="38.7872387" lon="16.3812043"><ele>772.0</ele><time>2026-04-19T09:51:10.246Z</time></trkpt><trkpt lat="38.7871341" lon="16.3812128"><ele>772.0</ele><time>2026-04-19T09:51:11.242Z</time></trkpt><trkpt lat="38.7870463" lon="16.3812414"><ele>772.0</ele><time>2026-04-19T09:51:12.253Z</time></trkpt><trkpt lat="38.7869693" lon="16.3812925"><ele>772.0</ele><time>2026-04-19T09:51:13.255Z</time></trkpt><trkpt lat="38.7868928" lon="16.3813468"><ele>772.0</ele><time>2026-04-19T09:51:14.242Z</time></trkpt><trkpt lat="38.7868303" lon="16.3814332"><ele>772.0</ele><time>2026-04-19T09:51:15.242Z</time></trkpt><trkpt lat="38.786806" lon="16.38155"><ele>769.4000000000001</ele><time>2026-04-19T09:51:16.25Z</time></trkpt><trkpt lat="38.7867842" lon="16.3816547"><ele>766.8000000000001</ele><time>2026-04-19T09:51:17.25Z</time></trkpt><trkpt lat="38.7867804" lon="16.3817533"><ele>764.2</ele><time>2026-04-19T09:51:18.245Z</time></trkpt><trkpt lat="38.7867757" lon="16.3818585"><ele>761.6</ele><time>2026-04-19T09:51:19.24Z</time></trkpt><trkpt lat="38.7867389" lon="16.3819671"><ele>759.0</ele><time>2026-04-19T09:51:20.242Z</time></trkpt><trkpt lat="38.7866593" lon="16.3820804"><ele>756.6</ele><time>2026-04-19T09:51:21.249Z</time></trkpt><trkpt lat="38.7865924" lon="16.3822066"><ele>754.2</ele><time>2026-04-19T09:51:22.251Z</time></trkpt><trkpt lat="38.7865366" lon="16.3823133"><ele>751.8000000000001</ele><time>2026-04-19T09:51:23.252Z</time></trkpt><trkpt lat="38.7865025" lon="16.3824087"><ele>749.4000000000001</ele><time>2026-04-19T09:51:24.238Z</time></trkpt><trkpt lat="38.7864845" lon="16.3825212"><ele>747.0</ele><time>2026-04-19T09:51:25.244Z</time></trkpt><trkpt lat="38.7864728" lon="16.3826232"><ele>747.0</ele><time>2026-04-19T09:51:26.25Z</time></trkpt><trkpt lat="38.786456" lon="16.3827392"><ele>747.0</ele><time>2026-04-19T09:51:27.242Z</time></trkpt><trkpt lat="38.7864076" lon="16.382864"><ele>747.0</ele><time>2026-04-19T09:51:28.24Z</time></trkpt><trkpt lat="38.7863352" lon="16.3829573"><ele>747.0</ele><time>2026-04-19T09:51:29.242Z</time></trkpt><trkpt lat="38.7862534" lon="16.3830404"><ele>747.0</ele><time>2026-04-19T09:51:30.244Z</time></trkpt><trkpt lat="38.7862055" lon="16.3831396"><ele>745.0</ele><time>2026-04-19T09:51:31.241Z</time></trkpt><trkpt lat="38.7861561" lon="16.3832411"><ele>743.0</ele><time>2026-04-19T09:51:32.249Z</time></trkpt><trkpt lat="38.7861059" lon="16.3833438"><ele>741.0</ele><time>2026-04-19T09:51:33.245Z</time></trkpt><trkpt lat="38.7860315" lon="16.3834067"><ele>739.0</ele><time>2026-04-19T09:51:34.238Z</time></trkpt><trkpt lat="38.7859442" lon="16.3834531"><ele>737.0</ele><time>2026-04-19T09:51:35.25Z</time></trkpt><trkpt lat="38.7858591" lon="16.3835007"><ele>736.6666666666666</ele><time>2026-04-19T09:51:36.25Z</time></trkpt><trkpt lat="38.7857733" lon="16.3835453"><ele>736.3333333333333</ele><time>2026-04-19T09:51:37.242Z</time></trkpt><trkpt lat="38.7856866" lon="16.3835937"><ele>736.0</ele><time>2026-04-19T09:51:38.252Z</time></trkpt><trkpt lat="38.7856103" lon="16.3836463"><ele>735.6666666666666</ele><time>2026-04-19T09:51:39.248Z</time></trkpt><trkpt lat="38.7855589" lon="16.3837134"><ele>735.3333333333334</ele><time>2026-04-19T09:51:40.236Z</time></trkpt><trkpt lat="38.7855068" lon="16.3837794"><ele>735.0</ele><time>2026-04-19T09:51:41.243Z</time></trkpt><trkpt lat="38.7854578" lon="16.3838626"><ele>733.5</ele><time>2026-04-19T09:51:42.246Z</time></trkpt><trkpt lat="38.7854094" lon="16.3839523"><ele>732.0</ele><time>2026-04-19T09:51:43.237Z</time></trkpt><trkpt lat="38.7853596" lon="16.3840445"><ele>730.5</ele><time>2026-04-19T09:51:44.243Z</time></trkpt><trkpt lat="38.7853058" lon="16.3841248"><ele>729.0</ele><time>2026-04-19T09:51:45.243Z</time></trkpt><trkpt lat="38.785254" lon="16.3842138"><ele>727.5</ele><time>2026-04-19T09:51:46.248Z</time></trkpt><trkpt lat="38.7852165" lon="16.3842935"><ele>726.0</ele><time>2026-04-19T09:51:47.246Z</time></trkpt><trkpt lat="38.785176" lon="16.3843593"><ele>725.0</ele><time>2026-04-19T09:51:48.238Z</time></trkpt><trkpt lat="38.7851276" lon="16.3844936"><ele>724.0</ele><time>2026-04-19T09:51:50.246Z</time></trkpt><trkpt lat="38.7851039" lon="16.3845705"><ele>723.0</ele><time>2026-04-19T09:51:51.244Z</time></trkpt><trkpt lat="38.7850409" lon="16.3847284"><ele>722.0</ele><time>2026-04-19T09:51:53.247Z</time></trkpt><trkpt lat="38.7849791" lon="16.3848004"><ele>721.0</ele><time>2026-04-19T09:51:54.242Z</time></trkpt><trkpt lat="38.7849128" lon="16.384886"><ele>720.0</ele><time>2026-04-19T09:51:55.239Z</time></trkpt><trkpt lat="38.7848411" lon="16.3849747"><ele>719.0</ele><time>2026-04-19T09:51:56.251Z</time></trkpt><trkpt lat="38.7847829" lon="16.3850502"><ele>718.0</ele><time>2026-04-19T09:51:57.243Z</time></trkpt><trkpt lat="38.7847448" lon="16.3851221"><ele>717.0</ele><time>2026-04-19T09:51:58.242Z</time></trkpt><trkpt lat="38.7847161" lon="16.3852189"><ele>716.0</ele><time>2026-04-19T09:51:59.25Z</time></trkpt><trkpt lat="38.7846899" lon="16.3853288"><ele>715.0</ele><time>2026-04-19T09:52:00.251Z</time></trkpt><trkpt lat="38.7846614" lon="16.3854258"><ele>715.0</ele><time>2026-04-19T09:52:01.234Z</time></trkpt><trkpt lat="38.784637" lon="16.3855131"><ele>715.0</ele><time>2026-04-19T09:52:02.241Z</time></trkpt><trkpt lat="38.7845477" lon="16.3855546"><ele>715.0</ele><time>2026-04-19T09:52:04.244Z</time></trkpt><trkpt lat="38.7844416" lon="16.3855217"><ele>715.0</ele><time>2026-04-19T09:52:06.242Z</time></trkpt><trkpt lat="38.7843782" lon="16.385491"><ele>715.0</ele><time>2026-04-19T09:52:07.257Z</time></trkpt><trkpt lat="38.7843007" lon="16.3854551"><ele>715.0</ele><time>2026-04-19T09:52:08.248Z</time></trkpt><trkpt lat="38.7842096" lon="16.3854238"><ele>714.5</ele><time>2026-04-19T09:52:09.239Z</time></trkpt><trkpt lat="38.7841306" lon="16.3854125"><ele>714.0</ele><time>2026-04-19T09:52:10.247Z</time></trkpt><trkpt lat="38.7840243" lon="16.3854177"><ele>713.5</ele><time>2026-04-19T09:52:12.249Z</time></trkpt><trkpt lat="38.7839739" lon="16.3854666"><ele>713.0</ele><time>2026-04-19T09:52:13.246Z</time></trkpt><trkpt lat="38.7839076" lon="16.3855559"><ele>712.5</ele><time>2026-04-19T09:52:14.255Z</time></trkpt><trkpt lat="38.7838405" lon="16.3856517"><ele>712.0</ele><time>2026-04-19T09:52:15.247Z</time></trkpt><trkpt lat="38.7837627" lon="16.3857412"><ele>710.6</ele><time>2026-04-19T09:52:16.24Z</time></trkpt><trkpt lat="38.7836759" lon="16.3858083"><ele>709.2</ele><time>2026-04-19T09:52:17.25Z</time></trkpt><trkpt lat="38.7835829" lon="16.3858562"><ele>707.8</ele><time>2026-04-19T09:52:18.241Z</time></trkpt><trkpt lat="38.7834799" lon="16.3859038"><ele>706.4</ele><time>2026-04-19T09:52:19.243Z</time></trkpt><trkpt lat="38.7833649" lon="16.3859504"><ele>705.0</ele><time>2026-04-19T09:52:20.239Z</time></trkpt><trkpt lat="38.783259" lon="16.3859868"><ele>704.5</ele><time>2026-04-19T09:52:21.238Z</time></trkpt><trkpt lat="38.7831744" lon="16.3859995"><ele>704.0</ele><time>2026-04-19T09:52:22.239Z</time></trkpt><trkpt lat="38.7831121" lon="16.3860124"><ele>703.5</ele><time>2026-04-19T09:52:23.237Z</time></trkpt><trkpt lat="38.7830149" lon="16.3860412"><ele>703.0</ele><time>2026-04-19T09:52:25.248Z</time></trkpt><trkpt lat="38.7829375" lon="16.3860898"><ele>702.5</ele><time>2026-04-19T09:52:27.245Z</time></trkpt><trkpt lat="38.7828758" lon="16.3861413"><ele>702.0</ele><time>2026-04-19T09:52:29.238Z</time></trkpt><trkpt lat="38.782814" lon="16.3862143"><ele>702.0</ele><time>2026-04-19T09:52:31.239Z</time></trkpt><trkpt lat="38.782747" lon="16.386303"><ele>702.0</ele><time>2026-04-19T09:53:56.244Z</time></trkpt><trkpt lat="38.7827206" lon="16.3863983"><ele>702.0</ele><time>2026-04-19T09:54:03.241Z</time></trkpt><trkpt lat="38.7826889" lon="16.3864998"><ele>702.0</ele><time>2026-04-19T09:54:06.237Z</time></trkpt><trkpt lat="38.7826797" lon="16.386647"><ele>702.0</ele><time>2026-04-19T09:54:08.241Z</time></trkpt><trkpt lat="38.7826627" lon="16.3867756"><ele>702.0</ele><time>2026-04-19T09:54:10.236Z</time></trkpt><trkpt lat="38.7825697" lon="16.3868725"><ele>702.0</ele><time>2026-04-19T09:54:12.25Z</time></trkpt><trkpt lat="38.7824636" lon="16.3868928"><ele>702.0</ele><time>2026-04-19T09:54:14.247Z</time></trkpt><trkpt lat="38.7823405" lon="16.3868897"><ele>702.0</ele><time>2026-04-19T09:54:16.251Z</time></trkpt><trkpt lat="38.7822397" lon="16.386889"><ele>702.0</ele><time>2026-04-19T09:54:17.23Z</time></trkpt><trkpt lat="38.7821298" lon="16.3868774"><ele>702.0</ele><time>2026-04-19T09:54:18.234Z</time></trkpt><trkpt lat="38.7820151" lon="16.3868612"><ele>702.0</ele><time>2026-04-19T09:54:19.24Z</time></trkpt><trkpt lat="38.7819114" lon="16.3868298"><ele>702.0</ele><time>2026-04-19T09:54:20.234Z</time></trkpt><trkpt lat="38.7818378" lon="16.3867936"><ele>702.0</ele><time>2026-04-19T09:54:21.243Z</time></trkpt><trkpt lat="38.7817746" lon="16.38681"><ele>701.6</ele><time>2026-04-19T09:54:42.25Z</time></trkpt><trkpt lat="38.7817337" lon="16.3869249"><ele>701.2</ele><time>2026-04-19T09:54:45.248Z</time></trkpt><trkpt lat="38.7816833" lon="16.3870313"><ele>700.8</ele><time>2026-04-19T09:54:47.237Z</time></trkpt><trkpt lat="38.7816357" lon="16.3871205"><ele>700.4</ele><time>2026-04-19T09:54:50.245Z</time></trkpt><trkpt lat="38.7815953" lon="16.3872386"><ele>700.0</ele><time>2026-04-19T09:54:52.24Z</time></trkpt><trkpt lat="38.7815598" lon="16.387343"><ele>700.0</ele><time>2026-04-19T09:54:53.241Z</time></trkpt><trkpt lat="38.781525" lon="16.3874464"><ele>700.0</ele><time>2026-04-19T09:54:54.244Z</time></trkpt><trkpt lat="38.7815083" lon="16.3875452"><ele>700.0</ele><time>2026-04-19T09:54:55.244Z</time></trkpt><trkpt lat="38.7814846" lon="16.3876434"><ele>700.0</ele><time>2026-04-19T09:54:56.248Z</time></trkpt><trkpt lat="38.7814741" lon="16.3877375"><ele>700.0</ele><time>2026-04-19T09:54:57.243Z</time></trkpt><trkpt lat="38.7814812" lon="16.3878336"><ele>700.0</ele><time>2026-04-19T09:54:58.242Z</time></trkpt><trkpt lat="38.7814887" lon="16.3879166"><ele>700.0</ele><time>2026-04-19T09:54:59.241Z</time></trkpt><trkpt lat="38.7815015" lon="16.3880036"><ele>700.0</ele><time>2026-04-19T09:55:00.238Z</time></trkpt><trkpt lat="38.7815196" lon="16.3881523"><ele>700.0</ele><time>2026-04-19T09:55:02.249Z</time></trkpt><trkpt lat="38.7815525" lon="16.3882617"><ele>700.0</ele><time>2026-04-19T09:55:04.237Z</time></trkpt><trkpt lat="38.7815897" lon="16.3883909"><ele>700.0</ele><time>2026-04-19T09:55:06.251Z</time></trkpt><trkpt lat="38.7816034" lon="16.3884705"><ele>700.0</ele><time>2026-04-19T09:55:07.243Z</time></trkpt><trkpt lat="38.7816095" lon="16.388552"><ele>699.6666666666667</ele><time>2026-04-19T09:55:08.242Z</time></trkpt><trkpt lat="38.7815884" lon="16.3886991"><ele>699.3333333333334</ele><time>2026-04-19T09:55:10.239Z</time></trkpt><trkpt lat="38.7815757" lon="16.38878"><ele>699.0</ele><time>2026-04-19T09:55:11.238Z</time></trkpt><trkpt lat="38.78156" lon="16.3888835"><ele>698.6666666666666</ele><time>2026-04-19T09:55:13.236Z</time></trkpt><trkpt lat="38.781557" lon="16.3889667"><ele>698.3333333333333</ele><time>2026-04-19T09:55:15.254Z</time></trkpt><trkpt lat="38.7815512" lon="16.3890723"><ele>698.0</ele><time>2026-04-19T09:55:20.244Z</time></trkpt><trkpt lat="38.7815473" lon="16.3891931"><ele>698.0</ele><time>2026-04-19T09:55:23.243Z</time></trkpt><trkpt lat="38.7815624" lon="16.389272"><ele>698.0</ele><time>2026-04-19T09:55:24.245Z</time></trkpt><trkpt lat="38.7815627" lon="16.3893696"><ele>698.0</ele><time>2026-04-19T09:55:26.244Z</time></trkpt><trkpt lat="38.781486" lon="16.3894071"><ele>698.0</ele><time>2026-04-19T09:55:30.232Z</time></trkpt><trkpt lat="38.7814096" lon="16.3894903"><ele>698.0</ele><time>2026-04-19T09:55:32.245Z</time></trkpt><trkpt lat="38.7813098" lon="16.389566"><ele>698.0</ele><time>2026-04-19T09:55:34.241Z</time></trkpt><trkpt lat="38.7812062" lon="16.389599"><ele>698.0</ele><time>2026-04-19T09:55:36.237Z</time></trkpt><trkpt lat="38.7811449" lon="16.3895668"><ele>698.0</ele><time>2026-04-19T09:55:39.245Z</time></trkpt><trkpt lat="38.7810562" lon="16.3895407"><ele>698.0</ele><time>2026-04-19T09:55:44.248Z</time></trkpt><trkpt lat="38.7809804" lon="16.3895111"><ele>698.0</ele><time>2026-04-19T09:55:46.25Z</time></trkpt><trkpt lat="38.7809091" lon="16.3895032"><ele>698.0</ele><time>2026-04-19T09:55:48.247Z</time></trkpt><trkpt lat="38.7808489" lon="16.389477"><ele>698.0</ele><time>2026-04-19T09:55:51.237Z</time></trkpt><trkpt lat="38.7808041" lon="16.3893924"><ele>698.6666666666666</ele><time>2026-04-19T09:55:54.246Z</time></trkpt><trkpt lat="38.7807801" lon="16.3893123"><ele>699.3333333333333</ele><time>2026-04-19T09:55:56.246Z</time></trkpt><trkpt lat="38.7807483" lon="16.3892328"><ele>700.0</ele><time>2026-04-19T09:55:58.24Z</time></trkpt><trkpt lat="38.7806851" lon="16.3891237"><ele>700.6666666666666</ele><time>2026-04-19T09:56:00.24Z</time></trkpt><trkpt lat="38.7806074" lon="16.3890074"><ele>701.3333333333334</ele><time>2026-04-19T09:56:02.241Z</time></trkpt><trkpt lat="38.7805587" lon="16.3889309"><ele>702.0</ele><time>2026-04-19T09:56:04.237Z</time></trkpt><trkpt lat="38.7804746" lon="16.3889265"><ele>702.0</ele><time>2026-04-19T09:56:07.253Z</time></trkpt><trkpt lat="38.7803845" lon="16.3889471"><ele>702.0</ele><time>2026-04-19T09:56:10.247Z</time></trkpt><trkpt lat="38.7803389" lon="16.3888651"><ele>702.0</ele><time>2026-04-19T09:56:14.241Z</time></trkpt><trkpt lat="38.780277" lon="16.3888264"><ele>702.0</ele><time>2026-04-19T09:56:16.256Z</time></trkpt><trkpt lat="38.7802248" lon="16.3887742"><ele>702.0</ele><time>2026-04-19T09:56:17.234Z</time></trkpt><trkpt lat="38.7801626" lon="16.3887094"><ele>702.0</ele><time>2026-04-19T09:56:18.244Z</time></trkpt><trkpt lat="38.780107" lon="16.3886547"><ele>701.6666666666666</ele><time>2026-04-19T09:56:19.239Z</time></trkpt><trkpt lat="38.7800467" lon="16.3886249"><ele>701.3333333333334</ele><time>2026-04-19T09:56:20.25Z</time></trkpt><trkpt lat="38.779973" lon="16.3886138"><ele>701.0</ele><time>2026-04-19T09:56:21.243Z</time></trkpt><trkpt lat="38.7799034" lon="16.3885923"><ele>700.6666666666667</ele><time>2026-04-19T09:56:22.237Z</time></trkpt><trkpt lat="38.7797874" lon="16.3885505"><ele>700.3333333333334</ele><time>2026-04-19T09:56:24.244Z</time></trkpt><trkpt lat="38.779706" lon="16.3885403"><ele>700.0</ele><time>2026-04-19T09:56:25.247Z</time></trkpt><trkpt lat="38.7796238" lon="16.3885323"><ele>700.0</ele><time>2026-04-19T09:56:26.245Z</time></trkpt><trkpt lat="38.7795457" lon="16.3885548"><ele>700.0</ele><time>2026-04-19T09:56:27.245Z</time></trkpt><trkpt lat="38.7794812" lon="16.3885714"><ele>700.0</ele><time>2026-04-19T09:56:28.258Z</time></trkpt><trkpt lat="38.7793799" lon="16.3885278"><ele>700.0</ele><time>2026-04-19T09:56:30.244Z</time></trkpt><trkpt lat="38.7792776" lon="16.3885043"><ele>700.0</ele><time>2026-04-19T09:56:32.25Z</time></trkpt><trkpt lat="38.7792149" lon="16.3884393"><ele>700.0</ele><time>2026-04-19T09:56:37.247Z</time></trkpt><trkpt lat="38.7791513" lon="16.3884034"><ele>701.3333333333334</ele><time>2026-04-19T09:56:40.273Z</time></trkpt><trkpt lat="38.7790744" lon="16.3883779"><ele>702.6666666666667</ele><time>2026-04-19T09:56:43.246Z</time></trkpt><trkpt lat="38.7790122" lon="16.3883181"><ele>704.0</ele><time>2026-04-19T09:56:46.236Z</time></trkpt><trkpt lat="38.7789679" lon="16.3882556"><ele>705.3333333333334</ele><time>2026-04-19T09:56:49.249Z</time></trkpt><trkpt lat="38.7789178" lon="16.3881644"><ele>706.6666666666666</ele><time>2026-04-19T09:56:53.251Z</time></trkpt><trkpt lat="38.7788547" lon="16.3881026"><ele>708.0</ele><time>2026-04-19T09:56:56.242Z</time></trkpt><trkpt lat="38.7788003" lon="16.3880372"><ele>706.8333333333334</ele><time>2026-04-19T09:56:59.252Z</time></trkpt><trkpt lat="38.7787578" lon="16.387937"><ele>705.6666666666666</ele><time>2026-04-19T09:57:04.258Z</time></trkpt><trkpt lat="38.778691" lon="16.3879047"><ele>704.5</ele><time>2026-04-19T09:57:07.251Z</time></trkpt><trkpt lat="38.778672" lon="16.3878153"><ele>703.3333333333333</ele><time>2026-04-19T09:57:09.241Z</time></trkpt><trkpt lat="38.7786779" lon="16.3877225"><ele>702.1666666666666</ele><time>2026-04-19T09:57:12.241Z</time></trkpt><trkpt lat="38.7786566" lon="16.3876435"><ele>701.0</ele><time>2026-04-19T09:57:15.241Z</time></trkpt><trkpt lat="38.7786036" lon="16.3875471"><ele>701.0</ele><time>2026-04-19T09:57:18.249Z</time></trkpt><trkpt lat="38.7785591" lon="16.3874548"><ele>701.0</ele><time>2026-04-19T09:57:20.24Z</time></trkpt><trkpt lat="38.778504" lon="16.3873526"><ele>701.0</ele><time>2026-04-19T09:57:22.247Z</time></trkpt><trkpt lat="38.7784534" lon="16.3872833"><ele>701.0</ele><time>2026-04-19T09:57:24.256Z</time></trkpt><trkpt lat="38.778396" lon="16.3872298"><ele>701.0</ele><time>2026-04-19T09:57:48.242Z</time></trkpt><trkpt lat="38.7783461" lon="16.3871391"><ele>701.0</ele><time>2026-04-19T10:03:50.23Z</time></trkpt><trkpt lat="38.778261" lon="16.387109"><ele>701.1666666666666</ele><time>2026-04-19T10:03:52.243Z</time></trkpt><trkpt lat="38.778195" lon="16.3871071"><ele>701.3333333333333</ele><time>2026-04-19T10:03:53.25Z</time></trkpt><trkpt lat="38.7781181" lon="16.3870764"><ele>701.5</ele><time>2026-04-19T10:03:56.253Z</time></trkpt><trkpt lat="38.7780494" lon="16.3870287"><ele>701.6666666666666</ele><time>2026-04-19T10:03:59.251Z</time></trkpt><trkpt lat="38.7779977" lon="16.3869579"><ele>701.8333333333334</ele><time>2026-04-19T10:04:04.333Z</time></trkpt><trkpt lat="38.777946" lon="16.3869054"><ele>702.0</ele><time>2026-04-19T10:04:08.248Z</time></trkpt><trkpt lat="38.7778934" lon="16.3868214"><ele>702.0</ele><time>2026-04-19T10:04:11.246Z</time></trkpt><trkpt lat="38.7778248" lon="16.3868151"><ele>702.0</ele><time>2026-04-19T10:04:14.285Z</time></trkpt><trkpt lat="38.7777604" lon="16.3868307"><ele>702.0</ele><time>2026-04-19T10:04:18.31Z</time></trkpt><trkpt lat="38.7777114" lon="16.3867382"><ele>702.0</ele><time>2026-04-19T10:04:20.255Z</time></trkpt><trkpt lat="38.7776693" lon="16.3866618"><ele>702.0</ele><time>2026-04-19T10:04:23.242Z</time></trkpt><trkpt lat="38.7776691" lon="16.3865627"><ele>702.0</ele><time>2026-04-19T10:04:26.238Z</time></trkpt><trkpt lat="38.7776659" lon="16.3864492"><ele>702.7142857142858</ele><time>2026-04-19T10:04:28.246Z</time></trkpt><trkpt lat="38.7776491" lon="16.3863651"><ele>703.4285714285714</ele><time>2026-04-19T10:04:32.248Z</time></trkpt><trkpt lat="38.7776069" lon="16.3863009"><ele>704.1428571428571</ele><time>2026-04-19T10:04:41.26Z</time></trkpt><trkpt lat="38.7775197" lon="16.3862774"><ele>704.8571428571429</ele><time>2026-04-19T10:04:57.237Z</time></trkpt><trkpt lat="38.7774546" lon="16.3862773"><ele>705.5714285714286</ele><time>2026-04-19T10:04:59.248Z</time></trkpt><trkpt lat="38.7774034" lon="16.3862137"><ele>706.2857142857143</ele><time>2026-04-19T10:05:02.235Z</time></trkpt><trkpt lat="38.7773673" lon="16.386119"><ele>707.0</ele><time>2026-04-19T10:05:05.251Z</time></trkpt><trkpt lat="38.777333" lon="16.3860445"><ele>707.0</ele><time>2026-04-19T10:05:07.24Z</time></trkpt><trkpt lat="38.7772882" lon="16.3859223"><ele>707.0</ele><time>2026-04-19T10:05:10.242Z</time></trkpt><trkpt lat="38.7772476" lon="16.3858459"><ele>707.0</ele><time>2026-04-19T10:05:11.249Z</time></trkpt><trkpt lat="38.7772174" lon="16.3857714"><ele>707.0</ele><time>2026-04-19T10:05:12.24Z</time></trkpt><trkpt lat="38.7771611" lon="16.3856724"><ele>707.0</ele><time>2026-04-19T10:05:14.251Z</time></trkpt><trkpt lat="38.7770776" lon="16.3856066"><ele>707.0</ele><time>2026-04-19T10:05:16.251Z</time></trkpt><trkpt lat="38.7769964" lon="16.3855743"><ele>707.6666666666666</ele><time>2026-04-19T10:05:18.255Z</time></trkpt><trkpt lat="38.7769735" lon="16.3854936"><ele>708.3333333333333</ele><time>2026-04-19T10:05:22.248Z</time></trkpt><trkpt lat="38.7769521" lon="16.3854062"><ele>709.0</ele><time>2026-04-19T10:05:24.246Z</time></trkpt><trkpt lat="38.7768985" lon="16.3852833"><ele>709.6666666666666</ele><time>2026-04-19T10:05:26.249Z</time></trkpt><trkpt lat="38.7768793" lon="16.3851737"><ele>710.3333333333334</ele><time>2026-04-19T10:05:28.241Z</time></trkpt><trkpt lat="38.7768858" lon="16.3850749"><ele>711.0</ele><time>2026-04-19T10:05:31.24Z</time></trkpt><trkpt lat="38.7768319" lon="16.3849865"><ele>711.0</ele><time>2026-04-19T10:05:34.235Z</time></trkpt><trkpt lat="38.7767819" lon="16.3849257"><ele>711.0</ele><time>2026-04-19T10:05:36.252Z</time></trkpt><trkpt lat="38.7767312" lon="16.3848692"><ele>711.0</ele><time>2026-04-19T10:05:38.252Z</time></trkpt><trkpt lat="38.7766418" lon="16.3848463"><ele>711.0</ele><time>2026-04-19T10:05:40.245Z</time></trkpt><trkpt lat="38.7765708" lon="16.3848309"><ele>711.0</ele><time>2026-04-19T10:05:42.246Z</time></trkpt><trkpt lat="38.7765132" lon="16.3847855"><ele>711.0</ele><time>2026-04-19T10:05:44.241Z</time></trkpt><trkpt lat="38.7764326" lon="16.3847861"><ele>711.0</ele><time>2026-04-19T10:05:47.239Z</time></trkpt><trkpt lat="38.7763484" lon="16.384759"><ele>711.0</ele><time>2026-04-19T10:05:50.241Z</time></trkpt><trkpt lat="38.7762465" lon="16.3846864"><ele>711.0</ele><time>2026-04-19T10:05:52.242Z</time></trkpt><trkpt lat="38.7761858" lon="16.3846251"><ele>711.0</ele><time>2026-04-19T10:05:54.257Z</time></trkpt><trkpt lat="38.7761401" lon="16.3845668"><ele>711.0</ele><time>2026-04-19T10:05:58.244Z</time></trkpt><trkpt lat="38.7760667" lon="16.3845235"><ele>711.0</ele><time>2026-04-19T10:06:00.246Z</time></trkpt><trkpt lat="38.7760035" lon="16.3844918"><ele>711.0</ele><time>2026-04-19T10:06:02.248Z</time></trkpt><trkpt lat="38.7759385" lon="16.3844634"><ele>711.0</ele><time>2026-04-19T10:06:04.249Z</time></trkpt><trkpt lat="38.7758771" lon="16.3844046"><ele>711.0</ele><time>2026-04-19T10:06:22.25Z</time></trkpt><trkpt lat="38.7757802" lon="16.3843835"><ele>711.0</ele><time>2026-04-19T10:06:26.247Z</time></trkpt><trkpt lat="38.7757058" lon="16.3843684"><ele>711.0</ele><time>2026-04-19T10:06:28.248Z</time></trkpt><trkpt lat="38.7756466" lon="16.3844016"><ele>711.0</ele><time>2026-04-19T10:06:30.251Z</time></trkpt><trkpt lat="38.7755319" lon="16.3844972"><ele>711.0</ele><time>2026-04-19T10:06:32.255Z</time></trkpt><trkpt lat="38.7754529" lon="16.3845579"><ele>711.0</ele><time>2026-04-19T10:06:34.247Z</time></trkpt><trkpt lat="38.7753789" lon="16.3845758"><ele>711.0</ele><time>2026-04-19T10:06:37.25Z</time></trkpt><trkpt lat="38.7753023" lon="16.3845734"><ele>711.0</ele><time>2026-04-19T10:06:40.238Z</time></trkpt><trkpt lat="38.7752249" lon="16.3846178"><ele>711.0</ele><time>2026-04-19T10:06:43.251Z</time></trkpt><trkpt lat="38.7751393" lon="16.3846099"><ele>711.0</ele><time>2026-04-19T10:06:46.236Z</time></trkpt><trkpt lat="38.7750731" lon="16.3846702"><ele>711.3333333333334</ele><time>2026-04-19T10:06:49.242Z</time></trkpt><trkpt lat="38.7749991" lon="16.3847356"><ele>711.6666666666666</ele><time>2026-04-19T10:06:54.245Z</time></trkpt><trkpt lat="38.7749132" lon="16.384716"><ele>712.0</ele><time>2026-04-19T10:06:57.261Z</time></trkpt><trkpt lat="38.7748285" lon="16.3846962"><ele>712.3333333333333</ele><time>2026-04-19T10:06:59.238Z</time></trkpt><trkpt lat="38.7747532" lon="16.3846961"><ele>712.6666666666666</ele><time>2026-04-19T10:07:02.236Z</time></trkpt><trkpt lat="38.7746914" lon="16.3846445"><ele>713.0</ele><time>2026-04-19T10:07:05.239Z</time></trkpt><trkpt lat="38.7746257" lon="16.3846704"><ele>713.0</ele><time>2026-04-19T10:07:07.239Z</time></trkpt><trkpt lat="38.7745609" lon="16.3846727"><ele>713.0</ele><time>2026-04-19T10:07:09.245Z</time></trkpt><trkpt lat="38.7744988" lon="16.3846887"><ele>713.0</ele><time>2026-04-19T10:07:11.242Z</time></trkpt><trkpt lat="38.7744251" lon="16.3846439"><ele>713.0</ele><time>2026-04-19T10:07:13.243Z</time></trkpt><trkpt lat="38.7744076" lon="16.3845521"><ele>713.0</ele><time>2026-04-19T10:07:15.241Z</time></trkpt><trkpt lat="38.7743905" lon="16.3844679"><ele>713.0</ele><time>2026-04-19T10:07:17.255Z</time></trkpt><trkpt lat="38.7743706" lon="16.3843747"><ele>713.0</ele><time>2026-04-19T10:07:19.248Z</time></trkpt><trkpt lat="38.7743199" lon="16.3843181"><ele>714.3333333333333</ele><time>2026-04-19T10:07:22.243Z</time></trkpt><trkpt lat="38.7742523" lon="16.3843571"><ele>715.6666666666666</ele><time>2026-04-19T10:07:24.24Z</time></trkpt><trkpt lat="38.77419" lon="16.3843802"><ele>717.0</ele><time>2026-04-19T10:07:27.24Z</time></trkpt><trkpt lat="38.7741183" lon="16.3843602"><ele>718.3333333333334</ele><time>2026-04-19T10:07:33.246Z</time></trkpt><trkpt lat="38.7739877" lon="16.3843685"><ele>719.6666666666667</ele><time>2026-04-19T10:08:01.255Z</time></trkpt><trkpt lat="38.7738969" lon="16.3844028"><ele>721.0</ele><time>2026-04-19T10:08:04.258Z</time></trkpt><trkpt lat="38.773823" lon="16.3844306"><ele>721.0</ele><time>2026-04-19T10:08:07.247Z</time></trkpt><trkpt lat="38.7737477" lon="16.3844801"><ele>721.0</ele><time>2026-04-19T10:08:12.328Z</time></trkpt><trkpt lat="38.7736739" lon="16.3844984"><ele>721.0</ele><time>2026-04-19T10:08:15.329Z</time></trkpt><trkpt lat="38.7736082" lon="16.3845013"><ele>721.0</ele><time>2026-04-19T10:08:18.324Z</time></trkpt><trkpt lat="38.7735782" lon="16.384588"><ele>721.0</ele><time>2026-04-19T10:08:22.289Z</time></trkpt><trkpt lat="38.7735147" lon="16.3846242"><ele>721.0</ele><time>2026-04-19T10:08:25.328Z</time></trkpt><trkpt lat="38.7734433" lon="16.3845932"><ele>721.0</ele><time>2026-04-19T10:08:28.211Z</time></trkpt><trkpt lat="38.7733777" lon="16.3845709"><ele>721.5</ele><time>2026-04-19T10:08:31.3Z</time></trkpt><trkpt lat="38.7733003" lon="16.3845804"><ele>722.0</ele><time>2026-04-19T10:08:34.254Z</time></trkpt><trkpt lat="38.7732207" lon="16.384574"><ele>722.5</ele><time>2026-04-19T10:08:37.254Z</time></trkpt><trkpt lat="38.7731275" lon="16.3845635"><ele>723.0</ele><time>2026-04-19T10:08:40.321Z</time></trkpt><trkpt lat="38.7730596" lon="16.3845758"><ele>723.5</ele><time>2026-04-19T10:08:42.282Z</time></trkpt><trkpt lat="38.772981" lon="16.3846159"><ele>724.0</ele><time>2026-04-19T10:08:44.287Z</time></trkpt><trkpt lat="38.7729067" lon="16.3846165"><ele>724.0</ele><time>2026-04-19T10:08:46.267Z</time></trkpt><trkpt lat="38.7728236" lon="16.3846104"><ele>724.0</ele><time>2026-04-19T10:08:48.242Z</time></trkpt><trkpt lat="38.7727629" lon="16.3846446"><ele>724.0</ele><time>2026-04-19T10:08:51.21Z</time></trkpt><trkpt lat="38.7727208" lon="16.3847574"><ele>724.0</ele><time>2026-04-19T10:09:27.26Z</time></trkpt><trkpt lat="38.7726688" lon="16.3848667"><ele>724.0</ele><time>2026-04-19T10:09:29.248Z</time></trkpt><trkpt lat="38.7726092" lon="16.384978"><ele>724.8000000000001</ele><time>2026-04-19T10:09:31.252Z</time></trkpt><trkpt lat="38.7725249" lon="16.3850771"><ele>725.6</ele><time>2026-04-19T10:09:33.246Z</time></trkpt><trkpt lat="38.7724766" lon="16.3851628"><ele>726.4</ele><time>2026-04-19T10:09:35.254Z</time></trkpt><trkpt lat="38.7723824" lon="16.3852795"><ele>727.2</ele><time>2026-04-19T10:09:37.245Z</time></trkpt><trkpt lat="38.7723284" lon="16.3853595"><ele>728.0</ele><time>2026-04-19T10:09:38.246Z</time></trkpt><trkpt lat="38.7722699" lon="16.3854128"><ele>728.0</ele><time>2026-04-19T10:09:39.244Z</time></trkpt><trkpt lat="38.7722085" lon="16.3854553"><ele>728.0</ele><time>2026-04-19T10:09:40.261Z</time></trkpt><trkpt lat="38.77215" lon="16.385517"><ele>728.0</ele><time>2026-04-19T10:09:41.243Z</time></trkpt><trkpt lat="38.7720939" lon="16.385591"><ele>728.0</ele><time>2026-04-19T10:09:42.247Z</time></trkpt><trkpt lat="38.772048" lon="16.3856653"><ele>728.0</ele><time>2026-04-19T10:09:43.242Z</time></trkpt><trkpt lat="38.7720099" lon="16.3857369"><ele>728.0</ele><time>2026-04-19T10:09:44.249Z</time></trkpt><trkpt lat="38.7719828" lon="16.3858164"><ele>728.0</ele><time>2026-04-19T10:09:45.241Z</time></trkpt><trkpt lat="38.7719477" lon="16.3858914"><ele>729.5</ele><time>2026-04-19T10:09:46.238Z</time></trkpt><trkpt lat="38.7718838" lon="16.3859377"><ele>731.0</ele><time>2026-04-19T10:09:47.24Z</time></trkpt><trkpt lat="38.7718176" lon="16.3859849"><ele>732.5</ele><time>2026-04-19T10:09:48.244Z</time></trkpt><trkpt lat="38.7717652" lon="16.386047"><ele>734.0</ele><time>2026-04-19T10:09:49.241Z</time></trkpt><trkpt lat="38.7716626" lon="16.3861273"><ele>735.5</ele><time>2026-04-19T10:09:51.241Z</time></trkpt><trkpt lat="38.7716712" lon="16.3862174"><ele>737.0</ele><time>2026-04-19T10:09:53.248Z</time></trkpt><trkpt lat="38.7717732" lon="16.3862734"><ele>737.0000000000001</ele><time>2026-04-19T10:09:55.243Z</time></trkpt><trkpt lat="38.7718361" lon="16.3863113"><ele>737.0</ele><time>2026-04-19T10:09:56.238Z</time></trkpt><trkpt lat="38.7719002" lon="16.386348"><ele>737.0</ele><time>2026-04-19T10:09:57.235Z</time></trkpt><trkpt lat="38.7719627" lon="16.386392"><ele>737.0</ele><time>2026-04-19T10:09:58.237Z</time></trkpt><trkpt lat="38.7720289" lon="16.3864295"><ele>737.0</ele><time>2026-04-19T10:09:59.242Z</time></trkpt><trkpt lat="38.772093" lon="16.3864628"><ele>737.0000000000001</ele><time>2026-04-19T10:10:00.245Z</time></trkpt><trkpt lat="38.7721559" lon="16.3864806"><ele>737.0</ele><time>2026-04-19T10:10:01.249Z</time></trkpt><trkpt lat="38.7722711" lon="16.3864585"><ele>740.1666666666666</ele><time>2026-04-19T10:10:03.238Z</time></trkpt><trkpt lat="38.7723915" lon="16.3865187"><ele>743.3333333333333</ele><time>2026-04-19T10:10:05.235Z</time></trkpt><trkpt lat="38.7724529" lon="16.3865612"><ele>746.5</ele><time>2026-04-19T10:10:06.237Z</time></trkpt><trkpt lat="38.7725061" lon="16.3866238"><ele>749.6666666666666</ele><time>2026-04-19T10:10:07.249Z</time></trkpt><trkpt lat="38.7725582" lon="16.3866838"><ele>752.8333333333334</ele><time>2026-04-19T10:10:08.239Z</time></trkpt><trkpt lat="38.7726401" lon="16.3867647"><ele>756.0</ele><time>2026-04-19T10:10:10.234Z</time></trkpt><trkpt lat="38.7726523" lon="16.3868506"><ele>756.0</ele><time>2026-04-19T10:10:11.247Z</time></trkpt><trkpt lat="38.7726576" lon="16.3869347"><ele>756.0</ele><time>2026-04-19T10:10:12.243Z</time></trkpt><trkpt lat="38.7726656" lon="16.3870211"><ele>756.0</ele><time>2026-04-19T10:10:13.238Z</time></trkpt><trkpt lat="38.7726736" lon="16.3871091"><ele>756.0</ele><time>2026-04-19T10:10:14.241Z</time></trkpt><trkpt lat="38.772688" lon="16.3871879"><ele>756.0</ele><time>2026-04-19T10:10:15.238Z</time></trkpt><trkpt lat="38.7727017" lon="16.3873347"><ele>756.0</ele><time>2026-04-19T10:10:17.243Z</time></trkpt><trkpt lat="38.7727093" lon="16.3874907"><ele>759.4</ele><time>2026-04-19T10:10:19.237Z</time></trkpt><trkpt lat="38.7727227" lon="16.3875998"><ele>762.8</ele><time>2026-04-19T10:10:20.245Z</time></trkpt><trkpt lat="38.7727404" lon="16.3877026"><ele>766.1999999999999</ele><time>2026-04-19T10:10:21.244Z</time></trkpt><trkpt lat="38.7727553" lon="16.3878418"><ele>769.5999999999999</ele><time>2026-04-19T10:10:22.235Z</time></trkpt><trkpt lat="38.7727695" lon="16.3879744"><ele>773.0</ele><time>2026-04-19T10:10:23.241Z</time></trkpt><trkpt lat="38.7727884" lon="16.3881126"><ele>775.5</ele><time>2026-04-19T10:10:24.242Z</time></trkpt><trkpt lat="38.7727952" lon="16.3882801"><ele>778.0</ele><time>2026-04-19T10:10:25.242Z</time></trkpt><trkpt lat="38.7728064" lon="16.3884571"><ele>780.5</ele><time>2026-04-19T10:10:26.239Z</time></trkpt><trkpt lat="38.7728185" lon="16.3886076"><ele>783.0</ele><time>2026-04-19T10:10:27.241Z</time></trkpt><trkpt lat="38.7728337" lon="16.388795"><ele>785.75</ele><time>2026-04-19T10:10:28.239Z</time></trkpt><trkpt lat="38.7729027" lon="16.3889746"><ele>788.5</ele><time>2026-04-19T10:10:29.243Z</time></trkpt><trkpt lat="38.7729096" lon="16.3891583"><ele>791.25</ele><time>2026-04-19T10:10:30.242Z</time></trkpt><trkpt lat="38.772939" lon="16.3893214"><ele>794.0</ele><time>2026-04-19T10:10:31.24Z</time></trkpt><trkpt lat="38.7729529" lon="16.3894228"><ele>794.0000000000001</ele><time>2026-04-19T10:10:32.242Z</time></trkpt><trkpt lat="38.7729273" lon="16.3895176"><ele>794.0</ele><time>2026-04-19T10:10:34.242Z</time></trkpt><trkpt lat="38.7728942" lon="16.3896061"><ele>794.0</ele><time>2026-04-19T10:10:36.256Z</time></trkpt><trkpt lat="38.7728362" lon="16.3896952"><ele>794.0</ele><time>2026-04-19T10:10:38.237Z</time></trkpt><trkpt lat="38.7727707" lon="16.3898147"><ele>794.0000000000001</ele><time>2026-04-19T10:10:40.245Z</time></trkpt><trkpt lat="38.7727145" lon="16.389881"><ele>794.0</ele><time>2026-04-19T10:10:41.244Z</time></trkpt><trkpt lat="38.7726434" lon="16.3899536"><ele>796.2</ele><time>2026-04-19T10:10:42.246Z</time></trkpt><trkpt lat="38.7725808" lon="16.3900352"><ele>798.4000000000001</ele><time>2026-04-19T10:10:43.243Z</time></trkpt><trkpt lat="38.7725132" lon="16.390111"><ele>800.6</ele><time>2026-04-19T10:10:44.243Z</time></trkpt><trkpt lat="38.7724233" lon="16.3901877"><ele>802.8</ele><time>2026-04-19T10:10:45.246Z</time></trkpt><trkpt lat="38.7723443" lon="16.3902622"><ele>805.0</ele><time>2026-04-19T10:10:46.242Z</time></trkpt><trkpt lat="38.7722868" lon="16.3903147"><ele>805.0</ele><time>2026-04-19T10:10:47.245Z</time></trkpt><trkpt lat="38.7722013" lon="16.3903878"><ele>805.0</ele><time>2026-04-19T10:10:49.256Z</time></trkpt><trkpt lat="38.7721225" lon="16.3904366"><ele>805.0</ele><time>2026-04-19T10:10:52.242Z</time></trkpt><trkpt lat="38.7720237" lon="16.3905011"><ele>805.0</ele><time>2026-04-19T10:11:10.265Z</time></trkpt><trkpt lat="38.7719703" lon="16.3905615"><ele>805.0</ele><time>2026-04-19T10:11:11.249Z</time></trkpt><trkpt lat="38.771903" lon="16.390627"><ele>806.0</ele><time>2026-04-19T10:11:12.252Z</time></trkpt><trkpt lat="38.7718255" lon="16.3906889"><ele>807.0</ele><time>2026-04-19T10:11:13.242Z</time></trkpt><trkpt lat="38.7717372" lon="16.3907583"><ele>808.0</ele><time>2026-04-19T10:11:14.237Z</time></trkpt><trkpt lat="38.7716374" lon="16.3908382"><ele>809.0</ele><time>2026-04-19T10:11:15.245Z</time></trkpt><trkpt lat="38.7715292" lon="16.3909216"><ele>810.0</ele><time>2026-04-19T10:11:16.245Z</time></trkpt><trkpt lat="38.7714133" lon="16.3910074"><ele>810.0</ele><time>2026-04-19T10:11:17.244Z</time></trkpt><trkpt lat="38.7713059" lon="16.391082"><ele>810.0</ele><time>2026-04-19T10:11:18.241Z</time></trkpt><trkpt lat="38.7712281" lon="16.3911787"><ele>810.0</ele><time>2026-04-19T10:11:19.242Z</time></trkpt><trkpt lat="38.7711718" lon="16.3912749"><ele>810.0</ele><time>2026-04-19T10:11:20.244Z</time></trkpt><trkpt lat="38.7711271" lon="16.3913749"><ele>810.0</ele><time>2026-04-19T10:11:21.245Z</time></trkpt><trkpt lat="38.7710787" lon="16.3914626"><ele>811.0</ele><time>2026-04-19T10:11:22.245Z</time></trkpt><trkpt lat="38.7710364" lon="16.39154"><ele>812.0</ele><time>2026-04-19T10:11:23.244Z</time></trkpt><trkpt lat="38.7709897" lon="16.3916095"><ele>813.0</ele><time>2026-04-19T10:11:24.255Z</time></trkpt><trkpt lat="38.7709443" lon="16.3916768"><ele>814.0</ele><time>2026-04-19T10:11:25.255Z</time></trkpt><trkpt lat="38.7708894" lon="16.3918036"><ele>815.0</ele><time>2026-04-19T10:11:27.245Z</time></trkpt><trkpt lat="38.7708729" lon="16.3918954"><ele>816.0</ele><time>2026-04-19T10:11:28.243Z</time></trkpt><trkpt lat="38.7708521" lon="16.3919858"><ele>816.0</ele><time>2026-04-19T10:11:29.245Z</time></trkpt><trkpt lat="38.7708234" lon="16.3920693"><ele>816.0</ele><time>2026-04-19T10:11:30.24Z</time></trkpt><trkpt lat="38.7707725" lon="16.3921299"><ele>816.0</ele><time>2026-04-19T10:11:31.251Z</time></trkpt><trkpt lat="38.7707069" lon="16.3921503"><ele>816.0</ele><time>2026-04-19T10:11:32.246Z</time></trkpt><trkpt lat="38.7706442" lon="16.3921271"><ele>816.0</ele><time>2026-04-19T10:11:33.252Z</time></trkpt><trkpt lat="38.7705595" lon="16.3920702"><ele>816.0</ele><time>2026-04-19T10:11:34.248Z</time></trkpt><trkpt lat="38.7704609" lon="16.3919959"><ele>816.0</ele><time>2026-04-19T10:11:35.236Z</time></trkpt><trkpt lat="38.7703749" lon="16.3919314"><ele>816.0</ele><time>2026-04-19T10:11:36.235Z</time></trkpt><trkpt lat="38.7702911" lon="16.3919083"><ele>816.0</ele><time>2026-04-19T10:11:37.247Z</time></trkpt><trkpt lat="38.7701975" lon="16.3919048"><ele>816.0</ele><time>2026-04-19T10:11:38.244Z</time></trkpt><trkpt lat="38.7700904" lon="16.3919209"><ele>816.0</ele><time>2026-04-19T10:11:39.254Z</time></trkpt><trkpt lat="38.7699839" lon="16.3919494"><ele>816.6666666666666</ele><time>2026-04-19T10:11:40.256Z</time></trkpt><trkpt lat="38.7698989" lon="16.3919931"><ele>817.3333333333333</ele><time>2026-04-19T10:11:41.245Z</time></trkpt><trkpt lat="38.7698151" lon="16.3920344"><ele>818.0</ele><time>2026-04-19T10:11:42.239Z</time></trkpt><trkpt lat="38.7697736" lon="16.3920953"><ele>818.6666666666666</ele><time>2026-04-19T10:11:43.247Z</time></trkpt><trkpt lat="38.7697081" lon="16.3921429"><ele>819.3333333333333</ele><time>2026-04-19T10:11:45.245Z</time></trkpt><trkpt lat="38.7696482" lon="16.3921824"><ele>820.0</ele><time>2026-04-19T10:11:47.258Z</time></trkpt><trkpt lat="38.7695579" lon="16.3921898"><ele>820.0</ele><time>2026-04-19T10:11:49.234Z</time></trkpt><trkpt lat="38.7694854" lon="16.3921658"><ele>820.0</ele><time>2026-04-19T10:11:50.244Z</time></trkpt><trkpt lat="38.7694069" lon="16.3921303"><ele>820.0</ele><time>2026-04-19T10:11:51.244Z</time></trkpt><trkpt lat="38.7693356" lon="16.3920912"><ele>820.0</ele><time>2026-04-19T10:11:52.244Z</time></trkpt><trkpt lat="38.7692546" lon="16.3919948"><ele>820.0</ele><time>2026-04-19T10:11:54.241Z</time></trkpt><trkpt lat="38.7692332" lon="16.391859"><ele>819.1666666666666</ele><time>2026-04-19T10:11:56.258Z</time></trkpt><trkpt lat="38.7692415" lon="16.3917694"><ele>818.3333333333333</ele><time>2026-04-19T10:11:57.259Z</time></trkpt><trkpt lat="38.7692487" lon="16.3916135"><ele>817.5</ele><time>2026-04-19T10:11:59.249Z</time></trkpt><trkpt lat="38.7692445" lon="16.3915284"><ele>816.6666666666667</ele><time>2026-04-19T10:12:00.248Z</time></trkpt><trkpt lat="38.7692333" lon="16.3913869"><ele>815.8333333333334</ele><time>2026-04-19T10:12:02.244Z</time></trkpt><trkpt lat="38.7692009" lon="16.3913123"><ele>815.0</ele><time>2026-04-19T10:12:04.244Z</time></trkpt><trkpt lat="38.7691277" lon="16.3912583"><ele>815.0</ele><time>2026-04-19T10:12:06.242Z</time></trkpt><trkpt lat="38.7690233" lon="16.3912815"><ele>815.0</ele><time>2026-04-19T10:12:08.25Z</time></trkpt><trkpt lat="38.7689542" lon="16.3913543"><ele>815.0</ele><time>2026-04-19T10:12:10.262Z</time></trkpt><trkpt lat="38.7688792" lon="16.3914431"><ele>815.0</ele><time>2026-04-19T10:12:12.254Z</time></trkpt><trkpt lat="38.768764" lon="16.3914584"><ele>815.0</ele><time>2026-04-19T10:12:14.249Z</time></trkpt><trkpt lat="38.7687011" lon="16.3914536"><ele>815.0</ele><time>2026-04-19T10:12:15.24Z</time></trkpt><trkpt lat="38.7686327" lon="16.391417"><ele>815.0</ele><time>2026-04-19T10:12:17.249Z</time></trkpt><trkpt lat="38.7685853" lon="16.3913245"><ele>815.0</ele><time>2026-04-19T10:12:19.237Z</time></trkpt><trkpt lat="38.7685433" lon="16.3912525"><ele>815.0</ele><time>2026-04-19T10:12:21.258Z</time></trkpt><trkpt lat="38.7684908" lon="16.3911853"><ele>815.0</ele><time>2026-04-19T10:12:24.236Z</time></trkpt><trkpt lat="38.7684366" lon="16.3911242"><ele>815.0</ele><time>2026-04-19T10:12:29.258Z</time></trkpt><trkpt lat="38.7683853" lon="16.391069"><ele>815.0</ele><time>2026-04-19T10:12:50.252Z</time></trkpt><trkpt lat="38.7683193" lon="16.3910426"><ele>813.0000000000001</ele><time>2026-04-19T10:12:56.246Z</time></trkpt><trkpt lat="38.7682509" lon="16.3910177"><ele>811.0</ele><time>2026-04-19T10:13:00.252Z</time></trkpt><trkpt lat="38.7681613" lon="16.3909419"><ele>809.0</ele><time>2026-04-19T10:14:43.254Z</time></trkpt><trkpt lat="38.7680923" lon="16.390931"><ele>807.0</ele><time>2026-04-19T10:16:13.25Z</time></trkpt><trkpt lat="38.7680264" lon="16.3909045"><ele>805.0000000000001</ele><time>2026-04-19T10:16:17.241Z</time></trkpt><trkpt lat="38.7679731" lon="16.3907859"><ele>803.0</ele><time>2026-04-19T10:16:20.246Z</time></trkpt><trkpt lat="38.7679238" lon="16.3906442"><ele>803.0000000000001</ele><time>2026-04-19T10:16:22.269Z</time></trkpt><trkpt lat="38.7678825" lon="16.3905815"><ele>803.0</ele><time>2026-04-19T10:16:23.252Z</time></trkpt><trkpt lat="38.7677792" lon="16.3905233"><ele>803.0</ele><time>2026-04-19T10:16:25.251Z</time></trkpt><trkpt lat="38.7676735" lon="16.3905027"><ele>803.0</ele><time>2026-04-19T10:16:27.242Z</time></trkpt><trkpt lat="38.7676042" lon="16.390503"><ele>803.0000000000001</ele><time>2026-04-19T10:16:28.24Z</time></trkpt><trkpt lat="38.767539" lon="16.3905052"><ele>803.0</ele><time>2026-04-19T10:16:29.256Z</time></trkpt><trkpt lat="38.7674307" lon="16.3904788"><ele>801.8571428571428</ele><time>2026-04-19T10:16:31.257Z</time></trkpt><trkpt lat="38.7673675" lon="16.3904591"><ele>800.7142857142857</ele><time>2026-04-19T10:16:32.262Z</time></trkpt><trkpt lat="38.7672947" lon="16.3904396"><ele>799.5714285714286</ele><time>2026-04-19T10:16:33.266Z</time></trkpt><trkpt lat="38.767221" lon="16.3904274"><ele>798.4285714285713</ele><time>2026-04-19T10:16:34.243Z</time></trkpt><trkpt lat="38.7671461" lon="16.3904265"><ele>797.2857142857143</ele><time>2026-04-19T10:16:35.243Z</time></trkpt><trkpt lat="38.7670759" lon="16.390402"><ele>796.1428571428571</ele><time>2026-04-19T10:16:36.248Z</time></trkpt><trkpt lat="38.7670015" lon="16.3903528"><ele>795.0</ele><time>2026-04-19T10:16:38.248Z</time></trkpt><trkpt lat="38.7669001" lon="16.390318"><ele>796.6666666666666</ele><time>2026-04-19T10:16:41.252Z</time></trkpt><trkpt lat="38.7667988" lon="16.3903402"><ele>798.3333333333333</ele><time>2026-04-19T10:16:43.244Z</time></trkpt><trkpt lat="38.766717" lon="16.3902684"><ele>800.0</ele><time>2026-04-19T10:16:45.247Z</time></trkpt><trkpt lat="38.7666915" lon="16.3901916"><ele>801.6666666666666</ele><time>2026-04-19T10:16:46.251Z</time></trkpt><trkpt lat="38.7666453" lon="16.390113"><ele>803.3333333333333</ele><time>2026-04-19T10:16:47.254Z</time></trkpt><trkpt lat="38.766599" lon="16.3900453"><ele>805.0</ele><time>2026-04-19T10:16:48.251Z</time></trkpt><trkpt lat="38.766516" lon="16.3899718"><ele>805.0</ele><time>2026-04-19T10:16:50.252Z</time></trkpt><trkpt lat="38.7664853" lon="16.3898804"><ele>805.0</ele><time>2026-04-19T10:16:52.253Z</time></trkpt><trkpt lat="38.7664883" lon="16.3897675"><ele>805.0</ele><time>2026-04-19T10:16:54.245Z</time></trkpt><trkpt lat="38.7665013" lon="16.3896265"><ele>805.0</ele><time>2026-04-19T10:16:56.25Z</time></trkpt><trkpt lat="38.7665332" lon="16.3895044"><ele>805.0</ele><time>2026-04-19T10:16:58.247Z</time></trkpt><trkpt lat="38.7665863" lon="16.3893814"><ele>804.4</ele><time>2026-04-19T10:17:00.244Z</time></trkpt><trkpt lat="38.7666369" lon="16.3893227"><ele>803.8</ele><time>2026-04-19T10:17:01.252Z</time></trkpt><trkpt lat="38.7667373" lon="16.3892117"><ele>803.2</ele><time>2026-04-19T10:17:03.248Z</time></trkpt><trkpt lat="38.7668001" lon="16.3891405"><ele>802.6</ele><time>2026-04-19T10:17:04.253Z</time></trkpt><trkpt lat="38.7668544" lon="16.3890621"><ele>802.0</ele><time>2026-04-19T10:17:05.243Z</time></trkpt><trkpt lat="38.7669164" lon="16.3889346"><ele>797.8</ele><time>2026-04-19T10:17:07.251Z</time></trkpt><trkpt lat="38.7669623" lon="16.3888006"><ele>793.6</ele><time>2026-04-19T10:17:09.261Z</time></trkpt><trkpt lat="38.7669842" lon="16.3886952"><ele>789.4</ele><time>2026-04-19T10:17:11.244Z</time></trkpt><trkpt lat="38.7669806" lon="16.3885894"><ele>785.1999999999999</ele><time>2026-04-19T10:17:13.243Z</time></trkpt><trkpt lat="38.7669444" lon="16.3884832"><ele>781.0</ele><time>2026-04-19T10:17:15.262Z</time></trkpt><trkpt lat="38.7669159" lon="16.3883789"><ele>781.0</ele><time>2026-04-19T10:17:17.248Z</time></trkpt><trkpt lat="38.7668876" lon="16.3882831"><ele>781.0</ele><time>2026-04-19T10:17:19.258Z</time></trkpt><trkpt lat="38.7668395" lon="16.3881718"><ele>781.0</ele><time>2026-04-19T10:17:21.247Z</time></trkpt><trkpt lat="38.7667912" lon="16.3880385"><ele>781.0</ele><time>2026-04-19T10:17:23.247Z</time></trkpt><trkpt lat="38.7667688" lon="16.3879139"><ele>781.0</ele><time>2026-04-19T10:17:25.245Z</time></trkpt><trkpt lat="38.7667498" lon="16.3878001"><ele>781.6666666666666</ele><time>2026-04-19T10:17:27.256Z</time></trkpt><trkpt lat="38.7667372" lon="16.3876887"><ele>782.3333333333333</ele><time>2026-04-19T10:17:29.252Z</time></trkpt><trkpt lat="38.7667151" lon="16.3875626"><ele>783.0</ele><time>2026-04-19T10:17:31.259Z</time></trkpt><trkpt lat="38.766678" lon="16.3874229"><ele>783.6666666666667</ele><time>2026-04-19T10:17:33.254Z</time></trkpt><trkpt lat="38.7666679" lon="16.387334"><ele>784.3333333333334</ele><time>2026-04-19T10:17:34.243Z</time></trkpt><trkpt lat="38.7666713" lon="16.3872476"><ele>785.0</ele><time>2026-04-19T10:17:35.248Z</time></trkpt><trkpt lat="38.7666827" lon="16.3871649"><ele>785.0</ele><time>2026-04-19T10:17:36.243Z</time></trkpt><trkpt lat="38.766699" lon="16.3870764"><ele>785.0</ele><time>2026-04-19T10:17:37.243Z</time></trkpt><trkpt lat="38.7667113" lon="16.3869116"><ele>785.0</ele><time>2026-04-19T10:17:39.252Z</time></trkpt><trkpt lat="38.7666994" lon="16.3868301"><ele>785.0</ele><time>2026-04-19T10:17:40.269Z</time></trkpt><trkpt lat="38.76668" lon="16.3867491"><ele>785.0</ele><time>2026-04-19T10:17:41.247Z</time></trkpt><trkpt lat="38.766633" lon="16.3865964"><ele>785.0</ele><time>2026-04-19T10:17:43.241Z</time></trkpt><trkpt lat="38.7666243" lon="16.3865129"><ele>785.0</ele><time>2026-04-19T10:17:44.249Z</time></trkpt><trkpt lat="38.7666226" lon="16.3864286"><ele>785.0</ele><time>2026-04-19T10:17:45.254Z</time></trkpt><trkpt lat="38.766596" lon="16.386312"><ele>785.0</ele><time>2026-04-19T10:17:47.25Z</time></trkpt><trkpt lat="38.7665154" lon="16.3862122"><ele>785.0</ele><time>2026-04-19T10:17:49.246Z</time></trkpt><trkpt lat="38.7664143" lon="16.3861319"><ele>784.6666666666667</ele><time>2026-04-19T10:17:51.241Z</time></trkpt><trkpt lat="38.7663029" lon="16.386045"><ele>784.3333333333334</ele><time>2026-04-19T10:17:53.245Z</time></trkpt><trkpt lat="38.7662382" lon="16.3860073"><ele>784.0</ele><time>2026-04-19T10:17:54.25Z</time></trkpt><trkpt lat="38.7661726" lon="16.3859792"><ele>783.6666666666667</ele><time>2026-04-19T10:17:55.241Z</time></trkpt><trkpt lat="38.7661114" lon="16.3859526"><ele>783.3333333333334</ele><time>2026-04-19T10:17:56.244Z</time></trkpt><trkpt lat="38.76604" lon="16.38593"><ele>783.0</ele><time>2026-04-19T10:17:57.248Z</time></trkpt><trkpt lat="38.7659673" lon="16.3859248"><ele>783.0</ele><time>2026-04-19T10:17:58.253Z</time></trkpt><trkpt lat="38.7658589" lon="16.3859351"><ele>783.0</ele><time>2026-04-19T10:18:00.249Z</time></trkpt><trkpt lat="38.7657975" lon="16.3859608"><ele>783.0</ele><time>2026-04-19T10:18:02.246Z</time></trkpt><trkpt lat="38.7657151" lon="16.3859742"><ele>783.0</ele><time>2026-04-19T10:18:04.248Z</time></trkpt><trkpt lat="38.7656326" lon="16.3859926"><ele>783.0</ele><time>2026-04-19T10:18:05.249Z</time></trkpt><trkpt lat="38.7655618" lon="16.3859882"><ele>783.0</ele><time>2026-04-19T10:18:06.242Z</time></trkpt><trkpt lat="38.7654822" lon="16.3859828"><ele>783.0</ele><time>2026-04-19T10:18:07.249Z</time></trkpt><trkpt lat="38.7654099" lon="16.3859823"><ele>783.0</ele><time>2026-04-19T10:18:08.242Z</time></trkpt><trkpt lat="38.7653016" lon="16.385961"><ele>783.0</ele><time>2026-04-19T10:18:10.256Z</time></trkpt><trkpt lat="38.7652021" lon="16.3859687"><ele>783.0</ele><time>2026-04-19T10:18:13.244Z</time></trkpt><trkpt lat="38.7650876" lon="16.3859767"><ele>783.0</ele><time>2026-04-19T10:18:15.245Z</time></trkpt><trkpt lat="38.7649974" lon="16.3859925"><ele>783.6666666666666</ele><time>2026-04-19T10:18:16.246Z</time></trkpt><trkpt lat="38.7649179" lon="16.3860083"><ele>784.3333333333333</ele><time>2026-04-19T10:18:17.246Z</time></trkpt><trkpt lat="38.7648433" lon="16.3860401"><ele>785.0</ele><time>2026-04-19T10:18:18.247Z</time></trkpt><trkpt lat="38.7647867" lon="16.3860756"><ele>785.6666666666666</ele><time>2026-04-19T10:18:19.245Z</time></trkpt><trkpt lat="38.7647193" lon="16.3861356"><ele>786.3333333333333</ele><time>2026-04-19T10:18:21.253Z</time></trkpt><trkpt lat="38.7646522" lon="16.3861649"><ele>787.0</ele><time>2026-04-19T10:18:25.247Z</time></trkpt><trkpt lat="38.7645855" lon="16.3861177"><ele>787.0</ele><time>2026-04-19T10:18:32.251Z</time></trkpt><trkpt lat="38.7645549" lon="16.3859758"><ele>787.0</ele><time>2026-04-19T10:18:42.255Z</time></trkpt><trkpt lat="38.7645412" lon="16.3858726"><ele>787.0</ele><time>2026-04-19T10:18:45.247Z</time></trkpt><trkpt lat="38.7645432" lon="16.3857853"><ele>787.0</ele><time>2026-04-19T10:18:47.244Z</time></trkpt><trkpt lat="38.7645639" lon="16.3856618"><ele>787.0</ele><time>2026-04-19T10:18:49.247Z</time></trkpt><trkpt lat="38.7645739" lon="16.3855485"><ele>786.8333333333333</ele><time>2026-04-19T10:18:51.251Z</time></trkpt><trkpt lat="38.764608" lon="16.3854434"><ele>786.6666666666666</ele><time>2026-04-19T10:18:54.256Z</time></trkpt><trkpt lat="38.7646214" lon="16.3853619"><ele>786.5</ele><time>2026-04-19T10:18:56.247Z</time></trkpt><trkpt lat="38.7646491" lon="16.3852646"><ele>786.3333333333333</ele><time>2026-04-19T10:18:59.256Z</time></trkpt><trkpt lat="38.7646689" lon="16.3851721"><ele>786.1666666666666</ele><time>2026-04-19T10:19:04.313Z</time></trkpt><trkpt lat="38.7646953" lon="16.3850761"><ele>786.0</ele><time>2026-04-19T10:19:07.289Z</time></trkpt><trkpt lat="38.7647304" lon="16.384975"><ele>786.0</ele><time>2026-04-19T10:19:10.263Z</time></trkpt><trkpt lat="38.7647852" lon="16.3849006"><ele>786.0</ele><time>2026-04-19T10:19:13.307Z</time></trkpt><trkpt lat="38.7648653" lon="16.3848003"><ele>786.0</ele><time>2026-04-19T10:19:16.25Z</time></trkpt><trkpt lat="38.7649288" lon="16.3847559"><ele>786.0</ele><time>2026-04-19T10:19:18.247Z</time></trkpt><trkpt lat="38.7650194" lon="16.3847299"><ele>786.0</ele><time>2026-04-19T10:19:21.256Z</time></trkpt><trkpt lat="38.765086" lon="16.3846739"><ele>786.0</ele><time>2026-04-19T10:19:24.314Z</time></trkpt><trkpt lat="38.7651452" lon="16.3847202"><ele>785.1428571428572</ele><time>2026-04-19T10:19:28.309Z</time></trkpt><trkpt lat="38.7652118" lon="16.3847605"><ele>784.2857142857143</ele><time>2026-04-19T10:19:32.319Z</time></trkpt><trkpt lat="38.7652335" lon="16.384837"><ele>783.4285714285714</ele><time>2026-04-19T10:19:37.26Z</time></trkpt><trkpt lat="38.7652836" lon="16.3848958"><ele>782.5714285714287</ele><time>2026-04-19T10:19:44.249Z</time></trkpt><trkpt lat="38.7653246" lon="16.3849584"><ele>781.7142857142857</ele><time>2026-04-19T10:19:49.303Z</time></trkpt><trkpt lat="38.7654276" lon="16.3850101"><ele>780.8571428571429</ele><time>2026-04-19T10:20:11.255Z</time></trkpt><trkpt lat="38.7654928" lon="16.3850184"><ele>780.0</ele><time>2026-04-19T10:20:13.259Z</time></trkpt><trkpt lat="38.7657009" lon="16.3851287"><ele>780.0</ele><time>2026-04-19T10:20:14.258Z</time></trkpt><trkpt lat="38.7658185" lon="16.3851727"><ele>780.0</ele><time>2026-04-19T10:20:16.257Z</time></trkpt><trkpt lat="38.7658799" lon="16.3851929"><ele>780.0</ele><time>2026-04-19T10:20:17.247Z</time></trkpt><trkpt lat="38.7659583" lon="16.3852165"><ele>780.0</ele><time>2026-04-19T10:20:19.252Z</time></trkpt><trkpt lat="38.7660366" lon="16.3852403"><ele>780.0</ele><time>2026-04-19T10:20:22.256Z</time></trkpt><trkpt lat="38.7660986" lon="16.3852621"><ele>780.0</ele><time>2026-04-19T10:20:24.258Z</time></trkpt><trkpt lat="38.7661653" lon="16.3852879"><ele>779.1666666666666</ele><time>2026-04-19T10:20:25.251Z</time></trkpt><trkpt lat="38.7662362" lon="16.3853014"><ele>778.3333333333333</ele><time>2026-04-19T10:20:26.253Z</time></trkpt><trkpt lat="38.7663072" lon="16.3853113"><ele>777.5</ele><time>2026-04-19T10:20:27.25Z</time></trkpt><trkpt lat="38.7664106" lon="16.3852935"><ele>776.6666666666666</ele><time>2026-04-19T10:20:29.252Z</time></trkpt><trkpt lat="38.7665008" lon="16.3852597"><ele>775.8333333333333</ele><time>2026-04-19T10:20:31.277Z</time></trkpt><trkpt lat="38.766574" lon="16.3852287"><ele>775.0</ele><time>2026-04-19T10:20:33.248Z</time></trkpt><trkpt lat="38.7666388" lon="16.3851898"><ele>775.0</ele><time>2026-04-19T10:20:34.266Z</time></trkpt><trkpt lat="38.7667076" lon="16.385108"><ele>775.0</ele><time>2026-04-19T10:20:38.28Z</time></trkpt><trkpt lat="38.7668083" lon="16.3849931"><ele>775.0</ele><time>2026-04-19T10:20:40.259Z</time></trkpt><trkpt lat="38.7669142" lon="16.384849"><ele>775.0</ele><time>2026-04-19T10:20:41.247Z</time></trkpt><trkpt lat="38.7669993" lon="16.3847246"><ele>776.6666666666666</ele><time>2026-04-19T10:20:42.252Z</time></trkpt><trkpt lat="38.7670643" lon="16.3846174"><ele>778.3333333333333</ele><time>2026-04-19T10:20:43.247Z</time></trkpt><trkpt lat="38.7671055" lon="16.3845428"><ele>780.0</ele><time>2026-04-19T10:20:44.255Z</time></trkpt><trkpt lat="38.7671636" lon="16.3844373"><ele>781.6666666666667</ele><time>2026-04-19T10:20:46.27Z</time></trkpt><trkpt lat="38.7672067" lon="16.3843344"><ele>783.3333333333334</ele><time>2026-04-19T10:20:49.257Z</time></trkpt><trkpt lat="38.7672398" lon="16.384264"><ele>785.0</ele><time>2026-04-19T10:20:53.281Z</time></trkpt><trkpt lat="38.7672682" lon="16.3841719"><ele>785.0</ele><time>2026-04-19T10:20:55.321Z</time></trkpt><trkpt lat="38.7672869" lon="16.3840867"><ele>785.0</ele><time>2026-04-19T10:20:57.341Z</time></trkpt><trkpt lat="38.7673111" lon="16.3840097"><ele>785.0</ele><time>2026-04-19T10:20:59.302Z</time></trkpt><trkpt lat="38.7673466" lon="16.3839277"><ele>785.0</ele><time>2026-04-19T10:21:01.317Z</time></trkpt><trkpt lat="38.7673609" lon="16.3838424"><ele>785.0</ele><time>2026-04-19T10:21:04.21Z</time></trkpt><trkpt lat="38.7673766" lon="16.3837571"><ele>785.0</ele><time>2026-04-19T10:21:10.333Z</time></trkpt><trkpt lat="38.7674315" lon="16.3836818"><ele>785.0</ele><time>2026-04-19T10:21:39.251Z</time></trkpt><trkpt lat="38.767444" lon="16.3835595"><ele>784.6666666666667</ele><time>2026-04-19T10:21:41.247Z</time></trkpt><trkpt lat="38.7674063" lon="16.3834588"><ele>784.3333333333334</ele><time>2026-04-19T10:21:43.257Z</time></trkpt><trkpt lat="38.7673825" lon="16.3833558"><ele>784.0</ele><time>2026-04-19T10:21:45.249Z</time></trkpt><trkpt lat="38.7673855" lon="16.3832621"><ele>783.6666666666667</ele><time>2026-04-19T10:21:47.25Z</time></trkpt><trkpt lat="38.7674157" lon="16.3831413"><ele>783.3333333333334</ele><time>2026-04-19T10:21:49.255Z</time></trkpt><trkpt lat="38.7674497" lon="16.3830121"><ele>783.0</ele><time>2026-04-19T10:21:51.245Z</time></trkpt><trkpt lat="38.7675099" lon="16.3828788"><ele>781.3333333333334</ele><time>2026-04-19T10:21:53.247Z</time></trkpt><trkpt lat="38.7675426" lon="16.3827952"><ele>779.6666666666667</ele><time>2026-04-19T10:21:54.263Z</time></trkpt><trkpt lat="38.7675714" lon="16.3827158"><ele>778.0</ele><time>2026-04-19T10:21:55.248Z</time></trkpt><trkpt lat="38.7675929" lon="16.3826002"><ele>776.3333333333334</ele><time>2026-04-19T10:21:57.251Z</time></trkpt><trkpt lat="38.767597" lon="16.3824985"><ele>774.6666666666667</ele><time>2026-04-19T10:21:59.249Z</time></trkpt><trkpt lat="38.7675701" lon="16.3823644"><ele>773.0</ele><time>2026-04-19T10:22:01.254Z</time></trkpt><trkpt lat="38.767553" lon="16.3822545"><ele>769.5000000000001</ele><time>2026-04-19T10:22:03.243Z</time></trkpt><trkpt lat="38.7675137" lon="16.3821785"><ele>766.0</ele><time>2026-04-19T10:22:05.251Z</time></trkpt><trkpt lat="38.7674501" lon="16.3820763"><ele>762.5</ele><time>2026-04-19T10:22:07.25Z</time></trkpt><trkpt lat="38.767386" lon="16.3819731"><ele>759.0</ele><time>2026-04-19T10:22:09.263Z</time></trkpt><trkpt lat="38.767327" lon="16.3818952"><ele>755.5</ele><time>2026-04-19T10:22:11.248Z</time></trkpt><trkpt lat="38.7672765" lon="16.3818293"><ele>752.0</ele><time>2026-04-19T10:22:14.255Z</time></trkpt><trkpt lat="38.7672277" lon="16.3817608"><ele>752.0</ele><time>2026-04-19T10:22:16.25Z</time></trkpt><trkpt lat="38.7671628" lon="16.3816711"><ele>752.0</ele><time>2026-04-19T10:22:18.245Z</time></trkpt><trkpt lat="38.7671097" lon="16.3815898"><ele>752.0</ele><time>2026-04-19T10:22:20.251Z</time></trkpt><trkpt lat="38.7670688" lon="16.3815208"><ele>752.0</ele><time>2026-04-19T10:22:22.255Z</time></trkpt><trkpt lat="38.7670126" lon="16.3814158"><ele>752.0</ele><time>2026-04-19T10:22:25.266Z</time></trkpt><trkpt lat="38.76698" lon="16.3813302"><ele>752.0</ele><time>2026-04-19T10:22:27.261Z</time></trkpt><trkpt lat="38.7669478" lon="16.3812322"><ele>751.0</ele><time>2026-04-19T10:22:30.246Z</time></trkpt><trkpt lat="38.7668989" lon="16.3811655"><ele>750.0</ele><time>2026-04-19T10:22:32.251Z</time></trkpt><trkpt lat="38.7668463" lon="16.3810866"><ele>749.0</ele><time>2026-04-19T10:22:34.244Z</time></trkpt><trkpt lat="38.766781" lon="16.380995"><ele>748.0</ele><time>2026-04-19T10:22:37.246Z</time></trkpt><trkpt lat="38.766732" lon="16.3809365"><ele>747.0</ele><time>2026-04-19T10:22:39.248Z</time></trkpt><trkpt lat="38.7666616" lon="16.3808787"><ele>746.0</ele><time>2026-04-19T10:22:41.257Z</time></trkpt><trkpt lat="38.7665911" lon="16.3808337"><ele>746.0</ele><time>2026-04-19T10:22:43.247Z</time></trkpt><trkpt lat="38.7665089" lon="16.380807"><ele>746.0</ele><time>2026-04-19T10:22:45.24Z</time></trkpt><trkpt lat="38.7664362" lon="16.3807643"><ele>746.0</ele><time>2026-04-19T10:22:47.256Z</time></trkpt><trkpt lat="38.7663628" lon="16.3807364"><ele>746.0</ele><time>2026-04-19T10:22:49.254Z</time></trkpt><trkpt lat="38.7662742" lon="16.3807062"><ele>746.0</ele><time>2026-04-19T10:22:56.256Z</time></trkpt><trkpt lat="38.7662033" lon="16.3807019"><ele>746.0</ele><time>2026-04-19T10:23:00.243Z</time></trkpt><trkpt lat="38.7661214" lon="16.3807221"><ele>746.0</ele><time>2026-04-19T10:23:04.246Z</time></trkpt><trkpt lat="38.7660527" lon="16.3807497"><ele>746.0</ele><time>2026-04-19T10:23:08.255Z</time></trkpt><trkpt lat="38.7659911" lon="16.380819"><ele>746.0</ele><time>2026-04-19T10:23:13.245Z</time></trkpt><trkpt lat="38.7659168" lon="16.3808162"><ele>746.0</ele><time>2026-04-19T10:23:18.29Z</time></trkpt><trkpt lat="38.7658533" lon="16.380829"><ele>746.0</ele><time>2026-04-19T10:23:20.246Z</time></trkpt><trkpt lat="38.7657822" lon="16.3808546"><ele>746.0</ele><time>2026-04-19T10:23:22.254Z</time></trkpt><trkpt lat="38.7657143" lon="16.3809155"><ele>746.0</ele><time>2026-04-19T10:23:24.254Z</time></trkpt><trkpt lat="38.7656709" lon="16.3809941"><ele>746.5999999999999</ele><time>2026-04-19T10:23:26.245Z</time></trkpt><trkpt lat="38.7656407" lon="16.3811005"><ele>747.2</ele><time>2026-04-19T10:23:28.25Z</time></trkpt><trkpt lat="38.7656088" lon="16.3812349"><ele>747.8</ele><time>2026-04-19T10:23:30.248Z</time></trkpt><trkpt lat="38.765585" lon="16.3813545"><ele>748.4000000000001</ele><time>2026-04-19T10:23:32.254Z</time></trkpt><trkpt lat="38.7655496" lon="16.3814813"><ele>749.0</ele><time>2026-04-19T10:23:35.242Z</time></trkpt><trkpt lat="38.7654817" lon="16.3815653"><ele>750.5</ele><time>2026-04-19T10:23:37.255Z</time></trkpt><trkpt lat="38.7653925" lon="16.3816135"><ele>752.0</ele><time>2026-04-19T10:23:39.25Z</time></trkpt><trkpt lat="38.7653143" lon="16.3815792"><ele>753.5</ele><time>2026-04-19T10:23:41.314Z</time></trkpt><trkpt lat="38.7652485" lon="16.3816154"><ele>755.0</ele><time>2026-04-19T10:23:42.239Z</time></trkpt><trkpt lat="38.7651797" lon="16.3816395"><ele>756.5</ele><time>2026-04-19T10:23:43.258Z</time></trkpt><trkpt lat="38.7651155" lon="16.3816612"><ele>758.0</ele><time>2026-04-19T10:23:44.238Z</time></trkpt><trkpt lat="38.7650553" lon="16.381686"><ele>758.0</ele><time>2026-04-19T10:23:45.238Z</time></trkpt><trkpt lat="38.7649985" lon="16.3817247"><ele>758.0</ele><time>2026-04-19T10:23:46.245Z</time></trkpt><trkpt lat="38.7649427" lon="16.3817794"><ele>758.0</ele><time>2026-04-19T10:23:47.255Z</time></trkpt><trkpt lat="38.7648546" lon="16.3819038"><ele>758.0</ele><time>2026-04-19T10:23:49.246Z</time></trkpt><trkpt lat="38.7648051" lon="16.3819646"><ele>758.0</ele><time>2026-04-19T10:23:50.244Z</time></trkpt><trkpt lat="38.7647037" lon="16.3820245"><ele>758.0</ele><time>2026-04-19T10:23:52.245Z</time></trkpt><trkpt lat="38.7646088" lon="16.3820255"><ele>758.0</ele><time>2026-04-19T10:23:54.249Z</time></trkpt><trkpt lat="38.7645162" lon="16.3820414"><ele>758.0</ele><time>2026-04-19T10:23:56.255Z</time></trkpt><trkpt lat="38.7644311" lon="16.3820664"><ele>758.0</ele><time>2026-04-19T10:23:58.247Z</time></trkpt><trkpt lat="38.7643323" lon="16.3821108"><ele>758.0</ele><time>2026-04-19T10:24:00.259Z</time></trkpt><trkpt lat="38.7642628" lon="16.3821471"><ele>758.0</ele><time>2026-04-19T10:24:02.246Z</time></trkpt><trkpt lat="38.7641919" lon="16.3822016"><ele>758.0</ele><time>2026-04-19T10:24:06.325Z</time></trkpt><trkpt lat="38.7641211" lon="16.3821685"><ele>759.1666666666666</ele><time>2026-04-19T10:24:09.27Z</time></trkpt><trkpt lat="38.7640573" lon="16.382133"><ele>760.3333333333333</ele><time>2026-04-19T10:24:12.271Z</time></trkpt><trkpt lat="38.7639809" lon="16.382125"><ele>761.5</ele><time>2026-04-19T10:24:15.255Z</time></trkpt><trkpt lat="38.7639074" lon="16.3820948"><ele>762.6666666666666</ele><time>2026-04-19T10:24:18.255Z</time></trkpt><trkpt lat="38.7638093" lon="16.3821045"><ele>763.8333333333334</ele><time>2026-04-19T10:24:21.263Z</time></trkpt><trkpt lat="38.7637456" lon="16.3821329"><ele>765.0</ele><time>2026-04-19T10:24:23.243Z</time></trkpt><trkpt lat="38.7636816" lon="16.382169"><ele>764.25</ele><time>2026-04-19T10:24:25.261Z</time></trkpt><trkpt lat="38.7634791" lon="16.3822869"><ele>763.5</ele><time>2026-04-19T10:24:27.242Z</time></trkpt><trkpt lat="38.7633787" lon="16.3823446"><ele>762.75</ele><time>2026-04-19T10:24:28.265Z</time></trkpt><trkpt lat="38.7633124" lon="16.3823905"><ele>762.0</ele><time>2026-04-19T10:24:29.243Z</time></trkpt><trkpt lat="38.763248" lon="16.382437"><ele>762.0</ele><time>2026-04-19T10:24:30.24Z</time></trkpt><trkpt lat="38.763191" lon="16.3824825"><ele>762.0</ele><time>2026-04-19T10:24:31.245Z</time></trkpt><trkpt lat="38.7631219" lon="16.3825363"><ele>762.0</ele><time>2026-04-19T10:24:32.271Z</time></trkpt><trkpt lat="38.7630525" lon="16.3825894"><ele>762.0</ele><time>2026-04-19T10:24:33.253Z</time></trkpt><trkpt lat="38.7629729" lon="16.3826587"><ele>762.0</ele><time>2026-04-19T10:24:34.237Z</time></trkpt><trkpt lat="38.7629062" lon="16.3827309"><ele>762.0</ele><time>2026-04-19T10:24:35.257Z</time></trkpt><trkpt lat="38.7628433" lon="16.3828046"><ele>762.0</ele><time>2026-04-19T10:24:36.255Z</time></trkpt><trkpt lat="38.7627938" lon="16.3828711"><ele>762.0</ele><time>2026-04-19T10:24:37.246Z</time></trkpt><trkpt lat="38.7627534" lon="16.3829446"><ele>762.0</ele><time>2026-04-19T10:24:38.259Z</time></trkpt><trkpt lat="38.7627094" lon="16.3830363"><ele>762.0</ele><time>2026-04-19T10:24:39.257Z</time></trkpt><trkpt lat="38.7626784" lon="16.3831397"><ele>762.0</ele><time>2026-04-19T10:24:40.248Z</time></trkpt><trkpt lat="38.7626615" lon="16.3832482"><ele>762.0</ele><time>2026-04-19T10:24:41.246Z</time></trkpt><trkpt lat="38.7626452" lon="16.3833523"><ele>763.6666666666666</ele><time>2026-04-19T10:24:42.253Z</time></trkpt><trkpt lat="38.7626314" lon="16.3834479"><ele>765.3333333333333</ele><time>2026-04-19T10:24:43.265Z</time></trkpt><trkpt lat="38.7626231" lon="16.3835634"><ele>767.0</ele><time>2026-04-19T10:24:44.26Z</time></trkpt><trkpt lat="38.7626179" lon="16.3836694"><ele>768.6666666666666</ele><time>2026-04-19T10:24:45.245Z</time></trkpt><trkpt lat="38.7625998" lon="16.3837672"><ele>770.3333333333333</ele><time>2026-04-19T10:24:46.259Z</time></trkpt><trkpt lat="38.7625726" lon="16.3838807"><ele>772.0</ele><time>2026-04-19T10:24:47.259Z</time></trkpt><trkpt lat="38.7625476" lon="16.3839978"><ele>772.4999999999999</ele><time>2026-04-19T10:24:48.231Z</time></trkpt><trkpt lat="38.7625195" lon="16.3841002"><ele>773.0</ele><time>2026-04-19T10:24:49.245Z</time></trkpt><trkpt lat="38.7624919" lon="16.3841733"><ele>773.5</ele><time>2026-04-19T10:24:50.253Z</time></trkpt><trkpt lat="38.7624608" lon="16.3842548"><ele>774.0</ele><time>2026-04-19T10:24:52.252Z</time></trkpt><trkpt lat="38.7623799" lon="16.3843464"><ele>774.4999999999999</ele><time>2026-04-19T10:24:55.245Z</time></trkpt><trkpt lat="38.7623147" lon="16.3843927"><ele>775.0</ele><time>2026-04-19T10:24:56.273Z</time></trkpt><trkpt lat="38.7622203" lon="16.384443"><ele>775.0</ele><time>2026-04-19T10:24:58.245Z</time></trkpt><trkpt lat="38.7621187" lon="16.3845017"><ele>775.0</ele><time>2026-04-19T10:25:00.26Z</time></trkpt><trkpt lat="38.7621037" lon="16.3845991"><ele>775.0</ele><time>2026-04-19T10:25:03.312Z</time></trkpt><trkpt lat="38.7620727" lon="16.3846777"><ele>775.0</ele><time>2026-04-19T10:25:05.312Z</time></trkpt><trkpt lat="38.7616904" lon="16.384781"><ele>776.5</ele><time>2026-04-19T10:25:07.246Z</time></trkpt><trkpt lat="38.7615669" lon="16.3848519"><ele>778.0</ele><time>2026-04-19T10:25:09.249Z</time></trkpt><trkpt lat="38.7614884" lon="16.3848766"><ele>779.5</ele><time>2026-04-19T10:25:10.247Z</time></trkpt><trkpt lat="38.7614035" lon="16.384928"><ele>781.0</ele><time>2026-04-19T10:25:11.251Z</time></trkpt><trkpt lat="38.7617682" lon="16.3848763"><ele>781.0</ele><time>2026-04-19T10:25:12.36Z</time></trkpt><trkpt lat="38.7613034" lon="16.3850104"><ele>781.0</ele><time>2026-04-19T10:25:14.239Z</time></trkpt><trkpt lat="38.7612129" lon="16.385078"><ele>781.0</ele><time>2026-04-19T10:25:15.247Z</time></trkpt><trkpt lat="38.7611282" lon="16.3851504"><ele>781.0</ele><time>2026-04-19T10:25:16.245Z</time></trkpt><trkpt lat="38.7610393" lon="16.3852297"><ele>781.0</ele><time>2026-04-19T10:25:17.238Z</time></trkpt><trkpt lat="38.7608636" lon="16.3853542"><ele>782.5999999999999</ele><time>2026-04-19T10:25:18.239Z</time></trkpt><trkpt lat="38.7607889" lon="16.3853945"><ele>784.2</ele><time>2026-04-19T10:25:19.244Z</time></trkpt><trkpt lat="38.7606679" lon="16.3854115"><ele>785.8</ele><time>2026-04-19T10:25:21.254Z</time></trkpt><trkpt lat="38.7605923" lon="16.3853802"><ele>787.4000000000001</ele><time>2026-04-19T10:25:22.263Z</time></trkpt><trkpt lat="38.7604905" lon="16.38533"><ele>789.0</ele><time>2026-04-19T10:25:23.243Z</time></trkpt><trkpt lat="38.760385" lon="16.3852738"><ele>789.0</ele><time>2026-04-19T10:25:24.237Z</time></trkpt><trkpt lat="38.7603104" lon="16.3852294"><ele>789.0</ele><time>2026-04-19T10:25:25.245Z</time></trkpt><trkpt lat="38.7601853" lon="16.3851833"><ele>789.0</ele><time>2026-04-19T10:25:27.242Z</time></trkpt><trkpt lat="38.7600544" lon="16.3851311"><ele>789.0</ele><time>2026-04-19T10:25:29.251Z</time></trkpt><trkpt lat="38.75997" lon="16.3851029"><ele>789.0</ele><time>2026-04-19T10:25:30.249Z</time></trkpt><trkpt lat="38.7598651" lon="16.3850768"><ele>789.6</ele><time>2026-04-19T10:25:31.239Z</time></trkpt><trkpt lat="38.7597849" lon="16.3850717"><ele>790.2</ele><time>2026-04-19T10:25:32.239Z</time></trkpt><trkpt lat="38.7597228" lon="16.3850859"><ele>790.8000000000001</ele><time>2026-04-19T10:25:33.244Z</time></trkpt><trkpt lat="38.7596593" lon="16.3851198"><ele>791.4000000000001</ele><time>2026-04-19T10:25:34.241Z</time></trkpt><trkpt lat="38.7595507" lon="16.3851923"><ele>792.0</ele><time>2026-04-19T10:25:36.247Z</time></trkpt><trkpt lat="38.7594632" lon="16.3852932"><ele>792.0</ele><time>2026-04-19T10:25:38.256Z</time></trkpt><trkpt lat="38.7594385" lon="16.3853694"><ele>792.0</ele><time>2026-04-19T10:25:39.268Z</time></trkpt><trkpt lat="38.7594037" lon="16.3854752"><ele>792.0</ele><time>2026-04-19T10:25:40.283Z</time></trkpt><trkpt lat="38.7593626" lon="16.3855867"><ele>792.0</ele><time>2026-04-19T10:25:41.241Z</time></trkpt><trkpt lat="38.7593349" lon="16.3856895"><ele>792.0</ele><time>2026-04-19T10:25:42.25Z</time></trkpt><trkpt lat="38.759326" lon="16.3857949"><ele>792.0</ele><time>2026-04-19T10:25:43.249Z</time></trkpt><trkpt lat="38.7593076" lon="16.3858959"><ele>793.1666666666666</ele><time>2026-04-19T10:25:44.248Z</time></trkpt><trkpt lat="38.759297" lon="16.3859999"><ele>794.3333333333333</ele><time>2026-04-19T10:25:45.247Z</time></trkpt><trkpt lat="38.7592987" lon="16.3861094"><ele>795.5</ele><time>2026-04-19T10:25:46.243Z</time></trkpt><trkpt lat="38.7593074" lon="16.3862053"><ele>796.6666666666666</ele><time>2026-04-19T10:25:47.243Z</time></trkpt><trkpt lat="38.7593138" lon="16.3863013"><ele>797.8333333333333</ele><time>2026-04-19T10:25:48.243Z</time></trkpt><trkpt lat="38.7593052" lon="16.38639"><ele>799.0</ele><time>2026-04-19T10:25:49.247Z</time></trkpt><trkpt lat="38.7593075" lon="16.3864717"><ele>800.1428571428572</ele><time>2026-04-19T10:26:15.239Z</time></trkpt><trkpt lat="38.7593469" lon="16.3865522"><ele>801.2857142857142</ele><time>2026-04-19T10:26:17.252Z</time></trkpt><trkpt lat="38.7593864" lon="16.3866307"><ele>802.4285714285714</ele><time>2026-04-19T10:26:20.247Z</time></trkpt><trkpt lat="38.7594621" lon="16.3866441"><ele>803.5714285714287</ele><time>2026-04-19T10:26:23.246Z</time></trkpt><trkpt lat="38.7593911" lon="16.386657"><ele>804.7142857142858</ele><time>2026-04-19T10:28:43.239Z</time></trkpt><trkpt lat="38.759463" lon="16.3866712"><ele>805.8571428571429</ele><time>2026-04-19T10:29:17.251Z</time></trkpt><trkpt lat="38.7593989" lon="16.3866928"><ele>807.0</ele><time>2026-04-19T10:29:31.262Z</time></trkpt><trkpt lat="38.7594672" lon="16.3866937"><ele>808.0</ele><time>2026-04-19T10:29:43.249Z</time></trkpt><trkpt lat="38.7595261" lon="16.3866362"><ele>809.0</ele><time>2026-04-19T10:32:04.243Z</time></trkpt><trkpt lat="38.759597" lon="16.3866114"><ele>810.0</ele><time>2026-04-19T10:32:07.254Z</time></trkpt><trkpt lat="38.7596688" lon="16.3866083"><ele>811.0</ele><time>2026-04-19T10:32:15.253Z</time></trkpt><trkpt lat="38.7597453" lon="16.3866333"><ele>812.0</ele><time>2026-04-19T10:32:17.25Z</time></trkpt><trkpt lat="38.7598202" lon="16.3866776"><ele>813.0</ele><time>2026-04-19T10:32:22.259Z</time></trkpt><trkpt lat="38.7598791" lon="16.3867315"><ele>813.0</ele><time>2026-04-19T10:32:25.249Z</time></trkpt><trkpt lat="38.7599293" lon="16.3867823"><ele>813.0</ele><time>2026-04-19T10:32:27.252Z</time></trkpt><trkpt lat="38.7599986" lon="16.3868518"><ele>813.0</ele><time>2026-04-19T10:32:29.237Z</time></trkpt><trkpt lat="38.7600724" lon="16.3869242"><ele>813.0</ele><time>2026-04-19T10:32:31.246Z</time></trkpt><trkpt lat="38.7601523" lon="16.3869944"><ele>813.0</ele><time>2026-04-19T10:32:33.253Z</time></trkpt><trkpt lat="38.7602456" lon="16.387093"><ele>812.5</ele><time>2026-04-19T10:32:35.244Z</time></trkpt><trkpt lat="38.7602877" lon="16.387157"><ele>812.0</ele><time>2026-04-19T10:32:36.246Z</time></trkpt><trkpt lat="38.7603279" lon="16.3872205"><ele>811.5</ele><time>2026-04-19T10:32:37.256Z</time></trkpt><trkpt lat="38.7603712" lon="16.3872865"><ele>811.0</ele><time>2026-04-19T10:32:38.251Z</time></trkpt><trkpt lat="38.7604156" lon="16.3873587"><ele>810.5</ele><time>2026-04-19T10:32:39.249Z</time></trkpt><trkpt lat="38.7604985" lon="16.3874853"><ele>810.0</ele><time>2026-04-19T10:32:41.251Z</time></trkpt><trkpt lat="38.7605734" lon="16.3875923"><ele>812.3333333333334</ele><time>2026-04-19T10:32:43.25Z</time></trkpt><trkpt lat="38.7606161" lon="16.387666"><ele>814.6666666666667</ele><time>2026-04-19T10:32:44.25Z</time></trkpt><trkpt lat="38.7606502" lon="16.3877352"><ele>817.0</ele><time>2026-04-19T10:32:45.253Z</time></trkpt><trkpt lat="38.7607045" lon="16.3878556"><ele>819.3333333333334</ele><time>2026-04-19T10:32:47.244Z</time></trkpt><trkpt lat="38.7607359" lon="16.3879343"><ele>821.6666666666667</ele><time>2026-04-19T10:32:48.258Z</time></trkpt><trkpt lat="38.7607657" lon="16.3880134"><ele>824.0</ele><time>2026-04-19T10:32:49.249Z</time></trkpt><trkpt lat="38.760791" lon="16.3880959"><ele>826.6666666666667</ele><time>2026-04-19T10:32:50.25Z</time></trkpt><trkpt lat="38.7608267" lon="16.3881719"><ele>829.3333333333334</ele><time>2026-04-19T10:32:51.238Z</time></trkpt><trkpt lat="38.760865" lon="16.3882561"><ele>832.0</ele><time>2026-04-19T10:32:52.241Z</time></trkpt><trkpt lat="38.7609104" lon="16.3883303"><ele>834.6666666666667</ele><time>2026-04-19T10:32:53.24Z</time></trkpt><trkpt lat="38.7609652" lon="16.3883851"><ele>837.3333333333334</ele><time>2026-04-19T10:32:54.238Z</time></trkpt><trkpt lat="38.7610783" lon="16.3884042"><ele>840.0</ele><time>2026-04-19T10:32:56.242Z</time></trkpt><trkpt lat="38.7611849" lon="16.3884086"><ele>840.6</ele><time>2026-04-19T10:32:58.24Z</time></trkpt><trkpt lat="38.7612948" lon="16.3884691"><ele>841.2</ele><time>2026-04-19T10:33:00.243Z</time></trkpt><trkpt lat="38.7613499" lon="16.3885105"><ele>841.8</ele><time>2026-04-19T10:33:01.239Z</time></trkpt><trkpt lat="38.7614422" lon="16.3885729"><ele>842.4</ele><time>2026-04-19T10:33:03.245Z</time></trkpt><trkpt lat="38.7615394" lon="16.3886076"><ele>843.0</ele><time>2026-04-19T10:33:05.27Z</time></trkpt><trkpt lat="38.7616463" lon="16.3886195"><ele>843.0</ele><time>2026-04-19T10:33:07.237Z</time></trkpt><trkpt lat="38.7617537" lon="16.3886348"><ele>843.0</ele><time>2026-04-19T10:33:09.25Z</time></trkpt><trkpt lat="38.7618274" lon="16.3887229"><ele>843.0</ele><time>2026-04-19T10:33:11.271Z</time></trkpt><trkpt lat="38.7617959" lon="16.3888085"><ele>843.0</ele><time>2026-04-19T10:33:13.242Z</time></trkpt><trkpt lat="38.7617414" lon="16.3888878"><ele>843.0</ele><time>2026-04-19T10:33:15.251Z</time></trkpt><trkpt lat="38.7616559" lon="16.3889903"><ele>845.0</ele><time>2026-04-19T10:33:17.254Z</time></trkpt><trkpt lat="38.7615911" lon="16.3891057"><ele>847.0</ele><time>2026-04-19T10:33:19.243Z</time></trkpt><trkpt lat="38.7615098" lon="16.3892106"><ele>849.0</ele><time>2026-04-19T10:33:20.249Z</time></trkpt><trkpt lat="38.7614468" lon="16.3893174"><ele>851.0</ele><time>2026-04-19T10:33:22.238Z</time></trkpt><trkpt lat="38.761386" lon="16.38943"><ele>853.0</ele><time>2026-04-19T10:33:23.24Z</time></trkpt><trkpt lat="38.7613374" lon="16.3895"><ele>852.9999999999999</ele><time>2026-04-19T10:33:24.247Z</time></trkpt><trkpt lat="38.7612736" lon="16.3895671"><ele>853.0</ele><time>2026-04-19T10:33:25.244Z</time></trkpt><trkpt lat="38.7612178" lon="16.3896138"><ele>853.0</ele><time>2026-04-19T10:33:26.254Z</time></trkpt><trkpt lat="38.7611615" lon="16.3896761"><ele>853.0</ele><time>2026-04-19T10:33:27.242Z</time></trkpt><trkpt lat="38.7611161" lon="16.3897326"><ele>852.9999999999999</ele><time>2026-04-19T10:33:28.242Z</time></trkpt><trkpt lat="38.7610297" lon="16.3898617"><ele>853.0</ele><time>2026-04-19T10:33:30.251Z</time></trkpt><trkpt lat="38.7609554" lon="16.3899407"><ele>855.0</ele><time>2026-04-19T10:33:31.24Z</time></trkpt><trkpt lat="38.7608949" lon="16.3900011"><ele>857.0</ele><time>2026-04-19T10:33:32.249Z</time></trkpt><trkpt lat="38.7608444" lon="16.390079"><ele>859.0</ele><time>2026-04-19T10:33:33.254Z</time></trkpt><trkpt lat="38.7607352" lon="16.3902269"><ele>861.0</ele><time>2026-04-19T10:33:34.235Z</time></trkpt><trkpt lat="38.7607022" lon="16.390311"><ele>863.0</ele><time>2026-04-19T10:33:35.251Z</time></trkpt><trkpt lat="38.7605287" lon="16.3905856"><ele>863.0</ele><time>2026-04-19T10:33:36.252Z</time></trkpt><trkpt lat="38.7604485" lon="16.3906815"><ele>863.0</ele><time>2026-04-19T10:33:37.246Z</time></trkpt><trkpt lat="38.7603947" lon="16.390747"><ele>863.0</ele><time>2026-04-19T10:33:39.263Z</time></trkpt><trkpt lat="38.7603706" lon="16.3908744"><ele>863.0</ele><time>2026-04-19T10:33:43.238Z</time></trkpt><trkpt lat="38.7603288" lon="16.3909753"><ele>863.0</ele><time>2026-04-19T10:33:45.252Z</time></trkpt><trkpt lat="38.7602792" lon="16.3910729"><ele>863.0000000000001</ele><time>2026-04-19T10:33:47.261Z</time></trkpt><trkpt lat="38.7602269" lon="16.3911706"><ele>863.0</ele><time>2026-04-19T10:33:49.243Z</time></trkpt><trkpt lat="38.7601658" lon="16.3912907"><ele>863.0</ele><time>2026-04-19T10:33:51.249Z</time></trkpt><trkpt lat="38.7601273" lon="16.3913697"><ele>863.0</ele><time>2026-04-19T10:33:52.242Z</time></trkpt><trkpt lat="38.7600906" lon="16.391445"><ele>863.0000000000001</ele><time>2026-04-19T10:33:53.25Z</time></trkpt><trkpt lat="38.7600549" lon="16.391516"><ele>863.0</ele><time>2026-04-19T10:33:54.243Z</time></trkpt><trkpt lat="38.7600153" lon="16.3915832"><ele>864.5999999999999</ele><time>2026-04-19T10:33:55.241Z</time></trkpt><trkpt lat="38.7599787" lon="16.3916538"><ele>866.1999999999999</ele><time>2026-04-19T10:33:56.238Z</time></trkpt><trkpt lat="38.7599079" lon="16.3917857"><ele>867.8</ele><time>2026-04-19T10:33:58.24Z</time></trkpt><trkpt lat="38.7598435" lon="16.3919253"><ele>869.4</ele><time>2026-04-19T10:34:00.254Z</time></trkpt><trkpt lat="38.7598393" lon="16.3920166"><ele>871.0</ele><time>2026-04-19T10:34:01.244Z</time></trkpt><trkpt lat="38.7598192" lon="16.3921091"><ele>871.3333333333333</ele><time>2026-04-19T10:34:02.244Z</time></trkpt><trkpt lat="38.7597815" lon="16.392202"><ele>871.6666666666666</ele><time>2026-04-19T10:34:03.255Z</time></trkpt><trkpt lat="38.7597496" lon="16.3922976"><ele>872.0</ele><time>2026-04-19T10:34:04.238Z</time></trkpt><trkpt lat="38.7597239" lon="16.3923801"><ele>872.3333333333333</ele><time>2026-04-19T10:34:05.247Z</time></trkpt><trkpt lat="38.7596764" lon="16.3924641"><ele>872.6666666666666</ele><time>2026-04-19T10:34:06.257Z</time></trkpt><trkpt lat="38.7596175" lon="16.3926132"><ele>873.0</ele><time>2026-04-19T10:34:08.246Z</time></trkpt><trkpt lat="38.7595936" lon="16.3926972"><ele>873.0</ele><time>2026-04-19T10:34:09.245Z</time></trkpt><trkpt lat="38.7595754" lon="16.3928084"><ele>873.0</ele><time>2026-04-19T10:34:10.239Z</time></trkpt><trkpt lat="38.7595583" lon="16.3929063"><ele>873.0</ele><time>2026-04-19T10:34:11.249Z</time></trkpt><trkpt lat="38.7595141" lon="16.3930705"><ele>873.0</ele><time>2026-04-19T10:34:12.248Z</time></trkpt><trkpt lat="38.7594858" lon="16.393226"><ele>873.0</ele><time>2026-04-19T10:34:13.242Z</time></trkpt><trkpt lat="38.7594536" lon="16.3933576"><ele>873.8</ele><time>2026-04-19T10:34:14.25Z</time></trkpt><trkpt lat="38.7594508" lon="16.39349"><ele>874.5999999999999</ele><time>2026-04-19T10:34:16.24Z</time></trkpt><trkpt lat="38.7594393" lon="16.3936159"><ele>875.4000000000001</ele><time>2026-04-19T10:34:17.247Z</time></trkpt><trkpt lat="38.7594316" lon="16.393715"><ele>876.2</ele><time>2026-04-19T10:34:18.251Z</time></trkpt><trkpt lat="38.7594047" lon="16.393791"><ele>877.0</ele><time>2026-04-19T10:34:19.249Z</time></trkpt><trkpt lat="38.759399" lon="16.393937"><ele>877.5714285714287</ele><time>2026-04-19T10:34:20.251Z</time></trkpt><trkpt lat="38.7593792" lon="16.3940227"><ele>878.1428571428571</ele><time>2026-04-19T10:34:21.255Z</time></trkpt><trkpt lat="38.7593432" lon="16.3940937"><ele>878.7142857142858</ele><time>2026-04-19T10:34:22.241Z</time></trkpt><trkpt lat="38.7593094" lon="16.3941641"><ele>879.2857142857143</ele><time>2026-04-19T10:34:23.242Z</time></trkpt><trkpt lat="38.7592715" lon="16.3942612"><ele>879.8571428571429</ele><time>2026-04-19T10:34:24.249Z</time></trkpt><trkpt lat="38.7592065" lon="16.3943214"><ele>880.4285714285714</ele><time>2026-04-19T10:34:25.252Z</time></trkpt><trkpt lat="38.7591357" lon="16.3943799"><ele>881.0</ele><time>2026-04-19T10:34:26.244Z</time></trkpt><trkpt lat="38.7590527" lon="16.3944676"><ele>882.0000000000001</ele><time>2026-04-19T10:34:28.246Z</time></trkpt><trkpt lat="38.7589632" lon="16.3945691"><ele>883.0</ele><time>2026-04-19T10:34:30.248Z</time></trkpt><trkpt lat="38.7589152" lon="16.3946292"><ele>884.0</ele><time>2026-04-19T10:34:31.245Z</time></trkpt><trkpt lat="38.7588713" lon="16.3946908"><ele>885.0</ele><time>2026-04-19T10:34:32.251Z</time></trkpt><trkpt lat="38.7588153" lon="16.39476"><ele>886.0000000000001</ele><time>2026-04-19T10:34:33.242Z</time></trkpt><trkpt lat="38.7587641" lon="16.3948197"><ele>887.0</ele><time>2026-04-19T10:34:34.252Z</time></trkpt><trkpt lat="38.7587162" lon="16.3948863"><ele>884.4000000000001</ele><time>2026-04-19T10:34:35.245Z</time></trkpt><trkpt lat="38.758648" lon="16.3949923"><ele>881.8000000000001</ele><time>2026-04-19T10:34:37.248Z</time></trkpt><trkpt lat="38.7585813" lon="16.3951026"><ele>879.2</ele><time>2026-04-19T10:34:39.252Z</time></trkpt><trkpt lat="38.7585151" lon="16.3951912"><ele>876.6</ele><time>2026-04-19T10:34:41.252Z</time></trkpt><trkpt lat="38.7584629" lon="16.3952602"><ele>874.0</ele><time>2026-04-19T10:34:43.242Z</time></trkpt><trkpt lat="38.7584053" lon="16.3953482"><ele>873.9999999999999</ele><time>2026-04-19T10:34:46.242Z</time></trkpt><trkpt lat="38.7583627" lon="16.3954406"><ele>874.0</ele><time>2026-04-19T10:34:49.247Z</time></trkpt><trkpt lat="38.7583381" lon="16.3955275"><ele>874.0</ele><time>2026-04-19T10:34:52.25Z</time></trkpt><trkpt lat="38.7583214" lon="16.3956134"><ele>874.0</ele><time>2026-04-19T10:34:55.247Z</time></trkpt><trkpt lat="38.758294" lon="16.3957013"><ele>873.9999999999999</ele><time>2026-04-19T10:35:00.251Z</time></trkpt><trkpt lat="38.7582686" lon="16.3957928"><ele>874.0</ele><time>2026-04-19T10:35:12.252Z</time></trkpt><trkpt lat="38.7582305" lon="16.3958813"><ele>872.0</ele><time>2026-04-19T10:35:16.243Z</time></trkpt><trkpt lat="38.758194" lon="16.3959618"><ele>870.0000000000001</ele><time>2026-04-19T10:35:19.246Z</time></trkpt><trkpt lat="38.7581516" lon="16.396068"><ele>868.0000000000001</ele><time>2026-04-19T10:35:22.246Z</time></trkpt><trkpt lat="38.7581229" lon="16.3961685"><ele>866.0</ele><time>2026-04-19T10:35:24.253Z</time></trkpt><trkpt lat="38.7581128" lon="16.3963096"><ele>864.0</ele><time>2026-04-19T10:35:26.256Z</time></trkpt><trkpt lat="38.758102" lon="16.3964449"><ele>862.3333333333334</ele><time>2026-04-19T10:35:28.25Z</time></trkpt><trkpt lat="38.7580807" lon="16.3965386"><ele>860.6666666666667</ele><time>2026-04-19T10:35:30.243Z</time></trkpt><trkpt lat="38.7580663" lon="16.3966172"><ele>859.0</ele><time>2026-04-19T10:35:32.246Z</time></trkpt><trkpt lat="38.7580388" lon="16.3967009"><ele>857.3333333333334</ele><time>2026-04-19T10:35:35.249Z</time></trkpt><trkpt lat="38.7580182" lon="16.3967799"><ele>855.6666666666667</ele><time>2026-04-19T10:35:39.26Z</time></trkpt><trkpt lat="38.7579936" lon="16.3968653"><ele>854.0</ele><time>2026-04-19T10:37:15.26Z</time></trkpt><trkpt lat="38.757963" lon="16.397002"><ele>854.0</ele><time>2026-04-19T10:37:18.259Z</time></trkpt><trkpt lat="38.7579726" lon="16.3971226"><ele>854.0</ele><time>2026-04-19T10:37:20.242Z</time></trkpt><trkpt lat="38.7579882" lon="16.3972025"><ele>854.0</ele><time>2026-04-19T10:37:21.253Z</time></trkpt><trkpt lat="38.7580078" lon="16.3972916"><ele>854.0</ele><time>2026-04-19T10:37:22.244Z</time></trkpt><trkpt lat="38.7580202" lon="16.3973765"><ele>854.0</ele><time>2026-04-19T10:37:23.256Z</time></trkpt><trkpt lat="38.7580176" lon="16.3974669"><ele>854.0</ele><time>2026-04-19T10:37:24.255Z</time></trkpt><trkpt lat="38.7579946" lon="16.3975563"><ele>854.0</ele><time>2026-04-19T10:37:25.242Z</time></trkpt><trkpt lat="38.7579699" lon="16.3976588"><ele>852.5000000000001</ele><time>2026-04-19T10:37:26.253Z</time></trkpt><trkpt lat="38.7579429" lon="16.3977437"><ele>851.0</ele><time>2026-04-19T10:37:27.248Z</time></trkpt><trkpt lat="38.7579202" lon="16.3978376"><ele>849.5</ele><time>2026-04-19T10:37:28.24Z</time></trkpt><trkpt lat="38.7579021" lon="16.3979192"><ele>848.0</ele><time>2026-04-19T10:37:29.254Z</time></trkpt><trkpt lat="38.7578828" lon="16.3980141"><ele>846.5000000000001</ele><time>2026-04-19T10:37:30.243Z</time></trkpt><trkpt lat="38.7578744" lon="16.3981023"><ele>845.0</ele><time>2026-04-19T10:37:31.245Z</time></trkpt><trkpt lat="38.7578563" lon="16.3982315"><ele>843.8</ele><time>2026-04-19T10:37:33.251Z</time></trkpt><trkpt lat="38.75783" lon="16.3983629"><ele>842.6</ele><time>2026-04-19T10:37:35.245Z</time></trkpt><trkpt lat="38.7578015" lon="16.3984632"><ele>841.4000000000001</ele><time>2026-04-19T10:37:37.242Z</time></trkpt><trkpt lat="38.7577579" lon="16.3985731"><ele>840.2</ele><time>2026-04-19T10:37:39.257Z</time></trkpt><trkpt lat="38.7577053" lon="16.3986742"><ele>839.0</ele><time>2026-04-19T10:37:42.269Z</time></trkpt><trkpt lat="38.7576422" lon="16.3987841"><ele>838.3333333333334</ele><time>2026-04-19T10:37:44.263Z</time></trkpt><trkpt lat="38.7575695" lon="16.3988912"><ele>837.6666666666667</ele><time>2026-04-19T10:37:46.25Z</time></trkpt><trkpt lat="38.7575332" lon="16.3989635"><ele>837.0</ele><time>2026-04-19T10:37:47.245Z</time></trkpt><trkpt lat="38.757485" lon="16.3990449"><ele>836.3333333333333</ele><time>2026-04-19T10:37:48.26Z</time></trkpt><trkpt lat="38.7574402" lon="16.3991319"><ele>835.6666666666666</ele><time>2026-04-19T10:37:49.246Z</time></trkpt><trkpt lat="38.7573977" lon="16.3992083"><ele>835.0</ele><time>2026-04-19T10:37:50.265Z</time></trkpt><trkpt lat="38.7573629" lon="16.3993131"><ele>834.9999999999999</ele><time>2026-04-19T10:37:52.241Z</time></trkpt><trkpt lat="38.7573151" lon="16.3994086"><ele>835.0</ele><time>2026-04-19T10:37:54.249Z</time></trkpt><trkpt lat="38.757263" lon="16.3995036"><ele>835.0</ele><time>2026-04-19T10:37:57.247Z</time></trkpt><trkpt lat="38.7572263" lon="16.3995907"><ele>835.0</ele><time>2026-04-19T10:38:00.252Z</time></trkpt><trkpt lat="38.7571873" lon="16.3996581"><ele>834.9999999999999</ele><time>2026-04-19T10:38:02.236Z</time></trkpt><trkpt lat="38.7571462" lon="16.3997257"><ele>835.0</ele><time>2026-04-19T10:38:05.18Z</time></trkpt><trkpt lat="38.7570997" lon="16.3998229"><ele>834.4</ele><time>2026-04-19T10:38:07.275Z</time></trkpt><trkpt lat="38.7570685" lon="16.3999156"><ele>833.8</ele><time>2026-04-19T10:38:09.315Z</time></trkpt><trkpt lat="38.7570278" lon="16.400025"><ele>833.2</ele><time>2026-04-19T10:38:11.22Z</time></trkpt><trkpt lat="38.756949" lon="16.4001385"><ele>832.6</ele><time>2026-04-19T10:38:12.259Z</time></trkpt><trkpt lat="38.756904" lon="16.4002344"><ele>832.0</ele><time>2026-04-19T10:38:15.253Z</time></trkpt><trkpt lat="38.7568352" lon="16.400322"><ele>830.9999999999999</ele><time>2026-04-19T10:38:17.256Z</time></trkpt><trkpt lat="38.7567823" lon="16.4003991"><ele>830.0</ele><time>2026-04-19T10:38:19.237Z</time></trkpt><trkpt lat="38.7567323" lon="16.4004503"><ele>829.0</ele><time>2026-04-19T10:38:20.252Z</time></trkpt><trkpt lat="38.7566619" lon="16.4005321"><ele>828.0</ele><time>2026-04-19T10:38:22.241Z</time></trkpt><trkpt lat="38.7566029" lon="16.400617"><ele>826.9999999999999</ele><time>2026-04-19T10:38:24.246Z</time></trkpt><trkpt lat="38.7565461" lon="16.4006677"><ele>826.0</ele><time>2026-04-19T10:38:26.244Z</time></trkpt><trkpt lat="38.7564799" lon="16.4007448"><ele>824.8</ele><time>2026-04-19T10:38:31.249Z</time></trkpt><trkpt lat="38.7564785" lon="16.4008334"><ele>823.5999999999999</ele><time>2026-04-19T10:38:33.258Z</time></trkpt><trkpt lat="38.7564529" lon="16.4009565"><ele>822.4</ele><time>2026-04-19T10:38:35.247Z</time></trkpt><trkpt lat="38.7563996" lon="16.4010386"><ele>821.2</ele><time>2026-04-19T10:38:37.246Z</time></trkpt><trkpt lat="38.7563268" lon="16.401119"><ele>820.0</ele><time>2026-04-19T10:38:39.25Z</time></trkpt><trkpt lat="38.7562713" lon="16.4012495"><ele>819.6</ele><time>2026-04-19T10:38:41.254Z</time></trkpt><trkpt lat="38.7562382" lon="16.4013443"><ele>819.2</ele><time>2026-04-19T10:38:42.246Z</time></trkpt><trkpt lat="38.7561899" lon="16.4014546"><ele>818.8</ele><time>2026-04-19T10:38:43.25Z</time></trkpt><trkpt lat="38.7561363" lon="16.4015602"><ele>818.4</ele><time>2026-04-19T10:38:44.256Z</time></trkpt><trkpt lat="38.7560738" lon="16.4016592"><ele>818.0</ele><time>2026-04-19T10:38:45.246Z</time></trkpt><trkpt lat="38.7560043" lon="16.4017485"><ele>818.0000000000001</ele><time>2026-04-19T10:38:46.243Z</time></trkpt><trkpt lat="38.755923" lon="16.4018269"><ele>818.0</ele><time>2026-04-19T10:38:47.239Z</time></trkpt><trkpt lat="38.7558373" lon="16.4018954"><ele>818.0</ele><time>2026-04-19T10:38:48.239Z</time></trkpt><trkpt lat="38.7557384" lon="16.4019516"><ele>818.0</ele><time>2026-04-19T10:38:49.264Z</time></trkpt><trkpt lat="38.7556705" lon="16.4019807"><ele>818.0000000000001</ele><time>2026-04-19T10:38:50.247Z</time></trkpt><trkpt lat="38.7556052" lon="16.401991"><ele>818.0</ele><time>2026-04-19T10:38:52.251Z</time></trkpt><trkpt lat="38.7556345" lon="16.4020727"><ele>818.0000000000001</ele><time>2026-04-19T10:38:57.266Z</time></trkpt><trkpt lat="38.7556756" lon="16.4021449"><ele>818.0</ele><time>2026-04-19T10:39:03.245Z</time></trkpt><trkpt lat="38.7557087" lon="16.4022384"><ele>818.0</ele><time>2026-04-19T10:39:30.246Z</time></trkpt><trkpt lat="38.7557048" lon="16.4023197"><ele>818.0</ele><time>2026-04-19T10:39:32.254Z</time></trkpt><trkpt lat="38.7556829" lon="16.4023989"><ele>818.0000000000001</ele><time>2026-04-19T10:39:34.249Z</time></trkpt><trkpt lat="38.7556039" lon="16.4024676"><ele>818.0</ele><time>2026-04-19T10:39:36.242Z</time></trkpt><trkpt lat="38.7555347" lon="16.40257"><ele>815.4</ele><time>2026-04-19T10:39:38.248Z</time></trkpt><trkpt lat="38.7554984" lon="16.4026911"><ele>812.8</ele><time>2026-04-19T10:39:40.261Z</time></trkpt><trkpt lat="38.7554853" lon="16.402836"><ele>810.2</ele><time>2026-04-19T10:39:42.25Z</time></trkpt><trkpt lat="38.7554619" lon="16.4029143"><ele>807.6</ele><time>2026-04-19T10:39:43.252Z</time></trkpt><trkpt lat="38.7554235" lon="16.4030635"><ele>805.0</ele><time>2026-04-19T10:39:45.248Z</time></trkpt><trkpt lat="38.7554049" lon="16.4031423"><ele>805.0</ele><time>2026-04-19T10:39:46.253Z</time></trkpt><trkpt lat="38.7553888" lon="16.4032304"><ele>805.0</ele><time>2026-04-19T10:39:47.254Z</time></trkpt><trkpt lat="38.7553745" lon="16.4033227"><ele>805.0</ele><time>2026-04-19T10:39:48.25Z</time></trkpt><trkpt lat="38.7553569" lon="16.4034108"><ele>805.0</ele><time>2026-04-19T10:39:49.253Z</time></trkpt><trkpt lat="38.7553402" lon="16.4034957"><ele>805.0</ele><time>2026-04-19T10:39:50.259Z</time></trkpt><trkpt lat="38.7553234" lon="16.4035828"><ele>805.0</ele><time>2026-04-19T10:39:51.241Z</time></trkpt><trkpt lat="38.7553059" lon="16.4036795"><ele>805.0</ele><time>2026-04-19T10:39:52.255Z</time></trkpt><trkpt lat="38.7552868" lon="16.4037785"><ele>806.1666666666666</ele><time>2026-04-19T10:39:53.255Z</time></trkpt><trkpt lat="38.7552649" lon="16.4038804"><ele>807.3333333333333</ele><time>2026-04-19T10:39:54.247Z</time></trkpt><trkpt lat="38.7552436" lon="16.4039811"><ele>808.5</ele><time>2026-04-19T10:39:55.247Z</time></trkpt><trkpt lat="38.7552216" lon="16.4040832"><ele>809.6666666666667</ele><time>2026-04-19T10:39:56.25Z</time></trkpt><trkpt lat="38.7552001" lon="16.4041853"><ele>810.8333333333334</ele><time>2026-04-19T10:39:57.248Z</time></trkpt><trkpt lat="38.7551794" lon="16.4042867"><ele>812.0</ele><time>2026-04-19T10:39:58.248Z</time></trkpt><trkpt lat="38.7551689" lon="16.4043941"><ele>812.8333333333334</ele><time>2026-04-19T10:39:59.256Z</time></trkpt><trkpt lat="38.7551618" lon="16.4044994"><ele>813.6666666666667</ele><time>2026-04-19T10:40:00.25Z</time></trkpt><trkpt lat="38.755164" lon="16.4046037"><ele>814.5</ele><time>2026-04-19T10:40:01.251Z</time></trkpt><trkpt lat="38.7551728" lon="16.4047087"><ele>815.3333333333333</ele><time>2026-04-19T10:40:02.254Z</time></trkpt><trkpt lat="38.7551805" lon="16.4048183"><ele>816.1666666666666</ele><time>2026-04-19T10:40:03.251Z</time></trkpt><trkpt lat="38.755191" lon="16.4049298"><ele>817.0</ele><time>2026-04-19T10:40:04.251Z</time></trkpt><trkpt lat="38.755203" lon="16.405042"><ele>817.3333333333333</ele><time>2026-04-19T10:40:05.26Z</time></trkpt><trkpt lat="38.7552135" lon="16.4051553"><ele>817.6666666666666</ele><time>2026-04-19T10:40:06.25Z</time></trkpt><trkpt lat="38.7552244" lon="16.4052676"><ele>818.0</ele><time>2026-04-19T10:40:07.254Z</time></trkpt><trkpt lat="38.755229" lon="16.4053696"><ele>818.3333333333333</ele><time>2026-04-19T10:40:08.268Z</time></trkpt><trkpt lat="38.755234" lon="16.4054603"><ele>818.6666666666666</ele><time>2026-04-19T10:40:09.239Z</time></trkpt><trkpt lat="38.7551617" lon="16.4054337"><ele>819.0</ele><time>2026-04-19T10:40:12.238Z</time></trkpt><trkpt lat="38.7550899" lon="16.4053507"><ele>819.2</ele><time>2026-04-19T10:40:14.251Z</time></trkpt><trkpt lat="38.7550037" lon="16.4052664"><ele>819.4000000000001</ele><time>2026-04-19T10:40:16.246Z</time></trkpt><trkpt lat="38.7549122" lon="16.40517"><ele>819.6</ele><time>2026-04-19T10:40:18.25Z</time></trkpt><trkpt lat="38.7548316" lon="16.4050927"><ele>819.8</ele><time>2026-04-19T10:40:20.24Z</time></trkpt><trkpt lat="38.7547509" lon="16.4050425"><ele>820.0</ele><time>2026-04-19T10:40:22.245Z</time></trkpt><trkpt lat="38.7546694" lon="16.4049908"><ele>820.0</ele><time>2026-04-19T10:40:24.25Z</time></trkpt><trkpt lat="38.7545881" lon="16.4049307"><ele>820.0</ele><time>2026-04-19T10:40:26.244Z</time></trkpt><trkpt lat="38.7545117" lon="16.4048655"><ele>820.0</ele><time>2026-04-19T10:40:28.252Z</time></trkpt><trkpt lat="38.7544218" lon="16.4048205"><ele>820.0</ele><time>2026-04-19T10:40:30.245Z</time></trkpt><trkpt lat="38.7543205" lon="16.4047836"><ele>820.0</ele><time>2026-04-19T10:40:32.248Z</time></trkpt><trkpt lat="38.7542267" lon="16.404751"><ele>820.0</ele><time>2026-04-19T10:40:34.248Z</time></trkpt><trkpt lat="38.7541071" lon="16.404708"><ele>820.0</ele><time>2026-04-19T10:40:36.244Z</time></trkpt><trkpt lat="38.7540414" lon="16.4046831"><ele>820.0</ele><time>2026-04-19T10:40:37.24Z</time></trkpt><trkpt lat="38.753965" lon="16.4046637"><ele>820.0</ele><time>2026-04-19T10:40:38.242Z</time></trkpt><trkpt lat="38.7538576" lon="16.4046137"><ele>820.0</ele><time>2026-04-19T10:40:40.242Z</time></trkpt><trkpt lat="38.7537976" lon="16.4045746"><ele>819.9999999999999</ele><time>2026-04-19T10:40:41.246Z</time></trkpt><trkpt lat="38.7537411" lon="16.4045326"><ele>820.0</ele><time>2026-04-19T10:40:42.242Z</time></trkpt><trkpt lat="38.7536843" lon="16.4044872"><ele>820.0</ele><time>2026-04-19T10:40:43.244Z</time></trkpt><trkpt lat="38.7536268" lon="16.4044473"><ele>820.0</ele><time>2026-04-19T10:40:44.246Z</time></trkpt><trkpt lat="38.7535653" lon="16.4044232"><ele>819.9999999999999</ele><time>2026-04-19T10:40:45.245Z</time></trkpt><trkpt lat="38.7535026" lon="16.4044042"><ele>820.0</ele><time>2026-04-19T10:40:46.252Z</time></trkpt><trkpt lat="38.7533996" lon="16.4044964"><ele>820.6666666666666</ele><time>2026-04-19T10:40:48.24Z</time></trkpt><trkpt lat="38.7533594" lon="16.4045725"><ele>821.3333333333333</ele><time>2026-04-19T10:40:49.253Z</time></trkpt><trkpt lat="38.7533281" lon="16.4046588"><ele>822.0</ele><time>2026-04-19T10:40:50.244Z</time></trkpt><trkpt lat="38.7532967" lon="16.4047465"><ele>822.6666666666667</ele><time>2026-04-19T10:40:51.248Z</time></trkpt><trkpt lat="38.7532662" lon="16.4048356"><ele>823.3333333333334</ele><time>2026-04-19T10:40:52.246Z</time></trkpt><trkpt lat="38.753234" lon="16.4049252"><ele>824.0</ele><time>2026-04-19T10:40:53.247Z</time></trkpt><trkpt lat="38.753199" lon="16.4050234"><ele>825.8000000000001</ele><time>2026-04-19T10:40:54.251Z</time></trkpt><trkpt lat="38.7531605" lon="16.4051231"><ele>827.6</ele><time>2026-04-19T10:40:55.24Z</time></trkpt><trkpt lat="38.7531153" lon="16.4052232"><ele>829.4</ele><time>2026-04-19T10:40:56.243Z</time></trkpt><trkpt lat="38.7530604" lon="16.405322"><ele>831.2</ele><time>2026-04-19T10:40:57.25Z</time></trkpt><trkpt lat="38.752995" lon="16.4054168"><ele>833.0</ele><time>2026-04-19T10:40:58.249Z</time></trkpt><trkpt lat="38.7529234" lon="16.4055081"><ele>833.5999999999999</ele><time>2026-04-19T10:40:59.251Z</time></trkpt><trkpt lat="38.7528514" lon="16.4055972"><ele>834.1999999999999</ele><time>2026-04-19T10:41:00.25Z</time></trkpt><trkpt lat="38.7527842" lon="16.4056936"><ele>834.8</ele><time>2026-04-19T10:41:01.244Z</time></trkpt><trkpt lat="38.7527173" lon="16.4057904"><ele>835.4</ele><time>2026-04-19T10:41:02.25Z</time></trkpt><trkpt lat="38.7526613" lon="16.4058981"><ele>836.0</ele><time>2026-04-19T10:41:03.246Z</time></trkpt><trkpt lat="38.752599" lon="16.4060201"><ele>836.0</ele><time>2026-04-19T10:41:04.256Z</time></trkpt><trkpt lat="38.7525356" lon="16.4061389"><ele>836.0</ele><time>2026-04-19T10:41:05.256Z</time></trkpt><trkpt lat="38.752469" lon="16.4062636"><ele>836.0</ele><time>2026-04-19T10:41:06.248Z</time></trkpt><trkpt lat="38.7523964" lon="16.4063672"><ele>836.0</ele><time>2026-04-19T10:41:07.243Z</time></trkpt><trkpt lat="38.7523247" lon="16.4064283"><ele>836.0</ele><time>2026-04-19T10:41:08.24Z</time></trkpt><trkpt lat="38.7522645" lon="16.406479"><ele>837.0</ele><time>2026-04-19T10:41:09.249Z</time></trkpt><trkpt lat="38.7521462" lon="16.406447"><ele>838.0</ele><time>2026-04-19T10:41:11.25Z</time></trkpt><trkpt lat="38.7520772" lon="16.4064727"><ele>839.0</ele><time>2026-04-19T10:41:13.248Z</time></trkpt><trkpt lat="38.752057" lon="16.4066043"><ele>840.0</ele><time>2026-04-19T10:41:15.254Z</time></trkpt><trkpt lat="38.7520751" lon="16.4067227"><ele>841.0</ele><time>2026-04-19T10:41:17.247Z</time></trkpt><trkpt lat="38.7520971" lon="16.406843"><ele>841.0</ele><time>2026-04-19T10:41:20.246Z</time></trkpt><trkpt lat="38.7521229" lon="16.4069499"><ele>841.0</ele><time>2026-04-19T10:41:22.25Z</time></trkpt><trkpt lat="38.7521664" lon="16.4070704"><ele>841.0</ele><time>2026-04-19T10:41:24.244Z</time></trkpt><trkpt lat="38.7522201" lon="16.4072163"><ele>841.0</ele><time>2026-04-19T10:41:26.253Z</time></trkpt><trkpt lat="38.752249" lon="16.407301"><ele>841.0</ele><time>2026-04-19T10:41:27.249Z</time></trkpt><trkpt lat="38.752279" lon="16.4073931"><ele>841.8333333333333</ele><time>2026-04-19T10:41:28.249Z</time></trkpt><trkpt lat="38.7523114" lon="16.4074895"><ele>842.6666666666666</ele><time>2026-04-19T10:41:29.241Z</time></trkpt><trkpt lat="38.7523463" lon="16.4075835"><ele>843.5</ele><time>2026-04-19T10:41:30.255Z</time></trkpt><trkpt lat="38.7523826" lon="16.4076841"><ele>844.3333333333333</ele><time>2026-04-19T10:41:31.245Z</time></trkpt><trkpt lat="38.7524146" lon="16.4077913"><ele>845.1666666666666</ele><time>2026-04-19T10:41:32.236Z</time></trkpt><trkpt lat="38.7524522" lon="16.4078994"><ele>846.0</ele><time>2026-04-19T10:41:33.251Z</time></trkpt><trkpt lat="38.752486" lon="16.4080085"><ele>846.0</ele><time>2026-04-19T10:41:34.244Z</time></trkpt><trkpt lat="38.752511" lon="16.4081208"><ele>846.0</ele><time>2026-04-19T10:41:35.246Z</time></trkpt><trkpt lat="38.7525341" lon="16.4082351"><ele>846.0</ele><time>2026-04-19T10:41:36.243Z</time></trkpt><trkpt lat="38.7525556" lon="16.4083494"><ele>846.0</ele><time>2026-04-19T10:41:37.249Z</time></trkpt><trkpt lat="38.7525743" lon="16.4084702"><ele>846.0</ele><time>2026-04-19T10:41:38.241Z</time></trkpt><trkpt lat="38.7525883" lon="16.4085883"><ele>846.0</ele><time>2026-04-19T10:41:39.247Z</time></trkpt><trkpt lat="38.7526123" lon="16.4087122"><ele>846.0</ele><time>2026-04-19T10:41:40.244Z</time></trkpt><trkpt lat="38.752643" lon="16.4088449"><ele>846.0</ele><time>2026-04-19T10:41:41.242Z</time></trkpt><trkpt lat="38.7526843" lon="16.4089882"><ele>846.0</ele><time>2026-04-19T10:41:42.25Z</time></trkpt><trkpt lat="38.7527404" lon="16.4091211"><ele>846.0</ele><time>2026-04-19T10:41:43.251Z</time></trkpt><trkpt lat="38.7528047" lon="16.4092379"><ele>844.8</ele><time>2026-04-19T10:41:44.246Z</time></trkpt><trkpt lat="38.7528652" lon="16.4093512"><ele>843.5999999999999</ele><time>2026-04-19T10:41:45.263Z</time></trkpt><trkpt lat="38.7529396" lon="16.4094419"><ele>842.4</ele><time>2026-04-19T10:41:46.247Z</time></trkpt><trkpt lat="38.753031" lon="16.4095337"><ele>841.2</ele><time>2026-04-19T10:41:47.24Z</time></trkpt><trkpt lat="38.7530962" lon="16.409645"><ele>840.0</ele><time>2026-04-19T10:41:48.254Z</time></trkpt><trkpt lat="38.7531501" lon="16.4097658"><ele>840.0</ele><time>2026-04-19T10:41:49.252Z</time></trkpt><trkpt lat="38.7532049" lon="16.4098854"><ele>840.0</ele><time>2026-04-19T10:41:50.246Z</time></trkpt><trkpt lat="38.7532265" lon="16.4100051"><ele>840.0</ele><time>2026-04-19T10:41:51.251Z</time></trkpt><trkpt lat="38.7532476" lon="16.4101197"><ele>840.0</ele><time>2026-04-19T10:41:52.256Z</time></trkpt><trkpt lat="38.7532179" lon="16.4102377"><ele>840.0</ele><time>2026-04-19T10:41:53.257Z</time></trkpt><trkpt lat="38.7531846" lon="16.4103586"><ele>840.0</ele><time>2026-04-19T10:41:54.243Z</time></trkpt><trkpt lat="38.7531134" lon="16.4104654"><ele>840.0</ele><time>2026-04-19T10:41:55.249Z</time></trkpt><trkpt lat="38.7530256" lon="16.4105692"><ele>840.0</ele><time>2026-04-19T10:41:56.252Z</time></trkpt><trkpt lat="38.7529435" lon="16.4106922"><ele>840.0</ele><time>2026-04-19T10:41:57.247Z</time></trkpt><trkpt lat="38.7528701" lon="16.410814"><ele>838.4</ele><time>2026-04-19T10:41:58.251Z</time></trkpt><trkpt lat="38.7528028" lon="16.4109272"><ele>836.8</ele><time>2026-04-19T10:41:59.257Z</time></trkpt><trkpt lat="38.7527568" lon="16.4110278"><ele>835.2</ele><time>2026-04-19T10:42:00.242Z</time></trkpt><trkpt lat="38.752751" lon="16.4111479"><ele>833.6</ele><time>2026-04-19T10:42:01.257Z</time></trkpt><trkpt lat="38.7527698" lon="16.4112786"><ele>832.0</ele><time>2026-04-19T10:42:02.261Z</time></trkpt><trkpt lat="38.7527872" lon="16.411422"><ele>831.75</ele><time>2026-04-19T10:42:03.253Z</time></trkpt><trkpt lat="38.7528383" lon="16.4115728"><ele>831.5</ele><time>2026-04-19T10:42:04.25Z</time></trkpt><trkpt lat="38.7528921" lon="16.4117436"><ele>831.25</ele><time>2026-04-19T10:42:05.252Z</time></trkpt><trkpt lat="38.7529635" lon="16.4119491"><ele>831.0</ele><time>2026-04-19T10:42:06.25Z</time></trkpt><trkpt lat="38.7530407" lon="16.4121852"><ele>832.0</ele><time>2026-04-19T10:42:07.243Z</time></trkpt><trkpt lat="38.7531203" lon="16.4124421"><ele>833.0</ele><time>2026-04-19T10:42:08.252Z</time></trkpt><trkpt lat="38.7532168" lon="16.4127113"><ele>834.0</ele><time>2026-04-19T10:42:09.242Z</time></trkpt><trkpt lat="38.7533021" lon="16.4129696"><ele>835.0</ele><time>2026-04-19T10:42:10.238Z</time></trkpt><trkpt lat="38.7533722" lon="16.413203"><ele>836.0</ele><time>2026-04-19T10:42:11.252Z</time></trkpt><trkpt lat="38.7534023" lon="16.4134056"><ele>837.0</ele><time>2026-04-19T10:42:12.248Z</time></trkpt><trkpt lat="38.7534392" lon="16.4136077"><ele>837.0</ele><time>2026-04-19T10:42:13.247Z</time></trkpt><trkpt lat="38.7534785" lon="16.4137656"><ele>837.0</ele><time>2026-04-19T10:42:14.241Z</time></trkpt><trkpt lat="38.7535417" lon="16.4139008"><ele>837.0</ele><time>2026-04-19T10:42:15.255Z</time></trkpt><trkpt lat="38.7536008" lon="16.4140199"><ele>837.0</ele><time>2026-04-19T10:42:16.242Z</time></trkpt><trkpt lat="38.7536467" lon="16.4141332"><ele>836.0</ele><time>2026-04-19T10:42:17.243Z</time></trkpt><trkpt lat="38.7536886" lon="16.414288"><ele>835.0</ele><time>2026-04-19T10:42:18.251Z</time></trkpt><trkpt lat="38.7536949" lon="16.4144445"><ele>834.0</ele><time>2026-04-19T10:42:19.236Z</time></trkpt><trkpt lat="38.7537304" lon="16.4146266"><ele>833.0</ele><time>2026-04-19T10:42:20.239Z</time></trkpt><trkpt lat="38.7537521" lon="16.4148038"><ele>833.0</ele><time>2026-04-19T10:42:21.251Z</time></trkpt><trkpt lat="38.7537951" lon="16.4149953"><ele>833.0</ele><time>2026-04-19T10:42:22.246Z</time></trkpt><trkpt lat="38.7538035" lon="16.415167"><ele>833.0</ele><time>2026-04-19T10:42:23.243Z</time></trkpt><trkpt lat="38.7538339" lon="16.4153451"><ele>833.0</ele><time>2026-04-19T10:42:24.257Z</time></trkpt><trkpt lat="38.7538546" lon="16.4155124"><ele>833.25</ele><time>2026-04-19T10:42:25.255Z</time></trkpt><trkpt lat="38.7538589" lon="16.4156773"><ele>833.5</ele><time>2026-04-19T10:42:26.247Z</time></trkpt><trkpt lat="38.7538435" lon="16.4158582"><ele>833.75</ele><time>2026-04-19T10:42:27.254Z</time></trkpt><trkpt lat="38.7538292" lon="16.4160562"><ele>834.0</ele><time>2026-04-19T10:42:28.251Z</time></trkpt><trkpt lat="38.7538243" lon="16.4162343"><ele>834.3333333333333</ele><time>2026-04-19T10:42:29.249Z</time></trkpt><trkpt lat="38.7538372" lon="16.4164272"><ele>834.6666666666666</ele><time>2026-04-19T10:42:30.252Z</time></trkpt><trkpt lat="38.7538435" lon="16.4166138"><ele>835.0</ele><time>2026-04-19T10:42:31.236Z</time></trkpt><trkpt lat="38.7538609" lon="16.416838"><ele>835.0</ele><time>2026-04-19T10:42:32.247Z</time></trkpt><trkpt lat="38.7539081" lon="16.4170095"><ele>835.0</ele><time>2026-04-19T10:42:33.249Z</time></trkpt><trkpt lat="38.7539447" lon="16.4172106"><ele>835.0</ele><time>2026-04-19T10:42:34.24Z</time></trkpt><trkpt lat="38.7539652" lon="16.4174093"><ele>835.3333333333333</ele><time>2026-04-19T10:42:35.249Z</time></trkpt><trkpt lat="38.7540151" lon="16.4176201"><ele>835.6666666666667</ele><time>2026-04-19T10:42:36.245Z</time></trkpt><trkpt lat="38.754054" lon="16.4178309"><ele>836.0</ele><time>2026-04-19T10:42:37.245Z</time></trkpt><trkpt lat="38.7540586" lon="16.4180563"><ele>835.0</ele><time>2026-04-19T10:42:38.253Z</time></trkpt><trkpt lat="38.7540846" lon="16.4182848"><ele>834.0</ele><time>2026-04-19T10:42:39.243Z</time></trkpt><trkpt lat="38.7540959" lon="16.4185225"><ele>833.0</ele><time>2026-04-19T10:42:40.242Z</time></trkpt><trkpt lat="38.7541248" lon="16.4187454"><ele>832.6666666666667</ele><time>2026-04-19T10:42:41.246Z</time></trkpt><trkpt lat="38.7540982" lon="16.4189283"><ele>832.3333333333333</ele><time>2026-04-19T10:42:42.247Z</time></trkpt><trkpt lat="38.7540589" lon="16.4191817"><ele>832.0</ele><time>2026-04-19T10:42:43.251Z</time></trkpt><trkpt lat="38.7540476" lon="16.4194081"><ele>832.0</ele><time>2026-04-19T10:42:44.253Z</time></trkpt><trkpt lat="38.7540273" lon="16.4196308"><ele>832.0</ele><time>2026-04-19T10:42:45.242Z</time></trkpt><trkpt lat="38.7539551" lon="16.4198276"><ele>832.0</ele><time>2026-04-19T10:42:46.247Z</time></trkpt><trkpt lat="38.7538895" lon="16.4199994"><ele>833.0</ele><time>2026-04-19T10:42:47.243Z</time></trkpt><trkpt lat="38.753829" lon="16.4201631"><ele>834.0</ele><time>2026-04-19T10:42:48.24Z</time></trkpt><trkpt lat="38.7537186" lon="16.4203232"><ele>835.0</ele><time>2026-04-19T10:42:49.248Z</time></trkpt><trkpt lat="38.7535963" lon="16.4204871"><ele>834.3333333333333</ele><time>2026-04-19T10:42:50.252Z</time></trkpt><trkpt lat="38.7534264" lon="16.4206347"><ele>833.6666666666667</ele><time>2026-04-19T10:42:51.24Z</time></trkpt><trkpt lat="38.7532779" lon="16.420783"><ele>833.0</ele><time>2026-04-19T10:42:52.25Z</time></trkpt><trkpt lat="38.7531591" lon="16.420955"><ele>833.0</ele><time>2026-04-19T10:42:53.256Z</time></trkpt><trkpt lat="38.7530392" lon="16.4211173"><ele>833.0</ele><time>2026-04-19T10:42:54.243Z</time></trkpt><trkpt lat="38.7529145" lon="16.4212845"><ele>833.0</ele><time>2026-04-19T10:42:55.244Z</time></trkpt><trkpt lat="38.7528033" lon="16.4214569"><ele>830.3333333333334</ele><time>2026-04-19T10:42:56.248Z</time></trkpt><trkpt lat="38.7526948" lon="16.4216202"><ele>827.6666666666667</ele><time>2026-04-19T10:42:57.243Z</time></trkpt><trkpt lat="38.7525819" lon="16.4217776"><ele>825.0</ele><time>2026-04-19T10:42:58.251Z</time></trkpt><trkpt lat="38.7524742" lon="16.4219436"><ele>825.0</ele><time>2026-04-19T10:42:59.242Z</time></trkpt><trkpt lat="38.7523482" lon="16.4221024"><ele>825.0</ele><time>2026-04-19T10:43:00.245Z</time></trkpt><trkpt lat="38.7522529" lon="16.4222374"><ele>825.0</ele><time>2026-04-19T10:43:01.238Z</time></trkpt><trkpt lat="38.7521333" lon="16.4223112"><ele>824.8333333333334</ele><time>2026-04-19T10:43:02.256Z</time></trkpt><trkpt lat="38.7520762" lon="16.4224325"><ele>824.6666666666667</ele><time>2026-04-19T10:43:03.249Z</time></trkpt><trkpt lat="38.752006" lon="16.4225141"><ele>824.5</ele><time>2026-04-19T10:43:04.262Z</time></trkpt><trkpt lat="38.7519372" lon="16.422595"><ele>824.3333333333334</ele><time>2026-04-19T10:43:05.246Z</time></trkpt><trkpt lat="38.7518822" lon="16.4226589"><ele>824.1666666666667</ele><time>2026-04-19T10:43:06.262Z</time></trkpt><trkpt lat="38.7518275" lon="16.4227046"><ele>824.0</ele><time>2026-04-19T10:43:07.258Z</time></trkpt><trkpt lat="38.7517446" lon="16.422696"><ele>823.2</ele><time>2026-04-19T10:43:09.26Z</time></trkpt><trkpt lat="38.7516681" lon="16.4226553"><ele>822.4000000000001</ele><time>2026-04-19T10:43:11.253Z</time></trkpt><trkpt lat="38.7515252" lon="16.4226839"><ele>821.6</ele><time>2026-04-19T10:43:16.245Z</time></trkpt><trkpt lat="38.7514538" lon="16.4227124"><ele>820.8</ele><time>2026-04-19T10:43:18.256Z</time></trkpt><trkpt lat="38.7513766" lon="16.4227495"><ele>820.0</ele><time>2026-04-19T10:43:20.253Z</time></trkpt><trkpt lat="38.7512669" lon="16.4227615"><ele>819.9999999999999</ele><time>2026-04-19T10:43:24.244Z</time></trkpt><trkpt lat="38.751197" lon="16.4227726"><ele>820.0</ele><time>2026-04-19T10:43:25.244Z</time></trkpt><trkpt lat="38.7511295" lon="16.4227958"><ele>820.0</ele><time>2026-04-19T10:43:27.254Z</time></trkpt><trkpt lat="38.7510548" lon="16.4228321"><ele>820.0</ele><time>2026-04-19T10:43:29.243Z</time></trkpt><trkpt lat="38.7509702" lon="16.4228518"><ele>819.9999999999999</ele><time>2026-04-19T10:43:31.249Z</time></trkpt><trkpt lat="38.7508758" lon="16.4228676"><ele>820.0</ele><time>2026-04-19T10:43:33.254Z</time></trkpt><trkpt lat="38.7507807" lon="16.4228971"><ele>820.1666666666666</ele><time>2026-04-19T10:43:35.247Z</time></trkpt><trkpt lat="38.7506798" lon="16.4229508"><ele>820.3333333333333</ele><time>2026-04-19T10:43:37.254Z</time></trkpt><trkpt lat="38.750572" lon="16.4229968"><ele>820.5</ele><time>2026-04-19T10:43:39.252Z</time></trkpt><trkpt lat="38.75051" lon="16.4230132"><ele>820.6666666666667</ele><time>2026-04-19T10:43:40.249Z</time></trkpt><trkpt lat="38.7504571" lon="16.423058"><ele>820.8333333333334</ele><time>2026-04-19T10:43:41.255Z</time></trkpt><trkpt lat="38.7503937" lon="16.4230724"><ele>821.0</ele><time>2026-04-19T10:43:42.25Z</time></trkpt><trkpt lat="38.7503289" lon="16.4231129"><ele>820.1666666666667</ele><time>2026-04-19T10:43:43.252Z</time></trkpt><trkpt lat="38.750254" lon="16.423159"><ele>819.3333333333334</ele><time>2026-04-19T10:43:44.245Z</time></trkpt><trkpt lat="38.7501914" lon="16.4232221"><ele>818.5</ele><time>2026-04-19T10:43:45.258Z</time></trkpt><trkpt lat="38.750119" lon="16.4232676"><ele>817.6666666666667</ele><time>2026-04-19T10:43:46.251Z</time></trkpt><trkpt lat="38.7500512" lon="16.4233086"><ele>816.8333333333334</ele><time>2026-04-19T10:43:47.252Z</time></trkpt><trkpt lat="38.7499617" lon="16.4233058"><ele>816.0</ele><time>2026-04-19T10:43:49.256Z</time></trkpt><trkpt lat="38.7499464" lon="16.423196"><ele>815.8</ele><time>2026-04-19T10:43:51.25Z</time></trkpt><trkpt lat="38.7499305" lon="16.4230723"><ele>815.5999999999999</ele><time>2026-04-19T10:43:53.256Z</time></trkpt><trkpt lat="38.7498637" lon="16.4229649"><ele>815.4</ele><time>2026-04-19T10:43:55.261Z</time></trkpt><trkpt lat="38.7497544" lon="16.4228966"><ele>815.2</ele><time>2026-04-19T10:43:57.248Z</time></trkpt><trkpt lat="38.7496907" lon="16.4228739"><ele>815.0</ele><time>2026-04-19T10:43:58.254Z</time></trkpt><trkpt lat="38.7496237" lon="16.422881"><ele>815.0</ele><time>2026-04-19T10:43:59.253Z</time></trkpt><trkpt lat="38.7495109" lon="16.4228207"><ele>815.0</ele><time>2026-04-19T10:44:01.255Z</time></trkpt><trkpt lat="38.7494664" lon="16.4227627"><ele>815.0</ele><time>2026-04-19T10:44:02.287Z</time></trkpt><trkpt lat="38.7493937" lon="16.4227308"><ele>815.0</ele><time>2026-04-19T10:44:03.267Z</time></trkpt><trkpt lat="38.7492822" lon="16.4227676"><ele>815.0</ele><time>2026-04-19T10:44:05.261Z</time></trkpt><trkpt lat="38.7492168" lon="16.4229138"><ele>812.0</ele><time>2026-04-19T10:44:08.254Z</time></trkpt><trkpt lat="38.7492627" lon="16.4230382"><ele>809.0</ele><time>2026-04-19T10:44:10.257Z</time></trkpt><trkpt lat="38.7492608" lon="16.4231522"><ele>806.0</ele><time>2026-04-19T10:44:11.246Z</time></trkpt><trkpt lat="38.7492586" lon="16.4232426"><ele>803.0</ele><time>2026-04-19T10:44:12.253Z</time></trkpt><trkpt lat="38.7491772" lon="16.4233615"><ele>800.0</ele><time>2026-04-19T10:44:19.255Z</time></trkpt><trkpt lat="38.7490984" lon="16.4233757"><ele>800.0000000000001</ele><time>2026-04-19T10:44:21.257Z</time></trkpt><trkpt lat="38.749035" lon="16.4233868"><ele>800.0</ele><time>2026-04-19T10:44:22.253Z</time></trkpt><trkpt lat="38.7489641" lon="16.4233993"><ele>800.0</ele><time>2026-04-19T10:44:23.247Z</time></trkpt><trkpt lat="38.7488899" lon="16.4234119"><ele>800.0</ele><time>2026-04-19T10:44:24.251Z</time></trkpt><trkpt lat="38.7488182" lon="16.4234265"><ele>800.0000000000001</ele><time>2026-04-19T10:44:25.254Z</time></trkpt><trkpt lat="38.7487141" lon="16.4234933"><ele>800.0</ele><time>2026-04-19T10:44:27.244Z</time></trkpt><trkpt lat="38.7486137" lon="16.4235633"><ele>800.0</ele><time>2026-04-19T10:44:29.251Z</time></trkpt><trkpt lat="38.748556" lon="16.4236181"><ele>800.0</ele><time>2026-04-19T10:44:31.255Z</time></trkpt><trkpt lat="38.7484609" lon="16.4236425"><ele>800.0</ele><time>2026-04-19T10:44:33.241Z</time></trkpt><trkpt lat="38.7483635" lon="16.423654"><ele>800.0</ele><time>2026-04-19T10:44:35.246Z</time></trkpt><trkpt lat="38.7482594" lon="16.4237338"><ele>800.0</ele><time>2026-04-19T10:44:40.244Z</time></trkpt><trkpt lat="38.748188" lon="16.423787"><ele>797.8</ele><time>2026-04-19T10:44:42.245Z</time></trkpt><trkpt lat="38.7480956" lon="16.4238131"><ele>795.6</ele><time>2026-04-19T10:44:44.254Z</time></trkpt><trkpt lat="38.748032" lon="16.4238282"><ele>793.4000000000001</ele><time>2026-04-19T10:44:45.246Z</time></trkpt><trkpt lat="38.7479254" lon="16.4238443"><ele>791.2</ele><time>2026-04-19T10:44:47.254Z</time></trkpt><trkpt lat="38.7478378" lon="16.4238863"><ele>789.0</ele><time>2026-04-19T10:44:49.249Z</time></trkpt><trkpt lat="38.7477398" lon="16.4239013"><ele>786.2</ele><time>2026-04-19T10:44:51.251Z</time></trkpt><trkpt lat="38.7476543" lon="16.4238983"><ele>783.4000000000001</ele><time>2026-04-19T10:44:53.247Z</time></trkpt><trkpt lat="38.7475569" lon="16.4239344"><ele>780.6</ele><time>2026-04-19T10:44:55.253Z</time></trkpt><trkpt lat="38.7474573" lon="16.4240061"><ele>777.8</ele><time>2026-04-19T10:44:57.249Z</time></trkpt><trkpt lat="38.7473575" lon="16.4240781"><ele>775.0</ele><time>2026-04-19T10:44:59.244Z</time></trkpt><trkpt lat="38.7472895" lon="16.4241275"><ele>774.9999999999999</ele><time>2026-04-19T10:45:00.288Z</time></trkpt><trkpt lat="38.7472261" lon="16.4241604"><ele>775.0</ele><time>2026-04-19T10:45:01.252Z</time></trkpt><trkpt lat="38.7471217" lon="16.4242356"><ele>775.0</ele><time>2026-04-19T10:45:03.251Z</time></trkpt><trkpt lat="38.7470726" lon="16.4243037"><ele>775.0</ele><time>2026-04-19T10:45:04.251Z</time></trkpt><trkpt lat="38.7470253" lon="16.4243782"><ele>774.9999999999999</ele><time>2026-04-19T10:45:05.235Z</time></trkpt><trkpt lat="38.746978" lon="16.4244553"><ele>775.0</ele><time>2026-04-19T10:45:06.255Z</time></trkpt><trkpt lat="38.7469004" lon="16.4245711"><ele>774.1666666666666</ele><time>2026-04-19T10:45:08.238Z</time></trkpt><trkpt lat="38.7468127" lon="16.4246749"><ele>773.3333333333333</ele><time>2026-04-19T10:45:10.25Z</time></trkpt><trkpt lat="38.7467258" lon="16.4247499"><ele>772.5</ele><time>2026-04-19T10:45:12.252Z</time></trkpt><trkpt lat="38.7466447" lon="16.4247586"><ele>771.6666666666667</ele><time>2026-04-19T10:45:15.257Z</time></trkpt><trkpt lat="38.746604" lon="16.4246922"><ele>770.8333333333334</ele><time>2026-04-19T10:45:17.249Z</time></trkpt><trkpt lat="38.7465637" lon="16.4246119"><ele>770.0</ele><time>2026-04-19T10:45:19.261Z</time></trkpt><trkpt lat="38.7465225" lon="16.4245121"><ele>769.2</ele><time>2026-04-19T10:45:21.254Z</time></trkpt><trkpt lat="38.7464944" lon="16.4243914"><ele>768.4</ele><time>2026-04-19T10:45:23.241Z</time></trkpt><trkpt lat="38.7464782" lon="16.4242684"><ele>767.5999999999999</ele><time>2026-04-19T10:45:25.255Z</time></trkpt><trkpt lat="38.7464804" lon="16.4241615"><ele>766.8</ele><time>2026-04-19T10:45:27.263Z</time></trkpt><trkpt lat="38.7464793" lon="16.4240242"><ele>766.0</ele><time>2026-04-19T10:45:30.26Z</time></trkpt><trkpt lat="38.746469" lon="16.4239072"><ele>765.0</ele><time>2026-04-19T10:45:32.241Z</time></trkpt><trkpt lat="38.7464538" lon="16.4237649"><ele>764.0</ele><time>2026-04-19T10:45:34.248Z</time></trkpt><trkpt lat="38.7464333" lon="16.4236163"><ele>763.0</ele><time>2026-04-19T10:45:36.244Z</time></trkpt><trkpt lat="38.7464099" lon="16.4234787"><ele>762.0</ele><time>2026-04-19T10:45:38.246Z</time></trkpt><trkpt lat="38.7463643" lon="16.4233279"><ele>762.0</ele><time>2026-04-19T10:45:40.248Z</time></trkpt><trkpt lat="38.746322" lon="16.423257"><ele>762.0</ele><time>2026-04-19T10:45:41.255Z</time></trkpt><trkpt lat="38.7462791" lon="16.4231901"><ele>762.0</ele><time>2026-04-19T10:45:42.242Z</time></trkpt><trkpt lat="38.7462053" lon="16.4230759"><ele>762.0</ele><time>2026-04-19T10:45:44.262Z</time></trkpt><trkpt lat="38.7461359" lon="16.4229569"><ele>762.0</ele><time>2026-04-19T10:45:46.24Z</time></trkpt><trkpt lat="38.7460691" lon="16.4228354"><ele>758.0</ele><time>2026-04-19T10:45:48.253Z</time></trkpt><trkpt lat="38.7460369" lon="16.4227651"><ele>754.0</ele><time>2026-04-19T10:45:50.255Z</time></trkpt><trkpt lat="38.7460041" lon="16.4226731"><ele>750.0</ele><time>2026-04-19T10:45:55.245Z</time></trkpt><trkpt lat="38.7459626" lon="16.4225783"><ele>746.0</ele><time>2026-04-19T10:45:58.255Z</time></trkpt><trkpt lat="38.745936" lon="16.422442"><ele>742.0</ele><time>2026-04-19T10:46:00.252Z</time></trkpt><trkpt lat="38.7459529" lon="16.4222939"><ele>742.0</ele><time>2026-04-19T10:46:02.244Z</time></trkpt><trkpt lat="38.7459825" lon="16.422215"><ele>742.0</ele><time>2026-04-19T10:46:03.257Z</time></trkpt><trkpt lat="38.7460185" lon="16.4221456"><ele>742.0</ele><time>2026-04-19T10:46:04.252Z</time></trkpt><trkpt lat="38.746076" lon="16.4219975"><ele>742.0</ele><time>2026-04-19T10:46:06.267Z</time></trkpt><trkpt lat="38.7461485" lon="16.42186"><ele>742.0</ele><time>2026-04-19T10:46:08.243Z</time></trkpt><trkpt lat="38.7461905" lon="16.421777"><ele>744.3333333333334</ele><time>2026-04-19T10:46:09.254Z</time></trkpt><trkpt lat="38.7462222" lon="16.4216892"><ele>746.6666666666667</ele><time>2026-04-19T10:46:10.253Z</time></trkpt><trkpt lat="38.7462538" lon="16.4215998"><ele>749.0</ele><time>2026-04-19T10:46:11.242Z</time></trkpt><trkpt lat="38.7462835" lon="16.4215166"><ele>751.3333333333334</ele><time>2026-04-19T10:46:12.245Z</time></trkpt><trkpt lat="38.746325" lon="16.4213702"><ele>753.6666666666666</ele><time>2026-04-19T10:46:14.24Z</time></trkpt><trkpt lat="38.7463643" lon="16.4212861"><ele>756.0</ele><time>2026-04-19T10:46:15.254Z</time></trkpt><trkpt lat="38.7464005" lon="16.421209"><ele>756.0</ele><time>2026-04-19T10:46:16.25Z</time></trkpt><trkpt lat="38.7464243" lon="16.4211298"><ele>756.0</ele><time>2026-04-19T10:46:17.241Z</time></trkpt><trkpt lat="38.7464475" lon="16.4210468"><ele>756.0</ele><time>2026-04-19T10:46:18.253Z</time></trkpt><trkpt lat="38.7464726" lon="16.4209619"><ele>756.0</ele><time>2026-04-19T10:46:19.25Z</time></trkpt><trkpt lat="38.7464988" lon="16.4208686"><ele>756.0</ele><time>2026-04-19T10:46:20.24Z</time></trkpt><trkpt lat="38.7465312" lon="16.4207749"><ele>756.0</ele><time>2026-04-19T10:46:21.243Z</time></trkpt><trkpt lat="38.7465679" lon="16.4206865"><ele>756.0</ele><time>2026-04-19T10:46:22.25Z</time></trkpt><trkpt lat="38.7465978" lon="16.4205911"><ele>756.0</ele><time>2026-04-19T10:46:23.24Z</time></trkpt><trkpt lat="38.7466288" lon="16.4204865"><ele>756.0</ele><time>2026-04-19T10:46:24.247Z</time></trkpt><trkpt lat="38.7466531" lon="16.4203904"><ele>756.0</ele><time>2026-04-19T10:46:25.243Z</time></trkpt><trkpt lat="38.7466737" lon="16.4202937"><ele>756.0</ele><time>2026-04-19T10:46:26.245Z</time></trkpt><trkpt lat="38.7466916" lon="16.4202101"><ele>756.0</ele><time>2026-04-19T10:46:27.258Z</time></trkpt><trkpt lat="38.7467172" lon="16.420128"><ele>756.0</ele><time>2026-04-19T10:46:29.245Z</time></trkpt><trkpt lat="38.7467446" lon="16.4200231"><ele>755.5999999999999</ele><time>2026-04-19T10:47:23.254Z</time></trkpt><trkpt lat="38.7467788" lon="16.4199402"><ele>755.2</ele><time>2026-04-19T10:47:25.251Z</time></trkpt><trkpt lat="38.7468305" lon="16.419846"><ele>754.8</ele><time>2026-04-19T10:47:27.239Z</time></trkpt><trkpt lat="38.7469033" lon="16.4197474"><ele>754.4000000000001</ele><time>2026-04-19T10:47:29.249Z</time></trkpt><trkpt lat="38.7469776" lon="16.4196541"><ele>754.0</ele><time>2026-04-19T10:47:31.248Z</time></trkpt><trkpt lat="38.7470553" lon="16.4195603"><ele>755.6666666666667</ele><time>2026-04-19T10:47:33.239Z</time></trkpt><trkpt lat="38.7471537" lon="16.419461"><ele>757.3333333333334</ele><time>2026-04-19T10:47:35.244Z</time></trkpt><trkpt lat="38.747217" lon="16.4194146"><ele>759.0</ele><time>2026-04-19T10:47:36.242Z</time></trkpt><trkpt lat="38.7472868" lon="16.4193765"><ele>760.6666666666666</ele><time>2026-04-19T10:47:37.251Z</time></trkpt><trkpt lat="38.7473497" lon="16.4193698"><ele>762.3333333333333</ele><time>2026-04-19T10:47:38.259Z</time></trkpt><trkpt lat="38.7474114" lon="16.4193144"><ele>764.0</ele><time>2026-04-19T10:47:41.258Z</time></trkpt><trkpt lat="38.7474378" lon="16.4192027"><ele>764.0</ele><time>2026-04-19T10:47:45.244Z</time></trkpt><trkpt lat="38.7474367" lon="16.419095"><ele>764.0</ele><time>2026-04-19T10:47:47.25Z</time></trkpt><trkpt lat="38.7474388" lon="16.4190058"><ele>764.0</ele><time>2026-04-19T10:47:49.254Z</time></trkpt><trkpt lat="38.7474316" lon="16.418889"><ele>764.0</ele><time>2026-04-19T10:47:52.255Z</time></trkpt><trkpt lat="38.7474103" lon="16.4187818"><ele>764.0</ele><time>2026-04-19T10:47:54.246Z</time></trkpt><trkpt lat="38.7473813" lon="16.4186502"><ele>764.0</ele><time>2026-04-19T10:47:56.25Z</time></trkpt><trkpt lat="38.7473484" lon="16.4185198"><ele>765.4000000000001</ele><time>2026-04-19T10:47:58.25Z</time></trkpt><trkpt lat="38.7473398" lon="16.418374"><ele>766.8</ele><time>2026-04-19T10:48:00.249Z</time></trkpt><trkpt lat="38.7472839" lon="16.4182464"><ele>768.2</ele><time>2026-04-19T10:48:02.25Z</time></trkpt><trkpt lat="38.7471538" lon="16.4182401"><ele>769.5999999999999</ele><time>2026-04-19T10:48:04.246Z</time></trkpt><trkpt lat="38.7470738" lon="16.418283"><ele>771.0</ele><time>2026-04-19T10:48:05.242Z</time></trkpt><trkpt lat="38.7470082" lon="16.4183115"><ele>771.0</ele><time>2026-04-19T10:48:06.25Z</time></trkpt><trkpt lat="38.7469181" lon="16.4183606"><ele>771.0</ele><time>2026-04-19T10:48:08.242Z</time></trkpt><trkpt lat="38.7468331" lon="16.4183614"><ele>771.0</ele><time>2026-04-19T10:48:09.255Z</time></trkpt><trkpt lat="38.7467612" lon="16.4183712"><ele>771.0</ele><time>2026-04-19T10:48:10.263Z</time></trkpt><trkpt lat="38.7466946" lon="16.4183615"><ele>771.0</ele><time>2026-04-19T10:48:11.242Z</time></trkpt><trkpt lat="38.7466227" lon="16.4183319"><ele>771.0</ele><time>2026-04-19T10:48:12.251Z</time></trkpt><trkpt lat="38.7465254" lon="16.4182575"><ele>770.5999999999999</ele><time>2026-04-19T10:48:14.243Z</time></trkpt><trkpt lat="38.7464722" lon="16.4182005"><ele>770.2</ele><time>2026-04-19T10:48:16.262Z</time></trkpt><trkpt lat="38.7464085" lon="16.4181165"><ele>769.8</ele><time>2026-04-19T10:48:19.261Z</time></trkpt><trkpt lat="38.7463411" lon="16.4180091"><ele>769.4000000000001</ele><time>2026-04-19T10:48:21.254Z</time></trkpt><trkpt lat="38.7462736" lon="16.417903"><ele>769.0</ele><time>2026-04-19T10:48:23.258Z</time></trkpt><trkpt lat="38.7461949" lon="16.4178058"><ele>769.8000000000001</ele><time>2026-04-19T10:48:25.246Z</time></trkpt><trkpt lat="38.746106" lon="16.4177445"><ele>770.6</ele><time>2026-04-19T10:48:27.252Z</time></trkpt><trkpt lat="38.7460371" lon="16.4176563"><ele>771.4</ele><time>2026-04-19T10:48:29.243Z</time></trkpt><trkpt lat="38.7459952" lon="16.4175929"><ele>772.2</ele><time>2026-04-19T10:48:33.259Z</time></trkpt><trkpt lat="38.7459489" lon="16.4174888"><ele>773.0</ele><time>2026-04-19T10:48:41.262Z</time></trkpt><trkpt lat="38.7459141" lon="16.4173671"><ele>770.8333333333334</ele><time>2026-04-19T10:48:43.247Z</time></trkpt><trkpt lat="38.7458831" lon="16.4172352"><ele>768.6666666666667</ele><time>2026-04-19T10:48:45.25Z</time></trkpt><trkpt lat="38.7458591" lon="16.4171164"><ele>766.5</ele><time>2026-04-19T10:48:47.241Z</time></trkpt><trkpt lat="38.7458388" lon="16.4169998"><ele>764.3333333333334</ele><time>2026-04-19T10:48:49.255Z</time></trkpt><trkpt lat="38.7458264" lon="16.4169106"><ele>762.1666666666667</ele><time>2026-04-19T10:48:51.248Z</time></trkpt><trkpt lat="38.7458141" lon="16.4168101"><ele>760.0</ele><time>2026-04-19T10:48:53.243Z</time></trkpt><trkpt lat="38.745805" lon="16.4167223"><ele>759.8</ele><time>2026-04-19T10:48:55.266Z</time></trkpt><trkpt lat="38.7457709" lon="16.4166435"><ele>759.6</ele><time>2026-04-19T10:48:57.25Z</time></trkpt><trkpt lat="38.7457399" lon="16.4164931"><ele>759.4000000000001</ele><time>2026-04-19T10:48:59.243Z</time></trkpt><trkpt lat="38.7457304" lon="16.4163289"><ele>759.2</ele><time>2026-04-19T10:49:01.243Z</time></trkpt><trkpt lat="38.7457289" lon="16.4162447"><ele>759.0</ele><time>2026-04-19T10:49:02.247Z</time></trkpt><trkpt lat="38.7457234" lon="16.4160918"><ele>758.4000000000001</ele><time>2026-04-19T10:49:04.25Z</time></trkpt><trkpt lat="38.7457147" lon="16.4159425"><ele>757.8</ele><time>2026-04-19T10:49:06.263Z</time></trkpt><trkpt lat="38.7457211" lon="16.4157838"><ele>757.2</ele><time>2026-04-19T10:49:08.247Z</time></trkpt><trkpt lat="38.7457281" lon="16.4157"><ele>756.5999999999999</ele><time>2026-04-19T10:49:09.262Z</time></trkpt><trkpt lat="38.7457272" lon="16.4155261"><ele>756.0</ele><time>2026-04-19T10:49:11.242Z</time></trkpt><trkpt lat="38.745723" lon="16.4154212"><ele>755.1666666666666</ele><time>2026-04-19T10:49:12.253Z</time></trkpt><trkpt lat="38.7457178" lon="16.4153123"><ele>754.3333333333334</ele><time>2026-04-19T10:49:13.248Z</time></trkpt><trkpt lat="38.7457091" lon="16.4152073"><ele>753.5</ele><time>2026-04-19T10:49:14.245Z</time></trkpt><trkpt lat="38.7456973" lon="16.4151028"><ele>752.6666666666667</ele><time>2026-04-19T10:49:15.255Z</time></trkpt><trkpt lat="38.7456916" lon="16.4150042"><ele>751.8333333333334</ele><time>2026-04-19T10:49:16.255Z</time></trkpt><trkpt lat="38.745687" lon="16.4149137"><ele>751.0</ele><time>2026-04-19T10:49:17.244Z</time></trkpt><trkpt lat="38.7456814" lon="16.4147658"><ele>751.0</ele><time>2026-04-19T10:49:19.256Z</time></trkpt><trkpt lat="38.7456783" lon="16.4146848"><ele>751.0</ele><time>2026-04-19T10:49:20.251Z</time></trkpt><trkpt lat="38.7456817" lon="16.4145855"><ele>751.0</ele><time>2026-04-19T10:49:21.25Z</time></trkpt><trkpt lat="38.7456895" lon="16.4144818"><ele>751.0</ele><time>2026-04-19T10:49:22.263Z</time></trkpt><trkpt lat="38.7457103" lon="16.4143883"><ele>751.0</ele><time>2026-04-19T10:49:23.24Z</time></trkpt><trkpt lat="38.7457387" lon="16.4142945"><ele>751.0</ele><time>2026-04-19T10:49:24.239Z</time></trkpt><trkpt lat="38.745769" lon="16.4142062"><ele>751.6666666666667</ele><time>2026-04-19T10:49:25.244Z</time></trkpt><trkpt lat="38.7458022" lon="16.4141265"><ele>752.3333333333334</ele><time>2026-04-19T10:49:26.241Z</time></trkpt><trkpt lat="38.7458372" lon="16.4140584"><ele>753.0</ele><time>2026-04-19T10:49:27.243Z</time></trkpt><trkpt lat="38.7459165" lon="16.4139432"><ele>753.6666666666666</ele><time>2026-04-19T10:49:29.253Z</time></trkpt><trkpt lat="38.7459681" lon="16.4138932"><ele>754.3333333333333</ele><time>2026-04-19T10:49:30.244Z</time></trkpt><trkpt lat="38.7460189" lon="16.4138214"><ele>755.0</ele><time>2026-04-19T10:49:31.247Z</time></trkpt><trkpt lat="38.7460343" lon="16.4136995"><ele>755.0</ele><time>2026-04-19T10:49:33.261Z</time></trkpt><trkpt lat="38.7459479" lon="16.4136443"><ele>755.0</ele><time>2026-04-19T10:49:35.252Z</time></trkpt><trkpt lat="38.745882" lon="16.4136468"><ele>755.0</ele><time>2026-04-19T10:49:36.245Z</time></trkpt><trkpt lat="38.7458176" lon="16.4136586"><ele>755.0</ele><time>2026-04-19T10:49:37.24Z</time></trkpt><trkpt lat="38.7457545" lon="16.4136788"><ele>755.0</ele><time>2026-04-19T10:49:38.244Z</time></trkpt><trkpt lat="38.7456882" lon="16.4137005"><ele>755.0</ele><time>2026-04-19T10:49:39.244Z</time></trkpt><trkpt lat="38.7456115" lon="16.4137225"><ele>755.0</ele><time>2026-04-19T10:49:40.243Z</time></trkpt><trkpt lat="38.7455305" lon="16.4137452"><ele>755.0</ele><time>2026-04-19T10:49:41.245Z</time></trkpt><trkpt lat="38.7454514" lon="16.413765"><ele>755.0</ele><time>2026-04-19T10:49:42.255Z</time></trkpt><trkpt lat="38.7453704" lon="16.4137837"><ele>755.0</ele><time>2026-04-19T10:49:43.251Z</time></trkpt><trkpt lat="38.7452907" lon="16.4138092"><ele>755.0</ele><time>2026-04-19T10:49:44.258Z</time></trkpt><trkpt lat="38.7452145" lon="16.4138376"><ele>755.0</ele><time>2026-04-19T10:49:45.253Z</time></trkpt><trkpt lat="38.745143" lon="16.4138671"><ele>755.0</ele><time>2026-04-19T10:49:46.243Z</time></trkpt><trkpt lat="38.7450693" lon="16.4139072"><ele>751.8333333333333</ele><time>2026-04-19T10:49:47.252Z</time></trkpt><trkpt lat="38.7449965" lon="16.4139486"><ele>748.6666666666666</ele><time>2026-04-19T10:49:48.244Z</time></trkpt><trkpt lat="38.7449198" lon="16.4139853"><ele>745.5</ele><time>2026-04-19T10:49:49.25Z</time></trkpt><trkpt lat="38.7448397" lon="16.4140115"><ele>742.3333333333334</ele><time>2026-04-19T10:49:50.261Z</time></trkpt><trkpt lat="38.7447625" lon="16.4140319"><ele>739.1666666666667</ele><time>2026-04-19T10:49:51.245Z</time></trkpt><trkpt lat="38.7446918" lon="16.4140258"><ele>736.0</ele><time>2026-04-19T10:49:52.241Z</time></trkpt><trkpt lat="38.7446326" lon="16.4139903"><ele>736.0</ele><time>2026-04-19T10:49:53.248Z</time></trkpt><trkpt lat="38.7445936" lon="16.4139194"><ele>736.0</ele><time>2026-04-19T10:49:54.257Z</time></trkpt><trkpt lat="38.7445685" lon="16.4138329"><ele>736.0</ele><time>2026-04-19T10:49:55.246Z</time></trkpt><trkpt lat="38.7445457" lon="16.4137472"><ele>736.0</ele><time>2026-04-19T10:49:56.253Z</time></trkpt><trkpt lat="38.7444613" lon="16.4136517"><ele>736.0</ele><time>2026-04-19T10:49:58.251Z</time></trkpt><trkpt lat="38.7443748" lon="16.4137324"><ele>736.0</ele><time>2026-04-19T10:50:00.249Z</time></trkpt><trkpt lat="38.7443236" lon="16.4138642"><ele>736.2857142857143</ele><time>2026-04-19T10:50:02.254Z</time></trkpt><trkpt lat="38.7442701" lon="16.4139785"><ele>736.5714285714286</ele><time>2026-04-19T10:50:04.246Z</time></trkpt><trkpt lat="38.7442356" lon="16.4140492"><ele>736.8571428571429</ele><time>2026-04-19T10:50:05.252Z</time></trkpt><trkpt lat="38.7442026" lon="16.4141244"><ele>737.1428571428571</ele><time>2026-04-19T10:50:06.258Z</time></trkpt><trkpt lat="38.7441746" lon="16.4142014"><ele>737.4285714285713</ele><time>2026-04-19T10:50:07.251Z</time></trkpt><trkpt lat="38.7441509" lon="16.4142822"><ele>737.7142857142857</ele><time>2026-04-19T10:50:08.257Z</time></trkpt><trkpt lat="38.7441303" lon="16.4143598"><ele>738.0</ele><time>2026-04-19T10:50:09.255Z</time></trkpt><trkpt lat="38.7440976" lon="16.4145205"><ele>738.0</ele><time>2026-04-19T10:50:11.251Z</time></trkpt><trkpt lat="38.7440811" lon="16.414612"><ele>738.0</ele><time>2026-04-19T10:50:12.259Z</time></trkpt><trkpt lat="38.7440664" lon="16.4147001"><ele>738.0</ele><time>2026-04-19T10:50:13.259Z</time></trkpt><trkpt lat="38.7440379" lon="16.4148535"><ele>738.0</ele><time>2026-04-19T10:50:15.25Z</time></trkpt><trkpt lat="38.7440168" lon="16.4149325"><ele>738.0</ele><time>2026-04-19T10:50:16.252Z</time></trkpt><trkpt lat="38.7439545" lon="16.4150628"><ele>735.4</ele><time>2026-04-19T10:50:18.248Z</time></trkpt><trkpt lat="38.7438571" lon="16.4151318"><ele>732.8</ele><time>2026-04-19T10:50:20.255Z</time></trkpt><trkpt lat="38.7437417" lon="16.4150736"><ele>730.2</ele><time>2026-04-19T10:50:22.253Z</time></trkpt><trkpt lat="38.7436899" lon="16.4150008"><ele>727.6</ele><time>2026-04-19T10:50:23.266Z</time></trkpt><trkpt lat="38.74364" lon="16.4149272"><ele>725.0</ele><time>2026-04-19T10:50:24.238Z</time></trkpt><trkpt lat="38.7435859" lon="16.4148556"><ele>725.6666666666666</ele><time>2026-04-19T10:50:25.255Z</time></trkpt><trkpt lat="38.7435251" lon="16.4148001"><ele>726.3333333333333</ele><time>2026-04-19T10:50:26.262Z</time></trkpt><trkpt lat="38.7434529" lon="16.4147715"><ele>727.0</ele><time>2026-04-19T10:50:27.242Z</time></trkpt><trkpt lat="38.7433755" lon="16.4147648"><ele>727.6666666666666</ele><time>2026-04-19T10:50:28.259Z</time></trkpt><trkpt lat="38.7432971" lon="16.4147733"><ele>728.3333333333334</ele><time>2026-04-19T10:50:29.255Z</time></trkpt><trkpt lat="38.743218" lon="16.4147896"><ele>729.0</ele><time>2026-04-19T10:50:30.245Z</time></trkpt><trkpt lat="38.7431407" lon="16.4148146"><ele>729.0</ele><time>2026-04-19T10:50:31.255Z</time></trkpt><trkpt lat="38.743069" lon="16.4148481"><ele>729.0</ele><time>2026-04-19T10:50:32.258Z</time></trkpt><trkpt lat="38.7430135" lon="16.4149042"><ele>729.0</ele><time>2026-04-19T10:50:33.246Z</time></trkpt><trkpt lat="38.7429721" lon="16.4149855"><ele>729.0</ele><time>2026-04-19T10:50:34.242Z</time></trkpt><trkpt lat="38.7429494" lon="16.4150824"><ele>729.0</ele><time>2026-04-19T10:50:35.243Z</time></trkpt><trkpt lat="38.7429433" lon="16.415186"><ele>729.0</ele><time>2026-04-19T10:50:36.245Z</time></trkpt><trkpt lat="38.7429466" lon="16.4152893"><ele>729.0</ele><time>2026-04-19T10:50:37.243Z</time></trkpt><trkpt lat="38.7429499" lon="16.4154041"><ele>729.0</ele><time>2026-04-19T10:50:38.261Z</time></trkpt><trkpt lat="38.7429497" lon="16.4155227"><ele>729.0</ele><time>2026-04-19T10:50:39.256Z</time></trkpt><trkpt lat="38.7429422" lon="16.4156413"><ele>729.0</ele><time>2026-04-19T10:50:40.256Z</time></trkpt><trkpt lat="38.7429253" lon="16.4157555"><ele>729.0</ele><time>2026-04-19T10:50:41.244Z</time></trkpt><trkpt lat="38.7429051" lon="16.415868"><ele>728.0</ele><time>2026-04-19T10:50:42.244Z</time></trkpt><trkpt lat="38.7428797" lon="16.4159782"><ele>727.0</ele><time>2026-04-19T10:50:43.249Z</time></trkpt><trkpt lat="38.7428454" lon="16.4160869"><ele>726.0</ele><time>2026-04-19T10:50:44.251Z</time></trkpt><trkpt lat="38.7428068" lon="16.4161835"><ele>725.0</ele><time>2026-04-19T10:50:45.244Z</time></trkpt><trkpt lat="38.7427648" lon="16.4162694"><ele>724.0</ele><time>2026-04-19T10:50:46.243Z</time></trkpt><trkpt lat="38.7427107" lon="16.4163584"><ele>723.0</ele><time>2026-04-19T10:50:47.256Z</time></trkpt><trkpt lat="38.7426522" lon="16.4164451"><ele>723.0</ele><time>2026-04-19T10:50:48.25Z</time></trkpt><trkpt lat="38.7425793" lon="16.4165037"><ele>723.0</ele><time>2026-04-19T10:50:49.244Z</time></trkpt><trkpt lat="38.7424976" lon="16.4165276"><ele>723.0</ele><time>2026-04-19T10:50:50.252Z</time></trkpt><trkpt lat="38.74242" lon="16.4165154"><ele>723.0</ele><time>2026-04-19T10:50:51.261Z</time></trkpt><trkpt lat="38.742351" lon="16.416473"><ele>723.0</ele><time>2026-04-19T10:50:52.244Z</time></trkpt><trkpt lat="38.7422864" lon="16.4164171"><ele>723.0</ele><time>2026-04-19T10:50:53.254Z</time></trkpt><trkpt lat="38.7422211" lon="16.4163701"><ele>723.0</ele><time>2026-04-19T10:50:54.253Z</time></trkpt><trkpt lat="38.742154" lon="16.4163272"><ele>723.0</ele><time>2026-04-19T10:50:55.243Z</time></trkpt><trkpt lat="38.7420904" lon="16.4163656"><ele>723.0</ele><time>2026-04-19T10:50:56.255Z</time></trkpt><trkpt lat="38.7420288" lon="16.4164058"><ele>723.0</ele><time>2026-04-19T10:50:57.253Z</time></trkpt><trkpt lat="38.7419817" lon="16.4164802"><ele>723.0</ele><time>2026-04-19T10:50:58.239Z</time></trkpt><trkpt lat="38.7419544" lon="16.4166003"><ele>723.0</ele><time>2026-04-19T10:50:59.263Z</time></trkpt><trkpt lat="38.7419332" lon="16.4167219"><ele>723.0</ele><time>2026-04-19T10:51:00.243Z</time></trkpt><trkpt lat="38.7419036" lon="16.4168419"><ele>723.0</ele><time>2026-04-19T10:51:01.237Z</time></trkpt><trkpt lat="38.7418563" lon="16.4169536"><ele>723.0</ele><time>2026-04-19T10:51:02.253Z</time></trkpt><trkpt lat="38.741797" lon="16.4170563"><ele>723.0</ele><time>2026-04-19T10:51:03.25Z</time></trkpt><trkpt lat="38.7417277" lon="16.4171537"><ele>723.0</ele><time>2026-04-19T10:51:04.238Z</time></trkpt><trkpt lat="38.7416504" lon="16.4172451"><ele>723.2</ele><time>2026-04-19T10:51:05.245Z</time></trkpt><trkpt lat="38.7415681" lon="16.4173274"><ele>723.4</ele><time>2026-04-19T10:51:06.251Z</time></trkpt><trkpt lat="38.7414848" lon="16.4174131"><ele>723.6</ele><time>2026-04-19T10:51:07.242Z</time></trkpt><trkpt lat="38.7414069" lon="16.4175059"><ele>723.8000000000001</ele><time>2026-04-19T10:51:08.257Z</time></trkpt><trkpt lat="38.7413341" lon="16.4176043"><ele>724.0</ele><time>2026-04-19T10:51:09.253Z</time></trkpt><trkpt lat="38.7412633" lon="16.417702"><ele>724.0</ele><time>2026-04-19T10:51:10.24Z</time></trkpt><trkpt lat="38.7411951" lon="16.4178002"><ele>724.0</ele><time>2026-04-19T10:51:11.243Z</time></trkpt><trkpt lat="38.7411289" lon="16.417896"><ele>724.0</ele><time>2026-04-19T10:51:12.253Z</time></trkpt><trkpt lat="38.7410638" lon="16.4179887"><ele>724.0</ele><time>2026-04-19T10:51:13.248Z</time></trkpt><trkpt lat="38.7410027" lon="16.4180785"><ele>724.0</ele><time>2026-04-19T10:51:14.253Z</time></trkpt><trkpt lat="38.740938" lon="16.4181483"><ele>723.8333333333334</ele><time>2026-04-19T10:51:15.252Z</time></trkpt><trkpt lat="38.7408802" lon="16.4182319"><ele>723.6666666666667</ele><time>2026-04-19T10:51:16.242Z</time></trkpt><trkpt lat="38.7408107" lon="16.4182983"><ele>723.5</ele><time>2026-04-19T10:51:17.249Z</time></trkpt><trkpt lat="38.7407458" lon="16.4182962"><ele>723.3333333333334</ele><time>2026-04-19T10:51:18.252Z</time></trkpt><trkpt lat="38.7406526" lon="16.4181778"><ele>723.1666666666666</ele><time>2026-04-19T10:51:20.253Z</time></trkpt><trkpt lat="38.7406117" lon="16.4180947"><ele>723.0</ele><time>2026-04-19T10:51:21.255Z</time></trkpt><trkpt lat="38.7405751" lon="16.4180106"><ele>723.8333333333334</ele><time>2026-04-19T10:51:22.245Z</time></trkpt><trkpt lat="38.7405444" lon="16.4179367"><ele>724.6666666666666</ele><time>2026-04-19T10:51:23.252Z</time></trkpt><trkpt lat="38.7405074" lon="16.4178452"><ele>725.5</ele><time>2026-04-19T10:51:25.246Z</time></trkpt><trkpt lat="38.7405685" lon="16.4177763"><ele>726.3333333333333</ele><time>2026-04-19T10:51:31.248Z</time></trkpt><trkpt lat="38.7406441" lon="16.4177005"><ele>727.1666666666666</ele><time>2026-04-19T10:51:34.258Z</time></trkpt><trkpt lat="38.7406943" lon="16.4176086"><ele>728.0</ele><time>2026-04-19T10:51:36.249Z</time></trkpt><trkpt lat="38.740742" lon="16.4174926"><ele>728.0</ele><time>2026-04-19T10:51:38.26Z</time></trkpt><trkpt lat="38.7407998" lon="16.4173625"><ele>728.0</ele><time>2026-04-19T10:51:40.256Z</time></trkpt><trkpt lat="38.7408256" lon="16.4172727"><ele>728.0</ele><time>2026-04-19T10:51:41.253Z</time></trkpt><trkpt lat="38.74084" lon="16.4171833"><ele>728.0</ele><time>2026-04-19T10:51:42.25Z</time></trkpt><trkpt lat="38.7408617" lon="16.4170315"><ele>728.0</ele><time>2026-04-19T10:51:44.251Z</time></trkpt><trkpt lat="38.7409199" lon="16.4169439"><ele>729.2</ele><time>2026-04-19T10:51:46.252Z</time></trkpt><trkpt lat="38.740968" lon="16.4168476"><ele>730.4</ele><time>2026-04-19T10:51:48.252Z</time></trkpt><trkpt lat="38.7410353" lon="16.4167149"><ele>731.6</ele><time>2026-04-19T10:51:50.255Z</time></trkpt><trkpt lat="38.741113" lon="16.4166006"><ele>732.8000000000001</ele><time>2026-04-19T10:51:52.252Z</time></trkpt><trkpt lat="38.7411863" lon="16.4165079"><ele>734.0</ele><time>2026-04-19T10:51:54.246Z</time></trkpt><trkpt lat="38.7412667" lon="16.4163912"><ele>736.8000000000001</ele><time>2026-04-19T10:51:56.267Z</time></trkpt><trkpt lat="38.7413365" lon="16.4162832"><ele>739.6</ele><time>2026-04-19T10:51:58.252Z</time></trkpt><trkpt lat="38.7414016" lon="16.416164"><ele>742.4</ele><time>2026-04-19T10:52:00.247Z</time></trkpt><trkpt lat="38.7414488" lon="16.4160151"><ele>745.2</ele><time>2026-04-19T10:52:02.252Z</time></trkpt><trkpt lat="38.7414767" lon="16.4159329"><ele>748.0</ele><time>2026-04-19T10:52:03.244Z</time></trkpt><trkpt lat="38.7415137" lon="16.4158508"><ele>748.0</ele><time>2026-04-19T10:52:04.261Z</time></trkpt><trkpt lat="38.7415494" lon="16.4157771"><ele>748.0</ele><time>2026-04-19T10:52:05.25Z</time></trkpt><trkpt lat="38.7416275" lon="16.4156725"><ele>748.0</ele><time>2026-04-19T10:52:07.251Z</time></trkpt><trkpt lat="38.7417143" lon="16.4155946"><ele>748.0</ele><time>2026-04-19T10:52:09.24Z</time></trkpt><trkpt lat="38.7418138" lon="16.4155178"><ele>748.0</ele><time>2026-04-19T10:52:11.263Z</time></trkpt><trkpt lat="38.7418952" lon="16.4154542"><ele>748.8</ele><time>2026-04-19T10:52:13.256Z</time></trkpt><trkpt lat="38.741966" lon="16.415355"><ele>749.5999999999999</ele><time>2026-04-19T10:52:16.254Z</time></trkpt><trkpt lat="38.7420167" lon="16.4152301"><ele>750.4000000000001</ele><time>2026-04-19T10:52:18.26Z</time></trkpt><trkpt lat="38.7420625" lon="16.4150854"><ele>751.2</ele><time>2026-04-19T10:52:20.254Z</time></trkpt><trkpt lat="38.7420868" lon="16.4149995"><ele>752.0</ele><time>2026-04-19T10:52:21.247Z</time></trkpt><trkpt lat="38.7421099" lon="16.4149022"><ele>752.0</ele><time>2026-04-19T10:52:22.241Z</time></trkpt><trkpt lat="38.7421268" lon="16.4148096"><ele>752.0</ele><time>2026-04-19T10:52:23.249Z</time></trkpt><trkpt lat="38.7421432" lon="16.4147233"><ele>752.0</ele><time>2026-04-19T10:52:24.245Z</time></trkpt><trkpt lat="38.7421636" lon="16.4146316"><ele>752.0</ele><time>2026-04-19T10:52:25.257Z</time></trkpt><trkpt lat="38.7421827" lon="16.414545"><ele>752.0</ele><time>2026-04-19T10:52:26.249Z</time></trkpt><trkpt lat="38.742199" lon="16.4144561"><ele>752.0</ele><time>2026-04-19T10:52:27.248Z</time></trkpt><trkpt lat="38.7422165" lon="16.4143607"><ele>752.0</ele><time>2026-04-19T10:52:28.258Z</time></trkpt><trkpt lat="38.742242" lon="16.4142622"><ele>752.8333333333333</ele><time>2026-04-19T10:52:29.246Z</time></trkpt><trkpt lat="38.742276" lon="16.4141645"><ele>753.6666666666666</ele><time>2026-04-19T10:52:30.243Z</time></trkpt><trkpt lat="38.7423069" lon="16.4140739"><ele>754.5</ele><time>2026-04-19T10:52:31.241Z</time></trkpt><trkpt lat="38.7423294" lon="16.4139853"><ele>755.3333333333334</ele><time>2026-04-19T10:52:32.247Z</time></trkpt><trkpt lat="38.7423414" lon="16.4138777"><ele>756.1666666666667</ele><time>2026-04-19T10:52:33.248Z</time></trkpt><trkpt lat="38.7423469" lon="16.4137677"><ele>757.0</ele><time>2026-04-19T10:52:34.251Z</time></trkpt><trkpt lat="38.7423548" lon="16.4136596"><ele>758.0</ele><time>2026-04-19T10:52:35.253Z</time></trkpt><trkpt lat="38.7423622" lon="16.4135466"><ele>759.0</ele><time>2026-04-19T10:52:36.239Z</time></trkpt><trkpt lat="38.7423693" lon="16.4134378"><ele>760.0</ele><time>2026-04-19T10:52:37.246Z</time></trkpt><trkpt lat="38.7423761" lon="16.4133418"><ele>761.0</ele><time>2026-04-19T10:52:38.244Z</time></trkpt><trkpt lat="38.7423455" lon="16.413192"><ele>762.0</ele><time>2026-04-19T10:52:40.247Z</time></trkpt><trkpt lat="38.7423145" lon="16.4130404"><ele>763.8</ele><time>2026-04-19T10:52:42.242Z</time></trkpt><trkpt lat="38.7423002" lon="16.4128889"><ele>765.6</ele><time>2026-04-19T10:52:44.254Z</time></trkpt><trkpt lat="38.7422912" lon="16.4127404"><ele>767.4</ele><time>2026-04-19T10:52:46.243Z</time></trkpt><trkpt lat="38.7422804" lon="16.4125865"><ele>769.1999999999999</ele><time>2026-04-19T10:52:48.255Z</time></trkpt><trkpt lat="38.7422782" lon="16.4124999"><ele>771.0</ele><time>2026-04-19T10:52:49.245Z</time></trkpt><trkpt lat="38.7422771" lon="16.4124123"><ele>771.0</ele><time>2026-04-19T10:52:50.247Z</time></trkpt><trkpt lat="38.7422736" lon="16.412328"><ele>771.0</ele><time>2026-04-19T10:52:51.259Z</time></trkpt><trkpt lat="38.7422566" lon="16.4121688"><ele>771.0</ele><time>2026-04-19T10:52:53.242Z</time></trkpt><trkpt lat="38.7422435" lon="16.4120864"><ele>771.0</ele><time>2026-04-19T10:52:54.249Z</time></trkpt><trkpt lat="38.7422188" lon="16.4120048"><ele>771.0</ele><time>2026-04-19T10:52:55.25Z</time></trkpt><trkpt lat="38.7421797" lon="16.4119237"><ele>771.0</ele><time>2026-04-19T10:52:56.244Z</time></trkpt><trkpt lat="38.7421377" lon="16.4118598"><ele>770.8</ele><time>2026-04-19T10:52:57.251Z</time></trkpt><trkpt lat="38.7420321" lon="16.4118202"><ele>770.5999999999999</ele><time>2026-04-19T10:52:59.262Z</time></trkpt><trkpt lat="38.7419383" lon="16.4118202"><ele>770.4</ele><time>2026-04-19T10:53:01.253Z</time></trkpt><trkpt lat="38.741864" lon="16.4118001"><ele>770.2</ele><time>2026-04-19T10:53:03.259Z</time></trkpt><trkpt lat="38.7417984" lon="16.4117309"><ele>770.0</ele><time>2026-04-19T10:53:05.252Z</time></trkpt><trkpt lat="38.7417495" lon="16.4116245"><ele>770.0</ele><time>2026-04-19T10:53:07.244Z</time></trkpt><trkpt lat="38.7417159" lon="16.4115093"><ele>770.0</ele><time>2026-04-19T10:53:09.25Z</time></trkpt><trkpt lat="38.7416792" lon="16.4114117"><ele>770.0</ele><time>2026-04-19T10:53:11.253Z</time></trkpt><trkpt lat="38.7416544" lon="16.4112668"><ele>770.0</ele><time>2026-04-19T10:53:13.246Z</time></trkpt><trkpt lat="38.7416503" lon="16.4111183"><ele>770.0</ele><time>2026-04-19T10:53:15.242Z</time></trkpt><trkpt lat="38.7416835" lon="16.410976"><ele>772.0</ele><time>2026-04-19T10:53:17.248Z</time></trkpt><trkpt lat="38.7417437" lon="16.4108472"><ele>774.0</ele><time>2026-04-19T10:53:19.25Z</time></trkpt><trkpt lat="38.7417909" lon="16.4106979"><ele>776.0</ele><time>2026-04-19T10:53:21.258Z</time></trkpt><trkpt lat="38.7418044" lon="16.4106095"><ele>778.0</ele><time>2026-04-19T10:53:22.247Z</time></trkpt><trkpt lat="38.7418103" lon="16.4105077"><ele>780.0</ele><time>2026-04-19T10:53:23.242Z</time></trkpt><trkpt lat="38.7418178" lon="16.4104059"><ele>781.1666666666666</ele><time>2026-04-19T10:53:24.247Z</time></trkpt><trkpt lat="38.7418234" lon="16.410287"><ele>782.3333333333333</ele><time>2026-04-19T10:53:26.247Z</time></trkpt><trkpt lat="38.7417609" lon="16.4102214"><ele>783.5</ele><time>2026-04-19T10:53:49.26Z</time></trkpt><trkpt lat="38.7416728" lon="16.4101991"><ele>784.6666666666666</ele><time>2026-04-19T10:53:54.26Z</time></trkpt><trkpt lat="38.7415899" lon="16.4102216"><ele>785.8333333333333</ele><time>2026-04-19T10:53:57.254Z</time></trkpt><trkpt lat="38.7415092" lon="16.4102102"><ele>787.0</ele><time>2026-04-19T10:54:01.262Z</time></trkpt><trkpt lat="38.7414389" lon="16.410232"><ele>786.9999999999999</ele><time>2026-04-19T10:54:03.272Z</time></trkpt><trkpt lat="38.7413725" lon="16.4102751"><ele>787.0</ele><time>2026-04-19T10:54:11.251Z</time></trkpt><trkpt lat="38.7413699" lon="16.41036"><ele>787.0</ele><time>2026-04-19T10:54:57.254Z</time></trkpt><trkpt lat="38.7413138" lon="16.4103968"><ele>787.0</ele><time>2026-04-19T10:59:46.239Z</time></trkpt><trkpt lat="38.7413008" lon="16.4105003"><ele>786.9999999999999</ele><time>2026-04-19T11:49:38.256Z</time></trkpt><trkpt lat="38.7412331" lon="16.4105602"><ele>787.0</ele><time>2026-04-19T11:49:41.251Z</time></trkpt><trkpt lat="38.7411977" lon="16.4104629"><ele>786.9999999999999</ele><time>2026-04-19T11:49:49.254Z</time></trkpt><trkpt lat="38.7411836" lon="16.4103634"><ele>787.0</ele><time>2026-04-19T11:49:50.246Z</time></trkpt><trkpt lat="38.741166" lon="16.4102507"><ele>787.0</ele><time>2026-04-19T11:49:51.256Z</time></trkpt><trkpt lat="38.7411465" lon="16.4101434"><ele>787.0</ele><time>2026-04-19T11:49:52.262Z</time></trkpt><trkpt lat="38.7411104" lon="16.4100387"><ele>786.9999999999999</ele><time>2026-04-19T11:49:53.256Z</time></trkpt><trkpt lat="38.7410824" lon="16.4099401"><ele>787.0</ele><time>2026-04-19T11:49:54.245Z</time></trkpt><trkpt lat="38.7410631" lon="16.4098367"><ele>787.3333333333333</ele><time>2026-04-19T11:49:55.257Z</time></trkpt><trkpt lat="38.7410426" lon="16.4097351"><ele>787.6666666666666</ele><time>2026-04-19T11:49:56.26Z</time></trkpt><trkpt lat="38.7410311" lon="16.4096488"><ele>788.0</ele><time>2026-04-19T11:49:57.244Z</time></trkpt><trkpt lat="38.7410585" lon="16.4095284"><ele>788.3333333333333</ele><time>2026-04-19T11:49:59.265Z</time></trkpt><trkpt lat="38.7410823" lon="16.4094379"><ele>788.6666666666666</ele><time>2026-04-19T11:50:01.263Z</time></trkpt><trkpt lat="38.7411288" lon="16.4093198"><ele>789.0</ele><time>2026-04-19T11:50:04.252Z</time></trkpt><trkpt lat="38.7411745" lon="16.4092254"><ele>790.6666666666666</ele><time>2026-04-19T11:50:07.256Z</time></trkpt><trkpt lat="38.7412259" lon="16.4091444"><ele>792.3333333333333</ele><time>2026-04-19T11:50:09.264Z</time></trkpt><trkpt lat="38.7412734" lon="16.409077"><ele>794.0</ele><time>2026-04-19T11:50:11.283Z</time></trkpt><trkpt lat="38.7412941" lon="16.4089987"><ele>795.6666666666666</ele><time>2026-04-19T11:50:13.246Z</time></trkpt><trkpt lat="38.7412806" lon="16.4088998"><ele>797.3333333333333</ele><time>2026-04-19T11:50:16.252Z</time></trkpt><trkpt lat="38.7412248" lon="16.4087958"><ele>799.0</ele><time>2026-04-19T11:50:28.258Z</time></trkpt><trkpt lat="38.7411994" lon="16.4087199"><ele>798.6666666666666</ele><time>2026-04-19T11:50:30.251Z</time></trkpt><trkpt lat="38.7411752" lon="16.4086383"><ele>798.3333333333333</ele><time>2026-04-19T11:50:33.255Z</time></trkpt><trkpt lat="38.7411501" lon="16.4085453"><ele>798.0</ele><time>2026-04-19T11:50:40.26Z</time></trkpt><trkpt lat="38.7411242" lon="16.40846"><ele>797.6666666666667</ele><time>2026-04-19T11:50:43.258Z</time></trkpt><trkpt lat="38.7410918" lon="16.4083622"><ele>797.3333333333334</ele><time>2026-04-19T11:50:47.257Z</time></trkpt><trkpt lat="38.7410476" lon="16.4082065"><ele>797.0</ele><time>2026-04-19T11:51:01.262Z</time></trkpt><trkpt lat="38.7410247" lon="16.4081059"><ele>797.0</ele><time>2026-04-19T11:51:04.255Z</time></trkpt><trkpt lat="38.7410016" lon="16.4080219"><ele>797.0</ele><time>2026-04-19T11:51:07.253Z</time></trkpt><trkpt lat="38.7409872" lon="16.4079414"><ele>797.0</ele><time>2026-04-19T11:51:11.255Z</time></trkpt><trkpt lat="38.7409722" lon="16.4078618"><ele>797.0</ele><time>2026-04-19T11:51:16.271Z</time></trkpt><trkpt lat="38.740951" lon="16.4077788"><ele>797.0</ele><time>2026-04-19T11:51:21.248Z</time></trkpt><trkpt lat="38.740927" lon="16.40769"><ele>797.0</ele><time>2026-04-19T11:51:26.255Z</time></trkpt><trkpt lat="38.7409042" lon="16.4076091"><ele>797.0</ele><time>2026-04-19T11:51:31.262Z</time></trkpt><trkpt lat="38.7408835" lon="16.4075277"><ele>797.1428571428571</ele><time>2026-04-19T11:51:36.25Z</time></trkpt><trkpt lat="38.7408654" lon="16.4074466"><ele>797.2857142857143</ele><time>2026-04-19T11:51:43.25Z</time></trkpt><trkpt lat="38.7408538" lon="16.4073539"><ele>797.4285714285714</ele><time>2026-04-19T11:51:48.271Z</time></trkpt><trkpt lat="38.7408391" lon="16.4072665"><ele>797.5714285714286</ele><time>2026-04-19T11:51:51.268Z</time></trkpt><trkpt lat="38.7408222" lon="16.4071865"><ele>797.7142857142858</ele><time>2026-04-19T11:51:56.247Z</time></trkpt><trkpt lat="38.7407996" lon="16.4070981"><ele>797.8571428571429</ele><time>2026-04-19T11:52:01.246Z</time></trkpt><trkpt lat="38.7407765" lon="16.4069971"><ele>798.0</ele><time>2026-04-19T11:52:07.261Z</time></trkpt><trkpt lat="38.7407521" lon="16.4069176"><ele>799.1666666666666</ele><time>2026-04-19T11:52:11.249Z</time></trkpt><trkpt lat="38.7407315" lon="16.4068117"><ele>800.3333333333333</ele><time>2026-04-19T11:52:16.248Z</time></trkpt><trkpt lat="38.7407031" lon="16.4067054"><ele>801.5</ele><time>2026-04-19T11:52:19.258Z</time></trkpt><trkpt lat="38.7406851" lon="16.4066268"><ele>802.6666666666666</ele><time>2026-04-19T11:52:21.255Z</time></trkpt><trkpt lat="38.7406637" lon="16.406532"><ele>803.8333333333333</ele><time>2026-04-19T11:52:25.255Z</time></trkpt><trkpt lat="38.7406479" lon="16.4064477"><ele>805.0</ele><time>2026-04-19T11:52:28.261Z</time></trkpt><trkpt lat="38.7406233" lon="16.4063417"><ele>805.8</ele><time>2026-04-19T11:52:31.255Z</time></trkpt><trkpt lat="38.7405902" lon="16.406216"><ele>806.6</ele><time>2026-04-19T11:52:34.263Z</time></trkpt><trkpt lat="38.7405577" lon="16.4060875"><ele>807.4000000000001</ele><time>2026-04-19T11:52:36.252Z</time></trkpt><trkpt lat="38.7405335" lon="16.4059975"><ele>808.2</ele><time>2026-04-19T11:52:37.253Z</time></trkpt><trkpt lat="38.7405087" lon="16.4058845"><ele>809.0</ele><time>2026-04-19T11:52:38.252Z</time></trkpt><trkpt lat="38.74048" lon="16.4057822"><ele>809.0000000000001</ele><time>2026-04-19T11:52:39.255Z</time></trkpt><trkpt lat="38.7404568" lon="16.4056868"><ele>809.0</ele><time>2026-04-19T11:52:40.258Z</time></trkpt><trkpt lat="38.7404335" lon="16.4055976"><ele>809.0</ele><time>2026-04-19T11:52:41.246Z</time></trkpt><trkpt lat="38.7404119" lon="16.4055194"><ele>809.0</ele><time>2026-04-19T11:52:42.247Z</time></trkpt><trkpt lat="38.7403858" lon="16.405425"><ele>809.0000000000001</ele><time>2026-04-19T11:52:43.257Z</time></trkpt><trkpt lat="38.7403556" lon="16.4053202"><ele>809.0</ele><time>2026-04-19T11:52:44.244Z</time></trkpt><trkpt lat="38.7403242" lon="16.4052109"><ele>809.1666666666667</ele><time>2026-04-19T11:52:45.247Z</time></trkpt><trkpt lat="38.7403074" lon="16.4050733"><ele>809.3333333333334</ele><time>2026-04-19T11:52:47.241Z</time></trkpt><trkpt lat="38.7403097" lon="16.404956"><ele>809.5</ele><time>2026-04-19T11:52:49.262Z</time></trkpt><trkpt lat="38.7403452" lon="16.4048296"><ele>809.6666666666667</ele><time>2026-04-19T11:52:51.249Z</time></trkpt><trkpt lat="38.7403688" lon="16.4047543"><ele>809.8333333333334</ele><time>2026-04-19T11:52:52.25Z</time></trkpt><trkpt lat="38.7403968" lon="16.4046676"><ele>810.0</ele><time>2026-04-19T11:52:53.254Z</time></trkpt><trkpt lat="38.7404208" lon="16.4045686"><ele>809.6666666666666</ele><time>2026-04-19T11:52:54.25Z</time></trkpt><trkpt lat="38.7404433" lon="16.4044792"><ele>809.3333333333333</ele><time>2026-04-19T11:52:55.253Z</time></trkpt><trkpt lat="38.7404718" lon="16.404374"><ele>809.0</ele><time>2026-04-19T11:52:56.252Z</time></trkpt><trkpt lat="38.7405084" lon="16.4042764"><ele>808.6666666666666</ele><time>2026-04-19T11:52:57.256Z</time></trkpt><trkpt lat="38.7405395" lon="16.4041926"><ele>808.3333333333333</ele><time>2026-04-19T11:52:58.261Z</time></trkpt><trkpt lat="38.7405715" lon="16.404099"><ele>808.0</ele><time>2026-04-19T11:52:59.26Z</time></trkpt><trkpt lat="38.740604" lon="16.4040109"><ele>807.9999999999999</ele><time>2026-04-19T11:53:00.248Z</time></trkpt><trkpt lat="38.7406348" lon="16.4039315"><ele>808.0</ele><time>2026-04-19T11:53:01.245Z</time></trkpt><trkpt lat="38.7406702" lon="16.4038319"><ele>808.0</ele><time>2026-04-19T11:53:02.253Z</time></trkpt><trkpt lat="38.7407021" lon="16.4037373"><ele>808.0</ele><time>2026-04-19T11:53:03.254Z</time></trkpt><trkpt lat="38.74073" lon="16.4036448"><ele>807.9999999999999</ele><time>2026-04-19T11:53:04.247Z</time></trkpt><trkpt lat="38.7407625" lon="16.4035597"><ele>808.0</ele><time>2026-04-19T11:53:05.256Z</time></trkpt><trkpt lat="38.7408002" lon="16.4034757"><ele>807.6666666666666</ele><time>2026-04-19T11:53:06.249Z</time></trkpt><trkpt lat="38.740838" lon="16.4033984"><ele>807.3333333333333</ele><time>2026-04-19T11:53:07.243Z</time></trkpt><trkpt lat="38.740865" lon="16.403288"><ele>807.0</ele><time>2026-04-19T11:53:08.264Z</time></trkpt><trkpt lat="38.740904" lon="16.403179"><ele>806.6666666666667</ele><time>2026-04-19T11:53:09.253Z</time></trkpt><trkpt lat="38.7409455" lon="16.4030824"><ele>806.3333333333334</ele><time>2026-04-19T11:53:10.246Z</time></trkpt><trkpt lat="38.7409777" lon="16.4029782"><ele>806.0</ele><time>2026-04-19T11:53:11.249Z</time></trkpt><trkpt lat="38.7410107" lon="16.4028676"><ele>805.8333333333334</ele><time>2026-04-19T11:53:12.248Z</time></trkpt><trkpt lat="38.7410466" lon="16.402756"><ele>805.6666666666667</ele><time>2026-04-19T11:53:13.252Z</time></trkpt><trkpt lat="38.7410784" lon="16.402654"><ele>805.5</ele><time>2026-04-19T11:53:14.251Z</time></trkpt><trkpt lat="38.741112" lon="16.402573"><ele>805.3333333333333</ele><time>2026-04-19T11:53:15.265Z</time></trkpt><trkpt lat="38.741146" lon="16.4024884"><ele>805.1666666666666</ele><time>2026-04-19T11:53:16.257Z</time></trkpt><trkpt lat="38.7411859" lon="16.4023824"><ele>805.0</ele><time>2026-04-19T11:53:17.257Z</time></trkpt><trkpt lat="38.7412246" lon="16.4022816"><ele>807.4</ele><time>2026-04-19T11:53:18.248Z</time></trkpt><trkpt lat="38.7412595" lon="16.4021686"><ele>809.8</ele><time>2026-04-19T11:53:19.262Z</time></trkpt><trkpt lat="38.7412949" lon="16.4020496"><ele>812.2</ele><time>2026-04-19T11:53:20.255Z</time></trkpt><trkpt lat="38.7413333" lon="16.4019358"><ele>814.6</ele><time>2026-04-19T11:53:21.262Z</time></trkpt><trkpt lat="38.7413666" lon="16.4018301"><ele>817.0</ele><time>2026-04-19T11:53:22.249Z</time></trkpt><trkpt lat="38.7414247" lon="16.4016937"><ele>816.9999999999999</ele><time>2026-04-19T11:53:24.251Z</time></trkpt><trkpt lat="38.7414932" lon="16.4016356"><ele>817.0</ele><time>2026-04-19T11:53:25.259Z</time></trkpt><trkpt lat="38.7415611" lon="16.4015629"><ele>817.0</ele><time>2026-04-19T11:53:26.245Z</time></trkpt><trkpt lat="38.7416217" lon="16.4014911"><ele>817.0</ele><time>2026-04-19T11:53:27.246Z</time></trkpt><trkpt lat="38.7416869" lon="16.4014156"><ele>816.9999999999999</ele><time>2026-04-19T11:53:28.248Z</time></trkpt><trkpt lat="38.7417514" lon="16.4013356"><ele>817.0</ele><time>2026-04-19T11:53:29.246Z</time></trkpt><trkpt lat="38.7418183" lon="16.4012351"><ele>816.6666666666666</ele><time>2026-04-19T11:53:30.247Z</time></trkpt><trkpt lat="38.7418701" lon="16.401128"><ele>816.3333333333333</ele><time>2026-04-19T11:53:31.248Z</time></trkpt><trkpt lat="38.7419116" lon="16.4010248"><ele>816.0</ele><time>2026-04-19T11:53:32.247Z</time></trkpt><trkpt lat="38.7419236" lon="16.4009398"><ele>815.6666666666667</ele><time>2026-04-19T11:53:33.236Z</time></trkpt><trkpt lat="38.7419115" lon="16.4007951"><ele>815.3333333333334</ele><time>2026-04-19T11:53:35.249Z</time></trkpt><trkpt lat="38.7418857" lon="16.4007088"><ele>815.0</ele><time>2026-04-19T11:53:36.245Z</time></trkpt><trkpt lat="38.7418624" lon="16.4006177"><ele>815.0</ele><time>2026-04-19T11:53:37.249Z</time></trkpt><trkpt lat="38.741863" lon="16.4005217"><ele>815.0</ele><time>2026-04-19T11:53:38.247Z</time></trkpt><trkpt lat="38.7418857" lon="16.4004188"><ele>815.0</ele><time>2026-04-19T11:53:39.244Z</time></trkpt><trkpt lat="38.7419176" lon="16.4003068"><ele>815.0</ele><time>2026-04-19T11:53:40.243Z</time></trkpt><trkpt lat="38.7419659" lon="16.4001676"><ele>815.0</ele><time>2026-04-19T11:53:41.249Z</time></trkpt><trkpt lat="38.742031" lon="16.4000249"><ele>816.1666666666667</ele><time>2026-04-19T11:53:42.239Z</time></trkpt><trkpt lat="38.7420852" lon="16.3999065"><ele>817.3333333333334</ele><time>2026-04-19T11:53:43.245Z</time></trkpt><trkpt lat="38.7421284" lon="16.3998111"><ele>818.5</ele><time>2026-04-19T11:53:44.246Z</time></trkpt><trkpt lat="38.7421695" lon="16.3997218"><ele>819.6666666666667</ele><time>2026-04-19T11:53:45.248Z</time></trkpt><trkpt lat="38.742225" lon="16.3996709"><ele>820.8333333333334</ele><time>2026-04-19T11:53:46.239Z</time></trkpt><trkpt lat="38.7422935" lon="16.3996478"><ele>822.0</ele><time>2026-04-19T11:53:47.251Z</time></trkpt><trkpt lat="38.7423744" lon="16.3996212"><ele>822.0</ele><time>2026-04-19T11:53:48.255Z</time></trkpt><trkpt lat="38.7424618" lon="16.3995808"><ele>822.0</ele><time>2026-04-19T11:53:49.247Z</time></trkpt><trkpt lat="38.7425603" lon="16.3995505"><ele>822.0</ele><time>2026-04-19T11:53:50.26Z</time></trkpt><trkpt lat="38.7426753" lon="16.3995191"><ele>822.0</ele><time>2026-04-19T11:53:51.258Z</time></trkpt><trkpt lat="38.7427869" lon="16.3995158"><ele>822.0</ele><time>2026-04-19T11:53:52.247Z</time></trkpt><trkpt lat="38.7428825" lon="16.399528"><ele>821.0</ele><time>2026-04-19T11:53:53.257Z</time></trkpt><trkpt lat="38.7429727" lon="16.3995377"><ele>820.0</ele><time>2026-04-19T11:53:54.258Z</time></trkpt><trkpt lat="38.7430348" lon="16.3995538"><ele>819.0</ele><time>2026-04-19T11:53:55.242Z</time></trkpt><trkpt lat="38.7431519" lon="16.399587"><ele>818.0</ele><time>2026-04-19T11:53:57.25Z</time></trkpt><trkpt lat="38.7432157" lon="16.3996054"><ele>817.0</ele><time>2026-04-19T11:53:58.244Z</time></trkpt><trkpt lat="38.7432832" lon="16.3996227"><ele>816.0</ele><time>2026-04-19T11:53:59.255Z</time></trkpt><trkpt lat="38.7433659" lon="16.3996431"><ele>817.0</ele><time>2026-04-19T11:54:00.244Z</time></trkpt><trkpt lat="38.7434695" lon="16.3996773"><ele>818.0</ele><time>2026-04-19T11:54:01.256Z</time></trkpt><trkpt lat="38.7435797" lon="16.3997192"><ele>819.0</ele><time>2026-04-19T11:54:02.254Z</time></trkpt><trkpt lat="38.743695" lon="16.3997665"><ele>820.0</ele><time>2026-04-19T11:54:03.254Z</time></trkpt><trkpt lat="38.7438222" lon="16.3998213"><ele>820.0</ele><time>2026-04-19T11:54:04.262Z</time></trkpt><trkpt lat="38.7439566" lon="16.3998746"><ele>820.0</ele><time>2026-04-19T11:54:05.244Z</time></trkpt><trkpt lat="38.7440779" lon="16.3999096"><ele>820.0</ele><time>2026-04-19T11:54:06.246Z</time></trkpt><trkpt lat="38.7441856" lon="16.3999457"><ele>820.0</ele><time>2026-04-19T11:54:07.264Z</time></trkpt><trkpt lat="38.744284" lon="16.3999809"><ele>819.0</ele><time>2026-04-19T11:54:08.254Z</time></trkpt><trkpt lat="38.7443817" lon="16.4000149"><ele>818.0</ele><time>2026-04-19T11:54:09.251Z</time></trkpt><trkpt lat="38.7444779" lon="16.400049"><ele>817.0</ele><time>2026-04-19T11:54:10.249Z</time></trkpt><trkpt lat="38.7445702" lon="16.4000813"><ele>816.0</ele><time>2026-04-19T11:54:11.255Z</time></trkpt><trkpt lat="38.7446607" lon="16.4001144"><ele>815.0</ele><time>2026-04-19T11:54:12.258Z</time></trkpt><trkpt lat="38.7447582" lon="16.4001522"><ele>815.0</ele><time>2026-04-19T11:54:13.247Z</time></trkpt><trkpt lat="38.7448763" lon="16.4001967"><ele>815.0</ele><time>2026-04-19T11:54:14.237Z</time></trkpt><trkpt lat="38.7450021" lon="16.4002439"><ele>815.0</ele><time>2026-04-19T11:54:15.256Z</time></trkpt><trkpt lat="38.7451239" lon="16.4002842"><ele>815.0</ele><time>2026-04-19T11:54:16.252Z</time></trkpt><trkpt lat="38.7452404" lon="16.4003209"><ele>816.5</ele><time>2026-04-19T11:54:17.243Z</time></trkpt><trkpt lat="38.7453449" lon="16.4003529"><ele>818.0</ele><time>2026-04-19T11:54:18.265Z</time></trkpt><trkpt lat="38.7454496" lon="16.4003891"><ele>819.5</ele><time>2026-04-19T11:54:19.248Z</time></trkpt><trkpt lat="38.7455654" lon="16.4004382"><ele>821.0</ele><time>2026-04-19T11:54:20.248Z</time></trkpt><trkpt lat="38.7456725" lon="16.4004824"><ele>822.4</ele><time>2026-04-19T11:54:21.255Z</time></trkpt><trkpt lat="38.7457732" lon="16.4005218"><ele>823.8</ele><time>2026-04-19T11:54:22.255Z</time></trkpt><trkpt lat="38.745865" lon="16.4005559"><ele>825.1999999999999</ele><time>2026-04-19T11:54:23.246Z</time></trkpt><trkpt lat="38.7459645" lon="16.400596"><ele>826.5999999999999</ele><time>2026-04-19T11:54:24.249Z</time></trkpt><trkpt lat="38.7460731" lon="16.4006432"><ele>828.0</ele><time>2026-04-19T11:54:25.26Z</time></trkpt><trkpt lat="38.7461803" lon="16.4006827"><ele>830.4</ele><time>2026-04-19T11:54:26.237Z</time></trkpt><trkpt lat="38.7462813" lon="16.4007223"><ele>832.8</ele><time>2026-04-19T11:54:27.251Z</time></trkpt><trkpt lat="38.7463847" lon="16.4007615"><ele>835.2</ele><time>2026-04-19T11:54:28.266Z</time></trkpt><trkpt lat="38.7464918" lon="16.4008"><ele>837.6</ele><time>2026-04-19T11:54:29.246Z</time></trkpt><trkpt lat="38.7465966" lon="16.4008374"><ele>840.0</ele><time>2026-04-19T11:54:30.253Z</time></trkpt><trkpt lat="38.7466916" lon="16.4008852"><ele>840.0</ele><time>2026-04-19T11:54:31.263Z</time></trkpt><trkpt lat="38.7467763" lon="16.4009362"><ele>840.0</ele><time>2026-04-19T11:54:32.239Z</time></trkpt><trkpt lat="38.7468511" lon="16.4009839"><ele>840.0</ele><time>2026-04-19T11:54:33.254Z</time></trkpt><trkpt lat="38.7469186" lon="16.4010348"><ele>840.0</ele><time>2026-04-19T11:54:34.253Z</time></trkpt><trkpt lat="38.7469814" lon="16.4010855"><ele>840.0</ele><time>2026-04-19T11:54:35.243Z</time></trkpt><trkpt lat="38.7470422" lon="16.401136"><ele>840.0</ele><time>2026-04-19T11:54:36.249Z</time></trkpt><trkpt lat="38.7471066" lon="16.4011868"><ele>841.8333333333334</ele><time>2026-04-19T11:54:37.249Z</time></trkpt><trkpt lat="38.7471714" lon="16.4012389"><ele>843.6666666666667</ele><time>2026-04-19T11:54:38.249Z</time></trkpt><trkpt lat="38.7472379" lon="16.4012911"><ele>845.5</ele><time>2026-04-19T11:54:39.254Z</time></trkpt><trkpt lat="38.7473121" lon="16.4013437"><ele>847.3333333333334</ele><time>2026-04-19T11:54:40.265Z</time></trkpt><trkpt lat="38.747376" lon="16.4013833"><ele>849.1666666666667</ele><time>2026-04-19T11:54:41.252Z</time></trkpt><trkpt lat="38.7474509" lon="16.4014296"><ele>851.0</ele><time>2026-04-19T11:54:43.258Z</time></trkpt><trkpt lat="38.7474852" lon="16.4015114"><ele>851.4</ele><time>2026-04-19T11:54:45.251Z</time></trkpt><trkpt lat="38.747513" lon="16.4016545"><ele>851.8</ele><time>2026-04-19T11:54:47.261Z</time></trkpt><trkpt lat="38.7475235" lon="16.4017476"><ele>852.1999999999999</ele><time>2026-04-19T11:54:48.245Z</time></trkpt><trkpt lat="38.747532" lon="16.4018624"><ele>852.5999999999999</ele><time>2026-04-19T11:54:49.252Z</time></trkpt><trkpt lat="38.747537" lon="16.4019919"><ele>853.0</ele><time>2026-04-19T11:54:50.253Z</time></trkpt><trkpt lat="38.7475384" lon="16.4021211"><ele>853.9999999999999</ele><time>2026-04-19T11:54:51.252Z</time></trkpt><trkpt lat="38.7475364" lon="16.4022346"><ele>855.0</ele><time>2026-04-19T11:54:52.258Z</time></trkpt><trkpt lat="38.7475327" lon="16.402337"><ele>856.0</ele><time>2026-04-19T11:54:53.252Z</time></trkpt><trkpt lat="38.7475304" lon="16.4024179"><ele>857.0</ele><time>2026-04-19T11:54:54.247Z</time></trkpt><trkpt lat="38.747542" lon="16.4025109"><ele>857.9999999999999</ele><time>2026-04-19T11:54:56.259Z</time></trkpt><trkpt lat="38.7476215" lon="16.4025271"><ele>859.0</ele><time>2026-04-19T11:54:58.25Z</time></trkpt><trkpt lat="38.7476719" lon="16.4024599"><ele>860.2</ele><time>2026-04-19T11:54:59.251Z</time></trkpt><trkpt lat="38.7477249" lon="16.4023826"><ele>861.4000000000001</ele><time>2026-04-19T11:55:00.254Z</time></trkpt><trkpt lat="38.7477669" lon="16.40227"><ele>862.6</ele><time>2026-04-19T11:55:01.259Z</time></trkpt><trkpt lat="38.7478113" lon="16.4021583"><ele>863.8</ele><time>2026-04-19T11:55:02.248Z</time></trkpt><trkpt lat="38.7478737" lon="16.4020393"><ele>865.0</ele><time>2026-04-19T11:55:03.248Z</time></trkpt><trkpt lat="38.7479446" lon="16.4019124"><ele>865.25</ele><time>2026-04-19T11:55:04.249Z</time></trkpt><trkpt lat="38.7480232" lon="16.4017761"><ele>865.5</ele><time>2026-04-19T11:55:05.254Z</time></trkpt><trkpt lat="38.7480972" lon="16.4016469"><ele>865.75</ele><time>2026-04-19T11:55:06.246Z</time></trkpt><trkpt lat="38.7481726" lon="16.4015273"><ele>866.0</ele><time>2026-04-19T11:55:07.256Z</time></trkpt><trkpt lat="38.7482444" lon="16.4014166"><ele>865.3333333333334</ele><time>2026-04-19T11:55:08.254Z</time></trkpt><trkpt lat="38.7483071" lon="16.4013184"><ele>864.6666666666667</ele><time>2026-04-19T11:55:09.251Z</time></trkpt><trkpt lat="38.7483606" lon="16.4012427"><ele>864.0</ele><time>2026-04-19T11:55:10.257Z</time></trkpt><trkpt lat="38.74841" lon="16.4011717"><ele>863.3333333333333</ele><time>2026-04-19T11:55:11.258Z</time></trkpt><trkpt lat="38.7484575" lon="16.4011058"><ele>862.6666666666666</ele><time>2026-04-19T11:55:12.251Z</time></trkpt><trkpt lat="38.7485026" lon="16.4010346"><ele>862.0</ele><time>2026-04-19T11:55:13.257Z</time></trkpt><trkpt lat="38.7485505" lon="16.4009547"><ele>863.4999999999999</ele><time>2026-04-19T11:55:14.266Z</time></trkpt><trkpt lat="38.7486008" lon="16.4008672"><ele>865.0</ele><time>2026-04-19T11:55:15.254Z</time></trkpt><trkpt lat="38.7486554" lon="16.4007867"><ele>866.5</ele><time>2026-04-19T11:55:16.271Z</time></trkpt><trkpt lat="38.7487062" lon="16.4007061"><ele>868.0</ele><time>2026-04-19T11:55:17.271Z</time></trkpt><trkpt lat="38.7487564" lon="16.4006228"><ele>869.4999999999999</ele><time>2026-04-19T11:55:18.25Z</time></trkpt><trkpt lat="38.748796" lon="16.400544"><ele>871.0</ele><time>2026-04-19T11:55:19.264Z</time></trkpt><trkpt lat="38.7488318" lon="16.4004746"><ele>870.9999999999999</ele><time>2026-04-19T11:55:20.267Z</time></trkpt><trkpt lat="38.7488772" lon="16.400386"><ele>871.0</ele><time>2026-04-19T11:55:22.265Z</time></trkpt><trkpt lat="38.7489243" lon="16.4002693"><ele>871.0</ele><time>2026-04-19T11:55:30.246Z</time></trkpt><trkpt lat="38.7489696" lon="16.4001504"><ele>871.0</ele><time>2026-04-19T11:55:32.245Z</time></trkpt><trkpt lat="38.7489996" lon="16.4000656"><ele>870.9999999999999</ele><time>2026-04-19T11:55:33.26Z</time></trkpt><trkpt lat="38.7490387" lon="16.3999749"><ele>871.0</ele><time>2026-04-19T11:55:34.263Z</time></trkpt><trkpt lat="38.7490861" lon="16.3998746"><ele>871.0</ele><time>2026-04-19T11:55:35.25Z</time></trkpt><trkpt lat="38.7491364" lon="16.3997737"><ele>870.9999999999999</ele><time>2026-04-19T11:55:36.247Z</time></trkpt><trkpt lat="38.749189" lon="16.3996668"><ele>870.9999999999999</ele><time>2026-04-19T11:55:37.262Z</time></trkpt><trkpt lat="38.7492489" lon="16.3995533"><ele>871.0</ele><time>2026-04-19T11:55:38.256Z</time></trkpt><trkpt lat="38.7493086" lon="16.3994424"><ele>871.0</ele><time>2026-04-19T11:55:39.251Z</time></trkpt><trkpt lat="38.7493701" lon="16.3993159"><ele>871.5999999999999</ele><time>2026-04-19T11:55:40.264Z</time></trkpt><trkpt lat="38.7494277" lon="16.3991971"><ele>872.1999999999999</ele><time>2026-04-19T11:55:41.256Z</time></trkpt><trkpt lat="38.7494745" lon="16.3990924"><ele>872.8000000000001</ele><time>2026-04-19T11:55:42.251Z</time></trkpt><trkpt lat="38.7495113" lon="16.3989908"><ele>873.4000000000001</ele><time>2026-04-19T11:55:43.258Z</time></trkpt><trkpt lat="38.7495474" lon="16.3988751"><ele>874.0</ele><time>2026-04-19T11:55:44.265Z</time></trkpt><trkpt lat="38.7495844" lon="16.3987522"><ele>875.0</ele><time>2026-04-19T11:55:45.252Z</time></trkpt><trkpt lat="38.7496234" lon="16.3986342"><ele>876.0000000000001</ele><time>2026-04-19T11:55:46.262Z</time></trkpt><trkpt lat="38.749667" lon="16.3985144"><ele>877.0000000000001</ele><time>2026-04-19T11:55:47.263Z</time></trkpt><trkpt lat="38.7497163" lon="16.3983939"><ele>878.0</ele><time>2026-04-19T11:55:48.251Z</time></trkpt><trkpt lat="38.7497678" lon="16.3982735"><ele>879.0</ele><time>2026-04-19T11:55:49.265Z</time></trkpt><trkpt lat="38.7498208" lon="16.3981555"><ele>879.0</ele><time>2026-04-19T11:55:50.259Z</time></trkpt><trkpt lat="38.7498704" lon="16.3980431"><ele>879.0000000000001</ele><time>2026-04-19T11:55:51.254Z</time></trkpt><trkpt lat="38.7499212" lon="16.3979253"><ele>879.0000000000001</ele><time>2026-04-19T11:55:52.256Z</time></trkpt><trkpt lat="38.7499746" lon="16.3978116"><ele>879.0</ele><time>2026-04-19T11:55:53.264Z</time></trkpt><trkpt lat="38.7500251" lon="16.3977129"><ele>879.0</ele><time>2026-04-19T11:55:54.252Z</time></trkpt><trkpt lat="38.7500761" lon="16.397635"><ele>880.8000000000001</ele><time>2026-04-19T11:55:55.251Z</time></trkpt><trkpt lat="38.7501195" lon="16.3975662"><ele>882.6000000000001</ele><time>2026-04-19T11:55:56.252Z</time></trkpt><trkpt lat="38.7502171" lon="16.3974999"><ele>884.4</ele><time>2026-04-19T11:55:58.255Z</time></trkpt><trkpt lat="38.7503094" lon="16.3974681"><ele>886.2</ele><time>2026-04-19T11:56:00.254Z</time></trkpt><trkpt lat="38.7504216" lon="16.3973963"><ele>888.0</ele><time>2026-04-19T11:56:02.263Z</time></trkpt><trkpt lat="38.7504809" lon="16.3973258"><ele>888.0</ele><time>2026-04-19T11:56:03.261Z</time></trkpt><trkpt lat="38.7505212" lon="16.3972425"><ele>888.0</ele><time>2026-04-19T11:56:04.263Z</time></trkpt><trkpt lat="38.7505502" lon="16.3971545"><ele>888.0</ele><time>2026-04-19T11:56:05.265Z</time></trkpt><trkpt lat="38.7505793" lon="16.3970592"><ele>888.0</ele><time>2026-04-19T11:56:06.254Z</time></trkpt><trkpt lat="38.7506123" lon="16.3969501"><ele>888.0</ele><time>2026-04-19T11:56:07.256Z</time></trkpt><trkpt lat="38.7506458" lon="16.396836"><ele>888.0</ele><time>2026-04-19T11:56:08.257Z</time></trkpt><trkpt lat="38.7506845" lon="16.3967222"><ele>889.2</ele><time>2026-04-19T11:56:09.256Z</time></trkpt><trkpt lat="38.7507231" lon="16.3966058"><ele>890.4</ele><time>2026-04-19T11:56:10.247Z</time></trkpt><trkpt lat="38.7507636" lon="16.3964927"><ele>891.6000000000001</ele><time>2026-04-19T11:56:11.258Z</time></trkpt><trkpt lat="38.7508128" lon="16.3963813"><ele>892.8000000000001</ele><time>2026-04-19T11:56:12.266Z</time></trkpt><trkpt lat="38.7508706" lon="16.3962796"><ele>894.0</ele><time>2026-04-19T11:56:13.25Z</time></trkpt><trkpt lat="38.7509324" lon="16.3961824"><ele>894.2</ele><time>2026-04-19T11:56:14.268Z</time></trkpt><trkpt lat="38.7509986" lon="16.3960861"><ele>894.4000000000001</ele><time>2026-04-19T11:56:15.262Z</time></trkpt><trkpt lat="38.7510673" lon="16.3959876"><ele>894.6</ele><time>2026-04-19T11:56:16.253Z</time></trkpt><trkpt lat="38.7511336" lon="16.3958954"><ele>894.8</ele><time>2026-04-19T11:56:17.258Z</time></trkpt><trkpt lat="38.7511884" lon="16.3957825"><ele>895.0</ele><time>2026-04-19T11:56:18.253Z</time></trkpt><trkpt lat="38.7512428" lon="16.3956665"><ele>895.0</ele><time>2026-04-19T11:56:19.26Z</time></trkpt><trkpt lat="38.7512811" lon="16.3955347"><ele>895.0</ele><time>2026-04-19T11:56:20.245Z</time></trkpt><trkpt lat="38.7513126" lon="16.3953354"><ele>895.0</ele><time>2026-04-19T11:56:21.256Z</time></trkpt><trkpt lat="38.7513029" lon="16.3951637"><ele>895.0</ele><time>2026-04-19T11:56:22.254Z</time></trkpt><trkpt lat="38.7513176" lon="16.3949671"><ele>895.3333333333333</ele><time>2026-04-19T11:56:23.258Z</time></trkpt><trkpt lat="38.7513466" lon="16.3947818"><ele>895.6666666666667</ele><time>2026-04-19T11:56:24.245Z</time></trkpt><trkpt lat="38.7513892" lon="16.3946051"><ele>896.0</ele><time>2026-04-19T11:56:25.252Z</time></trkpt><trkpt lat="38.7514471" lon="16.3943581"><ele>895.5</ele><time>2026-04-19T11:56:26.254Z</time></trkpt><trkpt lat="38.7515081" lon="16.3941793"><ele>895.0</ele><time>2026-04-19T11:56:27.242Z</time></trkpt><trkpt lat="38.7515579" lon="16.3940015"><ele>894.5</ele><time>2026-04-19T11:56:28.251Z</time></trkpt><trkpt lat="38.7516109" lon="16.3938521"><ele>894.0</ele><time>2026-04-19T11:56:29.256Z</time></trkpt><trkpt lat="38.751662" lon="16.3936936"><ele>893.75</ele><time>2026-04-19T11:56:30.239Z</time></trkpt><trkpt lat="38.751712" lon="16.3935552"><ele>893.5</ele><time>2026-04-19T11:56:31.256Z</time></trkpt><trkpt lat="38.7517607" lon="16.3934127"><ele>893.25</ele><time>2026-04-19T11:56:32.258Z</time></trkpt><trkpt lat="38.7518065" lon="16.3932729"><ele>893.0</ele><time>2026-04-19T11:56:33.253Z</time></trkpt><trkpt lat="38.7518331" lon="16.3930919"><ele>890.25</ele><time>2026-04-19T11:56:34.261Z</time></trkpt><trkpt lat="38.7518752" lon="16.3929285"><ele>887.5</ele><time>2026-04-19T11:56:35.238Z</time></trkpt><trkpt lat="38.7519215" lon="16.3927635"><ele>884.75</ele><time>2026-04-19T11:56:36.25Z</time></trkpt><trkpt lat="38.7519765" lon="16.3925992"><ele>882.0</ele><time>2026-04-19T11:56:37.256Z</time></trkpt><trkpt lat="38.7520218" lon="16.392433"><ele>882.0</ele><time>2026-04-19T11:56:38.246Z</time></trkpt><trkpt lat="38.7520669" lon="16.3922815"><ele>882.0</ele><time>2026-04-19T11:56:39.256Z</time></trkpt><trkpt lat="38.7521094" lon="16.3921442"><ele>882.0</ele><time>2026-04-19T11:56:40.249Z</time></trkpt><trkpt lat="38.7521446" lon="16.3920167"><ele>882.0</ele><time>2026-04-19T11:56:41.243Z</time></trkpt><trkpt lat="38.7521743" lon="16.3918942"><ele>882.0</ele><time>2026-04-19T11:56:42.246Z</time></trkpt><trkpt lat="38.752203" lon="16.3917542"><ele>882.0</ele><time>2026-04-19T11:56:43.249Z</time></trkpt><trkpt lat="38.7522355" lon="16.3916403"><ele>882.0</ele><time>2026-04-19T11:56:44.261Z</time></trkpt><trkpt lat="38.7522596" lon="16.3915478"><ele>882.0</ele><time>2026-04-19T11:56:45.252Z</time></trkpt><trkpt lat="38.7523153" lon="16.3914344"><ele>882.0</ele><time>2026-04-19T11:56:47.248Z</time></trkpt><trkpt lat="38.7523479" lon="16.3913592"><ele>882.0</ele><time>2026-04-19T11:56:51.257Z</time></trkpt><trkpt lat="38.7523452" lon="16.3912759"><ele>882.0</ele><time>2026-04-19T11:56:53.265Z</time></trkpt><trkpt lat="38.75232" lon="16.391132"><ele>882.0</ele><time>2026-04-19T11:56:55.247Z</time></trkpt><trkpt lat="38.7522936" lon="16.3910339"><ele>882.0</ele><time>2026-04-19T11:56:56.246Z</time></trkpt><trkpt lat="38.7522682" lon="16.3909183"><ele>882.0</ele><time>2026-04-19T11:56:57.254Z</time></trkpt><trkpt lat="38.7522397" lon="16.390801"><ele>882.0</ele><time>2026-04-19T11:56:58.257Z</time></trkpt><trkpt lat="38.7522156" lon="16.390703"><ele>882.0</ele><time>2026-04-19T11:56:59.259Z</time></trkpt><trkpt lat="38.7521829" lon="16.3905897"><ele>882.0</ele><time>2026-04-19T11:57:01.249Z</time></trkpt><trkpt lat="38.7521498" lon="16.3905071"><ele>882.0</ele><time>2026-04-19T11:57:05.253Z</time></trkpt><trkpt lat="38.7521181" lon="16.3904155"><ele>882.0</ele><time>2026-04-19T11:57:10.251Z</time></trkpt><trkpt lat="38.7520794" lon="16.3903336"><ele>882.0</ele><time>2026-04-19T11:57:14.264Z</time></trkpt><trkpt lat="38.7520442" lon="16.3902491"><ele>882.0</ele><time>2026-04-19T11:57:18.259Z</time></trkpt><trkpt lat="38.7520175" lon="16.3901625"><ele>882.0</ele><time>2026-04-19T11:57:24.261Z</time></trkpt><trkpt lat="38.7519712" lon="16.3900715"><ele>882.0</ele><time>2026-04-19T11:57:30.258Z</time></trkpt><trkpt lat="38.7519228" lon="16.3899713"><ele>882.0</ele><time>2026-04-19T11:57:32.248Z</time></trkpt><trkpt lat="38.751887" lon="16.3898971"><ele>882.0</ele><time>2026-04-19T11:57:33.276Z</time></trkpt><trkpt lat="38.7518256" lon="16.3897646"><ele>882.0</ele><time>2026-04-19T11:57:35.25Z</time></trkpt><trkpt lat="38.7517949" lon="16.3896927"><ele>882.0</ele><time>2026-04-19T11:57:36.247Z</time></trkpt><trkpt lat="38.7517523" lon="16.3896032"><ele>882.0</ele><time>2026-04-19T11:57:37.26Z</time></trkpt><trkpt lat="38.7516971" lon="16.3894937"><ele>882.0</ele><time>2026-04-19T11:57:38.249Z</time></trkpt><trkpt lat="38.7515992" lon="16.38934"><ele>879.5</ele><time>2026-04-19T11:57:39.249Z</time></trkpt><trkpt lat="38.7514932" lon="16.3891858"><ele>877.0</ele><time>2026-04-19T11:57:40.257Z</time></trkpt><trkpt lat="38.7513929" lon="16.3890478"><ele>874.5</ele><time>2026-04-19T11:57:41.259Z</time></trkpt><trkpt lat="38.7512991" lon="16.3889316"><ele>872.0</ele><time>2026-04-19T11:57:42.25Z</time></trkpt><trkpt lat="38.7512063" lon="16.3888226"><ele>872.3333333333334</ele><time>2026-04-19T11:57:43.26Z</time></trkpt><trkpt lat="38.7511323" lon="16.388723"><ele>872.6666666666667</ele><time>2026-04-19T11:57:44.25Z</time></trkpt><trkpt lat="38.7510701" lon="16.3886317"><ele>873.0</ele><time>2026-04-19T11:57:45.255Z</time></trkpt><trkpt lat="38.7510309" lon="16.3885547"><ele>873.3333333333333</ele><time>2026-04-19T11:57:46.255Z</time></trkpt><trkpt lat="38.7509976" lon="16.3884639"><ele>873.6666666666666</ele><time>2026-04-19T11:57:48.255Z</time></trkpt><trkpt lat="38.7509322" lon="16.3884297"><ele>874.0</ele><time>2026-04-19T11:57:50.265Z</time></trkpt><trkpt lat="38.7508692" lon="16.3884292"><ele>874.0</ele><time>2026-04-19T11:57:51.26Z</time></trkpt><trkpt lat="38.7507983" lon="16.3883904"><ele>874.0000000000001</ele><time>2026-04-19T11:57:52.255Z</time></trkpt><trkpt lat="38.7507188" lon="16.3882973"><ele>874.0000000000001</ele><time>2026-04-19T11:57:53.256Z</time></trkpt><trkpt lat="38.7506327" lon="16.3881953"><ele>874.0</ele><time>2026-04-19T11:57:54.263Z</time></trkpt><trkpt lat="38.7505372" lon="16.38808"><ele>874.0</ele><time>2026-04-19T11:57:55.258Z</time></trkpt><trkpt lat="38.7504412" lon="16.3879492"><ele>875.3333333333333</ele><time>2026-04-19T11:57:56.246Z</time></trkpt><trkpt lat="38.75034" lon="16.3878103"><ele>876.6666666666667</ele><time>2026-04-19T11:57:57.253Z</time></trkpt><trkpt lat="38.7502321" lon="16.3876705"><ele>878.0</ele><time>2026-04-19T11:57:58.263Z</time></trkpt><trkpt lat="38.7501256" lon="16.3875334"><ele>878.0</ele><time>2026-04-19T11:57:59.257Z</time></trkpt><trkpt lat="38.7500282" lon="16.3874176"><ele>878.0</ele><time>2026-04-19T11:58:00.247Z</time></trkpt><trkpt lat="38.7499368" lon="16.3873214"><ele>878.0</ele><time>2026-04-19T11:58:01.253Z</time></trkpt><trkpt lat="38.7498521" lon="16.3872321"><ele>878.0</ele><time>2026-04-19T11:58:02.251Z</time></trkpt><trkpt lat="38.7497813" lon="16.3871421"><ele>877.2</ele><time>2026-04-19T11:58:03.249Z</time></trkpt><trkpt lat="38.7497106" lon="16.3870459"><ele>876.4</ele><time>2026-04-19T11:58:04.252Z</time></trkpt><trkpt lat="38.749629" lon="16.3869513"><ele>875.6000000000001</ele><time>2026-04-19T11:58:05.26Z</time></trkpt><trkpt lat="38.7495395" lon="16.3868621"><ele>874.8000000000001</ele><time>2026-04-19T11:58:06.246Z</time></trkpt><trkpt lat="38.7494449" lon="16.3867688"><ele>874.0</ele><time>2026-04-19T11:58:07.262Z</time></trkpt><trkpt lat="38.7493524" lon="16.3866719"><ele>875.4000000000001</ele><time>2026-04-19T11:58:08.246Z</time></trkpt><trkpt lat="38.7492666" lon="16.3865636"><ele>876.8000000000001</ele><time>2026-04-19T11:58:09.254Z</time></trkpt><trkpt lat="38.7491827" lon="16.386463"><ele>878.1999999999999</ele><time>2026-04-19T11:58:10.25Z</time></trkpt><trkpt lat="38.7491001" lon="16.3863763"><ele>879.5999999999999</ele><time>2026-04-19T11:58:11.252Z</time></trkpt><trkpt lat="38.7490248" lon="16.3862955"><ele>881.0</ele><time>2026-04-19T11:58:12.249Z</time></trkpt><trkpt lat="38.7489743" lon="16.3862297"><ele>881.0000000000001</ele><time>2026-04-19T11:58:13.245Z</time></trkpt><trkpt lat="38.7489416" lon="16.3861607"><ele>881.0</ele><time>2026-04-19T11:58:14.256Z</time></trkpt><trkpt lat="38.7489055" lon="16.3860627"><ele>881.0</ele><time>2026-04-19T11:58:15.249Z</time></trkpt><trkpt lat="38.7488526" lon="16.3859818"><ele>881.0</ele><time>2026-04-19T11:58:16.242Z</time></trkpt><trkpt lat="38.7487937" lon="16.3859082"><ele>881.0000000000001</ele><time>2026-04-19T11:58:17.263Z</time></trkpt><trkpt lat="38.7487366" lon="16.385815"><ele>881.0</ele><time>2026-04-19T11:58:18.265Z</time></trkpt><trkpt lat="38.7486813" lon="16.3857184"><ele>881.0000000000001</ele><time>2026-04-19T11:58:19.243Z</time></trkpt><trkpt lat="38.7486217" lon="16.3856155"><ele>881.0</ele><time>2026-04-19T11:58:20.26Z</time></trkpt><trkpt lat="38.7485675" lon="16.3855181"><ele>881.0</ele><time>2026-04-19T11:58:21.254Z</time></trkpt><trkpt lat="38.7485188" lon="16.3854417"><ele>881.0</ele><time>2026-04-19T11:58:22.243Z</time></trkpt><trkpt lat="38.7484711" lon="16.3853852"><ele>881.0000000000001</ele><time>2026-04-19T11:58:23.249Z</time></trkpt><trkpt lat="38.7484162" lon="16.3853316"><ele>881.0</ele><time>2026-04-19T11:58:24.252Z</time></trkpt><trkpt lat="38.7483657" lon="16.38527"><ele>881.8333333333334</ele><time>2026-04-19T11:58:25.248Z</time></trkpt><trkpt lat="38.7483225" lon="16.3852009"><ele>882.6666666666667</ele><time>2026-04-19T11:58:26.244Z</time></trkpt><trkpt lat="38.7482829" lon="16.3851267"><ele>883.5</ele><time>2026-04-19T11:58:27.257Z</time></trkpt><trkpt lat="38.7482238" lon="16.3850359"><ele>884.3333333333333</ele><time>2026-04-19T11:58:28.252Z</time></trkpt><trkpt lat="38.7481703" lon="16.38497"><ele>885.1666666666666</ele><time>2026-04-19T11:58:29.26Z</time></trkpt><trkpt lat="38.7481069" lon="16.3848991"><ele>886.0</ele><time>2026-04-19T11:58:30.268Z</time></trkpt><trkpt lat="38.7480472" lon="16.3848128"><ele>886.0</ele><time>2026-04-19T11:58:31.247Z</time></trkpt><trkpt lat="38.7479903" lon="16.3847195"><ele>885.9999999999999</ele><time>2026-04-19T11:58:32.257Z</time></trkpt><trkpt lat="38.7479269" lon="16.3846097"><ele>885.9999999999999</ele><time>2026-04-19T11:58:33.254Z</time></trkpt><trkpt lat="38.7478566" lon="16.3844978"><ele>886.0</ele><time>2026-04-19T11:58:34.245Z</time></trkpt><trkpt lat="38.7477869" lon="16.3843923"><ele>886.0</ele><time>2026-04-19T11:58:35.258Z</time></trkpt><trkpt lat="38.7477128" lon="16.3842884"><ele>886.25</ele><time>2026-04-19T11:58:36.259Z</time></trkpt><trkpt lat="38.7476371" lon="16.3841642"><ele>886.5</ele><time>2026-04-19T11:58:37.249Z</time></trkpt><trkpt lat="38.7475587" lon="16.38404"><ele>886.75</ele><time>2026-04-19T11:58:38.261Z</time></trkpt><trkpt lat="38.7474675" lon="16.3839119"><ele>887.0</ele><time>2026-04-19T11:58:39.257Z</time></trkpt><trkpt lat="38.7473582" lon="16.383757"><ele>887.0</ele><time>2026-04-19T11:58:40.254Z</time></trkpt><trkpt lat="38.7472536" lon="16.3836071"><ele>887.0</ele><time>2026-04-19T11:58:41.26Z</time></trkpt><trkpt lat="38.7471435" lon="16.3834894"><ele>887.0</ele><time>2026-04-19T11:58:42.254Z</time></trkpt><trkpt lat="38.7470473" lon="16.3833817"><ele>887.0</ele><time>2026-04-19T11:58:43.255Z</time></trkpt><trkpt lat="38.7469663" lon="16.3832762"><ele>887.5</ele><time>2026-04-19T11:58:44.255Z</time></trkpt><trkpt lat="38.746873" lon="16.3831909"><ele>888.0</ele><time>2026-04-19T11:58:45.255Z</time></trkpt><trkpt lat="38.7467701" lon="16.3831127"><ele>888.5</ele><time>2026-04-19T11:58:46.246Z</time></trkpt><trkpt lat="38.7466432" lon="16.3830331"><ele>889.0</ele><time>2026-04-19T11:58:47.247Z</time></trkpt><trkpt lat="38.7465074" lon="16.3829489"><ele>889.0</ele><time>2026-04-19T11:58:48.257Z</time></trkpt><trkpt lat="38.7463568" lon="16.3828775"><ele>889.0</ele><time>2026-04-19T11:58:49.247Z</time></trkpt><trkpt lat="38.7462014" lon="16.3828223"><ele>889.0</ele><time>2026-04-19T11:58:50.252Z</time></trkpt><trkpt lat="38.7460446" lon="16.3827869"><ele>890.0</ele><time>2026-04-19T11:58:51.243Z</time></trkpt><trkpt lat="38.7459228" lon="16.3827281"><ele>891.0</ele><time>2026-04-19T11:58:52.246Z</time></trkpt><trkpt lat="38.7458178" lon="16.3826484"><ele>892.0</ele><time>2026-04-19T11:58:53.249Z</time></trkpt><trkpt lat="38.7457113" lon="16.3826097"><ele>893.0</ele><time>2026-04-19T11:58:54.246Z</time></trkpt><trkpt lat="38.745588" lon="16.3825629"><ele>893.0</ele><time>2026-04-19T11:58:55.239Z</time></trkpt><trkpt lat="38.7454811" lon="16.3825024"><ele>893.0</ele><time>2026-04-19T11:58:56.249Z</time></trkpt><trkpt lat="38.7453777" lon="16.3824274"><ele>893.0</ele><time>2026-04-19T11:58:57.244Z</time></trkpt><trkpt lat="38.7453014" lon="16.3823562"><ele>893.0</ele><time>2026-04-19T11:58:58.247Z</time></trkpt><trkpt lat="38.7452163" lon="16.3823133"><ele>893.0</ele><time>2026-04-19T11:58:59.26Z</time></trkpt><trkpt lat="38.7451372" lon="16.3822711"><ele>895.4</ele><time>2026-04-19T11:59:00.257Z</time></trkpt><trkpt lat="38.7450668" lon="16.3822423"><ele>897.8</ele><time>2026-04-19T11:59:01.243Z</time></trkpt><trkpt lat="38.7449809" lon="16.3822011"><ele>900.2</ele><time>2026-04-19T11:59:02.251Z</time></trkpt><trkpt lat="38.7449003" lon="16.3821508"><ele>902.6</ele><time>2026-04-19T11:59:03.256Z</time></trkpt><trkpt lat="38.744806" lon="16.3821096"><ele>905.0</ele><time>2026-04-19T11:59:04.248Z</time></trkpt><trkpt lat="38.7447178" lon="16.3820431"><ele>905.2</ele><time>2026-04-19T11:59:05.246Z</time></trkpt><trkpt lat="38.7446234" lon="16.3819882"><ele>905.4</ele><time>2026-04-19T11:59:06.255Z</time></trkpt><trkpt lat="38.7445285" lon="16.3819224"><ele>905.5999999999999</ele><time>2026-04-19T11:59:07.261Z</time></trkpt><trkpt lat="38.7444372" lon="16.3818644"><ele>905.8</ele><time>2026-04-19T11:59:08.244Z</time></trkpt><trkpt lat="38.7443434" lon="16.3817934"><ele>906.0</ele><time>2026-04-19T11:59:09.254Z</time></trkpt><trkpt lat="38.7442435" lon="16.381755"><ele>908.25</ele><time>2026-04-19T11:59:10.241Z</time></trkpt><trkpt lat="38.7441314" lon="16.3817189"><ele>910.5</ele><time>2026-04-19T11:59:11.242Z</time></trkpt><trkpt lat="38.7440239" lon="16.3816452"><ele>912.75</ele><time>2026-04-19T11:59:12.254Z</time></trkpt><trkpt lat="38.7439262" lon="16.3815759"><ele>915.0</ele><time>2026-04-19T11:59:13.253Z</time></trkpt><trkpt lat="38.743822" lon="16.3814783"><ele>915.0</ele><time>2026-04-19T11:59:14.243Z</time></trkpt><trkpt lat="38.7437296" lon="16.3813796"><ele>915.0</ele><time>2026-04-19T11:59:15.249Z</time></trkpt><trkpt lat="38.7436353" lon="16.3812587"><ele>915.0</ele><time>2026-04-19T11:59:16.252Z</time></trkpt><trkpt lat="38.7435313" lon="16.3811472"><ele>915.0</ele><time>2026-04-19T11:59:17.243Z</time></trkpt><trkpt lat="38.743431" lon="16.381048"><ele>917.25</ele><time>2026-04-19T11:59:18.245Z</time></trkpt><trkpt lat="38.7433474" lon="16.3809302"><ele>919.5</ele><time>2026-04-19T11:59:19.253Z</time></trkpt><trkpt lat="38.7433067" lon="16.380759"><ele>921.75</ele><time>2026-04-19T11:59:20.244Z</time></trkpt><trkpt lat="38.7432619" lon="16.3805989"><ele>924.0</ele><time>2026-04-19T11:59:21.244Z</time></trkpt><trkpt lat="38.743204" lon="16.3804187"><ele>924.6</ele><time>2026-04-19T11:59:22.253Z</time></trkpt><trkpt lat="38.7431521" lon="16.3802834"><ele>925.2</ele><time>2026-04-19T11:59:23.249Z</time></trkpt><trkpt lat="38.7431261" lon="16.380158"><ele>925.8000000000001</ele><time>2026-04-19T11:59:24.25Z</time></trkpt><trkpt lat="38.7431127" lon="16.3800273"><ele>926.4000000000001</ele><time>2026-04-19T11:59:25.254Z</time></trkpt><trkpt lat="38.7431126" lon="16.3799245"><ele>927.0</ele><time>2026-04-19T11:59:26.249Z</time></trkpt><trkpt lat="38.7430874" lon="16.3798099"><ele>927.0</ele><time>2026-04-19T11:59:29.275Z</time></trkpt><trkpt lat="38.7430456" lon="16.3796884"><ele>927.0</ele><time>2026-04-19T11:59:31.273Z</time></trkpt><trkpt lat="38.7430189" lon="16.3795904"><ele>927.0</ele><time>2026-04-19T11:59:32.274Z</time></trkpt><trkpt lat="38.742999" lon="16.3794405"><ele>927.0</ele><time>2026-04-19T11:59:34.261Z</time></trkpt><trkpt lat="38.7429691" lon="16.3793196"><ele>927.0</ele><time>2026-04-19T11:59:36.263Z</time></trkpt><trkpt lat="38.7429482" lon="16.3792415"><ele>927.25</ele><time>2026-04-19T11:59:37.259Z</time></trkpt><trkpt lat="38.7429363" lon="16.3790939"><ele>927.5</ele><time>2026-04-19T11:59:46.256Z</time></trkpt><trkpt lat="38.7430129" lon="16.3790284"><ele>927.75</ele><time>2026-04-19T11:59:50.255Z</time></trkpt><trkpt lat="38.7429848" lon="16.3788605"><ele>928.0</ele><time>2026-04-19T12:00:08.265Z</time></trkpt><trkpt lat="38.7429477" lon="16.3786165"><ele>928.4</ele><time>2026-04-19T12:00:10.249Z</time></trkpt><trkpt lat="38.7428829" lon="16.3786262"><ele>928.8</ele><time>2026-04-19T12:00:11.264Z</time></trkpt><trkpt lat="38.7428529" lon="16.3784566"><ele>929.2</ele><time>2026-04-19T12:00:13.238Z</time></trkpt><trkpt lat="38.7428194" lon="16.3783176"><ele>929.6</ele><time>2026-04-19T12:00:14.242Z</time></trkpt><trkpt lat="38.7427835" lon="16.3781653"><ele>930.0</ele><time>2026-04-19T12:00:15.258Z</time></trkpt><trkpt lat="38.7427773" lon="16.3779491"><ele>931.6666666666667</ele><time>2026-04-19T12:00:16.245Z</time></trkpt><trkpt lat="38.7427713" lon="16.377728"><ele>933.3333333333334</ele><time>2026-04-19T12:00:17.244Z</time></trkpt><trkpt lat="38.7427808" lon="16.3775185"><ele>935.0</ele><time>2026-04-19T12:00:18.25Z</time></trkpt><trkpt lat="38.7427678" lon="16.3773629"><ele>935.0000000000001</ele><time>2026-04-19T12:00:19.275Z</time></trkpt><trkpt lat="38.7427456" lon="16.3772146"><ele>935.0</ele><time>2026-04-19T12:00:20.25Z</time></trkpt><trkpt lat="38.7427066" lon="16.3771019"><ele>935.0</ele><time>2026-04-19T12:00:21.243Z</time></trkpt><trkpt lat="38.7427018" lon="16.3769862"><ele>935.0</ele><time>2026-04-19T12:00:22.251Z</time></trkpt><trkpt lat="38.742738" lon="16.3769199"><ele>935.0000000000001</ele><time>2026-04-19T12:00:23.262Z</time></trkpt><trkpt lat="38.7427667" lon="16.3768464"><ele>935.0</ele><time>2026-04-19T12:00:25.272Z</time></trkpt><trkpt lat="38.7428355" lon="16.3767438"><ele>936.0000000000001</ele><time>2026-04-19T12:00:29.248Z</time></trkpt><trkpt lat="38.742878" lon="16.3766453"><ele>937.0</ele><time>2026-04-19T12:00:31.273Z</time></trkpt><trkpt lat="38.7429322" lon="16.3765498"><ele>938.0</ele><time>2026-04-19T12:00:33.261Z</time></trkpt><trkpt lat="38.7430047" lon="16.3764676"><ele>939.0</ele><time>2026-04-19T12:00:35.252Z</time></trkpt><trkpt lat="38.7430643" lon="16.376409"><ele>940.0000000000001</ele><time>2026-04-19T12:00:37.273Z</time></trkpt><trkpt lat="38.7431104" lon="16.3763407"><ele>941.0</ele><time>2026-04-19T12:00:38.251Z</time></trkpt><trkpt lat="38.7431818" lon="16.3762158"><ele>941.5999999999999</ele><time>2026-04-19T12:00:40.259Z</time></trkpt><trkpt lat="38.743212" lon="16.3761018"><ele>942.1999999999999</ele><time>2026-04-19T12:00:41.249Z</time></trkpt><trkpt lat="38.7432216" lon="16.3759913"><ele>942.8000000000001</ele><time>2026-04-19T12:00:42.265Z</time></trkpt><trkpt lat="38.7432342" lon="16.3758778"><ele>943.4000000000001</ele><time>2026-04-19T12:00:43.268Z</time></trkpt><trkpt lat="38.7432752" lon="16.3757588"><ele>944.0</ele><time>2026-04-19T12:00:44.249Z</time></trkpt><trkpt lat="38.7433429" lon="16.3756351"><ele>944.25</ele><time>2026-04-19T12:00:45.257Z</time></trkpt><trkpt lat="38.7434024" lon="16.3754612"><ele>944.5</ele><time>2026-04-19T12:00:46.259Z</time></trkpt><trkpt lat="38.7434457" lon="16.3753052"><ele>944.75</ele><time>2026-04-19T12:00:47.261Z</time></trkpt><trkpt lat="38.7435106" lon="16.3751193"><ele>945.0</ele><time>2026-04-19T12:00:48.247Z</time></trkpt><trkpt lat="38.7435383" lon="16.3749847"><ele>945.8</ele><time>2026-04-19T12:00:49.253Z</time></trkpt><trkpt lat="38.7435594" lon="16.3748219"><ele>946.6</ele><time>2026-04-19T12:00:50.259Z</time></trkpt><trkpt lat="38.743558" lon="16.3747095"><ele>947.4000000000001</ele><time>2026-04-19T12:00:51.26Z</time></trkpt><trkpt lat="38.7435234" lon="16.3745979"><ele>948.2</ele><time>2026-04-19T12:00:52.246Z</time></trkpt><trkpt lat="38.7435103" lon="16.3744773"><ele>949.0</ele><time>2026-04-19T12:00:53.247Z</time></trkpt><trkpt lat="38.7434862" lon="16.3743591"><ele>949.8000000000001</ele><time>2026-04-19T12:00:54.259Z</time></trkpt><trkpt lat="38.7434721" lon="16.3742431"><ele>950.6000000000001</ele><time>2026-04-19T12:00:55.25Z</time></trkpt><trkpt lat="38.7434572" lon="16.3741038"><ele>951.4</ele><time>2026-04-19T12:00:56.244Z</time></trkpt><trkpt lat="38.7434428" lon="16.3739696"><ele>952.2</ele><time>2026-04-19T12:00:57.256Z</time></trkpt><trkpt lat="38.7434238" lon="16.3738438"><ele>953.0</ele><time>2026-04-19T12:00:58.251Z</time></trkpt><trkpt lat="38.7433949" lon="16.3737185"><ele>954.0000000000001</ele><time>2026-04-19T12:00:59.263Z</time></trkpt><trkpt lat="38.7433626" lon="16.3736101"><ele>955.0</ele><time>2026-04-19T12:01:00.259Z</time></trkpt><trkpt lat="38.7433251" lon="16.3735198"><ele>956.0</ele><time>2026-04-19T12:01:01.251Z</time></trkpt><trkpt lat="38.7432931" lon="16.3734446"><ele>957.0</ele><time>2026-04-19T12:01:02.266Z</time></trkpt><trkpt lat="38.7432677" lon="16.3732872"><ele>958.0000000000001</ele><time>2026-04-19T12:01:04.253Z</time></trkpt><trkpt lat="38.7432637" lon="16.3732015"><ele>959.0</ele><time>2026-04-19T12:01:05.256Z</time></trkpt><trkpt lat="38.7432563" lon="16.3731086"><ele>959.5000000000001</ele><time>2026-04-19T12:01:06.267Z</time></trkpt><trkpt lat="38.7432252" lon="16.3730141"><ele>960.0</ele><time>2026-04-19T12:01:07.252Z</time></trkpt><trkpt lat="38.7431807" lon="16.3729219"><ele>960.5</ele><time>2026-04-19T12:01:08.275Z</time></trkpt><trkpt lat="38.7431524" lon="16.372841"><ele>961.0</ele><time>2026-04-19T12:01:09.261Z</time></trkpt><trkpt lat="38.7431223" lon="16.3727294"><ele>961.5000000000001</ele><time>2026-04-19T12:01:11.26Z</time></trkpt><trkpt lat="38.743097" lon="16.3726392"><ele>962.0</ele><time>2026-04-19T12:01:12.273Z</time></trkpt><trkpt lat="38.7430932" lon="16.3725257"><ele>962.0</ele><time>2026-04-19T12:01:13.27Z</time></trkpt><trkpt lat="38.7430867" lon="16.3723785"><ele>962.0</ele><time>2026-04-19T12:01:14.249Z</time></trkpt><trkpt lat="38.7430699" lon="16.3722212"><ele>962.0</ele><time>2026-04-19T12:01:15.256Z</time></trkpt><trkpt lat="38.7430574" lon="16.3720694"><ele>962.0</ele><time>2026-04-19T12:01:16.261Z</time></trkpt><trkpt lat="38.7430595" lon="16.3719401"><ele>962.8</ele><time>2026-04-19T12:01:17.249Z</time></trkpt><trkpt lat="38.743047" lon="16.371814"><ele>963.6</ele><time>2026-04-19T12:01:18.268Z</time></trkpt><trkpt lat="38.7429971" lon="16.3717016"><ele>964.3999999999999</ele><time>2026-04-19T12:01:19.27Z</time></trkpt><trkpt lat="38.7429376" lon="16.3715913"><ele>965.1999999999999</ele><time>2026-04-19T12:01:20.242Z</time></trkpt><trkpt lat="38.7428769" lon="16.3714799"><ele>966.0</ele><time>2026-04-19T12:01:21.263Z</time></trkpt><trkpt lat="38.74281" lon="16.3713547"><ele>967.0</ele><time>2026-04-19T12:01:22.252Z</time></trkpt><trkpt lat="38.7427267" lon="16.3712509"><ele>968.0</ele><time>2026-04-19T12:01:23.247Z</time></trkpt><trkpt lat="38.7426421" lon="16.3711563"><ele>969.0</ele><time>2026-04-19T12:01:24.257Z</time></trkpt><trkpt lat="38.7425427" lon="16.3710436"><ele>970.0</ele><time>2026-04-19T12:01:25.25Z</time></trkpt><trkpt lat="38.742443" lon="16.3709117"><ele>967.25</ele><time>2026-04-19T12:01:26.248Z</time></trkpt><trkpt lat="38.7423477" lon="16.3707922"><ele>964.5</ele><time>2026-04-19T12:01:27.254Z</time></trkpt><trkpt lat="38.7422531" lon="16.3706878"><ele>961.75</ele><time>2026-04-19T12:01:28.245Z</time></trkpt><trkpt lat="38.7421551" lon="16.370592"><ele>959.0</ele><time>2026-04-19T12:01:29.239Z</time></trkpt><trkpt lat="38.7420838" lon="16.3705167"><ele>958.0</ele><time>2026-04-19T12:01:30.256Z</time></trkpt><trkpt lat="38.7420253" lon="16.3704273"><ele>957.0000000000001</ele><time>2026-04-19T12:01:31.259Z</time></trkpt><trkpt lat="38.7419822" lon="16.3703237"><ele>956.0000000000001</ele><time>2026-04-19T12:01:32.25Z</time></trkpt><trkpt lat="38.7419103" lon="16.37025"><ele>955.0</ele><time>2026-04-19T12:01:33.252Z</time></trkpt><trkpt lat="38.741828" lon="16.3702153"><ele>954.0</ele><time>2026-04-19T12:01:34.269Z</time></trkpt><trkpt lat="38.7417383" lon="16.3701897"><ele>954.0</ele><time>2026-04-19T12:01:35.254Z</time></trkpt><trkpt lat="38.7416564" lon="16.3701631"><ele>954.0000000000001</ele><time>2026-04-19T12:01:36.249Z</time></trkpt><trkpt lat="38.7415706" lon="16.3700873"><ele>954.0000000000001</ele><time>2026-04-19T12:01:37.252Z</time></trkpt><trkpt lat="38.7415069" lon="16.3699618"><ele>954.0</ele><time>2026-04-19T12:01:38.259Z</time></trkpt><trkpt lat="38.741448" lon="16.369847"><ele>954.0</ele><time>2026-04-19T12:01:39.257Z</time></trkpt><trkpt lat="38.7414004" lon="16.3697307"><ele>953.1666666666666</ele><time>2026-04-19T12:01:40.255Z</time></trkpt><trkpt lat="38.7413567" lon="16.3696234"><ele>952.3333333333333</ele><time>2026-04-19T12:01:41.254Z</time></trkpt><trkpt lat="38.7413149" lon="16.3695234"><ele>951.5</ele><time>2026-04-19T12:01:42.254Z</time></trkpt><trkpt lat="38.7412748" lon="16.3694252"><ele>950.6666666666666</ele><time>2026-04-19T12:01:43.249Z</time></trkpt><trkpt lat="38.7412383" lon="16.369332"><ele>949.8333333333333</ele><time>2026-04-19T12:01:44.254Z</time></trkpt><trkpt lat="38.7412033" lon="16.3692448"><ele>949.0</ele><time>2026-04-19T12:01:45.247Z</time></trkpt><trkpt lat="38.7411642" lon="16.3691556"><ele>948.9999999999999</ele><time>2026-04-19T12:01:46.254Z</time></trkpt><trkpt lat="38.7411001" lon="16.3690915"><ele>949.0</ele><time>2026-04-19T12:01:47.249Z</time></trkpt><trkpt lat="38.7410384" lon="16.3690339"><ele>949.0</ele><time>2026-04-19T12:01:48.259Z</time></trkpt><trkpt lat="38.7409781" lon="16.3689752"><ele>949.0</ele><time>2026-04-19T12:01:49.248Z</time></trkpt><trkpt lat="38.7409184" lon="16.3689125"><ele>948.9999999999999</ele><time>2026-04-19T12:01:50.254Z</time></trkpt><trkpt lat="38.7408603" lon="16.3688459"><ele>949.0</ele><time>2026-04-19T12:01:51.249Z</time></trkpt><trkpt lat="38.7408111" lon="16.36878"><ele>951.4999999999999</ele><time>2026-04-19T12:01:52.251Z</time></trkpt><trkpt lat="38.7407732" lon="16.3687109"><ele>954.0</ele><time>2026-04-19T12:01:53.253Z</time></trkpt><trkpt lat="38.7407264" lon="16.3686419"><ele>956.5</ele><time>2026-04-19T12:01:54.254Z</time></trkpt><trkpt lat="38.7406819" lon="16.3685633"><ele>959.0</ele><time>2026-04-19T12:01:55.251Z</time></trkpt><trkpt lat="38.7406401" lon="16.3684809"><ele>961.4999999999999</ele><time>2026-04-19T12:01:56.254Z</time></trkpt><trkpt lat="38.7405965" lon="16.3684039"><ele>964.0</ele><time>2026-04-19T12:01:57.254Z</time></trkpt><trkpt lat="38.7405396" lon="16.3682974"><ele>964.0</ele><time>2026-04-19T12:01:59.259Z</time></trkpt><trkpt lat="38.7404928" lon="16.3682074"><ele>964.0000000000001</ele><time>2026-04-19T12:02:01.254Z</time></trkpt><trkpt lat="38.7404753" lon="16.3680818"><ele>964.0000000000001</ele><time>2026-04-19T12:02:27.27Z</time></trkpt><trkpt lat="38.7404246" lon="16.3680316"><ele>964.0</ele><time>2026-04-19T12:02:29.26Z</time></trkpt><trkpt lat="38.7403182" lon="16.3679088"><ele>964.0</ele><time>2026-04-19T12:02:31.247Z</time></trkpt><trkpt lat="38.7402529" lon="16.367834"><ele>965.5</ele><time>2026-04-19T12:02:32.242Z</time></trkpt><trkpt lat="38.7401695" lon="16.3677264"><ele>967.0</ele><time>2026-04-19T12:02:33.254Z</time></trkpt><trkpt lat="38.7400972" lon="16.3675884"><ele>968.5</ele><time>2026-04-19T12:02:34.25Z</time></trkpt><trkpt lat="38.740031" lon="16.3674481"><ele>970.0</ele><time>2026-04-19T12:02:35.243Z</time></trkpt><trkpt lat="38.7399766" lon="16.3673217"><ele>970.0</ele><time>2026-04-19T12:02:36.248Z</time></trkpt><trkpt lat="38.7399226" lon="16.3672034"><ele>970.0</ele><time>2026-04-19T12:02:37.259Z</time></trkpt><trkpt lat="38.7398488" lon="16.3671178"><ele>970.0</ele><time>2026-04-19T12:02:38.245Z</time></trkpt><trkpt lat="38.7397677" lon="16.3670554"><ele>970.0</ele><time>2026-04-19T12:02:39.251Z</time></trkpt><trkpt lat="38.7396908" lon="16.3669964"><ele>970.0</ele><time>2026-04-19T12:02:40.255Z</time></trkpt><trkpt lat="38.7396052" lon="16.366953"><ele>968.9999999999999</ele><time>2026-04-19T12:02:41.255Z</time></trkpt><trkpt lat="38.7395249" lon="16.3669118"><ele>968.0</ele><time>2026-04-19T12:02:42.249Z</time></trkpt><trkpt lat="38.7394501" lon="16.3668738"><ele>967.0</ele><time>2026-04-19T12:02:43.246Z</time></trkpt><trkpt lat="38.7393943" lon="16.3668325"><ele>966.0</ele><time>2026-04-19T12:02:44.253Z</time></trkpt><trkpt lat="38.7393145" lon="16.3667803"><ele>964.9999999999999</ele><time>2026-04-19T12:02:46.247Z</time></trkpt><trkpt lat="38.7392515" lon="16.3667464"><ele>964.0</ele><time>2026-04-19T12:02:48.271Z</time></trkpt><trkpt lat="38.7391354" lon="16.3666852"><ele>963.4000000000001</ele><time>2026-04-19T12:02:50.256Z</time></trkpt><trkpt lat="38.7390463" lon="16.3666436"><ele>962.8000000000001</ele><time>2026-04-19T12:02:51.246Z</time></trkpt><trkpt lat="38.7389313" lon="16.3665878"><ele>962.1999999999999</ele><time>2026-04-19T12:02:52.247Z</time></trkpt><trkpt lat="38.7388307" lon="16.366528"><ele>961.5999999999999</ele><time>2026-04-19T12:02:53.257Z</time></trkpt><trkpt lat="38.7387347" lon="16.3664644"><ele>961.0</ele><time>2026-04-19T12:02:54.246Z</time></trkpt><trkpt lat="38.7386377" lon="16.366415"><ele>961.1666666666666</ele><time>2026-04-19T12:02:55.256Z</time></trkpt><trkpt lat="38.7385469" lon="16.3663857"><ele>961.3333333333333</ele><time>2026-04-19T12:02:56.259Z</time></trkpt><trkpt lat="38.7384768" lon="16.3663627"><ele>961.5</ele><time>2026-04-19T12:02:57.244Z</time></trkpt><trkpt lat="38.7384065" lon="16.3663397"><ele>961.6666666666667</ele><time>2026-04-19T12:02:58.253Z</time></trkpt><trkpt lat="38.7382983" lon="16.3662947"><ele>961.8333333333334</ele><time>2026-04-19T12:03:00.241Z</time></trkpt><trkpt lat="38.738227" lon="16.3662421"><ele>962.0</ele><time>2026-04-19T12:03:01.264Z</time></trkpt><trkpt lat="38.738173" lon="16.3661895"><ele>963.0</ele><time>2026-04-19T12:03:02.245Z</time></trkpt><trkpt lat="38.7381062" lon="16.3661345"><ele>964.0</ele><time>2026-04-19T12:03:03.248Z</time></trkpt><trkpt lat="38.7380335" lon="16.3660709"><ele>965.0</ele><time>2026-04-19T12:03:04.252Z</time></trkpt><trkpt lat="38.737957" lon="16.3659818"><ele>966.0</ele><time>2026-04-19T12:03:05.25Z</time></trkpt><trkpt lat="38.7378868" lon="16.3658958"><ele>967.0</ele><time>2026-04-19T12:03:06.248Z</time></trkpt><trkpt lat="38.7377973" lon="16.3657992"><ele>967.4000000000001</ele><time>2026-04-19T12:03:08.25Z</time></trkpt><trkpt lat="38.7377069" lon="16.3656856"><ele>967.8000000000001</ele><time>2026-04-19T12:03:10.255Z</time></trkpt><trkpt lat="38.7376513" lon="16.3656219"><ele>968.2</ele><time>2026-04-19T12:03:11.264Z</time></trkpt><trkpt lat="38.7375881" lon="16.3655438"><ele>968.6</ele><time>2026-04-19T12:03:12.249Z</time></trkpt><trkpt lat="38.7375189" lon="16.3654595"><ele>969.0</ele><time>2026-04-19T12:03:13.262Z</time></trkpt><trkpt lat="38.7374479" lon="16.36537"><ele>969.8333333333334</ele><time>2026-04-19T12:03:14.257Z</time></trkpt><trkpt lat="38.7373783" lon="16.3652852"><ele>970.6666666666667</ele><time>2026-04-19T12:03:15.249Z</time></trkpt><trkpt lat="38.7373059" lon="16.3652114"><ele>971.5</ele><time>2026-04-19T12:03:16.247Z</time></trkpt><trkpt lat="38.7372524" lon="16.3651567"><ele>972.3333333333334</ele><time>2026-04-19T12:03:17.246Z</time></trkpt><trkpt lat="38.7371961" lon="16.3650854"><ele>973.1666666666667</ele><time>2026-04-19T12:03:19.256Z</time></trkpt><trkpt lat="38.7371504" lon="16.3649973"><ele>974.0</ele><time>2026-04-19T12:03:21.257Z</time></trkpt><trkpt lat="38.7371067" lon="16.3649044"><ele>974.0</ele><time>2026-04-19T12:03:23.254Z</time></trkpt><trkpt lat="38.7371094" lon="16.3647872"><ele>974.0000000000001</ele><time>2026-04-19T12:03:26.258Z</time></trkpt><trkpt lat="38.7371094" lon="16.3646825"><ele>974.0000000000001</ele><time>2026-04-19T12:03:28.27Z</time></trkpt><trkpt lat="38.7371156" lon="16.3645803"><ele>974.0</ele><time>2026-04-19T12:03:30.251Z</time></trkpt><trkpt lat="38.737112" lon="16.3644344"><ele>974.0</ele><time>2026-04-19T12:03:32.259Z</time></trkpt><trkpt lat="38.7370829" lon="16.3643035"><ele>974.2</ele><time>2026-04-19T12:03:34.247Z</time></trkpt><trkpt lat="38.7370573" lon="16.3641737"><ele>974.4000000000001</ele><time>2026-04-19T12:03:36.259Z</time></trkpt><trkpt lat="38.7370115" lon="16.3640175"><ele>974.6</ele><time>2026-04-19T12:03:38.247Z</time></trkpt><trkpt lat="38.7369791" lon="16.363923"><ele>974.8</ele><time>2026-04-19T12:03:39.259Z</time></trkpt><trkpt lat="38.7369517" lon="16.363838"><ele>975.0</ele><time>2026-04-19T12:03:40.268Z</time></trkpt><trkpt lat="38.736917" lon="16.3637643"><ele>975.8</ele><time>2026-04-19T12:03:41.248Z</time></trkpt><trkpt lat="38.7368523" lon="16.3636393"><ele>976.6</ele><time>2026-04-19T12:03:43.249Z</time></trkpt><trkpt lat="38.7368115" lon="16.363572"><ele>977.4000000000001</ele><time>2026-04-19T12:03:44.244Z</time></trkpt><trkpt lat="38.7367463" lon="16.3634955"><ele>978.2</ele><time>2026-04-19T12:03:45.252Z</time></trkpt><trkpt lat="38.7366625" lon="16.3634155"><ele>979.0</ele><time>2026-04-19T12:03:46.251Z</time></trkpt><trkpt lat="38.7365884" lon="16.3633503"><ele>979.0</ele><time>2026-04-19T12:03:47.243Z</time></trkpt><trkpt lat="38.7365116" lon="16.3632999"><ele>979.0000000000001</ele><time>2026-04-19T12:03:48.246Z</time></trkpt><trkpt lat="38.736443" lon="16.3632637"><ele>979.0000000000001</ele><time>2026-04-19T12:03:49.248Z</time></trkpt><trkpt lat="38.7363875" lon="16.3632217"><ele>979.0</ele><time>2026-04-19T12:03:50.246Z</time></trkpt><trkpt lat="38.7362703" lon="16.3631759"><ele>979.0</ele><time>2026-04-19T12:03:52.257Z</time></trkpt><trkpt lat="38.7361533" lon="16.3631448"><ele>978.9999999999999</ele><time>2026-04-19T12:03:54.256Z</time></trkpt><trkpt lat="38.7360798" lon="16.3631175"><ele>979.0</ele><time>2026-04-19T12:03:56.257Z</time></trkpt><trkpt lat="38.7359866" lon="16.3630992"><ele>979.0</ele><time>2026-04-19T12:04:11.255Z</time></trkpt><trkpt lat="38.7359184" lon="16.3630262"><ele>979.0</ele><time>2026-04-19T12:04:14.263Z</time></trkpt><trkpt lat="38.7358899" lon="16.3629541"><ele>978.9999999999999</ele><time>2026-04-19T12:04:16.26Z</time></trkpt><trkpt lat="38.7358869" lon="16.36286"><ele>979.0</ele><time>2026-04-19T12:04:18.254Z</time></trkpt><trkpt lat="38.7358888" lon="16.36269"><ele>980.1428571428571</ele><time>2026-04-19T12:04:20.256Z</time></trkpt><trkpt lat="38.7359134" lon="16.3626126"><ele>981.2857142857143</ele><time>2026-04-19T12:04:21.253Z</time></trkpt><trkpt lat="38.7359496" lon="16.3625299"><ele>982.4285714285714</ele><time>2026-04-19T12:04:22.256Z</time></trkpt><trkpt lat="38.7359769" lon="16.36244"><ele>983.5714285714286</ele><time>2026-04-19T12:04:23.25Z</time></trkpt><trkpt lat="38.7359992" lon="16.3623494"><ele>984.7142857142858</ele><time>2026-04-19T12:04:24.253Z</time></trkpt><trkpt lat="38.7360151" lon="16.3622515"><ele>985.8571428571429</ele><time>2026-04-19T12:04:25.266Z</time></trkpt><trkpt lat="38.7360219" lon="16.3621575"><ele>987.0</ele><time>2026-04-19T12:04:26.262Z</time></trkpt><trkpt lat="38.7360587" lon="16.3620147"><ele>987.0</ele><time>2026-04-19T12:04:28.261Z</time></trkpt><trkpt lat="38.7360721" lon="16.3618467"><ele>987.0</ele><time>2026-04-19T12:04:30.261Z</time></trkpt><trkpt lat="38.7360585" lon="16.361729"><ele>987.0</ele><time>2026-04-19T12:04:31.251Z</time></trkpt><trkpt lat="38.7360382" lon="16.3616104"><ele>987.0</ele><time>2026-04-19T12:04:32.254Z</time></trkpt><trkpt lat="38.7360162" lon="16.3614999"><ele>987.0</ele><time>2026-04-19T12:04:33.253Z</time></trkpt><trkpt lat="38.7359905" lon="16.3613969"><ele>990.4000000000001</ele><time>2026-04-19T12:04:34.254Z</time></trkpt><trkpt lat="38.7359564" lon="16.3612909"><ele>993.8000000000001</ele><time>2026-04-19T12:04:35.249Z</time></trkpt><trkpt lat="38.7359135" lon="16.361183"><ele>997.2</ele><time>2026-04-19T12:04:36.255Z</time></trkpt><trkpt lat="38.7358473" lon="16.3610803"><ele>1000.6</ele><time>2026-04-19T12:04:37.266Z</time></trkpt><trkpt lat="38.7357826" lon="16.3609857"><ele>1004.0</ele><time>2026-04-19T12:04:38.25Z</time></trkpt><trkpt lat="38.7357213" lon="16.3609"><ele>1004.0000000000001</ele><time>2026-04-19T12:04:39.25Z</time></trkpt><trkpt lat="38.7356583" lon="16.360827"><ele>1004.0</ele><time>2026-04-19T12:04:40.253Z</time></trkpt><trkpt lat="38.7355772" lon="16.3607927"><ele>1004.0</ele><time>2026-04-19T12:04:41.252Z</time></trkpt><trkpt lat="38.7354915" lon="16.3607686"><ele>1004.0</ele><time>2026-04-19T12:04:42.257Z</time></trkpt><trkpt lat="38.7354232" lon="16.3607452"><ele>1004.0000000000001</ele><time>2026-04-19T12:04:43.26Z</time></trkpt><trkpt lat="38.735321" lon="16.3606936"><ele>1004.0</ele><time>2026-04-19T12:04:45.252Z</time></trkpt><trkpt lat="38.7352243" lon="16.3606158"><ele>1005.0000000000001</ele><time>2026-04-19T12:04:47.265Z</time></trkpt><trkpt lat="38.735168" lon="16.3605508"><ele>1006.0</ele><time>2026-04-19T12:04:48.25Z</time></trkpt><trkpt lat="38.7351141" lon="16.3604671"><ele>1007.0</ele><time>2026-04-19T12:04:49.252Z</time></trkpt><trkpt lat="38.7350595" lon="16.3603842"><ele>1008.0</ele><time>2026-04-19T12:04:50.253Z</time></trkpt><trkpt lat="38.7350205" lon="16.3603027"><ele>1009.0000000000001</ele><time>2026-04-19T12:04:51.258Z</time></trkpt><trkpt lat="38.7349946" lon="16.3601598"><ele>1010.0</ele><time>2026-04-19T12:04:53.267Z</time></trkpt><trkpt lat="38.735019" lon="16.3600289"><ele>1011.1666666666667</ele><time>2026-04-19T12:04:55.265Z</time></trkpt><trkpt lat="38.7350372" lon="16.3599374"><ele>1012.3333333333334</ele><time>2026-04-19T12:04:56.263Z</time></trkpt><trkpt lat="38.7350424" lon="16.3598351"><ele>1013.5</ele><time>2026-04-19T12:04:57.249Z</time></trkpt><trkpt lat="38.7350387" lon="16.359721"><ele>1014.6666666666667</ele><time>2026-04-19T12:04:58.265Z</time></trkpt><trkpt lat="38.7350387" lon="16.3595994"><ele>1015.8333333333334</ele><time>2026-04-19T12:04:59.266Z</time></trkpt><trkpt lat="38.7350389" lon="16.359473"><ele>1017.0</ele><time>2026-04-19T12:05:00.243Z</time></trkpt><trkpt lat="38.7350373" lon="16.3593445"><ele>1017.6666666666666</ele><time>2026-04-19T12:05:01.259Z</time></trkpt><trkpt lat="38.7350357" lon="16.3592143"><ele>1018.3333333333333</ele><time>2026-04-19T12:05:02.249Z</time></trkpt><trkpt lat="38.7350431" lon="16.3590985"><ele>1019.0</ele><time>2026-04-19T12:05:03.248Z</time></trkpt><trkpt lat="38.7350495" lon="16.3589901"><ele>1019.6666666666666</ele><time>2026-04-19T12:05:04.256Z</time></trkpt><trkpt lat="38.7350512" lon="16.3588744"><ele>1020.3333333333333</ele><time>2026-04-19T12:05:05.255Z</time></trkpt><trkpt lat="38.7350443" lon="16.3587716"><ele>1021.0</ele><time>2026-04-19T12:05:06.251Z</time></trkpt><trkpt lat="38.7350234" lon="16.3586573"><ele>1021.4999999999999</ele><time>2026-04-19T12:05:07.265Z</time></trkpt><trkpt lat="38.7349996" lon="16.3585627"><ele>1022.0</ele><time>2026-04-19T12:05:08.26Z</time></trkpt><trkpt lat="38.7349865" lon="16.3584766"><ele>1022.5</ele><time>2026-04-19T12:05:09.254Z</time></trkpt><trkpt lat="38.7349963" lon="16.3583698"><ele>1023.0</ele><time>2026-04-19T12:05:10.262Z</time></trkpt><trkpt lat="38.7350259" lon="16.3582603"><ele>1023.4999999999999</ele><time>2026-04-19T12:05:11.253Z</time></trkpt><trkpt lat="38.7350423" lon="16.3581436"><ele>1024.0</ele><time>2026-04-19T12:05:12.249Z</time></trkpt><trkpt lat="38.7350239" lon="16.3580182"><ele>1024.6000000000001</ele><time>2026-04-19T12:05:13.256Z</time></trkpt><trkpt lat="38.7349723" lon="16.3579091"><ele>1025.2</ele><time>2026-04-19T12:05:14.265Z</time></trkpt><trkpt lat="38.7349201" lon="16.3578054"><ele>1025.8000000000002</ele><time>2026-04-19T12:05:15.258Z</time></trkpt><trkpt lat="38.7348614" lon="16.3577087"><ele>1026.4</ele><time>2026-04-19T12:05:16.247Z</time></trkpt><trkpt lat="38.7347989" lon="16.3575994"><ele>1027.0</ele><time>2026-04-19T12:05:17.246Z</time></trkpt><trkpt lat="38.734725" lon="16.3574695"><ele>1027.0</ele><time>2026-04-19T12:05:18.259Z</time></trkpt><trkpt lat="38.7346519" lon="16.357339"><ele>1027.0</ele><time>2026-04-19T12:05:19.25Z</time></trkpt><trkpt lat="38.7345822" lon="16.3572284"><ele>1027.0</ele><time>2026-04-19T12:05:20.26Z</time></trkpt><trkpt lat="38.7345226" lon="16.3571492"><ele>1027.0</ele><time>2026-04-19T12:05:21.256Z</time></trkpt><trkpt lat="38.7344758" lon="16.3570857"><ele>1027.0</ele><time>2026-04-19T12:05:22.251Z</time></trkpt><trkpt lat="38.7344317" lon="16.3570146"><ele>1024.5</ele><time>2026-04-19T12:05:23.251Z</time></trkpt><trkpt lat="38.7343807" lon="16.3569311"><ele>1022.0</ele><time>2026-04-19T12:05:24.261Z</time></trkpt><trkpt lat="38.7343306" lon="16.3568472"><ele>1019.5</ele><time>2026-04-19T12:05:25.267Z</time></trkpt><trkpt lat="38.7342751" lon="16.356776"><ele>1017.0</ele><time>2026-04-19T12:05:26.267Z</time></trkpt><trkpt lat="38.7342194" lon="16.3566942"><ele>1014.4999999999999</ele><time>2026-04-19T12:05:27.254Z</time></trkpt><trkpt lat="38.7341754" lon="16.3566191"><ele>1012.0</ele><time>2026-04-19T12:05:28.261Z</time></trkpt><trkpt lat="38.734132" lon="16.3565366"><ele>1011.9999999999999</ele><time>2026-04-19T12:05:29.253Z</time></trkpt><trkpt lat="38.7341293" lon="16.3564535"><ele>1012.0</ele><time>2026-04-19T12:05:30.266Z</time></trkpt><trkpt lat="38.7341307" lon="16.3563307"><ele>1012.0</ele><time>2026-04-19T12:05:32.27Z</time></trkpt><trkpt lat="38.7341599" lon="16.356207"><ele>1012.0</ele><time>2026-04-19T12:05:34.246Z</time></trkpt><trkpt lat="38.7342231" lon="16.3561167"><ele>1011.9999999999999</ele><time>2026-04-19T12:05:36.269Z</time></trkpt><trkpt lat="38.734293" lon="16.356041"><ele>1012.0</ele><time>2026-04-19T12:05:38.261Z</time></trkpt><trkpt lat="38.7343645" lon="16.3559234"><ele>1012.4999999999999</ele><time>2026-04-19T12:05:40.254Z</time></trkpt><trkpt lat="38.7343974" lon="16.3558284"><ele>1013.0</ele><time>2026-04-19T12:05:41.258Z</time></trkpt><trkpt lat="38.7344426" lon="16.3557324"><ele>1013.5</ele><time>2026-04-19T12:05:42.273Z</time></trkpt><trkpt lat="38.7344662" lon="16.3555853"><ele>1014.0</ele><time>2026-04-19T12:05:44.253Z</time></trkpt><trkpt lat="38.7344842" lon="16.3554987"><ele>1014.4999999999999</ele><time>2026-04-19T12:05:45.261Z</time></trkpt><trkpt lat="38.7345072" lon="16.3554037"><ele>1015.0</ele><time>2026-04-19T12:05:46.253Z</time></trkpt><trkpt lat="38.7345306" lon="16.3553067"><ele>1014.9999999999999</ele><time>2026-04-19T12:05:47.248Z</time></trkpt><trkpt lat="38.734551" lon="16.3552065"><ele>1015.0</ele><time>2026-04-19T12:05:48.261Z</time></trkpt><trkpt lat="38.7345897" lon="16.3551072"><ele>1015.0</ele><time>2026-04-19T12:05:49.245Z</time></trkpt><trkpt lat="38.7346113" lon="16.3550156"><ele>1015.0</ele><time>2026-04-19T12:05:50.252Z</time></trkpt><trkpt lat="38.7346495" lon="16.3549434"><ele>1014.9999999999999</ele><time>2026-04-19T12:05:52.268Z</time></trkpt><trkpt lat="38.7347372" lon="16.3548686"><ele>1015.0</ele><time>2026-04-19T12:05:55.264Z</time></trkpt><trkpt lat="38.7348647" lon="16.3548365"><ele>1014.9999999999999</ele><time>2026-04-19T12:05:57.265Z</time></trkpt><trkpt lat="38.7349542" lon="16.3548173"><ele>1015.0</ele><time>2026-04-19T12:05:58.261Z</time></trkpt><trkpt lat="38.7350404" lon="16.3548158"><ele>1015.0</ele><time>2026-04-19T12:05:59.262Z</time></trkpt><trkpt lat="38.7351224" lon="16.3548431"><ele>1015.0</ele><time>2026-04-19T12:06:00.26Z</time></trkpt><trkpt lat="38.7351979" lon="16.3548714"><ele>1014.9999999999999</ele><time>2026-04-19T12:06:01.259Z</time></trkpt><trkpt lat="38.7352834" lon="16.3548974"><ele>1015.0</ele><time>2026-04-19T12:06:02.244Z</time></trkpt><trkpt lat="38.7353629" lon="16.3549475"><ele>1012.6</ele><time>2026-04-19T12:06:03.258Z</time></trkpt><trkpt lat="38.7354432" lon="16.3550059"><ele>1010.2</ele><time>2026-04-19T12:06:04.267Z</time></trkpt><trkpt lat="38.7355254" lon="16.3550812"><ele>1007.8</ele><time>2026-04-19T12:06:05.252Z</time></trkpt><trkpt lat="38.73561" lon="16.3551513"><ele>1005.4</ele><time>2026-04-19T12:06:06.255Z</time></trkpt><trkpt lat="38.7356869" lon="16.3552113"><ele>1003.0</ele><time>2026-04-19T12:06:07.271Z</time></trkpt><trkpt lat="38.735774" lon="16.3552662"><ele>1002.9999999999999</ele><time>2026-04-19T12:06:08.249Z</time></trkpt><trkpt lat="38.7358586" lon="16.355282"><ele>1003.0</ele><time>2026-04-19T12:06:09.252Z</time></trkpt><trkpt lat="38.7359383" lon="16.3553251"><ele>1003.0</ele><time>2026-04-19T12:06:10.251Z</time></trkpt><trkpt lat="38.7360092" lon="16.3553742"><ele>1003.0</ele><time>2026-04-19T12:06:11.248Z</time></trkpt><trkpt lat="38.7360777" lon="16.3554204"><ele>1002.9999999999999</ele><time>2026-04-19T12:06:12.263Z</time></trkpt><trkpt lat="38.7361367" lon="16.3554691"><ele>1003.0</ele><time>2026-04-19T12:06:13.256Z</time></trkpt><trkpt lat="38.7361947" lon="16.35555"><ele>1000.3333333333333</ele><time>2026-04-19T12:06:14.256Z</time></trkpt><trkpt lat="38.7362006" lon="16.3556494"><ele>997.6666666666666</ele><time>2026-04-19T12:06:15.254Z</time></trkpt><trkpt lat="38.736218" lon="16.3557616"><ele>995.0</ele><time>2026-04-19T12:06:16.258Z</time></trkpt><trkpt lat="38.7362459" lon="16.3558682"><ele>992.3333333333333</ele><time>2026-04-19T12:06:17.259Z</time></trkpt><trkpt lat="38.7362742" lon="16.3559513"><ele>989.6666666666666</ele><time>2026-04-19T12:06:18.261Z</time></trkpt><trkpt lat="38.7363594" lon="16.3559893"><ele>987.0</ele><time>2026-04-19T12:06:20.256Z</time></trkpt><trkpt lat="38.7364314" lon="16.3559191"><ele>987.0</ele><time>2026-04-19T12:06:22.28Z</time></trkpt><trkpt lat="38.7364628" lon="16.3558293"><ele>987.0</ele><time>2026-04-19T12:06:23.274Z</time></trkpt><trkpt lat="38.7364733" lon="16.3557416"><ele>987.0</ele><time>2026-04-19T12:06:24.254Z</time></trkpt><trkpt lat="38.7364841" lon="16.3556208"><ele>987.0</ele><time>2026-04-19T12:06:26.26Z</time></trkpt><trkpt lat="38.736498" lon="16.3555239"><ele>987.0</ele><time>2026-04-19T12:06:29.255Z</time></trkpt><trkpt lat="38.7365169" lon="16.355424"><ele>987.0</ele><time>2026-04-19T12:06:31.255Z</time></trkpt><trkpt lat="38.736551" lon="16.3553421"><ele>987.0</ele><time>2026-04-19T12:06:33.254Z</time></trkpt><trkpt lat="38.7366271" lon="16.3554209"><ele>987.0</ele><time>2026-04-19T12:06:35.257Z</time></trkpt><trkpt lat="38.7366667" lon="16.3555233"><ele>987.0</ele><time>2026-04-19T12:06:37.255Z</time></trkpt><trkpt lat="38.7367154" lon="16.3555811"><ele>987.0</ele><time>2026-04-19T12:06:39.26Z</time></trkpt><trkpt lat="38.7367846" lon="16.3555299"><ele>987.0</ele><time>2026-04-19T12:06:42.261Z</time></trkpt><trkpt lat="38.7368323" lon="16.3554667"><ele>987.0</ele><time>2026-04-19T12:06:44.264Z</time></trkpt><trkpt lat="38.7368876" lon="16.3554195"><ele>982.6666666666666</ele><time>2026-04-19T12:06:46.25Z</time></trkpt><trkpt lat="38.7369404" lon="16.3553383"><ele>978.3333333333333</ele><time>2026-04-19T12:06:48.248Z</time></trkpt><trkpt lat="38.7370107" lon="16.3552114"><ele>974.0</ele><time>2026-04-19T12:06:50.249Z</time></trkpt><trkpt lat="38.7370507" lon="16.3551367"><ele>969.6666666666666</ele><time>2026-04-19T12:06:51.259Z</time></trkpt><trkpt lat="38.7370811" lon="16.3550474"><ele>965.3333333333333</ele><time>2026-04-19T12:06:52.246Z</time></trkpt><trkpt lat="38.737106" lon="16.3549621"><ele>961.0</ele><time>2026-04-19T12:06:53.244Z</time></trkpt><trkpt lat="38.7371545" lon="16.3548809"><ele>960.9999999999999</ele><time>2026-04-19T12:06:55.254Z</time></trkpt><trkpt lat="38.7372283" lon="16.3548684"><ele>961.0</ele><time>2026-04-19T12:06:57.258Z</time></trkpt><trkpt lat="38.7372988" lon="16.3549217"><ele>961.0</ele><time>2026-04-19T12:07:00.256Z</time></trkpt><trkpt lat="38.7373706" lon="16.3549795"><ele>961.0</ele><time>2026-04-19T12:07:02.264Z</time></trkpt><trkpt lat="38.7374443" lon="16.3550275"><ele>960.9999999999999</ele><time>2026-04-19T12:07:04.257Z</time></trkpt><trkpt lat="38.7375284" lon="16.3550829"><ele>961.0</ele><time>2026-04-19T12:07:06.253Z</time></trkpt><trkpt lat="38.7375995" lon="16.355188"><ele>960.9999999999999</ele><time>2026-04-19T12:07:08.267Z</time></trkpt><trkpt lat="38.7376541" lon="16.3552887"><ele>961.0</ele><time>2026-04-19T12:07:10.258Z</time></trkpt><trkpt lat="38.7377004" lon="16.3554104"><ele>961.0</ele><time>2026-04-19T12:07:12.257Z</time></trkpt><trkpt lat="38.7377245" lon="16.3555131"><ele>961.0</ele><time>2026-04-19T12:07:14.258Z</time></trkpt><trkpt lat="38.7377425" lon="16.3556009"><ele>960.9999999999999</ele><time>2026-04-19T12:07:16.254Z</time></trkpt><trkpt lat="38.737752" lon="16.3557076"><ele>961.0</ele><time>2026-04-19T12:07:18.256Z</time></trkpt><trkpt lat="38.7378359" lon="16.3557656"><ele>957.4</ele><time>2026-04-19T12:07:20.245Z</time></trkpt><trkpt lat="38.7379558" lon="16.3557449"><ele>953.8</ele><time>2026-04-19T12:07:22.257Z</time></trkpt><trkpt lat="38.7380518" lon="16.3557201"><ele>950.1999999999999</ele><time>2026-04-19T12:07:24.258Z</time></trkpt><trkpt lat="38.7381375" lon="16.3557051"><ele>946.5999999999999</ele><time>2026-04-19T12:07:26.255Z</time></trkpt><trkpt lat="38.7382384" lon="16.3556929"><ele>943.0</ele><time>2026-04-19T12:07:28.241Z</time></trkpt><trkpt lat="38.7383516" lon="16.355721"><ele>943.0</ele><time>2026-04-19T12:07:30.247Z</time></trkpt><trkpt lat="38.7384663" lon="16.3557888"><ele>943.0</ele><time>2026-04-19T12:07:32.245Z</time></trkpt><trkpt lat="38.7385366" lon="16.3558289"><ele>943.0</ele><time>2026-04-19T12:07:33.259Z</time></trkpt><trkpt lat="38.7385962" lon="16.355861"><ele>943.0</ele><time>2026-04-19T12:07:34.243Z</time></trkpt><trkpt lat="38.7387074" lon="16.3559127"><ele>943.0</ele><time>2026-04-19T12:07:36.26Z</time></trkpt><trkpt lat="38.7388008" lon="16.3559576"><ele>939.6666666666666</ele><time>2026-04-19T12:07:38.257Z</time></trkpt><trkpt lat="38.738859" lon="16.3559959"><ele>936.3333333333333</ele><time>2026-04-19T12:07:39.261Z</time></trkpt><trkpt lat="38.7389153" lon="16.3560338"><ele>933.0</ele><time>2026-04-19T12:07:40.245Z</time></trkpt><trkpt lat="38.739014" lon="16.356133"><ele>929.6666666666667</ele><time>2026-04-19T12:07:42.253Z</time></trkpt><trkpt lat="38.739064" lon="16.3562014"><ele>926.3333333333334</ele><time>2026-04-19T12:07:43.254Z</time></trkpt><trkpt lat="38.7391062" lon="16.3562892"><ele>923.0</ele><time>2026-04-19T12:07:44.249Z</time></trkpt><trkpt lat="38.739145" lon="16.3563712"><ele>923.0000000000001</ele><time>2026-04-19T12:07:45.253Z</time></trkpt><trkpt lat="38.7391893" lon="16.3564373"><ele>923.0</ele><time>2026-04-19T12:07:46.245Z</time></trkpt><trkpt lat="38.7392749" lon="16.3564207"><ele>923.0</ele><time>2026-04-19T12:07:48.251Z</time></trkpt><trkpt lat="38.7393151" lon="16.3563308"><ele>923.0</ele><time>2026-04-19T12:07:50.275Z</time></trkpt><trkpt lat="38.7393513" lon="16.3562401"><ele>923.0000000000001</ele><time>2026-04-19T12:07:51.25Z</time></trkpt><trkpt lat="38.7393734" lon="16.3561601"><ele>923.0</ele><time>2026-04-19T12:07:52.257Z</time></trkpt><trkpt lat="38.7393577" lon="16.3560119"><ele>923.0000000000001</ele><time>2026-04-19T12:07:54.257Z</time></trkpt><trkpt lat="38.7393273" lon="16.3558957"><ele>923.0</ele><time>2026-04-19T12:07:56.26Z</time></trkpt><trkpt lat="38.7393171" lon="16.3558155"><ele>923.0</ele><time>2026-04-19T12:07:57.266Z</time></trkpt><trkpt lat="38.7392723" lon="16.3556952"><ele>923.0</ele><time>2026-04-19T12:07:59.252Z</time></trkpt><trkpt lat="38.7392625" lon="16.3556052"><ele>923.0000000000001</ele><time>2026-04-19T12:08:00.247Z</time></trkpt><trkpt lat="38.7392617" lon="16.3554987"><ele>923.0</ele><time>2026-04-19T12:08:01.253Z</time></trkpt><trkpt lat="38.7392624" lon="16.3554082"><ele>920.0</ele><time>2026-04-19T12:08:02.266Z</time></trkpt><trkpt lat="38.7392416" lon="16.3553169"><ele>917.0</ele><time>2026-04-19T12:08:04.259Z</time></trkpt><trkpt lat="38.7391388" lon="16.3552592"><ele>914.0</ele><time>2026-04-19T12:08:06.264Z</time></trkpt><trkpt lat="38.7390354" lon="16.3551855"><ele>911.0</ele><time>2026-04-19T12:08:08.26Z</time></trkpt><trkpt lat="38.7389822" lon="16.3551012"><ele>908.0</ele><time>2026-04-19T12:08:09.257Z</time></trkpt><trkpt lat="38.7389786" lon="16.3549952"><ele>908.0000000000001</ele><time>2026-04-19T12:08:10.249Z</time></trkpt><trkpt lat="38.7389781" lon="16.3548717"><ele>908.0</ele><time>2026-04-19T12:08:11.254Z</time></trkpt><trkpt lat="38.7389786" lon="16.354772"><ele>908.0</ele><time>2026-04-19T12:08:12.259Z</time></trkpt><trkpt lat="38.7389575" lon="16.354678"><ele>908.0</ele><time>2026-04-19T12:08:13.259Z</time></trkpt><trkpt lat="38.7389035" lon="16.3545601"><ele>908.0000000000001</ele><time>2026-04-19T12:08:14.242Z</time></trkpt><trkpt lat="38.7388472" lon="16.3544732"><ele>908.0</ele><time>2026-04-19T12:08:15.257Z</time></trkpt><trkpt lat="38.738774" lon="16.3544046"><ele>905.5000000000001</ele><time>2026-04-19T12:08:16.249Z</time></trkpt><trkpt lat="38.7387142" lon="16.3543605"><ele>903.0</ele><time>2026-04-19T12:08:17.243Z</time></trkpt><trkpt lat="38.7386301" lon="16.3542946"><ele>900.5</ele><time>2026-04-19T12:08:19.245Z</time></trkpt><trkpt lat="38.7385347" lon="16.3542431"><ele>898.0</ele><time>2026-04-19T12:08:36.255Z</time></trkpt><trkpt lat="38.7384691" lon="16.3542224"><ele>895.5000000000001</ele><time>2026-04-19T12:09:00.253Z</time></trkpt><trkpt lat="38.7384088" lon="16.354168"><ele>893.0</ele><time>2026-04-19T12:09:05.247Z</time></trkpt><trkpt lat="38.7384003" lon="16.3540586"><ele>892.3333333333334</ele><time>2026-04-19T12:09:29.259Z</time></trkpt><trkpt lat="38.7384383" lon="16.3539853"><ele>891.6666666666667</ele><time>2026-04-19T12:09:33.258Z</time></trkpt><trkpt lat="38.738491" lon="16.3539208"><ele>891.0</ele><time>2026-04-19T12:09:36.249Z</time></trkpt><trkpt lat="38.7385597" lon="16.353842"><ele>890.3333333333333</ele><time>2026-04-19T12:09:39.254Z</time></trkpt><trkpt lat="38.738617" lon="16.3537467"><ele>889.6666666666666</ele><time>2026-04-19T12:09:42.254Z</time></trkpt><trkpt lat="38.7386669" lon="16.3536703"><ele>889.0</ele><time>2026-04-19T12:09:44.248Z</time></trkpt><trkpt lat="38.7387204" lon="16.353582"><ele>888.9999999999999</ele><time>2026-04-19T12:09:47.248Z</time></trkpt><trkpt lat="38.7387517" lon="16.3534902"><ele>889.0</ele><time>2026-04-19T12:09:50.249Z</time></trkpt><trkpt lat="38.7387491" lon="16.3533729"><ele>889.0</ele><time>2026-04-19T12:09:53.245Z</time></trkpt><trkpt lat="38.7387446" lon="16.3532916"><ele>889.0</ele><time>2026-04-19T12:09:55.257Z</time></trkpt><trkpt lat="38.7388261" lon="16.3532353"><ele>888.9999999999999</ele><time>2026-04-19T12:09:58.26Z</time></trkpt><trkpt lat="38.7388968" lon="16.3532088"><ele>889.0</ele><time>2026-04-19T12:10:00.259Z</time></trkpt><trkpt lat="38.7389882" lon="16.3532348"><ele>888.9999999999999</ele><time>2026-04-19T12:10:03.256Z</time></trkpt><trkpt lat="38.7390457" lon="16.3532725"><ele>889.0</ele><time>2026-04-19T12:10:08.254Z</time></trkpt><trkpt lat="38.7391306" lon="16.3532894"><ele>889.0</ele><time>2026-04-19T12:10:16.26Z</time></trkpt><trkpt lat="38.7392101" lon="16.3532961"><ele>889.0</ele><time>2026-04-19T12:10:19.265Z</time></trkpt><trkpt lat="38.7393146" lon="16.3533253"><ele>888.9999999999999</ele><time>2026-04-19T12:10:21.257Z</time></trkpt><trkpt lat="38.739405" lon="16.3533655"><ele>889.0</ele><time>2026-04-19T12:10:23.257Z</time></trkpt><trkpt lat="38.7394934" lon="16.3534045"><ele>889.3333333333333</ele><time>2026-04-19T12:10:25.264Z</time></trkpt><trkpt lat="38.7395806" lon="16.3534387"><ele>889.6666666666666</ele><time>2026-04-19T12:10:27.248Z</time></trkpt><trkpt lat="38.7396836" lon="16.3534171"><ele>890.0</ele><time>2026-04-19T12:10:29.251Z</time></trkpt><trkpt lat="38.7397627" lon="16.3533517"><ele>890.3333333333333</ele><time>2026-04-19T12:10:31.254Z</time></trkpt><trkpt lat="38.7397934" lon="16.3532652"><ele>890.6666666666666</ele><time>2026-04-19T12:10:33.255Z</time></trkpt><trkpt lat="38.7398059" lon="16.3531626"><ele>891.0</ele><time>2026-04-19T12:10:35.265Z</time></trkpt><trkpt lat="38.739842" lon="16.3530283"><ele>891.0</ele><time>2026-04-19T12:10:37.255Z</time></trkpt><trkpt lat="38.7398681" lon="16.3528782"><ele>890.9999999999999</ele><time>2026-04-19T12:10:39.266Z</time></trkpt><trkpt lat="38.7399044" lon="16.3527463"><ele>890.9999999999999</ele><time>2026-04-19T12:10:41.252Z</time></trkpt><trkpt lat="38.7399585" lon="16.3526753"><ele>891.0</ele><time>2026-04-19T12:10:43.251Z</time></trkpt><trkpt lat="38.7400228" lon="16.3526153"><ele>891.0</ele><time>2026-04-19T12:10:45.259Z</time></trkpt><trkpt lat="38.7400964" lon="16.3525069"><ele>891.0</ele><time>2026-04-19T12:10:47.258Z</time></trkpt><trkpt lat="38.740144" lon="16.352379"><ele>891.0</ele><time>2026-04-19T12:10:51.344Z</time></trkpt><trkpt lat="38.7401534" lon="16.3522026"><ele>891.0</ele><time>2026-04-19T12:10:53.247Z</time></trkpt><trkpt lat="38.740151" lon="16.3520872"><ele>891.0</ele><time>2026-04-19T12:10:54.256Z</time></trkpt><trkpt lat="38.7402731" lon="16.3519562"><ele>888.6666666666666</ele><time>2026-04-19T12:10:57.265Z</time></trkpt><trkpt lat="38.7403479" lon="16.3518852"><ele>886.3333333333333</ele><time>2026-04-19T12:10:58.264Z</time></trkpt><trkpt lat="38.740427" lon="16.3518283"><ele>884.0</ele><time>2026-04-19T12:10:59.253Z</time></trkpt><trkpt lat="38.7405025" lon="16.3517613"><ele>881.6666666666666</ele><time>2026-04-19T12:11:00.252Z</time></trkpt><trkpt lat="38.7405706" lon="16.3516979"><ele>879.3333333333333</ele><time>2026-04-19T12:11:01.247Z</time></trkpt><trkpt lat="38.7406336" lon="16.3516383"><ele>877.0</ele><time>2026-04-19T12:11:02.252Z</time></trkpt><trkpt lat="38.7406855" lon="16.351581"><ele>876.9999999999999</ele><time>2026-04-19T12:11:03.259Z</time></trkpt><trkpt lat="38.7407533" lon="16.3514718"><ele>877.0</ele><time>2026-04-19T12:11:05.258Z</time></trkpt><trkpt lat="38.7407835" lon="16.3513967"><ele>877.0</ele><time>2026-04-19T12:11:06.245Z</time></trkpt><trkpt lat="38.7408123" lon="16.3513122"><ele>877.0</ele><time>2026-04-19T12:11:07.244Z</time></trkpt><trkpt lat="38.7408335" lon="16.351228"><ele>876.9999999999999</ele><time>2026-04-19T12:11:08.256Z</time></trkpt><trkpt lat="38.7408687" lon="16.3511292"><ele>877.0</ele><time>2026-04-19T12:11:09.252Z</time></trkpt><trkpt lat="38.7409085" lon="16.3510292"><ele>874.6</ele><time>2026-04-19T12:11:10.244Z</time></trkpt><trkpt lat="38.7409359" lon="16.3509316"><ele>872.2</ele><time>2026-04-19T12:11:11.244Z</time></trkpt><trkpt lat="38.7409613" lon="16.3508312"><ele>869.8</ele><time>2026-04-19T12:11:12.251Z</time></trkpt><trkpt lat="38.7409975" lon="16.3507146"><ele>867.4</ele><time>2026-04-19T12:11:13.251Z</time></trkpt><trkpt lat="38.7410386" lon="16.3506001"><ele>865.0</ele><time>2026-04-19T12:11:14.248Z</time></trkpt><trkpt lat="38.7410737" lon="16.3504898"><ele>865.0</ele><time>2026-04-19T12:11:15.24Z</time></trkpt><trkpt lat="38.7411039" lon="16.3503573"><ele>865.0</ele><time>2026-04-19T12:11:16.245Z</time></trkpt><trkpt lat="38.7411365" lon="16.3502358"><ele>865.0</ele><time>2026-04-19T12:11:17.258Z</time></trkpt><trkpt lat="38.7411784" lon="16.3501454"><ele>865.0</ele><time>2026-04-19T12:11:18.253Z</time></trkpt><trkpt lat="38.7412233" lon="16.3500713"><ele>865.0</ele><time>2026-04-19T12:11:19.247Z</time></trkpt><trkpt lat="38.7412838" lon="16.3499575"><ele>865.0</ele><time>2026-04-19T12:11:20.261Z</time></trkpt><trkpt lat="38.7413561" lon="16.3499069"><ele>865.0</ele><time>2026-04-19T12:11:21.265Z</time></trkpt><trkpt lat="38.7414425" lon="16.3499085"><ele>865.0</ele><time>2026-04-19T12:11:22.254Z</time></trkpt><trkpt lat="38.7415436" lon="16.3499212"><ele>865.0</ele><time>2026-04-19T12:11:23.259Z</time></trkpt><trkpt lat="38.7416463" lon="16.3499458"><ele>865.0</ele><time>2026-04-19T12:11:24.263Z</time></trkpt><trkpt lat="38.7417539" lon="16.3499545"><ele>864.9999999999999</ele><time>2026-04-19T12:11:25.254Z</time></trkpt><trkpt lat="38.7418455" lon="16.3499263"><ele>865.0</ele><time>2026-04-19T12:11:26.257Z</time></trkpt><trkpt lat="38.7419135" lon="16.3498806"><ele>865.0</ele><time>2026-04-19T12:11:27.258Z</time></trkpt><trkpt lat="38.7419662" lon="16.3498128"><ele>865.0</ele><time>2026-04-19T12:11:28.245Z</time></trkpt><trkpt lat="38.7419783" lon="16.3497127"><ele>864.9999999999999</ele><time>2026-04-19T12:11:29.267Z</time></trkpt><trkpt lat="38.7420127" lon="16.3496243"><ele>865.0</ele><time>2026-04-19T12:11:30.247Z</time></trkpt><trkpt lat="38.7421252" lon="16.349549"><ele>862.1666666666666</ele><time>2026-04-19T12:11:32.254Z</time></trkpt><trkpt lat="38.7422016" lon="16.3495634"><ele>859.3333333333333</ele><time>2026-04-19T12:11:33.257Z</time></trkpt><trkpt lat="38.7422889" lon="16.3495723"><ele>856.5</ele><time>2026-04-19T12:11:34.239Z</time></trkpt><trkpt lat="38.7423678" lon="16.3496091"><ele>853.6666666666667</ele><time>2026-04-19T12:11:35.248Z</time></trkpt><trkpt lat="38.7424452" lon="16.3496357"><ele>850.8333333333334</ele><time>2026-04-19T12:11:36.259Z</time></trkpt><trkpt lat="38.7425232" lon="16.349655"><ele>848.0</ele><time>2026-04-19T12:11:37.244Z</time></trkpt><trkpt lat="38.742593" lon="16.3496685"><ele>848.0000000000001</ele><time>2026-04-19T12:11:38.248Z</time></trkpt><trkpt lat="38.7426722" lon="16.3496605"><ele>848.0</ele><time>2026-04-19T12:11:39.267Z</time></trkpt><trkpt lat="38.7427448" lon="16.349645"><ele>848.0</ele><time>2026-04-19T12:11:40.247Z</time></trkpt><trkpt lat="38.7428096" lon="16.3496343"><ele>848.0</ele><time>2026-04-19T12:11:41.255Z</time></trkpt><trkpt lat="38.7429228" lon="16.3495951"><ele>848.0000000000001</ele><time>2026-04-19T12:11:43.254Z</time></trkpt><trkpt lat="38.7429765" lon="16.3495502"><ele>848.0</ele><time>2026-04-19T12:11:44.263Z</time></trkpt><trkpt lat="38.7430552" lon="16.3494621"><ele>846.1666666666667</ele><time>2026-04-19T12:11:46.249Z</time></trkpt><trkpt lat="38.7430973" lon="16.349375"><ele>844.3333333333334</ele><time>2026-04-19T12:11:48.27Z</time></trkpt><trkpt lat="38.7431503" lon="16.3493027"><ele>842.5</ele><time>2026-04-19T12:11:53.261Z</time></trkpt><trkpt lat="38.7431739" lon="16.3492191"><ele>840.6666666666667</ele><time>2026-04-19T12:11:56.264Z</time></trkpt><trkpt lat="38.7432309" lon="16.3491388"><ele>838.8333333333334</ele><time>2026-04-19T12:12:16.266Z</time></trkpt><trkpt lat="38.7433127" lon="16.3490555"><ele>837.0</ele><time>2026-04-19T12:12:18.255Z</time></trkpt><trkpt lat="38.7434087" lon="16.3489851"><ele>837.0</ele><time>2026-04-19T12:12:20.25Z</time></trkpt><trkpt lat="38.7435096" lon="16.3489209"><ele>837.0</ele><time>2026-04-19T12:12:22.26Z</time></trkpt><trkpt lat="38.7435745" lon="16.3488823"><ele>837.0</ele><time>2026-04-19T12:12:23.255Z</time></trkpt><trkpt lat="38.7436363" lon="16.3488407"><ele>837.0</ele><time>2026-04-19T12:12:24.257Z</time></trkpt><trkpt lat="38.7436963" lon="16.3487944"><ele>837.0</ele><time>2026-04-19T12:12:25.257Z</time></trkpt><trkpt lat="38.7437622" lon="16.3487193"><ele>837.0</ele><time>2026-04-19T12:12:26.262Z</time></trkpt><trkpt lat="38.743804" lon="16.3486442"><ele>836.0</ele><time>2026-04-19T12:12:27.26Z</time></trkpt><trkpt lat="38.7438363" lon="16.3485631"><ele>835.0</ele><time>2026-04-19T12:12:28.246Z</time></trkpt><trkpt lat="38.7438788" lon="16.3484618"><ele>834.0</ele><time>2026-04-19T12:12:29.25Z</time></trkpt><trkpt lat="38.7439334" lon="16.3483604"><ele>833.0</ele><time>2026-04-19T12:12:30.25Z</time></trkpt><trkpt lat="38.7440055" lon="16.3482642"><ele>832.0</ele><time>2026-04-19T12:12:31.263Z</time></trkpt><trkpt lat="38.7440872" lon="16.3481787"><ele>832.0</ele><time>2026-04-19T12:12:32.246Z</time></trkpt><trkpt lat="38.7441759" lon="16.348089"><ele>832.0</ele><time>2026-04-19T12:12:33.251Z</time></trkpt><trkpt lat="38.7442527" lon="16.3479947"><ele>832.0</ele><time>2026-04-19T12:12:34.249Z</time></trkpt><trkpt lat="38.7443158" lon="16.3479056"><ele>832.0</ele><time>2026-04-19T12:12:35.244Z</time></trkpt><trkpt lat="38.7443951" lon="16.3478022"><ele>832.0</ele><time>2026-04-19T12:12:36.241Z</time></trkpt><trkpt lat="38.744461" lon="16.3477272"><ele>831.8</ele><time>2026-04-19T12:12:37.246Z</time></trkpt><trkpt lat="38.7445402" lon="16.3476443"><ele>831.6</ele><time>2026-04-19T12:12:38.239Z</time></trkpt><trkpt lat="38.7445959" lon="16.3475667"><ele>831.4</ele><time>2026-04-19T12:12:39.246Z</time></trkpt><trkpt lat="38.7446463" lon="16.3474858"><ele>831.1999999999999</ele><time>2026-04-19T12:12:40.247Z</time></trkpt><trkpt lat="38.7447079" lon="16.3473819"><ele>831.0</ele><time>2026-04-19T12:12:41.243Z</time></trkpt><trkpt lat="38.744777" lon="16.3472943"><ele>831.0</ele><time>2026-04-19T12:12:42.242Z</time></trkpt><trkpt lat="38.7448403" lon="16.3472177"><ele>831.0</ele><time>2026-04-19T12:12:43.254Z</time></trkpt><trkpt lat="38.7448996" lon="16.3471396"><ele>831.0</ele><time>2026-04-19T12:12:44.256Z</time></trkpt><trkpt lat="38.7449885" lon="16.347048"><ele>831.0</ele><time>2026-04-19T12:12:46.254Z</time></trkpt><trkpt lat="38.7450631" lon="16.3470026"><ele>831.0</ele><time>2026-04-19T12:12:47.252Z</time></trkpt><trkpt lat="38.7451417" lon="16.3469643"><ele>829.6666666666666</ele><time>2026-04-19T12:12:48.261Z</time></trkpt><trkpt lat="38.7452017" lon="16.3469238"><ele>828.3333333333333</ele><time>2026-04-19T12:12:49.256Z</time></trkpt><trkpt lat="38.7452446" lon="16.3468646"><ele>827.0</ele><time>2026-04-19T12:12:50.259Z</time></trkpt><trkpt lat="38.7453018" lon="16.3467874"><ele>825.6666666666666</ele><time>2026-04-19T12:12:51.256Z</time></trkpt><trkpt lat="38.7453803" lon="16.3466917"><ele>824.3333333333333</ele><time>2026-04-19T12:12:52.261Z</time></trkpt><trkpt lat="38.7454398" lon="16.3466054"><ele>823.0</ele><time>2026-04-19T12:12:53.266Z</time></trkpt><trkpt lat="38.745487" lon="16.3465205"><ele>822.9999999999999</ele><time>2026-04-19T12:12:54.256Z</time></trkpt><trkpt lat="38.7455274" lon="16.3464256"><ele>823.0</ele><time>2026-04-19T12:12:55.249Z</time></trkpt><trkpt lat="38.7455636" lon="16.3463294"><ele>823.0</ele><time>2026-04-19T12:12:56.262Z</time></trkpt><trkpt lat="38.7455948" lon="16.3462366"><ele>823.0</ele><time>2026-04-19T12:12:57.247Z</time></trkpt><trkpt lat="38.7456263" lon="16.346145"><ele>822.9999999999999</ele><time>2026-04-19T12:12:58.251Z</time></trkpt><trkpt lat="38.7456596" lon="16.3460501"><ele>823.0</ele><time>2026-04-19T12:12:59.25Z</time></trkpt><trkpt lat="38.7456911" lon="16.3459581"><ele>821.9999999999999</ele><time>2026-04-19T12:13:00.248Z</time></trkpt><trkpt lat="38.7457204" lon="16.3458696"><ele>821.0</ele><time>2026-04-19T12:13:01.263Z</time></trkpt><trkpt lat="38.7457495" lon="16.3457834"><ele>820.0</ele><time>2026-04-19T12:13:02.257Z</time></trkpt><trkpt lat="38.7457758" lon="16.3456915"><ele>819.0</ele><time>2026-04-19T12:13:03.255Z</time></trkpt><trkpt lat="38.7457997" lon="16.3455818"><ele>817.9999999999999</ele><time>2026-04-19T12:13:04.255Z</time></trkpt><trkpt lat="38.7458259" lon="16.3454737"><ele>817.0</ele><time>2026-04-19T12:13:05.257Z</time></trkpt><trkpt lat="38.7458591" lon="16.3453679"><ele>818.6666666666666</ele><time>2026-04-19T12:13:06.259Z</time></trkpt><trkpt lat="38.7458998" lon="16.3452643"><ele>820.3333333333333</ele><time>2026-04-19T12:13:07.255Z</time></trkpt><trkpt lat="38.745947" lon="16.3451651"><ele>822.0</ele><time>2026-04-19T12:13:08.246Z</time></trkpt><trkpt lat="38.7459912" lon="16.3450821"><ele>823.6666666666667</ele><time>2026-04-19T12:13:09.251Z</time></trkpt><trkpt lat="38.7460442" lon="16.344986"><ele>825.3333333333334</ele><time>2026-04-19T12:13:10.255Z</time></trkpt><trkpt lat="38.7460973" lon="16.3448897"><ele>827.0</ele><time>2026-04-19T12:13:11.257Z</time></trkpt><trkpt lat="38.746149" lon="16.3447839"><ele>823.6</ele><time>2026-04-19T12:13:12.248Z</time></trkpt><trkpt lat="38.7462036" lon="16.3446721"><ele>820.2</ele><time>2026-04-19T12:13:13.254Z</time></trkpt><trkpt lat="38.7462549" lon="16.3445506"><ele>816.8</ele><time>2026-04-19T12:13:14.255Z</time></trkpt><trkpt lat="38.7462923" lon="16.3444233"><ele>813.4</ele><time>2026-04-19T12:13:15.253Z</time></trkpt><trkpt lat="38.7463138" lon="16.3442927"><ele>810.0</ele><time>2026-04-19T12:13:16.257Z</time></trkpt><trkpt lat="38.7463204" lon="16.3441586"><ele>810.0</ele><time>2026-04-19T12:13:17.247Z</time></trkpt><trkpt lat="38.7463151" lon="16.3440226"><ele>810.0</ele><time>2026-04-19T12:13:18.254Z</time></trkpt><trkpt lat="38.7463105" lon="16.3438988"><ele>810.0</ele><time>2026-04-19T12:13:19.25Z</time></trkpt><trkpt lat="38.7463059" lon="16.3438085"><ele>810.0</ele><time>2026-04-19T12:13:20.244Z</time></trkpt><trkpt lat="38.7463054" lon="16.34372"><ele>810.0</ele><time>2026-04-19T12:13:21.254Z</time></trkpt><trkpt lat="38.7463102" lon="16.3436049"><ele>810.0</ele><time>2026-04-19T12:13:22.247Z</time></trkpt><trkpt lat="38.746317" lon="16.3435026"><ele>807.8</ele><time>2026-04-19T12:13:23.247Z</time></trkpt><trkpt lat="38.7463265" lon="16.3433977"><ele>805.6</ele><time>2026-04-19T12:13:24.246Z</time></trkpt><trkpt lat="38.7463387" lon="16.3432755"><ele>803.4000000000001</ele><time>2026-04-19T12:13:25.249Z</time></trkpt><trkpt lat="38.7463461" lon="16.3431597"><ele>801.2</ele><time>2026-04-19T12:13:26.243Z</time></trkpt><trkpt lat="38.7463599" lon="16.3430211"><ele>799.0</ele><time>2026-04-19T12:13:27.244Z</time></trkpt><trkpt lat="38.7463701" lon="16.3429037"><ele>796.6666666666666</ele><time>2026-04-19T12:13:28.252Z</time></trkpt><trkpt lat="38.7463793" lon="16.3427989"><ele>794.3333333333333</ele><time>2026-04-19T12:13:29.248Z</time></trkpt><trkpt lat="38.7463857" lon="16.3426952"><ele>792.0</ele><time>2026-04-19T12:13:30.253Z</time></trkpt><trkpt lat="38.7463885" lon="16.3426101"><ele>789.6666666666667</ele><time>2026-04-19T12:13:31.244Z</time></trkpt><trkpt lat="38.7464126" lon="16.3425228"><ele>787.3333333333334</ele><time>2026-04-19T12:13:32.246Z</time></trkpt><trkpt lat="38.7464802" lon="16.3424501"><ele>785.0</ele><time>2026-04-19T12:13:34.251Z</time></trkpt><trkpt lat="38.746569" lon="16.3424988"><ele>785.0</ele><time>2026-04-19T12:13:36.255Z</time></trkpt><trkpt lat="38.7466344" lon="16.3426217"><ele>785.0</ele><time>2026-04-19T12:13:38.251Z</time></trkpt><trkpt lat="38.7467111" lon="16.3426634"><ele>785.0</ele><time>2026-04-19T12:13:40.246Z</time></trkpt><trkpt lat="38.7468188" lon="16.3426152"><ele>785.0</ele><time>2026-04-19T12:13:42.266Z</time></trkpt><trkpt lat="38.7468449" lon="16.3424855"><ele>785.0</ele><time>2026-04-19T12:13:44.255Z</time></trkpt><trkpt lat="38.7468339" lon="16.3424044"><ele>785.0</ele><time>2026-04-19T12:13:45.244Z</time></trkpt><trkpt lat="38.746807" lon="16.3423013"><ele>785.0</ele><time>2026-04-19T12:13:46.238Z</time></trkpt><trkpt lat="38.7467698" lon="16.3421906"><ele>785.0</ele><time>2026-04-19T12:13:47.25Z</time></trkpt><trkpt lat="38.7467184" lon="16.3420938"><ele>785.0</ele><time>2026-04-19T12:13:48.244Z</time></trkpt><trkpt lat="38.7466702" lon="16.3419815"><ele>785.0</ele><time>2026-04-19T12:13:49.248Z</time></trkpt><trkpt lat="38.746629" lon="16.3418874"><ele>781.8</ele><time>2026-04-19T12:13:50.248Z</time></trkpt><trkpt lat="38.7465806" lon="16.3418081"><ele>778.6</ele><time>2026-04-19T12:13:51.248Z</time></trkpt><trkpt lat="38.7464902" lon="16.3417199"><ele>775.4000000000001</ele><time>2026-04-19T12:13:53.252Z</time></trkpt><trkpt lat="38.7463594" lon="16.341735"><ele>772.2</ele><time>2026-04-19T12:13:55.25Z</time></trkpt><trkpt lat="38.7462921" lon="16.3417882"><ele>769.0</ele><time>2026-04-19T12:13:56.246Z</time></trkpt><trkpt lat="38.74622" lon="16.3418647"><ele>769.0</ele><time>2026-04-19T12:13:57.238Z</time></trkpt><trkpt lat="38.7461594" lon="16.3419561"><ele>769.0</ele><time>2026-04-19T12:13:58.241Z</time></trkpt><trkpt lat="38.7461079" lon="16.3420558"><ele>769.0</ele><time>2026-04-19T12:13:59.244Z</time></trkpt><trkpt lat="38.7460497" lon="16.342165"><ele>769.0</ele><time>2026-04-19T12:14:00.258Z</time></trkpt><trkpt lat="38.7459863" lon="16.3422787"><ele>769.0</ele><time>2026-04-19T12:14:01.263Z</time></trkpt><trkpt lat="38.7459126" lon="16.3423992"><ele>768.1666666666666</ele><time>2026-04-19T12:14:02.264Z</time></trkpt><trkpt lat="38.7458346" lon="16.342506"><ele>767.3333333333333</ele><time>2026-04-19T12:14:03.253Z</time></trkpt><trkpt lat="38.7457675" lon="16.3426035"><ele>766.5</ele><time>2026-04-19T12:14:04.246Z</time></trkpt><trkpt lat="38.7457279" lon="16.3426962"><ele>765.6666666666666</ele><time>2026-04-19T12:14:05.236Z</time></trkpt><trkpt lat="38.7457112" lon="16.3427922"><ele>764.8333333333333</ele><time>2026-04-19T12:14:06.25Z</time></trkpt><trkpt lat="38.7456994" lon="16.3428837"><ele>764.0</ele><time>2026-04-19T12:14:07.249Z</time></trkpt><trkpt lat="38.7456866" lon="16.3429649"><ele>766.6666666666666</ele><time>2026-04-19T12:14:08.246Z</time></trkpt><trkpt lat="38.745609" lon="16.3431121"><ele>769.3333333333333</ele><time>2026-04-19T12:14:10.244Z</time></trkpt><trkpt lat="38.7455612" lon="16.3431898"><ele>772.0</ele><time>2026-04-19T12:14:11.25Z</time></trkpt><trkpt lat="38.7455322" lon="16.3432753"><ele>774.6666666666666</ele><time>2026-04-19T12:14:12.245Z</time></trkpt><trkpt lat="38.7455132" lon="16.3433703"><ele>777.3333333333334</ele><time>2026-04-19T12:14:13.25Z</time></trkpt><trkpt lat="38.7454829" lon="16.3434463"><ele>780.0</ele><time>2026-04-19T12:14:14.253Z</time></trkpt><trkpt lat="38.745422" lon="16.3435161"><ele>780.0</ele><time>2026-04-19T12:14:15.244Z</time></trkpt><trkpt lat="38.745365" lon="16.3435805"><ele>780.0</ele><time>2026-04-19T12:14:16.29Z</time></trkpt><trkpt lat="38.745316" lon="16.3436701"><ele>780.0</ele><time>2026-04-19T12:14:18.255Z</time></trkpt><trkpt lat="38.7452713" lon="16.3437682"><ele>780.0</ele><time>2026-04-19T12:14:20.255Z</time></trkpt><trkpt lat="38.7452409" lon="16.3439194"><ele>780.0</ele><time>2026-04-19T12:14:22.25Z</time></trkpt><trkpt lat="38.745226" lon="16.3440095"><ele>780.0</ele><time>2026-04-19T12:14:23.253Z</time></trkpt><trkpt lat="38.7451942" lon="16.3441339"><ele>777.25</ele><time>2026-04-19T12:14:25.247Z</time></trkpt><trkpt lat="38.7450963" lon="16.3442065"><ele>774.5</ele><time>2026-04-19T12:14:27.258Z</time></trkpt><trkpt lat="38.7450274" lon="16.3442184"><ele>771.75</ele><time>2026-04-19T12:14:28.254Z</time></trkpt><trkpt lat="38.7449628" lon="16.3442129"><ele>769.0</ele><time>2026-04-19T12:14:29.247Z</time></trkpt><trkpt lat="38.7461079" lon="16.3420558"><ele>769.0</ele><time>2026-04-19T12:13:59.244Z</time></trkpt><trkpt lat="38.7460497" lon="16.342165"><ele>769.0</ele><time>2026-04-19T12:14:00.258Z</time></trkpt><trkpt lat="38.7459863" lon="16.3422787"><ele>769.0</ele><time>2026-04-19T12:14:01.263Z</time></trkpt><trkpt lat="38.7459126" lon="16.3423992"><ele>769.0</ele><time>2026-04-19T12:14:02.264Z</time></trkpt><trkpt lat="38.7458346" lon="16.342506"><ele>769.0</ele><time>2026-04-19T12:14:03.253Z</time></trkpt><trkpt lat="38.7457675" lon="16.3426035"><ele>768.1666666666666</ele><time>2026-04-19T12:14:04.246Z</time></trkpt><trkpt lat="38.7457279" lon="16.3426962"><ele>767.3333333333333</ele><time>2026-04-19T12:14:05.236Z</time></trkpt><trkpt lat="38.7457112" lon="16.3427922"><ele>766.5</ele><time>2026-04-19T12:14:06.25Z</time></trkpt><trkpt lat="38.7456994" lon="16.3428837"><ele>765.6666666666666</ele><time>2026-04-19T12:14:07.249Z</time></trkpt><trkpt lat="38.7456866" lon="16.3429649"><ele>764.8333333333333</ele><time>2026-04-19T12:14:08.246Z</time></trkpt><trkpt lat="38.745609" lon="16.3431121"><ele>764.0</ele><time>2026-04-19T12:14:10.244Z</time></trkpt><trkpt lat="38.7455612" lon="16.3431898"><ele>766.6666666666666</ele><time>2026-04-19T12:14:11.25Z</time></trkpt><trkpt lat="38.7455322" lon="16.3432753"><ele>769.3333333333333</ele><time>2026-04-19T12:14:12.245Z</time></trkpt><trkpt lat="38.7455132" lon="16.3433703"><ele>772.0</ele><time>2026-04-19T12:14:13.25Z</time></trkpt><trkpt lat="38.7454829" lon="16.3434463"><ele>774.6666666666666</ele><time>2026-04-19T12:14:14.253Z</time></trkpt><trkpt lat="38.745422" lon="16.3435161"><ele>777.3333333333334</ele><time>2026-04-19T12:14:15.244Z</time></trkpt><trkpt lat="38.745365" lon="16.3435805"><ele>780.0</ele><time>2026-04-19T12:14:16.29Z</time></trkpt><trkpt lat="38.745316" lon="16.3436701"><ele>780.0</ele><time>2026-04-19T12:14:18.255Z</time></trkpt><trkpt lat="38.7452713" lon="16.3437682"><ele>780.0</ele><time>2026-04-19T12:14:20.255Z</time></trkpt><trkpt lat="38.7452409" lon="16.3439194"><ele>780.0</ele><time>2026-04-19T12:14:22.25Z</time></trkpt><trkpt lat="38.745226" lon="16.3440095"><ele>780.0</ele><time>2026-04-19T12:14:23.253Z</time></trkpt><trkpt lat="38.7451942" lon="16.3441339"><ele>780.0</ele><time>2026-04-19T12:14:25.247Z</time></trkpt><trkpt lat="38.7450963" lon="16.3442065"><ele>777.3333333333334</ele><time>2026-04-19T12:14:27.258Z</time></trkpt><trkpt lat="38.7450274" lon="16.3442184"><ele>774.6666666666666</ele><time>2026-04-19T12:14:28.254Z</time></trkpt><trkpt lat="38.7449628" lon="16.3442129"><ele>772.0</ele><time>2026-04-19T12:14:29.247Z</time></trkpt><trkpt lat="38.7448586" lon="16.3442297"><ele>769.3333333333333</ele><time>2026-04-19T12:14:31.265Z</time></trkpt><trkpt lat="38.7448056" lon="16.3442804"><ele>766.6666666666666</ele><time>2026-04-19T12:14:32.262Z</time></trkpt><trkpt lat="38.7447512" lon="16.3443587"><ele>764.0</ele><time>2026-04-19T12:14:33.25Z</time></trkpt><trkpt lat="38.7446966" lon="16.3444383"><ele>764.0</ele><time>2026-04-19T12:14:34.255Z</time></trkpt><trkpt lat="38.7446415" lon="16.344523"><ele>764.0</ele><time>2026-04-19T12:14:35.248Z</time></trkpt><trkpt lat="38.7445926" lon="16.3446012"><ele>764.0</ele><time>2026-04-19T12:14:36.254Z</time></trkpt><trkpt lat="38.7445527" lon="16.344683"><ele>764.0</ele><time>2026-04-19T12:14:37.248Z</time></trkpt><trkpt lat="38.7445017" lon="16.3447709"><ele>764.0</ele><time>2026-04-19T12:14:38.248Z</time></trkpt><trkpt lat="38.74444" lon="16.3448522"><ele>764.0</ele><time>2026-04-19T12:14:39.257Z</time></trkpt><trkpt lat="38.7443869" lon="16.3449216"><ele>764.5714285714286</ele><time>2026-04-19T12:14:40.255Z</time></trkpt><trkpt lat="38.7443366" lon="16.3449942"><ele>765.1428571428571</ele><time>2026-04-19T12:14:41.249Z</time></trkpt><trkpt lat="38.7442882" lon="16.3450581"><ele>765.7142857142857</ele><time>2026-04-19T12:14:42.256Z</time></trkpt><trkpt lat="38.7442463" lon="16.3451247"><ele>766.2857142857142</ele><time>2026-04-19T12:14:43.245Z</time></trkpt><trkpt lat="38.7442158" lon="16.3452071"><ele>766.8571428571429</ele><time>2026-04-19T12:14:44.253Z</time></trkpt><trkpt lat="38.74418" lon="16.3453089"><ele>767.4285714285713</ele><time>2026-04-19T12:14:45.247Z</time></trkpt><trkpt lat="38.7441484" lon="16.3453873"><ele>768.0</ele><time>2026-04-19T12:14:46.244Z</time></trkpt><trkpt lat="38.7440929" lon="16.3454472"><ele>768.0</ele><time>2026-04-19T12:14:47.246Z</time></trkpt><trkpt lat="38.7440144" lon="16.3454596"><ele>768.0</ele><time>2026-04-19T12:14:49.253Z</time></trkpt><trkpt lat="38.7439387" lon="16.345394"><ele>768.0</ele><time>2026-04-19T12:14:51.242Z</time></trkpt><trkpt lat="38.7438621" lon="16.345305"><ele>768.0</ele><time>2026-04-19T12:14:53.253Z</time></trkpt><trkpt lat="38.7438097" lon="16.3452519"><ele>768.0</ele><time>2026-04-19T12:14:54.243Z</time></trkpt><trkpt lat="38.7437603" lon="16.3451828"><ele>768.0</ele><time>2026-04-19T12:14:55.248Z</time></trkpt><trkpt lat="38.7437314" lon="16.3451028"><ele>768.0</ele><time>2026-04-19T12:14:56.244Z</time></trkpt><trkpt lat="38.7437391" lon="16.3450175"><ele>768.0</ele><time>2026-04-19T12:14:57.243Z</time></trkpt><trkpt lat="38.7437854" lon="16.3449305"><ele>768.0</ele><time>2026-04-19T12:14:59.254Z</time></trkpt><trkpt lat="38.7438425" lon="16.3447505"><ele>768.0</ele><time>2026-04-19T12:15:01.246Z</time></trkpt><trkpt lat="38.7438411" lon="16.344638"><ele>768.0</ele><time>2026-04-19T12:15:02.238Z</time></trkpt><trkpt lat="38.7438318" lon="16.3445335"><ele>767.5</ele><time>2026-04-19T12:15:03.265Z</time></trkpt><trkpt lat="38.7438041" lon="16.3444173"><ele>767.0</ele><time>2026-04-19T12:15:04.241Z</time></trkpt><trkpt lat="38.743768" lon="16.3442933"><ele>766.5</ele><time>2026-04-19T12:15:05.25Z</time></trkpt><trkpt lat="38.7437179" lon="16.3441888"><ele>766.0</ele><time>2026-04-19T12:15:06.242Z</time></trkpt><trkpt lat="38.7436793" lon="16.3440996"><ele>765.5</ele><time>2026-04-19T12:15:07.25Z</time></trkpt><trkpt lat="38.743645" lon="16.344015"><ele>765.0</ele><time>2026-04-19T12:15:08.282Z</time></trkpt><trkpt lat="38.7436004" lon="16.3438442"><ele>765.0000000000001</ele><time>2026-04-19T12:15:10.241Z</time></trkpt><trkpt lat="38.7436034" lon="16.3437457"><ele>765.0</ele><time>2026-04-19T12:15:11.243Z</time></trkpt><trkpt lat="38.7436149" lon="16.3436568"><ele>765.0</ele><time>2026-04-19T12:15:12.243Z</time></trkpt><trkpt lat="38.7436099" lon="16.3435607"><ele>765.0</ele><time>2026-04-19T12:15:13.252Z</time></trkpt><trkpt lat="38.7436021" lon="16.3434576"><ele>765.0</ele><time>2026-04-19T12:15:14.244Z</time></trkpt><trkpt lat="38.7436057" lon="16.3433747"><ele>765.0000000000001</ele><time>2026-04-19T12:15:15.246Z</time></trkpt><trkpt lat="38.7436034" lon="16.343289"><ele>765.0</ele><time>2026-04-19T12:15:16.254Z</time></trkpt><trkpt lat="38.7436049" lon="16.3431906"><ele>765.0</ele><time>2026-04-19T12:15:17.253Z</time></trkpt><trkpt lat="38.743595" lon="16.3430854"><ele>765.0</ele><time>2026-04-19T12:15:18.256Z</time></trkpt><trkpt lat="38.7435802" lon="16.3429736"><ele>765.0</ele><time>2026-04-19T12:15:19.251Z</time></trkpt><trkpt lat="38.7435702" lon="16.342862"><ele>765.0</ele><time>2026-04-19T12:15:20.249Z</time></trkpt><trkpt lat="38.7435628" lon="16.3427452"><ele>765.0</ele><time>2026-04-19T12:15:21.26Z</time></trkpt><trkpt lat="38.7435523" lon="16.342618"><ele>769.6</ele><time>2026-04-19T12:15:22.252Z</time></trkpt><trkpt lat="38.7435427" lon="16.3424962"><ele>774.2</ele><time>2026-04-19T12:15:23.255Z</time></trkpt><trkpt lat="38.7435296" lon="16.3423799"><ele>778.8</ele><time>2026-04-19T12:15:24.251Z</time></trkpt><trkpt lat="38.7435146" lon="16.3422515"><ele>783.4</ele><time>2026-04-19T12:15:25.254Z</time></trkpt><trkpt lat="38.7434992" lon="16.3421244"><ele>788.0</ele><time>2026-04-19T12:15:26.255Z</time></trkpt><trkpt lat="38.7434763" lon="16.3419876"><ele>788.0</ele><time>2026-04-19T12:15:27.254Z</time></trkpt><trkpt lat="38.7434561" lon="16.3418489"><ele>788.0</ele><time>2026-04-19T12:15:28.251Z</time></trkpt><trkpt lat="38.7434357" lon="16.341714"><ele>788.0</ele><time>2026-04-19T12:15:29.25Z</time></trkpt><trkpt lat="38.743407" lon="16.3415797"><ele>788.0</ele><time>2026-04-19T12:15:30.25Z</time></trkpt><trkpt lat="38.7433759" lon="16.3414305"><ele>788.0</ele><time>2026-04-19T12:15:31.249Z</time></trkpt><trkpt lat="38.7433435" lon="16.3412854"><ele>787.8</ele><time>2026-04-19T12:15:32.25Z</time></trkpt><trkpt lat="38.7433119" lon="16.3411505"><ele>787.5999999999999</ele><time>2026-04-19T12:15:33.247Z</time></trkpt><trkpt lat="38.7432847" lon="16.3410172"><ele>787.4000000000001</ele><time>2026-04-19T12:15:34.248Z</time></trkpt><trkpt lat="38.7432707" lon="16.3408826"><ele>787.2</ele><time>2026-04-19T12:15:35.248Z</time></trkpt><trkpt lat="38.7432661" lon="16.3407549"><ele>787.0</ele><time>2026-04-19T12:15:36.247Z</time></trkpt><trkpt lat="38.7432745" lon="16.3406379"><ele>785.9999999999999</ele><time>2026-04-19T12:15:37.253Z</time></trkpt><trkpt lat="38.7432972" lon="16.3405243"><ele>785.0</ele><time>2026-04-19T12:15:38.244Z</time></trkpt><trkpt lat="38.7433219" lon="16.3404197"><ele>784.0</ele><time>2026-04-19T12:15:39.252Z</time></trkpt><trkpt lat="38.7433439" lon="16.340338"><ele>783.0</ele><time>2026-04-19T12:15:40.263Z</time></trkpt><trkpt lat="38.7433292" lon="16.3402372"><ele>781.9999999999999</ele><time>2026-04-19T12:15:42.255Z</time></trkpt><trkpt lat="38.7432378" lon="16.3401969"><ele>781.0</ele><time>2026-04-19T12:15:44.252Z</time></trkpt><trkpt lat="38.7431207" lon="16.3401686"><ele>781.0</ele><time>2026-04-19T12:15:46.252Z</time></trkpt><trkpt lat="38.7430413" lon="16.3401463"><ele>781.0</ele><time>2026-04-19T12:15:47.255Z</time></trkpt><trkpt lat="38.7429706" lon="16.3400866"><ele>781.0</ele><time>2026-04-19T12:15:48.253Z</time></trkpt><trkpt lat="38.7428776" lon="16.3399979"><ele>781.0</ele><time>2026-04-19T12:15:49.255Z</time></trkpt><trkpt lat="38.7428004" lon="16.3398881"><ele>781.0</ele><time>2026-04-19T12:15:50.248Z</time></trkpt><trkpt lat="38.7427327" lon="16.3397754"><ele>781.5999999999999</ele><time>2026-04-19T12:15:51.249Z</time></trkpt><trkpt lat="38.7426771" lon="16.3396762"><ele>782.2</ele><time>2026-04-19T12:15:52.249Z</time></trkpt><trkpt lat="38.7426276" lon="16.3395934"><ele>782.8</ele><time>2026-04-19T12:15:53.247Z</time></trkpt><trkpt lat="38.7425657" lon="16.3395055"><ele>783.4000000000001</ele><time>2026-04-19T12:15:54.249Z</time></trkpt><trkpt lat="38.7424947" lon="16.339406"><ele>784.0</ele><time>2026-04-19T12:15:55.265Z</time></trkpt><trkpt lat="38.742423" lon="16.339294"><ele>783.9999999999999</ele><time>2026-04-19T12:15:56.256Z</time></trkpt><trkpt lat="38.7423563" lon="16.339198"><ele>784.0</ele><time>2026-04-19T12:15:57.249Z</time></trkpt><trkpt lat="38.7422975" lon="16.3391279"><ele>784.0</ele><time>2026-04-19T12:15:58.259Z</time></trkpt><trkpt lat="38.7422545" lon="16.339057"><ele>784.0</ele><time>2026-04-19T12:16:00.253Z</time></trkpt><trkpt lat="38.7421493" lon="16.3390063"><ele>783.9999999999999</ele><time>2026-04-19T12:16:11.262Z</time></trkpt><trkpt lat="38.7420742" lon="16.3389714"><ele>784.0</ele><time>2026-04-19T12:16:12.257Z</time></trkpt><trkpt lat="38.741981" lon="16.3389149"><ele>783.2</ele><time>2026-04-19T12:16:13.267Z</time></trkpt><trkpt lat="38.7418954" lon="16.3388569"><ele>782.4000000000001</ele><time>2026-04-19T12:16:14.263Z</time></trkpt><trkpt lat="38.7418041" lon="16.3388005"><ele>781.6</ele><time>2026-04-19T12:16:15.264Z</time></trkpt><trkpt lat="38.7417056" lon="16.338744"><ele>780.8</ele><time>2026-04-19T12:16:16.28Z</time></trkpt><trkpt lat="38.7416086" lon="16.3386971"><ele>780.0</ele><time>2026-04-19T12:16:17.248Z</time></trkpt><trkpt lat="38.7415033" lon="16.3386562"><ele>780.0</ele><time>2026-04-19T12:16:18.265Z</time></trkpt><trkpt lat="38.7413915" lon="16.3386097"><ele>780.0</ele><time>2026-04-19T12:16:19.26Z</time></trkpt><trkpt lat="38.7412963" lon="16.3385557"><ele>780.0</ele><time>2026-04-19T12:16:20.251Z</time></trkpt><trkpt lat="38.7412104" lon="16.3384915"><ele>780.0</ele><time>2026-04-19T12:16:21.247Z</time></trkpt><trkpt lat="38.7411162" lon="16.3384065"><ele>780.0</ele><time>2026-04-19T12:16:22.253Z</time></trkpt><trkpt lat="38.7410384" lon="16.3383101"><ele>778.75</ele><time>2026-04-19T12:16:23.249Z</time></trkpt><trkpt lat="38.7409661" lon="16.3381829"><ele>777.5</ele><time>2026-04-19T12:16:24.261Z</time></trkpt><trkpt lat="38.7409073" lon="16.3380619"><ele>776.25</ele><time>2026-04-19T12:16:25.255Z</time></trkpt><trkpt lat="38.7408421" lon="16.3379195"><ele>775.0</ele><time>2026-04-19T12:16:26.255Z</time></trkpt><trkpt lat="38.7407764" lon="16.3377858"><ele>775.0</ele><time>2026-04-19T12:16:27.257Z</time></trkpt><trkpt lat="38.7407031" lon="16.3376572"><ele>775.0</ele><time>2026-04-19T12:16:28.255Z</time></trkpt><trkpt lat="38.7406346" lon="16.3375498"><ele>775.0</ele><time>2026-04-19T12:16:29.244Z</time></trkpt><trkpt lat="38.7405572" lon="16.3374651"><ele>775.0</ele><time>2026-04-19T12:16:30.262Z</time></trkpt><trkpt lat="38.7404693" lon="16.3373996"><ele>775.0</ele><time>2026-04-19T12:16:31.256Z</time></trkpt><trkpt lat="38.7403668" lon="16.337351"><ele>775.0</ele><time>2026-04-19T12:16:32.245Z</time></trkpt><trkpt lat="38.7402499" lon="16.3373088"><ele>775.0</ele><time>2026-04-19T12:16:33.253Z</time></trkpt><trkpt lat="38.7401379" lon="16.3372653"><ele>775.0</ele><time>2026-04-19T12:16:34.249Z</time></trkpt><trkpt lat="38.7400276" lon="16.3372026"><ele>775.0</ele><time>2026-04-19T12:16:35.252Z</time></trkpt><trkpt lat="38.7399305" lon="16.337127"><ele>774.4</ele><time>2026-04-19T12:16:36.254Z</time></trkpt><trkpt lat="38.7398195" lon="16.3370277"><ele>773.8</ele><time>2026-04-19T12:16:37.244Z</time></trkpt><trkpt lat="38.7397394" lon="16.3369297"><ele>773.2</ele><time>2026-04-19T12:16:38.253Z</time></trkpt><trkpt lat="38.7396809" lon="16.3368315"><ele>772.6</ele><time>2026-04-19T12:16:39.25Z</time></trkpt><trkpt lat="38.7396512" lon="16.336726"><ele>772.0</ele><time>2026-04-19T12:16:40.257Z</time></trkpt><trkpt lat="38.7396296" lon="16.3366239"><ele>771.9999999999999</ele><time>2026-04-19T12:16:41.261Z</time></trkpt><trkpt lat="38.739617" lon="16.3365217"><ele>772.0</ele><time>2026-04-19T12:16:42.247Z</time></trkpt><trkpt lat="38.739603" lon="16.3364217"><ele>772.0</ele><time>2026-04-19T12:16:43.242Z</time></trkpt><trkpt lat="38.7395639" lon="16.3363177"><ele>772.0</ele><time>2026-04-19T12:16:44.256Z</time></trkpt><trkpt lat="38.739509" lon="16.3362369"><ele>771.9999999999999</ele><time>2026-04-19T12:16:45.26Z</time></trkpt><trkpt lat="38.7394448" lon="16.3361854"><ele>772.0</ele><time>2026-04-19T12:16:46.247Z</time></trkpt><trkpt lat="38.7393832" lon="16.3361191"><ele>771.4000000000001</ele><time>2026-04-19T12:16:47.255Z</time></trkpt><trkpt lat="38.739329" lon="16.3360299"><ele>770.8000000000001</ele><time>2026-04-19T12:16:48.254Z</time></trkpt><trkpt lat="38.7392958" lon="16.3359231"><ele>770.2</ele><time>2026-04-19T12:16:49.242Z</time></trkpt><trkpt lat="38.7392727" lon="16.335789"><ele>769.6</ele><time>2026-04-19T12:16:50.252Z</time></trkpt><trkpt lat="38.7392559" lon="16.3356781"><ele>769.0</ele><time>2026-04-19T12:16:51.25Z</time></trkpt><trkpt lat="38.7392153" lon="16.3355406"><ele>764.0</ele><time>2026-04-19T12:16:52.239Z</time></trkpt><trkpt lat="38.7391605" lon="16.335415"><ele>759.0</ele><time>2026-04-19T12:16:53.253Z</time></trkpt><trkpt lat="38.7390982" lon="16.335287"><ele>754.0</ele><time>2026-04-19T12:16:54.243Z</time></trkpt><trkpt lat="38.7390152" lon="16.3351838"><ele>749.0</ele><time>2026-04-19T12:16:55.245Z</time></trkpt><trkpt lat="38.7389025" lon="16.3351036"><ele>749.0</ele><time>2026-04-19T12:16:56.256Z</time></trkpt><trkpt lat="38.7387864" lon="16.3350542"><ele>749.0</ele><time>2026-04-19T12:16:57.24Z</time></trkpt><trkpt lat="38.73869" lon="16.3349895"><ele>749.0</ele><time>2026-04-19T12:16:58.243Z</time></trkpt><trkpt lat="38.7386142" lon="16.3348966"><ele>749.0</ele><time>2026-04-19T12:16:59.247Z</time></trkpt><trkpt lat="38.7385194" lon="16.3348175"><ele>749.0</ele><time>2026-04-19T12:17:00.256Z</time></trkpt><trkpt lat="38.7384166" lon="16.334745"><ele>746.2</ele><time>2026-04-19T12:17:01.242Z</time></trkpt><trkpt lat="38.7383274" lon="16.334679"><ele>743.4000000000001</ele><time>2026-04-19T12:17:02.246Z</time></trkpt><trkpt lat="38.7382534" lon="16.3346193"><ele>740.6</ele><time>2026-04-19T12:17:03.248Z</time></trkpt><trkpt lat="38.7382042" lon="16.3345355"><ele>737.8</ele><time>2026-04-19T12:17:04.237Z</time></trkpt><trkpt lat="38.7381758" lon="16.3344422"><ele>735.0</ele><time>2026-04-19T12:17:05.252Z</time></trkpt><trkpt lat="38.7381406" lon="16.3343159"><ele>735.0</ele><time>2026-04-19T12:17:06.25Z</time></trkpt><trkpt lat="38.7381081" lon="16.3342241"><ele>735.0</ele><time>2026-04-19T12:17:07.24Z</time></trkpt><trkpt lat="38.7380481" lon="16.3341343"><ele>735.0</ele><time>2026-04-19T12:17:08.251Z</time></trkpt><trkpt lat="38.7379823" lon="16.3340498"><ele>735.0</ele><time>2026-04-19T12:17:09.247Z</time></trkpt><trkpt lat="38.7379081" lon="16.3339514"><ele>735.0</ele><time>2026-04-19T12:17:10.24Z</time></trkpt><trkpt lat="38.7378241" lon="16.3338448"><ele>734.0</ele><time>2026-04-19T12:17:11.253Z</time></trkpt><trkpt lat="38.7377538" lon="16.3337491"><ele>733.0</ele><time>2026-04-19T12:17:12.251Z</time></trkpt><trkpt lat="38.7376755" lon="16.3336559"><ele>732.0</ele><time>2026-04-19T12:17:13.241Z</time></trkpt><trkpt lat="38.7375878" lon="16.3335964"><ele>731.0</ele><time>2026-04-19T12:17:14.246Z</time></trkpt><trkpt lat="38.7374953" lon="16.3335687"><ele>730.0</ele><time>2026-04-19T12:17:15.241Z</time></trkpt><trkpt lat="38.737386" lon="16.3335444"><ele>730.0</ele><time>2026-04-19T12:17:16.247Z</time></trkpt><trkpt lat="38.7372888" lon="16.3335044"><ele>730.0</ele><time>2026-04-19T12:17:17.25Z</time></trkpt><trkpt lat="38.7371949" lon="16.3334485"><ele>730.0</ele><time>2026-04-19T12:17:18.26Z</time></trkpt><trkpt lat="38.7370859" lon="16.3333794"><ele>730.0</ele><time>2026-04-19T12:17:19.249Z</time></trkpt><trkpt lat="38.7369765" lon="16.3333065"><ele>729.6</ele><time>2026-04-19T12:17:20.259Z</time></trkpt><trkpt lat="38.7368616" lon="16.3332476"><ele>729.2</ele><time>2026-04-19T12:17:21.246Z</time></trkpt><trkpt lat="38.7367388" lon="16.3331868"><ele>728.8</ele><time>2026-04-19T12:17:22.252Z</time></trkpt><trkpt lat="38.7366389" lon="16.3331403"><ele>728.4</ele><time>2026-04-19T12:17:23.262Z</time></trkpt><trkpt lat="38.7365576" lon="16.3331354"><ele>728.0</ele><time>2026-04-19T12:17:24.246Z</time></trkpt><trkpt lat="38.7364691" lon="16.3331604"><ele>728.0</ele><time>2026-04-19T12:17:25.25Z</time></trkpt><trkpt lat="38.736378" lon="16.3332082"><ele>728.0</ele><time>2026-04-19T12:17:26.266Z</time></trkpt><trkpt lat="38.7363039" lon="16.3332447"><ele>728.0</ele><time>2026-04-19T12:17:27.243Z</time></trkpt><trkpt lat="38.7362115" lon="16.3332382"><ele>728.0</ele><time>2026-04-19T12:17:29.248Z</time></trkpt><trkpt lat="38.7361551" lon="16.3331801"><ele>728.0</ele><time>2026-04-19T12:17:30.246Z</time></trkpt><trkpt lat="38.7361564" lon="16.3330735"><ele>728.0</ele><time>2026-04-19T12:17:32.252Z</time></trkpt><trkpt lat="38.7361077" lon="16.3330056"><ele>727.4</ele><time>2026-04-19T12:17:33.25Z</time></trkpt><trkpt lat="38.7360198" lon="16.3329082"><ele>726.8</ele><time>2026-04-19T12:17:35.247Z</time></trkpt><trkpt lat="38.7360137" lon="16.3328213"><ele>726.2</ele><time>2026-04-19T12:17:36.247Z</time></trkpt><trkpt lat="38.7360408" lon="16.3327208"><ele>725.6</ele><time>2026-04-19T12:17:37.253Z</time></trkpt><trkpt lat="38.7360859" lon="16.332621"><ele>725.0</ele><time>2026-04-19T12:17:38.255Z</time></trkpt><trkpt lat="38.7361279" lon="16.3325006"><ele>721.8</ele><time>2026-04-19T12:17:39.245Z</time></trkpt><trkpt lat="38.73618" lon="16.3323718"><ele>718.6</ele><time>2026-04-19T12:17:40.253Z</time></trkpt><trkpt lat="38.7362355" lon="16.3322473"><ele>715.4000000000001</ele><time>2026-04-19T12:17:41.254Z</time></trkpt><trkpt lat="38.7362861" lon="16.332122"><ele>712.2</ele><time>2026-04-19T12:17:42.244Z</time></trkpt><trkpt lat="38.7363332" lon="16.3319949"><ele>709.0</ele><time>2026-04-19T12:17:43.256Z</time></trkpt><trkpt lat="38.7363668" lon="16.3318804"><ele>706.8333333333334</ele><time>2026-04-19T12:17:44.253Z</time></trkpt><trkpt lat="38.7363921" lon="16.3317841"><ele>704.6666666666667</ele><time>2026-04-19T12:17:45.269Z</time></trkpt><trkpt lat="38.7364311" lon="16.3317126"><ele>702.5</ele><time>2026-04-19T12:17:46.256Z</time></trkpt><trkpt lat="38.736507" lon="16.331671"><ele>700.3333333333334</ele><time>2026-04-19T12:17:48.254Z</time></trkpt><trkpt lat="38.7366043" lon="16.331628"><ele>698.1666666666666</ele><time>2026-04-19T12:17:50.248Z</time></trkpt><trkpt lat="38.7366729" lon="16.3315299"><ele>696.0</ele><time>2026-04-19T12:17:52.257Z</time></trkpt><trkpt lat="38.7367006" lon="16.3313669"><ele>694.5</ele><time>2026-04-19T12:17:54.256Z</time></trkpt><trkpt lat="38.736702" lon="16.3312558"><ele>693.0</ele><time>2026-04-19T12:17:55.253Z</time></trkpt><trkpt lat="38.7366849" lon="16.3311441"><ele>691.5</ele><time>2026-04-19T12:17:56.266Z</time></trkpt><trkpt lat="38.7366616" lon="16.3310423"><ele>690.0</ele><time>2026-04-19T12:17:57.249Z</time></trkpt><trkpt lat="38.7366254" lon="16.3309305"><ele>688.5</ele><time>2026-04-19T12:17:58.248Z</time></trkpt><trkpt lat="38.7365642" lon="16.3308526"><ele>687.0</ele><time>2026-04-19T12:17:59.258Z</time></trkpt><trkpt lat="38.7364976" lon="16.3307549"><ele>687.0</ele><time>2026-04-19T12:18:00.264Z</time></trkpt><trkpt lat="38.7364187" lon="16.3306834"><ele>687.0</ele><time>2026-04-19T12:18:01.266Z</time></trkpt><trkpt lat="38.7363214" lon="16.3306153"><ele>687.0</ele><time>2026-04-19T12:18:02.254Z</time></trkpt><trkpt lat="38.7362121" lon="16.3305286"><ele>687.0</ele><time>2026-04-19T12:18:03.251Z</time></trkpt><trkpt lat="38.7361266" lon="16.3304292"><ele>686.6</ele><time>2026-04-19T12:18:04.257Z</time></trkpt><trkpt lat="38.7360647" lon="16.3303211"><ele>686.2</ele><time>2026-04-19T12:18:05.253Z</time></trkpt><trkpt lat="38.736008" lon="16.3302189"><ele>685.8</ele><time>2026-04-19T12:18:06.243Z</time></trkpt><trkpt lat="38.7359624" lon="16.3301243"><ele>685.4</ele><time>2026-04-19T12:18:07.269Z</time></trkpt><trkpt lat="38.7359089" lon="16.3300393"><ele>685.0</ele><time>2026-04-19T12:18:08.261Z</time></trkpt><trkpt lat="38.7358445" lon="16.3299632"><ele>685.0</ele><time>2026-04-19T12:18:09.249Z</time></trkpt><trkpt lat="38.7357729" lon="16.3298927"><ele>685.0</ele><time>2026-04-19T12:18:10.259Z</time></trkpt><trkpt lat="38.735699" lon="16.329825"><ele>685.0</ele><time>2026-04-19T12:18:11.262Z</time></trkpt><trkpt lat="38.7356242" lon="16.3297557"><ele>685.0</ele><time>2026-04-19T12:18:12.246Z</time></trkpt><trkpt lat="38.7355496" lon="16.3296901"><ele>685.0</ele><time>2026-04-19T12:18:13.258Z</time></trkpt><trkpt lat="38.7354687" lon="16.3296222"><ele>685.6</ele><time>2026-04-19T12:18:14.26Z</time></trkpt><trkpt lat="38.7353893" lon="16.3295462"><ele>686.2</ele><time>2026-04-19T12:18:15.264Z</time></trkpt><trkpt lat="38.7353109" lon="16.3294696"><ele>686.8</ele><time>2026-04-19T12:18:16.291Z</time></trkpt><trkpt lat="38.7352354" lon="16.3293938"><ele>687.4</ele><time>2026-04-19T12:18:17.268Z</time></trkpt><trkpt lat="38.7351589" lon="16.3293191"><ele>688.0</ele><time>2026-04-19T12:18:18.254Z</time></trkpt><trkpt lat="38.7350716" lon="16.3292448"><ele>688.0</ele><time>2026-04-19T12:18:19.257Z</time></trkpt><trkpt lat="38.734976" lon="16.3291766"><ele>688.0</ele><time>2026-04-19T12:18:20.263Z</time></trkpt><trkpt lat="38.7348801" lon="16.3291043"><ele>688.0</ele><time>2026-04-19T12:18:21.245Z</time></trkpt><trkpt lat="38.7347898" lon="16.3290197"><ele>688.0</ele><time>2026-04-19T12:18:22.257Z</time></trkpt><trkpt lat="38.734704" lon="16.3289247"><ele>688.0</ele><time>2026-04-19T12:18:23.258Z</time></trkpt><trkpt lat="38.7346187" lon="16.3288284"><ele>687.5</ele><time>2026-04-19T12:18:24.257Z</time></trkpt><trkpt lat="38.7345399" lon="16.328722"><ele>687.0</ele><time>2026-04-19T12:18:25.254Z</time></trkpt><trkpt lat="38.7344612" lon="16.3286145"><ele>686.5</ele><time>2026-04-19T12:18:26.254Z</time></trkpt><trkpt lat="38.7343762" lon="16.3285074"><ele>686.0</ele><time>2026-04-19T12:18:27.264Z</time></trkpt><trkpt lat="38.7342964" lon="16.3284076"><ele>686.0</ele><time>2026-04-19T12:18:28.249Z</time></trkpt><trkpt lat="38.7342185" lon="16.3283302"><ele>686.0</ele><time>2026-04-19T12:18:29.245Z</time></trkpt><trkpt lat="38.7341324" lon="16.3282727"><ele>686.0</ele><time>2026-04-19T12:18:30.244Z</time></trkpt><trkpt lat="38.7340348" lon="16.32822"><ele>686.0</ele><time>2026-04-19T12:18:31.243Z</time></trkpt><trkpt lat="38.7339263" lon="16.3281804"><ele>686.0</ele><time>2026-04-19T12:18:32.25Z</time></trkpt><trkpt lat="38.733809" lon="16.3281526"><ele>686.0</ele><time>2026-04-19T12:18:33.243Z</time></trkpt><trkpt lat="38.7336879" lon="16.3281199"><ele>686.0</ele><time>2026-04-19T12:18:34.242Z</time></trkpt><trkpt lat="38.733564" lon="16.3280881"><ele>686.0</ele><time>2026-04-19T12:18:35.257Z</time></trkpt><trkpt lat="38.7334416" lon="16.3280496"><ele>686.0</ele><time>2026-04-19T12:18:36.25Z</time></trkpt><trkpt lat="38.7333214" lon="16.3280114"><ele>684.5</ele><time>2026-04-19T12:18:37.249Z</time></trkpt><trkpt lat="38.7332031" lon="16.3279701"><ele>683.0</ele><time>2026-04-19T12:18:38.256Z</time></trkpt><trkpt lat="38.7330797" lon="16.3279386"><ele>681.5</ele><time>2026-04-19T12:18:39.247Z</time></trkpt><trkpt lat="38.7329527" lon="16.3279218"><ele>680.0</ele><time>2026-04-19T12:18:40.25Z</time></trkpt><trkpt lat="38.7328265" lon="16.327912"><ele>680.0</ele><time>2026-04-19T12:18:41.255Z</time></trkpt><trkpt lat="38.7326946" lon="16.3278908"><ele>680.0</ele><time>2026-04-19T12:18:42.265Z</time></trkpt><trkpt lat="38.7325654" lon="16.3278689"><ele>680.0</ele><time>2026-04-19T12:18:43.261Z</time></trkpt><trkpt lat="38.7324397" lon="16.3278481"><ele>680.0</ele><time>2026-04-19T12:18:44.254Z</time></trkpt><trkpt lat="38.7323274" lon="16.3278343"><ele>680.0</ele><time>2026-04-19T12:18:45.255Z</time></trkpt><trkpt lat="38.7322211" lon="16.3278306"><ele>680.0</ele><time>2026-04-19T12:18:46.261Z</time></trkpt><trkpt lat="38.7321229" lon="16.3278259"><ele>680.0</ele><time>2026-04-19T12:18:47.26Z</time></trkpt><trkpt lat="38.7320489" lon="16.3278203"><ele>680.0</ele><time>2026-04-19T12:18:48.251Z</time></trkpt><trkpt lat="38.7319487" lon="16.327785"><ele>680.0</ele><time>2026-04-19T12:18:50.25Z</time></trkpt><trkpt lat="38.7319058" lon="16.3277204"><ele>680.0</ele><time>2026-04-19T12:18:51.248Z</time></trkpt><trkpt lat="38.7318723" lon="16.3276179"><ele>682.25</ele><time>2026-04-19T12:18:52.254Z</time></trkpt><trkpt lat="38.7318461" lon="16.3274972"><ele>684.5</ele><time>2026-04-19T12:18:53.254Z</time></trkpt><trkpt lat="38.7318208" lon="16.3273667"><ele>686.75</ele><time>2026-04-19T12:18:54.249Z</time></trkpt><trkpt lat="38.7317989" lon="16.3272068"><ele>689.0</ele><time>2026-04-19T12:18:55.269Z</time></trkpt><trkpt lat="38.731774" lon="16.3270521"><ele>689.0</ele><time>2026-04-19T12:18:56.255Z</time></trkpt><trkpt lat="38.7317505" lon="16.3268992"><ele>689.0</ele><time>2026-04-19T12:18:57.253Z</time></trkpt><trkpt lat="38.7317337" lon="16.326746"><ele>689.0</ele><time>2026-04-19T12:18:58.246Z</time></trkpt><trkpt lat="38.7317225" lon="16.3265951"><ele>689.0</ele><time>2026-04-19T12:18:59.257Z</time></trkpt><trkpt lat="38.7317104" lon="16.3264448"><ele>687.0</ele><time>2026-04-19T12:19:00.256Z</time></trkpt><trkpt lat="38.7316931" lon="16.3263039"><ele>685.0</ele><time>2026-04-19T12:19:01.251Z</time></trkpt><trkpt lat="38.7316659" lon="16.3261689"><ele>683.0</ele><time>2026-04-19T12:19:02.261Z</time></trkpt><trkpt lat="38.7316286" lon="16.3260416"><ele>681.0</ele><time>2026-04-19T12:19:03.249Z</time></trkpt><trkpt lat="38.7315839" lon="16.3259172"><ele>679.0</ele><time>2026-04-19T12:19:04.25Z</time></trkpt><trkpt lat="38.7315298" lon="16.325794"><ele>679.0</ele><time>2026-04-19T12:19:05.261Z</time></trkpt><trkpt lat="38.7314601" lon="16.3256801"><ele>679.0</ele><time>2026-04-19T12:19:06.261Z</time></trkpt><trkpt lat="38.7313821" lon="16.3255756"><ele>679.0</ele><time>2026-04-19T12:19:07.247Z</time></trkpt><trkpt lat="38.7313048" lon="16.3254747"><ele>679.0</ele><time>2026-04-19T12:19:08.25Z</time></trkpt><trkpt lat="38.7312333" lon="16.3253742"><ele>679.0</ele><time>2026-04-19T12:19:09.255Z</time></trkpt><trkpt lat="38.7311613" lon="16.3252764"><ele>679.0</ele><time>2026-04-19T12:19:10.243Z</time></trkpt><trkpt lat="38.7310928" lon="16.3251687"><ele>679.0</ele><time>2026-04-19T12:19:11.261Z</time></trkpt><trkpt lat="38.731015" lon="16.3250604"><ele>679.0</ele><time>2026-04-19T12:19:12.255Z</time></trkpt><trkpt lat="38.7309297" lon="16.3249584"><ele>679.0</ele><time>2026-04-19T12:19:13.252Z</time></trkpt><trkpt lat="38.7308429" lon="16.3248682"><ele>679.0</ele><time>2026-04-19T12:19:14.264Z</time></trkpt><trkpt lat="38.7307529" lon="16.3247948"><ele>679.0</ele><time>2026-04-19T12:19:15.258Z</time></trkpt><trkpt lat="38.7306584" lon="16.3247325"><ele>679.0</ele><time>2026-04-19T12:19:16.245Z</time></trkpt><trkpt lat="38.7305502" lon="16.3246695"><ele>679.0</ele><time>2026-04-19T12:19:17.249Z</time></trkpt><trkpt lat="38.7304302" lon="16.3246123"><ele>677.25</ele><time>2026-04-19T12:19:18.265Z</time></trkpt><trkpt lat="38.7302996" lon="16.3245654"><ele>675.5</ele><time>2026-04-19T12:19:19.25Z</time></trkpt><trkpt lat="38.7301627" lon="16.3245165"><ele>673.75</ele><time>2026-04-19T12:19:20.247Z</time></trkpt><trkpt lat="38.7300262" lon="16.3244687"><ele>672.0</ele><time>2026-04-19T12:19:21.248Z</time></trkpt><trkpt lat="38.7299023" lon="16.3244341"><ele>672.0</ele><time>2026-04-19T12:19:22.241Z</time></trkpt><trkpt lat="38.7297881" lon="16.3244009"><ele>672.0</ele><time>2026-04-19T12:19:23.249Z</time></trkpt><trkpt lat="38.7297001" lon="16.3243694"><ele>672.0</ele><time>2026-04-19T12:19:24.26Z</time></trkpt><trkpt lat="38.7296153" lon="16.3243351"><ele>672.0</ele><time>2026-04-19T12:19:25.246Z</time></trkpt><trkpt lat="38.7295332" lon="16.3242722"><ele>672.0</ele><time>2026-04-19T12:19:26.255Z</time></trkpt><trkpt lat="38.7294391" lon="16.3241748"><ele>673.5</ele><time>2026-04-19T12:19:27.255Z</time></trkpt><trkpt lat="38.7293475" lon="16.3240727"><ele>675.0</ele><time>2026-04-19T12:19:28.249Z</time></trkpt><trkpt lat="38.7292583" lon="16.3239827"><ele>676.5</ele><time>2026-04-19T12:19:29.267Z</time></trkpt><trkpt lat="38.7291584" lon="16.3239197"><ele>678.0</ele><time>2026-04-19T12:19:30.256Z</time></trkpt><trkpt lat="38.7290587" lon="16.3238578"><ele>675.0</ele><time>2026-04-19T12:19:31.25Z</time></trkpt><trkpt lat="38.7289546" lon="16.3238133"><ele>672.0</ele><time>2026-04-19T12:19:32.25Z</time></trkpt><trkpt lat="38.7288288" lon="16.3238045"><ele>669.0</ele><time>2026-04-19T12:19:33.252Z</time></trkpt><trkpt lat="38.7287025" lon="16.3238075"><ele>666.0</ele><time>2026-04-19T12:19:34.244Z</time></trkpt><trkpt lat="38.7285741" lon="16.3238095"><ele>667.5</ele><time>2026-04-19T12:19:35.258Z</time></trkpt><trkpt lat="38.7284446" lon="16.3238149"><ele>669.0</ele><time>2026-04-19T12:19:36.255Z</time></trkpt><trkpt lat="38.7283217" lon="16.3238382"><ele>670.5</ele><time>2026-04-19T12:19:37.256Z</time></trkpt><trkpt lat="38.7282031" lon="16.3238628"><ele>672.0</ele><time>2026-04-19T12:19:38.259Z</time></trkpt><trkpt lat="38.7280918" lon="16.323893"><ele>672.0</ele><time>2026-04-19T12:19:39.269Z</time></trkpt><trkpt lat="38.7279945" lon="16.3238951"><ele>672.0</ele><time>2026-04-19T12:19:40.255Z</time></trkpt><trkpt lat="38.7279059" lon="16.3238745"><ele>672.0</ele><time>2026-04-19T12:19:41.253Z</time></trkpt><trkpt lat="38.7278282" lon="16.3238048"><ele>672.0</ele><time>2026-04-19T12:19:42.262Z</time></trkpt><trkpt lat="38.7277857" lon="16.3236999"><ele>672.0</ele><time>2026-04-19T12:19:43.251Z</time></trkpt><trkpt lat="38.7277843" lon="16.3235669"><ele>672.0</ele><time>2026-04-19T12:19:44.261Z</time></trkpt><trkpt lat="38.7277536" lon="16.3234063"><ele>672.0</ele><time>2026-04-19T12:19:45.262Z</time></trkpt><trkpt lat="38.7277165" lon="16.3232317"><ele>672.0</ele><time>2026-04-19T12:19:46.25Z</time></trkpt><trkpt lat="38.7276712" lon="16.3230733"><ele>672.0</ele><time>2026-04-19T12:19:47.246Z</time></trkpt><trkpt lat="38.7276372" lon="16.3229139"><ele>670.8</ele><time>2026-04-19T12:19:48.269Z</time></trkpt><trkpt lat="38.7276133" lon="16.3227681"><ele>669.6</ele><time>2026-04-19T12:19:49.255Z</time></trkpt><trkpt lat="38.7276008" lon="16.3226182"><ele>668.4</ele><time>2026-04-19T12:19:50.245Z</time></trkpt><trkpt lat="38.7275964" lon="16.3224854"><ele>667.1999999999999</ele><time>2026-04-19T12:19:51.257Z</time></trkpt><trkpt lat="38.7275993" lon="16.3223588"><ele>666.0</ele><time>2026-04-19T12:19:52.248Z</time></trkpt><trkpt lat="38.7276185" lon="16.3222465"><ele>664.8333333333334</ele><time>2026-04-19T12:19:53.24Z</time></trkpt><trkpt lat="38.7276415" lon="16.3221551"><ele>663.6666666666666</ele><time>2026-04-19T12:19:54.257Z</time></trkpt><trkpt lat="38.7276991" lon="16.322093"><ele>662.5</ele><time>2026-04-19T12:19:55.253Z</time></trkpt><trkpt lat="38.7277553" lon="16.322026"><ele>661.3333333333333</ele><time>2026-04-19T12:19:56.246Z</time></trkpt><trkpt lat="38.727831" lon="16.3219603"><ele>660.1666666666666</ele><time>2026-04-19T12:19:57.251Z</time></trkpt><trkpt lat="38.7279202" lon="16.3218839"><ele>659.0</ele><time>2026-04-19T12:19:58.256Z</time></trkpt><trkpt lat="38.7280238" lon="16.3218076"><ele>659.0</ele><time>2026-04-19T12:19:59.246Z</time></trkpt><trkpt lat="38.7281272" lon="16.3217266"><ele>659.0</ele><time>2026-04-19T12:20:00.242Z</time></trkpt><trkpt lat="38.7282156" lon="16.3216523"><ele>659.0</ele><time>2026-04-19T12:20:01.247Z</time></trkpt><trkpt lat="38.7282835" lon="16.3215774"><ele>659.0</ele><time>2026-04-19T12:20:02.24Z</time></trkpt><trkpt lat="38.7283059" lon="16.321499"><ele>659.0</ele><time>2026-04-19T12:20:03.247Z</time></trkpt><trkpt lat="38.7282674" lon="16.3213556"><ele>656.2</ele><time>2026-04-19T12:20:05.248Z</time></trkpt><trkpt lat="38.7282059" lon="16.3213061"><ele>653.4000000000001</ele><time>2026-04-19T12:20:06.255Z</time></trkpt><trkpt lat="38.7281227" lon="16.3212561"><ele>650.6</ele><time>2026-04-19T12:20:07.248Z</time></trkpt><trkpt lat="38.728026" lon="16.3212004"><ele>647.8</ele><time>2026-04-19T12:20:08.239Z</time></trkpt><trkpt lat="38.7279239" lon="16.3211324"><ele>645.0</ele><time>2026-04-19T12:20:09.254Z</time></trkpt><trkpt lat="38.7278247" lon="16.3210648"><ele>645.0</ele><time>2026-04-19T12:20:10.25Z</time></trkpt><trkpt lat="38.7277389" lon="16.3209738"><ele>645.0</ele><time>2026-04-19T12:20:11.25Z</time></trkpt><trkpt lat="38.7276505" lon="16.3208954"><ele>645.0</ele><time>2026-04-19T12:20:12.253Z</time></trkpt><trkpt lat="38.7275605" lon="16.320838"><ele>645.0</ele><time>2026-04-19T12:20:13.249Z</time></trkpt><trkpt lat="38.7274829" lon="16.3207781"><ele>645.0</ele><time>2026-04-19T12:20:14.244Z</time></trkpt><trkpt lat="38.7274114" lon="16.3207237"><ele>645.0</ele><time>2026-04-19T12:20:15.243Z</time></trkpt><trkpt lat="38.7273636" lon="16.3206435"><ele>645.0</ele><time>2026-04-19T12:20:16.251Z</time></trkpt><trkpt lat="38.7273403" lon="16.3205668"><ele>645.0</ele><time>2026-04-19T12:20:17.248Z</time></trkpt><trkpt lat="38.7273376" lon="16.3204735"><ele>645.0</ele><time>2026-04-19T12:20:19.251Z</time></trkpt><trkpt lat="38.727379" lon="16.3204054"><ele>645.0</ele><time>2026-04-19T12:20:21.247Z</time></trkpt><trkpt lat="38.7274409" lon="16.3203289"><ele>645.0</ele><time>2026-04-19T12:20:23.251Z</time></trkpt><trkpt lat="38.7275159" lon="16.3202312"><ele>645.25</ele><time>2026-04-19T12:20:25.257Z</time></trkpt><trkpt lat="38.7276054" lon="16.3200737"><ele>645.5</ele><time>2026-04-19T12:20:27.252Z</time></trkpt><trkpt lat="38.727624" lon="16.3199381"><ele>645.75</ele><time>2026-04-19T12:20:28.258Z</time></trkpt><trkpt lat="38.7276438" lon="16.3198005"><ele>646.0</ele><time>2026-04-19T12:20:29.245Z</time></trkpt><trkpt lat="38.7276407" lon="16.3196647"><ele>646.75</ele><time>2026-04-19T12:20:30.252Z</time></trkpt><trkpt lat="38.7276354" lon="16.3195197"><ele>647.5</ele><time>2026-04-19T12:20:31.259Z</time></trkpt><trkpt lat="38.7276212" lon="16.3193571"><ele>648.25</ele><time>2026-04-19T12:20:32.247Z</time></trkpt><trkpt lat="38.7275976" lon="16.3191956"><ele>649.0</ele><time>2026-04-19T12:20:33.255Z</time></trkpt><trkpt lat="38.727578" lon="16.3190491"><ele>649.0</ele><time>2026-04-19T12:20:34.253Z</time></trkpt><trkpt lat="38.7275508" lon="16.3189248"><ele>649.0</ele><time>2026-04-19T12:20:35.267Z</time></trkpt><trkpt lat="38.7275246" lon="16.318827"><ele>649.0</ele><time>2026-04-19T12:20:36.253Z</time></trkpt><trkpt lat="38.7274977" lon="16.3187472"><ele>649.0</ele><time>2026-04-19T12:20:37.247Z</time></trkpt><trkpt lat="38.7274671" lon="16.3186723"><ele>649.0</ele><time>2026-04-19T12:20:38.259Z</time></trkpt><trkpt lat="38.7274328" lon="16.3186019"><ele>649.0</ele><time>2026-04-19T12:20:39.254Z</time></trkpt><trkpt lat="38.7273548" lon="16.3184724"><ele>648.6666666666667</ele><time>2026-04-19T12:20:41.259Z</time></trkpt><trkpt lat="38.7273123" lon="16.3184031"><ele>648.3333333333334</ele><time>2026-04-19T12:20:42.25Z</time></trkpt><trkpt lat="38.7272519" lon="16.3183278"><ele>648.0</ele><time>2026-04-19T12:20:43.263Z</time></trkpt><trkpt lat="38.727188" lon="16.3182516"><ele>647.6666666666666</ele><time>2026-04-19T12:20:44.263Z</time></trkpt><trkpt lat="38.7271206" lon="16.3181709"><ele>647.3333333333333</ele><time>2026-04-19T12:20:45.247Z</time></trkpt><trkpt lat="38.7270537" lon="16.3180916"><ele>647.0</ele><time>2026-04-19T12:20:46.248Z</time></trkpt><trkpt lat="38.7269899" lon="16.3180185"><ele>648.8</ele><time>2026-04-19T12:20:47.255Z</time></trkpt><trkpt lat="38.7269331" lon="16.3179547"><ele>650.6</ele><time>2026-04-19T12:20:48.252Z</time></trkpt><trkpt lat="38.726859" lon="16.3178713"><ele>652.4</ele><time>2026-04-19T12:20:50.248Z</time></trkpt><trkpt lat="38.7268868" lon="16.3177535"><ele>654.1999999999999</ele><time>2026-04-19T12:20:59.259Z</time></trkpt><trkpt lat="38.7269604" lon="16.3176274"><ele>656.0</ele><time>2026-04-19T12:21:01.259Z</time></trkpt><trkpt lat="38.7270041" lon="16.3175507"><ele>656.0</ele><time>2026-04-19T12:21:02.263Z</time></trkpt><trkpt lat="38.7270491" lon="16.3174699"><ele>656.0</ele><time>2026-04-19T12:21:03.248Z</time></trkpt><trkpt lat="38.7270929" lon="16.3173884"><ele>656.0</ele><time>2026-04-19T12:21:04.258Z</time></trkpt><trkpt lat="38.7271429" lon="16.3173004"><ele>656.0</ele><time>2026-04-19T12:21:05.261Z</time></trkpt><trkpt lat="38.7271953" lon="16.3172103"><ele>656.0</ele><time>2026-04-19T12:21:06.259Z</time></trkpt><trkpt lat="38.7272473" lon="16.3171192"><ele>656.0</ele><time>2026-04-19T12:21:07.25Z</time></trkpt><trkpt lat="38.7273032" lon="16.3170235"><ele>655.3333333333333</ele><time>2026-04-19T12:21:08.257Z</time></trkpt><trkpt lat="38.7273588" lon="16.3169295"><ele>654.6666666666666</ele><time>2026-04-19T12:21:09.266Z</time></trkpt><trkpt lat="38.727415" lon="16.3168335"><ele>654.0</ele><time>2026-04-19T12:21:10.256Z</time></trkpt><trkpt lat="38.7274655" lon="16.3167463"><ele>653.3333333333334</ele><time>2026-04-19T12:21:11.262Z</time></trkpt><trkpt lat="38.7275134" lon="16.3166576"><ele>652.6666666666667</ele><time>2026-04-19T12:21:12.26Z</time></trkpt><trkpt lat="38.7275588" lon="16.3165687"><ele>652.0</ele><time>2026-04-19T12:21:13.261Z</time></trkpt><trkpt lat="38.7275972" lon="16.3164935"><ele>650.0</ele><time>2026-04-19T12:21:14.27Z</time></trkpt><trkpt lat="38.7276643" lon="16.3163651"><ele>648.0</ele><time>2026-04-19T12:21:16.258Z</time></trkpt><trkpt lat="38.72774" lon="16.3162541"><ele>646.0</ele><time>2026-04-19T12:21:18.262Z</time></trkpt><trkpt lat="38.7278091" lon="16.3161464"><ele>644.0</ele><time>2026-04-19T12:21:20.254Z</time></trkpt><trkpt lat="38.7278734" lon="16.3160283"><ele>642.6</ele><time>2026-04-19T12:21:22.264Z</time></trkpt><trkpt lat="38.7279395" lon="16.3159322"><ele>641.2</ele><time>2026-04-19T12:21:24.249Z</time></trkpt><trkpt lat="38.7280116" lon="16.315837"><ele>639.8000000000001</ele><time>2026-04-19T12:21:26.255Z</time></trkpt><trkpt lat="38.7280189" lon="16.3157432"><ele>638.4000000000001</ele><time>2026-04-19T12:21:28.268Z</time></trkpt><trkpt lat="38.7280073" lon="16.3156552"><ele>637.0</ele><time>2026-04-19T12:21:31.265Z</time></trkpt><trkpt lat="38.7279626" lon="16.3155241"><ele>635.8333333333334</ele><time>2026-04-19T12:21:34.264Z</time></trkpt><trkpt lat="38.727915" lon="16.3153913"><ele>634.6666666666667</ele><time>2026-04-19T12:21:36.259Z</time></trkpt><trkpt lat="38.727872" lon="16.3152989"><ele>633.5</ele><time>2026-04-19T12:21:38.264Z</time></trkpt><trkpt lat="38.7278384" lon="16.3152301"><ele>632.3333333333334</ele><time>2026-04-19T12:21:40.268Z</time></trkpt><trkpt lat="38.7277867" lon="16.3151421"><ele>631.1666666666666</ele><time>2026-04-19T12:21:42.249Z</time></trkpt><trkpt lat="38.7277589" lon="16.3150237"><ele>630.0</ele><time>2026-04-19T12:21:44.262Z</time></trkpt><trkpt lat="38.7277407" lon="16.3149056"><ele>630.0</ele><time>2026-04-19T12:21:46.268Z</time></trkpt><trkpt lat="38.7277589" lon="16.3148"><ele>630.0</ele><time>2026-04-19T12:21:48.252Z</time></trkpt><trkpt lat="38.7277665" lon="16.3147119"><ele>630.0</ele><time>2026-04-19T12:21:50.264Z</time></trkpt><trkpt lat="38.7277907" lon="16.3146056"><ele>630.0</ele><time>2026-04-19T12:21:53.254Z</time></trkpt><trkpt lat="38.7277997" lon="16.3145128"><ele>630.0</ele><time>2026-04-19T12:21:55.259Z</time></trkpt><trkpt lat="38.7277868" lon="16.3144122"><ele>630.0</ele><time>2026-04-19T12:21:57.254Z</time></trkpt><trkpt lat="38.7277463" lon="16.3143032"><ele>630.0</ele><time>2026-04-19T12:21:59.263Z</time></trkpt><trkpt lat="38.7277202" lon="16.3141815"><ele>630.0</ele><time>2026-04-19T12:22:01.253Z</time></trkpt><trkpt lat="38.7277037" lon="16.3140737"><ele>630.0</ele><time>2026-04-19T12:22:03.251Z</time></trkpt><trkpt lat="38.7276764" lon="16.3139853"><ele>630.0</ele><time>2026-04-19T12:22:06.256Z</time></trkpt><trkpt lat="38.727652" lon="16.3139105"><ele>630.0</ele><time>2026-04-19T12:22:08.255Z</time></trkpt><trkpt lat="38.7276637" lon="16.3137935"><ele>630.0</ele><time>2026-04-19T12:22:11.262Z</time></trkpt><trkpt lat="38.7276853" lon="16.3136783"><ele>628.4285714285714</ele><time>2026-04-19T12:22:13.246Z</time></trkpt><trkpt lat="38.7276947" lon="16.3135889"><ele>626.8571428571429</ele><time>2026-04-19T12:22:15.256Z</time></trkpt><trkpt lat="38.7276763" lon="16.3135024"><ele>625.2857142857142</ele><time>2026-04-19T12:22:19.276Z</time></trkpt><trkpt lat="38.727702" lon="16.3134229"><ele>623.7142857142858</ele><time>2026-04-19T12:22:22.332Z</time></trkpt><trkpt lat="38.7277556" lon="16.3133415"><ele>622.1428571428571</ele><time>2026-04-19T12:22:25.324Z</time></trkpt><trkpt lat="38.7278062" lon="16.3132747"><ele>620.5714285714286</ele><time>2026-04-19T12:22:27.305Z</time></trkpt><trkpt lat="38.7278614" lon="16.3132334"><ele>619.0</ele><time>2026-04-19T12:22:30.29Z</time></trkpt><trkpt lat="38.72791" lon="16.3131731"><ele>617.5</ele><time>2026-04-19T12:22:34.275Z</time></trkpt><trkpt lat="38.727971" lon="16.3131018"><ele>616.0</ele><time>2026-04-19T12:22:37.287Z</time></trkpt><trkpt lat="38.728041" lon="16.3130479"><ele>614.5</ele><time>2026-04-19T12:22:39.34Z</time></trkpt><trkpt lat="38.7281008" lon="16.313005"><ele>613.0</ele><time>2026-04-19T12:22:41.32Z</time></trkpt><trkpt lat="38.7281706" lon="16.3129686"><ele>611.5</ele><time>2026-04-19T12:22:43.244Z</time></trkpt><trkpt lat="38.7282251" lon="16.3129157"><ele>610.0</ele><time>2026-04-19T12:22:45.227Z</time></trkpt><trkpt lat="38.7282962" lon="16.3128494"><ele>609.8333333333334</ele><time>2026-04-19T12:22:47.302Z</time></trkpt><trkpt lat="38.7283738" lon="16.3127623"><ele>609.6666666666667</ele><time>2026-04-19T12:22:49.248Z</time></trkpt><trkpt lat="38.728434" lon="16.3126875"><ele>609.5</ele><time>2026-04-19T12:22:50.27Z</time></trkpt><trkpt lat="38.7285119" lon="16.3125955"><ele>609.3333333333334</ele><time>2026-04-19T12:22:52.249Z</time></trkpt><trkpt lat="38.7285699" lon="16.3125263"><ele>609.1666666666666</ele><time>2026-04-19T12:22:55.261Z</time></trkpt><trkpt lat="38.7286196" lon="16.3124572"><ele>609.0</ele><time>2026-04-19T12:22:59.263Z</time></trkpt><trkpt lat="38.728681" lon="16.3123863"><ele>608.0</ele><time>2026-04-19T12:23:02.255Z</time></trkpt><trkpt lat="38.7287196" lon="16.3122943"><ele>607.0</ele><time>2026-04-19T12:23:05.254Z</time></trkpt><trkpt lat="38.7287528" lon="16.3122021"><ele>606.0</ele><time>2026-04-19T12:23:08.266Z</time></trkpt><trkpt lat="38.7287869" lon="16.3121057"><ele>605.0</ele><time>2026-04-19T12:23:11.261Z</time></trkpt><trkpt lat="38.7288148" lon="16.3120264"><ele>604.0</ele><time>2026-04-19T12:23:16.251Z</time></trkpt><trkpt lat="38.728866" lon="16.3119782"><ele>603.0</ele><time>2026-04-19T12:23:33.268Z</time></trkpt><trkpt lat="38.7289253" lon="16.3119375"><ele>602.0</ele><time>2026-04-19T12:23:37.258Z</time></trkpt><trkpt lat="38.7289852" lon="16.311871"><ele>601.5</ele><time>2026-04-19T12:23:45.254Z</time></trkpt><trkpt lat="38.7290389" lon="16.3118241"><ele>601.0</ele><time>2026-04-19T12:23:51.259Z</time></trkpt><trkpt lat="38.7290969" lon="16.311788"><ele>600.5</ele><time>2026-04-19T12:23:56.266Z</time></trkpt><trkpt lat="38.7291853" lon="16.3117318"><ele>600.0</ele><time>2026-04-19T12:24:00.249Z</time></trkpt><trkpt lat="38.7292382" lon="16.3116411"><ele>599.5</ele><time>2026-04-19T12:24:32.261Z</time></trkpt><trkpt lat="38.7292708" lon="16.3115542"><ele>599.0</ele><time>2026-04-19T12:24:35.253Z</time></trkpt><trkpt lat="38.729301" lon="16.3114345"><ele>598.1666666666666</ele><time>2026-04-19T12:32:08.231Z</time></trkpt><trkpt lat="38.7293373" lon="16.3113288"><ele>597.3333333333333</ele><time>2026-04-19T12:32:10.257Z</time></trkpt><trkpt lat="38.7293837" lon="16.3112096"><ele>596.5</ele><time>2026-04-19T12:32:12.256Z</time></trkpt><trkpt lat="38.7294088" lon="16.3110987"><ele>595.6666666666666</ele><time>2026-04-19T12:32:14.251Z</time></trkpt><trkpt lat="38.72941" lon="16.3110155"><ele>594.8333333333334</ele><time>2026-04-19T12:32:16.264Z</time></trkpt><trkpt lat="38.7293823" lon="16.3109108"><ele>594.0</ele><time>2026-04-19T12:32:19.253Z</time></trkpt><trkpt lat="38.7293722" lon="16.3108238"><ele>593.4285714285714</ele><time>2026-04-19T12:32:22.243Z</time></trkpt><trkpt lat="38.7293995" lon="16.3107487"><ele>592.8571428571429</ele><time>2026-04-19T12:32:25.247Z</time></trkpt><trkpt lat="38.729435" lon="16.3106409"><ele>592.2857142857143</ele><time>2026-04-19T12:32:28.255Z</time></trkpt><trkpt lat="38.7294703" lon="16.3105606"><ele>591.7142857142858</ele><time>2026-04-19T12:32:30.249Z</time></trkpt><trkpt lat="38.7295067" lon="16.3104816"><ele>591.1428571428571</ele><time>2026-04-19T12:32:32.262Z</time></trkpt><trkpt lat="38.7295409" lon="16.3104045"><ele>590.5714285714287</ele><time>2026-04-19T12:32:34.255Z</time></trkpt><trkpt lat="38.7295874" lon="16.3103346"><ele>590.0</ele><time>2026-04-19T12:32:36.272Z</time></trkpt><trkpt lat="38.7296325" lon="16.3102645"><ele>590.0</ele><time>2026-04-19T12:32:38.254Z</time></trkpt><trkpt lat="38.7296841" lon="16.3101992"><ele>590.0</ele><time>2026-04-19T12:32:41.253Z</time></trkpt><trkpt lat="38.7297433" lon="16.3101215"><ele>590.0</ele><time>2026-04-19T12:32:45.255Z</time></trkpt><trkpt lat="38.729806" lon="16.31009"><ele>590.0</ele><time>2026-04-19T12:33:49.228Z</time></trkpt><trkpt lat="38.7298542" lon="16.31001"><ele>590.0</ele><time>2026-04-19T12:33:51.274Z</time></trkpt><trkpt lat="38.7298903" lon="16.3099166"><ele>590.0</ele><time>2026-04-19T12:33:53.268Z</time></trkpt><trkpt lat="38.7299301" lon="16.3098111"><ele>588.2</ele><time>2026-04-19T12:33:55.262Z</time></trkpt><trkpt lat="38.729962" lon="16.3097227"><ele>586.4</ele><time>2026-04-19T12:33:57.258Z</time></trkpt><trkpt lat="38.7299859" lon="16.3096317"><ele>584.6</ele><time>2026-04-19T12:34:00.281Z</time></trkpt><trkpt lat="38.7300081" lon="16.3094818"><ele>582.8</ele><time>2026-04-19T12:34:02.261Z</time></trkpt><trkpt lat="38.7300409" lon="16.3093264"><ele>581.0</ele><time>2026-04-19T12:34:04.254Z</time></trkpt><trkpt lat="38.7300562" lon="16.3091958"><ele>581.0</ele><time>2026-04-19T12:34:06.258Z</time></trkpt><trkpt lat="38.7300731" lon="16.3090967"><ele>581.0</ele><time>2026-04-19T12:34:09.263Z</time></trkpt><trkpt lat="38.7300774" lon="16.3089992"><ele>581.0</ele><time>2026-04-19T12:34:12.264Z</time></trkpt><trkpt lat="38.7300785" lon="16.3089114"><ele>581.0</ele><time>2026-04-19T12:34:15.264Z</time></trkpt><trkpt lat="38.7300839" lon="16.3088254"><ele>581.0</ele><time>2026-04-19T12:34:18.256Z</time></trkpt><trkpt lat="38.7300968" lon="16.3087199"><ele>581.0</ele><time>2026-04-19T12:34:21.266Z</time></trkpt><trkpt lat="38.7301406" lon="16.3086431"><ele>581.0</ele><time>2026-04-19T12:34:23.265Z</time></trkpt><trkpt lat="38.7302043" lon="16.3086393"><ele>578.6</ele><time>2026-04-19T12:34:25.258Z</time></trkpt><trkpt lat="38.7302731" lon="16.3086977"><ele>576.2</ele><time>2026-04-19T12:34:27.251Z</time></trkpt><trkpt lat="38.7303633" lon="16.308796"><ele>573.8</ele><time>2026-04-19T12:34:29.258Z</time></trkpt><trkpt lat="38.7304364" lon="16.3088788"><ele>571.4</ele><time>2026-04-19T12:34:31.253Z</time></trkpt><trkpt lat="38.7304928" lon="16.3089361"><ele>569.0</ele><time>2026-04-19T12:34:33.264Z</time></trkpt><trkpt lat="38.7305622" lon="16.3089901"><ele>569.0000000000001</ele><time>2026-04-19T12:34:36.267Z</time></trkpt><trkpt lat="38.7306279" lon="16.3090393"><ele>569.0</ele><time>2026-04-19T12:34:39.258Z</time></trkpt><trkpt lat="38.7306891" lon="16.3090728"><ele>569.0</ele><time>2026-04-19T12:34:42.274Z</time></trkpt><trkpt lat="38.7307567" lon="16.3090962"><ele>569.0</ele><time>2026-04-19T12:34:44.255Z</time></trkpt><trkpt lat="38.7308285" lon="16.309124"><ele>569.0</ele><time>2026-04-19T12:34:47.263Z</time></trkpt><trkpt lat="38.7308925" lon="16.3091527"><ele>569.0000000000001</ele><time>2026-04-19T12:34:49.258Z</time></trkpt><trkpt lat="38.7309698" lon="16.3091715"><ele>569.0</ele><time>2026-04-19T12:34:51.262Z</time></trkpt><trkpt lat="38.7310552" lon="16.3091742"><ele>564.3333333333333</ele><time>2026-04-19T12:34:55.324Z</time></trkpt><trkpt lat="38.7311394" lon="16.3091781"><ele>559.6666666666666</ele><time>2026-04-19T12:34:57.292Z</time></trkpt><trkpt lat="38.7311905" lon="16.3091026"><ele>555.0</ele><time>2026-04-19T12:34:59.326Z</time></trkpt><trkpt lat="38.7311854" lon="16.3090035"><ele>550.3333333333334</ele><time>2026-04-19T12:35:02.259Z</time></trkpt><trkpt lat="38.7311527" lon="16.3089247"><ele>545.6666666666667</ele><time>2026-04-19T12:35:06.304Z</time></trkpt><trkpt lat="38.7311255" lon="16.308833"><ele>541.0</ele><time>2026-04-19T12:35:09.28Z</time></trkpt><trkpt lat="38.7311047" lon="16.308748"><ele>541.1428571428572</ele><time>2026-04-19T12:35:11.26Z</time></trkpt><trkpt lat="38.7310802" lon="16.3086699"><ele>541.2857142857143</ele><time>2026-04-19T12:35:13.23Z</time></trkpt><trkpt lat="38.7310573" lon="16.3085847"><ele>541.4285714285714</ele><time>2026-04-19T12:35:15.322Z</time></trkpt><trkpt lat="38.7310209" lon="16.3085092"><ele>541.5714285714287</ele><time>2026-04-19T12:35:18.317Z</time></trkpt><trkpt lat="38.7309687" lon="16.3084507"><ele>541.7142857142858</ele><time>2026-04-19T12:35:21.264Z</time></trkpt><trkpt lat="38.7309109" lon="16.3083803"><ele>541.8571428571429</ele><time>2026-04-19T12:35:24.263Z</time></trkpt><trkpt lat="38.7308525" lon="16.3083285"><ele>542.0</ele><time>2026-04-19T12:35:26.259Z</time></trkpt><trkpt lat="38.7307975" lon="16.3082651"><ele>542.0</ele><time>2026-04-19T12:35:28.253Z</time></trkpt><trkpt lat="38.7307357" lon="16.3081909"><ele>542.0</ele><time>2026-04-19T12:35:30.267Z</time></trkpt><trkpt lat="38.7306759" lon="16.3081096"><ele>542.0</ele><time>2026-04-19T12:35:33.256Z</time></trkpt><trkpt lat="38.7306323" lon="16.3080346"><ele>542.0</ele><time>2026-04-19T12:35:37.266Z</time></trkpt><trkpt lat="38.7305919" lon="16.3079423"><ele>542.0</ele><time>2026-04-19T12:35:41.265Z</time></trkpt><trkpt lat="38.7305672" lon="16.3078666"><ele>542.0</ele><time>2026-04-19T12:35:43.264Z</time></trkpt><trkpt lat="38.7305527" lon="16.3077811"><ele>538.3333333333333</ele><time>2026-04-19T12:35:45.258Z</time></trkpt><trkpt lat="38.7305431" lon="16.3076852"><ele>534.6666666666666</ele><time>2026-04-19T12:35:48.258Z</time></trkpt><trkpt lat="38.7305559" lon="16.30758"><ele>531.0</ele><time>2026-04-19T12:35:52.257Z</time></trkpt><trkpt lat="38.7305718" lon="16.3074877"><ele>527.3333333333334</ele><time>2026-04-19T12:36:05.255Z</time></trkpt><trkpt lat="38.7305913" lon="16.3073827"><ele>523.6666666666667</ele><time>2026-04-19T12:36:10.263Z</time></trkpt><trkpt lat="38.7305788" lon="16.3072848"><ele>520.0</ele><time>2026-04-19T12:36:13.254Z</time></trkpt><trkpt lat="38.7305542" lon="16.3071754"><ele>515.1666666666667</ele><time>2026-04-19T12:36:16.269Z</time></trkpt><trkpt lat="38.7305462" lon="16.3070922"><ele>510.33333333333337</ele><time>2026-04-19T12:36:19.271Z</time></trkpt><trkpt lat="38.7305436" lon="16.3069688"><ele>505.5</ele><time>2026-04-19T12:36:22.25Z</time></trkpt><trkpt lat="38.730545" lon="16.3068701"><ele>500.66666666666663</ele><time>2026-04-19T12:36:25.253Z</time></trkpt><trkpt lat="38.7305204" lon="16.3067745"><ele>495.8333333333333</ele><time>2026-04-19T12:36:27.252Z</time></trkpt><trkpt lat="38.7304724" lon="16.3067053"><ele>491.0</ele><time>2026-04-19T12:36:29.265Z</time></trkpt><trkpt lat="38.7303965" lon="16.3066516"><ele>490.99999999999994</ele><time>2026-04-19T12:36:31.254Z</time></trkpt><trkpt lat="38.7303174" lon="16.3066268"><ele>491.0</ele><time>2026-04-19T12:36:33.275Z</time></trkpt><trkpt lat="38.7302429" lon="16.3065976"><ele>491.0</ele><time>2026-04-19T12:36:35.265Z</time></trkpt><trkpt lat="38.7301714" lon="16.306582"><ele>491.0</ele><time>2026-04-19T12:36:37.261Z</time></trkpt><trkpt lat="38.7300918" lon="16.3066041"><ele>490.99999999999994</ele><time>2026-04-19T12:36:40.252Z</time></trkpt><trkpt lat="38.7300063" lon="16.3066408"><ele>491.0</ele><time>2026-04-19T12:36:43.255Z</time></trkpt><trkpt lat="38.7299385" lon="16.3066683"><ele>492.49999999999994</ele><time>2026-04-19T12:36:45.253Z</time></trkpt><trkpt lat="38.7298483" lon="16.306677"><ele>494.0</ele><time>2026-04-19T12:36:47.255Z</time></trkpt><trkpt lat="38.7297615" lon="16.3066758"><ele>495.5</ele><time>2026-04-19T12:36:49.26Z</time></trkpt><trkpt lat="38.7296982" lon="16.306638"><ele>497.0</ele><time>2026-04-19T12:36:51.26Z</time></trkpt><trkpt lat="38.7296392" lon="16.3065518"><ele>498.49999999999994</ele><time>2026-04-19T12:36:54.258Z</time></trkpt><trkpt lat="38.7296229" lon="16.30647"><ele>500.0</ele><time>2026-04-19T12:36:56.26Z</time></trkpt><trkpt lat="38.7296444" lon="16.3063908"><ele>495.66666666666663</ele><time>2026-04-19T12:36:59.271Z</time></trkpt><trkpt lat="38.7296935" lon="16.3062881"><ele>491.3333333333333</ele><time>2026-04-19T12:37:02.263Z</time></trkpt><trkpt lat="38.7297378" lon="16.3061919"><ele>487.0</ele><time>2026-04-19T12:37:05.268Z</time></trkpt><trkpt lat="38.729764" lon="16.3061145"><ele>482.66666666666663</ele><time>2026-04-19T12:37:07.248Z</time></trkpt><trkpt lat="38.7297931" lon="16.3060145"><ele>478.3333333333333</ele><time>2026-04-19T12:37:09.245Z</time></trkpt><trkpt lat="38.7298161" lon="16.3059173"><ele>474.0</ele><time>2026-04-19T12:37:11.269Z</time></trkpt><trkpt lat="38.7298434" lon="16.3057929"><ele>474.0</ele><time>2026-04-19T12:37:13.251Z</time></trkpt><trkpt lat="38.7298821" lon="16.3056726"><ele>474.0</ele><time>2026-04-19T12:37:15.249Z</time></trkpt><trkpt lat="38.729918" lon="16.3055588"><ele>474.0</ele><time>2026-04-19T12:37:17.258Z</time></trkpt><trkpt lat="38.7299648" lon="16.3054878"><ele>474.0</ele><time>2026-04-19T12:37:19.256Z</time></trkpt><trkpt lat="38.730022" lon="16.3054378"><ele>474.0</ele><time>2026-04-19T12:37:21.272Z</time></trkpt><trkpt lat="38.7301231" lon="16.3053655"><ele>468.4</ele><time>2026-04-19T12:37:23.257Z</time></trkpt><trkpt lat="38.7302133" lon="16.3053256"><ele>462.79999999999995</ele><time>2026-04-19T12:37:25.252Z</time></trkpt><trkpt lat="38.730298" lon="16.3053268"><ele>457.20000000000005</ele><time>2026-04-19T12:37:27.271Z</time></trkpt><trkpt lat="38.7303977" lon="16.3053514"><ele>451.6</ele><time>2026-04-19T12:37:29.25Z</time></trkpt><trkpt lat="38.7305042" lon="16.3053596"><ele>446.0</ele><time>2026-04-19T12:37:31.257Z</time></trkpt><trkpt lat="38.7305851" lon="16.3053463"><ele>446.0</ele><time>2026-04-19T12:37:33.252Z</time></trkpt><trkpt lat="38.7306471" lon="16.3053291"><ele>446.0</ele><time>2026-04-19T12:37:36.257Z</time></trkpt><trkpt lat="38.7307115" lon="16.3053249"><ele>446.0</ele><time>2026-04-19T12:37:40.263Z</time></trkpt><trkpt lat="38.7307844" lon="16.3053227"><ele>446.0</ele><time>2026-04-19T12:37:45.272Z</time></trkpt><trkpt lat="38.730847" lon="16.3053357"><ele>446.0</ele><time>2026-04-19T12:37:50.264Z</time></trkpt><trkpt lat="38.7309113" lon="16.3053684"><ele>446.0</ele><time>2026-04-19T12:37:53.258Z</time></trkpt><trkpt lat="38.7309732" lon="16.3053968"><ele>446.0</ele><time>2026-04-19T12:37:58.252Z</time></trkpt><trkpt lat="38.7310304" lon="16.3054598"><ele>444.99999999999994</ele><time>2026-04-19T12:38:01.255Z</time></trkpt><trkpt lat="38.7311295" lon="16.3055473"><ele>444.0</ele><time>2026-04-19T12:38:03.261Z</time></trkpt><trkpt lat="38.7312012" lon="16.3056045"><ele>443.0</ele><time>2026-04-19T12:38:04.248Z</time></trkpt><trkpt lat="38.7312672" lon="16.305678"><ele>442.0</ele><time>2026-04-19T12:38:05.248Z</time></trkpt><trkpt lat="38.7313311" lon="16.3057469"><ele>440.99999999999994</ele><time>2026-04-19T12:38:06.263Z</time></trkpt><trkpt lat="38.7313696" lon="16.3058154"><ele>440.0</ele><time>2026-04-19T12:38:07.25Z</time></trkpt><trkpt lat="38.731413" lon="16.305929"><ele>440.0</ele><time>2026-04-19T12:38:09.259Z</time></trkpt><trkpt lat="38.7314063" lon="16.3060854"><ele>440.0</ele><time>2026-04-19T12:38:11.258Z</time></trkpt><trkpt lat="38.7314231" lon="16.306211"><ele>440.0</ele><time>2026-04-19T12:38:13.256Z</time></trkpt><trkpt lat="38.7314866" lon="16.3062238"><ele>440.0</ele><time>2026-04-19T12:38:15.255Z</time></trkpt><trkpt lat="38.7315909" lon="16.3061471"><ele>440.0</ele><time>2026-04-19T12:38:17.253Z</time></trkpt><trkpt lat="38.7316478" lon="16.3060972"><ele>439.99999999999994</ele><time>2026-04-19T12:38:18.261Z</time></trkpt><trkpt lat="38.7317071" lon="16.306048"><ele>440.0</ele><time>2026-04-19T12:38:19.252Z</time></trkpt><trkpt lat="38.7317631" lon="16.3059998"><ele>440.0</ele><time>2026-04-19T12:38:20.259Z</time></trkpt><trkpt lat="38.7318541" lon="16.3058955"><ele>440.0</ele><time>2026-04-19T12:38:22.254Z</time></trkpt><trkpt lat="38.7319013" lon="16.3058355"><ele>439.99999999999994</ele><time>2026-04-19T12:38:23.259Z</time></trkpt><trkpt lat="38.7319281" lon="16.3057584"><ele>440.0</ele><time>2026-04-19T12:38:24.254Z</time></trkpt><trkpt lat="38.7319478" lon="16.3056708"><ele>438.66666666666663</ele><time>2026-04-19T12:38:25.27Z</time></trkpt><trkpt lat="38.7319776" lon="16.3055851"><ele>437.3333333333333</ele><time>2026-04-19T12:38:26.26Z</time></trkpt><trkpt lat="38.7320083" lon="16.3055028"><ele>436.0</ele><time>2026-04-19T12:38:27.251Z</time></trkpt><trkpt lat="38.7320413" lon="16.3054319"><ele>434.66666666666663</ele><time>2026-04-19T12:38:28.266Z</time></trkpt><trkpt lat="38.732142" lon="16.3053435"><ele>433.3333333333333</ele><time>2026-04-19T12:38:30.255Z</time></trkpt><trkpt lat="38.7322094" lon="16.3053197"><ele>432.0</ele><time>2026-04-19T12:38:31.256Z</time></trkpt><trkpt lat="38.7322904" lon="16.3053245"><ele>427.7142857142857</ele><time>2026-04-19T12:38:32.264Z</time></trkpt><trkpt lat="38.7323745" lon="16.305343"><ele>423.42857142857144</ele><time>2026-04-19T12:38:33.25Z</time></trkpt><trkpt lat="38.7324488" lon="16.3053687"><ele>419.1428571428571</ele><time>2026-04-19T12:38:34.257Z</time></trkpt><trkpt lat="38.7325202" lon="16.3053821"><ele>414.8571428571429</ele><time>2026-04-19T12:38:35.262Z</time></trkpt><trkpt lat="38.7325853" lon="16.3053911"><ele>410.5714285714286</ele><time>2026-04-19T12:38:36.247Z</time></trkpt><trkpt lat="38.7326599" lon="16.3053902"><ele>406.2857142857143</ele><time>2026-04-19T12:38:37.265Z</time></trkpt><trkpt lat="38.7327251" lon="16.3053592"><ele>402.0</ele><time>2026-04-19T12:38:38.264Z</time></trkpt><trkpt lat="38.7327976" lon="16.3053049"><ele>401.0</ele><time>2026-04-19T12:38:39.253Z</time></trkpt><trkpt lat="38.7328761" lon="16.305245"><ele>400.0</ele><time>2026-04-19T12:38:40.252Z</time></trkpt><trkpt lat="38.7329662" lon="16.305188"><ele>399.0</ele><time>2026-04-19T12:38:41.259Z</time></trkpt><trkpt lat="38.7330487" lon="16.305147"><ele>398.0</ele><time>2026-04-19T12:38:42.256Z</time></trkpt><trkpt lat="38.7331144" lon="16.3051177"><ele>397.0</ele><time>2026-04-19T12:38:43.252Z</time></trkpt><trkpt lat="38.7331941" lon="16.3050725"><ele>396.0</ele><time>2026-04-19T12:38:45.256Z</time></trkpt><trkpt lat="38.7331426" lon="16.3050161"><ele>396.0</ele><time>2026-04-19T12:38:47.268Z</time></trkpt><trkpt lat="38.7330332" lon="16.3050179"><ele>396.0</ele><time>2026-04-19T12:38:49.255Z</time></trkpt><trkpt lat="38.7329663" lon="16.3050126"><ele>396.0</ele><time>2026-04-19T12:38:50.269Z</time></trkpt><trkpt lat="38.7328989" lon="16.3050074"><ele>396.0</ele><time>2026-04-19T12:38:51.257Z</time></trkpt><trkpt lat="38.732827" lon="16.3049941"><ele>396.0</ele><time>2026-04-19T12:38:52.255Z</time></trkpt><trkpt lat="38.7327592" lon="16.3049795"><ele>396.0</ele><time>2026-04-19T12:38:53.258Z</time></trkpt><trkpt lat="38.732687" lon="16.304955"><ele>397.20000000000005</ele><time>2026-04-19T12:38:54.262Z</time></trkpt><trkpt lat="38.7326265" lon="16.3049192"><ele>398.40000000000003</ele><time>2026-04-19T12:38:55.265Z</time></trkpt><trkpt lat="38.732539" lon="16.3048195"><ele>399.6</ele><time>2026-04-19T12:38:57.272Z</time></trkpt><trkpt lat="38.7324746" lon="16.3046906"><ele>400.8</ele><time>2026-04-19T12:38:59.25Z</time></trkpt><trkpt lat="38.7323757" lon="16.3045845"><ele>402.0</ele><time>2026-04-19T12:39:01.253Z</time></trkpt><trkpt lat="38.7323139" lon="16.3045568"><ele>397.20000000000005</ele><time>2026-04-19T12:39:02.255Z</time></trkpt><trkpt lat="38.7322068" lon="16.3045119"><ele>392.4</ele><time>2026-04-19T12:39:04.252Z</time></trkpt><trkpt lat="38.7321446" lon="16.3044506"><ele>387.6</ele><time>2026-04-19T12:39:06.258Z</time></trkpt><trkpt lat="38.7321217" lon="16.3043415"><ele>382.79999999999995</ele><time>2026-04-19T12:39:08.257Z</time></trkpt><trkpt lat="38.7321524" lon="16.3042272"><ele>378.0</ele><time>2026-04-19T12:39:10.248Z</time></trkpt><trkpt lat="38.7322121" lon="16.304115"><ele>378.0</ele><time>2026-04-19T12:39:12.255Z</time></trkpt><trkpt lat="38.7322391" lon="16.3039655"><ele>378.0</ele><time>2026-04-19T12:39:14.252Z</time></trkpt><trkpt lat="38.732262" lon="16.3038379"><ele>378.0</ele><time>2026-04-19T12:39:16.26Z</time></trkpt><trkpt lat="38.7323008" lon="16.3037666"><ele>378.0</ele><time>2026-04-19T12:39:18.264Z</time></trkpt><trkpt lat="38.7323728" lon="16.3038509"><ele>378.0</ele><time>2026-04-19T12:39:21.264Z</time></trkpt><trkpt lat="38.7323968" lon="16.3039397"><ele>378.0</ele><time>2026-04-19T12:39:23.258Z</time></trkpt><trkpt lat="38.7324538" lon="16.303994"><ele>378.0</ele><time>2026-04-19T12:39:26.264Z</time></trkpt><trkpt lat="38.7325033" lon="16.3040489"><ele>378.0</ele><time>2026-04-19T12:39:28.253Z</time></trkpt><trkpt lat="38.7325592" lon="16.3041111"><ele>378.0</ele><time>2026-04-19T12:39:30.261Z</time></trkpt><trkpt lat="38.7326246" lon="16.3041462"><ele>378.0</ele><time>2026-04-19T12:39:32.249Z</time></trkpt><trkpt lat="38.7327422" lon="16.3041321"><ele>378.0</ele><time>2026-04-19T12:39:34.262Z</time></trkpt><trkpt lat="38.7328546" lon="16.304095"><ele>376.25</ele><time>2026-04-19T12:39:36.257Z</time></trkpt><trkpt lat="38.7329617" lon="16.3040321"><ele>374.5</ele><time>2026-04-19T12:39:38.249Z</time></trkpt><trkpt lat="38.7330647" lon="16.3039627"><ele>372.75</ele><time>2026-04-19T12:39:40.256Z</time></trkpt><trkpt lat="38.7331623" lon="16.3038893"><ele>371.0</ele><time>2026-04-19T12:39:42.253Z</time></trkpt><trkpt lat="38.7332645" lon="16.3038019"><ele>366.8</ele><time>2026-04-19T12:39:44.257Z</time></trkpt><trkpt lat="38.7333819" lon="16.3037416"><ele>362.6</ele><time>2026-04-19T12:39:46.264Z</time></trkpt><trkpt lat="38.7334941" lon="16.3037238"><ele>358.4</ele><time>2026-04-19T12:39:48.259Z</time></trkpt><trkpt lat="38.7335537" lon="16.3037527"><ele>354.2</ele><time>2026-04-19T12:39:49.268Z</time></trkpt><trkpt lat="38.7336306" lon="16.3038856"><ele>350.0</ele><time>2026-04-19T12:39:51.26Z</time></trkpt><trkpt lat="38.7336623" lon="16.3039674"><ele>349.7142857142857</ele><time>2026-04-19T12:39:52.259Z</time></trkpt><trkpt lat="38.7336959" lon="16.3040437"><ele>349.42857142857144</ele><time>2026-04-19T12:39:53.25Z</time></trkpt><trkpt lat="38.7337275" lon="16.304124"><ele>349.1428571428571</ele><time>2026-04-19T12:39:54.272Z</time></trkpt><trkpt lat="38.7337565" lon="16.304204"><ele>348.8571428571429</ele><time>2026-04-19T12:39:55.256Z</time></trkpt><trkpt lat="38.7337871" lon="16.3042861"><ele>348.57142857142856</ele><time>2026-04-19T12:39:56.249Z</time></trkpt><trkpt lat="38.733819" lon="16.3043687"><ele>348.2857142857143</ele><time>2026-04-19T12:39:57.259Z</time></trkpt><trkpt lat="38.7338515" lon="16.3044502"><ele>348.0</ele><time>2026-04-19T12:39:58.263Z</time></trkpt><trkpt lat="38.7338742" lon="16.3045406"><ele>348.0</ele><time>2026-04-19T12:39:59.254Z</time></trkpt><trkpt lat="38.7338909" lon="16.3046332"><ele>348.0</ele><time>2026-04-19T12:40:00.268Z</time></trkpt><trkpt lat="38.7339084" lon="16.3047203"><ele>348.0</ele><time>2026-04-19T12:40:01.267Z</time></trkpt><trkpt lat="38.7339379" lon="16.304799"><ele>348.0</ele><time>2026-04-19T12:40:02.255Z</time></trkpt><trkpt lat="38.7339873" lon="16.3048587"><ele>348.0</ele><time>2026-04-19T12:40:03.252Z</time></trkpt><trkpt lat="38.7340504" lon="16.3048938"><ele>348.0</ele><time>2026-04-19T12:40:04.257Z</time></trkpt><trkpt lat="38.7341203" lon="16.3049171"><ele>348.0</ele><time>2026-04-19T12:40:05.255Z</time></trkpt><trkpt lat="38.7341954" lon="16.3049314"><ele>349.6666666666667</ele><time>2026-04-19T12:40:06.258Z</time></trkpt><trkpt lat="38.7342636" lon="16.3049475"><ele>351.3333333333333</ele><time>2026-04-19T12:40:07.256Z</time></trkpt><trkpt lat="38.7343298" lon="16.3049653"><ele>353.0</ele><time>2026-04-19T12:40:08.26Z</time></trkpt><trkpt lat="38.7344324" lon="16.3049954"><ele>354.66666666666663</ele><time>2026-04-19T12:40:10.254Z</time></trkpt><trkpt lat="38.7345125" lon="16.3050142"><ele>356.3333333333333</ele><time>2026-04-19T12:40:12.26Z</time></trkpt><trkpt lat="38.7345702" lon="16.3049698"><ele>358.0</ele><time>2026-04-19T12:40:14.265Z</time></trkpt><trkpt lat="38.7345818" lon="16.3048352"><ele>354.8333333333333</ele><time>2026-04-19T12:40:16.253Z</time></trkpt><trkpt lat="38.7345782" lon="16.3047471"><ele>351.66666666666663</ele><time>2026-04-19T12:40:17.258Z</time></trkpt><trkpt lat="38.7345746" lon="16.3046585"><ele>348.5</ele><time>2026-04-19T12:40:18.259Z</time></trkpt><trkpt lat="38.7345773" lon="16.3045714"><ele>345.3333333333333</ele><time>2026-04-19T12:40:19.248Z</time></trkpt><trkpt lat="38.7345988" lon="16.3044894"><ele>342.1666666666667</ele><time>2026-04-19T12:40:20.257Z</time></trkpt><trkpt lat="38.7346196" lon="16.3044102"><ele>339.0</ele><time>2026-04-19T12:40:21.257Z</time></trkpt><trkpt lat="38.7346695" lon="16.3042772"><ele>339.0</ele><time>2026-04-19T12:40:23.26Z</time></trkpt><trkpt lat="38.7346912" lon="16.3041825"><ele>339.0</ele><time>2026-04-19T12:40:24.283Z</time></trkpt><trkpt lat="38.7347158" lon="16.3040924"><ele>339.0</ele><time>2026-04-19T12:40:25.253Z</time></trkpt><trkpt lat="38.7347371" lon="16.3040066"><ele>339.0</ele><time>2026-04-19T12:40:26.25Z</time></trkpt><trkpt lat="38.7347789" lon="16.3039403"><ele>339.0</ele><time>2026-04-19T12:40:27.253Z</time></trkpt><trkpt lat="38.7348263" lon="16.3038794"><ele>339.0</ele><time>2026-04-19T12:40:28.255Z</time></trkpt><trkpt lat="38.7348713" lon="16.3038192"><ele>339.0</ele><time>2026-04-19T12:40:29.26Z</time></trkpt><trkpt lat="38.7349438" lon="16.3037001"><ele>340.4</ele><time>2026-04-19T12:40:31.25Z</time></trkpt><trkpt lat="38.7350114" lon="16.3035664"><ele>341.79999999999995</ele><time>2026-04-19T12:40:33.252Z</time></trkpt><trkpt lat="38.7350442" lon="16.3034939"><ele>343.20000000000005</ele><time>2026-04-19T12:40:34.258Z</time></trkpt><trkpt lat="38.7350814" lon="16.3034143"><ele>344.6</ele><time>2026-04-19T12:40:35.258Z</time></trkpt><trkpt lat="38.7351356" lon="16.3033043"><ele>346.0</ele><time>2026-04-19T12:40:36.251Z</time></trkpt><trkpt lat="38.7351757" lon="16.3032029"><ele>346.0</ele><time>2026-04-19T12:40:37.257Z</time></trkpt><trkpt lat="38.7352028" lon="16.3031016"><ele>346.0</ele><time>2026-04-19T12:40:38.258Z</time></trkpt><trkpt lat="38.735226" lon="16.3029927"><ele>346.0</ele><time>2026-04-19T12:40:39.258Z</time></trkpt><trkpt lat="38.7352538" lon="16.3028794"><ele>346.0</ele><time>2026-04-19T12:40:40.268Z</time></trkpt><trkpt lat="38.7352814" lon="16.3027651"><ele>346.0</ele><time>2026-04-19T12:40:41.261Z</time></trkpt><trkpt lat="38.7353126" lon="16.3026474"><ele>345.20000000000005</ele><time>2026-04-19T12:40:42.254Z</time></trkpt><trkpt lat="38.7353439" lon="16.3025279"><ele>344.40000000000003</ele><time>2026-04-19T12:40:43.27Z</time></trkpt><trkpt lat="38.7353761" lon="16.3024052"><ele>343.6</ele><time>2026-04-19T12:40:44.263Z</time></trkpt><trkpt lat="38.7354066" lon="16.3022772"><ele>342.8</ele><time>2026-04-19T12:40:45.258Z</time></trkpt><trkpt lat="38.7354346" lon="16.302146"><ele>342.0</ele><time>2026-04-19T12:40:46.262Z</time></trkpt><trkpt lat="38.7354624" lon="16.3020098"><ele>342.0</ele><time>2026-04-19T12:40:47.266Z</time></trkpt><trkpt lat="38.7354896" lon="16.3018723"><ele>342.0</ele><time>2026-04-19T12:40:48.261Z</time></trkpt><trkpt lat="38.735516" lon="16.3017402"><ele>342.0</ele><time>2026-04-19T12:40:49.264Z</time></trkpt><trkpt lat="38.7355263" lon="16.3016026"><ele>342.0</ele><time>2026-04-19T12:40:50.254Z</time></trkpt><trkpt lat="38.7355135" lon="16.3014686"><ele>342.0</ele><time>2026-04-19T12:40:51.266Z</time></trkpt><trkpt lat="38.7354932" lon="16.3013368"><ele>342.40000000000003</ele><time>2026-04-19T12:40:52.264Z</time></trkpt><trkpt lat="38.7354604" lon="16.3012001"><ele>342.8</ele><time>2026-04-19T12:40:53.253Z</time></trkpt><trkpt lat="38.7354279" lon="16.3010716"><ele>343.2</ele><time>2026-04-19T12:40:54.264Z</time></trkpt><trkpt lat="38.7353844" lon="16.3009445"><ele>343.6</ele><time>2026-04-19T12:40:55.258Z</time></trkpt><trkpt lat="38.7353366" lon="16.3008118"><ele>344.0</ele><time>2026-04-19T12:40:56.255Z</time></trkpt><trkpt lat="38.7352918" lon="16.3006958"><ele>344.0</ele><time>2026-04-19T12:40:57.265Z</time></trkpt><trkpt lat="38.7352555" lon="16.3005993"><ele>344.0</ele><time>2026-04-19T12:40:58.259Z</time></trkpt><trkpt lat="38.7352218" lon="16.3005189"><ele>344.0</ele><time>2026-04-19T12:40:59.253Z</time></trkpt><trkpt lat="38.7351642" lon="16.3003904"><ele>344.0</ele><time>2026-04-19T12:41:01.266Z</time></trkpt><trkpt lat="38.7351128" lon="16.3003075"><ele>344.0</ele><time>2026-04-19T12:41:03.262Z</time></trkpt><trkpt lat="38.7350471" lon="16.3002235"><ele>344.0</ele><time>2026-04-19T12:41:05.253Z</time></trkpt><trkpt lat="38.73499" lon="16.3000795"><ele>341.83333333333337</ele><time>2026-04-19T12:41:07.263Z</time></trkpt><trkpt lat="38.7349687" lon="16.2999782"><ele>339.6666666666667</ele><time>2026-04-19T12:41:08.254Z</time></trkpt><trkpt lat="38.7349481" lon="16.2998663"><ele>337.5</ele><time>2026-04-19T12:41:09.275Z</time></trkpt><trkpt lat="38.7349352" lon="16.2997487"><ele>335.3333333333333</ele><time>2026-04-19T12:41:10.261Z</time></trkpt><trkpt lat="38.7349224" lon="16.2996315"><ele>333.16666666666663</ele><time>2026-04-19T12:41:11.256Z</time></trkpt><trkpt lat="38.7349361" lon="16.2995176"><ele>331.0</ele><time>2026-04-19T12:41:12.258Z</time></trkpt><trkpt lat="38.734954" lon="16.2994169"><ele>331.0</ele><time>2026-04-19T12:41:13.263Z</time></trkpt><trkpt lat="38.7349695" lon="16.2993289"><ele>331.0</ele><time>2026-04-19T12:41:14.256Z</time></trkpt><trkpt lat="38.7349843" lon="16.2992462"><ele>331.0</ele><time>2026-04-19T12:41:15.268Z</time></trkpt><trkpt lat="38.7349965" lon="16.2991623"><ele>331.0</ele><time>2026-04-19T12:41:16.257Z</time></trkpt><trkpt lat="38.7350192" lon="16.2990098"><ele>331.0</ele><time>2026-04-19T12:41:18.264Z</time></trkpt><trkpt lat="38.7350419" lon="16.2988595"><ele>331.0</ele><time>2026-04-19T12:41:20.262Z</time></trkpt><trkpt lat="38.7350587" lon="16.2987002"><ele>330.5</ele><time>2026-04-19T12:41:22.264Z</time></trkpt><trkpt lat="38.7350636" lon="16.2986154"><ele>330.0</ele><time>2026-04-19T12:41:23.252Z</time></trkpt><trkpt lat="38.7350684" lon="16.2985253"><ele>329.5</ele><time>2026-04-19T12:41:24.271Z</time></trkpt><trkpt lat="38.7350778" lon="16.2984268"><ele>329.0</ele><time>2026-04-19T12:41:25.273Z</time></trkpt><trkpt lat="38.7350934" lon="16.2983239"><ele>328.5</ele><time>2026-04-19T12:41:26.257Z</time></trkpt><trkpt lat="38.7351176" lon="16.2982131"><ele>328.0</ele><time>2026-04-19T12:41:27.255Z</time></trkpt><trkpt lat="38.7351473" lon="16.2980979"><ele>326.0</ele><time>2026-04-19T12:41:28.266Z</time></trkpt><trkpt lat="38.7351714" lon="16.2979789"><ele>324.0</ele><time>2026-04-19T12:41:29.261Z</time></trkpt><trkpt lat="38.7351892" lon="16.297852"><ele>322.0</ele><time>2026-04-19T12:41:30.255Z</time></trkpt><trkpt lat="38.7352021" lon="16.2977198"><ele>320.0</ele><time>2026-04-19T12:41:31.267Z</time></trkpt><trkpt lat="38.7352209" lon="16.2975857"><ele>318.0</ele><time>2026-04-19T12:41:32.27Z</time></trkpt><trkpt lat="38.735243" lon="16.2974454"><ele>315.0</ele><time>2026-04-19T12:41:33.256Z</time></trkpt><trkpt lat="38.7352625" lon="16.2973025"><ele>312.0</ele><time>2026-04-19T12:41:34.259Z</time></trkpt><trkpt lat="38.7352835" lon="16.2971531"><ele>309.0</ele><time>2026-04-19T12:41:35.261Z</time></trkpt><trkpt lat="38.7353045" lon="16.297007"><ele>306.0</ele><time>2026-04-19T12:41:36.26Z</time></trkpt><trkpt lat="38.7353259" lon="16.2968611"><ele>305.75</ele><time>2026-04-19T12:41:37.262Z</time></trkpt><trkpt lat="38.7353532" lon="16.2967156"><ele>305.5</ele><time>2026-04-19T12:41:38.264Z</time></trkpt><trkpt lat="38.7353824" lon="16.296567"><ele>305.25</ele><time>2026-04-19T12:41:39.254Z</time></trkpt><trkpt lat="38.7354101" lon="16.2964255"><ele>305.0</ele><time>2026-04-19T12:41:40.266Z</time></trkpt><trkpt lat="38.7354317" lon="16.2962968"><ele>304.6</ele><time>2026-04-19T12:41:41.255Z</time></trkpt><trkpt lat="38.7354413" lon="16.296174"><ele>304.2</ele><time>2026-04-19T12:41:42.255Z</time></trkpt><trkpt lat="38.7354353" lon="16.2960579"><ele>303.8</ele><time>2026-04-19T12:41:43.261Z</time></trkpt><trkpt lat="38.7354163" lon="16.2959479"><ele>303.4</ele><time>2026-04-19T12:41:44.274Z</time></trkpt><trkpt lat="38.7353858" lon="16.2958418"><ele>303.0</ele><time>2026-04-19T12:41:45.256Z</time></trkpt><trkpt lat="38.7353441" lon="16.2957445"><ele>303.0</ele><time>2026-04-19T12:41:46.272Z</time></trkpt><trkpt lat="38.7353007" lon="16.2956487"><ele>303.0</ele><time>2026-04-19T12:41:47.265Z</time></trkpt><trkpt lat="38.7352635" lon="16.2955551"><ele>303.0</ele><time>2026-04-19T12:41:48.257Z</time></trkpt><trkpt lat="38.73524" lon="16.2954554"><ele>303.0</ele><time>2026-04-19T12:41:49.259Z</time></trkpt><trkpt lat="38.7352177" lon="16.29536"><ele>303.0</ele><time>2026-04-19T12:41:50.264Z</time></trkpt><trkpt lat="38.7352053" lon="16.2952678"><ele>303.0</ele><time>2026-04-19T12:41:51.262Z</time></trkpt><trkpt lat="38.7351983" lon="16.2951811"><ele>302.6666666666667</ele><time>2026-04-19T12:41:52.267Z</time></trkpt><trkpt lat="38.7351849" lon="16.295097"><ele>302.3333333333333</ele><time>2026-04-19T12:41:53.257Z</time></trkpt><trkpt lat="38.7351654" lon="16.2949919"><ele>302.0</ele><time>2026-04-19T12:41:54.271Z</time></trkpt><trkpt lat="38.7351463" lon="16.2948862"><ele>301.66666666666663</ele><time>2026-04-19T12:41:55.276Z</time></trkpt><trkpt lat="38.7351286" lon="16.2947808"><ele>301.3333333333333</ele><time>2026-04-19T12:41:56.262Z</time></trkpt><trkpt lat="38.7351161" lon="16.2946649"><ele>301.0</ele><time>2026-04-19T12:41:57.264Z</time></trkpt><trkpt lat="38.7351103" lon="16.2945442"><ele>298.8</ele><time>2026-04-19T12:41:58.259Z</time></trkpt><trkpt lat="38.7351049" lon="16.2944261"><ele>296.6</ele><time>2026-04-19T12:41:59.282Z</time></trkpt><trkpt lat="38.7350994" lon="16.2942977"><ele>294.4</ele><time>2026-04-19T12:42:00.256Z</time></trkpt><trkpt lat="38.7350937" lon="16.2941762"><ele>292.2</ele><time>2026-04-19T12:42:01.247Z</time></trkpt><trkpt lat="38.7350764" lon="16.2940672"><ele>290.0</ele><time>2026-04-19T12:42:02.273Z</time></trkpt><trkpt lat="38.7350556" lon="16.2939637"><ele>289.6666666666667</ele><time>2026-04-19T12:42:03.277Z</time></trkpt><trkpt lat="38.735038" lon="16.2938611"><ele>289.33333333333337</ele><time>2026-04-19T12:42:04.271Z</time></trkpt><trkpt lat="38.7350238" lon="16.2937636"><ele>289.0</ele><time>2026-04-19T12:42:05.253Z</time></trkpt><trkpt lat="38.7350329" lon="16.2936675"><ele>288.6666666666667</ele><time>2026-04-19T12:42:06.312Z</time></trkpt><trkpt lat="38.7350576" lon="16.2935754"><ele>288.3333333333333</ele><time>2026-04-19T12:42:07.267Z</time></trkpt><trkpt lat="38.735092" lon="16.2934772"><ele>288.0</ele><time>2026-04-19T12:42:08.259Z</time></trkpt><trkpt lat="38.735138" lon="16.2933937"><ele>288.0</ele><time>2026-04-19T12:42:09.269Z</time></trkpt><trkpt lat="38.7351872" lon="16.2933081"><ele>288.0</ele><time>2026-04-19T12:42:10.269Z</time></trkpt><trkpt lat="38.7352299" lon="16.293227"><ele>288.0</ele><time>2026-04-19T12:42:11.269Z</time></trkpt><trkpt lat="38.7352561" lon="16.2931276"><ele>288.0</ele><time>2026-04-19T12:42:12.257Z</time></trkpt><trkpt lat="38.7352715" lon="16.2930252"><ele>288.0</ele><time>2026-04-19T12:42:13.274Z</time></trkpt><trkpt lat="38.735292" lon="16.2929306"><ele>288.0</ele><time>2026-04-19T12:42:14.278Z</time></trkpt><trkpt lat="38.7353138" lon="16.2928316"><ele>289.8333333333333</ele><time>2026-04-19T12:42:15.256Z</time></trkpt><trkpt lat="38.735336" lon="16.2927285"><ele>291.6666666666667</ele><time>2026-04-19T12:42:16.26Z</time></trkpt><trkpt lat="38.7353602" lon="16.2926227"><ele>293.5</ele><time>2026-04-19T12:42:17.259Z</time></trkpt><trkpt lat="38.7353892" lon="16.2925279"><ele>295.33333333333337</ele><time>2026-04-19T12:42:18.257Z</time></trkpt><trkpt lat="38.7354216" lon="16.2924478"><ele>297.1666666666667</ele><time>2026-04-19T12:42:19.257Z</time></trkpt><trkpt lat="38.735454" lon="16.2923698"><ele>299.0</ele><time>2026-04-19T12:42:20.263Z</time></trkpt><trkpt lat="38.7355039" lon="16.2922479"><ele>299.0</ele><time>2026-04-19T12:42:22.256Z</time></trkpt><trkpt lat="38.735514" lon="16.292146"><ele>299.0</ele><time>2026-04-19T12:42:24.273Z</time></trkpt><trkpt lat="38.7354954" lon="16.2920032"><ele>299.0</ele><time>2026-04-19T12:42:26.263Z</time></trkpt><trkpt lat="38.7354792" lon="16.2919195"><ele>299.0</ele><time>2026-04-19T12:42:27.263Z</time></trkpt><trkpt lat="38.7354706" lon="16.2918377"><ele>299.0</ele><time>2026-04-19T12:42:28.254Z</time></trkpt><trkpt lat="38.7354662" lon="16.2916965"><ele>299.0</ele><time>2026-04-19T12:42:30.255Z</time></trkpt><trkpt lat="38.7354688" lon="16.2915748"><ele>299.0</ele><time>2026-04-19T12:42:32.263Z</time></trkpt><trkpt lat="38.7354961" lon="16.2914358"><ele>299.0</ele><time>2026-04-19T12:42:34.266Z</time></trkpt><trkpt lat="38.7355192" lon="16.2913128"><ele>299.0</ele><time>2026-04-19T12:42:36.26Z</time></trkpt><trkpt lat="38.7355195" lon="16.2911681"><ele>299.0</ele><time>2026-04-19T12:42:38.284Z</time></trkpt><trkpt lat="38.7355248" lon="16.2910118"><ele>299.0</ele><time>2026-04-19T12:42:40.259Z</time></trkpt><trkpt lat="38.7355384" lon="16.2908773"><ele>296.8</ele><time>2026-04-19T12:42:42.264Z</time></trkpt><trkpt lat="38.7355511" lon="16.2907382"><ele>294.59999999999997</ele><time>2026-04-19T12:42:44.261Z</time></trkpt><trkpt lat="38.7355741" lon="16.2906049"><ele>292.4</ele><time>2026-04-19T12:42:46.262Z</time></trkpt><trkpt lat="38.735598" lon="16.2904697"><ele>290.2</ele><time>2026-04-19T12:42:48.263Z</time></trkpt><trkpt lat="38.7356029" lon="16.2903416"><ele>288.0</ele><time>2026-04-19T12:42:50.275Z</time></trkpt><trkpt lat="38.7356385" lon="16.2902051"><ele>285.6666666666667</ele><time>2026-04-19T12:42:52.265Z</time></trkpt><trkpt lat="38.735686" lon="16.2900674"><ele>283.3333333333333</ele><time>2026-04-19T12:42:54.273Z</time></trkpt><trkpt lat="38.7357175" lon="16.2899912"><ele>281.0</ele><time>2026-04-19T12:42:55.261Z</time></trkpt><trkpt lat="38.7357512" lon="16.2899111"><ele>278.66666666666663</ele><time>2026-04-19T12:42:56.257Z</time></trkpt><trkpt lat="38.735786" lon="16.2898376"><ele>276.3333333333333</ele><time>2026-04-19T12:42:57.258Z</time></trkpt><trkpt lat="38.7358198" lon="16.2897655"><ele>274.0</ele><time>2026-04-19T12:42:58.253Z</time></trkpt><trkpt lat="38.7358697" lon="16.2896278"><ele>271.16666666666663</ele><time>2026-04-19T12:43:00.269Z</time></trkpt><trkpt lat="38.7358802" lon="16.2895351"><ele>268.3333333333333</ele><time>2026-04-19T12:43:01.255Z</time></trkpt><trkpt lat="38.7358951" lon="16.2894362"><ele>265.5</ele><time>2026-04-19T12:43:02.265Z</time></trkpt><trkpt lat="38.735911" lon="16.2893416"><ele>262.6666666666667</ele><time>2026-04-19T12:43:03.25Z</time></trkpt><trkpt lat="38.7359254" lon="16.2892416"><ele>259.83333333333337</ele><time>2026-04-19T12:43:04.25Z</time></trkpt><trkpt lat="38.7359411" lon="16.2891416"><ele>257.0</ele><time>2026-04-19T12:43:05.255Z</time></trkpt><trkpt lat="38.7359563" lon="16.2890379"><ele>257.0</ele><time>2026-04-19T12:43:06.256Z</time></trkpt><trkpt lat="38.7359663" lon="16.2889353"><ele>257.0</ele><time>2026-04-19T12:43:07.26Z</time></trkpt><trkpt lat="38.7359765" lon="16.2888212"><ele>257.0</ele><time>2026-04-19T12:43:08.285Z</time></trkpt><trkpt lat="38.7359899" lon="16.2887104"><ele>257.0</ele><time>2026-04-19T12:43:09.278Z</time></trkpt><trkpt lat="38.7360136" lon="16.288589"><ele>257.0</ele><time>2026-04-19T12:43:10.253Z</time></trkpt><trkpt lat="38.7360389" lon="16.2884804"><ele>257.0</ele><time>2026-04-19T12:43:11.264Z</time></trkpt><trkpt lat="38.7360695" lon="16.2883668"><ele>255.66666666666669</ele><time>2026-04-19T12:43:12.261Z</time></trkpt><trkpt lat="38.7360986" lon="16.2882545"><ele>254.33333333333334</ele><time>2026-04-19T12:43:13.255Z</time></trkpt><trkpt lat="38.7361437" lon="16.2881464"><ele>253.0</ele><time>2026-04-19T12:43:14.266Z</time></trkpt><trkpt lat="38.7361997" lon="16.2880509"><ele>251.66666666666669</ele><time>2026-04-19T12:43:15.274Z</time></trkpt><trkpt lat="38.7362461" lon="16.2879654"><ele>250.33333333333334</ele><time>2026-04-19T12:43:16.251Z</time></trkpt><trkpt lat="38.736288" lon="16.2878796"><ele>249.0</ele><time>2026-04-19T12:43:17.262Z</time></trkpt><trkpt lat="38.7363129" lon="16.2877788"><ele>249.0</ele><time>2026-04-19T12:43:18.261Z</time></trkpt><trkpt lat="38.7363228" lon="16.2876718"><ele>249.0</ele><time>2026-04-19T12:43:19.251Z</time></trkpt><trkpt lat="38.7363221" lon="16.2875693"><ele>249.0</ele><time>2026-04-19T12:43:20.259Z</time></trkpt><trkpt lat="38.7363079" lon="16.2874688"><ele>249.0</ele><time>2026-04-19T12:43:21.261Z</time></trkpt><trkpt lat="38.736287" lon="16.2873567"><ele>249.0</ele><time>2026-04-19T12:43:22.262Z</time></trkpt><trkpt lat="38.7362648" lon="16.287249"><ele>249.0</ele><time>2026-04-19T12:43:23.254Z</time></trkpt><trkpt lat="38.7362407" lon="16.2871441"><ele>248.0</ele><time>2026-04-19T12:43:24.263Z</time></trkpt><trkpt lat="38.7362225" lon="16.2870382"><ele>247.0</ele><time>2026-04-19T12:43:25.256Z</time></trkpt><trkpt lat="38.7362178" lon="16.2869494"><ele>246.0</ele><time>2026-04-19T12:43:26.268Z</time></trkpt><trkpt lat="38.7362164" lon="16.2868498"><ele>245.0</ele><time>2026-04-19T12:43:27.257Z</time></trkpt><trkpt lat="38.7362098" lon="16.2867568"><ele>244.0</ele><time>2026-04-19T12:43:28.259Z</time></trkpt><trkpt lat="38.7362" lon="16.2866624"><ele>243.0</ele><time>2026-04-19T12:43:29.255Z</time></trkpt><trkpt lat="38.7361853" lon="16.2865707"><ele>243.0</ele><time>2026-04-19T12:43:30.259Z</time></trkpt><trkpt lat="38.7361688" lon="16.2864689"><ele>243.0</ele><time>2026-04-19T12:43:31.268Z</time></trkpt><trkpt lat="38.7361487" lon="16.2863724"><ele>243.0</ele><time>2026-04-19T12:43:32.259Z</time></trkpt><trkpt lat="38.7361307" lon="16.2862852"><ele>243.0</ele><time>2026-04-19T12:43:33.263Z</time></trkpt><trkpt lat="38.7361188" lon="16.286196"><ele>243.0</ele><time>2026-04-19T12:43:34.26Z</time></trkpt><trkpt lat="38.7361215" lon="16.2861033"><ele>243.0</ele><time>2026-04-19T12:43:35.275Z</time></trkpt><trkpt lat="38.7361416" lon="16.2860143"><ele>243.0</ele><time>2026-04-19T12:43:36.254Z</time></trkpt><trkpt lat="38.7361689" lon="16.285932"><ele>242.0</ele><time>2026-04-19T12:43:37.258Z</time></trkpt><trkpt lat="38.7361969" lon="16.2858442"><ele>241.0</ele><time>2026-04-19T12:43:38.265Z</time></trkpt><trkpt lat="38.7362166" lon="16.2857646"><ele>240.0</ele><time>2026-04-19T12:43:39.258Z</time></trkpt><trkpt lat="38.7362173" lon="16.2856839"><ele>239.0</ele><time>2026-04-19T12:43:40.264Z</time></trkpt><trkpt lat="38.7362007" lon="16.2855201"><ele>238.0</ele><time>2026-04-19T12:43:42.263Z</time></trkpt><trkpt lat="38.7362091" lon="16.2854186"><ele>237.0</ele><time>2026-04-19T12:43:43.262Z</time></trkpt><trkpt lat="38.7362187" lon="16.2853271"><ele>236.85714285714283</ele><time>2026-04-19T12:43:44.266Z</time></trkpt><trkpt lat="38.7362258" lon="16.2852397"><ele>236.71428571428572</ele><time>2026-04-19T12:43:45.268Z</time></trkpt><trkpt lat="38.7362325" lon="16.2851499"><ele>236.57142857142856</ele><time>2026-04-19T12:43:46.25Z</time></trkpt><trkpt lat="38.7362364" lon="16.2850625"><ele>236.42857142857142</ele><time>2026-04-19T12:43:47.257Z</time></trkpt><trkpt lat="38.7362332" lon="16.2849725"><ele>236.28571428571428</ele><time>2026-04-19T12:43:48.258Z</time></trkpt><trkpt lat="38.7362307" lon="16.2848769"><ele>236.14285714285714</ele><time>2026-04-19T12:43:49.254Z</time></trkpt><trkpt lat="38.7362244" lon="16.2847797"><ele>236.0</ele><time>2026-04-19T12:43:50.249Z</time></trkpt><trkpt lat="38.7362196" lon="16.2846897"><ele>236.0</ele><time>2026-04-19T12:43:51.258Z</time></trkpt><trkpt lat="38.7362177" lon="16.2845983"><ele>236.0</ele><time>2026-04-19T12:43:52.257Z</time></trkpt><trkpt lat="38.7362288" lon="16.2845159"><ele>236.0</ele><time>2026-04-19T12:43:53.267Z</time></trkpt><trkpt lat="38.73625" lon="16.284431"><ele>236.0</ele><time>2026-04-19T12:43:54.262Z</time></trkpt><trkpt lat="38.7362761" lon="16.2843524"><ele>236.0</ele><time>2026-04-19T12:43:55.255Z</time></trkpt><trkpt lat="38.736306" lon="16.2842745"><ele>236.0</ele><time>2026-04-19T12:43:56.25Z</time></trkpt><trkpt lat="38.7363415" lon="16.2841866"><ele>236.0</ele><time>2026-04-19T12:43:57.264Z</time></trkpt><trkpt lat="38.7363787" lon="16.2840943"><ele>236.00000000000003</ele><time>2026-04-19T12:43:58.253Z</time></trkpt><trkpt lat="38.736412" lon="16.2840055"><ele>236.0</ele><time>2026-04-19T12:43:59.264Z</time></trkpt><trkpt lat="38.7364456" lon="16.2839239"><ele>236.0</ele><time>2026-04-19T12:44:00.268Z</time></trkpt><trkpt lat="38.7364856" lon="16.283847"><ele>236.0</ele><time>2026-04-19T12:44:01.251Z</time></trkpt><trkpt lat="38.7365301" lon="16.2837667"><ele>236.00000000000003</ele><time>2026-04-19T12:44:02.262Z</time></trkpt><trkpt lat="38.7365624" lon="16.2836936"><ele>236.0</ele><time>2026-04-19T12:44:03.252Z</time></trkpt><trkpt lat="38.7366231" lon="16.2835511"><ele>235.8</ele><time>2026-04-19T12:44:05.264Z</time></trkpt><trkpt lat="38.7367164" lon="16.2834754"><ele>235.60000000000002</ele><time>2026-04-19T12:44:07.252Z</time></trkpt><trkpt lat="38.7368479" lon="16.2834036"><ele>235.4</ele><time>2026-04-19T12:44:09.26Z</time></trkpt><trkpt lat="38.7369158" lon="16.2833603"><ele>235.2</ele><time>2026-04-19T12:44:10.251Z</time></trkpt><trkpt lat="38.7369739" lon="16.2833146"><ele>235.0</ele><time>2026-04-19T12:44:11.263Z</time></trkpt><trkpt lat="38.7370576" lon="16.2832156"><ele>228.5</ele><time>2026-04-19T12:44:13.251Z</time></trkpt><trkpt lat="38.7370953" lon="16.2830789"><ele>222.0</ele><time>2026-04-19T12:44:15.266Z</time></trkpt><trkpt lat="38.7371333" lon="16.2829354"><ele>215.5</ele><time>2026-04-19T12:44:17.254Z</time></trkpt><trkpt lat="38.7371773" lon="16.2827904"><ele>209.0</ele><time>2026-04-19T12:44:19.251Z</time></trkpt><trkpt lat="38.7372635" lon="16.2826645"><ele>209.00000000000003</ele><time>2026-04-19T12:44:21.263Z</time></trkpt><trkpt lat="38.73731" lon="16.2825885"><ele>209.0</ele><time>2026-04-19T12:44:22.274Z</time></trkpt><trkpt lat="38.7373569" lon="16.2825083"><ele>209.0</ele><time>2026-04-19T12:44:23.255Z</time></trkpt><trkpt lat="38.737398" lon="16.2824268"><ele>209.0</ele><time>2026-04-19T12:44:24.261Z</time></trkpt><trkpt lat="38.7374562" lon="16.2823432"><ele>209.00000000000003</ele><time>2026-04-19T12:44:25.263Z</time></trkpt><trkpt lat="38.737513" lon="16.2822622"><ele>209.0</ele><time>2026-04-19T12:44:26.256Z</time></trkpt><trkpt lat="38.7375668" lon="16.2821833"><ele>208.83333333333334</ele><time>2026-04-19T12:44:27.269Z</time></trkpt><trkpt lat="38.7376313" lon="16.2821216"><ele>208.66666666666669</ele><time>2026-04-19T12:44:28.27Z</time></trkpt><trkpt lat="38.7377096" lon="16.2820732"><ele>208.5</ele><time>2026-04-19T12:44:29.253Z</time></trkpt><trkpt lat="38.7377689" lon="16.2820364"><ele>208.33333333333331</ele><time>2026-04-19T12:44:30.27Z</time></trkpt><trkpt lat="38.7378218" lon="16.2819778"><ele>208.16666666666666</ele><time>2026-04-19T12:44:31.26Z</time></trkpt><trkpt lat="38.7378628" lon="16.2819156"><ele>208.0</ele><time>2026-04-19T12:44:32.258Z</time></trkpt><trkpt lat="38.7379257" lon="16.2817925"><ele>207.99999999999997</ele><time>2026-04-19T12:44:34.26Z</time></trkpt><trkpt lat="38.7379707" lon="16.2817233"><ele>208.0</ele><time>2026-04-19T12:44:35.256Z</time></trkpt><trkpt lat="38.7380637" lon="16.2816243"><ele>208.0</ele><time>2026-04-19T12:44:37.267Z</time></trkpt><trkpt lat="38.7381391" lon="16.2815942"><ele>208.0</ele><time>2026-04-19T12:44:38.265Z</time></trkpt><trkpt lat="38.7382142" lon="16.2815618"><ele>207.99999999999997</ele><time>2026-04-19T12:44:39.261Z</time></trkpt><trkpt lat="38.7382883" lon="16.2815315"><ele>208.0</ele><time>2026-04-19T12:44:40.258Z</time></trkpt><trkpt lat="38.7383553" lon="16.2814914"><ele>208.0</ele><time>2026-04-19T12:44:41.259Z</time></trkpt><trkpt lat="38.7384146" lon="16.2814546"><ele>208.0</ele><time>2026-04-19T12:44:42.256Z</time></trkpt><trkpt lat="38.7384758" lon="16.2813401"><ele>208.0</ele><time>2026-04-19T12:44:44.27Z</time></trkpt><trkpt lat="38.7385274" lon="16.2812015"><ele>208.0</ele><time>2026-04-19T12:44:46.253Z</time></trkpt><trkpt lat="38.7385715" lon="16.281119"><ele>208.0</ele><time>2026-04-19T12:44:47.256Z</time></trkpt><trkpt lat="38.7386299" lon="16.2810389"><ele>207.83333333333331</ele><time>2026-04-19T12:44:48.255Z</time></trkpt><trkpt lat="38.7386995" lon="16.2809647"><ele>207.66666666666666</ele><time>2026-04-19T12:44:49.248Z</time></trkpt><trkpt lat="38.7387802" lon="16.2809025"><ele>207.5</ele><time>2026-04-19T12:44:50.265Z</time></trkpt><trkpt lat="38.7388666" lon="16.2808368"><ele>207.33333333333331</ele><time>2026-04-19T12:44:51.263Z</time></trkpt><trkpt lat="38.7389334" lon="16.2807734"><ele>207.16666666666666</ele><time>2026-04-19T12:44:52.255Z</time></trkpt><trkpt lat="38.7389976" lon="16.2807205"><ele>207.0</ele><time>2026-04-19T12:44:53.259Z</time></trkpt><trkpt lat="38.7390465" lon="16.2806602"><ele>208.5</ele><time>2026-04-19T12:44:54.266Z</time></trkpt><trkpt lat="38.7390848" lon="16.2805837"><ele>210.0</ele><time>2026-04-19T12:44:55.27Z</time></trkpt><trkpt lat="38.7390951" lon="16.2805005"><ele>211.5</ele><time>2026-04-19T12:44:56.265Z</time></trkpt><trkpt lat="38.7390892" lon="16.2804182"><ele>213.0</ele><time>2026-04-19T12:44:57.246Z</time></trkpt><trkpt lat="38.7390757" lon="16.2803323"><ele>214.5</ele><time>2026-04-19T12:44:58.26Z</time></trkpt><trkpt lat="38.7390598" lon="16.2802467"><ele>216.0</ele><time>2026-04-19T12:44:59.274Z</time></trkpt><trkpt lat="38.7390483" lon="16.2800767"><ele>216.0</ele><time>2026-04-19T12:45:01.263Z</time></trkpt><trkpt lat="38.7390551" lon="16.2799821"><ele>216.0</ele><time>2026-04-19T12:45:02.259Z</time></trkpt><trkpt lat="38.739058" lon="16.2798617"><ele>216.0</ele><time>2026-04-19T12:45:03.26Z</time></trkpt><trkpt lat="38.7390554" lon="16.2797373"><ele>216.0</ele><time>2026-04-19T12:45:04.267Z</time></trkpt><trkpt lat="38.7390554" lon="16.2796131"><ele>216.0</ele><time>2026-04-19T12:45:05.257Z</time></trkpt><trkpt lat="38.7390586" lon="16.2795176"><ele>216.0</ele><time>2026-04-19T12:45:06.249Z</time></trkpt><trkpt lat="38.7390714" lon="16.2794188"><ele>216.33333333333334</ele><time>2026-04-19T12:45:07.264Z</time></trkpt><trkpt lat="38.7390822" lon="16.2793204"><ele>216.66666666666669</ele><time>2026-04-19T12:45:08.26Z</time></trkpt><trkpt lat="38.7390969" lon="16.279209"><ele>217.0</ele><time>2026-04-19T12:45:09.255Z</time></trkpt><trkpt lat="38.7391314" lon="16.2791247"><ele>217.33333333333334</ele><time>2026-04-19T12:45:10.271Z</time></trkpt><trkpt lat="38.7391777" lon="16.2790575"><ele>217.66666666666669</ele><time>2026-04-19T12:45:11.255Z</time></trkpt><trkpt lat="38.7392356" lon="16.2789923"><ele>218.0</ele><time>2026-04-19T12:45:12.251Z</time></trkpt><trkpt lat="38.7392852" lon="16.2789314"><ele>216.25</ele><time>2026-04-19T12:45:13.263Z</time></trkpt><trkpt lat="38.7393373" lon="16.2787871"><ele>214.5</ele><time>2026-04-19T12:45:15.274Z</time></trkpt><trkpt lat="38.7393702" lon="16.2786392"><ele>212.75</ele><time>2026-04-19T12:45:17.263Z</time></trkpt><trkpt lat="38.7393983" lon="16.2785002"><ele>211.0</ele><time>2026-04-19T12:45:19.256Z</time></trkpt><trkpt lat="38.7394115" lon="16.2783782"><ele>208.49999999999997</ele><time>2026-04-19T12:45:21.27Z</time></trkpt><trkpt lat="38.7394141" lon="16.2782281"><ele>206.0</ele><time>2026-04-19T12:45:23.258Z</time></trkpt><trkpt lat="38.7394051" lon="16.2781437"><ele>203.5</ele><time>2026-04-19T12:45:24.261Z</time></trkpt><trkpt lat="38.7393919" lon="16.2780578"><ele>201.0</ele><time>2026-04-19T12:45:25.265Z</time></trkpt><trkpt lat="38.7393793" lon="16.2779705"><ele>198.49999999999997</ele><time>2026-04-19T12:45:26.269Z</time></trkpt><trkpt lat="38.7393662" lon="16.2778807"><ele>196.0</ele><time>2026-04-19T12:45:27.255Z</time></trkpt><trkpt lat="38.7393529" lon="16.2777881"><ele>195.99999999999997</ele><time>2026-04-19T12:45:28.266Z</time></trkpt><trkpt lat="38.7393437" lon="16.2776952"><ele>196.0</ele><time>2026-04-19T12:45:29.262Z</time></trkpt><trkpt lat="38.7393291" lon="16.2775973"><ele>196.0</ele><time>2026-04-19T12:45:30.254Z</time></trkpt><trkpt lat="38.7393069" lon="16.2774999"><ele>196.0</ele><time>2026-04-19T12:45:31.264Z</time></trkpt><trkpt lat="38.7392785" lon="16.2774046"><ele>195.99999999999997</ele><time>2026-04-19T12:45:32.258Z</time></trkpt><trkpt lat="38.7392489" lon="16.2773054"><ele>196.0</ele><time>2026-04-19T12:45:33.26Z</time></trkpt><trkpt lat="38.7392222" lon="16.2772069"><ele>194.83333333333331</ele><time>2026-04-19T12:45:34.262Z</time></trkpt><trkpt lat="38.7391985" lon="16.2771072"><ele>193.66666666666666</ele><time>2026-04-19T12:45:35.269Z</time></trkpt><trkpt lat="38.7391736" lon="16.2770062"><ele>192.5</ele><time>2026-04-19T12:45:36.257Z</time></trkpt><trkpt lat="38.7391482" lon="16.276902"><ele>191.33333333333331</ele><time>2026-04-19T12:45:37.265Z</time></trkpt><trkpt lat="38.739122" lon="16.2767989"><ele>190.16666666666666</ele><time>2026-04-19T12:45:38.279Z</time></trkpt><trkpt lat="38.7390916" lon="16.2766925"><ele>189.0</ele><time>2026-04-19T12:45:39.261Z</time></trkpt><trkpt lat="38.7390611" lon="16.2765971"><ele>189.0</ele><time>2026-04-19T12:45:40.257Z</time></trkpt><trkpt lat="38.7390398" lon="16.2765148"><ele>189.0</ele><time>2026-04-19T12:45:41.273Z</time></trkpt><trkpt lat="38.7390155" lon="16.2763804"><ele>189.0</ele><time>2026-04-19T12:45:43.249Z</time></trkpt><trkpt lat="38.7390082" lon="16.2762484"><ele>189.0</ele><time>2026-04-19T12:45:45.267Z</time></trkpt><trkpt lat="38.7389953" lon="16.2760887"><ele>189.0</ele><time>2026-04-19T12:45:47.257Z</time></trkpt><trkpt lat="38.7389945" lon="16.2760011"><ele>187.0</ele><time>2026-04-19T12:45:48.258Z</time></trkpt><trkpt lat="38.7389981" lon="16.27584"><ele>185.0</ele><time>2026-04-19T12:45:50.261Z</time></trkpt><trkpt lat="38.7390031" lon="16.2757558"><ele>183.0</ele><time>2026-04-19T12:45:51.257Z</time></trkpt><trkpt lat="38.7390099" lon="16.275675"><ele>181.0</ele><time>2026-04-19T12:45:52.25Z</time></trkpt><trkpt lat="38.7390147" lon="16.2755918"><ele>179.0</ele><time>2026-04-19T12:45:53.263Z</time></trkpt><trkpt lat="38.7390142" lon="16.275509"><ele>177.0</ele><time>2026-04-19T12:45:54.265Z</time></trkpt><trkpt lat="38.7389981" lon="16.2753682"><ele>174.6</ele><time>2026-04-19T12:45:56.259Z</time></trkpt><trkpt lat="38.7389638" lon="16.2752256"><ele>172.2</ele><time>2026-04-19T12:45:58.258Z</time></trkpt><trkpt lat="38.7389318" lon="16.2751076"><ele>169.8</ele><time>2026-04-19T12:46:00.267Z</time></trkpt><trkpt lat="38.7389133" lon="16.2749774"><ele>167.4</ele><time>2026-04-19T12:46:02.254Z</time></trkpt><trkpt lat="38.7388993" lon="16.2748368"><ele>165.0</ele><time>2026-04-19T12:46:04.27Z</time></trkpt><trkpt lat="38.7388864" lon="16.2747118"><ele>160.2</ele><time>2026-04-19T12:46:06.261Z</time></trkpt><trkpt lat="38.7388721" lon="16.2745777"><ele>155.4</ele><time>2026-04-19T12:46:08.25Z</time></trkpt><trkpt lat="38.7388661" lon="16.2744631"><ele>150.6</ele><time>2026-04-19T12:46:10.262Z</time></trkpt><trkpt lat="38.7388579" lon="16.2743562"><ele>145.8</ele><time>2026-04-19T12:46:12.264Z</time></trkpt><trkpt lat="38.7388381" lon="16.2742475"><ele>141.0</ele><time>2026-04-19T12:46:14.25Z</time></trkpt><trkpt lat="38.738799" lon="16.2741488"><ele>141.0</ele><time>2026-04-19T12:46:16.264Z</time></trkpt><trkpt lat="38.7387777" lon="16.2740215"><ele>141.0</ele><time>2026-04-19T12:46:18.266Z</time></trkpt><trkpt lat="38.73876" lon="16.2738652"><ele>141.0</ele><time>2026-04-19T12:46:20.248Z</time></trkpt><trkpt lat="38.7387521" lon="16.2737843"><ele>141.0</ele><time>2026-04-19T12:46:21.258Z</time></trkpt><trkpt lat="38.7387424" lon="16.2736963"><ele>141.0</ele><time>2026-04-19T12:46:22.252Z</time></trkpt><trkpt lat="38.7387332" lon="16.2736042"><ele>141.0</ele><time>2026-04-19T12:46:23.259Z</time></trkpt><trkpt lat="38.7387217" lon="16.273508"><ele>137.16666666666666</ele><time>2026-04-19T12:46:24.266Z</time></trkpt><trkpt lat="38.7387096" lon="16.2734142"><ele>133.33333333333334</ele><time>2026-04-19T12:46:25.27Z</time></trkpt><trkpt lat="38.7386927" lon="16.2733178"><ele>129.5</ele><time>2026-04-19T12:46:26.249Z</time></trkpt><trkpt lat="38.7386709" lon="16.2732222"><ele>125.66666666666667</ele><time>2026-04-19T12:46:27.27Z</time></trkpt><trkpt lat="38.7386503" lon="16.2731307"><ele>121.83333333333334</ele><time>2026-04-19T12:46:28.258Z</time></trkpt><trkpt lat="38.7386268" lon="16.2730347"><ele>118.0</ele><time>2026-04-19T12:46:29.255Z</time></trkpt><trkpt lat="38.7386078" lon="16.2729361"><ele>116.66666666666667</ele><time>2026-04-19T12:46:30.268Z</time></trkpt><trkpt lat="38.7385939" lon="16.2728388"><ele>115.33333333333334</ele><time>2026-04-19T12:46:31.269Z</time></trkpt><trkpt lat="38.7385751" lon="16.272744"><ele>114.0</ele><time>2026-04-19T12:46:32.258Z</time></trkpt><trkpt lat="38.7385565" lon="16.2726532"><ele>112.66666666666666</ele><time>2026-04-19T12:46:33.262Z</time></trkpt><trkpt lat="38.738527" lon="16.2725743"><ele>111.33333333333333</ele><time>2026-04-19T12:46:34.258Z</time></trkpt><trkpt lat="38.7385035" lon="16.2724294"><ele>110.0</ele><time>2026-04-19T12:46:36.258Z</time></trkpt><trkpt lat="38.7384836" lon="16.2723089"><ele>108.66666666666666</ele><time>2026-04-19T12:46:38.265Z</time></trkpt><trkpt lat="38.7384867" lon="16.2722098"><ele>107.33333333333333</ele><time>2026-04-19T12:46:41.275Z</time></trkpt><trkpt lat="38.7385358" lon="16.2721404"><ele>106.0</ele><time>2026-04-19T12:46:45.27Z</time></trkpt><trkpt lat="38.7386303" lon="16.2721228"><ele>104.66666666666666</ele><time>2026-04-19T12:46:48.274Z</time></trkpt><trkpt lat="38.7386991" lon="16.272144"><ele>103.33333333333333</ele><time>2026-04-19T12:46:50.275Z</time></trkpt><trkpt lat="38.738771" lon="16.2721858"><ele>102.0</ele><time>2026-04-19T12:46:54.26Z</time></trkpt><trkpt lat="38.7387493" lon="16.2720929"><ele>102.0</ele><time>2026-04-19T12:46:58.256Z</time></trkpt><trkpt lat="38.7387309" lon="16.2720131"><ele>102.0</ele><time>2026-04-19T12:47:01.261Z</time></trkpt><trkpt lat="38.73871" lon="16.2719108"><ele>102.0</ele><time>2026-04-19T12:47:03.265Z</time></trkpt><trkpt lat="38.7386992" lon="16.2718259"><ele>102.0</ele><time>2026-04-19T12:47:05.273Z</time></trkpt><trkpt lat="38.7386915" lon="16.271721"><ele>102.0</ele><time>2026-04-19T12:47:07.248Z</time></trkpt><trkpt lat="38.7386871" lon="16.2716198"><ele>102.0</ele><time>2026-04-19T12:47:09.254Z</time></trkpt><trkpt lat="38.7386856" lon="16.2715384"><ele>102.0</ele><time>2026-04-19T12:47:11.248Z</time></trkpt><trkpt lat="38.7386781" lon="16.2714133"><ele>100.16666666666667</ele><time>2026-04-19T12:47:14.253Z</time></trkpt><trkpt lat="38.7386625" lon="16.2713152"><ele>98.33333333333333</ele><time>2026-04-19T12:47:16.262Z</time></trkpt><trkpt lat="38.7386488" lon="16.2712062"><ele>96.5</ele><time>2026-04-19T12:47:18.275Z</time></trkpt><trkpt lat="38.7386382" lon="16.2711013"><ele>94.66666666666666</ele><time>2026-04-19T12:47:20.259Z</time></trkpt><trkpt lat="38.7386337" lon="16.2710173"><ele>92.83333333333333</ele><time>2026-04-19T12:47:22.276Z</time></trkpt><trkpt lat="38.738656" lon="16.2709212"><ele>91.0</ele><time>2026-04-19T12:47:24.256Z</time></trkpt><trkpt lat="38.7386989" lon="16.2708426"><ele>91.0</ele><time>2026-04-19T12:47:26.256Z</time></trkpt><trkpt lat="38.738755" lon="16.2707472"><ele>91.0</ele><time>2026-04-19T12:47:28.262Z</time></trkpt><trkpt lat="38.7387803" lon="16.2706571"><ele>91.0</ele><time>2026-04-19T12:47:30.266Z</time></trkpt><trkpt lat="38.7388175" lon="16.2705645"><ele>91.0</ele><time>2026-04-19T12:47:32.256Z</time></trkpt><trkpt lat="38.7388567" lon="16.2705"><ele>91.0</ele><time>2026-04-19T12:47:34.254Z</time></trkpt><trkpt lat="38.7389162" lon="16.2704277"><ele>91.0</ele><time>2026-04-19T12:47:37.265Z</time></trkpt><trkpt lat="38.7389521" lon="16.2703524"><ele>89.28571428571429</ele><time>2026-04-19T12:47:39.262Z</time></trkpt><trkpt lat="38.7389525" lon="16.2702715"><ele>87.57142857142857</ele><time>2026-04-19T12:47:43.309Z</time></trkpt><trkpt lat="38.7389692" lon="16.2701823"><ele>85.85714285714286</ele><time>2026-04-19T12:47:47.178Z</time></trkpt><trkpt lat="38.7389794" lon="16.2700968"><ele>84.14285714285714</ele><time>2026-04-19T12:47:50.281Z</time></trkpt><trkpt lat="38.7389913" lon="16.270015"><ele>82.42857142857143</ele><time>2026-04-19T12:47:54.275Z</time></trkpt><trkpt lat="38.7390239" lon="16.2699231"><ele>80.71428571428572</ele><time>2026-04-19T12:47:57.313Z</time></trkpt><trkpt lat="38.7390669" lon="16.2698639"><ele>79.0</ele><time>2026-04-19T12:47:59.277Z</time></trkpt><trkpt lat="38.7391129" lon="16.2698088"><ele>79.0</ele><time>2026-04-19T12:48:01.256Z</time></trkpt><trkpt lat="38.7391734" lon="16.2697132"><ele>79.0</ele><time>2026-04-19T12:48:03.26Z</time></trkpt><trkpt lat="38.7392211" lon="16.269632"><ele>79.0</ele><time>2026-04-19T12:48:05.259Z</time></trkpt><trkpt lat="38.739272" lon="16.2695599"><ele>79.0</ele><time>2026-04-19T12:48:08.351Z</time></trkpt><trkpt lat="38.7392981" lon="16.2694466"><ele>79.0</ele><time>2026-04-19T12:48:10.254Z</time></trkpt><trkpt lat="38.7392997" lon="16.2693389"><ele>79.0</ele><time>2026-04-19T12:48:12.326Z</time></trkpt><trkpt lat="38.7393175" lon="16.2692478"><ele>79.0</ele><time>2026-04-19T12:48:13.258Z</time></trkpt><trkpt lat="38.7393019" lon="16.2691583"><ele>79.0</ele><time>2026-04-19T12:48:14.264Z</time></trkpt><trkpt lat="38.7392566" lon="16.2690116"><ele>79.0</ele><time>2026-04-19T12:48:16.269Z</time></trkpt><trkpt lat="38.7392172" lon="16.2688992"><ele>79.0</ele><time>2026-04-19T12:48:18.264Z</time></trkpt><trkpt lat="38.739152" lon="16.2687979"><ele>79.0</ele><time>2026-04-19T12:48:20.264Z</time></trkpt><trkpt lat="38.7390679" lon="16.2687041"><ele>78.0</ele><time>2026-04-19T12:48:22.26Z</time></trkpt><trkpt lat="38.7389697" lon="16.2686302"><ele>77.0</ele><time>2026-04-19T12:48:24.261Z</time></trkpt><trkpt lat="38.7388592" lon="16.2685891"><ele>76.0</ele><time>2026-04-19T12:48:26.266Z</time></trkpt><trkpt lat="38.7387737" lon="16.2684655"><ele>75.0</ele><time>2026-04-19T12:48:28.262Z</time></trkpt><trkpt lat="38.7387288" lon="16.2683975"><ele>74.0</ele><time>2026-04-19T12:48:29.263Z</time></trkpt><trkpt lat="38.7386895" lon="16.2683244"><ele>74.0</ele><time>2026-04-19T12:48:30.266Z</time></trkpt><trkpt lat="38.7386474" lon="16.2682343"><ele>74.0</ele><time>2026-04-19T12:48:31.253Z</time></trkpt><trkpt lat="38.7385967" lon="16.2681441"><ele>74.0</ele><time>2026-04-19T12:48:32.256Z</time></trkpt><trkpt lat="38.7385335" lon="16.2680555"><ele>74.0</ele><time>2026-04-19T12:48:33.255Z</time></trkpt><trkpt lat="38.7384679" lon="16.2679675"><ele>74.0</ele><time>2026-04-19T12:48:34.258Z</time></trkpt><trkpt lat="38.738405" lon="16.2678722"><ele>72.2</ele><time>2026-04-19T12:48:35.26Z</time></trkpt><trkpt lat="38.7383409" lon="16.267774"><ele>70.4</ele><time>2026-04-19T12:48:36.258Z</time></trkpt><trkpt lat="38.7382751" lon="16.2676725"><ele>68.6</ele><time>2026-04-19T12:48:37.263Z</time></trkpt><trkpt lat="38.7382068" lon="16.2675758"><ele>66.8</ele><time>2026-04-19T12:48:38.247Z</time></trkpt><trkpt lat="38.7381394" lon="16.2674867"><ele>65.0</ele><time>2026-04-19T12:48:39.254Z</time></trkpt><trkpt lat="38.7380789" lon="16.2674045"><ele>65.0</ele><time>2026-04-19T12:48:40.254Z</time></trkpt><trkpt lat="38.7380305" lon="16.2673333"><ele>65.0</ele><time>2026-04-19T12:48:41.25Z</time></trkpt><trkpt lat="38.7379971" lon="16.2672232"><ele>65.0</ele><time>2026-04-19T12:48:43.262Z</time></trkpt><trkpt lat="38.7380705" lon="16.2671197"><ele>65.0</ele><time>2026-04-19T12:48:45.267Z</time></trkpt><trkpt lat="38.7381275" lon="16.2670659"><ele>65.0</ele><time>2026-04-19T12:48:46.265Z</time></trkpt><trkpt lat="38.7381918" lon="16.2670035"><ele>65.0</ele><time>2026-04-19T12:48:47.258Z</time></trkpt><trkpt lat="38.738262" lon="16.2669325"><ele>65.0</ele><time>2026-04-19T12:48:48.269Z</time></trkpt><trkpt lat="38.7383359" lon="16.2668613"><ele>65.0</ele><time>2026-04-19T12:48:49.254Z</time></trkpt><trkpt lat="38.7384113" lon="16.2667889"><ele>65.0</ele><time>2026-04-19T12:48:50.264Z</time></trkpt><trkpt lat="38.7384846" lon="16.2667231"><ele>65.0</ele><time>2026-04-19T12:48:51.262Z</time></trkpt><trkpt lat="38.7385559" lon="16.2666755"><ele>65.0</ele><time>2026-04-19T12:48:52.255Z</time></trkpt><trkpt lat="38.7386192" lon="16.2666391"><ele>65.0</ele><time>2026-04-19T12:48:53.257Z</time></trkpt><trkpt lat="38.738685" lon="16.2665609"><ele>65.0</ele><time>2026-04-19T12:48:55.26Z</time></trkpt><trkpt lat="38.7387439" lon="16.2664975"><ele>65.0</ele><time>2026-04-19T12:49:07.263Z</time></trkpt><trkpt lat="38.7387888" lon="16.2664257"><ele>65.0</ele><time>2026-04-19T12:49:22.254Z</time></trkpt><trkpt lat="38.7387995" lon="16.2663279"><ele>65.0</ele><time>2026-04-19T12:50:08.264Z</time></trkpt><trkpt lat="38.7387984" lon="16.2662431"><ele>65.0</ele><time>2026-04-19T12:50:11.264Z</time></trkpt><trkpt lat="38.7387695" lon="16.2661624"><ele>65.0</ele><time>2026-04-19T12:50:14.261Z</time></trkpt><trkpt lat="38.738711" lon="16.2660702"><ele>65.0</ele><time>2026-04-19T12:50:55.274Z</time></trkpt><trkpt lat="38.7386438" lon="16.2660031"><ele>65.0</ele><time>2026-04-19T12:50:58.259Z</time></trkpt><trkpt lat="38.7385923" lon="16.2659441"><ele>65.0</ele><time>2026-04-19T12:51:00.25Z</time></trkpt><trkpt lat="38.7385465" lon="16.2658643"><ele>65.0</ele><time>2026-04-19T12:51:02.259Z</time></trkpt><trkpt lat="38.7385181" lon="16.2657877"><ele>65.0</ele><time>2026-04-19T12:51:04.258Z</time></trkpt><trkpt lat="38.7384861" lon="16.2657045"><ele>65.0</ele><time>2026-04-19T12:51:06.267Z</time></trkpt><trkpt lat="38.7384527" lon="16.2656048"><ele>64.0</ele><time>2026-04-19T12:51:08.251Z</time></trkpt><trkpt lat="38.7384132" lon="16.2654849"><ele>63.0</ele><time>2026-04-19T12:51:10.26Z</time></trkpt><trkpt lat="38.7383701" lon="16.2653597"><ele>62.0</ele><time>2026-04-19T12:51:12.263Z</time></trkpt><trkpt lat="38.7383233" lon="16.2652398"><ele>61.0</ele><time>2026-04-19T12:51:14.265Z</time></trkpt><trkpt lat="38.7382805" lon="16.2651383"><ele>60.0</ele><time>2026-04-19T12:51:16.257Z</time></trkpt><trkpt lat="38.7382498" lon="16.2650428"><ele>60.0</ele><time>2026-04-19T12:51:18.26Z</time></trkpt><trkpt lat="38.7382052" lon="16.2649302"><ele>60.0</ele><time>2026-04-19T12:51:20.261Z</time></trkpt><trkpt lat="38.738145" lon="16.2648258"><ele>60.0</ele><time>2026-04-19T12:51:22.253Z</time></trkpt><trkpt lat="38.7381038" lon="16.2647212"><ele>60.0</ele><time>2026-04-19T12:51:24.264Z</time></trkpt><trkpt lat="38.7380632" lon="16.2646326"><ele>60.0</ele><time>2026-04-19T12:51:26.264Z</time></trkpt><trkpt lat="38.7380417" lon="16.2645485"><ele>60.0</ele><time>2026-04-19T12:51:29.268Z</time></trkpt><trkpt lat="38.737988" lon="16.2644666"><ele>60.0</ele><time>2026-04-19T12:51:32.259Z</time></trkpt><trkpt lat="38.7379211" lon="16.264349"><ele>60.0</ele><time>2026-04-19T12:51:34.256Z</time></trkpt><trkpt lat="38.7378704" lon="16.2642502"><ele>60.0</ele><time>2026-04-19T12:51:36.25Z</time></trkpt><trkpt lat="38.7378121" lon="16.2641519"><ele>60.0</ele><time>2026-04-19T12:51:38.254Z</time></trkpt><trkpt lat="38.7377596" lon="16.2640722"><ele>60.0</ele><time>2026-04-19T12:51:40.255Z</time></trkpt><trkpt lat="38.7376877" lon="16.2640156"><ele>60.0</ele><time>2026-04-19T12:52:04.266Z</time></trkpt><trkpt lat="38.7376374" lon="16.2639609"><ele>60.0</ele><time>2026-04-19T12:52:07.259Z</time></trkpt><trkpt lat="38.7375757" lon="16.2638968"><ele>60.0</ele><time>2026-04-19T12:52:09.259Z</time></trkpt><trkpt lat="38.7375372" lon="16.2638295"><ele>60.0</ele><time>2026-04-19T12:52:12.264Z</time></trkpt><trkpt lat="38.7374952" lon="16.2637615"><ele>60.0</ele><time>2026-04-19T12:52:15.259Z</time></trkpt><trkpt lat="38.737412" lon="16.2637091"><ele>60.0</ele><time>2026-04-19T12:52:18.257Z</time></trkpt><trkpt lat="38.7373411" lon="16.2636896"><ele>60.0</ele><time>2026-04-19T12:52:24.254Z</time></trkpt><trkpt lat="38.737359" lon="16.2635969"><ele>60.142857142857146</ele><time>2026-04-19T12:53:13.258Z</time></trkpt><trkpt lat="38.7373782" lon="16.2635149"><ele>60.28571428571428</ele><time>2026-04-19T12:53:15.259Z</time></trkpt><trkpt lat="38.7373849" lon="16.2634305"><ele>60.42857142857142</ele><time>2026-04-19T12:53:18.27Z</time></trkpt><trkpt lat="38.7374037" lon="16.2633399"><ele>60.57142857142857</ele><time>2026-04-19T12:53:20.256Z</time></trkpt><trkpt lat="38.7374142" lon="16.2632579"><ele>60.71428571428571</ele><time>2026-04-19T12:53:22.261Z</time></trkpt><trkpt lat="38.7374225" lon="16.263174"><ele>60.85714285714285</ele><time>2026-04-19T12:53:24.262Z</time></trkpt><trkpt lat="38.7374284" lon="16.2630784"><ele>60.99999999999999</ele><time>2026-04-19T12:53:26.273Z</time></trkpt><trkpt lat="38.7374362" lon="16.2629818"><ele>60.99999999999999</ele><time>2026-04-19T12:53:28.263Z</time></trkpt><trkpt lat="38.7374498" lon="16.2628795"><ele>61.0</ele><time>2026-04-19T12:53:32.266Z</time></trkpt><trkpt lat="38.7374933" lon="16.2627686"><ele>61.0</ele><time>2026-04-19T12:53:35.265Z</time></trkpt><trkpt lat="38.737526" lon="16.2626843"><ele>61.0</ele><time>2026-04-19T12:53:37.271Z</time></trkpt><trkpt lat="38.7375591" lon="16.2626047"><ele>60.99999999999999</ele><time>2026-04-19T12:53:39.269Z</time></trkpt><trkpt lat="38.7375864" lon="16.2625132"><ele>61.0</ele><time>2026-04-19T12:53:41.264Z</time></trkpt><trkpt lat="38.7376144" lon="16.2624091"><ele>60.99999999999999</ele><time>2026-04-19T12:53:43.254Z</time></trkpt><trkpt lat="38.7376449" lon="16.2622906"><ele>61.0</ele><time>2026-04-19T12:53:45.256Z</time></trkpt><trkpt lat="38.7376748" lon="16.2622012"><ele>61.0</ele><time>2026-04-19T12:53:47.25Z</time></trkpt><trkpt lat="38.7377032" lon="16.2621259"><ele>61.0</ele><time>2026-04-19T12:53:50.261Z</time></trkpt><trkpt lat="38.7377248" lon="16.2620272"><ele>60.99999999999999</ele><time>2026-04-19T12:53:53.252Z</time></trkpt><trkpt lat="38.7377438" lon="16.2619395"><ele>61.0</ele><time>2026-04-19T12:53:56.259Z</time></trkpt><trkpt lat="38.7377747" lon="16.2618302"><ele>60.33333333333333</ele><time>2026-04-19T12:53:59.263Z</time></trkpt><trkpt lat="38.7378089" lon="16.2617325"><ele>59.666666666666664</ele><time>2026-04-19T12:54:02.249Z</time></trkpt><trkpt lat="38.7378217" lon="16.2616387"><ele>59.0</ele><time>2026-04-19T12:54:04.256Z</time></trkpt><trkpt lat="38.7378378" lon="16.2615422"><ele>58.33333333333333</ele><time>2026-04-19T12:54:06.25Z</time></trkpt><trkpt lat="38.7378478" lon="16.261434"><ele>57.666666666666664</ele><time>2026-04-19T12:54:11.265Z</time></trkpt><trkpt lat="38.7378742" lon="16.2613217"><ele>57.0</ele><time>2026-04-19T12:54:13.272Z</time></trkpt><trkpt lat="38.7379612" lon="16.2613262"><ele>56.833333333333336</ele><time>2026-04-19T12:54:16.255Z</time></trkpt><trkpt lat="38.7380244" lon="16.261328"><ele>56.66666666666667</ele><time>2026-04-19T12:54:19.27Z</time></trkpt><trkpt lat="38.7381019" lon="16.2613019"><ele>56.5</ele><time>2026-04-19T12:54:22.267Z</time></trkpt><trkpt lat="38.7381705" lon="16.2612664"><ele>56.333333333333336</ele><time>2026-04-19T12:54:24.26Z</time></trkpt><trkpt lat="38.7382386" lon="16.2612393"><ele>56.16666666666667</ele><time>2026-04-19T12:54:26.262Z</time></trkpt><trkpt lat="38.7383296" lon="16.2612279"><ele>56.0</ele><time>2026-04-19T12:54:28.266Z</time></trkpt><trkpt lat="38.7384293" lon="16.2612084"><ele>56.0</ele><time>2026-04-19T12:54:30.25Z</time></trkpt><trkpt lat="38.7384955" lon="16.2611976"><ele>55.99999999999999</ele><time>2026-04-19T12:54:32.259Z</time></trkpt><trkpt lat="38.7385673" lon="16.2611805"><ele>55.99999999999999</ele><time>2026-04-19T12:54:34.255Z</time></trkpt><trkpt lat="38.7386737" lon="16.2611541"><ele>56.0</ele><time>2026-04-19T12:54:36.246Z</time></trkpt><trkpt lat="38.7387647" lon="16.261097"><ele>56.0</ele><time>2026-04-19T12:54:38.256Z</time></trkpt><trkpt lat="38.7387325" lon="16.2609664"><ele>56.00000000000001</ele><time>2026-04-19T12:54:40.266Z</time></trkpt><trkpt lat="38.7386935" lon="16.2608877"><ele>56.0</ele><time>2026-04-19T12:54:41.249Z</time></trkpt><trkpt lat="38.7386266" lon="16.2608177"><ele>56.0</ele><time>2026-04-19T12:54:42.256Z</time></trkpt><trkpt lat="38.7385521" lon="16.2607533"><ele>56.0</ele><time>2026-04-19T12:54:43.252Z</time></trkpt><trkpt lat="38.7384792" lon="16.2606856"><ele>56.00000000000001</ele><time>2026-04-19T12:54:44.254Z</time></trkpt><trkpt lat="38.7384352" lon="16.2606017"><ele>56.0</ele><time>2026-04-19T12:54:45.252Z</time></trkpt><trkpt lat="38.7384141" lon="16.2605054"><ele>55.66666666666667</ele><time>2026-04-19T12:54:46.249Z</time></trkpt><trkpt lat="38.738383" lon="16.2604156"><ele>55.333333333333336</ele><time>2026-04-19T12:54:47.249Z</time></trkpt><trkpt lat="38.7383531" lon="16.2603314"><ele>55.0</ele><time>2026-04-19T12:54:48.254Z</time></trkpt><trkpt lat="38.7383326" lon="16.2602517"><ele>54.66666666666667</ele><time>2026-04-19T12:54:49.259Z</time></trkpt><trkpt lat="38.7383197" lon="16.2601715"><ele>54.333333333333336</ele><time>2026-04-19T12:54:50.25Z</time></trkpt><trkpt lat="38.7383109" lon="16.260091"><ele>54.0</ele><time>2026-04-19T12:54:51.255Z</time></trkpt><trkpt lat="38.7382918" lon="16.2599317"><ele>53.2</ele><time>2026-04-19T12:54:53.257Z</time></trkpt><trkpt lat="38.7382863" lon="16.2597814"><ele>52.400000000000006</ele><time>2026-04-19T12:54:55.262Z</time></trkpt><trkpt lat="38.7382488" lon="16.2596461"><ele>51.6</ele><time>2026-04-19T12:54:57.25Z</time></trkpt><trkpt lat="38.7382369" lon="16.2594909"><ele>50.8</ele><time>2026-04-19T12:54:59.257Z</time></trkpt><trkpt lat="38.7382311" lon="16.2594098"><ele>50.0</ele><time>2026-04-19T12:55:00.253Z</time></trkpt><trkpt lat="38.7382251" lon="16.259302"><ele>50.0</ele><time>2026-04-19T12:55:01.26Z</time></trkpt><trkpt lat="38.7382264" lon="16.2591738"><ele>50.0</ele><time>2026-04-19T12:55:02.248Z</time></trkpt><trkpt lat="38.7382413" lon="16.2590554"><ele>50.0</ele><time>2026-04-19T12:55:03.253Z</time></trkpt><trkpt lat="38.7382525" lon="16.2589346"><ele>50.0</ele><time>2026-04-19T12:55:04.253Z</time></trkpt><trkpt lat="38.7382378" lon="16.2588222"><ele>50.0</ele><time>2026-04-19T12:55:05.26Z</time></trkpt><trkpt lat="38.738216" lon="16.258725"><ele>49.2</ele><time>2026-04-19T12:55:06.26Z</time></trkpt><trkpt lat="38.7381929" lon="16.258649"><ele>48.4</ele><time>2026-04-19T12:55:07.262Z</time></trkpt><trkpt lat="38.7381714" lon="16.2584877"><ele>47.599999999999994</ele><time>2026-04-19T12:55:09.248Z</time></trkpt><trkpt lat="38.7381506" lon="16.2583805"><ele>46.8</ele><time>2026-04-19T12:55:10.252Z</time></trkpt><trkpt lat="38.7381496" lon="16.2582519"><ele>46.0</ele><time>2026-04-19T12:55:11.261Z</time></trkpt><trkpt lat="38.7381352" lon="16.2581273"><ele>46.5</ele><time>2026-04-19T12:55:12.252Z</time></trkpt><trkpt lat="38.7381052" lon="16.2579987"><ele>47.0</ele><time>2026-04-19T12:55:13.249Z</time></trkpt><trkpt lat="38.7380782" lon="16.2578912"><ele>47.5</ele><time>2026-04-19T12:55:14.258Z</time></trkpt><trkpt lat="38.7380539" lon="16.2577867"><ele>48.0</ele><time>2026-04-19T12:55:15.25Z</time></trkpt><trkpt lat="38.7380292" lon="16.2576911"><ele>48.49999999999999</ele><time>2026-04-19T12:55:16.263Z</time></trkpt><trkpt lat="38.7380058" lon="16.2575931"><ele>49.0</ele><time>2026-04-19T12:55:17.253Z</time></trkpt><trkpt lat="38.7379874" lon="16.2574876"><ele>48.99999999999999</ele><time>2026-04-19T12:55:18.25Z</time></trkpt><trkpt lat="38.737997" lon="16.2573604"><ele>49.0</ele><time>2026-04-19T12:55:19.257Z</time></trkpt><trkpt lat="38.7380071" lon="16.2572435"><ele>49.0</ele><time>2026-04-19T12:55:20.256Z</time></trkpt><trkpt lat="38.7380116" lon="16.257132"><ele>49.0</ele><time>2026-04-19T12:55:21.253Z</time></trkpt><trkpt lat="38.7379705" lon="16.2570357"><ele>48.99999999999999</ele><time>2026-04-19T12:55:22.249Z</time></trkpt><trkpt lat="38.7379125" lon="16.2569659"><ele>49.0</ele><time>2026-04-19T12:55:23.243Z</time></trkpt><trkpt lat="38.7378568" lon="16.2568846"><ele>48.6</ele><time>2026-04-19T12:55:24.243Z</time></trkpt><trkpt lat="38.737813" lon="16.2567982"><ele>48.2</ele><time>2026-04-19T12:55:25.247Z</time></trkpt><trkpt lat="38.7377629" lon="16.2566986"><ele>47.800000000000004</ele><time>2026-04-19T12:55:26.248Z</time></trkpt><trkpt lat="38.7377287" lon="16.2565716"><ele>47.400000000000006</ele><time>2026-04-19T12:55:27.245Z</time></trkpt><trkpt lat="38.7376971" lon="16.2564456"><ele>47.0</ele><time>2026-04-19T12:55:28.246Z</time></trkpt><trkpt lat="38.7376783" lon="16.2563089"><ele>47.0</ele><time>2026-04-19T12:55:29.255Z</time></trkpt><trkpt lat="38.7376698" lon="16.2561918"><ele>47.0</ele><time>2026-04-19T12:55:30.259Z</time></trkpt><trkpt lat="38.7376633" lon="16.2560866"><ele>47.0</ele><time>2026-04-19T12:55:31.253Z</time></trkpt><trkpt lat="38.7376649" lon="16.256004"><ele>47.0</ele><time>2026-04-19T12:55:32.253Z</time></trkpt><trkpt lat="38.737682" lon="16.2559163"><ele>47.0</ele><time>2026-04-19T12:55:33.25Z</time></trkpt><trkpt lat="38.737709" lon="16.2558205"><ele>47.0</ele><time>2026-04-19T12:55:34.253Z</time></trkpt><trkpt lat="38.7377214" lon="16.2557091"><ele>48.83333333333333</ele><time>2026-04-19T12:55:35.252Z</time></trkpt><trkpt lat="38.7377112" lon="16.2556025"><ele>50.666666666666664</ele><time>2026-04-19T12:55:36.25Z</time></trkpt><trkpt lat="38.7377053" lon="16.2554997"><ele>52.5</ele><time>2026-04-19T12:55:37.25Z</time></trkpt><trkpt lat="38.7377032" lon="16.2554036"><ele>54.33333333333333</ele><time>2026-04-19T12:55:38.25Z</time></trkpt><trkpt lat="38.7377003" lon="16.2553043"><ele>56.166666666666664</ele><time>2026-04-19T12:55:39.251Z</time></trkpt><trkpt lat="38.7376704" lon="16.2552044"><ele>58.0</ele><time>2026-04-19T12:55:40.25Z</time></trkpt><trkpt lat="38.7376343" lon="16.2551079"><ele>57.99999999999999</ele><time>2026-04-19T12:55:41.256Z</time></trkpt><trkpt lat="38.737589" lon="16.2550228"><ele>58.0</ele><time>2026-04-19T12:55:42.259Z</time></trkpt><trkpt lat="38.7375472" lon="16.2549436"><ele>58.0</ele><time>2026-04-19T12:55:43.256Z</time></trkpt><trkpt lat="38.7374661" lon="16.254845"><ele>58.0</ele><time>2026-04-19T12:55:45.255Z</time></trkpt><trkpt lat="38.7374091" lon="16.2548093"><ele>57.99999999999999</ele><time>2026-04-19T12:55:46.257Z</time></trkpt><trkpt lat="38.7373469" lon="16.254773"><ele>58.0</ele><time>2026-04-19T12:55:47.253Z</time></trkpt><trkpt lat="38.7372884" lon="16.2547302"><ele>59.0</ele><time>2026-04-19T12:55:48.252Z</time></trkpt><trkpt lat="38.7372299" lon="16.2546043"><ele>60.0</ele><time>2026-04-19T12:55:50.255Z</time></trkpt><trkpt lat="38.7372325" lon="16.2544535"><ele>61.0</ele><time>2026-04-19T12:55:52.264Z</time></trkpt><trkpt lat="38.7372622" lon="16.2543628"><ele>62.0</ele><time>2026-04-19T12:55:53.253Z</time></trkpt><trkpt lat="38.7372943" lon="16.2542756"><ele>63.0</ele><time>2026-04-19T12:55:54.257Z</time></trkpt><trkpt lat="38.7373349" lon="16.2541906"><ele>63.0</ele><time>2026-04-19T12:55:55.254Z</time></trkpt><trkpt lat="38.7373774" lon="16.2541152"><ele>63.0</ele><time>2026-04-19T12:55:56.255Z</time></trkpt><trkpt lat="38.7374174" lon="16.2540409"><ele>63.0</ele><time>2026-04-19T12:55:57.25Z</time></trkpt><trkpt lat="38.7374522" lon="16.2539662"><ele>63.0</ele><time>2026-04-19T12:55:58.246Z</time></trkpt><trkpt lat="38.7374803" lon="16.2538918"><ele>63.0</ele><time>2026-04-19T12:55:59.261Z</time></trkpt><trkpt lat="38.737514" lon="16.2537877"><ele>63.0</ele><time>2026-04-19T12:56:01.245Z</time></trkpt><trkpt lat="38.7375354" lon="16.2537099"><ele>63.0</ele><time>2026-04-19T12:57:37.253Z</time></trkpt><trkpt lat="38.7375435" lon="16.2535854"><ele>63.0</ele><time>2026-04-19T12:57:42.273Z</time></trkpt><trkpt lat="38.7375485" lon="16.2534384"><ele>63.0</ele><time>2026-04-19T12:57:44.265Z</time></trkpt><trkpt lat="38.7375536" lon="16.2533436"><ele>63.0</ele><time>2026-04-19T12:57:45.256Z</time></trkpt><trkpt lat="38.7375559" lon="16.2532423"><ele>63.0</ele><time>2026-04-19T12:57:46.247Z</time></trkpt><trkpt lat="38.7375565" lon="16.2531365"><ele>63.0</ele><time>2026-04-19T12:57:47.281Z</time></trkpt><trkpt lat="38.7375575" lon="16.2530291"><ele>63.0</ele><time>2026-04-19T12:57:48.257Z</time></trkpt><trkpt lat="38.7375571" lon="16.2529198"><ele>62.8</ele><time>2026-04-19T12:57:49.259Z</time></trkpt><trkpt lat="38.7375541" lon="16.2528076"><ele>62.599999999999994</ele><time>2026-04-19T12:57:50.258Z</time></trkpt><trkpt lat="38.7375457" lon="16.2526914"><ele>62.400000000000006</ele><time>2026-04-19T12:57:51.251Z</time></trkpt><trkpt lat="38.7375388" lon="16.2525689"><ele>62.2</ele><time>2026-04-19T12:57:52.253Z</time></trkpt><trkpt lat="38.7375314" lon="16.2524382"><ele>62.0</ele><time>2026-04-19T12:57:53.255Z</time></trkpt><trkpt lat="38.7375304" lon="16.2522825"><ele>62.0</ele><time>2026-04-19T12:57:54.251Z</time></trkpt><trkpt lat="38.7375299" lon="16.2521025"><ele>62.0</ele><time>2026-04-19T12:57:55.257Z</time></trkpt><trkpt lat="38.7375296" lon="16.251881"><ele>62.0</ele><time>2026-04-19T12:57:56.258Z</time></trkpt><trkpt lat="38.737529" lon="16.251642"><ele>60.66666666666667</ele><time>2026-04-19T12:57:57.255Z</time></trkpt><trkpt lat="38.737529" lon="16.2513872"><ele>59.33333333333333</ele><time>2026-04-19T12:57:58.258Z</time></trkpt><trkpt lat="38.73753" lon="16.2511405"><ele>58.0</ele><time>2026-04-19T12:57:59.257Z</time></trkpt><trkpt lat="38.7375351" lon="16.2509106"><ele>58.0</ele><time>2026-04-19T12:58:00.268Z</time></trkpt><trkpt lat="38.7375412" lon="16.2506882"><ele>58.0</ele><time>2026-04-19T12:58:01.269Z</time></trkpt><trkpt lat="38.7375476" lon="16.2504682"><ele>58.0</ele><time>2026-04-19T12:58:02.254Z</time></trkpt><trkpt lat="38.7375546" lon="16.2502543"><ele>56.5</ele><time>2026-04-19T12:58:03.251Z</time></trkpt><trkpt lat="38.737563" lon="16.2500507"><ele>55.0</ele><time>2026-04-19T12:58:04.256Z</time></trkpt><trkpt lat="38.7375832" lon="16.2498666"><ele>53.5</ele><time>2026-04-19T12:58:05.251Z</time></trkpt><trkpt lat="38.7376184" lon="16.2497216"><ele>52.0</ele><time>2026-04-19T12:58:06.258Z</time></trkpt><trkpt lat="38.73766" lon="16.2496092"><ele>52.25</ele><time>2026-04-19T12:58:07.258Z</time></trkpt><trkpt lat="38.737715" lon="16.2494855"><ele>52.5</ele><time>2026-04-19T12:58:08.256Z</time></trkpt><trkpt lat="38.7378072" lon="16.2493412"><ele>52.75</ele><time>2026-04-19T12:58:09.268Z</time></trkpt><trkpt lat="38.7379068" lon="16.2491818"><ele>53.0</ele><time>2026-04-19T12:58:10.259Z</time></trkpt><trkpt lat="38.7380035" lon="16.2490223"><ele>52.66666666666667</ele><time>2026-04-19T12:58:11.262Z</time></trkpt><trkpt lat="38.7380968" lon="16.2488561"><ele>52.33333333333333</ele><time>2026-04-19T12:58:12.269Z</time></trkpt><trkpt lat="38.7381946" lon="16.2486783"><ele>52.0</ele><time>2026-04-19T12:58:13.258Z</time></trkpt><trkpt lat="38.7382965" lon="16.2484999"><ele>52.0</ele><time>2026-04-19T12:58:14.253Z</time></trkpt><trkpt lat="38.7384003" lon="16.2483195"><ele>52.0</ele><time>2026-04-19T12:58:15.256Z</time></trkpt><trkpt lat="38.7385047" lon="16.2481387"><ele>52.0</ele><time>2026-04-19T12:58:16.266Z</time></trkpt><trkpt lat="38.7386067" lon="16.2479594"><ele>54.33333333333333</ele><time>2026-04-19T12:58:17.257Z</time></trkpt><trkpt lat="38.738718" lon="16.2477658"><ele>56.66666666666667</ele><time>2026-04-19T12:58:18.255Z</time></trkpt><trkpt lat="38.7388134" lon="16.2475967"><ele>59.0</ele><time>2026-04-19T12:58:19.254Z</time></trkpt><trkpt lat="38.7389063" lon="16.2474376"><ele>57.333333333333336</ele><time>2026-04-19T12:58:20.253Z</time></trkpt><trkpt lat="38.7389907" lon="16.2472674"><ele>55.66666666666667</ele><time>2026-04-19T12:58:21.262Z</time></trkpt><trkpt lat="38.7390471" lon="16.2470884"><ele>54.0</ele><time>2026-04-19T12:58:22.25Z</time></trkpt><trkpt lat="38.7390964" lon="16.2468916"><ele>54.0</ele><time>2026-04-19T12:58:23.255Z</time></trkpt><trkpt lat="38.739138" lon="16.2466736"><ele>54.0</ele><time>2026-04-19T12:58:24.259Z</time></trkpt><trkpt lat="38.7391793" lon="16.2464571"><ele>54.0</ele><time>2026-04-19T12:58:25.254Z</time></trkpt><trkpt lat="38.7392115" lon="16.2462396"><ele>55.66666666666667</ele><time>2026-04-19T12:58:26.263Z</time></trkpt><trkpt lat="38.7392469" lon="16.2460364"><ele>57.333333333333336</ele><time>2026-04-19T12:58:27.254Z</time></trkpt><trkpt lat="38.7392865" lon="16.2458451"><ele>59.0</ele><time>2026-04-19T12:58:28.248Z</time></trkpt><trkpt lat="38.7393347" lon="16.245663"><ele>64.25</ele><time>2026-04-19T12:58:29.251Z</time></trkpt><trkpt lat="38.739401" lon="16.245487"><ele>69.5</ele><time>2026-04-19T12:58:30.248Z</time></trkpt><trkpt lat="38.7394638" lon="16.245323"><ele>74.75</ele><time>2026-04-19T12:58:31.253Z</time></trkpt><trkpt lat="38.7394957" lon="16.2451701"><ele>80.0</ele><time>2026-04-19T12:58:32.25Z</time></trkpt><trkpt lat="38.7394947" lon="16.2450246"><ele>80.0</ele><time>2026-04-19T12:58:33.257Z</time></trkpt><trkpt lat="38.7394649" lon="16.2448902"><ele>80.0</ele><time>2026-04-19T12:58:34.253Z</time></trkpt><trkpt lat="38.7394018" lon="16.2447853"><ele>80.0</ele><time>2026-04-19T12:58:35.249Z</time></trkpt><trkpt lat="38.7393288" lon="16.244703"><ele>80.0</ele><time>2026-04-19T12:58:36.261Z</time></trkpt><trkpt lat="38.7392134" lon="16.2446513"><ele>80.0</ele><time>2026-04-19T12:58:37.257Z</time></trkpt><trkpt lat="38.7390734" lon="16.2446216"><ele>78.75</ele><time>2026-04-19T12:58:38.25Z</time></trkpt><trkpt lat="38.7389271" lon="16.2446188"><ele>77.5</ele><time>2026-04-19T12:58:39.258Z</time></trkpt><trkpt lat="38.7387835" lon="16.2446051"><ele>76.25</ele><time>2026-04-19T12:58:40.257Z</time></trkpt><trkpt lat="38.7386517" lon="16.2445859"><ele>75.0</ele><time>2026-04-19T12:58:41.253Z</time></trkpt><trkpt lat="38.7385349" lon="16.2445404"><ele>72.25</ele><time>2026-04-19T12:58:42.262Z</time></trkpt><trkpt lat="38.7384319" lon="16.24446"><ele>69.5</ele><time>2026-04-19T12:58:43.264Z</time></trkpt><trkpt lat="38.7383532" lon="16.2443603"><ele>66.75</ele><time>2026-04-19T12:58:44.253Z</time></trkpt><trkpt lat="38.738301" lon="16.2442328"><ele>64.0</ele><time>2026-04-19T12:58:45.262Z</time></trkpt><trkpt lat="38.7382716" lon="16.2440811"><ele>62.75</ele><time>2026-04-19T12:58:46.246Z</time></trkpt><trkpt lat="38.7382779" lon="16.2439276"><ele>61.5</ele><time>2026-04-19T12:58:47.25Z</time></trkpt><trkpt lat="38.7383204" lon="16.2437733"><ele>60.25</ele><time>2026-04-19T12:58:48.261Z</time></trkpt><trkpt lat="38.738384" lon="16.2436342"><ele>59.0</ele><time>2026-04-19T12:58:49.259Z</time></trkpt><trkpt lat="38.7385084" lon="16.2435265"><ele>64.33333333333334</ele><time>2026-04-19T12:58:50.255Z</time></trkpt><trkpt lat="38.7386724" lon="16.2434447"><ele>69.66666666666667</ele><time>2026-04-19T12:58:51.261Z</time></trkpt><trkpt lat="38.7388553" lon="16.243354"><ele>75.0</ele><time>2026-04-19T12:58:52.263Z</time></trkpt><trkpt lat="38.7390504" lon="16.2432602"><ele>75.0</ele><time>2026-04-19T12:58:53.249Z</time></trkpt><trkpt lat="38.7392114" lon="16.2431775"><ele>75.0</ele><time>2026-04-19T12:58:54.266Z</time></trkpt><trkpt lat="38.7393479" lon="16.2431103"><ele>75.0</ele><time>2026-04-19T12:58:55.265Z</time></trkpt><trkpt lat="38.7394735" lon="16.2430511"><ele>73.25</ele><time>2026-04-19T12:58:56.251Z</time></trkpt><trkpt lat="38.7395976" lon="16.2429895"><ele>71.5</ele><time>2026-04-19T12:58:57.262Z</time></trkpt><trkpt lat="38.7397094" lon="16.2429302"><ele>69.75</ele><time>2026-04-19T12:58:58.26Z</time></trkpt><trkpt lat="38.7398111" lon="16.2428677"><ele>68.0</ele><time>2026-04-19T12:58:59.257Z</time></trkpt><trkpt lat="38.739904" lon="16.2428184"><ele>68.0</ele><time>2026-04-19T12:59:00.271Z</time></trkpt><trkpt lat="38.7399997" lon="16.2427749"><ele>68.0</ele><time>2026-04-19T12:59:01.264Z</time></trkpt><trkpt lat="38.740099" lon="16.2427282"><ele>68.0</ele><time>2026-04-19T12:59:02.248Z</time></trkpt><trkpt lat="38.7402085" lon="16.2426733"><ele>68.0</ele><time>2026-04-19T12:59:03.255Z</time></trkpt><trkpt lat="38.7403309" lon="16.2426057"><ele>67.66666666666667</ele><time>2026-04-19T12:59:04.255Z</time></trkpt><trkpt lat="38.7404587" lon="16.2425159"><ele>67.33333333333333</ele><time>2026-04-19T12:59:05.258Z</time></trkpt><trkpt lat="38.7405843" lon="16.242402"><ele>67.0</ele><time>2026-04-19T12:59:06.256Z</time></trkpt><trkpt lat="38.7407053" lon="16.2422692"><ele>67.0</ele><time>2026-04-19T12:59:07.248Z</time></trkpt><trkpt lat="38.7408273" lon="16.2421265"><ele>67.0</ele><time>2026-04-19T12:59:08.252Z</time></trkpt><trkpt lat="38.7409546" lon="16.2419857"><ele>67.0</ele><time>2026-04-19T12:59:09.257Z</time></trkpt><trkpt lat="38.7410876" lon="16.2418534"><ele>69.0</ele><time>2026-04-19T12:59:10.264Z</time></trkpt><trkpt lat="38.7412185" lon="16.2417261"><ele>71.0</ele><time>2026-04-19T12:59:11.257Z</time></trkpt><trkpt lat="38.7413496" lon="16.2416026"><ele>73.0</ele><time>2026-04-19T12:59:12.266Z</time></trkpt><trkpt lat="38.7414792" lon="16.2414781"><ele>67.33333333333333</ele><time>2026-04-19T12:59:13.26Z</time></trkpt><trkpt lat="38.7416088" lon="16.241355"><ele>61.66666666666667</ele><time>2026-04-19T12:59:14.256Z</time></trkpt><trkpt lat="38.7417431" lon="16.2412343"><ele>56.0</ele><time>2026-04-19T12:59:15.255Z</time></trkpt><trkpt lat="38.7418782" lon="16.241112"><ele>58.0</ele><time>2026-04-19T12:59:16.259Z</time></trkpt><trkpt lat="38.7420213" lon="16.2409822"><ele>60.0</ele><time>2026-04-19T12:59:17.262Z</time></trkpt><trkpt lat="38.7421577" lon="16.2408575"><ele>62.0</ele><time>2026-04-19T12:59:18.262Z</time></trkpt><trkpt lat="38.7422774" lon="16.240756"><ele>62.0</ele><time>2026-04-19T12:59:19.272Z</time></trkpt><trkpt lat="38.7423848" lon="16.2406858"><ele>62.0</ele><time>2026-04-19T12:59:20.255Z</time></trkpt><trkpt lat="38.7424809" lon="16.2406475"><ele>62.0</ele><time>2026-04-19T12:59:21.277Z</time></trkpt><trkpt lat="38.7425796" lon="16.2406599"><ele>62.0</ele><time>2026-04-19T12:59:22.267Z</time></trkpt><trkpt lat="38.7426755" lon="16.2407144"><ele>62.0</ele><time>2026-04-19T12:59:23.26Z</time></trkpt><trkpt lat="38.7427502" lon="16.2408145"><ele>59.75</ele><time>2026-04-19T12:59:24.263Z</time></trkpt><trkpt lat="38.7428107" lon="16.2409585"><ele>57.5</ele><time>2026-04-19T12:59:25.272Z</time></trkpt><trkpt lat="38.7428634" lon="16.2411309"><ele>55.25</ele><time>2026-04-19T12:59:26.265Z</time></trkpt><trkpt lat="38.7429207" lon="16.2412951"><ele>53.0</ele><time>2026-04-19T12:59:27.266Z</time></trkpt><trkpt lat="38.7429932" lon="16.2414274"><ele>54.4</ele><time>2026-04-19T12:59:28.258Z</time></trkpt><trkpt lat="38.7430791" lon="16.2415242"><ele>55.8</ele><time>2026-04-19T12:59:29.259Z</time></trkpt><trkpt lat="38.7431765" lon="16.2415865"><ele>57.2</ele><time>2026-04-19T12:59:30.249Z</time></trkpt><trkpt lat="38.743283" lon="16.2416137"><ele>58.6</ele><time>2026-04-19T12:59:31.268Z</time></trkpt><trkpt lat="38.7433915" lon="16.2416003"><ele>60.0</ele><time>2026-04-19T12:59:32.268Z</time></trkpt><trkpt lat="38.7434949" lon="16.2415486"><ele>67.0</ele><time>2026-04-19T12:59:33.265Z</time></trkpt><trkpt lat="38.7435859" lon="16.2414518"><ele>74.0</ele><time>2026-04-19T12:59:34.253Z</time></trkpt><trkpt lat="38.7436635" lon="16.2413109"><ele>81.0</ele><time>2026-04-19T12:59:35.27Z</time></trkpt><trkpt lat="38.7437417" lon="16.2411489"><ele>88.0</ele><time>2026-04-19T12:59:36.256Z</time></trkpt><trkpt lat="38.7437799" lon="16.2409444"><ele>88.0</ele><time>2026-04-19T12:59:37.255Z</time></trkpt><trkpt lat="38.743816" lon="16.2407744"><ele>88.0</ele><time>2026-04-19T12:59:38.26Z</time></trkpt><trkpt lat="38.7438513" lon="16.2406419"><ele>88.0</ele><time>2026-04-19T12:59:39.265Z</time></trkpt><trkpt lat="38.7439066" lon="16.2405028"><ele>88.0</ele><time>2026-04-19T12:59:40.262Z</time></trkpt><trkpt lat="38.7439797" lon="16.2403583"><ele>83.75</ele><time>2026-04-19T12:59:41.257Z</time></trkpt><trkpt lat="38.7440683" lon="16.2402113"><ele>79.5</ele><time>2026-04-19T12:59:42.259Z</time></trkpt><trkpt lat="38.7441588" lon="16.2400904"><ele>75.25</ele><time>2026-04-19T12:59:43.256Z</time></trkpt><trkpt lat="38.7442572" lon="16.2400075"><ele>71.0</ele><time>2026-04-19T12:59:44.272Z</time></trkpt><trkpt lat="38.7443657" lon="16.2399422"><ele>71.0</ele><time>2026-04-19T12:59:45.27Z</time></trkpt><trkpt lat="38.7444865" lon="16.2398953"><ele>71.0</ele><time>2026-04-19T12:59:46.263Z</time></trkpt><trkpt lat="38.7446154" lon="16.2398593"><ele>71.0</ele><time>2026-04-19T12:59:47.265Z</time></trkpt><trkpt lat="38.7447525" lon="16.2398215"><ele>71.0</ele><time>2026-04-19T12:59:48.26Z</time></trkpt><trkpt lat="38.7449012" lon="16.2397793"><ele>71.0</ele><time>2026-04-19T12:59:49.272Z</time></trkpt><trkpt lat="38.7450744" lon="16.2397277"><ele>71.0</ele><time>2026-04-19T12:59:50.274Z</time></trkpt><trkpt lat="38.7452481" lon="16.2396815"><ele>71.0</ele><time>2026-04-19T12:59:51.27Z</time></trkpt><trkpt lat="38.7453926" lon="16.2396439"><ele>73.0</ele><time>2026-04-19T12:59:52.271Z</time></trkpt><trkpt lat="38.7455157" lon="16.2396075"><ele>75.0</ele><time>2026-04-19T12:59:53.27Z</time></trkpt><trkpt lat="38.7456263" lon="16.2395715"><ele>77.0</ele><time>2026-04-19T12:59:54.255Z</time></trkpt><trkpt lat="38.7457171" lon="16.239544"><ele>79.0</ele><time>2026-04-19T12:59:55.275Z</time></trkpt><trkpt lat="38.7457887" lon="16.2395278"><ele>81.0</ele><time>2026-04-19T12:59:56.278Z</time></trkpt><trkpt lat="38.7458614" lon="16.239516"><ele>81.0</ele><time>2026-04-19T12:59:57.262Z</time></trkpt><trkpt lat="38.7459506" lon="16.2395125"><ele>81.0</ele><time>2026-04-19T12:59:58.262Z</time></trkpt><trkpt lat="38.7460501" lon="16.2395307"><ele>81.0</ele><time>2026-04-19T12:59:59.265Z</time></trkpt><trkpt lat="38.7461454" lon="16.2395785"><ele>81.0</ele><time>2026-04-19T13:00:00.254Z</time></trkpt><trkpt lat="38.7462339" lon="16.2396297"><ele>81.0</ele><time>2026-04-19T13:00:01.268Z</time></trkpt><trkpt lat="38.7463001" lon="16.2397439"><ele>83.5</ele><time>2026-04-19T13:00:02.264Z</time></trkpt><trkpt lat="38.7463637" lon="16.2398839"><ele>86.0</ele><time>2026-04-19T13:00:03.245Z</time></trkpt><trkpt lat="38.7464228" lon="16.240063"><ele>88.5</ele><time>2026-04-19T13:00:04.271Z</time></trkpt><trkpt lat="38.7464829" lon="16.240265"><ele>91.0</ele><time>2026-04-19T13:00:05.265Z</time></trkpt><trkpt lat="38.7465469" lon="16.2404492"><ele>91.0</ele><time>2026-04-19T13:00:06.26Z</time></trkpt><trkpt lat="38.7466062" lon="16.2406176"><ele>91.0</ele><time>2026-04-19T13:00:07.262Z</time></trkpt><trkpt lat="38.7466637" lon="16.2407597"><ele>91.0</ele><time>2026-04-19T13:00:08.271Z</time></trkpt><trkpt lat="38.7467292" lon="16.240874"><ele>91.0</ele><time>2026-04-19T13:00:09.245Z</time></trkpt><trkpt lat="38.7468011" lon="16.2409809"><ele>87.5</ele><time>2026-04-19T13:00:10.265Z</time></trkpt><trkpt lat="38.746889" lon="16.2410742"><ele>84.0</ele><time>2026-04-19T13:00:11.26Z</time></trkpt><trkpt lat="38.7469895" lon="16.241148"><ele>80.5</ele><time>2026-04-19T13:00:12.246Z</time></trkpt><trkpt lat="38.747102" lon="16.2411883"><ele>77.0</ele><time>2026-04-19T13:00:13.264Z</time></trkpt><trkpt lat="38.7472227" lon="16.2411993"><ele>77.0</ele><time>2026-04-19T13:00:14.268Z</time></trkpt><trkpt lat="38.7473505" lon="16.241172"><ele>77.0</ele><time>2026-04-19T13:00:15.25Z</time></trkpt><trkpt lat="38.7474799" lon="16.2411128"><ele>77.0</ele><time>2026-04-19T13:00:16.252Z</time></trkpt><trkpt lat="38.7475973" lon="16.2410197"><ele>77.0</ele><time>2026-04-19T13:00:17.259Z</time></trkpt><trkpt lat="38.7477074" lon="16.2408996"><ele>80.25</ele><time>2026-04-19T13:00:18.252Z</time></trkpt><trkpt lat="38.7478089" lon="16.2407699"><ele>83.5</ele><time>2026-04-19T13:00:19.266Z</time></trkpt><trkpt lat="38.7479104" lon="16.2406462"><ele>86.75</ele><time>2026-04-19T13:00:20.264Z</time></trkpt><trkpt lat="38.7480163" lon="16.2405342"><ele>90.0</ele><time>2026-04-19T13:00:21.248Z</time></trkpt><trkpt lat="38.7481338" lon="16.2404394"><ele>83.0</ele><time>2026-04-19T13:00:22.254Z</time></trkpt><trkpt lat="38.7482641" lon="16.2403666"><ele>76.0</ele><time>2026-04-19T13:00:23.247Z</time></trkpt><trkpt lat="38.7484069" lon="16.2403167"><ele>69.0</ele><time>2026-04-19T13:00:24.245Z</time></trkpt><trkpt lat="38.7485586" lon="16.2402762"><ele>62.0</ele><time>2026-04-19T13:00:25.261Z</time></trkpt><trkpt lat="38.7487154" lon="16.2402367"><ele>62.0</ele><time>2026-04-19T13:00:26.255Z</time></trkpt><trkpt lat="38.7488755" lon="16.2401961"><ele>62.0</ele><time>2026-04-19T13:00:27.255Z</time></trkpt><trkpt lat="38.7490373" lon="16.240157"><ele>62.0</ele><time>2026-04-19T13:00:28.27Z</time></trkpt><trkpt lat="38.7492015" lon="16.2401195"><ele>62.0</ele><time>2026-04-19T13:00:29.275Z</time></trkpt><trkpt lat="38.7493676" lon="16.2400847"><ele>62.0</ele><time>2026-04-19T13:00:30.258Z</time></trkpt><trkpt lat="38.7495315" lon="16.2400513"><ele>62.0</ele><time>2026-04-19T13:00:31.256Z</time></trkpt><trkpt lat="38.7496878" lon="16.240018"><ele>59.0</ele><time>2026-04-19T13:00:32.264Z</time></trkpt><trkpt lat="38.7498337" lon="16.2399838"><ele>56.0</ele><time>2026-04-19T13:00:33.258Z</time></trkpt><trkpt lat="38.749969" lon="16.2399492"><ele>53.0</ele><time>2026-04-19T13:00:34.261Z</time></trkpt><trkpt lat="38.7500944" lon="16.2399175"><ele>50.0</ele><time>2026-04-19T13:00:35.259Z</time></trkpt><trkpt lat="38.7502067" lon="16.2398879"><ele>50.50000000000001</ele><time>2026-04-19T13:00:36.256Z</time></trkpt><trkpt lat="38.7503043" lon="16.2398612"><ele>51.0</ele><time>2026-04-19T13:00:37.269Z</time></trkpt><trkpt lat="38.7503863" lon="16.2398363"><ele>51.5</ele><time>2026-04-19T13:00:38.263Z</time></trkpt><trkpt lat="38.7504505" lon="16.2398071"><ele>52.0</ele><time>2026-04-19T13:00:39.257Z</time></trkpt><trkpt lat="38.750532" lon="16.2397676"><ele>52.50000000000001</ele><time>2026-04-19T13:00:41.257Z</time></trkpt><trkpt lat="38.7505504" lon="16.2398608"><ele>53.0</ele><time>2026-04-19T13:00:45.26Z</time></trkpt><trkpt lat="38.7504314" lon="16.2399192"><ele>52.50000000000001</ele><time>2026-04-19T13:00:47.26Z</time></trkpt><trkpt lat="38.7503635" lon="16.2399421"><ele>52.0</ele><time>2026-04-19T13:00:48.251Z</time></trkpt><trkpt lat="38.7502926" lon="16.2399697"><ele>51.5</ele><time>2026-04-19T13:00:49.267Z</time></trkpt><trkpt lat="38.7502102" lon="16.2400017"><ele>51.0</ele><time>2026-04-19T13:00:50.258Z</time></trkpt><trkpt lat="38.7501274" lon="16.2400405"><ele>50.50000000000001</ele><time>2026-04-19T13:00:51.251Z</time></trkpt><trkpt lat="38.7500564" lon="16.2400951"><ele>50.0</ele><time>2026-04-19T13:00:52.269Z</time></trkpt><trkpt lat="38.7499981" lon="16.2401748"><ele>50.0</ele><time>2026-04-19T13:00:53.262Z</time></trkpt><trkpt lat="38.7499475" lon="16.2402796"><ele>50.0</ele><time>2026-04-19T13:00:54.255Z</time></trkpt><trkpt lat="38.7499113" lon="16.2404057"><ele>50.0</ele><time>2026-04-19T13:00:55.268Z</time></trkpt><trkpt lat="38.7498904" lon="16.2405465"><ele>50.0</ele><time>2026-04-19T13:00:56.248Z</time></trkpt><trkpt lat="38.7498812" lon="16.2407087"><ele>50.0</ele><time>2026-04-19T13:00:57.254Z</time></trkpt><trkpt lat="38.7498764" lon="16.2408791"><ele>50.66666666666667</ele><time>2026-04-19T13:00:58.252Z</time></trkpt><trkpt lat="38.7498634" lon="16.2410414"><ele>51.333333333333336</ele><time>2026-04-19T13:00:59.254Z</time></trkpt><trkpt lat="38.7498563" lon="16.2411589"><ele>52.0</ele><time>2026-04-19T13:01:00.274Z</time></trkpt><trkpt lat="38.7498498" lon="16.2412524"><ele>52.66666666666667</ele><time>2026-04-19T13:01:02.261Z</time></trkpt><trkpt lat="38.7498685" lon="16.2413368"><ele>53.333333333333336</ele><time>2026-04-19T13:01:06.266Z</time></trkpt><trkpt lat="38.7498983" lon="16.2414104"><ele>54.0</ele><time>2026-04-19T13:01:08.27Z</time></trkpt><trkpt lat="38.7499444" lon="16.241477"><ele>64.0</ele><time>2026-04-19T13:01:10.259Z</time></trkpt><trkpt lat="38.7503863" lon="16.2398363"><ele>63.99999999999999</ele><time>2026-04-19T13:00:38.263Z</time></trkpt><trkpt lat="38.7504505" lon="16.2398071"><ele>64.0</ele><time>2026-04-19T13:00:39.257Z</time></trkpt><trkpt lat="38.750532" lon="16.2397676"><ele>64.0</ele><time>2026-04-19T13:00:41.257Z</time></trkpt><trkpt lat="38.7505504" lon="16.2398608"><ele>64.0</ele><time>2026-04-19T13:00:45.26Z</time></trkpt><trkpt lat="38.7504314" lon="16.2399192"><ele>63.99999999999999</ele><time>2026-04-19T13:00:47.26Z</time></trkpt><trkpt lat="38.7503635" lon="16.2399421"><ele>64.0</ele><time>2026-04-19T13:00:48.251Z</time></trkpt><trkpt lat="38.7502926" lon="16.2399697"><ele>63.99999999999999</ele><time>2026-04-19T13:00:49.267Z</time></trkpt><trkpt lat="38.7502102" lon="16.2400017"><ele>64.0</ele><time>2026-04-19T13:00:50.258Z</time></trkpt><trkpt lat="38.7501274" lon="16.2400405"><ele>64.0</ele><time>2026-04-19T13:00:51.251Z</time></trkpt><trkpt lat="38.7500564" lon="16.2400951"><ele>64.0</ele><time>2026-04-19T13:00:52.269Z</time></trkpt><trkpt lat="38.7499981" lon="16.2401748"><ele>63.99999999999999</ele><time>2026-04-19T13:00:53.262Z</time></trkpt><trkpt lat="38.7499475" lon="16.2402796"><ele>64.0</ele><time>2026-04-19T13:00:54.255Z</time></trkpt><trkpt lat="38.7499113" lon="16.2404057"><ele>61.5</ele><time>2026-04-19T13:00:55.268Z</time></trkpt><trkpt lat="38.7498904" lon="16.2405465"><ele>59.0</ele><time>2026-04-19T13:00:56.248Z</time></trkpt><trkpt lat="38.7498812" lon="16.2407087"><ele>56.5</ele><time>2026-04-19T13:00:57.254Z</time></trkpt><trkpt lat="38.7498764" lon="16.2408791"><ele>54.0</ele><time>2026-04-19T13:00:58.252Z</time></trkpt><trkpt lat="38.7498634" lon="16.2410414"><ele>54.0</ele><time>2026-04-19T13:00:59.254Z</time></trkpt><trkpt lat="38.7498563" lon="16.2411589"><ele>54.0</ele><time>2026-04-19T13:01:00.274Z</time></trkpt><trkpt lat="38.7498498" lon="16.2412524"><ele>54.0</ele><time>2026-04-19T13:01:02.261Z</time></trkpt><trkpt lat="38.7498685" lon="16.2413368"><ele>54.0</ele><time>2026-04-19T13:01:06.266Z</time></trkpt><trkpt lat="38.7498983" lon="16.2414104"><ele>54.0</ele><time>2026-04-19T13:01:08.27Z</time></trkpt><trkpt lat="38.7499444" lon="16.241477"><ele>54.0</ele><time>2026-04-19T13:01:10.259Z</time></trkpt><trkpt lat="38.7499926" lon="16.2415431"><ele>54.0</ele><time>2026-04-19T13:01:12.259Z</time></trkpt><trkpt lat="38.7500753" lon="16.2416188"><ele>54.714285714285715</ele><time>2026-04-19T13:01:14.26Z</time></trkpt><trkpt lat="38.750129" lon="16.2416641"><ele>55.42857142857143</ele><time>2026-04-19T13:01:15.268Z</time></trkpt><trkpt lat="38.7501863" lon="16.2417118"><ele>56.14285714285714</ele><time>2026-04-19T13:01:16.255Z</time></trkpt><trkpt lat="38.7502586" lon="16.2417584"><ele>56.85714285714286</ele><time>2026-04-19T13:01:17.258Z</time></trkpt><trkpt lat="38.750328" lon="16.2418079"><ele>57.57142857142858</ele><time>2026-04-19T13:01:18.268Z</time></trkpt><trkpt lat="38.7503807" lon="16.2418678"><ele>58.285714285714285</ele><time>2026-04-19T13:01:19.258Z</time></trkpt><trkpt lat="38.7504415" lon="16.2419323"><ele>59.0</ele><time>2026-04-19T13:01:20.263Z</time></trkpt><trkpt lat="38.7505006" lon="16.2419882"><ele>61.833333333333336</ele><time>2026-04-19T13:01:21.249Z</time></trkpt><trkpt lat="38.7505658" lon="16.242015"><ele>64.66666666666667</ele><time>2026-04-19T13:01:22.254Z</time></trkpt><trkpt lat="38.7506181" lon="16.2420779"><ele>67.5</ele><time>2026-04-19T13:01:23.269Z</time></trkpt><trkpt lat="38.7506896" lon="16.2421114"><ele>70.33333333333333</ele><time>2026-04-19T13:01:24.291Z</time></trkpt><trkpt lat="38.7508014" lon="16.2421552"><ele>73.16666666666666</ele><time>2026-04-19T13:01:26.262Z</time></trkpt><trkpt lat="38.7508608" lon="16.2421915"><ele>76.0</ele><time>2026-04-19T13:01:27.276Z</time></trkpt><trkpt lat="38.7508968" lon="16.2422749"><ele>76.6</ele><time>2026-04-19T13:01:28.267Z</time></trkpt><trkpt lat="38.7509752" lon="16.2424299"><ele>77.19999999999999</ele><time>2026-04-19T13:01:30.267Z</time></trkpt><trkpt lat="38.7510115" lon="16.2425205"><ele>77.80000000000001</ele><time>2026-04-19T13:01:31.251Z</time></trkpt><trkpt lat="38.7510673" lon="16.2425983"><ele>78.4</ele><time>2026-04-19T13:01:32.26Z</time></trkpt><trkpt lat="38.7511273" lon="16.2426939"><ele>79.0</ele><time>2026-04-19T13:01:33.258Z</time></trkpt><trkpt lat="38.7511752" lon="16.2427622"><ele>81.83333333333333</ele><time>2026-04-19T13:01:34.255Z</time></trkpt><trkpt lat="38.7512293" lon="16.2428462"><ele>84.66666666666666</ele><time>2026-04-19T13:01:35.256Z</time></trkpt><trkpt lat="38.7512922" lon="16.2429251"><ele>87.5</ele><time>2026-04-19T13:01:36.258Z</time></trkpt><trkpt lat="38.7513724" lon="16.2429885"><ele>90.33333333333333</ele><time>2026-04-19T13:01:37.249Z</time></trkpt><trkpt lat="38.7514253" lon="16.2430838"><ele>93.16666666666667</ele><time>2026-04-19T13:01:38.253Z</time></trkpt><trkpt lat="38.7514725" lon="16.2431777"><ele>96.0</ele><time>2026-04-19T13:01:39.265Z</time></trkpt><trkpt lat="38.7515236" lon="16.2432652"><ele>96.57142857142857</ele><time>2026-04-19T13:01:40.25Z</time></trkpt><trkpt lat="38.751578" lon="16.2433395"><ele>97.14285714285714</ele><time>2026-04-19T13:01:41.258Z</time></trkpt><trkpt lat="38.751632" lon="16.24339"><ele>97.71428571428572</ele><time>2026-04-19T13:01:42.274Z</time></trkpt><trkpt lat="38.7517021" lon="16.2434276"><ele>98.28571428571428</ele><time>2026-04-19T13:01:43.275Z</time></trkpt><trkpt lat="38.7517582" lon="16.2434697"><ele>98.85714285714286</ele><time>2026-04-19T13:01:44.254Z</time></trkpt><trkpt lat="38.7518255" lon="16.2435072"><ele>99.42857142857143</ele><time>2026-04-19T13:01:45.26Z</time></trkpt><trkpt lat="38.7518892" lon="16.2435477"><ele>100.0</ele><time>2026-04-19T13:01:46.254Z</time></trkpt><trkpt lat="38.7519484" lon="16.2436089"><ele>101.16666666666667</ele><time>2026-04-19T13:01:47.251Z</time></trkpt><trkpt lat="38.7520062" lon="16.2436795"><ele>102.33333333333334</ele><time>2026-04-19T13:01:48.273Z</time></trkpt><trkpt lat="38.7520637" lon="16.2437832"><ele>103.5</ele><time>2026-04-19T13:01:49.269Z</time></trkpt><trkpt lat="38.7520852" lon="16.2438668"><ele>104.66666666666666</ele><time>2026-04-19T13:01:50.265Z</time></trkpt><trkpt lat="38.7520847" lon="16.2440172"><ele>105.83333333333333</ele><time>2026-04-19T13:01:52.249Z</time></trkpt><trkpt lat="38.7520739" lon="16.2441011"><ele>107.0</ele><time>2026-04-19T13:01:53.252Z</time></trkpt><trkpt lat="38.7520337" lon="16.2441904"><ele>106.99999999999999</ele><time>2026-04-19T13:01:54.267Z</time></trkpt><trkpt lat="38.7519961" lon="16.2442655"><ele>107.0</ele><time>2026-04-19T13:01:55.248Z</time></trkpt><trkpt lat="38.7519308" lon="16.2443812"><ele>107.0</ele><time>2026-04-19T13:01:57.266Z</time></trkpt><trkpt lat="38.7519496" lon="16.2445381"><ele>107.0</ele><time>2026-04-19T13:01:59.251Z</time></trkpt><trkpt lat="38.7519669" lon="16.2446222"><ele>106.99999999999999</ele><time>2026-04-19T13:02:00.252Z</time></trkpt><trkpt lat="38.7519533" lon="16.2447043"><ele>107.0</ele><time>2026-04-19T13:02:01.255Z</time></trkpt><trkpt lat="38.7519364" lon="16.2447872"><ele>103.16666666666666</ele><time>2026-04-19T13:02:02.243Z</time></trkpt><trkpt lat="38.751924" lon="16.2448695"><ele>99.33333333333333</ele><time>2026-04-19T13:02:03.249Z</time></trkpt><trkpt lat="38.7519108" lon="16.2449794"><ele>95.5</ele><time>2026-04-19T13:02:04.26Z</time></trkpt><trkpt lat="38.7518961" lon="16.2450595"><ele>91.66666666666666</ele><time>2026-04-19T13:02:05.254Z</time></trkpt><trkpt lat="38.751927" lon="16.2452046"><ele>87.83333333333333</ele><time>2026-04-19T13:02:07.262Z</time></trkpt><trkpt lat="38.7519894" lon="16.2452676"><ele>84.0</ele><time>2026-04-19T13:02:08.254Z</time></trkpt><trkpt lat="38.7520394" lon="16.2453196"><ele>84.0</ele><time>2026-04-19T13:02:09.263Z</time></trkpt><trkpt lat="38.7521195" lon="16.2454186"><ele>84.0</ele><time>2026-04-19T13:02:11.252Z</time></trkpt><trkpt lat="38.7521975" lon="16.245528"><ele>84.0</ele><time>2026-04-19T13:02:13.255Z</time></trkpt><trkpt lat="38.7522499" lon="16.2456732"><ele>84.0</ele><time>2026-04-19T13:02:15.26Z</time></trkpt><trkpt lat="38.7522647" lon="16.2457542"><ele>84.0</ele><time>2026-04-19T13:02:16.261Z</time></trkpt><trkpt lat="38.7522597" lon="16.2458449"><ele>81.71428571428571</ele><time>2026-04-19T13:02:17.249Z</time></trkpt><trkpt lat="38.7522478" lon="16.245931"><ele>79.42857142857143</ele><time>2026-04-19T13:02:18.251Z</time></trkpt><trkpt lat="38.7522186" lon="16.2460135"><ele>77.14285714285714</ele><time>2026-04-19T13:02:19.265Z</time></trkpt><trkpt lat="38.7521768" lon="16.2460884"><ele>74.85714285714286</ele><time>2026-04-19T13:02:20.244Z</time></trkpt><trkpt lat="38.75214" lon="16.2461587"><ele>72.57142857142857</ele><time>2026-04-19T13:02:21.258Z</time></trkpt><trkpt lat="38.7521188" lon="16.24628"><ele>70.28571428571428</ele><time>2026-04-19T13:02:23.255Z</time></trkpt><trkpt lat="38.7521233" lon="16.2463648"><ele>68.0</ele><time>2026-04-19T13:02:24.26Z</time></trkpt><trkpt lat="38.7521769" lon="16.2464745"><ele>66.0</ele><time>2026-04-19T13:02:26.243Z</time></trkpt><trkpt lat="38.7522746" lon="16.2465528"><ele>64.0</ele><time>2026-04-19T13:02:28.256Z</time></trkpt><trkpt lat="38.7523449" lon="16.2465886"><ele>62.0</ele><time>2026-04-19T13:02:29.258Z</time></trkpt><trkpt lat="38.7524081" lon="16.2466307"><ele>60.0</ele><time>2026-04-19T13:02:30.269Z</time></trkpt><trkpt lat="38.7524582" lon="16.2467024"><ele>58.00000000000001</ele><time>2026-04-19T13:02:31.27Z</time></trkpt><trkpt lat="38.7524962" lon="16.2467979"><ele>56.0</ele><time>2026-04-19T13:02:32.271Z</time></trkpt><trkpt lat="38.7525316" lon="16.2468823"><ele>56.00000000000001</ele><time>2026-04-19T13:02:33.273Z</time></trkpt><trkpt lat="38.7525634" lon="16.2469688"><ele>56.0</ele><time>2026-04-19T13:02:34.255Z</time></trkpt><trkpt lat="38.7526035" lon="16.2470435"><ele>56.0</ele><time>2026-04-19T13:02:35.256Z</time></trkpt><trkpt lat="38.752638" lon="16.2471244"><ele>56.0</ele><time>2026-04-19T13:02:36.263Z</time></trkpt><trkpt lat="38.7526702" lon="16.2472004"><ele>56.00000000000001</ele><time>2026-04-19T13:02:37.253Z</time></trkpt><trkpt lat="38.7527059" lon="16.2472733"><ele>56.0</ele><time>2026-04-19T13:02:38.269Z</time></trkpt><trkpt lat="38.7527615" lon="16.2473908"><ele>54.4</ele><time>2026-04-19T13:02:40.252Z</time></trkpt><trkpt lat="38.7528386" lon="16.2475058"><ele>52.8</ele><time>2026-04-19T13:02:42.275Z</time></trkpt><trkpt lat="38.7528952" lon="16.2475765"><ele>51.199999999999996</ele><time>2026-04-19T13:02:44.281Z</time></trkpt><trkpt lat="38.7529512" lon="16.2476343"><ele>49.599999999999994</ele><time>2026-04-19T13:03:32.278Z</time></trkpt><trkpt lat="38.7530569" lon="16.2476995"><ele>48.0</ele><time>2026-04-19T13:03:35.278Z</time></trkpt><trkpt lat="38.7531361" lon="16.2477261"><ele>48.0</ele><time>2026-04-19T13:03:37.266Z</time></trkpt><trkpt lat="38.7532048" lon="16.2477443"><ele>48.0</ele><time>2026-04-19T13:03:39.26Z</time></trkpt><trkpt lat="38.7533132" lon="16.2477886"><ele>48.0</ele><time>2026-04-19T13:03:41.266Z</time></trkpt><trkpt lat="38.7533774" lon="16.2478143"><ele>48.0</ele><time>2026-04-19T13:03:42.255Z</time></trkpt><trkpt lat="38.7534608" lon="16.2478553"><ele>48.0</ele><time>2026-04-19T13:03:43.266Z</time></trkpt><trkpt lat="38.7535452" lon="16.247904"><ele>48.0</ele><time>2026-04-19T13:03:44.259Z</time></trkpt><trkpt lat="38.7536301" lon="16.2479525"><ele>48.4</ele><time>2026-04-19T13:03:45.258Z</time></trkpt><trkpt lat="38.7536974" lon="16.2480014"><ele>48.8</ele><time>2026-04-19T13:03:46.271Z</time></trkpt><trkpt lat="38.7537797" lon="16.2481087"><ele>49.2</ele><time>2026-04-19T13:03:48.262Z</time></trkpt><trkpt lat="38.7538202" lon="16.2482647"><ele>49.6</ele><time>2026-04-19T13:03:50.261Z</time></trkpt><trkpt lat="38.7538289" lon="16.2483564"><ele>50.0</ele><time>2026-04-19T13:03:51.257Z</time></trkpt><trkpt lat="38.7538593" lon="16.2484701"><ele>50.0</ele><time>2026-04-19T13:03:53.264Z</time></trkpt><trkpt lat="38.7539562" lon="16.248455"><ele>50.0</ele><time>2026-04-19T13:03:55.279Z</time></trkpt><trkpt lat="38.7540275" lon="16.2483849"><ele>50.0</ele><time>2026-04-19T13:03:56.255Z</time></trkpt><trkpt lat="38.7541256" lon="16.2482844"><ele>50.0</ele><time>2026-04-19T13:03:57.255Z</time></trkpt><trkpt lat="38.7542472" lon="16.2481598"><ele>49.0</ele><time>2026-04-19T13:03:58.259Z</time></trkpt><trkpt lat="38.7543691" lon="16.2480312"><ele>48.0</ele><time>2026-04-19T13:03:59.261Z</time></trkpt><trkpt lat="38.7544808" lon="16.2479114"><ele>47.0</ele><time>2026-04-19T13:04:00.249Z</time></trkpt><trkpt lat="38.7545819" lon="16.2478049"><ele>46.0</ele><time>2026-04-19T13:04:01.267Z</time></trkpt><trkpt lat="38.7546754" lon="16.2477073"><ele>46.0</ele><time>2026-04-19T13:04:02.281Z</time></trkpt><trkpt lat="38.7547556" lon="16.2476285"><ele>46.0</ele><time>2026-04-19T13:04:03.269Z</time></trkpt><trkpt lat="38.7548217" lon="16.2475592"><ele>46.0</ele><time>2026-04-19T13:04:04.257Z</time></trkpt><trkpt lat="38.7548785" lon="16.2474915"><ele>46.0</ele><time>2026-04-19T13:04:05.269Z</time></trkpt><trkpt lat="38.7549297" lon="16.2474358"><ele>46.0</ele><time>2026-04-19T13:04:06.267Z</time></trkpt><trkpt lat="38.7550301" lon="16.247342"><ele>45.833333333333336</ele><time>2026-04-19T13:04:08.264Z</time></trkpt><trkpt lat="38.7551101" lon="16.2472671"><ele>45.66666666666667</ele><time>2026-04-19T13:04:10.256Z</time></trkpt><trkpt lat="38.7551815" lon="16.2472026"><ele>45.5</ele><time>2026-04-19T13:04:12.269Z</time></trkpt><trkpt lat="38.7552468" lon="16.2471336"><ele>45.333333333333336</ele><time>2026-04-19T13:04:14.268Z</time></trkpt><trkpt lat="38.7552908" lon="16.2470663"><ele>45.166666666666664</ele><time>2026-04-19T13:04:17.256Z</time></trkpt><trkpt lat="38.7553436" lon="16.2470107"><ele>45.0</ele><time>2026-04-19T13:04:23.262Z</time></trkpt><trkpt lat="38.755424" lon="16.2469245"><ele>45.0</ele><time>2026-04-19T13:04:24.266Z</time></trkpt><trkpt lat="38.755543" lon="16.2468033"><ele>45.0</ele><time>2026-04-19T13:04:25.252Z</time></trkpt><trkpt lat="38.7556765" lon="16.2466747"><ele>45.0</ele><time>2026-04-19T13:04:26.254Z</time></trkpt><trkpt lat="38.7558014" lon="16.2465585"><ele>45.0</ele><time>2026-04-19T13:04:27.261Z</time></trkpt><trkpt lat="38.7559096" lon="16.2464559"><ele>45.0</ele><time>2026-04-19T13:04:28.267Z</time></trkpt><trkpt lat="38.7560089" lon="16.2463616"><ele>45.0</ele><time>2026-04-19T13:04:29.258Z</time></trkpt><trkpt lat="38.7561157" lon="16.2462565"><ele>45.0</ele><time>2026-04-19T13:04:30.252Z</time></trkpt><trkpt lat="38.7562444" lon="16.2461206"><ele>45.0</ele><time>2026-04-19T13:04:31.269Z</time></trkpt><trkpt lat="38.7563899" lon="16.245963"><ele>45.0</ele><time>2026-04-19T13:04:32.265Z</time></trkpt><trkpt lat="38.7565495" lon="16.2457975"><ele>45.0</ele><time>2026-04-19T13:04:33.258Z</time></trkpt><trkpt lat="38.7566947" lon="16.2456506"><ele>44.25</ele><time>2026-04-19T13:04:34.271Z</time></trkpt><trkpt lat="38.7568146" lon="16.2455327"><ele>43.5</ele><time>2026-04-19T13:04:35.262Z</time></trkpt><trkpt lat="38.7569137" lon="16.2454396"><ele>42.75</ele><time>2026-04-19T13:04:36.247Z</time></trkpt><trkpt lat="38.7570077" lon="16.2453619"><ele>42.0</ele><time>2026-04-19T13:04:37.267Z</time></trkpt><trkpt lat="38.757107" lon="16.2452964"><ele>42.0</ele><time>2026-04-19T13:04:38.266Z</time></trkpt><trkpt lat="38.757216" lon="16.2452399"><ele>42.0</ele><time>2026-04-19T13:04:39.251Z</time></trkpt><trkpt lat="38.7573334" lon="16.2451897"><ele>42.0</ele><time>2026-04-19T13:04:40.242Z</time></trkpt><trkpt lat="38.7574576" lon="16.245147"><ele>42.0</ele><time>2026-04-19T13:04:41.265Z</time></trkpt><trkpt lat="38.7575894" lon="16.2451152"><ele>43.75</ele><time>2026-04-19T13:04:42.257Z</time></trkpt><trkpt lat="38.7577321" lon="16.2450907"><ele>45.5</ele><time>2026-04-19T13:04:43.253Z</time></trkpt><trkpt lat="38.7578824" lon="16.2450703"><ele>47.25</ele><time>2026-04-19T13:04:44.265Z</time></trkpt><trkpt lat="38.7580347" lon="16.2450468"><ele>49.0</ele><time>2026-04-19T13:04:45.262Z</time></trkpt><trkpt lat="38.7581869" lon="16.245008"><ele>49.0</ele><time>2026-04-19T13:04:46.253Z</time></trkpt><trkpt lat="38.7583415" lon="16.2449376"><ele>49.0</ele><time>2026-04-19T13:04:47.262Z</time></trkpt><trkpt lat="38.7585122" lon="16.244833"><ele>49.0</ele><time>2026-04-19T13:04:48.257Z</time></trkpt><trkpt lat="38.7586957" lon="16.2446976"><ele>46.0</ele><time>2026-04-19T13:04:49.253Z</time></trkpt><trkpt lat="38.7588922" lon="16.2445402"><ele>43.0</ele><time>2026-04-19T13:04:50.254Z</time></trkpt><trkpt lat="38.7590952" lon="16.2443857"><ele>43.0</ele><time>2026-04-19T13:04:51.258Z</time></trkpt><trkpt lat="38.7592785" lon="16.2442598"><ele>43.0</ele><time>2026-04-19T13:04:52.249Z</time></trkpt><trkpt lat="38.759431" lon="16.2441674"><ele>43.0</ele><time>2026-04-19T13:04:53.249Z</time></trkpt><trkpt lat="38.7595617" lon="16.2440927"><ele>43.16666666666667</ele><time>2026-04-19T13:04:54.255Z</time></trkpt><trkpt lat="38.7596693" lon="16.2440335"><ele>43.333333333333336</ele><time>2026-04-19T13:04:55.259Z</time></trkpt><trkpt lat="38.7597433" lon="16.2439924"><ele>43.5</ele><time>2026-04-19T13:04:56.261Z</time></trkpt><trkpt lat="38.7598153" lon="16.2439541"><ele>43.666666666666664</ele><time>2026-04-19T13:04:58.262Z</time></trkpt><trkpt lat="38.7598829" lon="16.2439273"><ele>43.83333333333333</ele><time>2026-04-19T13:05:01.262Z</time></trkpt><trkpt lat="38.7599738" lon="16.2438815"><ele>44.0</ele><time>2026-04-19T13:05:04.266Z</time></trkpt><trkpt lat="38.7600785" lon="16.2438251"><ele>44.0</ele><time>2026-04-19T13:05:06.263Z</time></trkpt><trkpt lat="38.7601673" lon="16.2437884"><ele>44.0</ele><time>2026-04-19T13:05:07.255Z</time></trkpt><trkpt lat="38.7602816" lon="16.243751"><ele>44.0</ele><time>2026-04-19T13:05:08.25Z</time></trkpt><trkpt lat="38.7604118" lon="16.2437239"><ele>44.0</ele><time>2026-04-19T13:05:09.247Z</time></trkpt><trkpt lat="38.7605544" lon="16.2437127"><ele>41.0</ele><time>2026-04-19T13:05:10.255Z</time></trkpt><trkpt lat="38.7607054" lon="16.2437115"><ele>38.0</ele><time>2026-04-19T13:05:11.258Z</time></trkpt><trkpt lat="38.7608641" lon="16.2437189"><ele>35.0</ele><time>2026-04-19T13:05:12.259Z</time></trkpt><trkpt lat="38.7610253" lon="16.2437341"><ele>37.33333333333333</ele><time>2026-04-19T13:05:13.259Z</time></trkpt><trkpt lat="38.7611904" lon="16.2437587"><ele>39.666666666666664</ele><time>2026-04-19T13:05:14.262Z</time></trkpt><trkpt lat="38.7613519" lon="16.2437938"><ele>42.0</ele><time>2026-04-19T13:05:15.263Z</time></trkpt><trkpt lat="38.7615066" lon="16.2438179"><ele>42.0</ele><time>2026-04-19T13:05:16.259Z</time></trkpt><trkpt lat="38.7616575" lon="16.2438149"><ele>42.0</ele><time>2026-04-19T13:05:17.252Z</time></trkpt><trkpt lat="38.7618136" lon="16.2437834"><ele>42.0</ele><time>2026-04-19T13:05:18.254Z</time></trkpt><trkpt lat="38.7619659" lon="16.2437426"><ele>44.5</ele><time>2026-04-19T13:05:19.256Z</time></trkpt><trkpt lat="38.7621146" lon="16.2436874"><ele>47.0</ele><time>2026-04-19T13:05:20.243Z</time></trkpt><trkpt lat="38.7622532" lon="16.2436337"><ele>49.5</ele><time>2026-04-19T13:05:21.253Z</time></trkpt><trkpt lat="38.7623655" lon="16.2435846"><ele>52.0</ele><time>2026-04-19T13:05:22.25Z</time></trkpt><trkpt lat="38.7624635" lon="16.2435108"><ele>52.0</ele><time>2026-04-19T13:05:23.25Z</time></trkpt><trkpt lat="38.7625595" lon="16.2434288"><ele>52.0</ele><time>2026-04-19T13:05:24.25Z</time></trkpt><trkpt lat="38.762615" lon="16.2432851"><ele>52.0</ele><time>2026-04-19T13:05:25.253Z</time></trkpt><trkpt lat="38.7626613" lon="16.2430994"><ele>52.0</ele><time>2026-04-19T13:05:26.249Z</time></trkpt><trkpt lat="38.7626864" lon="16.2429257"><ele>62.0</ele><time>2026-04-19T13:05:27.257Z</time></trkpt><trkpt lat="38.7627134" lon="16.2427446"><ele>72.0</ele><time>2026-04-19T13:05:28.257Z</time></trkpt><trkpt lat="38.7627612" lon="16.2425397"><ele>82.0</ele><time>2026-04-19T13:05:29.255Z</time></trkpt><trkpt lat="38.762805" lon="16.2423296"><ele>77.33333333333333</ele><time>2026-04-19T13:05:30.264Z</time></trkpt><trkpt lat="38.7628534" lon="16.2421327"><ele>72.66666666666667</ele><time>2026-04-19T13:05:31.253Z</time></trkpt><trkpt lat="38.7628987" lon="16.2419499"><ele>68.0</ele><time>2026-04-19T13:05:32.239Z</time></trkpt><trkpt lat="38.7629321" lon="16.2417744"><ele>68.0</ele><time>2026-04-19T13:05:33.264Z</time></trkpt><trkpt lat="38.7629407" lon="16.241602"><ele>68.0</ele><time>2026-04-19T13:05:34.26Z</time></trkpt><trkpt lat="38.7629423" lon="16.2414254"><ele>68.0</ele><time>2026-04-19T13:05:35.256Z</time></trkpt><trkpt lat="38.7628959" lon="16.2412317"><ele>68.0</ele><time>2026-04-19T13:05:36.253Z</time></trkpt><trkpt lat="38.7600785" lon="16.2438251"><ele>62.0</ele><time>2026-04-19T13:05:06.263Z</time></trkpt><trkpt lat="38.7601673" lon="16.2437884"><ele>56.0</ele><time>2026-04-19T13:05:07.255Z</time></trkpt><trkpt lat="38.7602816" lon="16.243751"><ele>50.0</ele><time>2026-04-19T13:05:08.25Z</time></trkpt><trkpt lat="38.7604118" lon="16.2437239"><ele>44.0</ele><time>2026-04-19T13:05:09.247Z</time></trkpt><trkpt lat="38.7605544" lon="16.2437127"><ele>41.0</ele><time>2026-04-19T13:05:10.255Z</time></trkpt><trkpt lat="38.7607054" lon="16.2437115"><ele>38.0</ele><time>2026-04-19T13:05:11.258Z</time></trkpt><trkpt lat="38.7608641" lon="16.2437189"><ele>35.0</ele><time>2026-04-19T13:05:12.259Z</time></trkpt><trkpt lat="38.7610253" lon="16.2437341"><ele>37.33333333333333</ele><time>2026-04-19T13:05:13.259Z</time></trkpt><trkpt lat="38.7611904" lon="16.2437587"><ele>39.666666666666664</ele><time>2026-04-19T13:05:14.262Z</time></trkpt><trkpt lat="38.7613519" lon="16.2437938"><ele>42.0</ele><time>2026-04-19T13:05:15.263Z</time></trkpt><trkpt lat="38.7615066" lon="16.2438179"><ele>42.0</ele><time>2026-04-19T13:05:16.259Z</time></trkpt><trkpt lat="38.7616575" lon="16.2438149"><ele>42.0</ele><time>2026-04-19T13:05:17.252Z</time></trkpt><trkpt lat="38.7618136" lon="16.2437834"><ele>42.0</ele><time>2026-04-19T13:05:18.254Z</time></trkpt><trkpt lat="38.7619659" lon="16.2437426"><ele>44.5</ele><time>2026-04-19T13:05:19.256Z</time></trkpt><trkpt lat="38.7621146" lon="16.2436874"><ele>47.0</ele><time>2026-04-19T13:05:20.243Z</time></trkpt><trkpt lat="38.7622532" lon="16.2436337"><ele>49.5</ele><time>2026-04-19T13:05:21.253Z</time></trkpt><trkpt lat="38.7623655" lon="16.2435846"><ele>52.0</ele><time>2026-04-19T13:05:22.25Z</time></trkpt><trkpt lat="38.7624635" lon="16.2435108"><ele>52.0</ele><time>2026-04-19T13:05:23.25Z</time></trkpt><trkpt lat="38.7625595" lon="16.2434288"><ele>52.0</ele><time>2026-04-19T13:05:24.25Z</time></trkpt><trkpt lat="38.762615" lon="16.2432851"><ele>52.0</ele><time>2026-04-19T13:05:25.253Z</time></trkpt><trkpt lat="38.7626613" lon="16.2430994"><ele>52.0</ele><time>2026-04-19T13:05:26.249Z</time></trkpt><trkpt lat="38.7626864" lon="16.2429257"><ele>62.0</ele><time>2026-04-19T13:05:27.257Z</time></trkpt><trkpt lat="38.7627134" lon="16.2427446"><ele>72.0</ele><time>2026-04-19T13:05:28.257Z</time></trkpt><trkpt lat="38.7627612" lon="16.2425397"><ele>82.0</ele><time>2026-04-19T13:05:29.255Z</time></trkpt><trkpt lat="38.762805" lon="16.2423296"><ele>77.33333333333333</ele><time>2026-04-19T13:05:30.264Z</time></trkpt><trkpt lat="38.7628534" lon="16.2421327"><ele>72.66666666666667</ele><time>2026-04-19T13:05:31.253Z</time></trkpt><trkpt lat="38.7628987" lon="16.2419499"><ele>68.0</ele><time>2026-04-19T13:05:32.239Z</time></trkpt><trkpt lat="38.7629321" lon="16.2417744"><ele>68.0</ele><time>2026-04-19T13:05:33.264Z</time></trkpt><trkpt lat="38.7629407" lon="16.241602"><ele>68.0</ele><time>2026-04-19T13:05:34.26Z</time></trkpt><trkpt lat="38.7629423" lon="16.2414254"><ele>68.0</ele><time>2026-04-19T13:05:35.256Z</time></trkpt><trkpt lat="38.7628959" lon="16.2412317"><ele>68.0</ele><time>2026-04-19T13:05:36.253Z</time></trkpt><trkpt lat="38.7628146" lon="16.2410291"><ele>66.66666666666667</ele><time>2026-04-19T13:05:37.243Z</time></trkpt><trkpt lat="38.7627377" lon="16.2408233"><ele>65.33333333333333</ele><time>2026-04-19T13:05:38.251Z</time></trkpt><trkpt lat="38.7626605" lon="16.2406182"><ele>64.0</ele><time>2026-04-19T13:05:39.254Z</time></trkpt><trkpt lat="38.7625845" lon="16.2404115"><ele>55.33333333333333</ele><time>2026-04-19T13:05:40.251Z</time></trkpt><trkpt lat="38.7625074" lon="16.2402142"><ele>46.666666666666664</ele><time>2026-04-19T13:05:41.256Z</time></trkpt><trkpt lat="38.7624304" lon="16.2400185"><ele>38.0</ele><time>2026-04-19T13:05:42.249Z</time></trkpt><trkpt lat="38.7623619" lon="16.239824"><ele>44.666666666666664</ele><time>2026-04-19T13:05:43.25Z</time></trkpt><trkpt lat="38.762288" lon="16.2396258"><ele>51.33333333333333</ele><time>2026-04-19T13:05:44.247Z</time></trkpt><trkpt lat="38.7622211" lon="16.2394286"><ele>58.0</ele><time>2026-04-19T13:05:45.255Z</time></trkpt><trkpt lat="38.7621605" lon="16.2392525"><ele>58.0</ele><time>2026-04-19T13:05:46.251Z</time></trkpt><trkpt lat="38.7620935" lon="16.2391025"><ele>58.0</ele><time>2026-04-19T13:05:47.247Z</time></trkpt><trkpt lat="38.762014" lon="16.2389601"><ele>58.0</ele><time>2026-04-19T13:05:48.255Z</time></trkpt><trkpt lat="38.7619067" lon="16.2388263"><ele>58.0</ele><time>2026-04-19T13:05:49.246Z</time></trkpt><trkpt lat="38.7617841" lon="16.2387118"><ele>56.0</ele><time>2026-04-19T13:05:50.253Z</time></trkpt><trkpt lat="38.7616529" lon="16.2386192"><ele>54.0</ele><time>2026-04-19T13:05:51.255Z</time></trkpt><trkpt lat="38.7615282" lon="16.2385331"><ele>52.0</ele><time>2026-04-19T13:05:52.248Z</time></trkpt><trkpt lat="38.7614202" lon="16.2384307"><ele>50.0</ele><time>2026-04-19T13:05:53.256Z</time></trkpt><trkpt lat="38.7613107" lon="16.2383251"><ele>50.0</ele><time>2026-04-19T13:05:54.259Z</time></trkpt><trkpt lat="38.7612424" lon="16.2381556"><ele>50.0</ele><time>2026-04-19T13:05:55.266Z</time></trkpt><trkpt lat="38.7611887" lon="16.2379501"><ele>50.0</ele><time>2026-04-19T13:05:56.258Z</time></trkpt><trkpt lat="38.7611425" lon="16.2377564"><ele>48.0</ele><time>2026-04-19T13:05:57.267Z</time></trkpt><trkpt lat="38.7610988" lon="16.2375735"><ele>46.0</ele><time>2026-04-19T13:05:58.25Z</time></trkpt><trkpt lat="38.7610463" lon="16.237386"><ele>44.0</ele><time>2026-04-19T13:05:59.266Z</time></trkpt><trkpt lat="38.760976" lon="16.2371989"><ele>44.0</ele><time>2026-04-19T13:06:00.249Z</time></trkpt><trkpt lat="38.7608942" lon="16.2370215"><ele>44.0</ele><time>2026-04-19T13:06:01.246Z</time></trkpt><trkpt lat="38.7608049" lon="16.2368527"><ele>44.0</ele><time>2026-04-19T13:06:02.253Z</time></trkpt><trkpt lat="38.7607172" lon="16.2366854"><ele>44.0</ele><time>2026-04-19T13:06:03.259Z</time></trkpt><trkpt lat="38.7606296" lon="16.2365147"><ele>44.0</ele><time>2026-04-19T13:06:04.247Z</time></trkpt><trkpt lat="38.7605479" lon="16.2363429"><ele>44.0</ele><time>2026-04-19T13:06:05.268Z</time></trkpt><trkpt lat="38.7604732" lon="16.2361639"><ele>44.666666666666664</ele><time>2026-04-19T13:06:06.248Z</time></trkpt><trkpt lat="38.7604059" lon="16.235968"><ele>45.333333333333336</ele><time>2026-04-19T13:06:07.257Z</time></trkpt><trkpt lat="38.7603497" lon="16.2357643"><ele>46.0</ele><time>2026-04-19T13:06:08.253Z</time></trkpt><trkpt lat="38.7602957" lon="16.2355696"><ele>46.0</ele><time>2026-04-19T13:06:09.246Z</time></trkpt><trkpt lat="38.7602607" lon="16.2353671"><ele>46.0</ele><time>2026-04-19T13:06:10.255Z</time></trkpt><trkpt lat="38.7602268" lon="16.235182"><ele>46.0</ele><time>2026-04-19T13:06:11.256Z</time></trkpt><trkpt lat="38.7601866" lon="16.2349943"><ele>42.0</ele><time>2026-04-19T13:06:12.246Z</time></trkpt><trkpt lat="38.7601406" lon="16.2348182"><ele>38.0</ele><time>2026-04-19T13:06:13.258Z</time></trkpt><trkpt lat="38.760083" lon="16.2346538"><ele>34.0</ele><time>2026-04-19T13:06:14.247Z</time></trkpt><trkpt lat="38.7600118" lon="16.2344992"><ele>30.0</ele><time>2026-04-19T13:06:15.247Z</time></trkpt><trkpt lat="38.7599332" lon="16.2343633"><ele>30.0</ele><time>2026-04-19T13:06:16.252Z</time></trkpt><trkpt lat="38.7598534" lon="16.2342345"><ele>30.0</ele><time>2026-04-19T13:06:17.26Z</time></trkpt><trkpt lat="38.7597768" lon="16.234121"><ele>30.0</ele><time>2026-04-19T13:06:18.27Z</time></trkpt><trkpt lat="38.7597008" lon="16.2340169"><ele>30.0</ele><time>2026-04-19T13:06:19.253Z</time></trkpt><trkpt lat="38.7596355" lon="16.2339199"><ele>30.2</ele><time>2026-04-19T13:06:20.255Z</time></trkpt><trkpt lat="38.759581" lon="16.2338324"><ele>30.4</ele><time>2026-04-19T13:06:21.253Z</time></trkpt><trkpt lat="38.7595494" lon="16.2337471"><ele>30.6</ele><time>2026-04-19T13:06:22.253Z</time></trkpt><trkpt lat="38.7595726" lon="16.2336273"><ele>30.8</ele><time>2026-04-19T13:06:24.268Z</time></trkpt><trkpt lat="38.7596496" lon="16.2335769"><ele>31.0</ele><time>2026-04-19T13:06:26.26Z</time></trkpt><trkpt lat="38.7597372" lon="16.2334888"><ele>31.0</ele><time>2026-04-19T13:06:28.269Z</time></trkpt><trkpt lat="38.7598165" lon="16.2333495"><ele>31.0</ele><time>2026-04-19T13:06:30.259Z</time></trkpt><trkpt lat="38.7598692" lon="16.2332388"><ele>31.0</ele><time>2026-04-19T13:06:31.263Z</time></trkpt><trkpt lat="38.7599208" lon="16.2331077"><ele>31.0</ele><time>2026-04-19T13:06:32.27Z</time></trkpt><trkpt lat="38.7599594" lon="16.2329638"><ele>32.5</ele><time>2026-04-19T13:06:33.252Z</time></trkpt><trkpt lat="38.759985" lon="16.2328085"><ele>34.0</ele><time>2026-04-19T13:06:34.266Z</time></trkpt><trkpt lat="38.7600206" lon="16.2326481"><ele>35.5</ele><time>2026-04-19T13:06:35.259Z</time></trkpt><trkpt lat="38.7600706" lon="16.232489"><ele>37.0</ele><time>2026-04-19T13:06:36.259Z</time></trkpt><trkpt lat="38.7601252" lon="16.232336"><ele>38.400000000000006</ele><time>2026-04-19T13:06:37.26Z</time></trkpt><trkpt lat="38.760187" lon="16.2322021"><ele>39.800000000000004</ele><time>2026-04-19T13:06:38.266Z</time></trkpt><trkpt lat="38.7602621" lon="16.2321079"><ele>41.2</ele><time>2026-04-19T13:06:39.255Z</time></trkpt><trkpt lat="38.7603512" lon="16.2320437"><ele>42.6</ele><time>2026-04-19T13:06:40.258Z</time></trkpt><trkpt lat="38.760444" lon="16.2319877"><ele>44.0</ele><time>2026-04-19T13:06:41.261Z</time></trkpt><trkpt lat="38.7605553" lon="16.2319582"><ele>45.83333333333333</ele><time>2026-04-19T13:06:42.258Z</time></trkpt><trkpt lat="38.7606584" lon="16.2319314"><ele>47.666666666666664</ele><time>2026-04-19T13:06:43.257Z</time></trkpt><trkpt lat="38.7607128" lon="16.2318514"><ele>49.5</ele><time>2026-04-19T13:06:44.26Z</time></trkpt><trkpt lat="38.760773" lon="16.2317546"><ele>51.33333333333333</ele><time>2026-04-19T13:06:45.254Z</time></trkpt><trkpt lat="38.7608" lon="16.2316543"><ele>53.166666666666664</ele><time>2026-04-19T13:06:46.26Z</time></trkpt><trkpt lat="38.7608601" lon="16.2316002"><ele>55.0</ele><time>2026-04-19T13:06:47.265Z</time></trkpt><trkpt lat="38.76094" lon="16.231577"><ele>55.0</ele><time>2026-04-19T13:06:48.267Z</time></trkpt><trkpt lat="38.7610293" lon="16.2315416"><ele>55.0</ele><time>2026-04-19T13:06:49.271Z</time></trkpt><trkpt lat="38.7611201" lon="16.2314781"><ele>55.0</ele><time>2026-04-19T13:06:50.265Z</time></trkpt><trkpt lat="38.7612061" lon="16.2314035"><ele>55.0</ele><time>2026-04-19T13:06:51.256Z</time></trkpt><trkpt lat="38.7613052" lon="16.231334"><ele>55.0</ele><time>2026-04-19T13:06:52.261Z</time></trkpt><trkpt lat="38.7614094" lon="16.2312776"><ele>57.75</ele><time>2026-04-19T13:06:53.265Z</time></trkpt><trkpt lat="38.761515" lon="16.2312204"><ele>60.5</ele><time>2026-04-19T13:06:54.262Z</time></trkpt><trkpt lat="38.7616241" lon="16.231154"><ele>63.25</ele><time>2026-04-19T13:06:55.275Z</time></trkpt><trkpt lat="38.7617331" lon="16.2310891"><ele>66.0</ele><time>2026-04-19T13:06:56.268Z</time></trkpt><trkpt lat="38.7618354" lon="16.230991"><ele>69.5</ele><time>2026-04-19T13:06:57.252Z</time></trkpt><trkpt lat="38.7619372" lon="16.2309025"><ele>73.0</ele><time>2026-04-19T13:06:58.256Z</time></trkpt><trkpt lat="38.7620386" lon="16.2308318"><ele>76.5</ele><time>2026-04-19T13:06:59.256Z</time></trkpt><trkpt lat="38.7621419" lon="16.2307753"><ele>80.0</ele><time>2026-04-19T13:07:00.251Z</time></trkpt><trkpt lat="38.7622541" lon="16.2307407"><ele>80.0</ele><time>2026-04-19T13:07:01.245Z</time></trkpt><trkpt lat="38.7623671" lon="16.230681"><ele>80.0</ele><time>2026-04-19T13:07:02.251Z</time></trkpt><trkpt lat="38.7624951" lon="16.2306164"><ele>80.0</ele><time>2026-04-19T13:07:03.256Z</time></trkpt><trkpt lat="38.7626294" lon="16.2305581"><ele>80.0</ele><time>2026-04-19T13:07:04.269Z</time></trkpt><trkpt lat="38.7627681" lon="16.2304941"><ele>83.66666666666667</ele><time>2026-04-19T13:07:05.254Z</time></trkpt><trkpt lat="38.7629083" lon="16.2304203"><ele>87.33333333333333</ele><time>2026-04-19T13:07:06.265Z</time></trkpt><trkpt lat="38.7630525" lon="16.2303339"><ele>91.0</ele><time>2026-04-19T13:07:07.249Z</time></trkpt><trkpt lat="38.7632018" lon="16.2302391"><ele>91.0</ele><time>2026-04-19T13:07:08.271Z</time></trkpt><trkpt lat="38.7633424" lon="16.2301596"><ele>91.0</ele><time>2026-04-19T13:07:09.258Z</time></trkpt><trkpt lat="38.7634602" lon="16.2300961"><ele>91.0</ele><time>2026-04-19T13:07:10.258Z</time></trkpt><trkpt lat="38.7635616" lon="16.2300457"><ele>91.0</ele><time>2026-04-19T13:07:11.252Z</time></trkpt><trkpt lat="38.7636565" lon="16.2300107"><ele>94.5</ele><time>2026-04-19T13:07:12.254Z</time></trkpt><trkpt lat="38.7637615" lon="16.2299943"><ele>98.0</ele><time>2026-04-19T13:07:13.266Z</time></trkpt><trkpt lat="38.7638749" lon="16.2300105"><ele>101.5</ele><time>2026-04-19T13:07:14.273Z</time></trkpt><trkpt lat="38.7640018" lon="16.2300523"><ele>105.0</ele><time>2026-04-19T13:07:15.247Z</time></trkpt><trkpt lat="38.7641417" lon="16.2301095"><ele>105.0</ele><time>2026-04-19T13:07:16.264Z</time></trkpt><trkpt lat="38.764258" lon="16.2301621"><ele>105.0</ele><time>2026-04-19T13:07:17.251Z</time></trkpt><trkpt lat="38.7643698" lon="16.2302016"><ele>105.0</ele><time>2026-04-19T13:07:18.246Z</time></trkpt><trkpt lat="38.764467" lon="16.2302296"><ele>105.0</ele><time>2026-04-19T13:07:19.257Z</time></trkpt><trkpt lat="38.7645717" lon="16.2302417"><ele>105.0</ele><time>2026-04-19T13:07:20.256Z</time></trkpt><trkpt lat="38.7646775" lon="16.2301946"><ele>106.25</ele><time>2026-04-19T13:07:21.247Z</time></trkpt><trkpt lat="38.7647944" lon="16.2301654"><ele>107.5</ele><time>2026-04-19T13:07:22.261Z</time></trkpt><trkpt lat="38.7649136" lon="16.230158"><ele>108.75</ele><time>2026-04-19T13:07:23.25Z</time></trkpt><trkpt lat="38.7650258" lon="16.2301902"><ele>110.0</ele><time>2026-04-19T13:07:24.252Z</time></trkpt><trkpt lat="38.7651411" lon="16.2302425"><ele>111.0</ele><time>2026-04-19T13:07:25.266Z</time></trkpt><trkpt lat="38.7652478" lon="16.2303073"><ele>112.0</ele><time>2026-04-19T13:07:26.262Z</time></trkpt><trkpt lat="38.7653421" lon="16.2303609"><ele>113.0</ele><time>2026-04-19T13:07:27.254Z</time></trkpt><trkpt lat="38.7654222" lon="16.2303916"><ele>114.0</ele><time>2026-04-19T13:07:28.251Z</time></trkpt><trkpt lat="38.7655244" lon="16.2303991"><ele>115.0</ele><time>2026-04-19T13:07:30.253Z</time></trkpt><trkpt lat="38.7656093" lon="16.2303633"><ele>115.00000000000001</ele><time>2026-04-19T13:07:32.257Z</time></trkpt><trkpt lat="38.765702" lon="16.2303377"><ele>115.0</ele><time>2026-04-19T13:07:34.257Z</time></trkpt><trkpt lat="38.7658231" lon="16.2302966"><ele>115.0</ele><time>2026-04-19T13:07:36.263Z</time></trkpt><trkpt lat="38.7658837" lon="16.2302575"><ele>115.0</ele><time>2026-04-19T13:07:37.266Z</time></trkpt><trkpt lat="38.7659407" lon="16.2302084"><ele>115.00000000000001</ele><time>2026-04-19T13:07:38.251Z</time></trkpt><trkpt lat="38.7659998" lon="16.230148"><ele>115.0</ele><time>2026-04-19T13:07:39.249Z</time></trkpt><trkpt lat="38.7660567" lon="16.2300776"><ele>115.83333333333334</ele><time>2026-04-19T13:07:40.258Z</time></trkpt><trkpt lat="38.766114" lon="16.2300001"><ele>116.66666666666667</ele><time>2026-04-19T13:07:41.249Z</time></trkpt><trkpt lat="38.7661705" lon="16.2299209"><ele>117.5</ele><time>2026-04-19T13:07:42.261Z</time></trkpt><trkpt lat="38.7662243" lon="16.2298426"><ele>118.33333333333334</ele><time>2026-04-19T13:07:43.252Z</time></trkpt><trkpt lat="38.766279" lon="16.2297707"><ele>119.16666666666667</ele><time>2026-04-19T13:07:44.259Z</time></trkpt><trkpt lat="38.7663342" lon="16.2296965"><ele>120.0</ele><time>2026-04-19T13:07:45.256Z</time></trkpt><trkpt lat="38.7663904" lon="16.2296202"><ele>120.0</ele><time>2026-04-19T13:07:46.26Z</time></trkpt><trkpt lat="38.7664503" lon="16.2295414"><ele>120.0</ele><time>2026-04-19T13:07:47.254Z</time></trkpt><trkpt lat="38.7665115" lon="16.229457"><ele>120.0</ele><time>2026-04-19T13:07:48.269Z</time></trkpt><trkpt lat="38.7665753" lon="16.2293711"><ele>120.0</ele><time>2026-04-19T13:07:49.262Z</time></trkpt><trkpt lat="38.7666424" lon="16.2292807"><ele>120.0</ele><time>2026-04-19T13:07:50.266Z</time></trkpt><trkpt lat="38.7667128" lon="16.2291925"><ele>120.0</ele><time>2026-04-19T13:07:51.258Z</time></trkpt><trkpt lat="38.766781" lon="16.2291046"><ele>120.0</ele><time>2026-04-19T13:07:52.248Z</time></trkpt><trkpt lat="38.7668456" lon="16.2290092"><ele>120.0</ele><time>2026-04-19T13:07:53.252Z</time></trkpt><trkpt lat="38.7669246" lon="16.2289058"><ele>120.0</ele><time>2026-04-19T13:07:54.248Z</time></trkpt><trkpt lat="38.7670108" lon="16.2288027"><ele>120.0</ele><time>2026-04-19T13:07:55.249Z</time></trkpt><trkpt lat="38.7670847" lon="16.228693"><ele>121.6</ele><time>2026-04-19T13:07:56.255Z</time></trkpt><trkpt lat="38.7671587" lon="16.2285877"><ele>123.2</ele><time>2026-04-19T13:07:57.249Z</time></trkpt><trkpt lat="38.7672337" lon="16.2284892"><ele>124.80000000000001</ele><time>2026-04-19T13:07:58.254Z</time></trkpt><trkpt lat="38.767313" lon="16.2283969"><ele>126.4</ele><time>2026-04-19T13:07:59.26Z</time></trkpt><trkpt lat="38.7674087" lon="16.2283192"><ele>128.0</ele><time>2026-04-19T13:08:00.261Z</time></trkpt><trkpt lat="38.7674989" lon="16.2282278"><ele>128.0</ele><time>2026-04-19T13:08:01.25Z</time></trkpt><trkpt lat="38.7675938" lon="16.2281605"><ele>128.0</ele><time>2026-04-19T13:08:02.256Z</time></trkpt><trkpt lat="38.7676716" lon="16.2281172"><ele>128.0</ele><time>2026-04-19T13:08:03.253Z</time></trkpt><trkpt lat="38.7677666" lon="16.2280791"><ele>128.0</ele><time>2026-04-19T13:08:04.268Z</time></trkpt><trkpt lat="38.7678646" lon="16.2280513"><ele>128.0</ele><time>2026-04-19T13:08:05.268Z</time></trkpt><trkpt lat="38.7679657" lon="16.2280282"><ele>128.20000000000002</ele><time>2026-04-19T13:08:06.255Z</time></trkpt><trkpt lat="38.7680754" lon="16.228023"><ele>128.4</ele><time>2026-04-19T13:08:07.261Z</time></trkpt><trkpt lat="38.7681701" lon="16.2280377"><ele>128.60000000000002</ele><time>2026-04-19T13:08:08.256Z</time></trkpt><trkpt lat="38.7682664" lon="16.2280646"><ele>128.8</ele><time>2026-04-19T13:08:09.261Z</time></trkpt><trkpt lat="38.7683532" lon="16.2281093"><ele>129.0</ele><time>2026-04-19T13:08:10.264Z</time></trkpt><trkpt lat="38.7684454" lon="16.2281607"><ele>126.83333333333333</ele><time>2026-04-19T13:08:11.258Z</time></trkpt><trkpt lat="38.7685374" lon="16.2282066"><ele>124.66666666666666</ele><time>2026-04-19T13:08:12.256Z</time></trkpt><trkpt lat="38.7686285" lon="16.2282511"><ele>122.5</ele><time>2026-04-19T13:08:13.252Z</time></trkpt><trkpt lat="38.7687215" lon="16.22828"><ele>120.33333333333333</ele><time>2026-04-19T13:08:14.267Z</time></trkpt><trkpt lat="38.7688033" lon="16.2282966"><ele>118.16666666666666</ele><time>2026-04-19T13:08:15.252Z</time></trkpt><trkpt lat="38.7688659" lon="16.2283126"><ele>116.0</ele><time>2026-04-19T13:08:16.257Z</time></trkpt><trkpt lat="38.7689663" lon="16.2282629"><ele>115.99999999999999</ele><time>2026-04-19T13:08:18.268Z</time></trkpt><trkpt lat="38.7690407" lon="16.2282012"><ele>116.0</ele><time>2026-04-19T13:08:19.261Z</time></trkpt><trkpt lat="38.7691098" lon="16.2281371"><ele>116.0</ele><time>2026-04-19T13:08:20.257Z</time></trkpt><trkpt lat="38.7691643" lon="16.2280589"><ele>116.0</ele><time>2026-04-19T13:08:21.254Z</time></trkpt><trkpt lat="38.7692033" lon="16.2279587"><ele>115.99999999999999</ele><time>2026-04-19T13:08:22.26Z</time></trkpt><trkpt lat="38.7692333" lon="16.2278421"><ele>116.0</ele><time>2026-04-19T13:08:23.256Z</time></trkpt><trkpt lat="38.7692547" lon="16.22772"><ele>114.83333333333333</ele><time>2026-04-19T13:08:24.259Z</time></trkpt><trkpt lat="38.7692747" lon="16.2276152"><ele>113.66666666666666</ele><time>2026-04-19T13:08:25.252Z</time></trkpt><trkpt lat="38.7692965" lon="16.2274744"><ele>112.5</ele><time>2026-04-19T13:08:26.247Z</time></trkpt><trkpt lat="38.7692864" lon="16.2273672"><ele>111.33333333333334</ele><time>2026-04-19T13:08:27.263Z</time></trkpt><trkpt lat="38.769269" lon="16.2272577"><ele>110.16666666666667</ele><time>2026-04-19T13:08:28.249Z</time></trkpt><trkpt lat="38.7692604" lon="16.2271604"><ele>109.0</ele><time>2026-04-19T13:08:29.254Z</time></trkpt><trkpt lat="38.7692687" lon="16.2270722"><ele>107.2</ele><time>2026-04-19T13:08:30.262Z</time></trkpt><trkpt lat="38.769371" lon="16.2269979"><ele>105.4</ele><time>2026-04-19T13:08:32.275Z</time></trkpt><trkpt lat="38.7694717" lon="16.2270086"><ele>103.6</ele><time>2026-04-19T13:08:33.27Z</time></trkpt><trkpt lat="38.7695751" lon="16.2270354"><ele>101.8</ele><time>2026-04-19T13:08:34.254Z</time></trkpt><trkpt lat="38.7696691" lon="16.2270933"><ele>100.0</ele><time>2026-04-19T13:08:35.261Z</time></trkpt><trkpt lat="38.7697467" lon="16.2271557"><ele>100.00000000000001</ele><time>2026-04-19T13:08:36.274Z</time></trkpt><trkpt lat="38.7698179" lon="16.2271915"><ele>100.0</ele><time>2026-04-19T13:08:37.252Z</time></trkpt><trkpt lat="38.769888" lon="16.2271775"><ele>100.0</ele><time>2026-04-19T13:08:38.258Z</time></trkpt><trkpt lat="38.7699754" lon="16.227119"><ele>100.0</ele><time>2026-04-19T13:08:39.26Z</time></trkpt><trkpt lat="38.7700666" lon="16.2270726"><ele>100.00000000000001</ele><time>2026-04-19T13:08:40.252Z</time></trkpt><trkpt lat="38.7701644" lon="16.227026"><ele>100.0</ele><time>2026-04-19T13:08:41.26Z</time></trkpt><trkpt lat="38.7702611" lon="16.2270152"><ele>100.2</ele><time>2026-04-19T13:08:42.258Z</time></trkpt><trkpt lat="38.7703425" lon="16.2270446"><ele>100.4</ele><time>2026-04-19T13:08:43.254Z</time></trkpt><trkpt lat="38.7704219" lon="16.2270774"><ele>100.6</ele><time>2026-04-19T13:08:44.269Z</time></trkpt><trkpt lat="38.7705128" lon="16.2270782"><ele>100.8</ele><time>2026-04-19T13:08:46.253Z</time></trkpt><trkpt lat="38.7705795" lon="16.2270212"><ele>101.0</ele><time>2026-04-19T13:08:48.256Z</time></trkpt><trkpt lat="38.7706435" lon="16.2268727"><ele>100.99999999999999</ele><time>2026-04-19T13:08:50.255Z</time></trkpt><trkpt lat="38.7706791" lon="16.2267956"><ele>101.0</ele><time>2026-04-19T13:08:51.262Z</time></trkpt><trkpt lat="38.7707191" lon="16.2267111"><ele>101.0</ele><time>2026-04-19T13:08:52.253Z</time></trkpt><trkpt lat="38.7707604" lon="16.2266247"><ele>101.0</ele><time>2026-04-19T13:08:53.262Z</time></trkpt><trkpt lat="38.7708013" lon="16.2265374"><ele>100.99999999999999</ele><time>2026-04-19T13:08:54.266Z</time></trkpt><trkpt lat="38.7708439" lon="16.2264488"><ele>101.0</ele><time>2026-04-19T13:08:55.264Z</time></trkpt><trkpt lat="38.7708834" lon="16.2263629"><ele>100.83333333333333</ele><time>2026-04-19T13:08:56.259Z</time></trkpt><trkpt lat="38.7709196" lon="16.2262852"><ele>100.66666666666666</ele><time>2026-04-19T13:08:57.263Z</time></trkpt><trkpt lat="38.7709773" lon="16.2261625"><ele>100.5</ele><time>2026-04-19T13:08:59.258Z</time></trkpt><trkpt lat="38.7710159" lon="16.2260847"><ele>100.33333333333334</ele><time>2026-04-19T13:09:01.257Z</time></trkpt><trkpt lat="38.7710572" lon="16.2260011"><ele>100.16666666666667</ele><time>2026-04-19T13:09:04.264Z</time></trkpt><trkpt lat="38.7710989" lon="16.2259132"><ele>100.0</ele><time>2026-04-19T13:09:07.264Z</time></trkpt><trkpt lat="38.7711413" lon="16.2258205"><ele>100.33333333333334</ele><time>2026-04-19T13:09:10.276Z</time></trkpt><trkpt lat="38.7711865" lon="16.225721"><ele>100.66666666666667</ele><time>2026-04-19T13:09:13.27Z</time></trkpt><trkpt lat="38.7712205" lon="16.225647"><ele>101.0</ele><time>2026-04-19T13:09:15.247Z</time></trkpt><trkpt lat="38.7712602" lon="16.2255635"><ele>101.33333333333334</ele><time>2026-04-19T13:09:17.261Z</time></trkpt><trkpt lat="38.7713091" lon="16.225462"><ele>101.66666666666667</ele><time>2026-04-19T13:09:19.263Z</time></trkpt><trkpt lat="38.7713697" lon="16.225336"><ele>102.0</ele><time>2026-04-19T13:09:21.251Z</time></trkpt><trkpt lat="38.7714325" lon="16.2252005"><ele>100.71428571428572</ele><time>2026-04-19T13:09:23.262Z</time></trkpt><trkpt lat="38.7714658" lon="16.2251263"><ele>99.42857142857143</ele><time>2026-04-19T13:09:24.26Z</time></trkpt><trkpt lat="38.7715002" lon="16.2250522"><ele>98.14285714285714</ele><time>2026-04-19T13:09:25.255Z</time></trkpt><trkpt lat="38.7715335" lon="16.2249792"><ele>96.85714285714286</ele><time>2026-04-19T13:09:26.279Z</time></trkpt><trkpt lat="38.771567" lon="16.2249082"><ele>95.57142857142857</ele><time>2026-04-19T13:09:27.259Z</time></trkpt><trkpt lat="38.7716014" lon="16.2248353"><ele>94.28571428571429</ele><time>2026-04-19T13:09:28.25Z</time></trkpt><trkpt lat="38.7716383" lon="16.2247657"><ele>93.0</ele><time>2026-04-19T13:09:29.272Z</time></trkpt><trkpt lat="38.7716728" lon="16.2246926"><ele>91.85714285714286</ele><time>2026-04-19T13:09:30.264Z</time></trkpt><trkpt lat="38.7717078" lon="16.2246167"><ele>90.71428571428572</ele><time>2026-04-19T13:09:31.259Z</time></trkpt><trkpt lat="38.7717419" lon="16.224539"><ele>89.57142857142858</ele><time>2026-04-19T13:09:32.264Z</time></trkpt><trkpt lat="38.7717735" lon="16.2244571"><ele>88.42857142857143</ele><time>2026-04-19T13:09:33.273Z</time></trkpt><trkpt lat="38.7717997" lon="16.224371"><ele>87.28571428571428</ele><time>2026-04-19T13:09:34.257Z</time></trkpt><trkpt lat="38.771822" lon="16.2242801"><ele>86.14285714285715</ele><time>2026-04-19T13:09:35.259Z</time></trkpt><trkpt lat="38.7718403" lon="16.2241828"><ele>85.0</ele><time>2026-04-19T13:09:36.261Z</time></trkpt><trkpt lat="38.7718584" lon="16.2240865"><ele>85.0</ele><time>2026-04-19T13:09:37.258Z</time></trkpt><trkpt lat="38.7718716" lon="16.2239815"><ele>85.0</ele><time>2026-04-19T13:09:38.272Z</time></trkpt><trkpt lat="38.7718879" lon="16.2238823"><ele>85.0</ele><time>2026-04-19T13:09:39.265Z</time></trkpt><trkpt lat="38.7719136" lon="16.2237711"><ele>85.0</ele><time>2026-04-19T13:09:40.259Z</time></trkpt><trkpt lat="38.7719466" lon="16.2236622"><ele>85.0</ele><time>2026-04-19T13:09:41.268Z</time></trkpt><trkpt lat="38.7719908" lon="16.2235603"><ele>85.0</ele><time>2026-04-19T13:09:42.264Z</time></trkpt><trkpt lat="38.7720482" lon="16.2234731"><ele>82.0</ele><time>2026-04-19T13:09:43.259Z</time></trkpt><trkpt lat="38.7721053" lon="16.2233899"><ele>79.0</ele><time>2026-04-19T13:09:44.262Z</time></trkpt><trkpt lat="38.7721901" lon="16.223339"><ele>76.0</ele><time>2026-04-19T13:09:45.268Z</time></trkpt><trkpt lat="38.7722881" lon="16.2233026"><ele>73.0</ele><time>2026-04-19T13:09:46.259Z</time></trkpt><trkpt lat="38.7723918" lon="16.2232738"><ele>70.0</ele><time>2026-04-19T13:09:47.263Z</time></trkpt><trkpt lat="38.7724964" lon="16.223246"><ele>70.0</ele><time>2026-04-19T13:09:48.257Z</time></trkpt><trkpt lat="38.7726032" lon="16.223224"><ele>70.0</ele><time>2026-04-19T13:09:49.273Z</time></trkpt><trkpt lat="38.7727116" lon="16.2232147"><ele>70.0</ele><time>2026-04-19T13:09:50.257Z</time></trkpt><trkpt lat="38.7728187" lon="16.2232071"><ele>70.0</ele><time>2026-04-19T13:09:51.256Z</time></trkpt><trkpt lat="38.7729216" lon="16.2232372"><ele>70.0</ele><time>2026-04-19T13:09:52.259Z</time></trkpt><trkpt lat="38.7730193" lon="16.223305"><ele>70.0</ele><time>2026-04-19T13:09:53.266Z</time></trkpt><trkpt lat="38.7731151" lon="16.2233615"><ele>70.0</ele><time>2026-04-19T13:09:54.253Z</time></trkpt><trkpt lat="38.7732127" lon="16.2233796"><ele>70.0</ele><time>2026-04-19T13:09:55.253Z</time></trkpt><trkpt lat="38.773307" lon="16.2233483"><ele>70.0</ele><time>2026-04-19T13:09:56.259Z</time></trkpt><trkpt lat="38.773383" lon="16.2232671"><ele>70.0</ele><time>2026-04-19T13:09:57.263Z</time></trkpt><trkpt lat="38.7734453" lon="16.2231572"><ele>65.4</ele><time>2026-04-19T13:09:58.248Z</time></trkpt><trkpt lat="38.7734998" lon="16.2230402"><ele>60.8</ele><time>2026-04-19T13:09:59.272Z</time></trkpt><trkpt lat="38.7735644" lon="16.2229245"><ele>56.2</ele><time>2026-04-19T13:10:00.262Z</time></trkpt><trkpt lat="38.7736481" lon="16.2228274"><ele>51.6</ele><time>2026-04-19T13:10:01.267Z</time></trkpt><trkpt lat="38.7737477" lon="16.2227577"><ele>47.0</ele><time>2026-04-19T13:10:02.258Z</time></trkpt><trkpt lat="38.7738613" lon="16.2227227"><ele>47.0</ele><time>2026-04-19T13:10:03.264Z</time></trkpt><trkpt lat="38.7739809" lon="16.2227216"><ele>47.0</ele><time>2026-04-19T13:10:04.258Z</time></trkpt><trkpt lat="38.7741038" lon="16.2227404"><ele>47.0</ele><time>2026-04-19T13:10:05.258Z</time></trkpt><trkpt lat="38.7742309" lon="16.2227632"><ele>47.0</ele><time>2026-04-19T13:10:06.261Z</time></trkpt><trkpt lat="38.7743605" lon="16.2227852"><ele>46.25</ele><time>2026-04-19T13:10:07.257Z</time></trkpt><trkpt lat="38.7744904" lon="16.2228057"><ele>45.5</ele><time>2026-04-19T13:10:08.253Z</time></trkpt><trkpt lat="38.7746163" lon="16.2228136"><ele>44.75</ele><time>2026-04-19T13:10:09.261Z</time></trkpt><trkpt lat="38.7747323" lon="16.2228026"><ele>44.0</ele><time>2026-04-19T13:10:10.256Z</time></trkpt><trkpt lat="38.7748324" lon="16.2227667"><ele>44.0</ele><time>2026-04-19T13:10:11.263Z</time></trkpt><trkpt lat="38.774914" lon="16.2226972"><ele>44.0</ele><time>2026-04-19T13:10:12.265Z</time></trkpt><trkpt lat="38.7749762" lon="16.2225938"><ele>44.0</ele><time>2026-04-19T13:10:13.256Z</time></trkpt><trkpt lat="38.7750152" lon="16.2224608"><ele>44.0</ele><time>2026-04-19T13:10:14.259Z</time></trkpt><trkpt lat="38.7750402" lon="16.2223035"><ele>44.0</ele><time>2026-04-19T13:10:15.264Z</time></trkpt><trkpt lat="38.775065" lon="16.2221276"><ele>43.25</ele><time>2026-04-19T13:10:16.254Z</time></trkpt><trkpt lat="38.775092" lon="16.2219419"><ele>42.5</ele><time>2026-04-19T13:10:17.266Z</time></trkpt><trkpt lat="38.7751212" lon="16.2217527"><ele>41.75</ele><time>2026-04-19T13:10:18.275Z</time></trkpt><trkpt lat="38.7751519" lon="16.2215708"><ele>41.0</ele><time>2026-04-19T13:10:19.249Z</time></trkpt><trkpt lat="38.7751855" lon="16.2214071"><ele>41.0</ele><time>2026-04-19T13:10:20.26Z</time></trkpt><trkpt lat="38.7752204" lon="16.2212685"><ele>41.0</ele><time>2026-04-19T13:10:21.254Z</time></trkpt><trkpt lat="38.7752532" lon="16.2211544"><ele>41.0</ele><time>2026-04-19T13:10:22.253Z</time></trkpt><trkpt lat="38.7752759" lon="16.2210667"><ele>41.0</ele><time>2026-04-19T13:10:23.266Z</time></trkpt><trkpt lat="38.775274" lon="16.2209651"><ele>41.0</ele><time>2026-04-19T13:10:25.251Z</time></trkpt><trkpt lat="38.7752087" lon="16.220896"><ele>41.0</ele><time>2026-04-19T13:10:27.271Z</time></trkpt><trkpt lat="38.7750961" lon="16.2208318"><ele>41.0</ele><time>2026-04-19T13:10:29.26Z</time></trkpt><trkpt lat="38.7750264" lon="16.2207997"><ele>41.0</ele><time>2026-04-19T13:10:30.256Z</time></trkpt><trkpt lat="38.7749551" lon="16.2207592"><ele>41.0</ele><time>2026-04-19T13:10:31.262Z</time></trkpt><trkpt lat="38.7748916" lon="16.2206982"><ele>41.0</ele><time>2026-04-19T13:10:32.262Z</time></trkpt><trkpt lat="38.7748388" lon="16.220623"><ele>41.0</ele><time>2026-04-19T13:10:33.256Z</time></trkpt><trkpt lat="38.774794" lon="16.2205367"><ele>41.0</ele><time>2026-04-19T13:10:34.255Z</time></trkpt><trkpt lat="38.7747549" lon="16.2204469"><ele>40.666666666666664</ele><time>2026-04-19T13:10:35.263Z</time></trkpt><trkpt lat="38.774716" lon="16.2203536"><ele>40.33333333333333</ele><time>2026-04-19T13:10:36.256Z</time></trkpt><trkpt lat="38.7746703" lon="16.2202603"><ele>40.0</ele><time>2026-04-19T13:10:37.254Z</time></trkpt><trkpt lat="38.7746212" lon="16.2201693"><ele>39.666666666666664</ele><time>2026-04-19T13:10:38.263Z</time></trkpt><trkpt lat="38.7745717" lon="16.2200789"><ele>39.333333333333336</ele><time>2026-04-19T13:10:39.254Z</time></trkpt><trkpt lat="38.7745227" lon="16.2199851"><ele>39.0</ele><time>2026-04-19T13:10:40.254Z</time></trkpt><trkpt lat="38.7744744" lon="16.2198862"><ele>39.0</ele><time>2026-04-19T13:10:41.257Z</time></trkpt><trkpt lat="38.7744252" lon="16.2197857"><ele>39.0</ele><time>2026-04-19T13:10:42.247Z</time></trkpt><trkpt lat="38.7743765" lon="16.2196809"><ele>39.0</ele><time>2026-04-19T13:10:43.253Z</time></trkpt><trkpt lat="38.7743237" lon="16.2195719"><ele>39.0</ele><time>2026-04-19T13:10:44.259Z</time></trkpt><trkpt lat="38.7742666" lon="16.2194544"><ele>39.0</ele><time>2026-04-19T13:10:45.263Z</time></trkpt><trkpt lat="38.7742167" lon="16.2193231"><ele>38.0</ele><time>2026-04-19T13:10:46.266Z</time></trkpt><trkpt lat="38.7741752" lon="16.2191759"><ele>37.0</ele><time>2026-04-19T13:10:47.271Z</time></trkpt><trkpt lat="38.774146" lon="16.2190262"><ele>36.0</ele><time>2026-04-19T13:10:48.259Z</time></trkpt><trkpt lat="38.7741247" lon="16.218881"><ele>35.0</ele><time>2026-04-19T13:10:49.248Z</time></trkpt><trkpt lat="38.7741065" lon="16.2187461"><ele>34.5</ele><time>2026-04-19T13:10:50.255Z</time></trkpt><trkpt lat="38.7740871" lon="16.2186272"><ele>34.0</ele><time>2026-04-19T13:10:51.252Z</time></trkpt><trkpt lat="38.7740684" lon="16.2185389"><ele>33.5</ele><time>2026-04-19T13:10:52.253Z</time></trkpt><trkpt lat="38.7740512" lon="16.2184501"><ele>33.0</ele><time>2026-04-19T13:10:54.263Z</time></trkpt><trkpt lat="38.7740501" lon="16.2183566"><ele>32.5</ele><time>2026-04-19T13:11:32.261Z</time></trkpt><trkpt lat="38.7740481" lon="16.2182632"><ele>32.0</ele><time>2026-04-19T13:11:34.276Z</time></trkpt><trkpt lat="38.7740283" lon="16.218086"><ele>31.200000000000003</ele><time>2026-04-19T13:11:36.262Z</time></trkpt><trkpt lat="38.7740129" lon="16.2179688"><ele>30.400000000000002</ele><time>2026-04-19T13:11:37.267Z</time></trkpt><trkpt lat="38.7739965" lon="16.2178347"><ele>29.599999999999998</ele><time>2026-04-19T13:11:38.269Z</time></trkpt><trkpt lat="38.7739793" lon="16.2176961"><ele>28.799999999999997</ele><time>2026-04-19T13:11:39.26Z</time></trkpt><trkpt lat="38.7739613" lon="16.2175619"><ele>28.0</ele><time>2026-04-19T13:11:40.253Z</time></trkpt><trkpt lat="38.7739403" lon="16.2174308"><ele>27.2</ele><time>2026-04-19T13:11:41.267Z</time></trkpt><trkpt lat="38.7739142" lon="16.2173033"><ele>26.4</ele><time>2026-04-19T13:11:42.259Z</time></trkpt><trkpt lat="38.7738835" lon="16.2171814"><ele>25.599999999999998</ele><time>2026-04-19T13:11:43.256Z</time></trkpt><trkpt lat="38.773854" lon="16.217068"><ele>24.799999999999997</ele><time>2026-04-19T13:11:44.255Z</time></trkpt><trkpt lat="38.7738135" lon="16.2169724"><ele>24.0</ele><time>2026-04-19T13:11:45.259Z</time></trkpt><trkpt lat="38.7737636" lon="16.2168852"><ele>24.0</ele><time>2026-04-19T13:11:46.265Z</time></trkpt><trkpt lat="38.773715" lon="16.2168004"><ele>24.0</ele><time>2026-04-19T13:11:47.272Z</time></trkpt><trkpt lat="38.7736639" lon="16.2167053"><ele>24.0</ele><time>2026-04-19T13:11:48.249Z</time></trkpt><trkpt lat="38.7736162" lon="16.2165997"><ele>24.0</ele><time>2026-04-19T13:11:49.275Z</time></trkpt><trkpt lat="38.7735771" lon="16.2164904"><ele>24.0</ele><time>2026-04-19T13:11:50.277Z</time></trkpt><trkpt lat="38.7735456" lon="16.2163848"><ele>24.0</ele><time>2026-04-19T13:11:51.262Z</time></trkpt><trkpt lat="38.7735163" lon="16.2162898"><ele>22.0</ele><time>2026-04-19T13:11:52.25Z</time></trkpt><trkpt lat="38.7734842" lon="16.2161882"><ele>20.0</ele><time>2026-04-19T13:11:54.269Z</time></trkpt><trkpt lat="38.7735174" lon="16.2161123"><ele>18.0</ele><time>2026-04-19T13:11:56.263Z</time></trkpt><trkpt lat="38.7736311" lon="16.2160729"><ele>16.0</ele><time>2026-04-19T13:11:58.269Z</time></trkpt><trkpt lat="38.7737086" lon="16.2160557"><ele>14.0</ele><time>2026-04-19T13:11:59.275Z</time></trkpt><trkpt lat="38.7737954" lon="16.2160454"><ele>12.0</ele><time>2026-04-19T13:12:00.268Z</time></trkpt><trkpt lat="38.7738953" lon="16.2160387"><ele>12.0</ele><time>2026-04-19T13:12:01.268Z</time></trkpt><trkpt lat="38.7740061" lon="16.2160437"><ele>12.0</ele><time>2026-04-19T13:12:02.276Z</time></trkpt><trkpt lat="38.7741259" lon="16.2160672"><ele>12.0</ele><time>2026-04-19T13:12:03.254Z</time></trkpt><trkpt lat="38.7742531" lon="16.2161045"><ele>12.0</ele><time>2026-04-19T13:12:04.256Z</time></trkpt><trkpt lat="38.7743878" lon="16.2161432"><ele>11.0</ele><time>2026-04-19T13:12:05.263Z</time></trkpt><trkpt lat="38.7745315" lon="16.2161807"><ele>10.0</ele><time>2026-04-19T13:12:06.26Z</time></trkpt><trkpt lat="38.7746799" lon="16.2162241"><ele>9.0</ele><time>2026-04-19T13:12:07.258Z</time></trkpt><trkpt lat="38.7748303" lon="16.216279"><ele>9.0</ele><time>2026-04-19T13:12:08.256Z</time></trkpt><trkpt lat="38.7749779" lon="16.2163421"><ele>9.0</ele><time>2026-04-19T13:12:09.259Z</time></trkpt><trkpt lat="38.7751219" lon="16.2164116"><ele>9.0</ele><time>2026-04-19T13:12:10.267Z</time></trkpt><trkpt lat="38.7752662" lon="16.216491"><ele>11.0</ele><time>2026-04-19T13:12:11.252Z</time></trkpt><trkpt lat="38.7754259" lon="16.21658"><ele>13.0</ele><time>2026-04-19T13:12:12.253Z</time></trkpt><trkpt lat="38.7756023" lon="16.2166746"><ele>15.0</ele><time>2026-04-19T13:12:13.261Z</time></trkpt><trkpt lat="38.7757712" lon="16.2167601"><ele>15.0</ele><time>2026-04-19T13:12:14.269Z</time></trkpt><trkpt lat="38.7759291" lon="16.2168395"><ele>15.0</ele><time>2026-04-19T13:12:15.25Z</time></trkpt><trkpt lat="38.7760803" lon="16.2169158"><ele>15.0</ele><time>2026-04-19T13:12:16.263Z</time></trkpt><trkpt lat="38.7762273" lon="16.216987"><ele>14.0</ele><time>2026-04-19T13:12:17.26Z</time></trkpt><trkpt lat="38.776368" lon="16.2170539"><ele>13.0</ele><time>2026-04-19T13:12:18.253Z</time></trkpt><trkpt lat="38.7765013" lon="16.2171205"><ele>12.0</ele><time>2026-04-19T13:12:19.262Z</time></trkpt><trkpt lat="38.7766248" lon="16.217185"><ele>11.0</ele><time>2026-04-19T13:12:20.255Z</time></trkpt><trkpt lat="38.7767379" lon="16.2172428"><ele>11.0</ele><time>2026-04-19T13:12:21.252Z</time></trkpt><trkpt lat="38.7768436" lon="16.2172951"><ele>11.0</ele><time>2026-04-19T13:12:22.268Z</time></trkpt><trkpt lat="38.7769451" lon="16.2173438"><ele>11.0</ele><time>2026-04-19T13:12:23.262Z</time></trkpt><trkpt lat="38.7770387" lon="16.2173913"><ele>11.0</ele><time>2026-04-19T13:12:24.251Z</time></trkpt><trkpt lat="38.7771221" lon="16.2174336"><ele>11.0</ele><time>2026-04-19T13:12:25.259Z</time></trkpt><trkpt lat="38.7771951" lon="16.2174682"><ele>11.5</ele><time>2026-04-19T13:12:26.265Z</time></trkpt><trkpt lat="38.7772594" lon="16.2174957"><ele>12.0</ele><time>2026-04-19T13:12:27.254Z</time></trkpt><trkpt lat="38.7773488" lon="16.2175341"><ele>12.5</ele><time>2026-04-19T13:12:29.257Z</time></trkpt><trkpt lat="38.7773889" lon="16.2174551"><ele>13.0</ele><time>2026-04-19T13:12:31.272Z</time></trkpt><trkpt lat="38.7774116" lon="16.2173773"><ele>13.500000000000002</ele><time>2026-04-19T13:12:32.263Z</time></trkpt><trkpt lat="38.777445" lon="16.2172761"><ele>14.0</ele><time>2026-04-19T13:12:33.251Z</time></trkpt><trkpt lat="38.7774809" lon="16.2171658"><ele>12.799999999999999</ele><time>2026-04-19T13:12:34.257Z</time></trkpt><trkpt lat="38.7775203" lon="16.2170516"><ele>11.599999999999998</ele><time>2026-04-19T13:12:35.254Z</time></trkpt><trkpt lat="38.7775638" lon="16.2169283"><ele>10.4</ele><time>2026-04-19T13:12:36.262Z</time></trkpt><trkpt lat="38.7776096" lon="16.2167998"><ele>9.2</ele><time>2026-04-19T13:12:37.262Z</time></trkpt><trkpt lat="38.7776529" lon="16.2166675"><ele>8.0</ele><time>2026-04-19T13:12:38.252Z</time></trkpt><trkpt lat="38.7776964" lon="16.2165348"><ele>7.800000000000001</ele><time>2026-04-19T13:12:39.249Z</time></trkpt><trkpt lat="38.7777348" lon="16.2164034"><ele>7.6000000000000005</ele><time>2026-04-19T13:12:40.263Z</time></trkpt><trkpt lat="38.7777698" lon="16.2162778"><ele>7.3999999999999995</ele><time>2026-04-19T13:12:41.268Z</time></trkpt><trkpt lat="38.7777876" lon="16.2161506"><ele>7.199999999999999</ele><time>2026-04-19T13:12:42.26Z</time></trkpt><trkpt lat="38.7778205" lon="16.2160492"><ele>7.0</ele><time>2026-04-19T13:12:43.268Z</time></trkpt><trkpt lat="38.7778474" lon="16.2159513"><ele>7.0</ele><time>2026-04-19T13:12:44.263Z</time></trkpt><trkpt lat="38.7778746" lon="16.215871"><ele>7.0</ele><time>2026-04-19T13:12:45.253Z</time></trkpt><trkpt lat="38.7779247" lon="16.2157521"><ele>7.0</ele><time>2026-04-19T13:12:47.26Z</time></trkpt><trkpt lat="38.7779008" lon="16.2156772"><ele>7.0</ele><time>2026-04-19T13:12:49.279Z</time></trkpt><trkpt lat="38.7778382" lon="16.2157108"><ele>7.0</ele><time>2026-04-19T13:12:51.259Z</time></trkpt><trkpt lat="38.7778917" lon="16.2157705"><ele>7.0</ele><time>2026-04-19T13:12:52.259Z</time></trkpt><trkpt lat="38.7779449" lon="16.2158292"><ele>7.0</ele><time>2026-04-19T13:12:53.257Z</time></trkpt><trkpt lat="38.7780122" lon="16.2158821"><ele>7.0</ele><time>2026-04-19T13:12:54.255Z</time></trkpt><trkpt lat="38.778095" lon="16.2159242"><ele>6.999999999999999</ele><time>2026-04-19T13:12:55.261Z</time></trkpt><trkpt lat="38.778184" lon="16.2159708"><ele>6.999999999999999</ele><time>2026-04-19T13:12:56.252Z</time></trkpt><trkpt lat="38.7782753" lon="16.2160202"><ele>7.0</ele><time>2026-04-19T13:12:57.262Z</time></trkpt><trkpt lat="38.7783684" lon="16.2160717"><ele>7.0</ele><time>2026-04-19T13:12:58.256Z</time></trkpt><trkpt lat="38.7784642" lon="16.2161141"><ele>7.0</ele><time>2026-04-19T13:12:59.255Z</time></trkpt><trkpt lat="38.7785555" lon="16.2161581"><ele>6.999999999999999</ele><time>2026-04-19T13:13:00.249Z</time></trkpt><trkpt lat="38.7786513" lon="16.2162099"><ele>6.999999999999999</ele><time>2026-04-19T13:13:01.258Z</time></trkpt><trkpt lat="38.7787335" lon="16.21626"><ele>7.0</ele><time>2026-04-19T13:13:02.251Z</time></trkpt><trkpt lat="38.7788171" lon="16.2163109"><ele>7.0</ele><time>2026-04-19T13:13:03.259Z</time></trkpt><trkpt lat="38.7789007" lon="16.2163599"><ele>7.000000000000001</ele><time>2026-04-19T13:13:04.258Z</time></trkpt><trkpt lat="38.7789848" lon="16.2164059"><ele>7.0</ele><time>2026-04-19T13:13:05.254Z</time></trkpt><trkpt lat="38.7790654" lon="16.2164458"><ele>7.0</ele><time>2026-04-19T13:13:06.259Z</time></trkpt><trkpt lat="38.7791365" lon="16.2164813"><ele>7.0</ele><time>2026-04-19T13:13:07.26Z</time></trkpt><trkpt lat="38.7792472" lon="16.2164324"><ele>7.000000000000001</ele><time>2026-04-19T13:13:09.255Z</time></trkpt><trkpt lat="38.7792894" lon="16.2163697"><ele>7.0</ele><time>2026-04-19T13:13:10.257Z</time></trkpt><trkpt lat="38.7793135" lon="16.2162758"><ele>7.0</ele><time>2026-04-19T13:13:11.262Z</time></trkpt><trkpt lat="38.779338" lon="16.2161677"><ele>6.999999999999999</ele><time>2026-04-19T13:13:12.257Z</time></trkpt><trkpt lat="38.7793673" lon="16.2160643"><ele>6.999999999999999</ele><time>2026-04-19T13:13:13.293Z</time></trkpt><trkpt lat="38.7793843" lon="16.2159662"><ele>7.0</ele><time>2026-04-19T13:13:14.264Z</time></trkpt><trkpt lat="38.7794113" lon="16.21588"><ele>7.0</ele><time>2026-04-19T13:13:15.245Z</time></trkpt><trkpt lat="38.7794462" lon="16.2157257"><ele>6.833333333333334</ele><time>2026-04-19T13:13:17.256Z</time></trkpt><trkpt lat="38.7794951" lon="16.2156727"><ele>6.666666666666667</ele><time>2026-04-19T13:13:18.265Z</time></trkpt><trkpt lat="38.779577" lon="16.2155574"><ele>6.5</ele><time>2026-04-19T13:13:20.26Z</time></trkpt><trkpt lat="38.7796515" lon="16.2155196"><ele>6.333333333333334</ele><time>2026-04-19T13:13:21.255Z</time></trkpt><trkpt lat="38.7797113" lon="16.2154814"><ele>6.166666666666667</ele><time>2026-04-19T13:13:22.261Z</time></trkpt><trkpt lat="38.7797664" lon="16.2154135"><ele>6.0</ele><time>2026-04-19T13:13:23.255Z</time></trkpt><trkpt lat="38.7798168" lon="16.2153431"><ele>6.0</ele><time>2026-04-19T13:13:24.25Z</time></trkpt><trkpt lat="38.7798621" lon="16.2152797"><ele>6.0</ele><time>2026-04-19T13:13:25.254Z</time></trkpt><trkpt lat="38.7799341" lon="16.2152808"><ele>6.0</ele><time>2026-04-19T13:13:27.25Z</time></trkpt><trkpt lat="38.7800472" lon="16.2153629"><ele>6.0</ele><time>2026-04-19T13:13:29.274Z</time></trkpt><trkpt lat="38.7801205" lon="16.2153971"><ele>6.0</ele><time>2026-04-19T13:13:30.255Z</time></trkpt><trkpt lat="38.780199" lon="16.2154317"><ele>6.0</ele><time>2026-04-19T13:13:31.263Z</time></trkpt><trkpt lat="38.7802695" lon="16.2154671"><ele>5.833333333333333</ele><time>2026-04-19T13:13:32.256Z</time></trkpt><trkpt lat="38.7803473" lon="16.2155041"><ele>5.666666666666667</ele><time>2026-04-19T13:13:33.251Z</time></trkpt><trkpt lat="38.780429" lon="16.2155434"><ele>5.5</ele><time>2026-04-19T13:13:34.263Z</time></trkpt><trkpt lat="38.7805185" lon="16.2155702"><ele>5.333333333333334</ele><time>2026-04-19T13:13:35.255Z</time></trkpt><trkpt lat="38.7806104" lon="16.2155816"><ele>5.166666666666667</ele><time>2026-04-19T13:13:36.265Z</time></trkpt><trkpt lat="38.7806964" lon="16.2155756"><ele>5.0</ele><time>2026-04-19T13:13:37.248Z</time></trkpt><trkpt lat="38.7807641" lon="16.2155601"><ele>5.0</ele><time>2026-04-19T13:13:38.252Z</time></trkpt><trkpt lat="38.7808721" lon="16.2155179"><ele>5.0</ele><time>2026-04-19T13:13:40.255Z</time></trkpt><trkpt lat="38.7809753" lon="16.2154806"><ele>5.0</ele><time>2026-04-19T13:13:42.261Z</time></trkpt><trkpt lat="38.7810866" lon="16.2154932"><ele>5.0</ele><time>2026-04-19T13:13:44.254Z</time></trkpt><trkpt lat="38.78115" lon="16.2155152"><ele>5.0</ele><time>2026-04-19T13:13:45.265Z</time></trkpt><trkpt lat="38.7812197" lon="16.2155379"><ele>5.0</ele><time>2026-04-19T13:13:46.254Z</time></trkpt><trkpt lat="38.7812936" lon="16.2155598"><ele>5.0</ele><time>2026-04-19T13:13:47.251Z</time></trkpt><trkpt lat="38.7813728" lon="16.2155809"><ele>5.0</ele><time>2026-04-19T13:13:48.257Z</time></trkpt><trkpt lat="38.7814558" lon="16.2156033"><ele>5.0</ele><time>2026-04-19T13:13:49.256Z</time></trkpt><trkpt lat="38.7815412" lon="16.2156241"><ele>5.0</ele><time>2026-04-19T13:13:50.249Z</time></trkpt><trkpt lat="38.7816274" lon="16.2156402"><ele>5.0</ele><time>2026-04-19T13:13:51.254Z</time></trkpt><trkpt lat="38.7817139" lon="16.2156517"><ele>5.0</ele><time>2026-04-19T13:13:52.259Z</time></trkpt><trkpt lat="38.7818013" lon="16.2156685"><ele>5.0</ele><time>2026-04-19T13:13:53.256Z</time></trkpt><trkpt lat="38.7818903" lon="16.2156938"><ele>5.0</ele><time>2026-04-19T13:13:54.255Z</time></trkpt><trkpt lat="38.781977" lon="16.2157268"><ele>5.0</ele><time>2026-04-19T13:13:55.258Z</time></trkpt><trkpt lat="38.7820819" lon="16.215769"><ele>5.0</ele><time>2026-04-19T13:13:56.254Z</time></trkpt><trkpt lat="38.7821432" lon="16.2157981"><ele>5.0</ele><time>2026-04-19T13:13:57.256Z</time></trkpt><trkpt lat="38.7822159" lon="16.2158275"><ele>5.166666666666667</ele><time>2026-04-19T13:13:58.269Z</time></trkpt><trkpt lat="38.7822986" lon="16.2158499"><ele>5.333333333333334</ele><time>2026-04-19T13:13:59.256Z</time></trkpt><trkpt lat="38.7823748" lon="16.2158675"><ele>5.5</ele><time>2026-04-19T13:14:00.255Z</time></trkpt><trkpt lat="38.7824656" lon="16.2158883"><ele>5.666666666666667</ele><time>2026-04-19T13:14:01.256Z</time></trkpt><trkpt lat="38.7825495" lon="16.2159036"><ele>5.833333333333333</ele><time>2026-04-19T13:14:02.253Z</time></trkpt><trkpt lat="38.7826402" lon="16.2159191"><ele>6.0</ele><time>2026-04-19T13:14:03.258Z</time></trkpt><trkpt lat="38.7827159" lon="16.2159321"><ele>6.0</ele><time>2026-04-19T13:14:04.257Z</time></trkpt><trkpt lat="38.7827951" lon="16.2159379"><ele>6.0</ele><time>2026-04-19T13:14:05.26Z</time></trkpt><trkpt lat="38.782879" lon="16.215947"><ele>6.0</ele><time>2026-04-19T13:14:06.252Z</time></trkpt><trkpt lat="38.782963" lon="16.2159509"><ele>6.0</ele><time>2026-04-19T13:14:07.261Z</time></trkpt><trkpt lat="38.7830502" lon="16.2159583"><ele>6.0</ele><time>2026-04-19T13:14:08.261Z</time></trkpt><trkpt lat="38.7831403" lon="16.2159653"><ele>6.0</ele><time>2026-04-19T13:14:09.253Z</time></trkpt><trkpt lat="38.7832426" lon="16.2159866"><ele>6.0</ele><time>2026-04-19T13:14:10.261Z</time></trkpt><trkpt lat="38.7833488" lon="16.2160141"><ele>6.0</ele><time>2026-04-19T13:14:11.261Z</time></trkpt><trkpt lat="38.7834557" lon="16.2160542"><ele>6.0</ele><time>2026-04-19T13:14:12.252Z</time></trkpt><trkpt lat="38.7835617" lon="16.216107"><ele>6.0</ele><time>2026-04-19T13:14:13.268Z</time></trkpt><trkpt lat="38.7836685" lon="16.2161684"><ele>5.75</ele><time>2026-04-19T13:14:14.263Z</time></trkpt><trkpt lat="38.783772" lon="16.2162354"><ele>5.5</ele><time>2026-04-19T13:14:15.252Z</time></trkpt><trkpt lat="38.7838708" lon="16.2163068"><ele>5.25</ele><time>2026-04-19T13:14:16.253Z</time></trkpt><trkpt lat="38.7839668" lon="16.2163805"><ele>5.0</ele><time>2026-04-19T13:14:17.26Z</time></trkpt><trkpt lat="38.7840641" lon="16.2164556"><ele>5.2</ele><time>2026-04-19T13:14:18.26Z</time></trkpt><trkpt lat="38.7841558" lon="16.2165308"><ele>5.4</ele><time>2026-04-19T13:14:19.26Z</time></trkpt><trkpt lat="38.784236" lon="16.2165969"><ele>5.6</ele><time>2026-04-19T13:14:20.253Z</time></trkpt><trkpt lat="38.784307" lon="16.2166594"><ele>5.8</ele><time>2026-04-19T13:14:21.256Z</time></trkpt><trkpt lat="38.7843763" lon="16.2167281"><ele>6.0</ele><time>2026-04-19T13:14:22.256Z</time></trkpt><trkpt lat="38.7844457" lon="16.2167963"><ele>6.0</ele><time>2026-04-19T13:14:23.263Z</time></trkpt><trkpt lat="38.7845246" lon="16.2168617"><ele>6.0</ele><time>2026-04-19T13:14:24.262Z</time></trkpt><trkpt lat="38.7846097" lon="16.2169229"><ele>6.0</ele><time>2026-04-19T13:14:25.254Z</time></trkpt><trkpt lat="38.7847036" lon="16.2169795"><ele>6.0</ele><time>2026-04-19T13:14:26.26Z</time></trkpt><trkpt lat="38.7848012" lon="16.2170407"><ele>6.0</ele><time>2026-04-19T13:14:27.261Z</time></trkpt><trkpt lat="38.7849089" lon="16.2171121"><ele>6.0</ele><time>2026-04-19T13:14:28.26Z</time></trkpt><trkpt lat="38.7850272" lon="16.2171825"><ele>6.0</ele><time>2026-04-19T13:14:29.259Z</time></trkpt><trkpt lat="38.7851491" lon="16.217252"><ele>6.0</ele><time>2026-04-19T13:14:30.252Z</time></trkpt><trkpt lat="38.7852745" lon="16.2173239"><ele>6.0</ele><time>2026-04-19T13:14:31.263Z</time></trkpt><trkpt lat="38.7854003" lon="16.2174007"><ele>6.0</ele><time>2026-04-19T13:14:32.261Z</time></trkpt><trkpt lat="38.7855261" lon="16.2174785"><ele>6.0</ele><time>2026-04-19T13:14:33.268Z</time></trkpt><trkpt lat="38.7856507" lon="16.2175536"><ele>6.0</ele><time>2026-04-19T13:14:34.255Z</time></trkpt><trkpt lat="38.7857735" lon="16.2176298"><ele>6.0</ele><time>2026-04-19T13:14:35.25Z</time></trkpt><trkpt lat="38.7858965" lon="16.2177061"><ele>6.25</ele><time>2026-04-19T13:14:36.263Z</time></trkpt><trkpt lat="38.7860204" lon="16.2177823"><ele>6.5</ele><time>2026-04-19T13:14:37.259Z</time></trkpt><trkpt lat="38.7861448" lon="16.2178608"><ele>6.75</ele><time>2026-04-19T13:14:38.25Z</time></trkpt><trkpt lat="38.7862694" lon="16.2179366"><ele>7.0</ele><time>2026-04-19T13:14:39.26Z</time></trkpt><trkpt lat="38.786389" lon="16.218008"><ele>7.0</ele><time>2026-04-19T13:14:40.261Z</time></trkpt><trkpt lat="38.7865036" lon="16.2180769"><ele>7.0</ele><time>2026-04-19T13:14:41.261Z</time></trkpt><trkpt lat="38.7866143" lon="16.2181439"><ele>7.0</ele><time>2026-04-19T13:14:42.249Z</time></trkpt><trkpt lat="38.7867235" lon="16.2182106"><ele>7.0</ele><time>2026-04-19T13:14:43.262Z</time></trkpt><trkpt lat="38.786831" lon="16.218277"><ele>6.75</ele><time>2026-04-19T13:14:44.257Z</time></trkpt><trkpt lat="38.7869367" lon="16.2183419"><ele>6.5</ele><time>2026-04-19T13:14:45.251Z</time></trkpt><trkpt lat="38.7870422" lon="16.2184028"><ele>6.25</ele><time>2026-04-19T13:14:46.261Z</time></trkpt><trkpt lat="38.7871459" lon="16.2184634"><ele>6.0</ele><time>2026-04-19T13:14:47.271Z</time></trkpt><trkpt lat="38.7872455" lon="16.2185237"><ele>6.0</ele><time>2026-04-19T13:14:48.253Z</time></trkpt><trkpt lat="38.7873431" lon="16.2185805"><ele>6.0</ele><time>2026-04-19T13:14:49.262Z</time></trkpt><trkpt lat="38.7874382" lon="16.2186349"><ele>6.0</ele><time>2026-04-19T13:14:50.262Z</time></trkpt><trkpt lat="38.7875336" lon="16.2186917"><ele>6.0</ele><time>2026-04-19T13:14:51.26Z</time></trkpt><trkpt lat="38.7876326" lon="16.2187511"><ele>6.0</ele><time>2026-04-19T13:14:52.269Z</time></trkpt><trkpt lat="38.7877335" lon="16.2188124"><ele>6.0</ele><time>2026-04-19T13:14:53.282Z</time></trkpt><trkpt lat="38.7878352" lon="16.218872"><ele>6.0</ele><time>2026-04-19T13:14:54.267Z</time></trkpt><trkpt lat="38.7879374" lon="16.2189344"><ele>6.0</ele><time>2026-04-19T13:14:55.28Z</time></trkpt><trkpt lat="38.7880432" lon="16.2189981"><ele>6.0</ele><time>2026-04-19T13:14:56.274Z</time></trkpt><trkpt lat="38.7881545" lon="16.2190668"><ele>5.75</ele><time>2026-04-19T13:14:57.258Z</time></trkpt><trkpt lat="38.7882719" lon="16.2191399"><ele>5.5</ele><time>2026-04-19T13:14:58.266Z</time></trkpt><trkpt lat="38.7883904" lon="16.2192141"><ele>5.25</ele><time>2026-04-19T13:14:59.255Z</time></trkpt><trkpt lat="38.788507" lon="16.2192872"><ele>5.0</ele><time>2026-04-19T13:15:00.263Z</time></trkpt><trkpt lat="38.7886218" lon="16.219358"><ele>5.0</ele><time>2026-04-19T13:15:01.275Z</time></trkpt><trkpt lat="38.7887329" lon="16.2194327"><ele>5.0</ele><time>2026-04-19T13:15:02.27Z</time></trkpt><trkpt lat="38.788842" lon="16.2195068"><ele>5.0</ele><time>2026-04-19T13:15:03.259Z</time></trkpt><trkpt lat="38.7889497" lon="16.2195775"><ele>5.0</ele><time>2026-04-19T13:15:04.269Z</time></trkpt><trkpt lat="38.7890556" lon="16.2196464"><ele>5.0</ele><time>2026-04-19T13:15:05.267Z</time></trkpt><trkpt lat="38.7891605" lon="16.2197164"><ele>5.0</ele><time>2026-04-19T13:15:06.257Z</time></trkpt><trkpt lat="38.7892647" lon="16.2197859"><ele>5.0</ele><time>2026-04-19T13:15:07.28Z</time></trkpt><trkpt lat="38.7893696" lon="16.219855"><ele>5.0</ele><time>2026-04-19T13:15:08.269Z</time></trkpt><trkpt lat="38.7894743" lon="16.2199235"><ele>5.25</ele><time>2026-04-19T13:15:09.269Z</time></trkpt><trkpt lat="38.7895769" lon="16.2199954"><ele>5.5</ele><time>2026-04-19T13:15:10.267Z</time></trkpt><trkpt lat="38.7896771" lon="16.2200668"><ele>5.75</ele><time>2026-04-19T13:15:11.261Z</time></trkpt><trkpt lat="38.7897755" lon="16.2201349"><ele>6.0</ele><time>2026-04-19T13:15:12.26Z</time></trkpt><trkpt lat="38.7898725" lon="16.2202013"><ele>6.0</ele><time>2026-04-19T13:15:13.269Z</time></trkpt><trkpt lat="38.7899685" lon="16.2202628"><ele>6.0</ele><time>2026-04-19T13:15:14.262Z</time></trkpt><trkpt lat="38.7900643" lon="16.2203248"><ele>6.0</ele><time>2026-04-19T13:15:15.257Z</time></trkpt><trkpt lat="38.790161" lon="16.2203863"><ele>6.0</ele><time>2026-04-19T13:15:16.265Z</time></trkpt><trkpt lat="38.7902567" lon="16.2204533"><ele>6.0</ele><time>2026-04-19T13:15:17.26Z</time></trkpt><trkpt lat="38.7903525" lon="16.2205258"><ele>6.0</ele><time>2026-04-19T13:15:18.254Z</time></trkpt><trkpt lat="38.7904511" lon="16.2205948"><ele>6.0</ele><time>2026-04-19T13:15:19.262Z</time></trkpt><trkpt lat="38.790553" lon="16.2206649"><ele>6.0</ele><time>2026-04-19T13:15:20.258Z</time></trkpt><trkpt lat="38.7906562" lon="16.2207358"><ele>6.0</ele><time>2026-04-19T13:15:21.258Z</time></trkpt><trkpt lat="38.7907603" lon="16.220808"><ele>6.0</ele><time>2026-04-19T13:15:22.261Z</time></trkpt><trkpt lat="38.7908639" lon="16.2208784"><ele>6.0</ele><time>2026-04-19T13:15:23.277Z</time></trkpt><trkpt lat="38.7909725" lon="16.2209493"><ele>6.0</ele><time>2026-04-19T13:15:24.254Z</time></trkpt><trkpt lat="38.7910827" lon="16.2210233"><ele>6.0</ele><time>2026-04-19T13:15:25.281Z</time></trkpt><trkpt lat="38.7911975" lon="16.2210955"><ele>6.5</ele><time>2026-04-19T13:15:26.278Z</time></trkpt><trkpt lat="38.7913144" lon="16.2211659"><ele>7.0</ele><time>2026-04-19T13:15:27.258Z</time></trkpt><trkpt lat="38.7914348" lon="16.2212404"><ele>7.5</ele><time>2026-04-19T13:15:28.262Z</time></trkpt><trkpt lat="38.7915559" lon="16.2213137"><ele>8.0</ele><time>2026-04-19T13:15:29.26Z</time></trkpt><trkpt lat="38.7916729" lon="16.2213873"><ele>8.0</ele><time>2026-04-19T13:15:30.25Z</time></trkpt><trkpt lat="38.7917871" lon="16.2214611"><ele>8.0</ele><time>2026-04-19T13:15:31.268Z</time></trkpt><trkpt lat="38.7919001" lon="16.2215352"><ele>8.0</ele><time>2026-04-19T13:15:32.272Z</time></trkpt><trkpt lat="38.7920152" lon="16.2216088"><ele>8.0</ele><time>2026-04-19T13:15:33.258Z</time></trkpt><trkpt lat="38.7921308" lon="16.2216787"><ele>8.25</ele><time>2026-04-19T13:15:34.26Z</time></trkpt><trkpt lat="38.7922474" lon="16.2217474"><ele>8.5</ele><time>2026-04-19T13:15:35.27Z</time></trkpt><trkpt lat="38.792366" lon="16.2218143"><ele>8.75</ele><time>2026-04-19T13:15:36.256Z</time></trkpt><trkpt lat="38.7924853" lon="16.2218815"><ele>9.0</ele><time>2026-04-19T13:15:37.266Z</time></trkpt><trkpt lat="38.792599" lon="16.2219486"><ele>8.6</ele><time>2026-04-19T13:15:38.255Z</time></trkpt><trkpt lat="38.7927003" lon="16.2220067"><ele>8.2</ele><time>2026-04-19T13:15:39.258Z</time></trkpt><trkpt lat="38.7927916" lon="16.2220624"><ele>7.799999999999999</ele><time>2026-04-19T13:15:40.256Z</time></trkpt><trkpt lat="38.7928819" lon="16.2221264"><ele>7.3999999999999995</ele><time>2026-04-19T13:15:41.255Z</time></trkpt><trkpt lat="38.792976" lon="16.2221977"><ele>7.0</ele><time>2026-04-19T13:15:42.256Z</time></trkpt><trkpt lat="38.7930735" lon="16.2222732"><ele>7.25</ele><time>2026-04-19T13:15:43.267Z</time></trkpt><trkpt lat="38.7931769" lon="16.2223471"><ele>7.5</ele><time>2026-04-19T13:15:44.262Z</time></trkpt><trkpt lat="38.7932812" lon="16.2224163"><ele>7.75</ele><time>2026-04-19T13:15:45.261Z</time></trkpt><trkpt lat="38.7933884" lon="16.2224841"><ele>8.0</ele><time>2026-04-19T13:15:46.268Z</time></trkpt><trkpt lat="38.7934993" lon="16.2225509"><ele>8.0</ele><time>2026-04-19T13:15:47.268Z</time></trkpt><trkpt lat="38.7936115" lon="16.2226179"><ele>8.0</ele><time>2026-04-19T13:15:48.256Z</time></trkpt><trkpt lat="38.7937206" lon="16.2226889"><ele>8.0</ele><time>2026-04-19T13:15:49.268Z</time></trkpt><trkpt lat="38.7938294" lon="16.2227582"><ele>8.0</ele><time>2026-04-19T13:15:50.265Z</time></trkpt><trkpt lat="38.7939368" lon="16.2228288"><ele>8.0</ele><time>2026-04-19T13:15:51.259Z</time></trkpt><trkpt lat="38.7940428" lon="16.2228992"><ele>8.0</ele><time>2026-04-19T13:15:52.263Z</time></trkpt><trkpt lat="38.7941471" lon="16.2229694"><ele>8.0</ele><time>2026-04-19T13:15:53.263Z</time></trkpt><trkpt lat="38.7942486" lon="16.223037"><ele>8.0</ele><time>2026-04-19T13:15:54.263Z</time></trkpt><trkpt lat="38.7943478" lon="16.2231009"><ele>8.25</ele><time>2026-04-19T13:15:55.256Z</time></trkpt><trkpt lat="38.7944481" lon="16.2231638"><ele>8.5</ele><time>2026-04-19T13:15:56.267Z</time></trkpt><trkpt lat="38.7945491" lon="16.2232256"><ele>8.75</ele><time>2026-04-19T13:15:57.267Z</time></trkpt><trkpt lat="38.7946616" lon="16.2232968"><ele>9.0</ele><time>2026-04-19T13:15:58.263Z</time></trkpt><trkpt lat="38.7947782" lon="16.2233715"><ele>9.0</ele><time>2026-04-19T13:15:59.27Z</time></trkpt><trkpt lat="38.7948986" lon="16.223449"><ele>9.0</ele><time>2026-04-19T13:16:00.267Z</time></trkpt><trkpt lat="38.79502" lon="16.223531"><ele>9.0</ele><time>2026-04-19T13:16:01.272Z</time></trkpt><trkpt lat="38.7951434" lon="16.2236142"><ele>9.0</ele><time>2026-04-19T13:16:02.258Z</time></trkpt><trkpt lat="38.7952697" lon="16.223698"><ele>8.75</ele><time>2026-04-19T13:16:03.272Z</time></trkpt><trkpt lat="38.7953932" lon="16.2237803"><ele>8.5</ele><time>2026-04-19T13:16:04.265Z</time></trkpt><trkpt lat="38.7955145" lon="16.2238608"><ele>8.25</ele><time>2026-04-19T13:16:05.257Z</time></trkpt><trkpt lat="38.7956244" lon="16.2239382"><ele>8.0</ele><time>2026-04-19T13:16:06.266Z</time></trkpt><trkpt lat="38.7957137" lon="16.223994"><ele>8.600000000000001</ele><time>2026-04-19T13:16:07.262Z</time></trkpt><trkpt lat="38.7957938" lon="16.2240363"><ele>9.200000000000001</ele><time>2026-04-19T13:16:08.255Z</time></trkpt><trkpt lat="38.7958648" lon="16.2240582"><ele>9.8</ele><time>2026-04-19T13:16:09.264Z</time></trkpt><trkpt lat="38.7959727" lon="16.2241025"><ele>10.4</ele><time>2026-04-19T13:16:11.265Z</time></trkpt><trkpt lat="38.7960515" lon="16.2241762"><ele>11.0</ele><time>2026-04-19T13:16:13.276Z</time></trkpt><trkpt lat="38.7961164" lon="16.2242951"><ele>11.0</ele><time>2026-04-19T13:16:15.256Z</time></trkpt><trkpt lat="38.7961596" lon="16.2243584"><ele>11.0</ele><time>2026-04-19T13:16:16.262Z</time></trkpt><trkpt lat="38.7962068" lon="16.224432"><ele>11.0</ele><time>2026-04-19T13:16:17.256Z</time></trkpt><trkpt lat="38.7962911" lon="16.2244997"><ele>11.0</ele><time>2026-04-19T13:16:18.258Z</time></trkpt><trkpt lat="38.7963878" lon="16.2245414"><ele>11.0</ele><time>2026-04-19T13:16:19.268Z</time></trkpt><trkpt lat="38.7964805" lon="16.2246083"><ele>11.0</ele><time>2026-04-19T13:16:20.26Z</time></trkpt><trkpt lat="38.7965697" lon="16.2246946"><ele>11.0</ele><time>2026-04-19T13:16:21.256Z</time></trkpt><trkpt lat="38.7966492" lon="16.2247748"><ele>11.0</ele><time>2026-04-19T13:16:22.256Z</time></trkpt><trkpt lat="38.796732" lon="16.2248199"><ele>11.0</ele><time>2026-04-19T13:16:23.271Z</time></trkpt><trkpt lat="38.7968201" lon="16.2248691"><ele>11.0</ele><time>2026-04-19T13:16:24.253Z</time></trkpt><trkpt lat="38.7969037" lon="16.2249426"><ele>11.0</ele><time>2026-04-19T13:16:25.261Z</time></trkpt><trkpt lat="38.796985" lon="16.2250339"><ele>10.600000000000001</ele><time>2026-04-19T13:16:26.261Z</time></trkpt><trkpt lat="38.7970682" lon="16.2251265"><ele>10.200000000000001</ele><time>2026-04-19T13:16:27.257Z</time></trkpt><trkpt lat="38.7971554" lon="16.2252182"><ele>9.8</ele><time>2026-04-19T13:16:28.268Z</time></trkpt><trkpt lat="38.7972576" lon="16.2252765"><ele>9.4</ele><time>2026-04-19T13:16:29.261Z</time></trkpt><trkpt lat="38.7973605" lon="16.2253305"><ele>9.0</ele><time>2026-04-19T13:16:30.256Z</time></trkpt><trkpt lat="38.7974611" lon="16.2253865"><ele>9.0</ele><time>2026-04-19T13:16:31.254Z</time></trkpt><trkpt lat="38.7975573" lon="16.2254437"><ele>9.0</ele><time>2026-04-19T13:16:32.256Z</time></trkpt><trkpt lat="38.7976537" lon="16.2255064"><ele>9.0</ele><time>2026-04-19T13:16:33.258Z</time></trkpt><trkpt lat="38.7977449" lon="16.2255628"><ele>9.0</ele><time>2026-04-19T13:16:34.267Z</time></trkpt><trkpt lat="38.7978467" lon="16.2255926"><ele>9.0</ele><time>2026-04-19T13:16:35.253Z</time></trkpt><trkpt lat="38.7979531" lon="16.2256233"><ele>9.2</ele><time>2026-04-19T13:16:36.257Z</time></trkpt><trkpt lat="38.7980585" lon="16.2256587"><ele>9.4</ele><time>2026-04-19T13:16:37.274Z</time></trkpt><trkpt lat="38.7981653" lon="16.2256994"><ele>9.6</ele><time>2026-04-19T13:16:38.254Z</time></trkpt><trkpt lat="38.7982756" lon="16.2257415"><ele>9.8</ele><time>2026-04-19T13:16:39.26Z</time></trkpt><trkpt lat="38.7983839" lon="16.2257846"><ele>10.0</ele><time>2026-04-19T13:16:40.265Z</time></trkpt><trkpt lat="38.7984875" lon="16.2258313"><ele>9.4</ele><time>2026-04-19T13:16:41.265Z</time></trkpt><trkpt lat="38.7985865" lon="16.2258763"><ele>8.8</ele><time>2026-04-19T13:16:42.262Z</time></trkpt><trkpt lat="38.7986841" lon="16.2259272"><ele>8.2</ele><time>2026-04-19T13:16:43.269Z</time></trkpt><trkpt lat="38.7987807" lon="16.2259836"><ele>7.6</ele><time>2026-04-19T13:16:44.271Z</time></trkpt><trkpt lat="38.7988772" lon="16.2260534"><ele>7.0</ele><time>2026-04-19T13:16:45.252Z</time></trkpt><trkpt lat="38.7989706" lon="16.2261185"><ele>7.0</ele><time>2026-04-19T13:16:46.26Z</time></trkpt><trkpt lat="38.799062" lon="16.2261888"><ele>6.999999999999999</ele><time>2026-04-19T13:16:47.258Z</time></trkpt><trkpt lat="38.799151" lon="16.2262659"><ele>6.999999999999999</ele><time>2026-04-19T13:16:48.259Z</time></trkpt><trkpt lat="38.7992344" lon="16.226348"><ele>7.0</ele><time>2026-04-19T13:16:49.265Z</time></trkpt><trkpt lat="38.7993215" lon="16.2264243"><ele>7.0</ele><time>2026-04-19T13:16:50.263Z</time></trkpt><trkpt lat="38.7994187" lon="16.2264887"><ele>7.0</ele><time>2026-04-19T13:16:51.255Z</time></trkpt><trkpt lat="38.7995152" lon="16.2265527"><ele>6.999999999999999</ele><time>2026-04-19T13:16:52.262Z</time></trkpt><trkpt lat="38.7996126" lon="16.2266202"><ele>6.999999999999999</ele><time>2026-04-19T13:16:53.264Z</time></trkpt><trkpt lat="38.7997064" lon="16.2266858"><ele>7.0</ele><time>2026-04-19T13:16:54.254Z</time></trkpt><trkpt lat="38.7997968" lon="16.2267524"><ele>7.0</ele><time>2026-04-19T13:16:55.267Z</time></trkpt><trkpt lat="38.7998791" lon="16.2268238"><ele>7.0</ele><time>2026-04-19T13:16:56.271Z</time></trkpt><trkpt lat="38.7999649" lon="16.2269016"><ele>6.999999999999999</ele><time>2026-04-19T13:16:57.261Z</time></trkpt><trkpt lat="38.8000533" lon="16.2269808"><ele>6.999999999999999</ele><time>2026-04-19T13:16:58.262Z</time></trkpt><trkpt lat="38.8001449" lon="16.2270574"><ele>7.0</ele><time>2026-04-19T13:16:59.266Z</time></trkpt><trkpt lat="38.8002325" lon="16.2271304"><ele>7.0</ele><time>2026-04-19T13:17:00.258Z</time></trkpt><trkpt lat="38.8003252" lon="16.2271986"><ele>6.8</ele><time>2026-04-19T13:17:01.259Z</time></trkpt><trkpt lat="38.8004223" lon="16.2272675"><ele>6.6</ele><time>2026-04-19T13:17:02.271Z</time></trkpt><trkpt lat="38.8005223" lon="16.2273246"><ele>6.3999999999999995</ele><time>2026-04-19T13:17:03.266Z</time></trkpt><trkpt lat="38.8006195" lon="16.2273797"><ele>6.199999999999999</ele><time>2026-04-19T13:17:04.268Z</time></trkpt><trkpt lat="38.800724" lon="16.2274243"><ele>6.0</ele><time>2026-04-19T13:17:05.254Z</time></trkpt><trkpt lat="38.8008337" lon="16.2274644"><ele>6.0</ele><time>2026-04-19T13:17:06.254Z</time></trkpt><trkpt lat="38.8009427" lon="16.2275101"><ele>6.0</ele><time>2026-04-19T13:17:07.259Z</time></trkpt><trkpt lat="38.8010433" lon="16.2275533"><ele>6.0</ele><time>2026-04-19T13:17:08.261Z</time></trkpt><trkpt lat="38.80112" lon="16.2276186"><ele>6.0</ele><time>2026-04-19T13:17:09.266Z</time></trkpt><trkpt lat="38.801186" lon="16.227655"><ele>6.0</ele><time>2026-04-19T13:17:10.265Z</time></trkpt><trkpt lat="38.801299" lon="16.2277134"><ele>6.0</ele><time>2026-04-19T13:17:12.266Z</time></trkpt><trkpt lat="38.8013621" lon="16.2277625"><ele>6.0</ele><time>2026-04-19T13:17:13.268Z</time></trkpt><trkpt lat="38.8014405" lon="16.2278367"><ele>6.0</ele><time>2026-04-19T13:17:14.263Z</time></trkpt><trkpt lat="38.8015317" lon="16.2279094"><ele>6.0</ele><time>2026-04-19T13:17:15.261Z</time></trkpt><trkpt lat="38.8016367" lon="16.2279848"><ele>6.0</ele><time>2026-04-19T13:17:16.265Z</time></trkpt><trkpt lat="38.8017478" lon="16.2280664"><ele>6.5</ele><time>2026-04-19T13:17:17.267Z</time></trkpt><trkpt lat="38.8018617" lon="16.2281494"><ele>7.0</ele><time>2026-04-19T13:17:18.259Z</time></trkpt><trkpt lat="38.8019806" lon="16.2282305"><ele>7.5</ele><time>2026-04-19T13:17:19.266Z</time></trkpt><trkpt lat="38.8020992" lon="16.2283065"><ele>8.0</ele><time>2026-04-19T13:17:20.272Z</time></trkpt><trkpt lat="38.8022178" lon="16.2283786"><ele>8.0</ele><time>2026-04-19T13:17:21.255Z</time></trkpt><trkpt lat="38.8023338" lon="16.2284521"><ele>8.0</ele><time>2026-04-19T13:17:22.266Z</time></trkpt><trkpt lat="38.8024475" lon="16.2285265"><ele>8.0</ele><time>2026-04-19T13:17:23.266Z</time></trkpt><trkpt lat="38.8025522" lon="16.2285933"><ele>8.0</ele><time>2026-04-19T13:17:24.257Z</time></trkpt><trkpt lat="38.8026562" lon="16.2286667"><ele>7.75</ele><time>2026-04-19T13:17:25.257Z</time></trkpt><trkpt lat="38.8027635" lon="16.2287421"><ele>7.5</ele><time>2026-04-19T13:17:26.26Z</time></trkpt><trkpt lat="38.802873" lon="16.2288184"><ele>7.25</ele><time>2026-04-19T13:17:27.259Z</time></trkpt><trkpt lat="38.8029816" lon="16.2288929"><ele>7.0</ele><time>2026-04-19T13:17:28.265Z</time></trkpt><trkpt lat="38.8030948" lon="16.2289719"><ele>7.5</ele><time>2026-04-19T13:17:29.265Z</time></trkpt><trkpt lat="38.8032092" lon="16.2290486"><ele>8.0</ele><time>2026-04-19T13:17:30.255Z</time></trkpt><trkpt lat="38.8033245" lon="16.2291177"><ele>8.5</ele><time>2026-04-19T13:17:31.26Z</time></trkpt><trkpt lat="38.8034442" lon="16.2291772"><ele>9.0</ele><time>2026-04-19T13:17:32.258Z</time></trkpt><trkpt lat="38.8035671" lon="16.2292281"><ele>8.0</ele><time>2026-04-19T13:17:33.266Z</time></trkpt><trkpt lat="38.8036948" lon="16.2292703"><ele>7.0</ele><time>2026-04-19T13:17:34.27Z</time></trkpt><trkpt lat="38.8038218" lon="16.2293154"><ele>6.0</ele><time>2026-04-19T13:17:35.266Z</time></trkpt><trkpt lat="38.8039431" lon="16.229356"><ele>5.0</ele><time>2026-04-19T13:17:36.252Z</time></trkpt><trkpt lat="38.8040475" lon="16.2293932"><ele>5.0</ele><time>2026-04-19T13:17:37.279Z</time></trkpt><trkpt lat="38.8041295" lon="16.2294419"><ele>5.0</ele><time>2026-04-19T13:17:38.268Z</time></trkpt><trkpt lat="38.804195" lon="16.2295129"><ele>5.0</ele><time>2026-04-19T13:17:39.252Z</time></trkpt><trkpt lat="38.804238" lon="16.2296035"><ele>5.0</ele><time>2026-04-19T13:17:40.263Z</time></trkpt><trkpt lat="38.8042723" lon="16.2296847"><ele>5.0</ele><time>2026-04-19T13:17:41.266Z</time></trkpt><trkpt lat="38.8042665" lon="16.229789"><ele>5.0</ele><time>2026-04-19T13:17:42.255Z</time></trkpt><trkpt lat="38.8042375" lon="16.2299051"><ele>6.5</ele><time>2026-04-19T13:17:43.264Z</time></trkpt><trkpt lat="38.804211" lon="16.2300272"><ele>8.0</ele><time>2026-04-19T13:17:44.261Z</time></trkpt><trkpt lat="38.8041856" lon="16.2301477"><ele>9.5</ele><time>2026-04-19T13:17:45.257Z</time></trkpt><trkpt lat="38.804157" lon="16.2302342"><ele>11.0</ele><time>2026-04-19T13:17:46.266Z</time></trkpt><trkpt lat="38.8041526" lon="16.2303296"><ele>12.500000000000002</ele><time>2026-04-19T13:17:47.273Z</time></trkpt><trkpt lat="38.8042068" lon="16.2303991"><ele>14.0</ele><time>2026-04-19T13:17:48.254Z</time></trkpt><trkpt lat="38.8042919" lon="16.2304442"><ele>13.399999999999999</ele><time>2026-04-19T13:17:49.261Z</time></trkpt><trkpt lat="38.8043875" lon="16.2304873"><ele>12.799999999999999</ele><time>2026-04-19T13:17:50.267Z</time></trkpt><trkpt lat="38.8044844" lon="16.2305449"><ele>12.2</ele><time>2026-04-19T13:17:51.269Z</time></trkpt><trkpt lat="38.8045901" lon="16.2305879"><ele>11.600000000000001</ele><time>2026-04-19T13:17:52.253Z</time></trkpt><trkpt lat="38.8046954" lon="16.2306393"><ele>11.0</ele><time>2026-04-19T13:17:53.267Z</time></trkpt><trkpt lat="38.8047929" lon="16.2306869"><ele>12.25</ele><time>2026-04-19T13:17:54.269Z</time></trkpt><trkpt lat="38.8048964" lon="16.2307372"><ele>13.5</ele><time>2026-04-19T13:17:55.256Z</time></trkpt><trkpt lat="38.8050048" lon="16.2307898"><ele>14.75</ele><time>2026-04-19T13:17:56.271Z</time></trkpt><trkpt lat="38.8051158" lon="16.2308413"><ele>16.0</ele><time>2026-04-19T13:17:57.261Z</time></trkpt><trkpt lat="38.8052305" lon="16.2308894"><ele>16.0</ele><time>2026-04-19T13:17:58.254Z</time></trkpt><trkpt lat="38.8053498" lon="16.2309382"><ele>16.0</ele><time>2026-04-19T13:17:59.265Z</time></trkpt><trkpt lat="38.8054695" lon="16.2309888"><ele>16.0</ele><time>2026-04-19T13:18:00.269Z</time></trkpt><trkpt lat="38.8055921" lon="16.2310429"><ele>16.0</ele><time>2026-04-19T13:18:01.271Z</time></trkpt><trkpt lat="38.8057172" lon="16.2310981"><ele>16.0</ele><time>2026-04-19T13:18:02.271Z</time></trkpt><trkpt lat="38.8058435" lon="16.2311564"><ele>16.0</ele><time>2026-04-19T13:18:03.255Z</time></trkpt><trkpt lat="38.8059752" lon="16.2312149"><ele>16.0</ele><time>2026-04-19T13:18:04.272Z</time></trkpt><trkpt lat="38.8061057" lon="16.2312739"><ele>16.0</ele><time>2026-04-19T13:18:05.265Z</time></trkpt><trkpt lat="38.806236" lon="16.2313319"><ele>16.75</ele><time>2026-04-19T13:18:06.257Z</time></trkpt><trkpt lat="38.8063643" lon="16.2313874"><ele>17.5</ele><time>2026-04-19T13:18:07.268Z</time></trkpt><trkpt lat="38.8064965" lon="16.2314469"><ele>18.25</ele><time>2026-04-19T13:18:08.267Z</time></trkpt><trkpt lat="38.8066306" lon="16.231505"><ele>19.0</ele><time>2026-04-19T13:18:09.255Z</time></trkpt><trkpt lat="38.8067624" lon="16.2315648"><ele>17.75</ele><time>2026-04-19T13:18:10.282Z</time></trkpt><trkpt lat="38.806895" lon="16.2316258"><ele>16.5</ele><time>2026-04-19T13:18:11.255Z</time></trkpt><trkpt lat="38.8070293" lon="16.2316868"><ele>15.25</ele><time>2026-04-19T13:18:12.254Z</time></trkpt><trkpt lat="38.8071649" lon="16.2317492"><ele>14.0</ele><time>2026-04-19T13:18:13.251Z</time></trkpt><trkpt lat="38.8072984" lon="16.2318115"><ele>14.0</ele><time>2026-04-19T13:18:14.253Z</time></trkpt><trkpt lat="38.8074296" lon="16.2318734"><ele>14.0</ele><time>2026-04-19T13:18:15.257Z</time></trkpt><trkpt lat="38.8075616" lon="16.2319356"><ele>14.0</ele><time>2026-04-19T13:18:16.254Z</time></trkpt><trkpt lat="38.8076907" lon="16.2320003"><ele>14.0</ele><time>2026-04-19T13:18:17.258Z</time></trkpt><trkpt lat="38.8078221" lon="16.232063"><ele>13.25</ele><time>2026-04-19T13:18:18.261Z</time></trkpt><trkpt lat="38.8079539" lon="16.2321249"><ele>12.5</ele><time>2026-04-19T13:18:19.256Z</time></trkpt><trkpt lat="38.8080855" lon="16.2321897"><ele>11.75</ele><time>2026-04-19T13:18:20.255Z</time></trkpt><trkpt lat="38.8082175" lon="16.232256"><ele>11.0</ele><time>2026-04-19T13:18:21.264Z</time></trkpt><trkpt lat="38.80835" lon="16.2323215"><ele>11.5</ele><time>2026-04-19T13:18:22.256Z</time></trkpt><trkpt lat="38.8084801" lon="16.2323862"><ele>12.0</ele><time>2026-04-19T13:18:23.255Z</time></trkpt><trkpt lat="38.8086095" lon="16.2324515"><ele>12.5</ele><time>2026-04-19T13:18:24.263Z</time></trkpt><trkpt lat="38.8087363" lon="16.2325152"><ele>13.0</ele><time>2026-04-19T13:18:25.256Z</time></trkpt><trkpt lat="38.8088592" lon="16.2325788"><ele>13.0</ele><time>2026-04-19T13:18:26.266Z</time></trkpt><trkpt lat="38.8089748" lon="16.2326453"><ele>13.0</ele><time>2026-04-19T13:18:27.261Z</time></trkpt><trkpt lat="38.8090849" lon="16.2327138"><ele>13.0</ele><time>2026-04-19T13:18:28.257Z</time></trkpt><trkpt lat="38.8091926" lon="16.2327786"><ele>13.0</ele><time>2026-04-19T13:18:29.258Z</time></trkpt><trkpt lat="38.8092994" lon="16.2328368"><ele>13.0</ele><time>2026-04-19T13:18:30.262Z</time></trkpt><trkpt lat="38.8094061" lon="16.2328902"><ele>13.0</ele><time>2026-04-19T13:18:31.264Z</time></trkpt><trkpt lat="38.8095117" lon="16.2329409"><ele>13.0</ele><time>2026-04-19T13:18:32.272Z</time></trkpt><trkpt lat="38.8096155" lon="16.2329929"><ele>13.0</ele><time>2026-04-19T13:18:33.266Z</time></trkpt><trkpt lat="38.8097185" lon="16.2330451"><ele>13.0</ele><time>2026-04-19T13:18:34.254Z</time></trkpt><trkpt lat="38.8098233" lon="16.2330975"><ele>13.600000000000001</ele><time>2026-04-19T13:18:35.266Z</time></trkpt><trkpt lat="38.8099288" lon="16.2331498"><ele>14.200000000000001</ele><time>2026-04-19T13:18:36.265Z</time></trkpt><trkpt lat="38.810035" lon="16.2331999"><ele>14.8</ele><time>2026-04-19T13:18:37.261Z</time></trkpt><trkpt lat="38.8101427" lon="16.2332407"><ele>15.4</ele><time>2026-04-19T13:18:38.266Z</time></trkpt><trkpt lat="38.8102507" lon="16.2332722"><ele>16.0</ele><time>2026-04-19T13:18:39.262Z</time></trkpt><trkpt lat="38.8103595" lon="16.2332981"><ele>16.0</ele><time>2026-04-19T13:18:40.259Z</time></trkpt><trkpt lat="38.8104689" lon="16.2333247"><ele>16.0</ele><time>2026-04-19T13:18:41.263Z</time></trkpt><trkpt lat="38.810576" lon="16.2333603"><ele>16.0</ele><time>2026-04-19T13:18:42.268Z</time></trkpt><trkpt lat="38.8106766" lon="16.2333949"><ele>16.0</ele><time>2026-04-19T13:18:43.257Z</time></trkpt><trkpt lat="38.810769" lon="16.2334228"><ele>16.0</ele><time>2026-04-19T13:18:44.254Z</time></trkpt><trkpt lat="38.8108529" lon="16.2334458"><ele>15.999999999999998</ele><time>2026-04-19T13:18:45.267Z</time></trkpt><trkpt lat="38.8109264" lon="16.233462"><ele>16.0</ele><time>2026-04-19T13:18:46.26Z</time></trkpt><trkpt lat="38.8110163" lon="16.2334601"><ele>16.0</ele><time>2026-04-19T13:18:48.26Z</time></trkpt><trkpt lat="38.8110728" lon="16.2333819"><ele>16.0</ele><time>2026-04-19T13:18:50.266Z</time></trkpt><trkpt lat="38.8110934" lon="16.233305"><ele>15.999999999999998</ele><time>2026-04-19T13:18:51.25Z</time></trkpt><trkpt lat="38.8111085" lon="16.2332203"><ele>16.0</ele><time>2026-04-19T13:18:52.332Z</time></trkpt><trkpt lat="38.8111184" lon="16.2331229"><ele>14.200000000000001</ele><time>2026-04-19T13:18:53.291Z</time></trkpt><trkpt lat="38.8111391" lon="16.2330118"><ele>12.400000000000002</ele><time>2026-04-19T13:18:54.285Z</time></trkpt><trkpt lat="38.8111691" lon="16.2328966"><ele>10.6</ele><time>2026-04-19T13:18:55.278Z</time></trkpt><trkpt lat="38.8112375" lon="16.2328159"><ele>8.8</ele><time>2026-04-19T13:18:56.278Z</time></trkpt><trkpt lat="38.8113204" lon="16.2328215"><ele>7.0</ele><time>2026-04-19T13:18:57.291Z</time></trkpt><trkpt lat="38.8114267" lon="16.2328749"><ele>7.0</ele><time>2026-04-19T13:18:58.297Z</time></trkpt><trkpt lat="38.8115455" lon="16.2329402"><ele>7.0</ele><time>2026-04-19T13:18:59.284Z</time></trkpt><trkpt lat="38.8116671" lon="16.2330119"><ele>7.0</ele><time>2026-04-19T13:19:00.284Z</time></trkpt><trkpt lat="38.8117986" lon="16.2330776"><ele>7.0</ele><time>2026-04-19T13:19:01.281Z</time></trkpt><trkpt lat="38.8119284" lon="16.2331403"><ele>7.25</ele><time>2026-04-19T13:19:02.294Z</time></trkpt><trkpt lat="38.8120597" lon="16.2332025"><ele>7.5</ele><time>2026-04-19T13:19:03.28Z</time></trkpt><trkpt lat="38.8121862" lon="16.233268"><ele>7.75</ele><time>2026-04-19T13:19:04.277Z</time></trkpt><trkpt lat="38.8123103" lon="16.23333"><ele>8.0</ele><time>2026-04-19T13:19:05.265Z</time></trkpt><trkpt lat="38.8124288" lon="16.233384"><ele>8.0</ele><time>2026-04-19T13:19:06.263Z</time></trkpt><trkpt lat="38.8125452" lon="16.2334258"><ele>8.0</ele><time>2026-04-19T13:19:07.276Z</time></trkpt><trkpt lat="38.8126588" lon="16.2334479"><ele>8.0</ele><time>2026-04-19T13:19:08.289Z</time></trkpt><trkpt lat="38.8127689" lon="16.2334531"><ele>8.0</ele><time>2026-04-19T13:19:09.271Z</time></trkpt><trkpt lat="38.812868" lon="16.2334508"><ele>8.0</ele><time>2026-04-19T13:19:10.277Z</time></trkpt><trkpt lat="38.8129475" lon="16.2334572"><ele>7.499999999999999</ele><time>2026-04-19T13:19:11.276Z</time></trkpt><trkpt lat="38.81302" lon="16.2334823"><ele>7.0</ele><time>2026-04-19T13:19:12.264Z</time></trkpt><trkpt lat="38.813087" lon="16.2335291"><ele>6.5</ele><time>2026-04-19T13:19:13.268Z</time></trkpt><trkpt lat="38.8131552" lon="16.2335784"><ele>6.0</ele><time>2026-04-19T13:19:14.259Z</time></trkpt><trkpt lat="38.8132134" lon="16.2336474"><ele>5.5</ele><time>2026-04-19T13:19:15.272Z</time></trkpt><trkpt lat="38.8132808" lon="16.2337277"><ele>5.0</ele><time>2026-04-19T13:19:16.313Z</time></trkpt><trkpt lat="38.8133668" lon="16.2338117"><ele>5.0</ele><time>2026-04-19T13:19:17.279Z</time></trkpt><trkpt lat="38.8134638" lon="16.2338936"><ele>5.0</ele><time>2026-04-19T13:19:18.261Z</time></trkpt><trkpt lat="38.8135794" lon="16.2339681"><ele>5.0</ele><time>2026-04-19T13:19:19.278Z</time></trkpt><trkpt lat="38.8137059" lon="16.2340317"><ele>5.0</ele><time>2026-04-19T13:19:20.28Z</time></trkpt><trkpt lat="38.8138397" lon="16.2340952"><ele>6.75</ele><time>2026-04-19T13:19:21.258Z</time></trkpt><trkpt lat="38.8139782" lon="16.2341593"><ele>8.5</ele><time>2026-04-19T13:19:22.275Z</time></trkpt><trkpt lat="38.8141158" lon="16.2342211"><ele>10.25</ele><time>2026-04-19T13:19:23.267Z</time></trkpt><trkpt lat="38.8142575" lon="16.2342883"><ele>12.0</ele><time>2026-04-19T13:19:24.259Z</time></trkpt><trkpt lat="38.8143989" lon="16.2343575"><ele>12.0</ele><time>2026-04-19T13:19:25.266Z</time></trkpt><trkpt lat="38.8145411" lon="16.2344237"><ele>12.0</ele><time>2026-04-19T13:19:26.259Z</time></trkpt><trkpt lat="38.8146819" lon="16.2344839"><ele>12.0</ele><time>2026-04-19T13:19:27.26Z</time></trkpt><trkpt lat="38.8148256" lon="16.2345545"><ele>12.0</ele><time>2026-04-19T13:19:28.262Z</time></trkpt><trkpt lat="38.8149669" lon="16.2346206"><ele>12.0</ele><time>2026-04-19T13:19:29.263Z</time></trkpt><trkpt lat="38.8151108" lon="16.2346859"><ele>12.0</ele><time>2026-04-19T13:19:30.26Z</time></trkpt><trkpt lat="38.81525" lon="16.2347585"><ele>12.333333333333332</ele><time>2026-04-19T13:19:31.27Z</time></trkpt><trkpt lat="38.8153851" lon="16.2348422"><ele>12.666666666666666</ele><time>2026-04-19T13:19:32.258Z</time></trkpt><trkpt lat="38.8155193" lon="16.234933"><ele>13.0</ele><time>2026-04-19T13:19:33.263Z</time></trkpt><trkpt lat="38.8156576" lon="16.2350264"><ele>13.0</ele><time>2026-04-19T13:19:34.262Z</time></trkpt><trkpt lat="38.8158007" lon="16.2351189"><ele>13.0</ele><time>2026-04-19T13:19:35.258Z</time></trkpt><trkpt lat="38.8159416" lon="16.2352127"><ele>13.0</ele><time>2026-04-19T13:19:36.258Z</time></trkpt><trkpt lat="38.8160852" lon="16.2353084"><ele>11.333333333333332</ele><time>2026-04-19T13:19:37.271Z</time></trkpt><trkpt lat="38.8162329" lon="16.2353997"><ele>9.666666666666666</ele><time>2026-04-19T13:19:38.273Z</time></trkpt><trkpt lat="38.8163717" lon="16.2354976"><ele>8.0</ele><time>2026-04-19T13:19:39.259Z</time></trkpt><trkpt lat="38.8165166" lon="16.2356001"><ele>10.0</ele><time>2026-04-19T13:19:40.26Z</time></trkpt><trkpt lat="38.8166644" lon="16.2357053"><ele>12.0</ele><time>2026-04-19T13:19:41.261Z</time></trkpt><trkpt lat="38.8168081" lon="16.2358025"><ele>14.0</ele><time>2026-04-19T13:19:42.257Z</time></trkpt><trkpt lat="38.8169505" lon="16.2359018"><ele>14.0</ele><time>2026-04-19T13:19:43.257Z</time></trkpt><trkpt lat="38.8170944" lon="16.2360035"><ele>14.0</ele><time>2026-04-19T13:19:44.261Z</time></trkpt><trkpt lat="38.8172463" lon="16.236114"><ele>14.0</ele><time>2026-04-19T13:19:45.265Z</time></trkpt><trkpt lat="38.8174104" lon="16.2362304"><ele>14.0</ele><time>2026-04-19T13:19:46.26Z</time></trkpt><trkpt lat="38.8175841" lon="16.2363579"><ele>14.0</ele><time>2026-04-19T13:19:47.265Z</time></trkpt><trkpt lat="38.8177465" lon="16.236465"><ele>14.0</ele><time>2026-04-19T13:19:48.263Z</time></trkpt><trkpt lat="38.8178867" lon="16.2365755"><ele>15.333333333333334</ele><time>2026-04-19T13:19:49.262Z</time></trkpt><trkpt lat="38.8180192" lon="16.2366805"><ele>16.666666666666668</ele><time>2026-04-19T13:19:50.26Z</time></trkpt><trkpt lat="38.818142" lon="16.2367913"><ele>18.0</ele><time>2026-04-19T13:19:51.254Z</time></trkpt><trkpt lat="38.8182628" lon="16.2369021"><ele>18.0</ele><time>2026-04-19T13:19:52.261Z</time></trkpt><trkpt lat="38.8183845" lon="16.2370168"><ele>18.0</ele><time>2026-04-19T13:19:53.268Z</time></trkpt><trkpt lat="38.8185072" lon="16.2371373"><ele>18.0</ele><time>2026-04-19T13:19:54.257Z</time></trkpt><trkpt lat="38.8186277" lon="16.2372657"><ele>16.0</ele><time>2026-04-19T13:19:55.261Z</time></trkpt><trkpt lat="38.8187475" lon="16.2374028"><ele>14.0</ele><time>2026-04-19T13:19:56.263Z</time></trkpt><trkpt lat="38.8188684" lon="16.2375435"><ele>12.0</ele><time>2026-04-19T13:19:57.254Z</time></trkpt><trkpt lat="38.8189905" lon="16.2376855"><ele>12.0</ele><time>2026-04-19T13:19:58.262Z</time></trkpt><trkpt lat="38.8191143" lon="16.2378302"><ele>12.0</ele><time>2026-04-19T13:19:59.257Z</time></trkpt><trkpt lat="38.8192385" lon="16.2379765"><ele>12.0</ele><time>2026-04-19T13:20:00.253Z</time></trkpt><trkpt lat="38.8193614" lon="16.2381227"><ele>12.333333333333332</ele><time>2026-04-19T13:20:01.261Z</time></trkpt><trkpt lat="38.8194819" lon="16.2382688"><ele>12.666666666666666</ele><time>2026-04-19T13:20:02.257Z</time></trkpt><trkpt lat="38.8196044" lon="16.2384182"><ele>13.0</ele><time>2026-04-19T13:20:03.252Z</time></trkpt><trkpt lat="38.8197247" lon="16.2385701"><ele>13.0</ele><time>2026-04-19T13:20:04.258Z</time></trkpt><trkpt lat="38.8198412" lon="16.2387258"><ele>13.0</ele><time>2026-04-19T13:20:05.26Z</time></trkpt><trkpt lat="38.8199505" lon="16.2388846"><ele>13.0</ele><time>2026-04-19T13:20:06.261Z</time></trkpt><trkpt lat="38.8200555" lon="16.2390416"><ele>15.0</ele><time>2026-04-19T13:20:07.263Z</time></trkpt><trkpt lat="38.8201619" lon="16.2391998"><ele>17.0</ele><time>2026-04-19T13:20:08.265Z</time></trkpt><trkpt lat="38.8202651" lon="16.2393605"><ele>19.0</ele><time>2026-04-19T13:20:09.262Z</time></trkpt><trkpt lat="38.8203663" lon="16.2395231"><ele>19.0</ele><time>2026-04-19T13:20:10.251Z</time></trkpt><trkpt lat="38.8204689" lon="16.2396863"><ele>19.0</ele><time>2026-04-19T13:20:11.259Z</time></trkpt><trkpt lat="38.8205719" lon="16.2398512"><ele>19.0</ele><time>2026-04-19T13:20:12.264Z</time></trkpt><trkpt lat="38.8206755" lon="16.240018"><ele>19.0</ele><time>2026-04-19T13:20:13.268Z</time></trkpt><trkpt lat="38.8207788" lon="16.2401905"><ele>19.0</ele><time>2026-04-19T13:20:14.255Z</time></trkpt><trkpt lat="38.8208817" lon="16.240367"><ele>19.0</ele><time>2026-04-19T13:20:15.263Z</time></trkpt><trkpt lat="38.8209842" lon="16.2405476"><ele>19.333333333333332</ele><time>2026-04-19T13:20:16.266Z</time></trkpt><trkpt lat="38.8210845" lon="16.2407309"><ele>19.666666666666668</ele><time>2026-04-19T13:20:17.26Z</time></trkpt><trkpt lat="38.8211857" lon="16.2409166"><ele>20.0</ele><time>2026-04-19T13:20:18.257Z</time></trkpt><trkpt lat="38.8212875" lon="16.2411047"><ele>20.0</ele><time>2026-04-19T13:20:19.268Z</time></trkpt><trkpt lat="38.8213892" lon="16.2412942"><ele>20.0</ele><time>2026-04-19T13:20:20.266Z</time></trkpt><trkpt lat="38.8214911" lon="16.2414856"><ele>20.0</ele><time>2026-04-19T13:20:21.259Z</time></trkpt><trkpt lat="38.8215932" lon="16.2416746"><ele>20.0</ele><time>2026-04-19T13:20:22.263Z</time></trkpt><trkpt lat="38.8216936" lon="16.2418618"><ele>20.0</ele><time>2026-04-19T13:20:23.261Z</time></trkpt><trkpt lat="38.8217928" lon="16.2420465"><ele>20.0</ele><time>2026-04-19T13:20:24.264Z</time></trkpt><trkpt lat="38.8218908" lon="16.2422264"><ele>20.666666666666668</ele><time>2026-04-19T13:20:25.263Z</time></trkpt><trkpt lat="38.8219857" lon="16.2424014"><ele>21.333333333333332</ele><time>2026-04-19T13:20:26.254Z</time></trkpt><trkpt lat="38.8220775" lon="16.2425716"><ele>22.0</ele><time>2026-04-19T13:20:27.262Z</time></trkpt><trkpt lat="38.8221639" lon="16.2427326"><ele>22.0</ele><time>2026-04-19T13:20:28.259Z</time></trkpt><trkpt lat="38.8222398" lon="16.2428769"><ele>22.0</ele><time>2026-04-19T13:20:29.269Z</time></trkpt><trkpt lat="38.8222994" lon="16.2430015"><ele>22.0</ele><time>2026-04-19T13:20:30.293Z</time></trkpt><trkpt lat="38.8223435" lon="16.2431094"><ele>22.0</ele><time>2026-04-19T13:20:31.257Z</time></trkpt><trkpt lat="38.8223855" lon="16.2432179"><ele>22.0</ele><time>2026-04-19T13:20:32.287Z</time></trkpt><trkpt lat="38.8224281" lon="16.243335"><ele>21.5</ele><time>2026-04-19T13:20:33.275Z</time></trkpt><trkpt lat="38.8224611" lon="16.2434712"><ele>21.0</ele><time>2026-04-19T13:20:34.261Z</time></trkpt><trkpt lat="38.8224897" lon="16.2436268"><ele>20.5</ele><time>2026-04-19T13:20:35.269Z</time></trkpt><trkpt lat="38.8225254" lon="16.2438015"><ele>20.0</ele><time>2026-04-19T13:20:36.265Z</time></trkpt><trkpt lat="38.8225663" lon="16.2439865"><ele>20.0</ele><time>2026-04-19T13:20:37.253Z</time></trkpt><trkpt lat="38.8226102" lon="16.2441779"><ele>20.0</ele><time>2026-04-19T13:20:38.26Z</time></trkpt><trkpt lat="38.8226564" lon="16.2443696"><ele>20.0</ele><time>2026-04-19T13:20:39.262Z</time></trkpt><trkpt lat="38.8227047" lon="16.2445472"><ele>20.0</ele><time>2026-04-19T13:20:40.261Z</time></trkpt><trkpt lat="38.8227538" lon="16.244709"><ele>20.0</ele><time>2026-04-19T13:20:41.269Z</time></trkpt><trkpt lat="38.8227913" lon="16.244853"><ele>20.0</ele><time>2026-04-19T13:20:42.257Z</time></trkpt><trkpt lat="38.8228457" lon="16.2449911"><ele>20.0</ele><time>2026-04-19T13:20:43.255Z</time></trkpt><trkpt lat="38.822903" lon="16.2451223"><ele>20.2</ele><time>2026-04-19T13:20:44.25Z</time></trkpt><trkpt lat="38.8229556" lon="16.2452541"><ele>20.4</ele><time>2026-04-19T13:20:45.255Z</time></trkpt><trkpt lat="38.8230067" lon="16.2453851"><ele>20.6</ele><time>2026-04-19T13:20:46.258Z</time></trkpt><trkpt lat="38.8230569" lon="16.2455126"><ele>20.8</ele><time>2026-04-19T13:20:47.26Z</time></trkpt><trkpt lat="38.8231069" lon="16.2456345"><ele>21.0</ele><time>2026-04-19T13:20:48.25Z</time></trkpt><trkpt lat="38.823157" lon="16.2457544"><ele>21.0</ele><time>2026-04-19T13:20:49.265Z</time></trkpt><trkpt lat="38.8232067" lon="16.2458699"><ele>21.0</ele><time>2026-04-19T13:20:50.259Z</time></trkpt><trkpt lat="38.8232577" lon="16.2459829"><ele>21.0</ele><time>2026-04-19T13:20:51.261Z</time></trkpt><trkpt lat="38.8233072" lon="16.2460961"><ele>21.0</ele><time>2026-04-19T13:20:52.252Z</time></trkpt><trkpt lat="38.8233571" lon="16.2462081"><ele>21.0</ele><time>2026-04-19T13:20:53.268Z</time></trkpt><trkpt lat="38.8234077" lon="16.246325"><ele>21.0</ele><time>2026-04-19T13:20:54.258Z</time></trkpt><trkpt lat="38.8234595" lon="16.246446"><ele>21.0</ele><time>2026-04-19T13:20:55.252Z</time></trkpt><trkpt lat="38.8235123" lon="16.2465732"><ele>21.0</ele><time>2026-04-19T13:20:56.265Z</time></trkpt><trkpt lat="38.8235709" lon="16.2467086"><ele>21.0</ele><time>2026-04-19T13:20:57.26Z</time></trkpt><trkpt lat="38.8236383" lon="16.2468485"><ele>20.0</ele><time>2026-04-19T13:20:58.258Z</time></trkpt><trkpt lat="38.8237103" lon="16.2469962"><ele>19.0</ele><time>2026-04-19T13:20:59.262Z</time></trkpt><trkpt lat="38.8237813" lon="16.2471493"><ele>18.0</ele><time>2026-04-19T13:21:00.256Z</time></trkpt><trkpt lat="38.8238529" lon="16.2473021"><ele>17.0</ele><time>2026-04-19T13:21:01.254Z</time></trkpt><trkpt lat="38.8239267" lon="16.2474542"><ele>17.0</ele><time>2026-04-19T13:21:02.258Z</time></trkpt><trkpt lat="38.8240008" lon="16.2476062"><ele>17.0</ele><time>2026-04-19T13:21:03.282Z</time></trkpt><trkpt lat="38.8240766" lon="16.2477569"><ele>17.0</ele><time>2026-04-19T13:21:04.265Z</time></trkpt><trkpt lat="38.8241554" lon="16.2479066"><ele>17.0</ele><time>2026-04-19T13:21:05.248Z</time></trkpt><trkpt lat="38.8242376" lon="16.2480567"><ele>17.333333333333336</ele><time>2026-04-19T13:21:06.254Z</time></trkpt><trkpt lat="38.82433" lon="16.2482171"><ele>17.666666666666668</ele><time>2026-04-19T13:21:07.251Z</time></trkpt><trkpt lat="38.8244416" lon="16.2484003"><ele>18.0</ele><time>2026-04-19T13:21:08.246Z</time></trkpt><trkpt lat="38.8245693" lon="16.2485994"><ele>18.0</ele><time>2026-04-19T13:21:09.256Z</time></trkpt><trkpt lat="38.8247047" lon="16.2487991"><ele>18.0</ele><time>2026-04-19T13:21:10.254Z</time></trkpt><trkpt lat="38.82484" lon="16.2489908"><ele>18.0</ele><time>2026-04-19T13:21:11.252Z</time></trkpt><trkpt lat="38.8249737" lon="16.2491739"><ele>18.0</ele><time>2026-04-19T13:21:12.259Z</time></trkpt><trkpt lat="38.8251012" lon="16.2493426"><ele>18.0</ele><time>2026-04-19T13:21:13.265Z</time></trkpt><trkpt lat="38.8252237" lon="16.2494956"><ele>18.0</ele><time>2026-04-19T13:21:14.253Z</time></trkpt><trkpt lat="38.8253396" lon="16.2496336"><ele>17.75</ele><time>2026-04-19T13:21:15.257Z</time></trkpt><trkpt lat="38.8254497" lon="16.2497577"><ele>17.5</ele><time>2026-04-19T13:21:16.261Z</time></trkpt><trkpt lat="38.8255523" lon="16.2498687"><ele>17.25</ele><time>2026-04-19T13:21:17.258Z</time></trkpt><trkpt lat="38.8256452" lon="16.2499668"><ele>17.0</ele><time>2026-04-19T13:21:18.253Z</time></trkpt><trkpt lat="38.825729" lon="16.2500522"><ele>17.0</ele><time>2026-04-19T13:21:19.27Z</time></trkpt><trkpt lat="38.825802" lon="16.2501287"><ele>17.0</ele><time>2026-04-19T13:21:20.262Z</time></trkpt><trkpt lat="38.8258646" lon="16.2501952"><ele>17.0</ele><time>2026-04-19T13:21:21.265Z</time></trkpt><trkpt lat="38.8259156" lon="16.2502515"><ele>17.0</ele><time>2026-04-19T13:21:22.247Z</time></trkpt><trkpt lat="38.8259827" lon="16.2503454"><ele>17.0</ele><time>2026-04-19T13:21:24.276Z</time></trkpt><trkpt lat="38.826004" lon="16.2504505"><ele>17.0</ele><time>2026-04-19T13:21:26.256Z</time></trkpt><trkpt lat="38.8260753" lon="16.2505973"><ele>17.166666666666668</ele><time>2026-04-19T13:21:28.263Z</time></trkpt><trkpt lat="38.8261324" lon="16.2506569"><ele>17.333333333333336</ele><time>2026-04-19T13:21:29.253Z</time></trkpt><trkpt lat="38.8261975" lon="16.2507232"><ele>17.5</ele><time>2026-04-19T13:21:30.259Z</time></trkpt><trkpt lat="38.8262642" lon="16.2507962"><ele>17.666666666666668</ele><time>2026-04-19T13:21:31.259Z</time></trkpt><trkpt lat="38.8263371" lon="16.2508664"><ele>17.833333333333332</ele><time>2026-04-19T13:21:32.254Z</time></trkpt><trkpt lat="38.8264184" lon="16.2509322"><ele>18.0</ele><time>2026-04-19T13:21:33.259Z</time></trkpt><trkpt lat="38.8264968" lon="16.2509872"><ele>18.0</ele><time>2026-04-19T13:21:34.264Z</time></trkpt><trkpt lat="38.8265682" lon="16.2510341"><ele>18.0</ele><time>2026-04-19T13:21:35.257Z</time></trkpt><trkpt lat="38.8266205" lon="16.2510807"><ele>18.0</ele><time>2026-04-19T13:21:36.258Z</time></trkpt><trkpt lat="38.8266552" lon="16.2511644"><ele>18.0</ele><time>2026-04-19T13:21:38.253Z</time></trkpt><trkpt lat="38.8265679" lon="16.2512438"><ele>18.0</ele><time>2026-04-19T13:21:40.272Z</time></trkpt><trkpt lat="38.8264931" lon="16.2513312"><ele>18.0</ele><time>2026-04-19T13:21:42.259Z</time></trkpt><trkpt lat="38.8264548" lon="16.2514004"><ele>18.166666666666668</ele><time>2026-04-19T13:21:43.268Z</time></trkpt><trkpt lat="38.8265144" lon="16.2514759"><ele>18.333333333333332</ele><time>2026-04-19T13:21:45.253Z</time></trkpt><trkpt lat="38.8266149" lon="16.2515586"><ele>18.5</ele><time>2026-04-19T13:21:47.259Z</time></trkpt><trkpt lat="38.8266722" lon="16.2516281"><ele>18.666666666666664</ele><time>2026-04-19T13:21:48.253Z</time></trkpt><trkpt lat="38.8267254" lon="16.2517005"><ele>18.833333333333332</ele><time>2026-04-19T13:21:49.267Z</time></trkpt><trkpt lat="38.8267853" lon="16.2517652"><ele>19.0</ele><time>2026-04-19T13:21:50.265Z</time></trkpt><trkpt lat="38.826846" lon="16.2518317"><ele>19.0</ele><time>2026-04-19T13:21:51.255Z</time></trkpt><trkpt lat="38.826909" lon="16.2519015"><ele>19.0</ele><time>2026-04-19T13:21:52.255Z</time></trkpt><trkpt lat="38.8269805" lon="16.2519697"><ele>19.0</ele><time>2026-04-19T13:21:53.257Z</time></trkpt><trkpt lat="38.8270416" lon="16.252037"><ele>19.0</ele><time>2026-04-19T13:21:54.251Z</time></trkpt><trkpt lat="38.8271165" lon="16.2521137"><ele>19.0</ele><time>2026-04-19T13:21:55.273Z</time></trkpt><trkpt lat="38.8271937" lon="16.2521995"><ele>19.0</ele><time>2026-04-19T13:21:56.261Z</time></trkpt><trkpt lat="38.827268" lon="16.2522727"><ele>19.0</ele><time>2026-04-19T13:21:57.258Z</time></trkpt><trkpt lat="38.8273529" lon="16.2523491"><ele>19.0</ele><time>2026-04-19T13:21:58.266Z</time></trkpt><trkpt lat="38.8274343" lon="16.2524366"><ele>19.0</ele><time>2026-04-19T13:21:59.264Z</time></trkpt><trkpt lat="38.8275147" lon="16.2525173"><ele>19.0</ele><time>2026-04-19T13:22:00.262Z</time></trkpt><trkpt lat="38.8276023" lon="16.2525976"><ele>19.4</ele><time>2026-04-19T13:22:01.272Z</time></trkpt><trkpt lat="38.8276898" lon="16.2526721"><ele>19.799999999999997</ele><time>2026-04-19T13:22:02.263Z</time></trkpt><trkpt lat="38.8277844" lon="16.2527419"><ele>20.200000000000003</ele><time>2026-04-19T13:22:03.257Z</time></trkpt><trkpt lat="38.827875" lon="16.2528172"><ele>20.6</ele><time>2026-04-19T13:22:04.27Z</time></trkpt><trkpt lat="38.827967" lon="16.2528925"><ele>21.0</ele><time>2026-04-19T13:22:05.27Z</time></trkpt><trkpt lat="38.8280585" lon="16.2529671"><ele>21.0</ele><time>2026-04-19T13:22:06.253Z</time></trkpt><trkpt lat="38.8281442" lon="16.2530408"><ele>21.0</ele><time>2026-04-19T13:22:07.253Z</time></trkpt><trkpt lat="38.8282332" lon="16.2531148"><ele>21.0</ele><time>2026-04-19T13:22:08.259Z</time></trkpt><trkpt lat="38.8283261" lon="16.2531891"><ele>21.0</ele><time>2026-04-19T13:22:09.256Z</time></trkpt><trkpt lat="38.8284204" lon="16.2532576"><ele>21.0</ele><time>2026-04-19T13:22:10.256Z</time></trkpt><trkpt lat="38.8285161" lon="16.2533262"><ele>21.25</ele><time>2026-04-19T13:22:11.263Z</time></trkpt><trkpt lat="38.8286133" lon="16.2534012"><ele>21.5</ele><time>2026-04-19T13:22:12.266Z</time></trkpt><trkpt lat="38.8287117" lon="16.2534751"><ele>21.75</ele><time>2026-04-19T13:22:13.263Z</time></trkpt><trkpt lat="38.828809" lon="16.2535572"><ele>22.0</ele><time>2026-04-19T13:22:14.265Z</time></trkpt><trkpt lat="38.8289117" lon="16.2536333"><ele>22.0</ele><time>2026-04-19T13:22:15.255Z</time></trkpt><trkpt lat="38.8290084" lon="16.2537073"><ele>22.0</ele><time>2026-04-19T13:22:16.252Z</time></trkpt><trkpt lat="38.8291028" lon="16.2537668"><ele>22.0</ele><time>2026-04-19T13:22:17.26Z</time></trkpt><trkpt lat="38.8291916" lon="16.2538249"><ele>22.0</ele><time>2026-04-19T13:22:18.263Z</time></trkpt><trkpt lat="38.829275" lon="16.2538801"><ele>22.0</ele><time>2026-04-19T13:22:19.252Z</time></trkpt><trkpt lat="38.8293572" lon="16.2539322"><ele>22.5</ele><time>2026-04-19T13:22:20.262Z</time></trkpt><trkpt lat="38.8294361" lon="16.2539823"><ele>23.0</ele><time>2026-04-19T13:22:21.256Z</time></trkpt><trkpt lat="38.8295099" lon="16.2540318"><ele>23.5</ele><time>2026-04-19T13:22:22.254Z</time></trkpt><trkpt lat="38.8295799" lon="16.2540798"><ele>24.0</ele><time>2026-04-19T13:22:23.255Z</time></trkpt><trkpt lat="38.8296458" lon="16.2541259"><ele>24.500000000000004</ele><time>2026-04-19T13:22:24.257Z</time></trkpt><trkpt lat="38.8297147" lon="16.254175"><ele>25.0</ele><time>2026-04-19T13:22:25.263Z</time></trkpt><trkpt lat="38.8297851" lon="16.2542279"><ele>25.0</ele><time>2026-04-19T13:22:26.255Z</time></trkpt><trkpt lat="38.8298603" lon="16.2542866"><ele>25.0</ele><time>2026-04-19T13:22:27.263Z</time></trkpt><trkpt lat="38.8299326" lon="16.2543443"><ele>25.0</ele><time>2026-04-19T13:22:28.265Z</time></trkpt><trkpt lat="38.8300187" lon="16.2543965"><ele>25.0</ele><time>2026-04-19T13:22:29.256Z</time></trkpt><trkpt lat="38.8301042" lon="16.254458"><ele>25.0</ele><time>2026-04-19T13:22:30.255Z</time></trkpt><trkpt lat="38.8301953" lon="16.2545219"><ele>25.0</ele><time>2026-04-19T13:22:31.266Z</time></trkpt><trkpt lat="38.8302851" lon="16.2545851"><ele>25.0</ele><time>2026-04-19T13:22:32.262Z</time></trkpt><trkpt lat="38.830374" lon="16.2546523"><ele>25.0</ele><time>2026-04-19T13:22:33.265Z</time></trkpt><trkpt lat="38.8304653" lon="16.254714"><ele>25.0</ele><time>2026-04-19T13:22:34.257Z</time></trkpt><trkpt lat="38.8305572" lon="16.2547763"><ele>25.0</ele><time>2026-04-19T13:22:35.258Z</time></trkpt><trkpt lat="38.8306458" lon="16.2548406"><ele>25.0</ele><time>2026-04-19T13:22:36.256Z</time></trkpt><trkpt lat="38.8307342" lon="16.2549041"><ele>25.0</ele><time>2026-04-19T13:22:37.257Z</time></trkpt><trkpt lat="38.8308207" lon="16.2549684"><ele>25.0</ele><time>2026-04-19T13:22:38.265Z</time></trkpt><trkpt lat="38.8309063" lon="16.2550303"><ele>25.0</ele><time>2026-04-19T13:22:39.257Z</time></trkpt><trkpt lat="38.8309931" lon="16.2550851"><ele>25.0</ele><time>2026-04-19T13:22:40.251Z</time></trkpt><trkpt lat="38.8310787" lon="16.2551418"><ele>25.0</ele><time>2026-04-19T13:22:41.259Z</time></trkpt><trkpt lat="38.8311621" lon="16.2552014"><ele>25.0</ele><time>2026-04-19T13:22:42.256Z</time></trkpt><trkpt lat="38.8312462" lon="16.2552632"><ele>25.0</ele><time>2026-04-19T13:22:43.255Z</time></trkpt><trkpt lat="38.8313305" lon="16.255323"><ele>25.0</ele><time>2026-04-19T13:22:44.27Z</time></trkpt><trkpt lat="38.8314148" lon="16.2553811"><ele>25.0</ele><time>2026-04-19T13:22:45.26Z</time></trkpt><trkpt lat="38.8315006" lon="16.2554411"><ele>25.0</ele><time>2026-04-19T13:22:46.255Z</time></trkpt><trkpt lat="38.8315847" lon="16.2555022"><ele>25.0</ele><time>2026-04-19T13:22:47.267Z</time></trkpt><trkpt lat="38.8316698" lon="16.2555628"><ele>25.0</ele><time>2026-04-19T13:22:48.27Z</time></trkpt><trkpt lat="38.8317594" lon="16.2556206"><ele>25.0</ele><time>2026-04-19T13:22:49.256Z</time></trkpt><trkpt lat="38.8318553" lon="16.255675"><ele>25.0</ele><time>2026-04-19T13:22:50.261Z</time></trkpt><trkpt lat="38.8319564" lon="16.2557353"><ele>25.2</ele><time>2026-04-19T13:22:51.267Z</time></trkpt><trkpt lat="38.8320532" lon="16.2558016"><ele>25.4</ele><time>2026-04-19T13:22:52.257Z</time></trkpt><trkpt lat="38.8321516" lon="16.255874"><ele>25.6</ele><time>2026-04-19T13:22:53.26Z</time></trkpt><trkpt lat="38.8322534" lon="16.2559453"><ele>25.8</ele><time>2026-04-19T13:22:54.262Z</time></trkpt><trkpt lat="38.8323493" lon="16.2560153"><ele>26.0</ele><time>2026-04-19T13:22:55.263Z</time></trkpt><trkpt lat="38.8324444" lon="16.2560837"><ele>26.0</ele><time>2026-04-19T13:22:56.262Z</time></trkpt><trkpt lat="38.8325377" lon="16.2561535"><ele>26.0</ele><time>2026-04-19T13:22:57.257Z</time></trkpt><trkpt lat="38.8326288" lon="16.2562209"><ele>26.0</ele><time>2026-04-19T13:22:58.267Z</time></trkpt><trkpt lat="38.8327208" lon="16.2562729"><ele>26.0</ele><time>2026-04-19T13:22:59.262Z</time></trkpt><trkpt lat="38.8328167" lon="16.2563081"><ele>26.0</ele><time>2026-04-19T13:23:00.256Z</time></trkpt><trkpt lat="38.8329158" lon="16.256345"><ele>26.0</ele><time>2026-04-19T13:23:01.253Z</time></trkpt><trkpt lat="38.833016" lon="16.2563988"><ele>26.0</ele><time>2026-04-19T13:23:02.265Z</time></trkpt><trkpt lat="38.8331142" lon="16.2564675"><ele>26.0</ele><time>2026-04-19T13:23:03.248Z</time></trkpt><trkpt lat="38.8332145" lon="16.2565376"><ele>26.0</ele><time>2026-04-19T13:23:04.275Z</time></trkpt><trkpt lat="38.8333123" lon="16.2566041"><ele>26.0</ele><time>2026-04-19T13:23:05.258Z</time></trkpt><trkpt lat="38.8334037" lon="16.2566669"><ele>26.4</ele><time>2026-04-19T13:23:06.25Z</time></trkpt><trkpt lat="38.833477" lon="16.2567197"><ele>26.8</ele><time>2026-04-19T13:23:07.261Z</time></trkpt><trkpt lat="38.8335493" lon="16.256761"><ele>27.199999999999996</ele><time>2026-04-19T13:23:09.25Z</time></trkpt><trkpt lat="38.8336021" lon="16.2566508"><ele>27.599999999999998</ele><time>2026-04-19T13:23:12.268Z</time></trkpt><trkpt lat="38.8336327" lon="16.2565379"><ele>28.0</ele><time>2026-04-19T13:23:14.259Z</time></trkpt><trkpt lat="38.8337386" lon="16.2565596"><ele>28.0</ele><time>2026-04-19T13:23:17.269Z</time></trkpt><trkpt lat="38.8338174" lon="16.256618"><ele>28.0</ele><time>2026-04-19T13:23:18.263Z</time></trkpt><trkpt lat="38.8339423" lon="16.2567091"><ele>28.0</ele><time>2026-04-19T13:23:19.27Z</time></trkpt><trkpt lat="38.8340944" lon="16.2568163"><ele>28.0</ele><time>2026-04-19T13:23:20.262Z</time></trkpt><trkpt lat="38.8342688" lon="16.2569325"><ele>27.333333333333336</ele><time>2026-04-19T13:23:21.252Z</time></trkpt><trkpt lat="38.8344356" lon="16.2570441"><ele>26.666666666666664</ele><time>2026-04-19T13:23:22.266Z</time></trkpt><trkpt lat="38.8345855" lon="16.2571418"><ele>26.0</ele><time>2026-04-19T13:23:23.258Z</time></trkpt><trkpt lat="38.8347208" lon="16.2572328"><ele>26.5</ele><time>2026-04-19T13:23:24.252Z</time></trkpt><trkpt lat="38.8348435" lon="16.2573202"><ele>27.0</ele><time>2026-04-19T13:23:25.268Z</time></trkpt><trkpt lat="38.8349591" lon="16.2573988"><ele>27.5</ele><time>2026-04-19T13:23:26.252Z</time></trkpt><trkpt lat="38.8350642" lon="16.2574693"><ele>28.0</ele><time>2026-04-19T13:23:27.253Z</time></trkpt><trkpt lat="38.835149" lon="16.2575286"><ele>28.0</ele><time>2026-04-19T13:23:28.263Z</time></trkpt><trkpt lat="38.8352343" lon="16.2575882"><ele>28.0</ele><time>2026-04-19T13:23:29.258Z</time></trkpt><trkpt lat="38.8353344" lon="16.2576502"><ele>28.0</ele><time>2026-04-19T13:23:30.252Z</time></trkpt><trkpt lat="38.8354652" lon="16.2577248"><ele>28.0</ele><time>2026-04-19T13:23:31.277Z</time></trkpt><trkpt lat="38.8355716" lon="16.2577914"><ele>28.0</ele><time>2026-04-19T13:23:32.262Z</time></trkpt><trkpt lat="38.8356856" lon="16.2578639"><ele>28.0</ele><time>2026-04-19T13:23:33.25Z</time></trkpt><trkpt lat="38.835798" lon="16.257942"><ele>28.0</ele><time>2026-04-19T13:23:34.271Z</time></trkpt><trkpt lat="38.8359088" lon="16.2580172"><ele>28.0</ele><time>2026-04-19T13:23:35.271Z</time></trkpt><trkpt lat="38.8360224" lon="16.2580912"><ele>28.0</ele><time>2026-04-19T13:23:36.258Z</time></trkpt><trkpt lat="38.8361377" lon="16.2581703"><ele>28.0</ele><time>2026-04-19T13:23:37.262Z</time></trkpt><trkpt lat="38.836256" lon="16.2582516"><ele>28.0</ele><time>2026-04-19T13:23:38.263Z</time></trkpt><trkpt lat="38.8363765" lon="16.2583304"><ele>28.0</ele><time>2026-04-19T13:23:39.255Z</time></trkpt><trkpt lat="38.8364927" lon="16.2584095"><ele>28.0</ele><time>2026-04-19T13:23:40.259Z</time></trkpt><trkpt lat="38.8366088" lon="16.2584882"><ele>27.999999999999996</ele><time>2026-04-19T13:23:41.258Z</time></trkpt><trkpt lat="38.8367215" lon="16.2585578"><ele>27.999999999999996</ele><time>2026-04-19T13:23:42.252Z</time></trkpt><trkpt lat="38.83682" lon="16.2586115"><ele>28.0</ele><time>2026-04-19T13:23:43.264Z</time></trkpt><trkpt lat="38.8368986" lon="16.258653"><ele>28.0</ele><time>2026-04-19T13:23:44.257Z</time></trkpt><trkpt lat="38.8369566" lon="16.2586858"><ele>27.799999999999997</ele><time>2026-04-19T13:23:45.253Z</time></trkpt><trkpt lat="38.8370075" lon="16.2587575"><ele>27.599999999999998</ele><time>2026-04-19T13:23:58.259Z</time></trkpt><trkpt lat="38.8369782" lon="16.2588412"><ele>27.400000000000002</ele><time>2026-04-19T13:24:00.281Z</time></trkpt><trkpt lat="38.8369169" lon="16.2590231"><ele>27.200000000000003</ele><time>2026-04-19T13:24:02.254Z</time></trkpt><trkpt lat="38.8368672" lon="16.259137"><ele>27.0</ele><time>2026-04-19T13:24:03.265Z</time></trkpt><trkpt lat="38.8368266" lon="16.2592527"><ele>27.400000000000002</ele><time>2026-04-19T13:24:04.273Z</time></trkpt><trkpt lat="38.8367862" lon="16.2593811"><ele>27.800000000000004</ele><time>2026-04-19T13:24:05.25Z</time></trkpt><trkpt lat="38.8367444" lon="16.2595066"><ele>28.2</ele><time>2026-04-19T13:24:06.263Z</time></trkpt><trkpt lat="38.8366925" lon="16.2596029"><ele>28.6</ele><time>2026-04-19T13:24:07.291Z</time></trkpt><trkpt lat="38.8365914" lon="16.2596361"><ele>29.0</ele><time>2026-04-19T13:24:09.262Z</time></trkpt><trkpt lat="38.8365301" lon="16.2596657"><ele>29.0</ele><time>2026-04-19T13:24:11.255Z</time></trkpt></trkseg></trk></gpx>